﻿<?xml version="1.0" encoding="utf-8"?><gpx creator="Garmin Desktop App" version="1.1" xsi:schemaLocation="http://www.topografix.com/GPX/1/1 http://www.topografix.com/GPX/1/1/gpx.xsd http://www.garmin.com/xmlschemas/WaypointExtension/v1 http://www8.garmin.com/xmlschemas/WaypointExtensionv1.xsd http://www.garmin.com/xmlschemas/TrackPointExtension/v1 http://www.garmin.com/xmlschemas/TrackPointExtensionv1.xsd http://www.garmin.com/xmlschemas/GpxExtensions/v3 http://www8.garmin.com/xmlschemas/GpxExtensionsv3.xsd http://www.garmin.com/xmlschemas/ActivityExtension/v1 http://www8.garmin.com/xmlschemas/ActivityExtensionv1.xsd http://www.garmin.com/xmlschemas/AdventuresExtensions/v1 http://www8.garmin.com/xmlschemas/AdventuresExtensionv1.xsd http://www.garmin.com/xmlschemas/PressureExtension/v1 http://www.garmin.com/xmlschemas/PressureExtensionv1.xsd http://www.garmin.com/xmlschemas/TripExtensions/v1 http://www.garmin.com/xmlschemas/TripExtensionsv1.xsd http://www.garmin.com/xmlschemas/TripMetaDataExtensions/v1 http://www.garmin.com/xmlschemas/TripMetaDataExtensionsv1.xsd http://www.garmin.com/xmlschemas/ViaPointTransportationModeExtensions/v1 http://www.garmin.com/xmlschemas/ViaPointTransportationModeExtensionsv1.xsd http://www.garmin.com/xmlschemas/CreationTimeExtension/v1 http://www.garmin.com/xmlschemas/CreationTimeExtensionsv1.xsd http://www.garmin.com/xmlschemas/AccelerationExtension/v1 http://www.garmin.com/xmlschemas/AccelerationExtensionv1.xsd http://www.garmin.com/xmlschemas/PowerExtension/v1 http://www.garmin.com/xmlschemas/PowerExtensionv1.xsd http://www.garmin.com/xmlschemas/VideoExtension/v1 http://www.garmin.com/xmlschemas/VideoExtensionv1.xsd" xmlns="http://www.topografix.com/GPX/1/1" xmlns:xsi="http://www.w3.org/2001/XMLSchema-instance" xmlns:wptx1="http://www.garmin.com/xmlschemas/WaypointExtension/v1" xmlns:gpxtrx="http://www.garmin.com/xmlschemas/GpxExtensions/v3" xmlns:gpxtpx="http://www.garmin.com/xmlschemas/TrackPointExtension/v1" xmlns:gpxx="http://www.garmin.com/xmlschemas/GpxExtensions/v3" xmlns:trp="http://www.garmin.com/xmlschemas/TripExtensions/v1" xmlns:adv="http://www.garmin.com/xmlschemas/AdventuresExtensions/v1" xmlns:prs="http://www.garmin.com/xmlschemas/PressureExtension/v1" xmlns:tmd="http://www.garmin.com/xmlschemas/TripMetaDataExtensions/v1" xmlns:vptm="http://www.garmin.com/xmlschemas/ViaPointTransportationModeExtensions/v1" xmlns:ctx="http://www.garmin.com/xmlschemas/CreationTimeExtension/v1" xmlns:gpxacc="http://www.garmin.com/xmlschemas/AccelerationExtension/v1" xmlns:gpxpx="http://www.garmin.com/xmlschemas/PowerExtension/v1" xmlns:vidx1="http://www.garmin.com/xmlschemas/VideoExtension/v1">

  <metadata>
    <link href="http://www.garmin.com">
      <text>Garmin International</text>
    </link>
    <time>2024-09-12T19:28:52Z</time>
    <bounds maxlat="52.666940996423364" maxlon="11.861577015370131" minlat="50.960924969986081" minlon="10.846682013943791" />
  </metadata>

  <trk>
    <name>Track 240912</name>
    <extensions>
      <gpxx:TrackExtension>
        <gpxx:DisplayColor>DarkGray</gpxx:DisplayColor>
      </gpxx:TrackExtension>
    </extensions>
    <trkseg>
      <trkpt lat="51.014196993783116" lon="11.02397502399981">
        <ele>182.78999999999999</ele>
        <time>2024-09-12T07:02:11Z</time>
      </trkpt>
      <trkpt lat="51.014202022925019" lon="11.023979969322681">
        <ele>182.31</ele>
        <time>2024-09-12T07:02:48Z</time>
      </trkpt>
      <trkpt lat="51.014202022925019" lon="11.023979969322681">
        <ele>182.31</ele>
        <time>2024-09-12T07:02:50Z</time>
      </trkpt>
      <trkpt lat="51.014291038736701" lon="11.024139979854226">
        <ele>182.31</ele>
        <time>2024-09-12T07:02:52Z</time>
      </trkpt>
      <trkpt lat="51.01426899433136" lon="11.024181973189116">
        <ele>182.31</ele>
        <time>2024-09-12T07:02:53Z</time>
      </trkpt>
      <trkpt lat="51.014239992946386" lon="11.024236036464572">
        <ele>181.83000000000001</ele>
        <time>2024-09-12T07:02:54Z</time>
      </trkpt>
      <trkpt lat="51.01420696824789" lon="11.02429898455739">
        <ele>181.83000000000001</ele>
        <time>2024-09-12T07:02:55Z</time>
      </trkpt>
      <trkpt lat="51.013965988531709" lon="11.025447975844145">
        <ele>180.38</ele>
        <time>2024-09-12T07:03:06Z</time>
      </trkpt>
      <trkpt lat="51.013949979096651" lon="11.025579990819097">
        <ele>180.38</ele>
        <time>2024-09-12T07:03:07Z</time>
      </trkpt>
      <trkpt lat="51.013803966343403" lon="11.027556024491787">
        <ele>182.78999999999999</ele>
        <time>2024-09-12T07:03:22Z</time>
      </trkpt>
      <trkpt lat="51.013787034898996" lon="11.027761967852712">
        <ele>182.31</ele>
        <time>2024-09-12T07:03:24Z</time>
      </trkpt>
      <trkpt lat="51.013780999928713" lon="11.027837991714478">
        <ele>182.31</ele>
        <time>2024-09-12T07:03:25Z</time>
      </trkpt>
      <trkpt lat="51.013718973845243" lon="11.027947040274739">
        <ele>181.83000000000001</ele>
        <time>2024-09-12T07:03:26Z</time>
      </trkpt>
      <trkpt lat="51.013671029359102" lon="11.027938993647695">
        <ele>181.83000000000001</ele>
        <time>2024-09-12T07:03:27Z</time>
      </trkpt>
      <trkpt lat="51.013615960255265" lon="11.027930025011301">
        <ele>181.83000000000001</ele>
        <time>2024-09-12T07:03:28Z</time>
      </trkpt>
      <trkpt lat="51.013553012162447" lon="11.027918960899115">
        <ele>181.34999999999999</ele>
        <time>2024-09-12T07:03:29Z</time>
      </trkpt>
      <trkpt lat="51.013315971940756" lon="11.027877973392606">
        <ele>180.87</ele>
        <time>2024-09-12T07:03:37Z</time>
      </trkpt>
      <trkpt lat="51.013315971940756" lon="11.027877973392606">
        <ele>180.87</ele>
        <time>2024-09-12T07:04:23Z</time>
      </trkpt>
      <trkpt lat="51.01300198584795" lon="11.027817958965898">
        <ele>181.34999999999999</ele>
        <time>2024-09-12T07:04:37Z</time>
      </trkpt>
      <trkpt lat="51.012760000303388" lon="11.027816031128168">
        <ele>181.34999999999999</ele>
        <time>2024-09-12T07:04:43Z</time>
      </trkpt>
      <trkpt lat="51.012755976989865" lon="11.02786498144269">
        <ele>180.87</ele>
        <time>2024-09-12T07:04:44Z</time>
      </trkpt>
      <trkpt lat="51.012749020010233" lon="11.027944022789598">
        <ele>180.87</ele>
        <time>2024-09-12T07:04:45Z</time>
      </trkpt>
      <trkpt lat="51.012740973383188" lon="11.028051981702447">
        <ele>180.38</ele>
        <time>2024-09-12T07:04:46Z</time>
      </trkpt>
      <trkpt lat="51.012730998918414" lon="11.028177961707115">
        <ele>180.38</ele>
        <time>2024-09-12T07:04:47Z</time>
      </trkpt>
      <trkpt lat="51.012623962014914" lon="11.029576985165477">
        <ele>179.41999999999999</ele>
        <time>2024-09-12T07:04:55Z</time>
      </trkpt>
      <trkpt lat="51.012456994503736" lon="11.032133968546987">
        <ele>180.87</ele>
        <time>2024-09-12T07:05:09Z</time>
      </trkpt>
      <trkpt lat="51.012361021712422" lon="11.033023959025741">
        <ele>182.78999999999999</ele>
        <time>2024-09-12T07:05:18Z</time>
      </trkpt>
      <trkpt lat="51.012348029762506" lon="11.033135019242764">
        <ele>183.75</ele>
        <time>2024-09-12T07:05:27Z</time>
      </trkpt>
      <trkpt lat="51.012301007285714" lon="11.033497033640742">
        <ele>184.22999999999999</ele>
        <time>2024-09-12T07:06:06Z</time>
      </trkpt>
      <trkpt lat="51.012217020615935" lon="11.034773010760546">
        <ele>185.66999999999999</ele>
        <time>2024-09-12T07:06:15Z</time>
      </trkpt>
      <trkpt lat="51.012030020356178" lon="11.037323959171772">
        <ele>184.71000000000001</ele>
        <time>2024-09-12T07:06:29Z</time>
      </trkpt>
      <trkpt lat="51.011889036744833" lon="11.039653960615396">
        <ele>186.63</ele>
        <time>2024-09-12T07:06:42Z</time>
      </trkpt>
      <trkpt lat="51.011848971247673" lon="11.041586995124817">
        <ele>192.40000000000001</ele>
        <time>2024-09-12T07:06:52Z</time>
      </trkpt>
      <trkpt lat="51.01164797320962" lon="11.043669981881976">
        <ele>196.25</ele>
        <time>2024-09-12T07:07:03Z</time>
      </trkpt>
      <trkpt lat="51.011444041505456" lon="11.046314975246787">
        <ele>190</ele>
        <time>2024-09-12T07:07:16Z</time>
      </trkpt>
      <trkpt lat="51.011489974334836" lon="11.048972960561514">
        <ele>187.11000000000001</ele>
        <time>2024-09-12T07:07:30Z</time>
      </trkpt>
      <trkpt lat="51.011633975431323" lon="11.051425002515316">
        <ele>187.11000000000001</ele>
        <time>2024-09-12T07:07:41Z</time>
      </trkpt>
      <trkpt lat="51.012022979557514" lon="11.053445041179657">
        <ele>187.59</ele>
        <time>2024-09-12T07:07:49Z</time>
      </trkpt>
      <trkpt lat="51.012778021395206" lon="11.05564596131444">
        <ele>189.52000000000001</ele>
        <time>2024-09-12T07:07:58Z</time>
      </trkpt>
      <trkpt lat="51.013034004718065" lon="11.057580001652241">
        <ele>190.47999999999999</ele>
        <time>2024-09-12T07:08:05Z</time>
      </trkpt>
      <trkpt lat="51.012913975864649" lon="11.058973995968699">
        <ele>193.36000000000001</ele>
        <time>2024-09-12T07:08:12Z</time>
      </trkpt>
      <trkpt lat="51.012499993667006" lon="11.060439990833402">
        <ele>197.69</ele>
        <time>2024-09-12T07:08:22Z</time>
      </trkpt>
      <trkpt lat="51.012438973411918" lon="11.060617016628385">
        <ele>197.69</ele>
        <time>2024-09-12T07:08:23Z</time>
      </trkpt>
      <trkpt lat="51.012354986742139" lon="11.060773003846407">
        <ele>197.69</ele>
        <time>2024-09-12T07:08:24Z</time>
      </trkpt>
      <trkpt lat="51.012264965102077" lon="11.060921028256416">
        <ele>197.21000000000001</ele>
        <time>2024-09-12T07:08:25Z</time>
      </trkpt>
      <trkpt lat="51.012157006189227" lon="11.061034016311169">
        <ele>197.21000000000001</ele>
        <time>2024-09-12T07:08:26Z</time>
      </trkpt>
      <trkpt lat="51.012047035619617" lon="11.061151027679443">
        <ele>197.21000000000001</ele>
        <time>2024-09-12T07:08:27Z</time>
      </trkpt>
      <trkpt lat="51.011933041736484" lon="11.061269966885448">
        <ele>197.21000000000001</ele>
        <time>2024-09-12T07:08:28Z</time>
      </trkpt>
      <trkpt lat="51.011802032589912" lon="11.061369040980935">
        <ele>196.72999999999999</ele>
        <time>2024-09-12T07:08:29Z</time>
      </trkpt>
      <trkpt lat="51.010397979989648" lon="11.062171021476388">
        <ele>198.16999999999999</ele>
        <time>2024-09-12T07:08:38Z</time>
      </trkpt>
      <trkpt lat="51.008590003475547" lon="11.062962021678686">
        <ele>202.49000000000001</ele>
        <time>2024-09-12T07:08:47Z</time>
      </trkpt>
      <trkpt lat="51.005976023152471" lon="11.064183013513684">
        <ele>208.25999999999999</ele>
        <time>2024-09-12T07:08:58Z</time>
      </trkpt>
      <trkpt lat="51.003769990056753" lon="11.065819999203086">
        <ele>213.55000000000001</ele>
        <time>2024-09-12T07:09:08Z</time>
      </trkpt>
      <trkpt lat="51.001735031604767" lon="11.067942967638373">
        <ele>217.88</ele>
        <time>2024-09-12T07:09:19Z</time>
      </trkpt>
      <trkpt lat="51.000923998653889" lon="11.068948041647673">
        <ele>219.80000000000001</ele>
        <time>2024-09-12T07:09:25Z</time>
      </trkpt>
      <trkpt lat="50.999920014292002" lon="11.070224018767476">
        <ele>220.28</ele>
        <time>2024-09-12T07:09:33Z</time>
      </trkpt>
      <trkpt lat="50.998521996662021" lon="11.072212038561702">
        <ele>219.31999999999999</ele>
        <time>2024-09-12T07:09:42Z</time>
      </trkpt>
      <trkpt lat="50.996395004913211" lon="11.075271014124155">
        <ele>212.59</ele>
        <time>2024-09-12T07:09:54Z</time>
      </trkpt>
      <trkpt lat="50.993156991899014" lon="11.079957000911236">
        <ele>203.94</ele>
        <time>2024-09-12T07:10:12Z</time>
      </trkpt>
      <trkpt lat="50.990403033792973" lon="11.083846036344767">
        <ele>206.81999999999999</ele>
        <time>2024-09-12T07:10:28Z</time>
      </trkpt>
      <trkpt lat="50.98913099616766" lon="11.085480004549026">
        <ele>210.19</ele>
        <time>2024-09-12T07:10:36Z</time>
      </trkpt>
      <trkpt lat="50.987551007419825" lon="11.087155966088176">
        <ele>213.55000000000001</ele>
        <time>2024-09-12T07:10:45Z</time>
      </trkpt>
      <trkpt lat="50.985208014026284" lon="11.089102998375893">
        <ele>219.31999999999999</ele>
        <time>2024-09-12T07:10:55Z</time>
      </trkpt>
      <trkpt lat="50.982560003176332" lon="11.090704025700688">
        <ele>225.56999999999999</ele>
        <time>2024-09-12T07:11:06Z</time>
      </trkpt>
      <trkpt lat="50.980444997549057" lon="11.091541964560747">
        <ele>228.44999999999999</ele>
        <time>2024-09-12T07:11:15Z</time>
      </trkpt>
      <trkpt lat="50.978169981390238" lon="11.092054015025496">
        <ele>229.88999999999999</ele>
        <time>2024-09-12T07:11:25Z</time>
      </trkpt>
      <trkpt lat="50.977132972329855" lon="11.092176977545023">
        <ele>229.88999999999999</ele>
        <time>2024-09-12T07:11:31Z</time>
      </trkpt>
      <trkpt lat="50.977002969011664" lon="11.092167003080249">
        <ele>229.41</ele>
        <time>2024-09-12T07:11:32Z</time>
      </trkpt>
      <trkpt lat="50.976916970685124" lon="11.091974973678589">
        <ele>229.41</ele>
        <time>2024-09-12T07:11:33Z</time>
      </trkpt>
      <trkpt lat="50.97684103064239" lon="11.091876989230514">
        <ele>229.41</ele>
        <time>2024-09-12T07:11:34Z</time>
      </trkpt>
      <trkpt lat="50.976779004558921" lon="11.091753020882607">
        <ele>229.41</ele>
        <time>2024-09-12T07:11:35Z</time>
      </trkpt>
      <trkpt lat="50.976740028709173" lon="11.09163299202919">
        <ele>228.93000000000001</ele>
        <time>2024-09-12T07:11:36Z</time>
      </trkpt>
      <trkpt lat="50.97671396099031" lon="11.091497959569097">
        <ele>228.93000000000001</ele>
        <time>2024-09-12T07:11:37Z</time>
      </trkpt>
      <trkpt lat="50.976721001788974" lon="11.091369967907667">
        <ele>228.93000000000001</ele>
        <time>2024-09-12T07:11:38Z</time>
      </trkpt>
      <trkpt lat="50.976727036759257" lon="11.091258991509676">
        <ele>228.44999999999999</ele>
        <time>2024-09-12T07:11:39Z</time>
      </trkpt>
      <trkpt lat="50.976731982082129" lon="11.091170981526375">
        <ele>227.97</ele>
        <time>2024-09-12T07:11:40Z</time>
      </trkpt>
      <trkpt lat="50.976753020659089" lon="11.091099986806512">
        <ele>227.97</ele>
        <time>2024-09-12T07:11:41Z</time>
      </trkpt>
      <trkpt lat="50.976770035922527" lon="11.09107400290668">
        <ele>227.49000000000001</ele>
        <time>2024-09-12T07:11:42Z</time>
      </trkpt>
      <trkpt lat="50.976822003722191" lon="11.090996973216534">
        <ele>227.00999999999999</ele>
        <time>2024-09-12T07:11:50Z</time>
      </trkpt>
      <trkpt lat="50.976895010098815" lon="11.090887002646923">
        <ele>227.00999999999999</ele>
        <time>2024-09-12T07:11:52Z</time>
      </trkpt>
      <trkpt lat="50.97694898955524" lon="11.090806033462286">
        <ele>227.00999999999999</ele>
        <time>2024-09-12T07:11:53Z</time>
      </trkpt>
      <trkpt lat="50.976994000375271" lon="11.090782983228564">
        <ele>227.00999999999999</ele>
        <time>2024-09-12T07:11:54Z</time>
      </trkpt>
      <trkpt lat="50.97705502063036" lon="11.09075297601521">
        <ele>227.00999999999999</ele>
        <time>2024-09-12T07:11:55Z</time>
      </trkpt>
      <trkpt lat="50.97712098620832" lon="11.090720035135746">
        <ele>227.00999999999999</ele>
        <time>2024-09-12T07:11:56Z</time>
      </trkpt>
      <trkpt lat="50.977562963962555" lon="11.090640993788838">
        <ele>226.05000000000001</ele>
        <time>2024-09-12T07:12:03Z</time>
      </trkpt>
      <trkpt lat="50.977609986439347" lon="11.090638982132077">
        <ele>226.05000000000001</ele>
        <time>2024-09-12T07:12:04Z</time>
      </trkpt>
      <trkpt lat="50.977696990594268" lon="11.09079304151237">
        <ele>226.05000000000001</ele>
        <time>2024-09-12T07:12:05Z</time>
      </trkpt>
      <trkpt lat="50.977686010301113" lon="11.090863030403852">
        <ele>225.56999999999999</ele>
        <time>2024-09-12T07:12:06Z</time>
      </trkpt>
      <trkpt lat="50.977673018351197" lon="11.090949028730392">
        <ele>225.09</ele>
        <time>2024-09-12T07:12:07Z</time>
      </trkpt>
      <trkpt lat="50.97765700891614" lon="11.091048019006848">
        <ele>225.09</ele>
        <time>2024-09-12T07:12:08Z</time>
      </trkpt>
      <trkpt lat="50.977638987824321" lon="11.091164024546742">
        <ele>224.61000000000001</ele>
        <time>2024-09-12T07:12:09Z</time>
      </trkpt>
      <trkpt lat="50.977619038894773" lon="11.091292016208172">
        <ele>224.61000000000001</ele>
        <time>2024-09-12T07:12:10Z</time>
      </trkpt>
      <trkpt lat="50.977490041404963" lon="11.092113023623824">
        <ele>222.68000000000001</ele>
        <time>2024-09-12T07:12:16Z</time>
      </trkpt>
      <trkpt lat="50.977331958711147" lon="11.093128994107246">
        <ele>217.88</ele>
        <time>2024-09-12T07:12:26Z</time>
      </trkpt>
      <trkpt lat="50.977205978706479" lon="11.093832990154624">
        <ele>215.47</ele>
        <time>2024-09-12T07:12:34Z</time>
      </trkpt>
      <trkpt lat="50.97694999538362" lon="11.095333015546203">
        <ele>213.55000000000001</ele>
        <time>2024-09-12T07:12:44Z</time>
      </trkpt>
      <trkpt lat="50.976575994864106" lon="11.097728982567787">
        <ele>210.66999999999999</ele>
        <time>2024-09-12T07:12:57Z</time>
      </trkpt>
      <trkpt lat="50.976216997951269" lon="11.099968962371349">
        <ele>211.63</ele>
        <time>2024-09-12T07:13:09Z</time>
      </trkpt>
      <trkpt lat="50.975866969674826" lon="11.102101989090443">
        <ele>214.50999999999999</ele>
        <time>2024-09-12T07:13:20Z</time>
      </trkpt>
      <trkpt lat="50.97553102299571" lon="11.104207020252943">
        <ele>216.43000000000001</ele>
        <time>2024-09-12T07:13:31Z</time>
      </trkpt>
      <trkpt lat="50.975106982514262" lon="11.106788981705904">
        <ele>218.84</ele>
        <time>2024-09-12T07:13:44Z</time>
      </trkpt>
      <trkpt lat="50.974987037479877" lon="11.10888303257525">
        <ele>222.19999999999999</ele>
        <time>2024-09-12T07:13:53Z</time>
      </trkpt>
      <trkpt lat="50.975026013329625" lon="11.109437998384237">
        <ele>223.63999999999999</ele>
        <time>2024-09-12T07:13:55Z</time>
      </trkpt>
      <trkpt lat="50.975236985832453" lon="11.112434025853872">
        <ele>229.41</ele>
        <time>2024-09-12T07:14:05Z</time>
      </trkpt>
      <trkpt lat="50.975267998874187" lon="11.116027012467384">
        <ele>235.66</ele>
        <time>2024-09-12T07:14:15Z</time>
      </trkpt>
      <trkpt lat="50.975180994719267" lon="11.119535006582737">
        <ele>239.50999999999999</ele>
        <time>2024-09-12T07:14:25Z</time>
      </trkpt>
      <trkpt lat="50.97479903139174" lon="11.122272033244371">
        <ele>241.43000000000001</ele>
        <time>2024-09-12T07:14:33Z</time>
      </trkpt>
      <trkpt lat="50.974050024524331" lon="11.127099003642797">
        <ele>250.56</ele>
        <time>2024-09-12T07:14:46Z</time>
      </trkpt>
      <trkpt lat="50.973348040133715" lon="11.130812019109726">
        <ele>260.64999999999998</ele>
        <time>2024-09-12T07:14:56Z</time>
      </trkpt>
      <trkpt lat="50.97230801358819" lon="11.133716013282537">
        <ele>265.94</ele>
        <time>2024-09-12T07:15:05Z</time>
      </trkpt>
      <trkpt lat="50.970852999016643" lon="11.136122960597277">
        <ele>267.38</ele>
        <time>2024-09-12T07:15:14Z</time>
      </trkpt>
      <trkpt lat="50.96951499581337" lon="11.137577975168824">
        <ele>269.31</ele>
        <time>2024-09-12T07:15:21Z</time>
      </trkpt>
      <trkpt lat="50.967610040679574" lon="11.138941962271929">
        <ele>274.11000000000001</ele>
        <time>2024-09-12T07:15:30Z</time>
      </trkpt>
      <trkpt lat="50.965278027579188" lon="11.140593029558659">
        <ele>285.17000000000002</ele>
        <time>2024-09-12T07:15:41Z</time>
      </trkpt>
      <trkpt lat="50.963769033551216" lon="11.142365969717503">
        <ele>290.94</ele>
        <time>2024-09-12T07:15:49Z</time>
      </trkpt>
      <trkpt lat="50.962418960407376" lon="11.144909039139748">
        <ele>296.22000000000003</ele>
        <time>2024-09-12T07:15:58Z</time>
      </trkpt>
      <trkpt lat="50.961585966870189" lon="11.147411037236452">
        <ele>299.58999999999997</ele>
        <time>2024-09-12T07:16:06Z</time>
      </trkpt>
      <trkpt lat="50.961159998551011" lon="11.149345999583602">
        <ele>300.06999999999999</ele>
        <time>2024-09-12T07:16:14Z</time>
      </trkpt>
      <trkpt lat="50.960924969986081" lon="11.151538034901023">
        <ele>298.14999999999998</ele>
        <time>2024-09-12T07:16:23Z</time>
      </trkpt>
      <trkpt lat="50.960948020219803" lon="11.154231978580356">
        <ele>296.22000000000003</ele>
        <time>2024-09-12T07:16:33Z</time>
      </trkpt>
      <trkpt lat="50.961411036550999" lon="11.157578034326434">
        <ele>294.30000000000001</ele>
        <time>2024-09-12T07:16:44Z</time>
      </trkpt>
      <trkpt lat="50.962140010669827" lon="11.159974001348019">
        <ele>291.42000000000002</ele>
        <time>2024-09-12T07:16:52Z</time>
      </trkpt>
      <trkpt lat="50.963278021663427" lon="11.162428976967931">
        <ele>289.00999999999999</ele>
        <time>2024-09-12T07:17:01Z</time>
      </trkpt>
      <trkpt lat="50.964820040389895" lon="11.164554040879011">
        <ele>287.56999999999999</ele>
        <time>2024-09-12T07:17:10Z</time>
      </trkpt>
      <trkpt lat="50.966539001092315" lon="11.166043002158403">
        <ele>286.13</ele>
        <time>2024-09-12T07:17:19Z</time>
      </trkpt>
      <trkpt lat="50.968758026137948" lon="11.167333982884884">
        <ele>282.27999999999997</ele>
        <time>2024-09-12T07:17:30Z</time>
      </trkpt>
      <trkpt lat="50.97024698741734" lon="11.168728983029723">
        <ele>281.80000000000001</ele>
        <time>2024-09-12T07:17:38Z</time>
      </trkpt>
      <trkpt lat="50.971400002017617" lon="11.170792020857334">
        <ele>283.25</ele>
        <time>2024-09-12T07:17:46Z</time>
      </trkpt>
      <trkpt lat="50.972066028043628" lon="11.173327965661883">
        <ele>284.20999999999998</ele>
        <time>2024-09-12T07:17:54Z</time>
      </trkpt>
      <trkpt lat="50.972267026081681" lon="11.175711024552584">
        <ele>285.17000000000002</ele>
        <time>2024-09-12T07:18:01Z</time>
      </trkpt>
      <trkpt lat="50.971996961161494" lon="11.178045971319079">
        <ele>286.13</ele>
        <time>2024-09-12T07:18:08Z</time>
      </trkpt>
      <trkpt lat="50.971129015088081" lon="11.180757014080882">
        <ele>287.56999999999999</ele>
        <time>2024-09-12T07:18:17Z</time>
      </trkpt>
      <trkpt lat="50.96975396387279" lon="11.184045989066362">
        <ele>289.49000000000001</ele>
        <time>2024-09-12T07:18:29Z</time>
      </trkpt>
      <trkpt lat="50.969206038862467" lon="11.186128975823522">
        <ele>291.42000000000002</ele>
        <time>2024-09-12T07:18:36Z</time>
      </trkpt>
      <trkpt lat="50.969036975875497" lon="11.188414972275496">
        <ele>291.89999999999998</ele>
        <time>2024-09-12T07:18:43Z</time>
      </trkpt>
      <trkpt lat="50.969356996938586" lon="11.190972961485386">
        <ele>290.45999999999998</ele>
        <time>2024-09-12T07:18:51Z</time>
      </trkpt>
      <trkpt lat="50.969332018867135" lon="11.19317002594471">
        <ele>289.97000000000003</ele>
        <time>2024-09-12T07:18:58Z</time>
      </trkpt>
      <trkpt lat="50.969564029946923" lon="11.195086967200041">
        <ele>287.56999999999999</ele>
        <time>2024-09-12T07:19:04Z</time>
      </trkpt>
      <trkpt lat="50.970264002680779" lon="11.199461985379457">
        <ele>281.31999999999999</ele>
        <time>2024-09-12T07:19:17Z</time>
      </trkpt>
      <trkpt lat="50.970312030985951" lon="11.203454034402966">
        <ele>282.76999999999998</ele>
        <time>2024-09-12T07:19:28Z</time>
      </trkpt>
      <trkpt lat="50.970056969672441" lon="11.205520005896688">
        <ele>288.05000000000001</ele>
        <time>2024-09-12T07:19:34Z</time>
      </trkpt>
      <trkpt lat="50.969018032774329" lon="11.210865983739495">
        <ele>302.47000000000003</ele>
        <time>2024-09-12T07:19:51Z</time>
      </trkpt>
      <trkpt lat="50.96788203343749" lon="11.216632984578609">
        <ele>309.68000000000001</ele>
        <time>2024-09-12T07:20:09Z</time>
      </trkpt>
      <trkpt lat="50.967170996591449" lon="11.221022000536323">
        <ele>311.60000000000002</ele>
        <time>2024-09-12T07:20:23Z</time>
      </trkpt>
      <trkpt lat="50.967103019356728" lon="11.223827004432678">
        <ele>310.16000000000003</ele>
        <time>2024-09-12T07:20:33Z</time>
      </trkpt>
      <trkpt lat="50.967016015201807" lon="11.226870976388454">
        <ele>306.80000000000001</ele>
        <time>2024-09-12T07:20:45Z</time>
      </trkpt>
      <trkpt lat="50.966673027724028" lon="11.229013977572322">
        <ele>310.63999999999999</ele>
        <time>2024-09-12T07:20:53Z</time>
      </trkpt>
      <trkpt lat="50.966468006372452" lon="11.230769986286759">
        <ele>312.08999999999997</ele>
        <time>2024-09-12T07:21:02Z</time>
      </trkpt>
      <trkpt lat="50.966455014422536" lon="11.23130802065134">
        <ele>311.60000000000002</ele>
        <time>2024-09-12T07:21:05Z</time>
      </trkpt>
      <trkpt lat="50.966449985280633" lon="11.23148001730442">
        <ele>311.60000000000002</ele>
        <time>2024-09-12T07:21:06Z</time>
      </trkpt>
      <trkpt lat="50.966418972238898" lon="11.232538986951113">
        <ele>310.16000000000003</ele>
        <time>2024-09-12T07:21:14Z</time>
      </trkpt>
      <trkpt lat="50.966418972238898" lon="11.233419002965093">
        <ele>306.80000000000001</ele>
        <time>2024-09-12T07:21:23Z</time>
      </trkpt>
      <trkpt lat="50.966474041342735" lon="11.233900962397456">
        <ele>306.80000000000001</ele>
        <time>2024-09-12T07:21:28Z</time>
      </trkpt>
      <trkpt lat="50.966500025242567" lon="11.23410196043551">
        <ele>306.31999999999999</ele>
        <time>2024-09-12T07:21:32Z</time>
      </trkpt>
      <trkpt lat="50.966500025242567" lon="11.23410196043551">
        <ele>306.31999999999999</ele>
        <time>2024-09-12T07:21:44Z</time>
      </trkpt>
      <trkpt lat="50.96650798805058" lon="11.234169015660882">
        <ele>306.31999999999999</ele>
        <time>2024-09-12T07:22:12Z</time>
      </trkpt>
      <trkpt lat="50.966520980000496" lon="11.23427202925086">
        <ele>306.31999999999999</ele>
        <time>2024-09-12T07:22:13Z</time>
      </trkpt>
      <trkpt lat="50.966545036062598" lon="11.234346963465214">
        <ele>306.31999999999999</ele>
        <time>2024-09-12T07:22:14Z</time>
      </trkpt>
      <trkpt lat="50.966569008305669" lon="11.234464980661869">
        <ele>306.31999999999999</ele>
        <time>2024-09-12T07:22:15Z</time>
      </trkpt>
      <trkpt lat="50.966598009690642" lon="11.234604036435485">
        <ele>306.31999999999999</ele>
        <time>2024-09-12T07:22:16Z</time>
      </trkpt>
      <trkpt lat="50.96680898219347" lon="11.236040024086833">
        <ele>306.80000000000001</ele>
        <time>2024-09-12T07:22:24Z</time>
      </trkpt>
      <trkpt lat="50.966933034360409" lon="11.238066013902426">
        <ele>307.75999999999999</ele>
        <time>2024-09-12T07:22:34Z</time>
      </trkpt>
      <trkpt lat="50.966940997168422" lon="11.238313028588891">
        <ele>307.75999999999999</ele>
        <time>2024-09-12T07:22:35Z</time>
      </trkpt>
      <trkpt lat="50.966949965804815" lon="11.238564988598228">
        <ele>307.75999999999999</ele>
        <time>2024-09-12T07:22:36Z</time>
      </trkpt>
      <trkpt lat="50.966910989955068" lon="11.238833963871002">
        <ele>308.24000000000001</ele>
        <time>2024-09-12T07:22:37Z</time>
      </trkpt>
      <trkpt lat="50.966871008276939" lon="11.239118026569486">
        <ele>308.24000000000001</ele>
        <time>2024-09-12T07:22:38Z</time>
      </trkpt>
      <trkpt lat="50.96682901494205" lon="11.239412985742092">
        <ele>308.72000000000003</ele>
        <time>2024-09-12T07:22:39Z</time>
      </trkpt>
      <trkpt lat="50.966755002737045" lon="11.240347987040877">
        <ele>308.72000000000003</ele>
        <time>2024-09-12T07:22:42Z</time>
      </trkpt>
      <trkpt lat="50.966619970276952" lon="11.244317991659045">
        <ele>309.19999999999999</ele>
        <time>2024-09-12T07:22:55Z</time>
      </trkpt>
      <trkpt lat="50.966677973046899" lon="11.247810982167721">
        <ele>307.75999999999999</ele>
        <time>2024-09-12T07:23:06Z</time>
      </trkpt>
      <trkpt lat="50.966996988281608" lon="11.250410964712501">
        <ele>309.19999999999999</ele>
        <time>2024-09-12T07:23:15Z</time>
      </trkpt>
      <trkpt lat="50.967256994917989" lon="11.253297021612525">
        <ele>309.19999999999999</ele>
        <time>2024-09-12T07:23:25Z</time>
      </trkpt>
      <trkpt lat="50.967734009027481" lon="11.255574971437454">
        <ele>308.24000000000001</ele>
        <time>2024-09-12T07:23:33Z</time>
      </trkpt>
      <trkpt lat="50.968181015923619" lon="11.25758302398026">
        <ele>310.63999999999999</ele>
        <time>2024-09-12T07:23:41Z</time>
      </trkpt>
      <trkpt lat="50.968824997544289" lon="11.26102396287024">
        <ele>309.68000000000001</ele>
        <time>2024-09-12T07:23:53Z</time>
      </trkpt>
      <trkpt lat="50.969589008018374" lon="11.264121998101473">
        <ele>310.16000000000003</ele>
        <time>2024-09-12T07:24:04Z</time>
      </trkpt>
      <trkpt lat="50.969952028244734" lon="11.265520015731454">
        <ele>307.75999999999999</ele>
        <time>2024-09-12T07:24:11Z</time>
      </trkpt>
      <trkpt lat="50.970027968287468" lon="11.265810029581189">
        <ele>305.36000000000001</ele>
        <time>2024-09-12T07:24:18Z</time>
      </trkpt>
      <trkpt lat="50.970044983550906" lon="11.265879012644291">
        <ele>304.88</ele>
        <time>2024-09-12T07:24:30Z</time>
      </trkpt>
      <trkpt lat="50.970268025994301" lon="11.266789035871625">
        <ele>301.02999999999997</ele>
        <time>2024-09-12T07:24:36Z</time>
      </trkpt>
      <trkpt lat="50.970789967104793" lon="11.268873028457165">
        <ele>298.14999999999998</ele>
        <time>2024-09-12T07:24:46Z</time>
      </trkpt>
      <trkpt lat="50.971561018377542" lon="11.271320963278413">
        <ele>297.67000000000002</ele>
        <time>2024-09-12T07:24:56Z</time>
      </trkpt>
      <trkpt lat="50.972600961104035" lon="11.274323025718331">
        <ele>295.25999999999999</ele>
        <time>2024-09-12T07:25:07Z</time>
      </trkpt>
      <trkpt lat="50.973838968202472" lon="11.277898997068405">
        <ele>292.38</ele>
        <time>2024-09-12T07:25:19Z</time>
      </trkpt>
      <trkpt lat="50.975491963326931" lon="11.282691014930606">
        <ele>284.69</ele>
        <time>2024-09-12T07:25:33Z</time>
      </trkpt>
      <trkpt lat="50.97675696015358" lon="11.286350972950459">
        <ele>279.88</ele>
        <time>2024-09-12T07:25:44Z</time>
      </trkpt>
      <trkpt lat="50.977570004761219" lon="11.288616014644504">
        <ele>276.51999999999998</ele>
        <time>2024-09-12T07:25:53Z</time>
      </trkpt>
      <trkpt lat="50.978448009118438" lon="11.290768990293145">
        <ele>270.75</ele>
        <time>2024-09-12T07:26:04Z</time>
      </trkpt>
      <trkpt lat="50.978658981621265" lon="11.291142990812659">
        <ele>268.82999999999998</ele>
        <time>2024-09-12T07:26:08Z</time>
      </trkpt>
      <trkpt lat="50.978682031854987" lon="11.291194958612323">
        <ele>268.35000000000002</ele>
        <time>2024-09-12T07:26:09Z</time>
      </trkpt>
      <trkpt lat="50.978752020746469" lon="11.291349017992616">
        <ele>266.42000000000002</ele>
        <time>2024-09-12T07:26:15Z</time>
      </trkpt>
      <trkpt lat="50.978765012696385" lon="11.291496958583593">
        <ele>265.94</ele>
        <time>2024-09-12T07:26:16Z</time>
      </trkpt>
      <trkpt lat="50.978776998817921" lon="11.291624028235674">
        <ele>265.94</ele>
        <time>2024-09-12T07:26:17Z</time>
      </trkpt>
      <trkpt lat="50.978789990767837" lon="11.291768029332161">
        <ele>265.45999999999998</ele>
        <time>2024-09-12T07:26:18Z</time>
      </trkpt>
      <trkpt lat="50.978804994374514" lon="11.291928961873055">
        <ele>265.45999999999998</ele>
        <time>2024-09-12T07:26:19Z</time>
      </trkpt>
      <trkpt lat="50.978823015466332" lon="11.292104981839657">
        <ele>265.45999999999998</ele>
        <time>2024-09-12T07:26:20Z</time>
      </trkpt>
      <trkpt lat="50.979078998789191" lon="11.293727969750762">
        <ele>264.01999999999998</ele>
        <time>2024-09-12T07:26:27Z</time>
      </trkpt>
      <trkpt lat="50.979168014600873" lon="11.2948829960078">
        <ele>262.10000000000002</ele>
        <time>2024-09-12T07:26:31Z</time>
      </trkpt>
      <trkpt lat="50.979132978245616" lon="11.2960210070014">
        <ele>260.64999999999998</ele>
        <time>2024-09-12T07:26:35Z</time>
      </trkpt>
      <trkpt lat="50.978744979947805" lon="11.298686033114791">
        <ele>256.81</ele>
        <time>2024-09-12T07:26:45Z</time>
      </trkpt>
      <trkpt lat="50.97873299382627" lon="11.299159023910761">
        <ele>256.81</ele>
        <time>2024-09-12T07:26:47Z</time>
      </trkpt>
      <trkpt lat="50.978751014918089" lon="11.301664961501956">
        <ele>254.88999999999999</ele>
        <time>2024-09-12T07:26:58Z</time>
      </trkpt>
      <trkpt lat="50.978767024353147" lon="11.301880963146687">
        <ele>254.88999999999999</ele>
        <time>2024-09-12T07:26:59Z</time>
      </trkpt>
      <trkpt lat="50.978803988546133" lon="11.302076010033488">
        <ele>254.41</ele>
        <time>2024-09-12T07:27:00Z</time>
      </trkpt>
      <trkpt lat="50.978851011022925" lon="11.302253035828471">
        <ele>253.93000000000001</ele>
        <time>2024-09-12T07:27:01Z</time>
      </trkpt>
      <trkpt lat="50.978897027671337" lon="11.302416985854506">
        <ele>253.93000000000001</ele>
        <time>2024-09-12T07:27:02Z</time>
      </trkpt>
      <trkpt lat="50.97933498211205" lon="11.303969984874129">
        <ele>248.16</ele>
        <time>2024-09-12T07:27:12Z</time>
      </trkpt>
      <trkpt lat="50.979682998731732" lon="11.305287033319473">
        <ele>241.43000000000001</ele>
        <time>2024-09-12T07:27:21Z</time>
      </trkpt>
      <trkpt lat="50.979716023430228" lon="11.30543296225369">
        <ele>240.47</ele>
        <time>2024-09-12T07:27:22Z</time>
      </trkpt>
      <trkpt lat="50.98008600063622" lon="11.30730195902288">
        <ele>235.66</ele>
        <time>2024-09-12T07:27:34Z</time>
      </trkpt>
      <trkpt lat="50.980395963415504" lon="11.308772983029485">
        <ele>232.30000000000001</ele>
        <time>2024-09-12T07:27:45Z</time>
      </trkpt>
      <trkpt lat="50.980738028883934" lon="11.310576014220715">
        <ele>230.37</ele>
        <time>2024-09-12T07:27:57Z</time>
      </trkpt>
      <trkpt lat="50.980845987796783" lon="11.311165010556579">
        <ele>230.37</ele>
        <time>2024-09-12T07:28:01Z</time>
      </trkpt>
      <trkpt lat="50.980927962809801" lon="11.312833009287715">
        <ele>229.88999999999999</ele>
        <time>2024-09-12T07:28:12Z</time>
      </trkpt>
      <trkpt lat="50.980956964194775" lon="11.313730040565133">
        <ele>230.37</ele>
        <time>2024-09-12T07:28:18Z</time>
      </trkpt>
      <trkpt lat="50.980961993336678" lon="11.314018964767456">
        <ele>230.37</ele>
        <time>2024-09-12T07:28:20Z</time>
      </trkpt>
      <trkpt lat="50.980935003608465" lon="11.31471298635006">
        <ele>229.41</ele>
        <time>2024-09-12T07:28:25Z</time>
      </trkpt>
      <trkpt lat="50.980920000001788" lon="11.314823962748051">
        <ele>228.93000000000001</ele>
        <time>2024-09-12T07:28:26Z</time>
      </trkpt>
      <trkpt lat="50.980890998616815" lon="11.315041976049542">
        <ele>228.44999999999999</ele>
        <time>2024-09-12T07:28:32Z</time>
      </trkpt>
      <trkpt lat="50.980883035808802" lon="11.315106013789773">
        <ele>228.93000000000001</ele>
        <time>2024-09-12T07:28:55Z</time>
      </trkpt>
      <trkpt lat="50.980879012495279" lon="11.315136021003127">
        <ele>228.93000000000001</ele>
        <time>2024-09-12T07:28:56Z</time>
      </trkpt>
      <trkpt lat="50.980873983353376" lon="11.315168961882591">
        <ele>229.41</ele>
        <time>2024-09-12T07:28:57Z</time>
      </trkpt>
      <trkpt lat="50.980869038030505" lon="11.315206009894609">
        <ele>229.41</ele>
        <time>2024-09-12T07:28:58Z</time>
      </trkpt>
      <trkpt lat="50.980865014716983" lon="11.315243979915977">
        <ele>229.41</ele>
        <time>2024-09-12T07:28:59Z</time>
      </trkpt>
      <trkpt lat="50.98085998557508" lon="11.31527298130095">
        <ele>229.41</ele>
        <time>2024-09-12T07:29:00Z</time>
      </trkpt>
      <trkpt lat="50.980854034423828" lon="11.315323021262884">
        <ele>230.37</ele>
        <time>2024-09-12T07:29:01Z</time>
      </trkpt>
      <trkpt lat="50.980852022767067" lon="11.315364008769393">
        <ele>231.33000000000001</ele>
        <time>2024-09-12T07:29:02Z</time>
      </trkpt>
      <trkpt lat="50.980849005281925" lon="11.31542201153934">
        <ele>232.30000000000001</ele>
        <time>2024-09-12T07:29:03Z</time>
      </trkpt>
      <trkpt lat="50.980835007503629" lon="11.315655028447509">
        <ele>232.30000000000001</ele>
        <time>2024-09-12T07:29:06Z</time>
      </trkpt>
      <trkpt lat="50.980830984190106" lon="11.315730968490243">
        <ele>232.30000000000001</ele>
        <time>2024-09-12T07:29:07Z</time>
      </trkpt>
      <trkpt lat="50.980766024440527" lon="11.316822040826082">
        <ele>231.33000000000001</ele>
        <time>2024-09-12T07:29:16Z</time>
      </trkpt>
      <trkpt lat="50.980567960068583" lon="11.318820035085082">
        <ele>226.53</ele>
        <time>2024-09-12T07:29:29Z</time>
      </trkpt>
      <trkpt lat="50.980374002829194" lon="11.320214029401541">
        <ele>224.12</ele>
        <time>2024-09-12T07:29:39Z</time>
      </trkpt>
      <trkpt lat="50.980246011167765" lon="11.320949038490653">
        <ele>222.68000000000001</ele>
        <time>2024-09-12T07:29:44Z</time>
      </trkpt>
      <trkpt lat="50.980135034769773" lon="11.321327984333038">
        <ele>222.68000000000001</ele>
        <time>2024-09-12T07:29:47Z</time>
      </trkpt>
      <trkpt lat="50.98006303422153" lon="11.321551026776433">
        <ele>222.68000000000001</ele>
        <time>2024-09-12T07:29:49Z</time>
      </trkpt>
      <trkpt lat="50.980027997866273" lon="11.321659991517663">
        <ele>222.19999999999999</ele>
        <time>2024-09-12T07:29:50Z</time>
      </trkpt>
      <trkpt lat="50.979963960126042" lon="11.321860989555717">
        <ele>221.72</ele>
        <time>2024-09-12T07:29:52Z</time>
      </trkpt>
      <trkpt lat="50.979795986786485" lon="11.322399023920298">
        <ele>219.31999999999999</ele>
        <time>2024-09-12T07:30:01Z</time>
      </trkpt>
      <trkpt lat="50.979788023978472" lon="11.32242601364851">
        <ele>218.84</ele>
        <time>2024-09-12T07:30:13Z</time>
      </trkpt>
      <trkpt lat="50.979788023978472" lon="11.32242601364851">
        <ele>218.84</ele>
        <time>2024-09-12T07:30:49Z</time>
      </trkpt>
      <trkpt lat="50.979664977639914" lon="11.322845024988055">
        <ele>220.28</ele>
        <time>2024-09-12T07:30:59Z</time>
      </trkpt>
      <trkpt lat="50.979474959895015" lon="11.323525970801711">
        <ele>215.94999999999999</ele>
        <time>2024-09-12T07:31:09Z</time>
      </trkpt>
      <trkpt lat="50.979169020429254" lon="11.324292998760939">
        <ele>212.11000000000001</ele>
        <time>2024-09-12T07:31:17Z</time>
      </trkpt>
      <trkpt lat="50.979133984073997" lon="11.32433800958097">
        <ele>211.63</ele>
        <time>2024-09-12T07:31:18Z</time>
      </trkpt>
      <trkpt lat="50.979091990739107" lon="11.324390983209014">
        <ele>211.15000000000001</ele>
        <time>2024-09-12T07:31:19Z</time>
      </trkpt>
      <trkpt lat="50.97905402071774" lon="11.324413027614355">
        <ele>211.15000000000001</ele>
        <time>2024-09-12T07:31:20Z</time>
      </trkpt>
      <trkpt lat="50.978996017947793" lon="11.32440397515893">
        <ele>210.66999999999999</ele>
        <time>2024-09-12T07:31:21Z</time>
      </trkpt>
      <trkpt lat="50.978934997692704" lon="11.324396012350917">
        <ele>210.66999999999999</ele>
        <time>2024-09-12T07:31:22Z</time>
      </trkpt>
      <trkpt lat="50.978876994922757" lon="11.324371034279466">
        <ele>210.19</ele>
        <time>2024-09-12T07:31:23Z</time>
      </trkpt>
      <trkpt lat="50.978353964164853" lon="11.324086971580982">
        <ele>208.74000000000001</ele>
        <time>2024-09-12T07:31:31Z</time>
      </trkpt>
      <trkpt lat="50.978305013850331" lon="11.324058976024389">
        <ele>208.74000000000001</ele>
        <time>2024-09-12T07:31:32Z</time>
      </trkpt>
      <trkpt lat="50.978276012465358" lon="11.324041960760951">
        <ele>208.74000000000001</ele>
        <time>2024-09-12T07:31:33Z</time>
      </trkpt>
      <trkpt lat="50.978255979716778" lon="11.324030980467796">
        <ele>208.74000000000001</ele>
        <time>2024-09-12T07:31:34Z</time>
      </trkpt>
      <trkpt lat="50.978237958624959" lon="11.324021006003022">
        <ele>208.25999999999999</ele>
        <time>2024-09-12T07:31:35Z</time>
      </trkpt>
      <trkpt lat="50.978237958624959" lon="11.324021006003022">
        <ele>208.25999999999999</ele>
        <time>2024-09-12T07:31:36Z</time>
      </trkpt>
      <trkpt lat="50.978237958624959" lon="11.324021006003022">
        <ele>208.25999999999999</ele>
        <time>2024-09-12T07:31:56Z</time>
      </trkpt>
      <trkpt lat="50.978225972503424" lon="11.324013965204358">
        <ele>208.25999999999999</ele>
        <time>2024-09-12T07:32:28Z</time>
      </trkpt>
      <trkpt lat="50.97821599803865" lon="11.324008014053106">
        <ele>208.74000000000001</ele>
        <time>2024-09-12T07:32:29Z</time>
      </trkpt>
      <trkpt lat="50.978055987507105" lon="11.323916986584663">
        <ele>214.03</ele>
        <time>2024-09-12T07:32:35Z</time>
      </trkpt>
      <trkpt lat="50.97802103497088" lon="11.323899971321225">
        <ele>214.50999999999999</ele>
        <time>2024-09-12T07:32:36Z</time>
      </trkpt>
      <trkpt lat="50.977881979197264" lon="11.323891002684832">
        <ele>215.47</ele>
        <time>2024-09-12T07:32:37Z</time>
      </trkpt>
      <trkpt lat="50.977863958105445" lon="11.323983035981655">
        <ele>215.94999999999999</ele>
        <time>2024-09-12T07:32:38Z</time>
      </trkpt>
      <trkpt lat="50.977841997519135" lon="11.324090994894505">
        <ele>215.94999999999999</ele>
        <time>2024-09-12T07:32:39Z</time>
      </trkpt>
      <trkpt lat="50.977555001154542" lon="11.325359009206295">
        <ele>215.47</ele>
        <time>2024-09-12T07:32:48Z</time>
      </trkpt>
      <trkpt lat="50.977352997288108" lon="11.326233996078372">
        <ele>215.94999999999999</ele>
        <time>2024-09-12T07:32:56Z</time>
      </trkpt>
      <trkpt lat="50.977321984246373" lon="11.326371040195227">
        <ele>216.43000000000001</ele>
        <time>2024-09-12T07:33:00Z</time>
      </trkpt>
      <trkpt lat="50.977350985631347" lon="11.326504983007908">
        <ele>216.91</ele>
        <time>2024-09-12T07:33:01Z</time>
      </trkpt>
      <trkpt lat="50.977391973137856" lon="11.326511017978191">
        <ele>216.91</ele>
        <time>2024-09-12T07:33:02Z</time>
      </trkpt>
      <trkpt lat="50.977446036413312" lon="11.326519986614585">
        <ele>217.40000000000001</ele>
        <time>2024-09-12T07:33:03Z</time>
      </trkpt>
      <trkpt lat="50.977503033354878" lon="11.32652803324163">
        <ele>217.40000000000001</ele>
        <time>2024-09-12T07:33:04Z</time>
      </trkpt>
      <trkpt lat="50.977561036124825" lon="11.326537001878023">
        <ele>217.40000000000001</ele>
        <time>2024-09-12T07:33:05Z</time>
      </trkpt>
      <trkpt lat="50.977721968665719" lon="11.326560974121094">
        <ele>217.88</ele>
        <time>2024-09-12T07:33:07Z</time>
      </trkpt>
      <trkpt lat="50.977752981707454" lon="11.326562985777855">
        <ele>217.88</ele>
        <time>2024-09-12T07:33:08Z</time>
      </trkpt>
      <trkpt lat="50.9781080391258" lon="11.326583018526435">
        <ele>217.88</ele>
        <time>2024-09-12T07:33:14Z</time>
      </trkpt>
      <trkpt lat="50.97825899720192" lon="11.326597016304731">
        <ele>217.40000000000001</ele>
        <time>2024-09-12T07:33:20Z</time>
      </trkpt>
      <trkpt lat="50.978298978880048" lon="11.326601039618254">
        <ele>217.40000000000001</ele>
        <time>2024-09-12T07:33:21Z</time>
      </trkpt>
      <trkpt lat="50.978342983871698" lon="11.326604979112744">
        <ele>217.40000000000001</ele>
        <time>2024-09-12T07:33:22Z</time>
      </trkpt>
      <trkpt lat="50.97838799469173" lon="11.326610008254647">
        <ele>217.40000000000001</ele>
        <time>2024-09-12T07:33:23Z</time>
      </trkpt>
      <trkpt lat="50.97843199968338" lon="11.32661403156817">
        <ele>217.40000000000001</ele>
        <time>2024-09-12T07:33:24Z</time>
      </trkpt>
      <trkpt lat="50.97847499884665" lon="11.32661797106266">
        <ele>217.40000000000001</ele>
        <time>2024-09-12T07:33:25Z</time>
      </trkpt>
      <trkpt lat="50.978610031306744" lon="11.326630963012576">
        <ele>217.40000000000001</ele>
        <time>2024-09-12T07:33:28Z</time>
      </trkpt>
      <trkpt lat="50.978650012984872" lon="11.326634986326098">
        <ele>217.40000000000001</ele>
        <time>2024-09-12T07:33:29Z</time>
      </trkpt>
      <trkpt lat="50.978687983006239" lon="11.326639009639621">
        <ele>217.40000000000001</ele>
        <time>2024-09-12T07:33:30Z</time>
      </trkpt>
      <trkpt lat="50.978717990219593" lon="11.326641021296382">
        <ele>217.88</ele>
        <time>2024-09-12T07:33:31Z</time>
      </trkpt>
      <trkpt lat="50.978717990219593" lon="11.326641021296382">
        <ele>220.75999999999999</ele>
        <time>2024-09-12T07:33:35Z</time>
      </trkpt>
      <trkpt lat="50.978757971897721" lon="11.326644960790873">
        <ele>221.72</ele>
        <time>2024-09-12T07:33:53Z</time>
      </trkpt>
      <trkpt lat="50.978799965232611" lon="11.326492996886373">
        <ele>223.16</ele>
        <time>2024-09-12T07:33:54Z</time>
      </trkpt>
      <trkpt lat="50.97883902490139" lon="11.326267020776868">
        <ele>225.09</ele>
        <time>2024-09-12T07:33:56Z</time>
      </trkpt>
      <trkpt lat="50.978858973830938" lon="11.326147997751832">
        <ele>225.56999999999999</ele>
        <time>2024-09-12T07:33:57Z</time>
      </trkpt>
      <trkpt lat="50.978920999914408" lon="11.325791012495756">
        <ele>226.53</ele>
        <time>2024-09-12T07:34:00Z</time>
      </trkpt>
      <trkpt lat="50.979000963270664" lon="11.325165973976254">
        <ele>228.44999999999999</ele>
        <time>2024-09-12T07:34:06Z</time>
      </trkpt>
      <trkpt lat="50.979012027382851" lon="11.325052985921502">
        <ele>228.93000000000001</ele>
        <time>2024-09-12T07:34:07Z</time>
      </trkpt>
      <trkpt lat="50.979053014889359" lon="11.324626011773944">
        <ele>230.84999999999999</ele>
        <time>2024-09-12T07:34:14Z</time>
      </trkpt>
      <trkpt lat="50.979181006550789" lon="11.324415039271116">
        <ele>232.78</ele>
        <time>2024-09-12T07:34:22Z</time>
      </trkpt>
      <trkpt lat="50.979249989613891" lon="11.324499025940895">
        <ele>232.78</ele>
        <time>2024-09-12T07:34:23Z</time>
      </trkpt>
      <trkpt lat="50.979265999048948" lon="11.324516963213682">
        <ele>232.78</ele>
        <time>2024-09-12T07:34:24Z</time>
      </trkpt>
      <trkpt lat="50.979287959635258" lon="11.324544036760926">
        <ele>232.78</ele>
        <time>2024-09-12T07:34:25Z</time>
      </trkpt>
      <trkpt lat="50.979287959635258" lon="11.324544036760926">
        <ele>232.30000000000001</ele>
        <time>2024-09-12T07:34:26Z</time>
      </trkpt>
      <trkpt lat="50.979295000433922" lon="11.324564991518855">
        <ele>232.30000000000001</ele>
        <time>2024-09-12T07:34:27Z</time>
      </trkpt>
      <trkpt lat="50.979303969070315" lon="11.324598016217351">
        <ele>232.30000000000001</ele>
        <time>2024-09-12T07:34:28Z</time>
      </trkpt>
      <trkpt lat="50.979314027354121" lon="11.324630035087466">
        <ele>231.81</ele>
        <time>2024-09-12T07:34:29Z</time>
      </trkpt>
      <trkpt lat="50.979417962953448" lon="11.324977967888117">
        <ele>228.93000000000001</ele>
        <time>2024-09-12T07:34:41Z</time>
      </trkpt>
      <trkpt lat="50.980855040252209" lon="11.324930023401976">
        <ele>246.22999999999999</ele>
        <time>2024-09-12T08:14:41Z</time>
      </trkpt>
      <trkpt lat="50.980855040252209" lon="11.324930023401976">
        <ele>245.75</ele>
        <time>2024-09-12T08:15:20Z</time>
      </trkpt>
      <trkpt lat="50.980855040252209" lon="11.324930023401976">
        <ele>244.31</ele>
        <time>2024-09-12T08:16:21Z</time>
      </trkpt>
      <trkpt lat="50.980855040252209" lon="11.324930023401976">
        <ele>245.75</ele>
        <time>2024-09-12T08:17:54Z</time>
      </trkpt>
      <trkpt lat="50.980352964252234" lon="11.324509000405669">
        <ele>245.27000000000001</ele>
        <time>2024-09-12T08:18:13Z</time>
      </trkpt>
      <trkpt lat="50.980699975043535" lon="11.324861040338874">
        <ele>242.87</ele>
        <time>2024-09-12T08:18:23Z</time>
      </trkpt>
      <trkpt lat="50.980855040252209" lon="11.324930023401976">
        <ele>240.94999999999999</ele>
        <time>2024-09-12T08:18:33Z</time>
      </trkpt>
      <trkpt lat="50.981004992499948" lon="11.324994983151555">
        <ele>238.53999999999999</ele>
        <time>2024-09-12T08:18:37Z</time>
      </trkpt>
      <trkpt lat="50.981133989989758" lon="11.325037982314825">
        <ele>238.06</ele>
        <time>2024-09-12T08:18:39Z</time>
      </trkpt>
      <trkpt lat="50.981640005484223" lon="11.325179971754551">
        <ele>239.02000000000001</ele>
        <time>2024-09-12T08:18:50Z</time>
      </trkpt>
      <trkpt lat="50.981966983526945" lon="11.32526395842433">
        <ele>239.50999999999999</ele>
        <time>2024-09-12T08:19:01Z</time>
      </trkpt>
      <trkpt lat="50.982179967686534" lon="11.325319027528167">
        <ele>239.99000000000001</ele>
        <time>2024-09-12T08:19:14Z</time>
      </trkpt>
      <trkpt lat="50.982868038117886" lon="11.325518013909459">
        <ele>238.06</ele>
        <time>2024-09-12T08:19:28Z</time>
      </trkpt>
      <trkpt lat="50.982980020344257" lon="11.325552966445684">
        <ele>237.58000000000001</ele>
        <time>2024-09-12T08:19:30Z</time>
      </trkpt>
      <trkpt lat="50.983037017285824" lon="11.325569981709123">
        <ele>237.58000000000001</ele>
        <time>2024-09-12T08:19:32Z</time>
      </trkpt>
      <trkpt lat="50.98324597813189" lon="11.325631001964211">
        <ele>237.09999999999999</ele>
        <time>2024-09-12T08:19:35Z</time>
      </trkpt>
      <trkpt lat="50.983300041407347" lon="11.325647011399269">
        <ele>237.09999999999999</ele>
        <time>2024-09-12T08:19:36Z</time>
      </trkpt>
      <trkpt lat="50.983357038348913" lon="11.325664026662707">
        <ele>236.62</ele>
        <time>2024-09-12T08:19:38Z</time>
      </trkpt>
      <trkpt lat="50.983922984451056" lon="11.325832000002265">
        <ele>234.22</ele>
        <time>2024-09-12T08:19:49Z</time>
      </trkpt>
      <trkpt lat="50.983922984451056" lon="11.325832000002265">
        <ele>233.74000000000001</ele>
        <time>2024-09-12T08:20:14Z</time>
      </trkpt>
      <trkpt lat="50.984116019681096" lon="11.325853038579226">
        <ele>232.78</ele>
        <time>2024-09-12T08:20:22Z</time>
      </trkpt>
      <trkpt lat="50.984331015497446" lon="11.325896037742496">
        <ele>232.30000000000001</ele>
        <time>2024-09-12T08:20:24Z</time>
      </trkpt>
      <trkpt lat="50.984258009120822" lon="11.325881034135818">
        <ele>231.81</ele>
        <time>2024-09-12T08:20:25Z</time>
      </trkpt>
      <trkpt lat="50.984331015497446" lon="11.326032998040318">
        <ele>231.81</ele>
        <time>2024-09-12T08:20:26Z</time>
      </trkpt>
      <trkpt lat="50.984331015497446" lon="11.326130982488394">
        <ele>231.81</ele>
        <time>2024-09-12T08:20:27Z</time>
      </trkpt>
      <trkpt lat="50.984331015497446" lon="11.326233996078372">
        <ele>231.81</ele>
        <time>2024-09-12T08:20:28Z</time>
      </trkpt>
      <trkpt lat="50.984331015497446" lon="11.326348995789886">
        <ele>230.84999999999999</ele>
        <time>2024-09-12T08:20:29Z</time>
      </trkpt>
      <trkpt lat="50.984364040195942" lon="11.326561979949474">
        <ele>229.88999999999999</ele>
        <time>2024-09-12T08:20:30Z</time>
      </trkpt>
      <trkpt lat="50.984398992732167" lon="11.326903961598873">
        <ele>227.00999999999999</ele>
        <time>2024-09-12T08:20:33Z</time>
      </trkpt>
      <trkpt lat="50.984450038522482" lon="11.327251978218555">
        <ele>223.16</ele>
        <time>2024-09-12T08:20:37Z</time>
      </trkpt>
      <trkpt lat="50.984535031020641" lon="11.328283036127687">
        <ele>215.94999999999999</ele>
        <time>2024-09-12T08:20:45Z</time>
      </trkpt>
      <trkpt lat="50.984540982171893" lon="11.328402981162071">
        <ele>215.47</ele>
        <time>2024-09-12T08:20:46Z</time>
      </trkpt>
      <trkpt lat="50.984545005485415" lon="11.328470958396792">
        <ele>214.99000000000001</ele>
        <time>2024-09-12T08:20:47Z</time>
      </trkpt>
      <trkpt lat="50.984781961888075" lon="11.329577034339309">
        <ele>209.69999999999999</ele>
        <time>2024-09-12T08:20:58Z</time>
      </trkpt>
      <trkpt lat="50.985056972131133" lon="11.330702975392342">
        <ele>212.59</ele>
        <time>2024-09-12T08:21:08Z</time>
      </trkpt>
      <trkpt lat="50.985086979344487" lon="11.330815041437745">
        <ele>213.55000000000001</ele>
        <time>2024-09-12T08:21:09Z</time>
      </trkpt>
      <trkpt lat="50.985216982662678" lon="11.331050992012024">
        <ele>214.99000000000001</ele>
        <time>2024-09-12T08:21:13Z</time>
      </trkpt>
      <trkpt lat="50.985326031222939" lon="11.331089967861772">
        <ele>216.43000000000001</ele>
        <time>2024-09-12T08:21:15Z</time>
      </trkpt>
      <trkpt lat="50.985356038436294" lon="11.331004975363612">
        <ele>216.91</ele>
        <time>2024-09-12T08:21:16Z</time>
      </trkpt>
      <trkpt lat="50.985426027327776" lon="11.330802971497178">
        <ele>217.40000000000001</ele>
        <time>2024-09-12T08:21:17Z</time>
      </trkpt>
      <trkpt lat="50.985469026491046" lon="11.330687971785665">
        <ele>218.36000000000001</ele>
        <time>2024-09-12T08:21:18Z</time>
      </trkpt>
      <trkpt lat="50.985513031482697" lon="11.330578001216054">
        <ele>218.84</ele>
        <time>2024-09-12T08:21:19Z</time>
      </trkpt>
      <trkpt lat="50.985641023144126" lon="11.330241970717907">
        <ele>219.80000000000001</ele>
        <time>2024-09-12T08:21:23Z</time>
      </trkpt>
      <trkpt lat="50.985882002860308" lon="11.329676024615765">
        <ele>222.68000000000001</ele>
        <time>2024-09-12T08:21:31Z</time>
      </trkpt>
      <trkpt lat="50.985903963446617" lon="11.329635037109256">
        <ele>224.12</ele>
        <time>2024-09-12T08:21:42Z</time>
      </trkpt>
      <trkpt lat="50.985952997580171" lon="11.329579968005419">
        <ele>225.56999999999999</ele>
        <time>2024-09-12T08:22:03Z</time>
      </trkpt>
      <trkpt lat="50.986233036965132" lon="11.329514002427459">
        <ele>226.05000000000001</ele>
        <time>2024-09-12T08:22:09Z</time>
      </trkpt>
      <trkpt lat="50.986582981422544" lon="11.329544009640813">
        <ele>226.53</ele>
        <time>2024-09-12T08:22:12Z</time>
      </trkpt>
      <trkpt lat="50.987836997956038" lon="11.32960201241076">
        <ele>229.88999999999999</ele>
        <time>2024-09-12T08:22:26Z</time>
      </trkpt>
      <trkpt lat="50.98816598765552" lon="11.329646017402411">
        <ele>232.78</ele>
        <time>2024-09-12T08:22:32Z</time>
      </trkpt>
      <trkpt lat="50.98816598765552" lon="11.329646017402411">
        <ele>233.25999999999999</ele>
        <time>2024-09-12T08:22:49Z</time>
      </trkpt>
      <trkpt lat="50.988321974873543" lon="11.329535041004419">
        <ele>237.58000000000001</ele>
        <time>2024-09-12T08:22:55Z</time>
      </trkpt>
      <trkpt lat="50.988321974873543" lon="11.329474020749331">
        <ele>238.06</ele>
        <time>2024-09-12T08:22:56Z</time>
      </trkpt>
      <trkpt lat="50.988325998187065" lon="11.329330019652843">
        <ele>238.53999999999999</ele>
        <time>2024-09-12T08:22:57Z</time>
      </trkpt>
      <trkpt lat="50.988328009843826" lon="11.329246032983065">
        <ele>239.02000000000001</ele>
        <time>2024-09-12T08:22:58Z</time>
      </trkpt>
      <trkpt lat="50.988349970430136" lon="11.328205000609159">
        <ele>241.43000000000001</ele>
        <time>2024-09-12T08:23:08Z</time>
      </trkpt>
      <trkpt lat="50.98835801705718" lon="11.327667972072959">
        <ele>240.94999999999999</ele>
        <time>2024-09-12T08:23:11Z</time>
      </trkpt>
      <trkpt lat="50.988366985693574" lon="11.327149970456958">
        <ele>240.47</ele>
        <time>2024-09-12T08:23:16Z</time>
      </trkpt>
      <trkpt lat="50.988366985693574" lon="11.326420996338129">
        <ele>239.99000000000001</ele>
        <time>2024-09-12T08:23:24Z</time>
      </trkpt>
      <trkpt lat="50.988386012613773" lon="11.32575698196888">
        <ele>239.02000000000001</ele>
        <time>2024-09-12T08:23:31Z</time>
      </trkpt>
      <trkpt lat="50.988359022885561" lon="11.324723996222019">
        <ele>238.06</ele>
        <time>2024-09-12T08:23:41Z</time>
      </trkpt>
      <trkpt lat="50.988218039274216" lon="11.323977001011372">
        <ele>236.13999999999999</ele>
        <time>2024-09-12T08:23:50Z</time>
      </trkpt>
      <trkpt lat="50.988191971555352" lon="11.323873987421393">
        <ele>234.69999999999999</ele>
        <time>2024-09-12T08:24:00Z</time>
      </trkpt>
      <trkpt lat="50.988160958513618" lon="11.323753958567977">
        <ele>233.25999999999999</ele>
        <time>2024-09-12T08:24:21Z</time>
      </trkpt>
      <trkpt lat="50.988120976835489" lon="11.323600988835096">
        <ele>232.78</ele>
        <time>2024-09-12T08:24:22Z</time>
      </trkpt>
      <trkpt lat="50.988102033734322" lon="11.323526976630092">
        <ele>232.30000000000001</ele>
        <time>2024-09-12T08:24:23Z</time>
      </trkpt>
      <trkpt lat="50.98814201541245" lon="11.32333000190556">
        <ele>233.25999999999999</ele>
        <time>2024-09-12T08:24:25Z</time>
      </trkpt>
      <trkpt lat="50.988187026232481" lon="11.323297983035445">
        <ele>232.78</ele>
        <time>2024-09-12T08:24:26Z</time>
      </trkpt>
      <trkpt lat="50.988246034830809" lon="11.323255989700556">
        <ele>232.30000000000001</ele>
        <time>2024-09-12T08:24:27Z</time>
      </trkpt>
      <trkpt lat="50.988312000408769" lon="11.323207961395383">
        <ele>232.30000000000001</ele>
        <time>2024-09-12T08:24:28Z</time>
      </trkpt>
      <trkpt lat="50.988386012613773" lon="11.323154987767339">
        <ele>232.30000000000001</ele>
        <time>2024-09-12T08:24:29Z</time>
      </trkpt>
      <trkpt lat="50.989247001707554" lon="11.322521986439824">
        <ele>230.84999999999999</ele>
        <time>2024-09-12T08:24:38Z</time>
      </trkpt>
      <trkpt lat="50.989709012210369" lon="11.322244964540005">
        <ele>229.41</ele>
        <time>2024-09-12T08:24:45Z</time>
      </trkpt>
      <trkpt lat="50.989791993051767" lon="11.322200959548354">
        <ele>229.41</ele>
        <time>2024-09-12T08:24:46Z</time>
      </trkpt>
      <trkpt lat="50.989874973893166" lon="11.322157038375735">
        <ele>228.93000000000001</ele>
        <time>2024-09-12T08:24:47Z</time>
      </trkpt>
      <trkpt lat="50.990380989387631" lon="11.321894014254212">
        <ele>226.05000000000001</ele>
        <time>2024-09-12T08:24:54Z</time>
      </trkpt>
      <trkpt lat="50.990436980500817" lon="11.321864007040858">
        <ele>225.56999999999999</ele>
        <time>2024-09-12T08:24:55Z</time>
      </trkpt>
      <trkpt lat="50.990475034341216" lon="11.321842968463898">
        <ele>225.56999999999999</ele>
        <time>2024-09-12T08:24:56Z</time>
      </trkpt>
      <trkpt lat="50.99063697271049" lon="11.321750013157725">
        <ele>225.09</ele>
        <time>2024-09-12T08:25:00Z</time>
      </trkpt>
      <trkpt lat="50.99067997187376" lon="11.321725035086274">
        <ele>225.09</ele>
        <time>2024-09-12T08:25:01Z</time>
      </trkpt>
      <trkpt lat="50.99067997187376" lon="11.32161196321249">
        <ele>225.09</ele>
        <time>2024-09-12T08:25:02Z</time>
      </trkpt>
      <trkpt lat="50.99067703820765" lon="11.321602994576097">
        <ele>225.56999999999999</ele>
        <time>2024-09-12T08:25:03Z</time>
      </trkpt>
      <trkpt lat="50.990663962438703" lon="11.32154599763453">
        <ele>225.56999999999999</ele>
        <time>2024-09-12T08:25:04Z</time>
      </trkpt>
      <trkpt lat="50.990645019337535" lon="11.321469973772764">
        <ele>225.56999999999999</ele>
        <time>2024-09-12T08:25:05Z</time>
      </trkpt>
      <trkpt lat="50.990597996860743" lon="11.321271993219852">
        <ele>225.09</ele>
        <time>2024-09-12T08:25:06Z</time>
      </trkpt>
      <trkpt lat="50.990566983819008" lon="11.321145007386804">
        <ele>225.09</ele>
        <time>2024-09-12T08:25:07Z</time>
      </trkpt>
      <trkpt lat="50.990533959120512" lon="11.32100896909833">
        <ele>225.09</ele>
        <time>2024-09-12T08:25:08Z</time>
      </trkpt>
      <trkpt lat="50.99050504155457" lon="11.320888018235564">
        <ele>225.09</ele>
        <time>2024-09-12T08:25:09Z</time>
      </trkpt>
      <trkpt lat="50.990476040169597" lon="11.320768995210528">
        <ele>225.09</ele>
        <time>2024-09-12T08:25:10Z</time>
      </trkpt>
      <trkpt lat="50.990448966622353" lon="11.320655001327395">
        <ele>225.09</ele>
        <time>2024-09-12T08:25:12Z</time>
      </trkpt>
      <trkpt lat="50.990303037688136" lon="11.319916974753141">
        <ele>225.09</ele>
        <time>2024-09-12T08:25:18Z</time>
      </trkpt>
      <trkpt lat="50.990016041323543" lon="11.318765971809626">
        <ele>224.61000000000001</ele>
        <time>2024-09-12T08:25:28Z</time>
      </trkpt>
      <trkpt lat="50.989736001938581" lon="11.317774979397655">
        <ele>225.56999999999999</ele>
        <time>2024-09-12T08:25:37Z</time>
      </trkpt>
      <trkpt lat="50.989630976691842" lon="11.317425034940243">
        <ele>227.49000000000001</ele>
        <time>2024-09-12T08:25:40Z</time>
      </trkpt>
      <trkpt lat="50.989595018327236" lon="11.3173340074718">
        <ele>227.97</ele>
        <time>2024-09-12T08:25:41Z</time>
      </trkpt>
      <trkpt lat="50.989542966708541" lon="11.317258989438415">
        <ele>228.44999999999999</ele>
        <time>2024-09-12T08:25:42Z</time>
      </trkpt>
      <trkpt lat="50.989443976432085" lon="11.317112976685166">
        <ele>229.41</ele>
        <time>2024-09-12T08:25:44Z</time>
      </trkpt>
      <trkpt lat="50.988755989819765" lon="11.316335974261165">
        <ele>233.25999999999999</ele>
        <time>2024-09-12T08:25:55Z</time>
      </trkpt>
      <trkpt lat="50.98855298012495" lon="11.31613296456635">
        <ele>233.25999999999999</ele>
        <time>2024-09-12T08:25:58Z</time>
      </trkpt>
      <trkpt lat="50.98848600871861" lon="11.316073033958673">
        <ele>233.25999999999999</ele>
        <time>2024-09-12T08:25:59Z</time>
      </trkpt>
      <trkpt lat="50.988134974613786" lon="11.31591796875">
        <ele>234.69999999999999</ele>
        <time>2024-09-12T08:26:05Z</time>
      </trkpt>
      <trkpt lat="50.988118965178728" lon="11.31591796875">
        <ele>234.69999999999999</ele>
        <time>2024-09-12T08:26:15Z</time>
      </trkpt>
      <trkpt lat="50.988118965178728" lon="11.31591796875">
        <ele>235.18000000000001</ele>
        <time>2024-09-12T08:26:57Z</time>
      </trkpt>
      <trkpt lat="50.98788402043283" lon="11.315913023427129">
        <ele>238.53999999999999</ele>
        <time>2024-09-12T08:27:07Z</time>
      </trkpt>
      <trkpt lat="50.98723903298378" lon="11.315752007067204">
        <ele>237.09999999999999</ele>
        <time>2024-09-12T08:27:15Z</time>
      </trkpt>
      <trkpt lat="50.986483991146088" lon="11.31553097628057">
        <ele>233.25999999999999</ele>
        <time>2024-09-12T08:27:26Z</time>
      </trkpt>
      <trkpt lat="50.986405033618212" lon="11.315518990159035">
        <ele>232.30000000000001</ele>
        <time>2024-09-12T08:27:28Z</time>
      </trkpt>
      <trkpt lat="50.986157013103366" lon="11.315555032342672">
        <ele>231.81</ele>
        <time>2024-09-12T08:27:30Z</time>
      </trkpt>
      <trkpt lat="50.986075960099697" lon="11.31557397544384">
        <ele>231.81</ele>
        <time>2024-09-12T08:27:31Z</time>
      </trkpt>
      <trkpt lat="50.986006977036595" lon="11.315589984878898">
        <ele>231.81</ele>
        <time>2024-09-12T08:27:32Z</time>
      </trkpt>
      <trkpt lat="50.985945034772158" lon="11.315596019849181">
        <ele>231.81</ele>
        <time>2024-09-12T08:27:33Z</time>
      </trkpt>
      <trkpt lat="50.985860964283347" lon="11.315596019849181">
        <ele>232.30000000000001</ele>
        <time>2024-09-12T08:27:34Z</time>
      </trkpt>
      <trkpt lat="50.985775971785188" lon="11.315596019849181">
        <ele>233.25999999999999</ele>
        <time>2024-09-12T08:27:36Z</time>
      </trkpt>
      <trkpt lat="50.985709000378847" lon="11.315596019849181">
        <ele>233.74000000000001</ele>
        <time>2024-09-12T08:27:37Z</time>
      </trkpt>
      <trkpt lat="50.985345980152488" lon="11.315475990995765">
        <ele>235.18000000000001</ele>
        <time>2024-09-12T08:27:41Z</time>
      </trkpt>
      <trkpt lat="50.984695963561535" lon="11.315303994342685">
        <ele>239.99000000000001</ele>
        <time>2024-09-12T08:27:52Z</time>
      </trkpt>
      <trkpt lat="50.984466969966888" lon="11.315305000171065">
        <ele>240.47</ele>
        <time>2024-09-12T08:27:59Z</time>
      </trkpt>
      <trkpt lat="50.984406033530831" lon="11.315307011827826">
        <ele>240.47</ele>
        <time>2024-09-12T08:28:00Z</time>
      </trkpt>
      <trkpt lat="50.984335960820317" lon="11.315311035141349">
        <ele>240.47</ele>
        <time>2024-09-12T08:28:01Z</time>
      </trkpt>
      <trkpt lat="50.984268989413977" lon="11.315313968807459">
        <ele>239.99000000000001</ele>
        <time>2024-09-12T08:28:03Z</time>
      </trkpt>
      <trkpt lat="50.984192965552211" lon="11.315126968547702">
        <ele>239.99000000000001</ele>
        <time>2024-09-12T08:28:05Z</time>
      </trkpt>
      <trkpt lat="50.984143009409308" lon="11.31413497030735">
        <ele>239.99000000000001</ele>
        <time>2024-09-12T08:28:13Z</time>
      </trkpt>
      <trkpt lat="50.984119959175587" lon="11.313879992812872">
        <ele>239.99000000000001</ele>
        <time>2024-09-12T08:28:15Z</time>
      </trkpt>
      <trkpt lat="50.984097998589277" lon="11.313635995611548">
        <ele>239.99000000000001</ele>
        <time>2024-09-12T08:28:17Z</time>
      </trkpt>
      <trkpt lat="50.984073020517826" lon="11.313365008682013">
        <ele>239.99000000000001</ele>
        <time>2024-09-12T08:28:19Z</time>
      </trkpt>
      <trkpt lat="50.984027003869414" lon="11.313148001208901">
        <ele>239.99000000000001</ele>
        <time>2024-09-12T08:28:21Z</time>
      </trkpt>
      <trkpt lat="50.983919966965914" lon="11.312648020684719">
        <ele>239.50999999999999</ele>
        <time>2024-09-12T08:28:25Z</time>
      </trkpt>
      <trkpt lat="50.983843021094799" lon="11.312283994629979">
        <ele>238.53999999999999</ele>
        <time>2024-09-12T08:28:27Z</time>
      </trkpt>
      <trkpt lat="50.983817037194967" lon="11.312163965776563">
        <ele>238.53999999999999</ele>
        <time>2024-09-12T08:28:28Z</time>
      </trkpt>
      <trkpt lat="50.983720980584621" lon="11.311716958880424">
        <ele>236.13999999999999</ele>
        <time>2024-09-12T08:28:32Z</time>
      </trkpt>
      <trkpt lat="50.98365199752152" lon="11.311392998322845">
        <ele>235.18000000000001</ele>
        <time>2024-09-12T08:28:35Z</time>
      </trkpt>
      <trkpt lat="50.983693990856409" lon="11.311270035803318">
        <ele>233.74000000000001</ele>
        <time>2024-09-12T08:28:37Z</time>
      </trkpt>
      <trkpt lat="50.983707988634706" lon="11.311175990849733">
        <ele>233.74000000000001</ele>
        <time>2024-09-12T08:28:38Z</time>
      </trkpt>
      <trkpt lat="50.983852995559573" lon="11.310887988656759">
        <ele>233.25999999999999</ele>
        <time>2024-09-12T08:28:40Z</time>
      </trkpt>
      <trkpt lat="50.983945028856397" lon="11.310704005882144">
        <ele>232.78</ele>
        <time>2024-09-12T08:28:42Z</time>
      </trkpt>
      <trkpt lat="50.984077965840697" lon="11.310619013383985">
        <ele>233.25999999999999</ele>
        <time>2024-09-12T08:28:44Z</time>
      </trkpt>
      <trkpt lat="50.985203990712762" lon="11.310005038976669">
        <ele>238.53999999999999</ele>
        <time>2024-09-12T08:28:55Z</time>
      </trkpt>
      <trkpt lat="50.985485035926104" lon="11.309893978759646">
        <ele>239.50999999999999</ele>
        <time>2024-09-12T08:28:58Z</time>
      </trkpt>
      <trkpt lat="50.985574973747134" lon="11.309871012344956">
        <ele>239.50999999999999</ele>
        <time>2024-09-12T08:28:59Z</time>
      </trkpt>
      <trkpt lat="50.985647980123758" lon="11.309886015951633">
        <ele>239.99000000000001</ele>
        <time>2024-09-12T08:29:01Z</time>
      </trkpt>
      <trkpt lat="50.985868005082011" lon="11.309930020943284">
        <ele>240.47</ele>
        <time>2024-09-12T08:29:08Z</time>
      </trkpt>
      <trkpt lat="50.985870016738772" lon="11.309876041486859">
        <ele>240.47</ele>
        <time>2024-09-12T08:29:10Z</time>
      </trkpt>
      <trkpt lat="50.985849983990192" lon="11.309143966063857">
        <ele>242.38999999999999</ele>
        <time>2024-09-12T08:29:16Z</time>
      </trkpt>
      <trkpt lat="50.985870016738772" lon="11.307762041687965">
        <ele>243.83000000000001</ele>
        <time>2024-09-12T08:29:27Z</time>
      </trkpt>
      <trkpt lat="50.985887032002211" lon="11.306927958503366">
        <ele>243.83000000000001</ele>
        <time>2024-09-12T08:29:33Z</time>
      </trkpt>
      <trkpt lat="50.985894994810224" lon="11.306659989058971">
        <ele>243.34999999999999</ele>
        <time>2024-09-12T08:29:35Z</time>
      </trkpt>
      <trkpt lat="50.985988033935428" lon="11.30624701268971">
        <ele>243.34999999999999</ele>
        <time>2024-09-12T08:29:38Z</time>
      </trkpt>
      <trkpt lat="50.986314006149769" lon="11.305448971688747">
        <ele>243.83000000000001</ele>
        <time>2024-09-12T08:29:44Z</time>
      </trkpt>
      <trkpt lat="50.986411990597844" lon="11.304974975064397">
        <ele>244.31</ele>
        <time>2024-09-12T08:29:48Z</time>
      </trkpt>
      <trkpt lat="50.986414002254605" lon="11.304825022816658">
        <ele>244.31</ele>
        <time>2024-09-12T08:29:49Z</time>
      </trkpt>
      <trkpt lat="50.986432023346424" lon="11.303223995491862">
        <ele>246.72</ele>
        <time>2024-09-12T08:30:01Z</time>
      </trkpt>
      <trkpt lat="50.986434035003185" lon="11.303064990788698">
        <ele>246.72</ele>
        <time>2024-09-12T08:30:02Z</time>
      </trkpt>
      <trkpt lat="50.986434035003185" lon="11.302953008562326">
        <ele>246.72</ele>
        <time>2024-09-12T08:30:03Z</time>
      </trkpt>
      <trkpt lat="50.986434035003185" lon="11.302639022469521">
        <ele>245.75</ele>
        <time>2024-09-12T08:30:05Z</time>
      </trkpt>
      <trkpt lat="50.986434035003185" lon="11.302329981699586">
        <ele>243.34999999999999</ele>
        <time>2024-09-12T08:30:08Z</time>
      </trkpt>
      <trkpt lat="50.986434035003185" lon="11.302034016698599">
        <ele>242.38999999999999</ele>
        <time>2024-09-12T08:30:09Z</time>
      </trkpt>
      <trkpt lat="50.986434035003185" lon="11.301728999242187">
        <ele>240.47</ele>
        <time>2024-09-12T08:30:11Z</time>
      </trkpt>
      <trkpt lat="50.986418025568128" lon="11.301619028672576">
        <ele>239.50999999999999</ele>
        <time>2024-09-12T08:30:12Z</time>
      </trkpt>
      <trkpt lat="50.986377960070968" lon="11.301487013697624">
        <ele>239.02000000000001</ele>
        <time>2024-09-12T08:30:13Z</time>
      </trkpt>
      <trkpt lat="50.986309982836246" lon="11.301258020102978">
        <ele>236.62</ele>
        <time>2024-09-12T08:30:16Z</time>
      </trkpt>
      <trkpt lat="50.986237982288003" lon="11.301019974052906">
        <ele>236.13999999999999</ele>
        <time>2024-09-12T08:30:17Z</time>
      </trkpt>
      <trkpt lat="50.986203029751778" lon="11.300904974341393">
        <ele>235.66</ele>
        <time>2024-09-12T08:30:18Z</time>
      </trkpt>
      <trkpt lat="50.986120970919728" lon="11.300633987411857">
        <ele>234.22</ele>
        <time>2024-09-12T08:30:21Z</time>
      </trkpt>
      <trkpt lat="50.986103033646941" lon="11.300571961328387">
        <ele>233.74000000000001</ele>
        <time>2024-09-12T08:30:22Z</time>
      </trkpt>
      <trkpt lat="50.985940005630255" lon="11.300030993297696">
        <ele>231.33000000000001</ele>
        <time>2024-09-12T08:30:29Z</time>
      </trkpt>
      <trkpt lat="50.985832968726754" lon="11.29950201138854">
        <ele>231.81</ele>
        <time>2024-09-12T08:30:33Z</time>
      </trkpt>
      <trkpt lat="50.985808996483684" lon="11.299344012513757">
        <ele>232.30000000000001</ele>
        <time>2024-09-12T08:30:34Z</time>
      </trkpt>
      <trkpt lat="50.985558964312077" lon="11.297882040962577">
        <ele>233.74000000000001</ele>
        <time>2024-09-12T08:30:43Z</time>
      </trkpt>
      <trkpt lat="50.98507197573781" lon="11.296210018917918">
        <ele>228.44999999999999</ele>
        <time>2024-09-12T08:30:53Z</time>
      </trkpt>
      <trkpt lat="50.984524972736835" lon="11.294240020215511">
        <ele>220.28</ele>
        <time>2024-09-12T08:31:05Z</time>
      </trkpt>
      <trkpt lat="50.984186008572578" lon="11.293083988130093">
        <ele>220.75999999999999</ele>
        <time>2024-09-12T08:31:14Z</time>
      </trkpt>
      <trkpt lat="50.984129011631012" lon="11.292879972606897">
        <ele>222.68000000000001</ele>
        <time>2024-09-12T08:31:23Z</time>
      </trkpt>
      <trkpt lat="50.984092969447374" lon="11.29273496568203">
        <ele>230.37</ele>
        <time>2024-09-12T08:31:42Z</time>
      </trkpt>
      <trkpt lat="50.984072014689445" lon="11.292651984840631">
        <ele>232.78</ele>
        <time>2024-09-12T08:31:43Z</time>
      </trkpt>
      <trkpt lat="50.984050976112485" lon="11.292578978464007">
        <ele>234.22</ele>
        <time>2024-09-12T08:31:44Z</time>
      </trkpt>
      <trkpt lat="50.984035972505808" lon="11.292528016492724">
        <ele>235.18000000000001</ele>
        <time>2024-09-12T08:31:45Z</time>
      </trkpt>
      <trkpt lat="50.984126999974251" lon="11.292359959334135">
        <ele>235.66</ele>
        <time>2024-09-12T08:31:46Z</time>
      </trkpt>
      <trkpt lat="50.984194977208972" lon="11.292361970990896">
        <ele>235.66</ele>
        <time>2024-09-12T08:31:47Z</time>
      </trkpt>
      <trkpt lat="50.984277036041021" lon="11.292362976819277">
        <ele>236.13999999999999</ele>
        <time>2024-09-12T08:31:48Z</time>
      </trkpt>
      <trkpt lat="50.985419992357492" lon="11.292378986254334">
        <ele>235.66</ele>
        <time>2024-09-12T08:31:57Z</time>
      </trkpt>
      <trkpt lat="50.986944995820522" lon="11.29193801432848">
        <ele>237.58000000000001</ele>
        <time>2024-09-12T08:32:05Z</time>
      </trkpt>
      <trkpt lat="50.988445021212101" lon="11.290538990870118">
        <ele>244.78999999999999</ele>
        <time>2024-09-12T08:32:16Z</time>
      </trkpt>
      <trkpt lat="50.990101033821702" lon="11.289027985185385">
        <ele>244.31</ele>
        <time>2024-09-12T08:32:26Z</time>
      </trkpt>
      <trkpt lat="50.991012984886765" lon="11.288619032129645">
        <ele>245.27000000000001</ele>
        <time>2024-09-12T08:32:31Z</time>
      </trkpt>
      <trkpt lat="50.992299020290375" lon="11.288636969402432">
        <ele>248.16</ele>
        <time>2024-09-12T08:32:38Z</time>
      </trkpt>
      <trkpt lat="50.99321398884058" lon="11.289160000160336">
        <ele>249.59999999999999</ele>
        <time>2024-09-12T08:32:44Z</time>
      </trkpt>
      <trkpt lat="50.993483969941735" lon="11.289386982098222">
        <ele>251.03999999999999</ele>
        <time>2024-09-12T08:32:51Z</time>
      </trkpt>
      <trkpt lat="50.993524035438895" lon="11.28942696377635">
        <ele>252</ele>
        <time>2024-09-12T08:33:05Z</time>
      </trkpt>
      <trkpt lat="50.993804996833205" lon="11.289743967354298">
        <ele>252.47999999999999</ele>
        <time>2024-09-12T08:33:11Z</time>
      </trkpt>
      <trkpt lat="50.99448200315237" lon="11.290793968364596">
        <ele>253.93000000000001</ele>
        <time>2024-09-12T08:33:17Z</time>
      </trkpt>
      <trkpt lat="50.995379034429789" lon="11.292951973155141">
        <ele>257.76999999999998</ele>
        <time>2024-09-12T08:33:27Z</time>
      </trkpt>
      <trkpt lat="50.996890962123871" lon="11.296424008905888">
        <ele>264.98000000000002</ele>
        <time>2024-09-12T08:33:39Z</time>
      </trkpt>
      <trkpt lat="50.998079013079405" lon="11.297809034585953">
        <ele>269.79000000000002</ele>
        <time>2024-09-12T08:33:46Z</time>
      </trkpt>
      <trkpt lat="50.999119039624929" lon="11.299219960346818">
        <ele>274.58999999999997</ele>
        <time>2024-09-12T08:33:53Z</time>
      </trkpt>
      <trkpt lat="50.999596975743771" lon="11.300485963001847">
        <ele>278.44</ele>
        <time>2024-09-12T08:33:59Z</time>
      </trkpt>
      <trkpt lat="51.000085975974798" lon="11.302979998290539">
        <ele>284.20999999999998</ele>
        <time>2024-09-12T08:34:07Z</time>
      </trkpt>
      <trkpt lat="51.000757031142712" lon="11.3050870411098">
        <ele>289.00999999999999</ele>
        <time>2024-09-12T08:34:15Z</time>
      </trkpt>
      <trkpt lat="51.001563034951687" lon="11.30760395899415">
        <ele>293.33999999999997</ele>
        <time>2024-09-12T08:34:24Z</time>
      </trkpt>
      <trkpt lat="51.002066032961011" lon="11.310290023684502">
        <ele>296.69999999999999</ele>
        <time>2024-09-12T08:34:34Z</time>
      </trkpt>
      <trkpt lat="51.002244986593723" lon="11.311325021088123">
        <ele>297.67000000000002</ele>
        <time>2024-09-12T08:34:39Z</time>
      </trkpt>
      <trkpt lat="51.002273987978697" lon="11.31149098277092">
        <ele>297.67000000000002</ele>
        <time>2024-09-12T08:34:40Z</time>
      </trkpt>
      <trkpt lat="51.002369960770011" lon="11.312044020742178">
        <ele>298.63</ele>
        <time>2024-09-12T08:34:46Z</time>
      </trkpt>
      <trkpt lat="51.002377001568675" lon="11.312079979106784">
        <ele>299.58999999999997</ele>
        <time>2024-09-12T08:34:54Z</time>
      </trkpt>
      <trkpt lat="51.002415977418423" lon="11.312306961044669">
        <ele>300.06999999999999</ele>
        <time>2024-09-12T08:35:23Z</time>
      </trkpt>
      <trkpt lat="51.002433998510242" lon="11.312405029311776">
        <ele>300.06999999999999</ele>
        <time>2024-09-12T08:35:24Z</time>
      </trkpt>
      <trkpt lat="51.002552015706897" lon="11.312498990446329">
        <ele>300.55000000000001</ele>
        <time>2024-09-12T08:35:26Z</time>
      </trkpt>
      <trkpt lat="51.002614963799715" lon="11.312449034303427">
        <ele>301.02999999999997</ele>
        <time>2024-09-12T08:35:27Z</time>
      </trkpt>
      <trkpt lat="51.003507971763611" lon="11.31166398525238">
        <ele>305.36000000000001</ele>
        <time>2024-09-12T08:35:35Z</time>
      </trkpt>
      <trkpt lat="51.004005018621683" lon="11.311251008883119">
        <ele>308.72000000000003</ele>
        <time>2024-09-12T08:35:39Z</time>
      </trkpt>
      <trkpt lat="51.004133010283113" lon="11.311139026656747">
        <ele>310.63999999999999</ele>
        <time>2024-09-12T08:35:41Z</time>
      </trkpt>
      <trkpt lat="51.004266031086445" lon="11.311023021116853">
        <ele>311.60000000000002</ele>
        <time>2024-09-12T08:35:42Z</time>
      </trkpt>
      <trkpt lat="51.005964959040284" lon="11.309533976018429">
        <ele>322.66000000000003</ele>
        <time>2024-09-12T08:35:53Z</time>
      </trkpt>
      <trkpt lat="51.007390972226858" lon="11.308337040245533">
        <ele>334.68000000000001</ele>
        <time>2024-09-12T08:36:03Z</time>
      </trkpt>
      <trkpt lat="51.008796030655503" lon="11.307135997340083">
        <ele>346.20999999999998</ele>
        <time>2024-09-12T08:36:11Z</time>
      </trkpt>
      <trkpt lat="51.010336959734559" lon="11.306296968832612">
        <ele>354.38</ele>
        <time>2024-09-12T08:36:19Z</time>
      </trkpt>
      <trkpt lat="51.012014010921121" lon="11.305740997195244">
        <ele>362.06999999999999</ele>
        <time>2024-09-12T08:36:28Z</time>
      </trkpt>
      <trkpt lat="51.013186974450946" lon="11.305498005822301">
        <ele>366.39999999999998</ele>
        <time>2024-09-12T08:36:36Z</time>
      </trkpt>
      <trkpt lat="51.014580968767405" lon="11.305078994482756">
        <ele>370.73000000000002</ele>
        <time>2024-09-12T08:36:45Z</time>
      </trkpt>
      <trkpt lat="51.01542997173965" lon="11.304612038657069">
        <ele>372.64999999999998</ele>
        <time>2024-09-12T08:36:51Z</time>
      </trkpt>
      <trkpt lat="51.016605030745268" lon="11.303950035944581">
        <ele>378.42000000000002</ele>
        <time>2024-09-12T08:37:02Z</time>
      </trkpt>
      <trkpt lat="51.016922034323215" lon="11.303774015977979">
        <ele>379.86000000000001</ele>
        <time>2024-09-12T08:37:05Z</time>
      </trkpt>
      <trkpt lat="51.016961010172963" lon="11.30364703014493">
        <ele>381.30000000000001</ele>
        <time>2024-09-12T08:37:07Z</time>
      </trkpt>
      <trkpt lat="51.017546989023685" lon="11.302412962540984">
        <ele>388.02999999999997</ele>
        <time>2024-09-12T08:37:17Z</time>
      </trkpt>
      <trkpt lat="51.017722003161907" lon="11.302014989778399">
        <ele>388.02999999999997</ele>
        <time>2024-09-12T08:37:20Z</time>
      </trkpt>
      <trkpt lat="51.018016962334514" lon="11.301188031211495">
        <ele>385.63</ele>
        <time>2024-09-12T08:37:26Z</time>
      </trkpt>
      <trkpt lat="51.018065996468067" lon="11.301036989316344">
        <ele>385.14999999999998</ele>
        <time>2024-09-12T08:37:27Z</time>
      </trkpt>
      <trkpt lat="51.01811695843935" lon="11.300879996269941">
        <ele>384.18000000000001</ele>
        <time>2024-09-12T08:37:28Z</time>
      </trkpt>
      <trkpt lat="51.018487019464374" lon="11.299735028296709">
        <ele>383.69999999999999</ele>
        <time>2024-09-12T08:37:35Z</time>
      </trkpt>
      <trkpt lat="51.018672008067369" lon="11.299010999500751">
        <ele>385.63</ele>
        <time>2024-09-12T08:37:40Z</time>
      </trkpt>
      <trkpt lat="51.018706038594246" lon="11.298859035596251">
        <ele>385.63</ele>
        <time>2024-09-12T08:37:41Z</time>
      </trkpt>
      <trkpt lat="51.018720036372542" lon="11.298693995922804">
        <ele>386.11000000000001</ele>
        <time>2024-09-12T08:37:42Z</time>
      </trkpt>
      <trkpt lat="51.018737973645329" lon="11.29817197099328">
        <ele>387.55000000000001</ele>
        <time>2024-09-12T08:37:45Z</time>
      </trkpt>
      <trkpt lat="51.018703021109104" lon="11.297577023506165">
        <ele>389.94999999999999</ele>
        <time>2024-09-12T08:37:49Z</time>
      </trkpt>
      <trkpt lat="51.018676031380892" lon="11.297436039894819">
        <ele>390.43000000000001</ele>
        <time>2024-09-12T08:37:50Z</time>
      </trkpt>
      <trkpt lat="51.018615011125803" lon="11.297130016610026">
        <ele>391.38999999999999</ele>
        <time>2024-09-12T08:37:52Z</time>
      </trkpt>
      <trkpt lat="51.017817975953221" lon="11.295399991795421">
        <ele>395.72000000000003</ele>
        <time>2024-09-12T08:38:03Z</time>
      </trkpt>
      <trkpt lat="51.017013983801007" lon="11.293677007779479">
        <ele>397.63999999999999</ele>
        <time>2024-09-12T08:38:12Z</time>
      </trkpt>
      <trkpt lat="51.016276963055134" lon="11.29202401265502">
        <ele>399.07999999999998</ele>
        <time>2024-09-12T08:38:20Z</time>
      </trkpt>
      <trkpt lat="51.015720991417766" lon="11.290204972028732">
        <ele>402.44999999999999</ele>
        <time>2024-09-12T08:38:28Z</time>
      </trkpt>
      <trkpt lat="51.015327963978052" lon="11.287593003362417">
        <ele>410.62</ele>
        <time>2024-09-12T08:38:38Z</time>
      </trkpt>
      <trkpt lat="51.015022024512291" lon="11.284683980047703">
        <ele>415.91000000000003</ele>
        <time>2024-09-12T08:38:49Z</time>
      </trkpt>
      <trkpt lat="51.015055971220136" lon="11.284404024481773">
        <ele>416.87</ele>
        <time>2024-09-12T08:38:50Z</time>
      </trkpt>
      <trkpt lat="51.015090001747012" lon="11.284121973440051">
        <ele>417.35000000000002</ele>
        <time>2024-09-12T08:38:51Z</time>
      </trkpt>
      <trkpt lat="51.01562300696969" lon="11.28115201368928">
        <ele>421.19</ele>
        <time>2024-09-12T08:39:02Z</time>
      </trkpt>
      <trkpt lat="51.015723003074527" lon="11.279589962214231">
        <ele>425.04000000000002</ele>
        <time>2024-09-12T08:39:09Z</time>
      </trkpt>
      <trkpt lat="51.015524016693234" lon="11.277056029066443">
        <ele>433.20999999999998</ele>
        <time>2024-09-12T08:39:19Z</time>
      </trkpt>
      <trkpt lat="51.015416979789734" lon="11.276238961145282">
        <ele>434.64999999999998</ele>
        <time>2024-09-12T08:39:22Z</time>
      </trkpt>
      <trkpt lat="51.015359982848167" lon="11.275995969772339">
        <ele>435.61000000000001</ele>
        <time>2024-09-12T08:39:23Z</time>
      </trkpt>
      <trkpt lat="51.014803005382419" lon="11.274112975224853">
        <ele>440.42000000000002</ele>
        <time>2024-09-12T08:39:31Z</time>
      </trkpt>
      <trkpt lat="51.01456998847425" lon="11.27320303581655">
        <ele>442.33999999999997</ele>
        <time>2024-09-12T08:39:35Z</time>
      </trkpt>
      <trkpt lat="51.014533024281263" lon="11.2730329670012">
        <ele>443.31</ele>
        <time>2024-09-12T08:39:37Z</time>
      </trkpt>
      <trkpt lat="51.014508968219161" lon="11.272875973954797">
        <ele>443.31</ele>
        <time>2024-09-12T08:39:38Z</time>
      </trkpt>
      <trkpt lat="51.014477033168077" lon="11.272609010338783">
        <ele>443.79000000000002</ele>
        <time>2024-09-12T08:39:39Z</time>
      </trkpt>
      <trkpt lat="51.01446102373302" lon="11.272469032555819">
        <ele>443.79000000000002</ele>
        <time>2024-09-12T08:39:41Z</time>
      </trkpt>
      <trkpt lat="51.014265976846218" lon="11.27103203907609">
        <ele>446.67000000000002</ele>
        <time>2024-09-12T08:39:50Z</time>
      </trkpt>
      <trkpt lat="51.013987027108669" lon="11.269442997872829">
        <ele>451</ele>
        <time>2024-09-12T08:40:02Z</time>
      </trkpt>
      <trkpt lat="51.013780999928713" lon="11.268932037055492">
        <ele>451.95999999999998</ele>
        <time>2024-09-12T08:40:05Z</time>
      </trkpt>
      <trkpt lat="51.01355804130435" lon="11.268435996025801">
        <ele>452.44</ele>
        <time>2024-09-12T08:40:10Z</time>
      </trkpt>
      <trkpt lat="51.012992011383176" lon="11.266824994236231">
        <ele>451.95999999999998</ele>
        <time>2024-09-12T08:40:18Z</time>
      </trkpt>
      <trkpt lat="51.012811968103051" lon="11.266170032322407">
        <ele>451.95999999999998</ele>
        <time>2024-09-12T08:40:21Z</time>
      </trkpt>
      <trkpt lat="51.012761006131768" lon="11.265941960737109">
        <ele>451.48000000000002</ele>
        <time>2024-09-12T08:40:22Z</time>
      </trkpt>
      <trkpt lat="51.012590015307069" lon="11.264692973345518">
        <ele>449.06999999999999</ele>
        <time>2024-09-12T08:40:27Z</time>
      </trkpt>
      <trkpt lat="51.012530000880361" lon="11.263984031975269">
        <ele>447.14999999999998</ele>
        <time>2024-09-12T08:40:30Z</time>
      </trkpt>
      <trkpt lat="51.012349035590887" lon="11.262461962178349">
        <ele>445.23000000000002</ele>
        <time>2024-09-12T08:40:37Z</time>
      </trkpt>
      <trkpt lat="51.012024991214275" lon="11.260819025337696">
        <ele>442.81999999999999</ele>
        <time>2024-09-12T08:40:45Z</time>
      </trkpt>
      <trkpt lat="51.011813012883067" lon="11.259120013564825">
        <ele>444.26999999999998</ele>
        <time>2024-09-12T08:40:54Z</time>
      </trkpt>
      <trkpt lat="51.011813012883067" lon="11.258570998907089">
        <ele>444.75</ele>
        <time>2024-09-12T08:40:56Z</time>
      </trkpt>
      <trkpt lat="51.011817958205938" lon="11.258433032780886">
        <ele>444.75</ele>
        <time>2024-09-12T08:40:57Z</time>
      </trkpt>
      <trkpt lat="51.011956008151174" lon="11.257617976516485">
        <ele>444.26999999999998</ele>
        <time>2024-09-12T08:41:01Z</time>
      </trkpt>
      <trkpt lat="51.012106966227293" lon="11.256890008226037">
        <ele>444.75</ele>
        <time>2024-09-12T08:41:05Z</time>
      </trkpt>
      <trkpt lat="51.012163963168859" lon="11.256732009351254">
        <ele>445.23000000000002</ele>
        <time>2024-09-12T08:41:06Z</time>
      </trkpt>
      <trkpt lat="51.012239987030625" lon="11.25659697689116">
        <ele>445.23000000000002</ele>
        <time>2024-09-12T08:41:07Z</time>
      </trkpt>
      <trkpt lat="51.012321040034294" lon="11.256506033241749">
        <ele>445.70999999999998</ele>
        <time>2024-09-12T08:41:09Z</time>
      </trkpt>
      <trkpt lat="51.012654975056648" lon="11.256315009668469">
        <ele>446.19</ele>
        <time>2024-09-12T08:41:11Z</time>
      </trkpt>
      <trkpt lat="51.012767041102052" lon="11.256262036040425">
        <ele>446.19</ele>
        <time>2024-09-12T08:41:12Z</time>
      </trkpt>
      <trkpt lat="51.014158017933369" lon="11.25554395839572">
        <ele>456.27999999999997</ele>
        <time>2024-09-12T08:41:24Z</time>
      </trkpt>
      <trkpt lat="51.014423975721002" lon="11.255360981449485">
        <ele>457.24000000000001</ele>
        <time>2024-09-12T08:41:26Z</time>
      </trkpt>
      <trkpt lat="51.015668017789721" lon="11.254121968522668">
        <ele>460.61000000000001</ele>
        <time>2024-09-12T08:41:36Z</time>
      </trkpt>
      <trkpt lat="51.016354998573661" lon="11.253627017140388">
        <ele>459.17000000000002</ele>
        <time>2024-09-12T08:41:42Z</time>
      </trkpt>
      <trkpt lat="51.017072992399335" lon="11.253335997462273">
        <ele>456.75999999999999</ele>
        <time>2024-09-12T08:41:47Z</time>
      </trkpt>
      <trkpt lat="51.01817898452282" lon="11.252863006666303">
        <ele>450.51999999999998</ele>
        <time>2024-09-12T08:41:55Z</time>
      </trkpt>
      <trkpt lat="51.018279986456037" lon="11.252782037481666">
        <ele>450.51999999999998</ele>
        <time>2024-09-12T08:41:56Z</time>
      </trkpt>
      <trkpt lat="51.018342012539506" lon="11.252647005021572">
        <ele>450.51999999999998</ele>
        <time>2024-09-12T08:41:58Z</time>
      </trkpt>
      <trkpt lat="51.018407978117466" lon="11.252360008656979">
        <ele>451</ele>
        <time>2024-09-12T08:41:59Z</time>
      </trkpt>
      <trkpt lat="51.018405966460705" lon="11.252173008397222">
        <ele>451</ele>
        <time>2024-09-12T08:42:00Z</time>
      </trkpt>
      <trkpt lat="51.018355004489422" lon="11.252082986757159">
        <ele>451.48000000000002</ele>
        <time>2024-09-12T08:42:02Z</time>
      </trkpt>
      <trkpt lat="51.018285015597939" lon="11.252006040886045">
        <ele>451.95999999999998</ele>
        <time>2024-09-12T08:42:03Z</time>
      </trkpt>
      <trkpt lat="51.018217038363218" lon="11.251938985660672">
        <ele>452.44</ele>
        <time>2024-09-12T08:42:04Z</time>
      </trkpt>
      <trkpt lat="51.017375998198986" lon="11.2511189840734">
        <ele>453.88</ele>
        <time>2024-09-12T08:42:14Z</time>
      </trkpt>
      <trkpt lat="51.017076009884477" lon="11.250831987708807">
        <ele>454.83999999999997</ele>
        <time>2024-09-12T08:42:17Z</time>
      </trkpt>
      <trkpt lat="51.016991017386317" lon="11.250750012695789">
        <ele>454.83999999999997</ele>
        <time>2024-09-12T08:42:18Z</time>
      </trkpt>
      <trkpt lat="51.016919016838074" lon="11.250676000490785">
        <ele>454.36000000000001</ele>
        <time>2024-09-12T08:42:19Z</time>
      </trkpt>
      <trkpt lat="51.016861014068127" lon="11.25055898912251">
        <ele>454.36000000000001</ele>
        <time>2024-09-12T08:42:20Z</time>
      </trkpt>
      <trkpt lat="51.016807034611702" lon="11.2504299916327">
        <ele>454.36000000000001</ele>
        <time>2024-09-12T08:42:21Z</time>
      </trkpt>
      <trkpt lat="51.0167829785496" lon="11.250224970281124">
        <ele>453.88</ele>
        <time>2024-09-12T08:42:22Z</time>
      </trkpt>
      <trkpt lat="51.016856990754604" lon="11.249838983640075">
        <ele>453.39999999999998</ele>
        <time>2024-09-12T08:42:24Z</time>
      </trkpt>
      <trkpt lat="51.017599040642381" lon="11.248444989323616">
        <ele>453.39999999999998</ele>
        <time>2024-09-12T08:42:34Z</time>
      </trkpt>
      <trkpt lat="51.017820993438363" lon="11.248041987419128">
        <ele>452.92000000000002</ele>
        <time>2024-09-12T08:42:37Z</time>
      </trkpt>
      <trkpt lat="51.017895005643368" lon="11.247907960787416">
        <ele>452.44</ele>
        <time>2024-09-12T08:42:38Z</time>
      </trkpt>
      <trkpt lat="51.018357016146183" lon="11.247071027755737">
        <ele>450.02999999999997</ele>
        <time>2024-09-12T08:42:46Z</time>
      </trkpt>
      <trkpt lat="51.01839398033917" lon="11.247005984187126">
        <ele>450.02999999999997</ele>
        <time>2024-09-12T08:42:47Z</time>
      </trkpt>
      <trkpt lat="51.018464975059032" lon="11.246874975040555">
        <ele>450.02999999999997</ele>
        <time>2024-09-12T08:42:48Z</time>
      </trkpt>
      <trkpt lat="51.018496993929148" lon="11.246805991977453">
        <ele>450.02999999999997</ele>
        <time>2024-09-12T08:42:49Z</time>
      </trkpt>
      <trkpt lat="51.018559020012617" lon="11.246664002537727">
        <ele>450.51999999999998</ele>
        <time>2024-09-12T08:42:52Z</time>
      </trkpt>
      <trkpt lat="51.018629008904099" lon="11.246506003662944">
        <ele>451</ele>
        <time>2024-09-12T08:42:54Z</time>
      </trkpt>
      <trkpt lat="51.018765969201922" lon="11.246457975357771">
        <ele>451</ele>
        <time>2024-09-12T08:42:56Z</time>
      </trkpt>
      <trkpt lat="51.018775021657348" lon="11.246474990621209">
        <ele>451</ele>
        <time>2024-09-12T08:42:57Z</time>
      </trkpt>
      <trkpt lat="51.018807962536812" lon="11.246544979512691">
        <ele>451.48000000000002</ele>
        <time>2024-09-12T08:42:58Z</time>
      </trkpt>
      <trkpt lat="51.018836963921785" lon="11.246607005596161">
        <ele>451.48000000000002</ele>
        <time>2024-09-12T08:42:59Z</time>
      </trkpt>
      <trkpt lat="51.018873006105423" lon="11.246681017801166">
        <ele>451.95999999999998</ele>
        <time>2024-09-12T08:43:00Z</time>
      </trkpt>
      <trkpt lat="51.018978031352162" lon="11.246933983638883">
        <ele>452.44</ele>
        <time>2024-09-12T08:43:03Z</time>
      </trkpt>
      <trkpt lat="51.019006026908755" lon="11.247009001672268">
        <ele>452.44</ele>
        <time>2024-09-12T08:43:04Z</time>
      </trkpt>
      <trkpt lat="51.01908297277987" lon="11.247214023023844">
        <ele>452.44</ele>
        <time>2024-09-12T08:43:07Z</time>
      </trkpt>
      <trkpt lat="51.019113985821605" lon="11.2473130133003">
        <ele>452.44</ele>
        <time>2024-09-12T08:43:08Z</time>
      </trkpt>
      <trkpt lat="51.019117003306746" lon="11.247404962778091">
        <ele>452.44</ele>
        <time>2024-09-12T08:43:10Z</time>
      </trkpt>
      <trkpt lat="51.019128989428282" lon="11.24784903600812">
        <ele>451.95999999999998</ele>
        <time>2024-09-12T08:43:14Z</time>
      </trkpt>
      <trkpt lat="51.019131001085043" lon="11.247928999364376">
        <ele>451.95999999999998</ele>
        <time>2024-09-12T08:43:15Z</time>
      </trkpt>
      <trkpt lat="51.019114991649985" lon="11.248253965750337">
        <ele>451.48000000000002</ele>
        <time>2024-09-12T08:43:19Z</time>
      </trkpt>
      <trkpt lat="51.019105017185211" lon="11.248332001268864">
        <ele>451.48000000000002</ele>
        <time>2024-09-12T08:43:20Z</time>
      </trkpt>
      <trkpt lat="51.019071992486715" lon="11.248594019562006">
        <ele>452.92000000000002</ele>
        <time>2024-09-12T08:43:25Z</time>
      </trkpt>
      <trkpt lat="51.019068975001574" lon="11.248620003461838">
        <ele>452.92000000000002</ele>
        <time>2024-09-12T08:43:26Z</time>
      </trkpt>
      <trkpt lat="51.019049026072025" lon="11.248776996508241">
        <ele>453.39999999999998</ele>
        <time>2024-09-12T08:43:27Z</time>
      </trkpt>
      <trkpt lat="51.019068975001574" lon="11.248789988458157">
        <ele>453.39999999999998</ele>
        <time>2024-09-12T08:43:28Z</time>
      </trkpt>
      <trkpt lat="51.019092025235295" lon="11.248805997893214">
        <ele>453.88</ele>
        <time>2024-09-12T08:43:29Z</time>
      </trkpt>
      <trkpt lat="51.019114991649985" lon="11.248821001499891">
        <ele>453.88</ele>
        <time>2024-09-12T08:43:30Z</time>
      </trkpt>
      <trkpt lat="51.019307021051645" lon="11.248819995671511">
        <ele>455.31999999999999</ele>
        <time>2024-09-12T08:43:38Z</time>
      </trkpt>
      <trkpt lat="51.019355971366167" lon="11.248615980148315">
        <ele>456.27999999999997</ele>
        <time>2024-09-12T08:43:41Z</time>
      </trkpt>
      <trkpt lat="51.019412968307734" lon="11.248381035402417">
        <ele>457.24000000000001</ele>
        <time>2024-09-12T08:43:45Z</time>
      </trkpt>
      <trkpt lat="51.019453033804893" lon="11.248028995469213">
        <ele>459.17000000000002</ele>
        <time>2024-09-12T08:43:52Z</time>
      </trkpt>
      <trkpt lat="51.019452027976513" lon="11.247963029891253">
        <ele>459.17000000000002</ele>
        <time>2024-09-12T08:43:53Z</time>
      </trkpt>
      <trkpt lat="51.019450016319752" lon="11.24789304099977">
        <ele>459.64999999999998</ele>
        <time>2024-09-12T08:43:54Z</time>
      </trkpt>
      <trkpt lat="51.019449010491371" lon="11.247824979946017">
        <ele>459.64999999999998</ele>
        <time>2024-09-12T08:43:55Z</time>
      </trkpt>
      <trkpt lat="51.01944699883461" lon="11.247759014368057">
        <ele>460.13</ele>
        <time>2024-09-12T08:43:56Z</time>
      </trkpt>
      <trkpt lat="51.019445993006229" lon="11.247695982456207">
        <ele>460.61000000000001</ele>
        <time>2024-09-12T08:43:57Z</time>
      </trkpt>
      <trkpt lat="51.019443981349468" lon="11.24763404019177">
        <ele>461.08999999999997</ele>
        <time>2024-09-12T08:43:58Z</time>
      </trkpt>
      <trkpt lat="51.019442975521088" lon="11.2475720141083">
        <ele>461.56999999999999</ele>
        <time>2024-09-12T08:43:59Z</time>
      </trkpt>
      <trkpt lat="51.019440963864326" lon="11.247476963326335">
        <ele>462.05000000000001</ele>
        <time>2024-09-12T08:44:07Z</time>
      </trkpt>
      <trkpt lat="51.019439036026597" lon="11.247401023283601">
        <ele>462.52999999999997</ele>
        <time>2024-09-12T08:44:15Z</time>
      </trkpt>
      <trkpt lat="51.019364017993212" lon="11.246985029429197">
        <ele>463.49000000000001</ele>
        <time>2024-09-12T08:44:19Z</time>
      </trkpt>
      <trkpt lat="51.019333004951477" lon="11.246870029717684">
        <ele>463.97000000000003</ele>
        <time>2024-09-12T08:44:20Z</time>
      </trkpt>
      <trkpt lat="51.019099988043308" lon="11.246376000344753">
        <ele>464.93000000000001</ele>
        <time>2024-09-12T08:44:25Z</time>
      </trkpt>
      <trkpt lat="51.0190399736166" lon="11.246291007846594">
        <ele>464.93000000000001</ele>
        <time>2024-09-12T08:44:26Z</time>
      </trkpt>
      <trkpt lat="51.018853979185224" lon="11.246104007586837">
        <ele>465.89999999999998</ele>
        <time>2024-09-12T08:44:29Z</time>
      </trkpt>
      <trkpt lat="51.018801005557179" lon="11.246066959574819">
        <ele>465.89999999999998</ele>
        <time>2024-09-12T08:44:30Z</time>
      </trkpt>
      <trkpt lat="51.018773010000587" lon="11.245860010385513">
        <ele>465.89999999999998</ele>
        <time>2024-09-12T08:44:31Z</time>
      </trkpt>
      <trkpt lat="51.018790025264025" lon="11.245745010674">
        <ele>465.89999999999998</ele>
        <time>2024-09-12T08:44:33Z</time>
      </trkpt>
      <trkpt lat="51.018807962536812" lon="11.245618024840951">
        <ele>465.42000000000002</ele>
        <time>2024-09-12T08:44:34Z</time>
      </trkpt>
      <trkpt lat="51.018894966691732" lon="11.245360029861331">
        <ele>465.42000000000002</ele>
        <time>2024-09-12T08:44:35Z</time>
      </trkpt>
      <trkpt lat="51.018948024138808" lon="11.245216028764844">
        <ele>464.93000000000001</ele>
        <time>2024-09-12T08:44:36Z</time>
      </trkpt>
      <trkpt lat="51.018948024138808" lon="11.245216028764844">
        <ele>464.93000000000001</ele>
        <time>2024-09-12T08:44:37Z</time>
      </trkpt>
      <trkpt lat="51.018999991938472" lon="11.245074961334467">
        <ele>464.93000000000001</ele>
        <time>2024-09-12T08:44:38Z</time>
      </trkpt>
      <trkpt lat="51.019049026072025" lon="11.244930038228631">
        <ele>464.93000000000001</ele>
        <time>2024-09-12T08:44:39Z</time>
      </trkpt>
      <trkpt lat="51.019234014675021" lon="11.244082041084766">
        <ele>462.52999999999997</ele>
        <time>2024-09-12T08:44:44Z</time>
      </trkpt>
      <trkpt lat="51.019414979964495" lon="11.243127007037401">
        <ele>458.20999999999998</ele>
        <time>2024-09-12T08:44:48Z</time>
      </trkpt>
      <trkpt lat="51.019460996612906" lon="11.242961967363954">
        <ele>457.24000000000001</ele>
        <time>2024-09-12T08:44:49Z</time>
      </trkpt>
      <trkpt lat="51.019975980743766" lon="11.242149006575346">
        <ele>449.55000000000001</ele>
        <time>2024-09-12T08:44:56Z</time>
      </trkpt>
      <trkpt lat="51.020073965191841" lon="11.242091003805399">
        <ele>448.11000000000001</ele>
        <time>2024-09-12T08:44:57Z</time>
      </trkpt>
      <trkpt lat="51.020176978781819" lon="11.24202998355031">
        <ele>447.14999999999998</ele>
        <time>2024-09-12T08:44:58Z</time>
      </trkpt>
      <trkpt lat="51.020519966259599" lon="11.24181498773396">
        <ele>443.79000000000002</ele>
        <time>2024-09-12T08:45:01Z</time>
      </trkpt>
      <trkpt lat="51.020649969577789" lon="11.241692025214434">
        <ele>442.81999999999999</ele>
        <time>2024-09-12T08:45:02Z</time>
      </trkpt>
      <trkpt lat="51.021704999729991" lon="11.240733973681927">
        <ele>436.57999999999998</ele>
        <time>2024-09-12T08:45:09Z</time>
      </trkpt>
      <trkpt lat="51.021860986948013" lon="11.240593995898962">
        <ele>435.61000000000001</ele>
        <time>2024-09-12T08:45:10Z</time>
      </trkpt>
      <trkpt lat="51.02273496799171" lon="11.239782040938735">
        <ele>429.85000000000002</ele>
        <time>2024-09-12T08:45:16Z</time>
      </trkpt>
      <trkpt lat="51.022871006280184" lon="11.239718003198504">
        <ele>428.88999999999999</ele>
        <time>2024-09-12T08:45:17Z</time>
      </trkpt>
      <trkpt lat="51.024116976186633" lon="11.239613983780146">
        <ele>419.26999999999998</ele>
        <time>2024-09-12T08:45:24Z</time>
      </trkpt>
      <trkpt lat="51.025005960837007" lon="11.239511976018548">
        <ele>410.62</ele>
        <time>2024-09-12T08:45:30Z</time>
      </trkpt>
      <trkpt lat="51.025125989690423" lon="11.239474005997181">
        <ele>409.18000000000001</ele>
        <time>2024-09-12T08:45:31Z</time>
      </trkpt>
      <trkpt lat="51.025243001058698" lon="11.239437041804194">
        <ele>408.22000000000003</ele>
        <time>2024-09-12T08:45:32Z</time>
      </trkpt>
      <trkpt lat="51.025466965511441" lon="11.239274013787508">
        <ele>406.76999999999998</ele>
        <time>2024-09-12T08:45:34Z</time>
      </trkpt>
      <trkpt lat="51.026913011446595" lon="11.238048998638988">
        <ele>395.72000000000003</ele>
        <time>2024-09-12T08:45:46Z</time>
      </trkpt>
      <trkpt lat="51.028158981353045" lon="11.236994974315166">
        <ele>388.02999999999997</ele>
        <time>2024-09-12T08:45:53Z</time>
      </trkpt>
      <trkpt lat="51.03001699782908" lon="11.235420014709234">
        <ele>373.13</ele>
        <time>2024-09-12T08:46:03Z</time>
      </trkpt>
      <trkpt lat="51.032156981527805" lon="11.233615977689624">
        <ele>361.11000000000001</ele>
        <time>2024-09-12T08:46:15Z</time>
      </trkpt>
      <trkpt lat="51.034408025443554" lon="11.231723008677363">
        <ele>348.62</ele>
        <time>2024-09-12T08:46:29Z</time>
      </trkpt>
      <trkpt lat="51.0347889829427" lon="11.231429977342486">
        <ele>343.81</ele>
        <time>2024-09-12T08:46:34Z</time>
      </trkpt>
      <trkpt lat="51.034948993474245" lon="11.231312965974212">
        <ele>342.85000000000002</ele>
        <time>2024-09-12T08:46:35Z</time>
      </trkpt>
      <trkpt lat="51.03500297293067" lon="11.231273990124464">
        <ele>342.37</ele>
        <time>2024-09-12T08:46:36Z</time>
      </trkpt>
      <trkpt lat="51.035042032599449" lon="11.231244988739491">
        <ele>341.41000000000003</ele>
        <time>2024-09-12T08:46:37Z</time>
      </trkpt>
      <trkpt lat="51.035100035369396" lon="11.231202995404601">
        <ele>339.95999999999998</ele>
        <time>2024-09-12T08:46:39Z</time>
      </trkpt>
      <trkpt lat="51.0350860375911" lon="11.231311038136482">
        <ele>339</ele>
        <time>2024-09-12T08:46:40Z</time>
      </trkpt>
      <trkpt lat="51.035078996792436" lon="11.23137298040092">
        <ele>338.51999999999998</ele>
        <time>2024-09-12T08:46:41Z</time>
      </trkpt>
      <trkpt lat="51.035068016499281" lon="11.231453027576208">
        <ele>338.04000000000002</ele>
        <time>2024-09-12T08:46:42Z</time>
      </trkpt>
      <trkpt lat="51.035056030377746" lon="11.231547994539142">
        <ele>337.56</ele>
        <time>2024-09-12T08:46:43Z</time>
      </trkpt>
      <trkpt lat="51.035033985972404" lon="11.231643967330456">
        <ele>337.07999999999998</ele>
        <time>2024-09-12T08:46:44Z</time>
      </trkpt>
      <trkpt lat="51.034833993762732" lon="11.232507973909378">
        <ele>337.56</ele>
        <time>2024-09-12T08:46:50Z</time>
      </trkpt>
      <trkpt lat="51.034324038773775" lon="11.234714007005095">
        <ele>341.41000000000003</ele>
        <time>2024-09-12T08:46:58Z</time>
      </trkpt>
      <trkpt lat="51.033359030261636" lon="11.238885009661317">
        <ele>352.45999999999998</ele>
        <time>2024-09-12T08:47:12Z</time>
      </trkpt>
      <trkpt lat="51.03240299038589" lon="11.243021981790662">
        <ele>361.58999999999997</ele>
        <time>2024-09-12T08:47:25Z</time>
      </trkpt>
      <trkpt lat="51.031906027346849" lon="11.245278976857662">
        <ele>364.95999999999998</ele>
        <time>2024-09-12T08:47:33Z</time>
      </trkpt>
      <trkpt lat="51.031842995434999" lon="11.245723972097039">
        <ele>365.44</ele>
        <time>2024-09-12T08:47:35Z</time>
      </trkpt>
      <trkpt lat="51.031859004870057" lon="11.24598397873342">
        <ele>365.44</ele>
        <time>2024-09-12T08:47:36Z</time>
      </trkpt>
      <trkpt lat="51.032047010958195" lon="11.24827902764082">
        <ele>364.95999999999998</ele>
        <time>2024-09-12T08:47:43Z</time>
      </trkpt>
      <trkpt lat="51.032383963465691" lon="11.250593019649386">
        <ele>366.39999999999998</ele>
        <time>2024-09-12T08:47:50Z</time>
      </trkpt>
      <trkpt lat="51.032547997310758" lon="11.251992965117097">
        <ele>367.83999999999997</ele>
        <time>2024-09-12T08:47:55Z</time>
      </trkpt>
      <trkpt lat="51.032601976767182" lon="11.25223696231842">
        <ele>368.31999999999999</ele>
        <time>2024-09-12T08:47:56Z</time>
      </trkpt>
      <trkpt lat="51.032686969265342" lon="11.252465033903718">
        <ele>368.31999999999999</ele>
        <time>2024-09-12T08:47:57Z</time>
      </trkpt>
      <trkpt lat="51.032931972295046" lon="11.253113960847259">
        <ele>368.31999999999999</ele>
        <time>2024-09-12T08:48:00Z</time>
      </trkpt>
      <trkpt lat="51.032984023913741" lon="11.253337003290653">
        <ele>368.31999999999999</ele>
        <time>2024-09-12T08:48:01Z</time>
      </trkpt>
      <trkpt lat="51.033015958964825" lon="11.253799013793468">
        <ele>368.80000000000001</ele>
        <time>2024-09-12T08:48:03Z</time>
      </trkpt>
      <trkpt lat="51.033096006140113" lon="11.256184000521898">
        <ele>370.24000000000001</ele>
        <time>2024-09-12T08:48:12Z</time>
      </trkpt>
      <trkpt lat="51.033145040273666" lon="11.256425986066461">
        <ele>369.75999999999999</ele>
        <time>2024-09-12T08:48:13Z</time>
      </trkpt>
      <trkpt lat="51.033190973103046" lon="11.256656991317868">
        <ele>369.27999999999997</ele>
        <time>2024-09-12T08:48:14Z</time>
      </trkpt>
      <trkpt lat="51.033284012228251" lon="11.257108021527529">
        <ele>367.83999999999997</ele>
        <time>2024-09-12T08:48:16Z</time>
      </trkpt>
      <trkpt lat="51.033405968919396" lon="11.257525021210313">
        <ele>365.92000000000002</ele>
        <time>2024-09-12T08:48:18Z</time>
      </trkpt>
      <trkpt lat="51.033461960032582" lon="11.257717972621322">
        <ele>365.44</ele>
        <time>2024-09-12T08:48:19Z</time>
      </trkpt>
      <trkpt lat="51.03354100137949" lon="11.258069006726146">
        <ele>363.04000000000002</ele>
        <time>2024-09-12T08:48:21Z</time>
      </trkpt>
      <trkpt lat="51.033554999157786" lon="11.258255001157522">
        <ele>361.58999999999997</ele>
        <time>2024-09-12T08:48:22Z</time>
      </trkpt>
      <trkpt lat="51.033570002764463" lon="11.258455999195576">
        <ele>360.63</ele>
        <time>2024-09-12T08:48:23Z</time>
      </trkpt>
      <trkpt lat="51.033552987501025" lon="11.258663032203913">
        <ele>359.19</ele>
        <time>2024-09-12T08:48:24Z</time>
      </trkpt>
      <trkpt lat="51.033511999994516" lon="11.258879033848643">
        <ele>357.75</ele>
        <time>2024-09-12T08:48:25Z</time>
      </trkpt>
      <trkpt lat="51.033469000831246" lon="11.25910802744329">
        <ele>356.31</ele>
        <time>2024-09-12T08:48:26Z</time>
      </trkpt>
      <trkpt lat="51.033134981989861" lon="11.261032009497285">
        <ele>352.94</ele>
        <time>2024-09-12T08:48:34Z</time>
      </trkpt>
      <trkpt lat="51.032941024750471" lon="11.261750003322959">
        <ele>353.42000000000002</ele>
        <time>2024-09-12T08:48:37Z</time>
      </trkpt>
      <trkpt lat="51.032474990934134" lon="11.263137962669134">
        <ele>356.31</ele>
        <time>2024-09-12T08:48:45Z</time>
      </trkpt>
      <trkpt lat="51.032416988164186" lon="11.263623023405671">
        <ele>356.79000000000002</ele>
        <time>2024-09-12T08:48:46Z</time>
      </trkpt>
      <trkpt lat="51.032416988164186" lon="11.263874983415008">
        <ele>357.26999999999998</ele>
        <time>2024-09-12T08:48:47Z</time>
      </trkpt>
      <trkpt lat="51.032428974285722" lon="11.264130966737866">
        <ele>357.75</ele>
        <time>2024-09-12T08:48:48Z</time>
      </trkpt>
      <trkpt lat="51.032571969553828" lon="11.265582963824272">
        <ele>357.75</ele>
        <time>2024-09-12T08:48:54Z</time>
      </trkpt>
      <trkpt lat="51.032611029222608" lon="11.265818998217583">
        <ele>357.26999999999998</ele>
        <time>2024-09-12T08:48:55Z</time>
      </trkpt>
      <trkpt lat="51.032653022557497" lon="11.2660719640553">
        <ele>357.75</ele>
        <time>2024-09-12T08:48:56Z</time>
      </trkpt>
      <trkpt lat="51.032790988683701" lon="11.266470020636916">
        <ele>358.23000000000002</ele>
        <time>2024-09-12T08:48:58Z</time>
      </trkpt>
      <trkpt lat="51.033079996705055" lon="11.267303014174104">
        <ele>357.26999999999998</ele>
        <time>2024-09-12T08:49:02Z</time>
      </trkpt>
      <trkpt lat="51.033159038051963" lon="11.267526978626847">
        <ele>356.79000000000002</ele>
        <time>2024-09-12T08:49:03Z</time>
      </trkpt>
      <trkpt lat="51.033194996416569" lon="11.267774999141693">
        <ele>356.31</ele>
        <time>2024-09-12T08:49:04Z</time>
      </trkpt>
      <trkpt lat="51.033203965052962" lon="11.268030982464552">
        <ele>355.82999999999998</ele>
        <time>2024-09-12T08:49:05Z</time>
      </trkpt>
      <trkpt lat="51.033211005851626" lon="11.268291994929314">
        <ele>355.33999999999997</ele>
        <time>2024-09-12T08:49:06Z</time>
      </trkpt>
      <trkpt lat="51.033211005851626" lon="11.268559964373708">
        <ele>355.33999999999997</ele>
        <time>2024-09-12T08:49:07Z</time>
      </trkpt>
      <trkpt lat="51.033230032771826" lon="11.269568977877498">
        <ele>354.38</ele>
        <time>2024-09-12T08:49:11Z</time>
      </trkpt>
      <trkpt lat="51.033270014449954" lon="11.269804006442428">
        <ele>354.38</ele>
        <time>2024-09-12T08:49:12Z</time>
      </trkpt>
      <trkpt lat="51.033309996128082" lon="11.270035011693835">
        <ele>354.86000000000001</ele>
        <time>2024-09-12T08:49:13Z</time>
      </trkpt>
      <trkpt lat="51.033599004149437" lon="11.271479967981577">
        <ele>351.5</ele>
        <time>2024-09-12T08:49:21Z</time>
      </trkpt>
      <trkpt lat="51.033959006890655" lon="11.273600002750754">
        <ele>342.85000000000002</ele>
        <time>2024-09-12T08:49:33Z</time>
      </trkpt>
      <trkpt lat="51.034349016845226" lon="11.275353999808431">
        <ele>335.63999999999999</ele>
        <time>2024-09-12T08:49:43Z</time>
      </trkpt>
      <trkpt lat="51.03468001820147" lon="11.276751011610031">
        <ele>331.31</ele>
        <time>2024-09-12T08:49:51Z</time>
      </trkpt>
      <trkpt lat="51.035190979018807" lon="11.278796028345823">
        <ele>327.47000000000003</ele>
        <time>2024-09-12T08:50:03Z</time>
      </trkpt>
      <trkpt lat="51.035638991743326" lon="11.281185960397124">
        <ele>317.85000000000002</ele>
        <time>2024-09-12T08:50:16Z</time>
      </trkpt>
      <trkpt lat="51.03601299226284" lon="11.283456031233072">
        <ele>312.08999999999997</ele>
        <time>2024-09-12T08:50:27Z</time>
      </trkpt>
      <trkpt lat="51.036266963928938" lon="11.284610973671079">
        <ele>308.24000000000001</ele>
        <time>2024-09-12T08:50:33Z</time>
      </trkpt>
      <trkpt lat="51.03687196969986" lon="11.286278972402215">
        <ele>299.58999999999997</ele>
        <time>2024-09-12T08:50:42Z</time>
      </trkpt>
      <trkpt lat="51.0370840318501" lon="11.287302989512682">
        <ele>293.33999999999997</ele>
        <time>2024-09-12T08:50:48Z</time>
      </trkpt>
      <trkpt lat="51.037119990214705" lon="11.287417989224195">
        <ele>292.38</ele>
        <time>2024-09-12T08:50:49Z</time>
      </trkpt>
      <trkpt lat="51.03715100325644" lon="11.287515973672271">
        <ele>291.42000000000002</ele>
        <time>2024-09-12T08:50:50Z</time>
      </trkpt>
      <trkpt lat="51.037212023511529" lon="11.287708003073931">
        <ele>288.52999999999997</ele>
        <time>2024-09-12T08:50:53Z</time>
      </trkpt>
      <trkpt lat="51.037271032109857" lon="11.287700040265918">
        <ele>287.08999999999997</ele>
        <time>2024-09-12T08:50:55Z</time>
      </trkpt>
      <trkpt lat="51.037318976595998" lon="11.287655029445887">
        <ele>286.61000000000001</ele>
        <time>2024-09-12T08:50:56Z</time>
      </trkpt>
      <trkpt lat="51.037684008479118" lon="11.287371972575784">
        <ele>285.17000000000002</ele>
        <time>2024-09-12T08:50:59Z</time>
      </trkpt>
      <trkpt lat="51.037817029282451" lon="11.287314975634217">
        <ele>285.17000000000002</ele>
        <time>2024-09-12T08:51:00Z</time>
      </trkpt>
      <trkpt lat="51.03796698153019" lon="11.287287985906005">
        <ele>284.69</ele>
        <time>2024-09-12T08:51:01Z</time>
      </trkpt>
      <trkpt lat="51.038124980404973" lon="11.287280023097992">
        <ele>284.20999999999998</ele>
        <time>2024-09-12T08:51:02Z</time>
      </trkpt>
      <trkpt lat="51.038294965401292" lon="11.287270970642567">
        <ele>283.25</ele>
        <time>2024-09-12T08:51:03Z</time>
      </trkpt>
      <trkpt lat="51.038474002853036" lon="11.287260996177793">
        <ele>282.76999999999998</ele>
        <time>2024-09-12T08:51:04Z</time>
      </trkpt>
      <trkpt lat="51.040324978530407" lon="11.287214979529381">
        <ele>277.48000000000002</ele>
        <time>2024-09-12T08:51:13Z</time>
      </trkpt>
      <trkpt lat="51.04239203967154" lon="11.286583989858627">
        <ele>269.31</ele>
        <time>2024-09-12T08:51:22Z</time>
      </trkpt>
      <trkpt lat="51.04482295922935" lon="11.285710008814931">
        <ele>262.57999999999998</ele>
        <time>2024-09-12T08:51:33Z</time>
      </trkpt>
      <trkpt lat="51.046267999336123" lon="11.285008024424314">
        <ele>259.69</ele>
        <time>2024-09-12T08:51:41Z</time>
      </trkpt>
      <trkpt lat="51.047294028103352" lon="11.284573003649712">
        <ele>254.41</ele>
        <time>2024-09-12T08:51:49Z</time>
      </trkpt>
      <trkpt lat="51.047401987016201" lon="11.284554982557893">
        <ele>253.93000000000001</ele>
        <time>2024-09-12T08:51:50Z</time>
      </trkpt>
      <trkpt lat="51.047512041404843" lon="11.284587001428008">
        <ele>252.96000000000001</ele>
        <time>2024-09-12T08:51:51Z</time>
      </trkpt>
      <trkpt lat="51.047616982832551" lon="11.284617008641362">
        <ele>252</ele>
        <time>2024-09-12T08:51:52Z</time>
      </trkpt>
      <trkpt lat="51.047715973109007" lon="11.284645004197955">
        <ele>251.03999999999999</ele>
        <time>2024-09-12T08:51:53Z</time>
      </trkpt>
      <trkpt lat="51.047811023890972" lon="11.284671993926167">
        <ele>250.08000000000001</ele>
        <time>2024-09-12T08:51:55Z</time>
      </trkpt>
      <trkpt lat="51.048481995239854" lon="11.284920014441013">
        <ele>246.22999999999999</ele>
        <time>2024-09-12T08:52:03Z</time>
      </trkpt>
      <trkpt lat="51.049385983496904" lon="11.285211034119129">
        <ele>243.83000000000001</ele>
        <time>2024-09-12T08:52:13Z</time>
      </trkpt>
      <trkpt lat="51.050100037828088" lon="11.285382024943829">
        <ele>241.43000000000001</ele>
        <time>2024-09-12T08:52:22Z</time>
      </trkpt>
      <trkpt lat="51.050425004214048" lon="11.285456959158182">
        <ele>240.47</ele>
        <time>2024-09-12T08:52:26Z</time>
      </trkpt>
      <trkpt lat="51.050571016967297" lon="11.285490989685059">
        <ele>239.99000000000001</ele>
        <time>2024-09-12T08:52:28Z</time>
      </trkpt>
      <trkpt lat="51.050717029720545" lon="11.285609006881714">
        <ele>239.50999999999999</ele>
        <time>2024-09-12T08:52:30Z</time>
      </trkpt>
      <trkpt lat="51.050934037193656" lon="11.285781003534794">
        <ele>239.02000000000001</ele>
        <time>2024-09-12T08:52:33Z</time>
      </trkpt>
      <trkpt lat="51.051153978332877" lon="11.285920981317759">
        <ele>238.53999999999999</ele>
        <time>2024-09-12T08:52:36Z</time>
      </trkpt>
      <trkpt lat="51.05122497305274" lon="11.285960962995887">
        <ele>238.53999999999999</ele>
        <time>2024-09-12T08:52:37Z</time>
      </trkpt>
      <trkpt lat="51.051295967772603" lon="11.286001028493047">
        <ele>238.53999999999999</ele>
        <time>2024-09-12T08:52:39Z</time>
      </trkpt>
      <trkpt lat="51.05143996886909" lon="11.286057019606233">
        <ele>238.53999999999999</ele>
        <time>2024-09-12T08:52:40Z</time>
      </trkpt>
      <trkpt lat="51.051515992730856" lon="11.286063976585865">
        <ele>238.06</ele>
        <time>2024-09-12T08:52:41Z</time>
      </trkpt>
      <trkpt lat="51.051596039906144" lon="11.286040004342794">
        <ele>238.06</ele>
        <time>2024-09-12T08:52:42Z</time>
      </trkpt>
      <trkpt lat="51.051677009090781" lon="11.286016032099724">
        <ele>238.06</ele>
        <time>2024-09-12T08:52:43Z</time>
      </trkpt>
      <trkpt lat="51.051756972447038" lon="11.285991976037621">
        <ele>237.58000000000001</ele>
        <time>2024-09-12T08:52:45Z</time>
      </trkpt>
      <trkpt lat="51.052252007648349" lon="11.285845041275024">
        <ele>237.58000000000001</ele>
        <time>2024-09-12T08:52:50Z</time>
      </trkpt>
      <trkpt lat="51.052339011803269" lon="11.285799024626613">
        <ele>237.58000000000001</ele>
        <time>2024-09-12T08:52:51Z</time>
      </trkpt>
      <trkpt lat="51.052604969590902" lon="11.285615963861346">
        <ele>238.53999999999999</ele>
        <time>2024-09-12T08:52:54Z</time>
      </trkpt>
      <trkpt lat="51.052703037858009" lon="11.28553700633347">
        <ele>239.02000000000001</ele>
        <time>2024-09-12T08:52:55Z</time>
      </trkpt>
      <trkpt lat="51.052802028134465" lon="11.285436004400253">
        <ele>239.50999999999999</ele>
        <time>2024-09-12T08:52:56Z</time>
      </trkpt>
      <trkpt lat="51.052893977612257" lon="11.285288985818624">
        <ele>240.47</ele>
        <time>2024-09-12T08:52:57Z</time>
      </trkpt>
      <trkpt lat="51.052992967888713" lon="11.28512998111546">
        <ele>240.94999999999999</ele>
        <time>2024-09-12T08:52:58Z</time>
      </trkpt>
      <trkpt lat="51.053077960386872" lon="11.284939963370562">
        <ele>241.43000000000001</ele>
        <time>2024-09-12T08:52:59Z</time>
      </trkpt>
      <trkpt lat="51.053166976198554" lon="11.284739971160889">
        <ele>242.38999999999999</ele>
        <time>2024-09-12T08:53:00Z</time>
      </trkpt>
      <trkpt lat="51.053249035030603" lon="11.284507038071752">
        <ele>242.87</ele>
        <time>2024-09-12T08:53:01Z</time>
      </trkpt>
      <trkpt lat="51.053985971957445" lon="11.282071005553007">
        <ele>245.27000000000001</ele>
        <time>2024-09-12T08:53:10Z</time>
      </trkpt>
      <trkpt lat="51.054980987682939" lon="11.278629982843995">
        <ele>247.68000000000001</ele>
        <time>2024-09-12T08:53:23Z</time>
      </trkpt>
      <trkpt lat="51.055940967053175" lon="11.2753089889884">
        <ele>243.83000000000001</ele>
        <time>2024-09-12T08:53:35Z</time>
      </trkpt>
      <trkpt lat="51.056198962032795" lon="11.274269968271255">
        <ele>243.83000000000001</ele>
        <time>2024-09-12T08:53:41Z</time>
      </trkpt>
      <trkpt lat="51.056235004216433" lon="11.273902002722025">
        <ele>243.83000000000001</ele>
        <time>2024-09-12T08:53:42Z</time>
      </trkpt>
      <trkpt lat="51.056235004216433" lon="11.273725982755423">
        <ele>244.31</ele>
        <time>2024-09-12T08:53:43Z</time>
      </trkpt>
      <trkpt lat="51.056203991174698" lon="11.273564966395497">
        <ele>243.83000000000001</ele>
        <time>2024-09-12T08:53:44Z</time>
      </trkpt>
      <trkpt lat="51.056167026981711" lon="11.27341702580452">
        <ele>243.83000000000001</ele>
        <time>2024-09-12T08:53:45Z</time>
      </trkpt>
      <trkpt lat="51.056131990626454" lon="11.273276964202523">
        <ele>243.83000000000001</ele>
        <time>2024-09-12T08:53:46Z</time>
      </trkpt>
      <trkpt lat="51.055825967341661" lon="11.271867966279387">
        <ele>241.43000000000001</ele>
        <time>2024-09-12T08:53:55Z</time>
      </trkpt>
      <trkpt lat="51.055483985692263" lon="11.270100977271795">
        <ele>238.06</ele>
        <time>2024-09-12T08:54:05Z</time>
      </trkpt>
      <trkpt lat="51.055483985692263" lon="11.269924035295844">
        <ele>238.06</ele>
        <time>2024-09-12T08:54:06Z</time>
      </trkpt>
      <trkpt lat="51.055505024269223" lon="11.269743992015719">
        <ele>237.58000000000001</ele>
        <time>2024-09-12T08:54:07Z</time>
      </trkpt>
      <trkpt lat="51.055550035089254" lon="11.269577024504542">
        <ele>237.09999999999999</ele>
        <time>2024-09-12T08:54:08Z</time>
      </trkpt>
      <trkpt lat="51.055625975131989" lon="11.269458001479506">
        <ele>236.62</ele>
        <time>2024-09-12T08:54:09Z</time>
      </trkpt>
      <trkpt lat="51.055708033964038" lon="11.269348030909896">
        <ele>236.62</ele>
        <time>2024-09-12T08:54:10Z</time>
      </trkpt>
      <trkpt lat="51.055807024240494" lon="11.269254991784692">
        <ele>236.13999999999999</ele>
        <time>2024-09-12T08:54:11Z</time>
      </trkpt>
      <trkpt lat="51.055908026173711" lon="11.269160024821758">
        <ele>236.13999999999999</ele>
        <time>2024-09-12T08:54:12Z</time>
      </trkpt>
      <trkpt lat="51.056009028106928" lon="11.269064974039793">
        <ele>236.13999999999999</ele>
        <time>2024-09-12T08:54:13Z</time>
      </trkpt>
      <trkpt lat="51.057117031887174" lon="11.268039029091597">
        <ele>236.13999999999999</ele>
        <time>2024-09-12T08:54:24Z</time>
      </trkpt>
      <trkpt lat="51.058011967688799" lon="11.267103021964431">
        <ele>237.09999999999999</ele>
        <time>2024-09-12T08:54:32Z</time>
      </trkpt>
      <trkpt lat="51.058108024299145" lon="11.266914010047913">
        <ele>237.58000000000001</ele>
        <time>2024-09-12T08:54:33Z</time>
      </trkpt>
      <trkpt lat="51.058182036504149" lon="11.266691973432899">
        <ele>238.06</ele>
        <time>2024-09-12T08:54:34Z</time>
      </trkpt>
      <trkpt lat="51.058256970718503" lon="11.266465997323394">
        <ele>238.06</ele>
        <time>2024-09-12T08:54:35Z</time>
      </trkpt>
      <trkpt lat="51.058317990973592" lon="11.26622200012207">
        <ele>238.53999999999999</ele>
        <time>2024-09-12T08:54:36Z</time>
      </trkpt>
      <trkpt lat="51.058905981481075" lon="11.263613970950246">
        <ele>238.53999999999999</ele>
        <time>2024-09-12T08:54:45Z</time>
      </trkpt>
      <trkpt lat="51.059686001390219" lon="11.260105976834893">
        <ele>234.22</ele>
        <time>2024-09-12T08:54:55Z</time>
      </trkpt>
      <trkpt lat="51.060670958831906" lon="11.255672033876181">
        <ele>233.25999999999999</ele>
        <time>2024-09-12T08:55:07Z</time>
      </trkpt>
      <trkpt lat="51.06153798289597" lon="11.251770006492734">
        <ele>232.30000000000001</ele>
        <time>2024-09-12T08:55:18Z</time>
      </trkpt>
      <trkpt lat="51.061893040314317" lon="11.250181971117854">
        <ele>231.33000000000001</ele>
        <time>2024-09-12T08:55:25Z</time>
      </trkpt>
      <trkpt lat="51.062340969219804" lon="11.248277015984058">
        <ele>228.93000000000001</ele>
        <time>2024-09-12T08:55:37Z</time>
      </trkpt>
      <trkpt lat="51.062385980039835" lon="11.24810703098774">
        <ele>228.44999999999999</ele>
        <time>2024-09-12T08:55:38Z</time>
      </trkpt>
      <trkpt lat="51.06243702583015" lon="11.247919024899602">
        <ele>227.97</ele>
        <time>2024-09-12T08:55:39Z</time>
      </trkpt>
      <trkpt lat="51.062471978366375" lon="11.247813999652863">
        <ele>227.49000000000001</ele>
        <time>2024-09-12T08:55:40Z</time>
      </trkpt>
      <trkpt lat="51.062581026926637" lon="11.247592968866229">
        <ele>227.00999999999999</ele>
        <time>2024-09-12T08:55:41Z</time>
      </trkpt>
      <trkpt lat="51.062673982232809" lon="11.247523985803127">
        <ele>226.05000000000001</ele>
        <time>2024-09-12T08:55:42Z</time>
      </trkpt>
      <trkpt lat="51.062780013307929" lon="11.247553993016481">
        <ele>225.56999999999999</ele>
        <time>2024-09-12T08:55:43Z</time>
      </trkpt>
      <trkpt lat="51.06282401829958" lon="11.247476963326335">
        <ele>225.09</ele>
        <time>2024-09-12T08:55:44Z</time>
      </trkpt>
      <trkpt lat="51.062866011634469" lon="11.247404040768743">
        <ele>224.61000000000001</ele>
        <time>2024-09-12T08:55:45Z</time>
      </trkpt>
      <trkpt lat="51.06286701746285" lon="11.247145039960742">
        <ele>223.63999999999999</ele>
        <time>2024-09-12T08:55:47Z</time>
      </trkpt>
      <trkpt lat="51.062972964718938" lon="11.247039008885622">
        <ele>223.16</ele>
        <time>2024-09-12T08:55:48Z</time>
      </trkpt>
      <trkpt lat="51.063121994957328" lon="11.246855026111007">
        <ele>222.68000000000001</ele>
        <time>2024-09-12T08:55:49Z</time>
      </trkpt>
      <trkpt lat="51.063454002141953" lon="11.246484965085983">
        <ele>221.72</ele>
        <time>2024-09-12T08:55:53Z</time>
      </trkpt>
      <trkpt lat="51.064706007018685" lon="11.245634034276009">
        <ele>219.80000000000001</ele>
        <time>2024-09-12T08:56:01Z</time>
      </trkpt>
      <trkpt lat="51.066900976002216" lon="11.244944036006927">
        <ele>213.55000000000001</ele>
        <time>2024-09-12T08:56:11Z</time>
      </trkpt>
      <trkpt lat="51.069128969684243" lon="11.244184970855713">
        <ele>209.22</ele>
        <time>2024-09-12T08:56:23Z</time>
      </trkpt>
      <trkpt lat="51.071267025545239" lon="11.244224030524492">
        <ele>210.19</ele>
        <time>2024-09-12T08:56:34Z</time>
      </trkpt>
      <trkpt lat="51.074290964752436" lon="11.244377000257373">
        <ele>204.90000000000001</ele>
        <time>2024-09-12T08:56:50Z</time>
      </trkpt>
      <trkpt lat="51.076034987345338" lon="11.244483031332493">
        <ele>193.36000000000001</ele>
        <time>2024-09-12T08:57:00Z</time>
      </trkpt>
      <trkpt lat="51.076884996145964" lon="11.244550002738833">
        <ele>189.52000000000001</ele>
        <time>2024-09-12T08:57:07Z</time>
      </trkpt>
      <trkpt lat="51.077388999983668" lon="11.244604988023639">
        <ele>189.52000000000001</ele>
        <time>2024-09-12T08:57:14Z</time>
      </trkpt>
      <trkpt lat="51.078247977420688" lon="11.245028022676706">
        <ele>187.59</ele>
        <time>2024-09-12T08:57:25Z</time>
      </trkpt>
      <trkpt lat="51.078396001830697" lon="11.245117038488388">
        <ele>188.08000000000001</ele>
        <time>2024-09-12T08:57:27Z</time>
      </trkpt>
      <trkpt lat="51.078688027337193" lon="11.245291968807578">
        <ele>189.03999999999999</ele>
        <time>2024-09-12T08:57:30Z</time>
      </trkpt>
      <trkpt lat="51.078688027337193" lon="11.245292974635959">
        <ele>189.03999999999999</ele>
        <time>2024-09-12T08:57:31Z</time>
      </trkpt>
      <trkpt lat="51.078760027885437" lon="11.245305966585875">
        <ele>189.52000000000001</ele>
        <time>2024-09-12T08:57:32Z</time>
      </trkpt>
      <trkpt lat="51.078937975689769" lon="11.245258022099733">
        <ele>190.47999999999999</ele>
        <time>2024-09-12T08:57:34Z</time>
      </trkpt>
      <trkpt lat="51.078938981518149" lon="11.24516598880291">
        <ele>190.96000000000001</ele>
        <time>2024-09-12T08:57:35Z</time>
      </trkpt>
      <trkpt lat="51.07893998734653" lon="11.245053000748158">
        <ele>190.96000000000001</ele>
        <time>2024-09-12T08:57:36Z</time>
      </trkpt>
      <trkpt lat="51.078940993174911" lon="11.24493196606636">
        <ele>191.44</ele>
        <time>2024-09-12T08:57:37Z</time>
      </trkpt>
      <trkpt lat="51.078943004831672" lon="11.244801040738821">
        <ele>191.44</ele>
        <time>2024-09-12T08:57:38Z</time>
      </trkpt>
      <trkpt lat="51.078944010660052" lon="11.24465100467205">
        <ele>191.91999999999999</ele>
        <time>2024-09-12T08:57:39Z</time>
      </trkpt>
      <trkpt lat="51.078950967639685" lon="11.243888000026345">
        <ele>194.31999999999999</ele>
        <time>2024-09-12T08:57:43Z</time>
      </trkpt>
      <trkpt lat="51.078951973468065" lon="11.243739975616336">
        <ele>195.77000000000001</ele>
        <time>2024-09-12T08:57:45Z</time>
      </trkpt>
      <trkpt lat="51.078953985124826" lon="11.243608966469765">
        <ele>195.77000000000001</ele>
        <time>2024-09-12T08:57:46Z</time>
      </trkpt>
      <trkpt lat="51.078958008438349" lon="11.2431909609586">
        <ele>196.25</ele>
        <time>2024-09-12T08:57:49Z</time>
      </trkpt>
      <trkpt lat="51.078959014266729" lon="11.243043020367622">
        <ele>196.25</ele>
        <time>2024-09-12T08:57:50Z</time>
      </trkpt>
      <trkpt lat="51.078972006216645" lon="11.241694958880544">
        <ele>197.69</ele>
        <time>2024-09-12T08:57:59Z</time>
      </trkpt>
      <trkpt lat="51.078975023701787" lon="11.241335961967707">
        <ele>198.16999999999999</ele>
        <time>2024-09-12T08:58:02Z</time>
      </trkpt>
      <trkpt lat="51.078978041186929" lon="11.241049971431494">
        <ele>198.16999999999999</ele>
        <time>2024-09-12T08:58:04Z</time>
      </trkpt>
      <trkpt lat="51.078978963196278" lon="11.240898007526994">
        <ele>198.16999999999999</ele>
        <time>2024-09-12T08:58:05Z</time>
      </trkpt>
      <trkpt lat="51.079045012593269" lon="11.239470988512039">
        <ele>197.21000000000001</ele>
        <time>2024-09-12T08:58:12Z</time>
      </trkpt>
      <trkpt lat="51.079113995656371" lon="11.237354977056384">
        <ele>194.80000000000001</ele>
        <time>2024-09-12T08:58:19Z</time>
      </trkpt>
      <trkpt lat="51.079230001196265" lon="11.233760984614491">
        <ele>192.88</ele>
        <time>2024-09-12T08:58:28Z</time>
      </trkpt>
      <trkpt lat="51.079245004802942" lon="11.230648029595613">
        <ele>191.91999999999999</ele>
        <time>2024-09-12T08:58:36Z</time>
      </trkpt>
      <trkpt lat="51.079255985096097" lon="11.23031803406775">
        <ele>191.91999999999999</ele>
        <time>2024-09-12T08:58:37Z</time>
      </trkpt>
      <trkpt lat="51.079289009794593" lon="11.229987032711506">
        <ele>192.40000000000001</ele>
        <time>2024-09-12T08:58:38Z</time>
      </trkpt>
      <trkpt lat="51.079354975372553" lon="11.229658965021372">
        <ele>192.88</ele>
        <time>2024-09-12T08:58:39Z</time>
      </trkpt>
      <trkpt lat="51.079441979527473" lon="11.229339027777314">
        <ele>193.84</ele>
        <time>2024-09-12T08:58:40Z</time>
      </trkpt>
      <trkpt lat="51.079528983682394" lon="11.229020012542605">
        <ele>193.84</ele>
        <time>2024-09-12T08:58:41Z</time>
      </trkpt>
      <trkpt lat="51.080630030483007" lon="11.224918998777866">
        <ele>189.52000000000001</ele>
        <time>2024-09-12T08:58:53Z</time>
      </trkpt>
      <trkpt lat="51.080909986048937" lon="11.222763005644083">
        <ele>190</ele>
        <time>2024-09-12T08:59:00Z</time>
      </trkpt>
      <trkpt lat="51.080853994935751" lon="11.220208033919334">
        <ele>191.44</ele>
        <time>2024-09-12T08:59:07Z</time>
      </trkpt>
      <trkpt lat="51.080784006044269" lon="11.219523986801505">
        <ele>191.91999999999999</ele>
        <time>2024-09-12T08:59:09Z</time>
      </trkpt>
      <trkpt lat="51.080749975517392" lon="11.219194997102022">
        <ele>191.91999999999999</ele>
        <time>2024-09-12T08:59:10Z</time>
      </trkpt>
      <trkpt lat="51.080675963312387" lon="11.21888997964561">
        <ele>191.91999999999999</ele>
        <time>2024-09-12T08:59:11Z</time>
      </trkpt>
      <trkpt lat="51.080595999956131" lon="11.218627961352468">
        <ele>191.44</ele>
        <time>2024-09-12T08:59:12Z</time>
      </trkpt>
      <trkpt lat="51.080494998022914" lon="11.218399973586202">
        <ele>190.96000000000001</ele>
        <time>2024-09-12T08:59:13Z</time>
      </trkpt>
      <trkpt lat="51.080070035532117" lon="11.217422978952527">
        <ele>189.52000000000001</ele>
        <time>2024-09-12T08:59:18Z</time>
      </trkpt>
      <trkpt lat="51.07997297309339" lon="11.217088960111141">
        <ele>189.03999999999999</ele>
        <time>2024-09-12T08:59:20Z</time>
      </trkpt>
      <trkpt lat="51.079935003072023" lon="11.216922998428345">
        <ele>189.03999999999999</ele>
        <time>2024-09-12T08:59:21Z</time>
      </trkpt>
      <trkpt lat="51.079772980883718" lon="11.215299004688859">
        <ele>186.15000000000001</ele>
        <time>2024-09-12T08:59:30Z</time>
      </trkpt>
      <trkpt lat="51.079740040004253" lon="11.214927015826106">
        <ele>185.19</ele>
        <time>2024-09-12T08:59:32Z</time>
      </trkpt>
      <trkpt lat="51.079737022519112" lon="11.21474202722311">
        <ele>184.71000000000001</ele>
        <time>2024-09-12T08:59:33Z</time>
      </trkpt>
      <trkpt lat="51.079750014469028" lon="11.214557960629463">
        <ele>184.22999999999999</ele>
        <time>2024-09-12T08:59:34Z</time>
      </trkpt>
      <trkpt lat="51.079814974218607" lon="11.214214973151684">
        <ele>182.78999999999999</ele>
        <time>2024-09-12T08:59:36Z</time>
      </trkpt>
      <trkpt lat="51.079851016402245" lon="11.214042976498604">
        <ele>181.83000000000001</ele>
        <time>2024-09-12T08:59:37Z</time>
      </trkpt>
      <trkpt lat="51.079887980595231" lon="11.213869974017143">
        <ele>181.83000000000001</ele>
        <time>2024-09-12T08:59:38Z</time>
      </trkpt>
      <trkpt lat="51.079925028607249" lon="11.213694037869573">
        <ele>181.83000000000001</ele>
        <time>2024-09-12T08:59:39Z</time>
      </trkpt>
      <trkpt lat="51.079996023327112" lon="11.213503014296293">
        <ele>182.31</ele>
        <time>2024-09-12T08:59:40Z</time>
      </trkpt>
      <trkpt lat="51.08005897141993" lon="11.213336968794465">
        <ele>182.31</ele>
        <time>2024-09-12T08:59:41Z</time>
      </trkpt>
      <trkpt lat="51.080563981086016" lon="11.211895029991865">
        <ele>182.78999999999999</ele>
        <time>2024-09-12T08:59:50Z</time>
      </trkpt>
      <trkpt lat="51.080891964957118" lon="11.210126029327512">
        <ele>184.22999999999999</ele>
        <time>2024-09-12T09:00:00Z</time>
      </trkpt>
      <trkpt lat="51.080911997705698" lon="11.209167977795005">
        <ele>184.71000000000001</ele>
        <time>2024-09-12T09:00:05Z</time>
      </trkpt>
      <trkpt lat="51.080904034897685" lon="11.208980977535248">
        <ele>184.71000000000001</ele>
        <time>2024-09-12T09:00:06Z</time>
      </trkpt>
      <trkpt lat="51.080875033512712" lon="11.208453001454473">
        <ele>183.27000000000001</ele>
        <time>2024-09-12T09:00:09Z</time>
      </trkpt>
      <trkpt lat="51.080861035734415" lon="11.208284022286534">
        <ele>182.31</ele>
        <time>2024-09-12T09:00:10Z</time>
      </trkpt>
      <trkpt lat="51.080784006044269" lon="11.20786702260375">
        <ele>180.38</ele>
        <time>2024-09-12T09:00:12Z</time>
      </trkpt>
      <trkpt lat="51.080806972458959" lon="11.207739030942321">
        <ele>179.41999999999999</ele>
        <time>2024-09-12T09:00:13Z</time>
      </trkpt>
      <trkpt lat="51.080834968015552" lon="11.20758899487555">
        <ele>178.46000000000001</ele>
        <time>2024-09-12T09:00:14Z</time>
      </trkpt>
      <trkpt lat="51.081299996003509" lon="11.205903980880976">
        <ele>176.06</ele>
        <time>2024-09-12T09:00:25Z</time>
      </trkpt>
      <trkpt lat="51.081916987895966" lon="11.204091981053352">
        <ele>177.02000000000001</ele>
        <time>2024-09-12T09:00:35Z</time>
      </trkpt>
      <trkpt lat="51.082534985616803" lon="11.202270006760955">
        <ele>179.41999999999999</ele>
        <time>2024-09-12T09:00:44Z</time>
      </trkpt>
      <trkpt lat="51.083335038274527" lon="11.19946600869298">
        <ele>182.78999999999999</ele>
        <time>2024-09-12T09:00:53Z</time>
      </trkpt>
      <trkpt lat="51.08377299271524" lon="11.196654969826341">
        <ele>185.19</ele>
        <time>2024-09-12T09:01:02Z</time>
      </trkpt>
      <trkpt lat="51.084099970757961" lon="11.192909013479948">
        <ele>187.59</ele>
        <time>2024-09-12T09:01:13Z</time>
      </trkpt>
      <trkpt lat="51.084533985704184" lon="11.189612997695804">
        <ele>188.08000000000001</ele>
        <time>2024-09-12T09:01:23Z</time>
      </trkpt>
      <trkpt lat="51.08512700535357" lon="11.185130020603538">
        <ele>190.47999999999999</ele>
        <time>2024-09-12T09:01:34Z</time>
      </trkpt>
      <trkpt lat="51.085739973932505" lon="11.180777968838811">
        <ele>186.63</ele>
        <time>2024-09-12T09:01:46Z</time>
      </trkpt>
      <trkpt lat="51.085861008614302" lon="11.180444033816457">
        <ele>186.15000000000001</ele>
        <time>2024-09-12T09:01:47Z</time>
      </trkpt>
      <trkpt lat="51.085979025810957" lon="11.180118983611465">
        <ele>185.19</ele>
        <time>2024-09-12T09:01:48Z</time>
      </trkpt>
      <trkpt lat="51.086119003593922" lon="11.179826958104968">
        <ele>183.75</ele>
        <time>2024-09-12T09:01:50Z</time>
      </trkpt>
      <trkpt lat="51.088184975087643" lon="11.175902970135212">
        <ele>180.87</ele>
        <time>2024-09-12T09:02:03Z</time>
      </trkpt>
      <trkpt lat="51.088984021916986" lon="11.173758963122964">
        <ele>180.87</ele>
        <time>2024-09-12T09:02:10Z</time>
      </trkpt>
      <trkpt lat="51.089610988274217" lon="11.170833008363843">
        <ele>180.87</ele>
        <time>2024-09-12T09:02:19Z</time>
      </trkpt>
      <trkpt lat="51.089995969086885" lon="11.169132990762591">
        <ele>178.94</ele>
        <time>2024-09-12T09:02:27Z</time>
      </trkpt>
      <trkpt lat="51.090564010664821" lon="11.167340017855167">
        <ele>176.06</ele>
        <time>2024-09-12T09:02:39Z</time>
      </trkpt>
      <trkpt lat="51.091420976445079" lon="11.164934998378158">
        <ele>174.62</ele>
        <time>2024-09-12T09:02:53Z</time>
      </trkpt>
      <trkpt lat="51.091433968394995" lon="11.164740035310388">
        <ele>174.62</ele>
        <time>2024-09-12T09:02:54Z</time>
      </trkpt>
      <trkpt lat="51.091442015022039" lon="11.164554040879011">
        <ele>174.13999999999999</ele>
        <time>2024-09-12T09:02:55Z</time>
      </trkpt>
      <trkpt lat="51.091450983658433" lon="11.164372991770506">
        <ele>174.13999999999999</ele>
        <time>2024-09-12T09:02:56Z</time>
      </trkpt>
      <trkpt lat="51.091459030285478" lon="11.164191020652652">
        <ele>174.13999999999999</ele>
        <time>2024-09-12T09:02:57Z</time>
      </trkpt>
      <trkpt lat="51.091500017791986" lon="11.163272028788924">
        <ele>174.62</ele>
        <time>2024-09-12T09:03:03Z</time>
      </trkpt>
      <trkpt lat="51.091507980599999" lon="11.163090979680419">
        <ele>174.62</ele>
        <time>2024-09-12T09:03:04Z</time>
      </trkpt>
      <trkpt lat="51.091692969202995" lon="11.162651013582945">
        <ele>174.13999999999999</ele>
        <time>2024-09-12T09:03:06Z</time>
      </trkpt>
      <trkpt lat="51.09178701415658" lon="11.162545988336205">
        <ele>174.13999999999999</ele>
        <time>2024-09-12T09:03:07Z</time>
      </trkpt>
      <trkpt lat="51.092876996845007" lon="11.161371013149619">
        <ele>173.66</ele>
        <time>2024-09-12T09:03:16Z</time>
      </trkpt>
      <trkpt lat="51.094870967790484" lon="11.15903296507895">
        <ele>175.09999999999999</ele>
        <time>2024-09-12T09:03:30Z</time>
      </trkpt>
      <trkpt lat="51.095855003222823" lon="11.1575279943645">
        <ele>175.58000000000001</ele>
        <time>2024-09-12T09:03:38Z</time>
      </trkpt>
      <trkpt lat="51.09705101698637" lon="11.155396979302168">
        <ele>176.06</ele>
        <time>2024-09-12T09:03:48Z</time>
      </trkpt>
      <trkpt lat="51.098782969638705" lon="11.151536023244262">
        <ele>174.13999999999999</ele>
        <time>2024-09-12T09:04:03Z</time>
      </trkpt>
      <trkpt lat="51.100208982825279" lon="11.148879965767264">
        <ele>173.16999999999999</ele>
        <time>2024-09-12T09:04:14Z</time>
      </trkpt>
      <trkpt lat="51.101307012140751" lon="11.146995965391397">
        <ele>171.72999999999999</ele>
        <time>2024-09-12T09:04:23Z</time>
      </trkpt>
      <trkpt lat="51.102018970996141" lon="11.145745972171426">
        <ele>172.21000000000001</ele>
        <time>2024-09-12T09:04:32Z</time>
      </trkpt>
      <trkpt lat="51.102859005331993" lon="11.144233038648963">
        <ele>174.62</ele>
        <time>2024-09-12T09:04:43Z</time>
      </trkpt>
      <trkpt lat="51.10293704085052" lon="11.144088031724095">
        <ele>174.62</ele>
        <time>2024-09-12T09:04:44Z</time>
      </trkpt>
      <trkpt lat="51.103014992550015" lon="11.143945958465338">
        <ele>175.09999999999999</ele>
        <time>2024-09-12T09:04:45Z</time>
      </trkpt>
      <trkpt lat="51.103256978094578" lon="11.143548991531134">
        <ele>175.09999999999999</ele>
        <time>2024-09-12T09:04:48Z</time>
      </trkpt>
      <trkpt lat="51.103370971977711" lon="11.143471039831638">
        <ele>175.09999999999999</ele>
        <time>2024-09-12T09:04:49Z</time>
      </trkpt>
      <trkpt lat="51.103481026366353" lon="11.14341001957655">
        <ele>175.09999999999999</ele>
        <time>2024-09-12T09:04:50Z</time>
      </trkpt>
      <trkpt lat="51.104018976911902" lon="11.143098967149854">
        <ele>174.62</ele>
        <time>2024-09-12T09:04:56Z</time>
      </trkpt>
      <trkpt lat="51.104418961331248" lon="11.142984973266721">
        <ele>174.13999999999999</ele>
        <time>2024-09-12T09:05:00Z</time>
      </trkpt>
      <trkpt lat="51.104473024606705" lon="11.142957983538508">
        <ele>174.13999999999999</ele>
        <time>2024-09-12T09:05:01Z</time>
      </trkpt>
      <trkpt lat="51.104484004899859" lon="11.14285203628242">
        <ele>174.13999999999999</ele>
        <time>2024-09-12T09:05:03Z</time>
      </trkpt>
      <trkpt lat="51.104488028213382" lon="11.141888033598661">
        <ele>175.58000000000001</ele>
        <time>2024-09-12T09:05:11Z</time>
      </trkpt>
      <trkpt lat="51.104480987414718" lon="11.141582010313869">
        <ele>176.06</ele>
        <time>2024-09-12T09:05:19Z</time>
      </trkpt>
      <trkpt lat="51.104475958272815" lon="11.141389980912209">
        <ele>176.06</ele>
        <time>2024-09-12T09:05:28Z</time>
      </trkpt>
      <trkpt lat="51.104475036263466" lon="11.141337007284164">
        <ele>176.06</ele>
        <time>2024-09-12T09:05:29Z</time>
      </trkpt>
      <trkpt lat="51.104581989347935" lon="11.141242040321231">
        <ele>174.62</ele>
        <time>2024-09-12T09:05:31Z</time>
      </trkpt>
      <trkpt lat="51.104664970189333" lon="11.141250003129244">
        <ele>174.13999999999999</ele>
        <time>2024-09-12T09:05:32Z</time>
      </trkpt>
      <trkpt lat="51.104889018461108" lon="11.141272969543934">
        <ele>173.66</ele>
        <time>2024-09-12T09:05:33Z</time>
      </trkpt>
      <trkpt lat="51.106175975874066" lon="11.141303982585669">
        <ele>175.09999999999999</ele>
        <time>2024-09-12T09:05:46Z</time>
      </trkpt>
      <trkpt lat="51.106305979192257" lon="11.141351005062461">
        <ele>174.62</ele>
        <time>2024-09-12T09:05:48Z</time>
      </trkpt>
      <trkpt lat="51.10635400749743" lon="11.141440020874143">
        <ele>174.62</ele>
        <time>2024-09-12T09:05:49Z</time>
      </trkpt>
      <trkpt lat="51.106435982510448" lon="11.141663985326886">
        <ele>174.13999999999999</ele>
        <time>2024-09-12T09:05:51Z</time>
      </trkpt>
      <trkpt lat="51.106493985280395" lon="11.141936983913183">
        <ele>174.13999999999999</ele>
        <time>2024-09-12T09:05:52Z</time>
      </trkpt>
      <trkpt lat="51.10650597140193" lon="11.142084002494812">
        <ele>174.13999999999999</ele>
        <time>2024-09-12T09:05:54Z</time>
      </trkpt>
      <trkpt lat="51.106532039120793" lon="11.143128974363208">
        <ele>175.09999999999999</ele>
        <time>2024-09-12T09:06:01Z</time>
      </trkpt>
      <trkpt lat="51.106532039120793" lon="11.143283033743501">
        <ele>175.58000000000001</ele>
        <time>2024-09-12T09:06:02Z</time>
      </trkpt>
      <trkpt lat="51.106558023020625" lon="11.144095994532108">
        <ele>176.53999999999999</ele>
        <time>2024-09-12T09:06:06Z</time>
      </trkpt>
      <trkpt lat="51.106565985828638" lon="11.144262040033937">
        <ele>176.53999999999999</ele>
        <time>2024-09-12T09:06:07Z</time>
      </trkpt>
      <trkpt lat="51.106573026627302" lon="11.144424984231591">
        <ele>176.53999999999999</ele>
        <time>2024-09-12T09:06:09Z</time>
      </trkpt>
      <trkpt lat="51.106687020510435" lon="11.145716970786452">
        <ele>176.53999999999999</ele>
        <time>2024-09-12T09:06:16Z</time>
      </trkpt>
      <trkpt lat="51.106707975268364" lon="11.145887961611152">
        <ele>176.53999999999999</ele>
        <time>2024-09-12T09:06:17Z</time>
      </trkpt>
      <trkpt lat="51.106762960553169" lon="11.14620597101748">
        <ele>177.5</ele>
        <time>2024-09-12T09:06:19Z</time>
      </trkpt>
      <trkpt lat="51.106795985251665" lon="11.146372016519308">
        <ele>177.97999999999999</ele>
        <time>2024-09-12T09:06:20Z</time>
      </trkpt>
      <trkpt lat="51.106865974143147" lon="11.146501014009118">
        <ele>178.46000000000001</ele>
        <time>2024-09-12T09:06:21Z</time>
      </trkpt>
      <trkpt lat="51.106939986348152" lon="11.146638980135322">
        <ele>178.94</ele>
        <time>2024-09-12T09:06:22Z</time>
      </trkpt>
      <trkpt lat="51.10702296718955" lon="11.146764038130641">
        <ele>179.90000000000001</ele>
        <time>2024-09-12T09:06:23Z</time>
      </trkpt>
      <trkpt lat="51.107765017077327" lon="11.147875981405377">
        <ele>186.15000000000001</ele>
        <time>2024-09-12T09:06:30Z</time>
      </trkpt>
      <trkpt lat="51.109289014711976" lon="11.150142028927803">
        <ele>191.44</ele>
        <time>2024-09-12T09:06:41Z</time>
      </trkpt>
      <trkpt lat="51.110907979309559" lon="11.152551993727684">
        <ele>195.28</ele>
        <time>2024-09-12T09:06:51Z</time>
      </trkpt>
      <trkpt lat="51.11232896335423" lon="11.154665993526578">
        <ele>201.53</ele>
        <time>2024-09-12T09:07:00Z</time>
      </trkpt>
      <trkpt lat="51.11456299200654" lon="11.157991010695696">
        <ele>212.11000000000001</ele>
        <time>2024-09-12T09:07:12Z</time>
      </trkpt>
      <trkpt lat="51.117605958133936" lon="11.162518998607993">
        <ele>214.99000000000001</ele>
        <time>2024-09-12T09:07:28Z</time>
      </trkpt>
      <trkpt lat="51.120876995846629" lon="11.16738704033196">
        <ele>225.09</ele>
        <time>2024-09-12T09:07:45Z</time>
      </trkpt>
      <trkpt lat="51.123294001445174" lon="11.170982960611582">
        <ele>228.44999999999999</ele>
        <time>2024-09-12T09:07:58Z</time>
      </trkpt>
      <trkpt lat="51.124387001618743" lon="11.172608966007829">
        <ele>227.49000000000001</ele>
        <time>2024-09-12T09:08:06Z</time>
      </trkpt>
      <trkpt lat="51.124770976603031" lon="11.173219000920653">
        <ele>228.44999999999999</ele>
        <time>2024-09-12T09:08:09Z</time>
      </trkpt>
      <trkpt lat="51.124955965206027" lon="11.173660978674889">
        <ele>228.44999999999999</ele>
        <time>2024-09-12T09:08:11Z</time>
      </trkpt>
      <trkpt lat="51.125087980180979" lon="11.174141010269523">
        <ele>228.93000000000001</ele>
        <time>2024-09-12T09:08:13Z</time>
      </trkpt>
      <trkpt lat="51.125166015699506" lon="11.174605032429099">
        <ele>229.41</ele>
        <time>2024-09-12T09:08:15Z</time>
      </trkpt>
      <trkpt lat="51.125200968235731" lon="11.174819022417068">
        <ele>229.88999999999999</ele>
        <time>2024-09-12T09:08:16Z</time>
      </trkpt>
      <trkpt lat="51.125256037339568" lon="11.174994958564639">
        <ele>230.37</ele>
        <time>2024-09-12T09:08:17Z</time>
      </trkpt>
      <trkpt lat="51.125344969332218" lon="11.175135020166636">
        <ele>230.84999999999999</ele>
        <time>2024-09-12T09:08:18Z</time>
      </trkpt>
      <trkpt lat="51.125441025942564" lon="11.175284972414374">
        <ele>231.33000000000001</ele>
        <time>2024-09-12T09:08:19Z</time>
      </trkpt>
      <trkpt lat="51.125543033704162" lon="11.175426039844751">
        <ele>231.33000000000001</ele>
        <time>2024-09-12T09:08:20Z</time>
      </trkpt>
      <trkpt lat="51.126749021932483" lon="11.176127018406987">
        <ele>231.81</ele>
        <time>2024-09-12T09:08:27Z</time>
      </trkpt>
      <trkpt lat="51.129198968410492" lon="11.177503997460008">
        <ele>230.37</ele>
        <time>2024-09-12T09:08:38Z</time>
      </trkpt>
      <trkpt lat="51.133178025484085" lon="11.179748000577092">
        <ele>227.00999999999999</ele>
        <time>2024-09-12T09:08:53Z</time>
      </trkpt>
      <trkpt lat="51.137539967894554" lon="11.182188978418708">
        <ele>227.49000000000001</ele>
        <time>2024-09-12T09:09:12Z</time>
      </trkpt>
      <trkpt lat="51.140449997037649" lon="11.183807021006942">
        <ele>216.43000000000001</ele>
        <time>2024-09-12T09:09:24Z</time>
      </trkpt>
      <trkpt lat="51.143977018073201" lon="11.1857829708606">
        <ele>195.77000000000001</ele>
        <time>2024-09-12T09:09:40Z</time>
      </trkpt>
      <trkpt lat="51.148127987980843" lon="11.188114983960986">
        <ele>170.77000000000001</ele>
        <time>2024-09-12T09:09:59Z</time>
      </trkpt>
      <trkpt lat="51.149684004485607" lon="11.188987037166953">
        <ele>161.16</ele>
        <time>2024-09-12T09:10:06Z</time>
      </trkpt>
      <trkpt lat="51.150809023529291" lon="11.18960302323103">
        <ele>153.47</ele>
        <time>2024-09-12T09:10:15Z</time>
      </trkpt>
      <trkpt lat="51.151686022058129" lon="11.190080037340522">
        <ele>149.62</ele>
        <time>2024-09-12T09:10:23Z</time>
      </trkpt>
      <trkpt lat="51.15183899179101" lon="11.190167041495442">
        <ele>149.62</ele>
        <time>2024-09-12T09:10:24Z</time>
      </trkpt>
      <trkpt lat="51.151893977075815" lon="11.190348006784916">
        <ele>149.62</ele>
        <time>2024-09-12T09:10:25Z</time>
      </trkpt>
      <trkpt lat="51.151921972632408" lon="11.190394023433328">
        <ele>149.62</ele>
        <time>2024-09-12T09:10:26Z</time>
      </trkpt>
      <trkpt lat="51.151958014816046" lon="11.190454959869385">
        <ele>149.62</ele>
        <time>2024-09-12T09:10:27Z</time>
      </trkpt>
      <trkpt lat="51.152037978172302" lon="11.190439034253359">
        <ele>149.62</ele>
        <time>2024-09-12T09:10:28Z</time>
      </trkpt>
      <trkpt lat="51.152064967900515" lon="11.190434005111456">
        <ele>149.62</ele>
        <time>2024-09-12T09:10:29Z</time>
      </trkpt>
      <trkpt lat="51.152107967063785" lon="11.190325962379575">
        <ele>149.13999999999999</ele>
        <time>2024-09-12T09:10:31Z</time>
      </trkpt>
      <trkpt lat="51.152107967063785" lon="11.190256979316473">
        <ele>149.13999999999999</ele>
        <time>2024-09-12T09:10:32Z</time>
      </trkpt>
      <trkpt lat="51.152065973728895" lon="11.189937964081764">
        <ele>148.18000000000001</ele>
        <time>2024-09-12T09:10:34Z</time>
      </trkpt>
      <trkpt lat="51.152095980942249" lon="11.189772002398968">
        <ele>148.66</ele>
        <time>2024-09-12T09:10:35Z</time>
      </trkpt>
      <trkpt lat="51.152494037523866" lon="11.188150020316243">
        <ele>148.66</ele>
        <time>2024-09-12T09:10:42Z</time>
      </trkpt>
      <trkpt lat="51.15308303385973" lon="11.186054041609168">
        <ele>148.18000000000001</ele>
        <time>2024-09-12T09:10:52Z</time>
      </trkpt>
      <trkpt lat="51.153765991330147" lon="11.184200970456004">
        <ele>148.66</ele>
        <time>2024-09-12T09:10:59Z</time>
      </trkpt>
      <trkpt lat="51.154799982905388" lon="11.181565029546618">
        <ele>148.66</ele>
        <time>2024-09-12T09:11:06Z</time>
      </trkpt>
      <trkpt lat="51.155719980597496" lon="11.178761031478643">
        <ele>147.69999999999999</ele>
        <time>2024-09-12T09:11:13Z</time>
      </trkpt>
      <trkpt lat="51.156206969171762" lon="11.176880970597267">
        <ele>145.78</ele>
        <time>2024-09-12T09:11:19Z</time>
      </trkpt>
      <trkpt lat="51.156463036313653" lon="11.176039008423686">
        <ele>145.30000000000001</ele>
        <time>2024-09-12T09:11:23Z</time>
      </trkpt>
      <trkpt lat="51.156882969662547" lon="11.175225963816047">
        <ele>145.30000000000001</ele>
        <time>2024-09-12T09:11:30Z</time>
      </trkpt>
      <trkpt lat="51.156940972432494" lon="11.175133008509874">
        <ele>146.25999999999999</ele>
        <time>2024-09-12T09:11:38Z</time>
      </trkpt>
      <trkpt lat="51.157100982964039" lon="11.174913989380002">
        <ele>147.69999999999999</ele>
        <time>2024-09-12T09:11:46Z</time>
      </trkpt>
      <trkpt lat="51.157205002382398" lon="11.174747021868825">
        <ele>148.18000000000001</ele>
        <time>2024-09-12T09:11:49Z</time>
      </trkpt>
      <trkpt lat="51.157240960747004" lon="11.174686001613736">
        <ele>148.18000000000001</ele>
        <time>2024-09-12T09:11:50Z</time>
      </trkpt>
      <trkpt lat="51.15727499127388" lon="11.174626993015409">
        <ele>148.18000000000001</ele>
        <time>2024-09-12T09:11:51Z</time>
      </trkpt>
      <trkpt lat="51.1572549585253" lon="11.174577958881855">
        <ele>148.66</ele>
        <time>2024-09-12T09:11:52Z</time>
      </trkpt>
      <trkpt lat="51.157221011817455" lon="11.174519034102559">
        <ele>148.66</ele>
        <time>2024-09-12T09:11:53Z</time>
      </trkpt>
      <trkpt lat="51.156685994938016" lon="11.173532987013459">
        <ele>152.99000000000001</ele>
        <time>2024-09-12T09:12:03Z</time>
      </trkpt>
      <trkpt lat="51.156147038564086" lon="11.172247035428882">
        <ele>158.27000000000001</ele>
        <time>2024-09-12T09:12:13Z</time>
      </trkpt>
      <trkpt lat="51.155730960890651" lon="11.170554980635643">
        <ele>162.12</ele>
        <time>2024-09-12T09:12:24Z</time>
      </trkpt>
      <trkpt lat="51.15549098700285" lon="11.168732000514865">
        <ele>161.16</ele>
        <time>2024-09-12T09:12:34Z</time>
      </trkpt>
      <trkpt lat="51.155638005584478" lon="11.166311977431178">
        <ele>155.87</ele>
        <time>2024-09-12T09:12:43Z</time>
      </trkpt>
      <trkpt lat="51.156293973326683" lon="11.163722975179553">
        <ele>150.58000000000001</ele>
        <time>2024-09-12T09:12:52Z</time>
      </trkpt>
      <trkpt lat="51.157530974596739" lon="11.161131961271167">
        <ele>149.62</ele>
        <time>2024-09-12T09:13:02Z</time>
      </trkpt>
      <trkpt lat="51.158898985013366" lon="11.158482022583485">
        <ele>147.69999999999999</ele>
        <time>2024-09-12T09:13:14Z</time>
      </trkpt>
      <trkpt lat="51.159255970269442" lon="11.157827982679009">
        <ele>147.22</ele>
        <time>2024-09-12T09:13:20Z</time>
      </trkpt>
      <trkpt lat="51.159352026879787" lon="11.157641988247633">
        <ele>146.25999999999999</ele>
        <time>2024-09-12T09:13:27Z</time>
      </trkpt>
      <trkpt lat="51.159695014357567" lon="11.156989959999919">
        <ele>146.25999999999999</ele>
        <time>2024-09-12T09:13:33Z</time>
      </trkpt>
      <trkpt lat="51.160527002066374" lon="11.155397985130548">
        <ele>146.25999999999999</ele>
        <time>2024-09-12T09:13:42Z</time>
      </trkpt>
      <trkpt lat="51.161656966432929" lon="11.153357997536659">
        <ele>147.22</ele>
        <time>2024-09-12T09:13:52Z</time>
      </trkpt>
      <trkpt lat="51.163447005674243" lon="11.150765977799892">
        <ele>148.18000000000001</ele>
        <time>2024-09-12T09:14:02Z</time>
      </trkpt>
      <trkpt lat="51.165924025699496" lon="11.147826025262475">
        <ele>151.53999999999999</ele>
        <time>2024-09-12T09:14:16Z</time>
      </trkpt>
      <trkpt lat="51.168241035193205" lon="11.145129986107349">
        <ele>151.53999999999999</ele>
        <time>2024-09-12T09:14:29Z</time>
      </trkpt>
      <trkpt lat="51.170198963955045" lon="11.142839966341853">
        <ele>145.30000000000001</ele>
        <time>2024-09-12T09:14:41Z</time>
      </trkpt>
      <trkpt lat="51.171973999589682" lon="11.140798972919583">
        <ele>146.25999999999999</ele>
        <time>2024-09-12T09:14:52Z</time>
      </trkpt>
      <trkpt lat="51.173375034704804" lon="11.138601992279291">
        <ele>150.58000000000001</ele>
        <time>2024-09-12T09:15:02Z</time>
      </trkpt>
      <trkpt lat="51.174165029078722" lon="11.136414986103773">
        <ele>150.09999999999999</ele>
        <time>2024-09-12T09:15:10Z</time>
      </trkpt>
      <trkpt lat="51.174501981586218" lon="11.133853979408741">
        <ele>144.81999999999999</ele>
        <time>2024-09-12T09:15:18Z</time>
      </trkpt>
      <trkpt lat="51.174434004351497" lon="11.131023997440934">
        <ele>141.93000000000001</ele>
        <time>2024-09-12T09:15:27Z</time>
      </trkpt>
      <trkpt lat="51.174048017710447" lon="11.127687999978662">
        <ele>140.49000000000001</ele>
        <time>2024-09-12T09:15:38Z</time>
      </trkpt>
      <trkpt lat="51.173808965831995" lon="11.125714983791113">
        <ele>140.49000000000001</ele>
        <time>2024-09-12T09:15:44Z</time>
      </trkpt>
      <trkpt lat="51.173524986952543" lon="11.12323603592813">
        <ele>140.97</ele>
        <time>2024-09-12T09:15:50Z</time>
      </trkpt>
      <trkpt lat="51.173330023884773" lon="11.121618999168277">
        <ele>142.88999999999999</ele>
        <time>2024-09-12T09:15:57Z</time>
      </trkpt>
      <trkpt lat="51.173257017508149" lon="11.121472986415029">
        <ele>144.34</ele>
        <time>2024-09-12T09:15:59Z</time>
      </trkpt>
      <trkpt lat="51.173160038888454" lon="11.121361004188657">
        <ele>145.78</ele>
        <time>2024-09-12T09:16:01Z</time>
      </trkpt>
      <trkpt lat="51.172238029539585" lon="11.121332002803683">
        <ele>148.18000000000001</ele>
        <time>2024-09-12T09:16:08Z</time>
      </trkpt>
      <trkpt lat="51.172126969322562" lon="11.12128003500402">
        <ele>148.66</ele>
        <time>2024-09-12T09:16:09Z</time>
      </trkpt>
      <trkpt lat="51.172022027894855" lon="11.121231000870466">
        <ele>148.66</ele>
        <time>2024-09-12T09:16:10Z</time>
      </trkpt>
      <trkpt lat="51.171922031790018" lon="11.121176015585661">
        <ele>149.13999999999999</ele>
        <time>2024-09-12T09:16:11Z</time>
      </trkpt>
      <trkpt lat="51.171834021806717" lon="11.12108901143074">
        <ele>149.13999999999999</ele>
        <time>2024-09-12T09:16:12Z</time>
      </trkpt>
      <trkpt lat="51.171748023480177" lon="11.12100200727582">
        <ele>149.62</ele>
        <time>2024-09-12T09:16:13Z</time>
      </trkpt>
      <trkpt lat="51.170581011101604" lon="11.119750002399087">
        <ele>145.30000000000001</ele>
        <time>2024-09-12T09:16:26Z</time>
      </trkpt>
      <trkpt lat="51.169550037011504" lon="11.118653984740376">
        <ele>143.37</ele>
        <time>2024-09-12T09:16:37Z</time>
      </trkpt>
      <trkpt lat="51.168816033750772" lon="11.117757959291339">
        <ele>143.37</ele>
        <time>2024-09-12T09:16:45Z</time>
      </trkpt>
      <trkpt lat="51.167818000540137" lon="11.116504026576877">
        <ele>142.88999999999999</ele>
        <time>2024-09-12T09:16:56Z</time>
      </trkpt>
      <trkpt lat="51.167742982506752" lon="11.116365976631641">
        <ele>142.88999999999999</ele>
        <time>2024-09-12T09:16:57Z</time>
      </trkpt>
      <trkpt lat="51.167665030807257" lon="11.11623203381896">
        <ele>142.88999999999999</ele>
        <time>2024-09-12T09:16:58Z</time>
      </trkpt>
      <trkpt lat="51.167360013350844" lon="11.115669021382928">
        <ele>142.88999999999999</ele>
        <time>2024-09-12T09:17:03Z</time>
      </trkpt>
      <trkpt lat="51.166464993730187" lon="11.114347027614713">
        <ele>142.41</ele>
        <time>2024-09-12T09:17:13Z</time>
      </trkpt>
      <trkpt lat="51.166161987930536" lon="11.114053996279836">
        <ele>142.88999999999999</ele>
        <time>2024-09-12T09:17:17Z</time>
      </trkpt>
      <trkpt lat="51.166071966290474" lon="11.114008985459805">
        <ele>142.88999999999999</ele>
        <time>2024-09-12T09:17:18Z</time>
      </trkpt>
      <trkpt lat="51.165980016812682" lon="11.113989036530256">
        <ele>143.37</ele>
        <time>2024-09-12T09:17:20Z</time>
      </trkpt>
      <trkpt lat="51.165269985795021" lon="11.114001022651792">
        <ele>145.78</ele>
        <time>2024-09-12T09:17:26Z</time>
      </trkpt>
      <trkpt lat="51.165153980255127" lon="11.114001022651792">
        <ele>145.78</ele>
        <time>2024-09-12T09:17:28Z</time>
      </trkpt>
      <trkpt lat="51.164981983602047" lon="11.113845035433769">
        <ele>146.25999999999999</ele>
        <time>2024-09-12T09:17:29Z</time>
      </trkpt>
      <trkpt lat="51.164900008589029" lon="11.11376297660172">
        <ele>146.25999999999999</ele>
        <time>2024-09-12T09:17:30Z</time>
      </trkpt>
      <trkpt lat="51.164833037182689" lon="11.113679995760322">
        <ele>146.74000000000001</ele>
        <time>2024-09-12T09:17:31Z</time>
      </trkpt>
      <trkpt lat="51.164777968078852" lon="11.113516967743635">
        <ele>147.22</ele>
        <time>2024-09-12T09:17:32Z</time>
      </trkpt>
      <trkpt lat="51.16472901776433" lon="11.113385958597064">
        <ele>147.69999999999999</ele>
        <time>2024-09-12T09:17:33Z</time>
      </trkpt>
      <trkpt lat="51.164679983630776" lon="11.113254027441144">
        <ele>148.18000000000001</ele>
        <time>2024-09-12T09:17:34Z</time>
      </trkpt>
      <trkpt lat="51.164631033316255" lon="11.113098040223122">
        <ele>148.66</ele>
        <time>2024-09-12T09:17:35Z</time>
      </trkpt>
      <trkpt lat="51.164168016985059" lon="11.111212028190494">
        <ele>152.50999999999999</ele>
        <time>2024-09-12T09:17:46Z</time>
      </trkpt>
      <trkpt lat="51.163799967616796" lon="11.109825996682048">
        <ele>152.99000000000001</ele>
        <time>2024-09-12T09:17:55Z</time>
      </trkpt>
      <trkpt lat="51.163267968222499" lon="11.107782991603017">
        <ele>150.09999999999999</ele>
        <time>2024-09-12T09:18:06Z</time>
      </trkpt>
      <trkpt lat="51.162898996844888" lon="11.106416992843151">
        <ele>149.13999999999999</ele>
        <time>2024-09-12T09:18:14Z</time>
      </trkpt>
      <trkpt lat="51.162713002413511" lon="11.105743004009128">
        <ele>148.66</ele>
        <time>2024-09-12T09:18:18Z</time>
      </trkpt>
      <trkpt lat="51.16240999661386" lon="11.104293018579483">
        <ele>148.18000000000001</ele>
        <time>2024-09-12T09:18:26Z</time>
      </trkpt>
      <trkpt lat="51.162321986630559" lon="11.103357011452317">
        <ele>147.22</ele>
        <time>2024-09-12T09:18:30Z</time>
      </trkpt>
      <trkpt lat="51.162321986630559" lon="11.103130029514432">
        <ele>147.22</ele>
        <time>2024-09-12T09:18:31Z</time>
      </trkpt>
      <trkpt lat="51.162321986630559" lon="11.102044992148876">
        <ele>146.25999999999999</ele>
        <time>2024-09-12T09:18:37Z</time>
      </trkpt>
      <trkpt lat="51.162321986630559" lon="11.101872995495796">
        <ele>146.25999999999999</ele>
        <time>2024-09-12T09:18:38Z</time>
      </trkpt>
      <trkpt lat="51.16238703019917" lon="11.101705022156239">
        <ele>145.78</ele>
        <time>2024-09-12T09:18:39Z</time>
      </trkpt>
      <trkpt lat="51.162437992170453" lon="11.101604020223022">
        <ele>145.78</ele>
        <time>2024-09-12T09:18:40Z</time>
      </trkpt>
      <trkpt lat="51.162591967731714" lon="11.10134300775826">
        <ele>145.78</ele>
        <time>2024-09-12T09:18:41Z</time>
      </trkpt>
      <trkpt lat="51.162593979388475" lon="11.10134300775826">
        <ele>145.78</ele>
        <time>2024-09-12T09:18:42Z</time>
      </trkpt>
      <trkpt lat="51.162707973271608" lon="11.101277964189649">
        <ele>146.25999999999999</ele>
        <time>2024-09-12T09:18:43Z</time>
      </trkpt>
      <trkpt lat="51.163964001461864" lon="11.100474977865815">
        <ele>146.25999999999999</ele>
        <time>2024-09-12T09:18:51Z</time>
      </trkpt>
      <trkpt lat="51.166569013148546" lon="11.098690973594785">
        <ele>144.81999999999999</ele>
        <time>2024-09-12T09:19:03Z</time>
      </trkpt>
      <trkpt lat="51.16956596262753" lon="11.096640005707741">
        <ele>144.81999999999999</ele>
        <time>2024-09-12T09:19:17Z</time>
      </trkpt>
      <trkpt lat="51.172459982335567" lon="11.094672018662095">
        <ele>148.66</ele>
        <time>2024-09-12T09:19:31Z</time>
      </trkpt>
      <trkpt lat="51.172760976478457" lon="11.094401031732559">
        <ele>151.06</ele>
        <time>2024-09-12T09:19:34Z</time>
      </trkpt>
      <trkpt lat="51.1730039678514" lon="11.094074975699186">
        <ele>152.03</ele>
        <time>2024-09-12T09:19:36Z</time>
      </trkpt>
      <trkpt lat="51.17317202500999" lon="11.093621011823416">
        <ele>152.99000000000001</ele>
        <time>2024-09-12T09:19:37Z</time>
      </trkpt>
      <trkpt lat="51.173217035830021" lon="11.093362011015415">
        <ele>153.94999999999999</ele>
        <time>2024-09-12T09:19:38Z</time>
      </trkpt>
      <trkpt lat="51.173243019729853" lon="11.093083983287215">
        <ele>154.91</ele>
        <time>2024-09-12T09:19:39Z</time>
      </trkpt>
      <trkpt lat="51.17321896366775" lon="11.092810984700918">
        <ele>155.38999999999999</ele>
        <time>2024-09-12T09:19:40Z</time>
      </trkpt>
      <trkpt lat="51.173186022788286" lon="11.092521976679564">
        <ele>155.87</ele>
        <time>2024-09-12T09:19:41Z</time>
      </trkpt>
      <trkpt lat="51.173134976997972" lon="11.09223498031497">
        <ele>156.83000000000001</ele>
        <time>2024-09-12T09:19:42Z</time>
      </trkpt>
      <trkpt lat="51.172801963984966" lon="11.090275961905718">
        <ele>162.59999999999999</ele>
        <time>2024-09-12T09:19:49Z</time>
      </trkpt>
      <trkpt lat="51.172650000080466" lon="11.087727025151253">
        <ele>167.88999999999999</ele>
        <time>2024-09-12T09:19:58Z</time>
      </trkpt>
      <trkpt lat="51.172495018690825" lon="11.085223015397787">
        <ele>172.69</ele>
        <time>2024-09-12T09:20:06Z</time>
      </trkpt>
      <trkpt lat="51.1724410392344" lon="11.083011031150818">
        <ele>178.46000000000001</ele>
        <time>2024-09-12T09:20:14Z</time>
      </trkpt>
      <trkpt lat="51.172454031184316" lon="11.082774996757507">
        <ele>178.94</ele>
        <time>2024-09-12T09:20:15Z</time>
      </trkpt>
      <trkpt lat="51.17252703756094" lon="11.082337964326143">
        <ele>179.90000000000001</ele>
        <time>2024-09-12T09:20:17Z</time>
      </trkpt>
      <trkpt lat="51.1725930031389" lon="11.082146018743515">
        <ele>179.90000000000001</ele>
        <time>2024-09-12T09:20:18Z</time>
      </trkpt>
      <trkpt lat="51.17265603505075" lon="11.08196304179728">
        <ele>179.90000000000001</ele>
        <time>2024-09-12T09:20:19Z</time>
      </trkpt>
      <trkpt lat="51.172719988971949" lon="11.081798002123833">
        <ele>180.38</ele>
        <time>2024-09-12T09:20:20Z</time>
      </trkpt>
      <trkpt lat="51.172821996733546" lon="11.081660035997629">
        <ele>180.38</ele>
        <time>2024-09-12T09:20:21Z</time>
      </trkpt>
      <trkpt lat="51.172924004495144" lon="11.081521986052394">
        <ele>180.38</ele>
        <time>2024-09-12T09:20:22Z</time>
      </trkpt>
      <trkpt lat="51.173025006428361" lon="11.081390976905823">
        <ele>180.38</ele>
        <time>2024-09-12T09:20:23Z</time>
      </trkpt>
      <trkpt lat="51.174449007958174" lon="11.079986002296209">
        <ele>187.11000000000001</ele>
        <time>2024-09-12T09:20:34Z</time>
      </trkpt>
      <trkpt lat="51.175974011421204" lon="11.078549008816481">
        <ele>189.03999999999999</ele>
        <time>2024-09-12T09:20:43Z</time>
      </trkpt>
      <trkpt lat="51.176711032167077" lon="11.077963029965758">
        <ele>188.56</ele>
        <time>2024-09-12T09:20:47Z</time>
      </trkpt>
      <trkpt lat="51.176915969699621" lon="11.077883988618851">
        <ele>188.08000000000001</ele>
        <time>2024-09-12T09:20:48Z</time>
      </trkpt>
      <trkpt lat="51.179603040218353" lon="11.0768729634583">
        <ele>180.38</ele>
        <time>2024-09-12T09:21:00Z</time>
      </trkpt>
      <trkpt lat="51.182307964190841" lon="11.075902003794909">
        <ele>172.21000000000001</ele>
        <time>2024-09-12T09:21:11Z</time>
      </trkpt>
      <trkpt lat="51.185761978849769" lon="11.074662990868092">
        <ele>162.12</ele>
        <time>2024-09-12T09:21:25Z</time>
      </trkpt>
      <trkpt lat="51.187769025564194" lon="11.073958994820714">
        <ele>157.31</ele>
        <time>2024-09-12T09:21:35Z</time>
      </trkpt>
      <trkpt lat="51.188789019361138" lon="11.0735849943012">
        <ele>154.91</ele>
        <time>2024-09-12T09:21:42Z</time>
      </trkpt>
      <trkpt lat="51.190040018409491" lon="11.073143016546965">
        <ele>151.53999999999999</ele>
        <time>2024-09-12T09:21:53Z</time>
      </trkpt>
      <trkpt lat="51.191659988835454" lon="11.072555026039481">
        <ele>150.58000000000001</ele>
        <time>2024-09-12T09:22:04Z</time>
      </trkpt>
      <trkpt lat="51.19349998421967" lon="11.071794033050537">
        <ele>148.66</ele>
        <time>2024-09-12T09:22:18Z</time>
      </trkpt>
      <trkpt lat="51.19444202631712" lon="11.071316013112664">
        <ele>148.66</ele>
        <time>2024-09-12T09:22:27Z</time>
      </trkpt>
      <trkpt lat="51.19453095830977" lon="11.071209982037544">
        <ele>148.66</ele>
        <time>2024-09-12T09:22:28Z</time>
      </trkpt>
      <trkpt lat="51.194625003263354" lon="11.071096993982792">
        <ele>148.66</ele>
        <time>2024-09-12T09:22:29Z</time>
      </trkpt>
      <trkpt lat="51.194781996309757" lon="11.070822989568114">
        <ele>148.18000000000001</ele>
        <time>2024-09-12T09:22:31Z</time>
      </trkpt>
      <trkpt lat="51.195360012352467" lon="11.069018030539155">
        <ele>149.13999999999999</ele>
        <time>2024-09-12T09:22:42Z</time>
      </trkpt>
      <trkpt lat="51.195515999570489" lon="11.068456023931503">
        <ele>150.09999999999999</ele>
        <time>2024-09-12T09:22:48Z</time>
      </trkpt>
      <trkpt lat="51.195515999570489" lon="11.068456023931503">
        <ele>150.09999999999999</ele>
        <time>2024-09-12T09:23:07Z</time>
      </trkpt>
      <trkpt lat="51.195601997897029" lon="11.068136002868414">
        <ele>149.62</ele>
        <time>2024-09-12T09:23:23Z</time>
      </trkpt>
      <trkpt lat="51.195620018988848" lon="11.068070037290454">
        <ele>149.62</ele>
        <time>2024-09-12T09:23:24Z</time>
      </trkpt>
      <trkpt lat="51.195638040080667" lon="11.068003987893462">
        <ele>149.62</ele>
        <time>2024-09-12T09:23:25Z</time>
      </trkpt>
      <trkpt lat="51.19575496762991" lon="11.067953025922179">
        <ele>149.13999999999999</ele>
        <time>2024-09-12T09:23:27Z</time>
      </trkpt>
      <trkpt lat="51.195810036733747" lon="11.067941961809993">
        <ele>148.66</ele>
        <time>2024-09-12T09:23:28Z</time>
      </trkpt>
      <trkpt lat="51.196499029174447" lon="11.06778203509748">
        <ele>145.30000000000001</ele>
        <time>2024-09-12T09:23:37Z</time>
      </trkpt>
      <trkpt lat="51.196981994435191" lon="11.067474000155926">
        <ele>144.34</ele>
        <time>2024-09-12T09:23:43Z</time>
      </trkpt>
      <trkpt lat="51.197057012468576" lon="11.067385990172625">
        <ele>144.34</ele>
        <time>2024-09-12T09:23:44Z</time>
      </trkpt>
      <trkpt lat="51.197191039100289" lon="11.067216005176306">
        <ele>144.34</ele>
        <time>2024-09-12T09:23:45Z</time>
      </trkpt>
      <trkpt lat="51.197534026578069" lon="11.066784001886845">
        <ele>142.41</ele>
        <time>2024-09-12T09:23:54Z</time>
      </trkpt>
      <trkpt lat="51.197855975478888" lon="11.066301036626101">
        <ele>142.41</ele>
        <time>2024-09-12T09:23:58Z</time>
      </trkpt>
      <trkpt lat="51.197910038754344" lon="11.066232975572348">
        <ele>142.88999999999999</ele>
        <time>2024-09-12T09:23:59Z</time>
      </trkpt>
      <trkpt lat="51.197999976575375" lon="11.066161980852485">
        <ele>143.37</ele>
        <time>2024-09-12T09:24:01Z</time>
      </trkpt>
      <trkpt lat="51.198448995128274" lon="11.065901974216104">
        <ele>144.81999999999999</ele>
        <time>2024-09-12T09:24:05Z</time>
      </trkpt>
      <trkpt lat="51.198537005111575" lon="11.065859980881214">
        <ele>145.30000000000001</ele>
        <time>2024-09-12T09:24:06Z</time>
      </trkpt>
      <trkpt lat="51.199649032205343" lon="11.065369974821806">
        <ele>151.53999999999999</ele>
        <time>2024-09-12T09:24:17Z</time>
      </trkpt>
      <trkpt lat="51.200556037947536" lon="11.064867982640862">
        <ele>159.24000000000001</ele>
        <time>2024-09-12T09:24:28Z</time>
      </trkpt>
      <trkpt lat="51.200694004073739" lon="11.064791036769748">
        <ele>159.72</ele>
        <time>2024-09-12T09:24:29Z</time>
      </trkpt>
      <trkpt lat="51.200795006006956" lon="11.064719958230853">
        <ele>160.68000000000001</ele>
        <time>2024-09-12T09:24:31Z</time>
      </trkpt>
      <trkpt lat="51.200786959379911" lon="11.064627002924681">
        <ele>160.68000000000001</ele>
        <time>2024-09-12T09:24:32Z</time>
      </trkpt>
      <trkpt lat="51.20073800906539" lon="11.064058961346745">
        <ele>162.59999999999999</ele>
        <time>2024-09-12T09:24:38Z</time>
      </trkpt>
      <trkpt lat="51.200731974095106" lon="11.063991989940405">
        <ele>162.59999999999999</ele>
        <time>2024-09-12T09:24:39Z</time>
      </trkpt>
      <trkpt lat="51.200882010161877" lon="11.063898028805852">
        <ele>162.12</ele>
        <time>2024-09-12T09:24:41Z</time>
      </trkpt>
      <trkpt lat="51.20089097879827" lon="11.063887970522046">
        <ele>161.63999999999999</ele>
        <time>2024-09-12T09:24:42Z</time>
      </trkpt>
      <trkpt lat="51.200945964083076" lon="11.063828961923718">
        <ele>161.16</ele>
        <time>2024-09-12T09:24:43Z</time>
      </trkpt>
      <trkpt lat="51.201000027358532" lon="11.063770037144423">
        <ele>161.16</ele>
        <time>2024-09-12T09:24:44Z</time>
      </trkpt>
      <trkpt lat="51.201260033994913" lon="11.063411040231586">
        <ele>159.72</ele>
        <time>2024-09-12T09:24:48Z</time>
      </trkpt>
      <trkpt lat="51.201307978481054" lon="11.063322024419904">
        <ele>159.24000000000001</ele>
        <time>2024-09-12T09:24:50Z</time>
      </trkpt>
      <trkpt lat="51.201566979289055" lon="11.06282196007669">
        <ele>156.34999999999999</ele>
        <time>2024-09-12T09:24:56Z</time>
      </trkpt>
      <trkpt lat="51.201633028686047" lon="11.062695980072021">
        <ele>155.38999999999999</ele>
        <time>2024-09-12T09:24:58Z</time>
      </trkpt>
      <trkpt lat="51.201626993715763" lon="11.062672007828951">
        <ele>153.94999999999999</ele>
        <time>2024-09-12T09:25:02Z</time>
      </trkpt>
      <trkpt lat="51.20162095874548" lon="11.062645018100739">
        <ele>153.47</ele>
        <time>2024-09-12T09:25:03Z</time>
      </trkpt>
      <trkpt lat="51.201612995937467" lon="11.062611993402243">
        <ele>152.99000000000001</ele>
        <time>2024-09-12T09:25:04Z</time>
      </trkpt>
      <trkpt lat="51.201605033129454" lon="11.062575029209256">
        <ele>152.50999999999999</ele>
        <time>2024-09-12T09:25:05Z</time>
      </trkpt>
      <trkpt lat="51.201595980674028" lon="11.062538987025619">
        <ele>152.50999999999999</ele>
        <time>2024-09-12T09:25:06Z</time>
      </trkpt>
      <trkpt lat="51.201590029522777" lon="11.062510991469026">
        <ele>152.03</ele>
        <time>2024-09-12T09:25:07Z</time>
      </trkpt>
      <trkpt lat="51.201633028686047" lon="11.062695980072021">
        <ele>151.53999999999999</ele>
        <time>2024-09-12T09:25:09Z</time>
      </trkpt>
      <trkpt lat="51.201633028686047" lon="11.062695980072021">
        <ele>151.06</ele>
        <time>2024-09-12T09:25:21Z</time>
      </trkpt>
      <trkpt lat="51.201633028686047" lon="11.062695980072021">
        <ele>150.09999999999999</ele>
        <time>2024-09-12T09:26:09Z</time>
      </trkpt>
      <trkpt lat="51.201633028686047" lon="11.062695980072021">
        <ele>150.09999999999999</ele>
        <time>2024-09-12T09:26:27Z</time>
      </trkpt>
      <trkpt lat="51.20131703093648" lon="11.062839981168509">
        <ele>161.16</ele>
        <time>2024-09-12T09:51:52Z</time>
      </trkpt>
      <trkpt lat="51.201482992619276" lon="11.062578968703747">
        <ele>152.99000000000001</ele>
        <time>2024-09-12T09:52:30Z</time>
      </trkpt>
      <trkpt lat="51.201589023694396" lon="11.0627799667418">
        <ele>152.50999999999999</ele>
        <time>2024-09-12T09:52:45Z</time>
      </trkpt>
      <trkpt lat="51.201574020087719" lon="11.062807962298393">
        <ele>152.50999999999999</ele>
        <time>2024-09-12T09:52:46Z</time>
      </trkpt>
      <trkpt lat="51.201546024531126" lon="11.06286303140223">
        <ele>152.50999999999999</ele>
        <time>2024-09-12T09:52:47Z</time>
      </trkpt>
      <trkpt lat="51.201505037024617" lon="11.062941988930106">
        <ele>152.99000000000001</ele>
        <time>2024-09-12T09:52:48Z</time>
      </trkpt>
      <trkpt lat="51.201465977355838" lon="11.063018012791872">
        <ele>152.99000000000001</ele>
        <time>2024-09-12T09:52:49Z</time>
      </trkpt>
      <trkpt lat="51.201389031484723" lon="11.06316695921123">
        <ele>152.99000000000001</ele>
        <time>2024-09-12T09:52:52Z</time>
      </trkpt>
      <trkpt lat="51.201332034543157" lon="11.063275001943111">
        <ele>152.99000000000001</ele>
        <time>2024-09-12T09:52:53Z</time>
      </trkpt>
      <trkpt lat="51.201333040371537" lon="11.063276007771492">
        <ele>153.47</ele>
        <time>2024-09-12T09:53:00Z</time>
      </trkpt>
      <trkpt lat="51.201342009007931" lon="11.063290005549788">
        <ele>152.99000000000001</ele>
        <time>2024-09-12T09:53:01Z</time>
      </trkpt>
      <trkpt lat="51.201443010941148" lon="11.063063023611903">
        <ele>152.99000000000001</ele>
        <time>2024-09-12T09:53:02Z</time>
      </trkpt>
      <trkpt lat="51.201610984280705" lon="11.062737973406911">
        <ele>152.03</ele>
        <time>2024-09-12T09:53:05Z</time>
      </trkpt>
      <trkpt lat="51.201696982607245" lon="11.06264996342361">
        <ele>151.53999999999999</ele>
        <time>2024-09-12T09:53:06Z</time>
      </trkpt>
      <trkpt lat="51.201780969277024" lon="11.062590032815933">
        <ele>151.06</ele>
        <time>2024-09-12T09:53:07Z</time>
      </trkpt>
      <trkpt lat="51.201874008402228" lon="11.062522977590561">
        <ele>151.53999999999999</ele>
        <time>2024-09-12T09:53:08Z</time>
      </trkpt>
      <trkpt lat="51.20198498480022" lon="11.062467992305756">
        <ele>151.06</ele>
        <time>2024-09-12T09:53:09Z</time>
      </trkpt>
      <trkpt lat="51.202093027532101" lon="11.062439996749163">
        <ele>151.53999999999999</ele>
        <time>2024-09-12T09:53:10Z</time>
      </trkpt>
      <trkpt lat="51.202204003930092" lon="11.062410995364189">
        <ele>151.53999999999999</ele>
        <time>2024-09-12T09:53:11Z</time>
      </trkpt>
      <trkpt lat="51.203208994120359" lon="11.062192982062697">
        <ele>153.94999999999999</ele>
        <time>2024-09-12T09:53:20Z</time>
      </trkpt>
      <trkpt lat="51.203331034630537" lon="11.062190970405936">
        <ele>154.43000000000001</ele>
        <time>2024-09-12T09:53:21Z</time>
      </trkpt>
      <trkpt lat="51.203443016856909" lon="11.062236987054348">
        <ele>154.91</ele>
        <time>2024-09-12T09:53:22Z</time>
      </trkpt>
      <trkpt lat="51.203558016568422" lon="11.06228400953114">
        <ele>155.87</ele>
        <time>2024-09-12T09:53:23Z</time>
      </trkpt>
      <trkpt lat="51.203677039593458" lon="11.062335977330804">
        <ele>156.34999999999999</ele>
        <time>2024-09-12T09:53:24Z</time>
      </trkpt>
      <trkpt lat="51.203782986849546" lon="11.062423987314105">
        <ele>156.83000000000001</ele>
        <time>2024-09-12T09:53:25Z</time>
      </trkpt>
      <trkpt lat="51.203884994611144" lon="11.062509985640645">
        <ele>157.78999999999999</ele>
        <time>2024-09-12T09:53:26Z</time>
      </trkpt>
      <trkpt lat="51.203979039564729" lon="11.0626280028373">
        <ele>158.27000000000001</ele>
        <time>2024-09-12T09:53:27Z</time>
      </trkpt>
      <trkpt lat="51.204061014577746" lon="11.062763035297394">
        <ele>159.24000000000001</ele>
        <time>2024-09-12T09:53:28Z</time>
      </trkpt>
      <trkpt lat="51.204898031428456" lon="11.064355010166764">
        <ele>164.03999999999999</ele>
        <time>2024-09-12T09:53:39Z</time>
      </trkpt>
      <trkpt lat="51.205864967778325" lon="11.06617103330791">
        <ele>165.96000000000001</ele>
        <time>2024-09-12T09:53:49Z</time>
      </trkpt>
      <trkpt lat="51.206276016309857" lon="11.066861031576991">
        <ele>165.96000000000001</ele>
        <time>2024-09-12T09:53:53Z</time>
      </trkpt>
      <trkpt lat="51.207661963999271" lon="11.068663978949189">
        <ele>161.16</ele>
        <time>2024-09-12T09:54:04Z</time>
      </trkpt>
      <trkpt lat="51.209199959412217" lon="11.070634983479977">
        <ele>152.99000000000001</ele>
        <time>2024-09-12T09:54:14Z</time>
      </trkpt>
      <trkpt lat="51.210890002548695" lon="11.072538010776043">
        <ele>145.78</ele>
        <time>2024-09-12T09:54:22Z</time>
      </trkpt>
      <trkpt lat="51.21238399296999" lon="11.073185009881854">
        <ele>143.84999999999999</ele>
        <time>2024-09-12T09:54:28Z</time>
      </trkpt>
      <trkpt lat="51.214656997472048" lon="11.073323981836438">
        <ele>141.93000000000001</ele>
        <time>2024-09-12T09:54:37Z</time>
      </trkpt>
      <trkpt lat="51.217310959473252" lon="11.073387013748288">
        <ele>141.44999999999999</ele>
        <time>2024-09-12T09:54:48Z</time>
      </trkpt>
      <trkpt lat="51.219263020902872" lon="11.073387013748288">
        <ele>140.49000000000001</ele>
        <time>2024-09-12T09:54:58Z</time>
      </trkpt>
      <trkpt lat="51.220052009448409" lon="11.073323981836438">
        <ele>139.05000000000001</ele>
        <time>2024-09-12T09:55:05Z</time>
      </trkpt>
      <trkpt lat="51.220370018854737" lon="11.07334703207016">
        <ele>138.56999999999999</ele>
        <time>2024-09-12T09:55:08Z</time>
      </trkpt>
      <trkpt lat="51.220574034377933" lon="11.073402017354965">
        <ele>138.09</ele>
        <time>2024-09-12T09:55:10Z</time>
      </trkpt>
      <trkpt lat="51.220788024365902" lon="11.073512993752956">
        <ele>138.09</ele>
        <time>2024-09-12T09:55:12Z</time>
      </trkpt>
      <trkpt lat="51.221397975459695" lon="11.073979027569294">
        <ele>139.53</ele>
        <time>2024-09-12T09:55:18Z</time>
      </trkpt>
      <trkpt lat="51.221496965736151" lon="11.074076006188989">
        <ele>140.49000000000001</ele>
        <time>2024-09-12T09:55:19Z</time>
      </trkpt>
      <trkpt lat="51.221594028174877" lon="11.074169967323542">
        <ele>140.97</ele>
        <time>2024-09-12T09:55:20Z</time>
      </trkpt>
      <trkpt lat="51.222631959244609" lon="11.075265984982252">
        <ele>147.22</ele>
        <time>2024-09-12T09:55:29Z</time>
      </trkpt>
      <trkpt lat="51.22409300878644" lon="11.07691403478384">
        <ele>150.58000000000001</ele>
        <time>2024-09-12T09:55:38Z</time>
      </trkpt>
      <trkpt lat="51.225695963948965" lon="11.078678006306291">
        <ele>150.58000000000001</ele>
        <time>2024-09-12T09:55:46Z</time>
      </trkpt>
      <trkpt lat="51.228674976155162" lon="11.081958012655377">
        <ele>163.56</ele>
        <time>2024-09-12T09:56:00Z</time>
      </trkpt>
      <trkpt lat="51.23154804110527" lon="11.085011959075928">
        <ele>176.06</ele>
        <time>2024-09-12T09:56:13Z</time>
      </trkpt>
      <trkpt lat="51.233141021803021" lon="11.085717966780066">
        <ele>177.97999999999999</ele>
        <time>2024-09-12T09:56:19Z</time>
      </trkpt>
      <trkpt lat="51.236458998173475" lon="11.086523970589042">
        <ele>184.22999999999999</ele>
        <time>2024-09-12T09:56:31Z</time>
      </trkpt>
      <trkpt lat="51.238369988277555" lon="11.08688497915864">
        <ele>187.11000000000001</ele>
        <time>2024-09-12T09:56:38Z</time>
      </trkpt>
      <trkpt lat="51.238620020449162" lon="11.087044989690185">
        <ele>188.08000000000001</ele>
        <time>2024-09-12T09:56:39Z</time>
      </trkpt>
      <trkpt lat="51.24074399471283" lon="11.088670995086432">
        <ele>193.84</ele>
        <time>2024-09-12T09:56:48Z</time>
      </trkpt>
      <trkpt lat="51.242555994540453" lon="11.090369001030922">
        <ele>196.72999999999999</ele>
        <time>2024-09-12T09:56:56Z</time>
      </trkpt>
      <trkpt lat="51.242799991741776" lon="11.090516019612551">
        <ele>197.21000000000001</ele>
        <time>2024-09-12T09:56:57Z</time>
      </trkpt>
      <trkpt lat="51.244252994656563" lon="11.090989010408521">
        <ele>198.65000000000001</ele>
        <time>2024-09-12T09:57:03Z</time>
      </trkpt>
      <trkpt lat="51.246033981442451" lon="11.090910974889994">
        <ele>194.31999999999999</ele>
        <time>2024-09-12T09:57:11Z</time>
      </trkpt>
      <trkpt lat="51.248067012056708" lon="11.090766973793507">
        <ele>183.75</ele>
        <time>2024-09-12T09:57:21Z</time>
      </trkpt>
      <trkpt lat="51.249314993619919" lon="11.090883985161781">
        <ele>180.38</ele>
        <time>2024-09-12T09:57:27Z</time>
      </trkpt>
      <trkpt lat="51.249515991657972" lon="11.090865964069963">
        <ele>180.38</ele>
        <time>2024-09-12T09:57:28Z</time>
      </trkpt>
      <trkpt lat="51.25133603811264" lon="11.090379981324077">
        <ele>188.08000000000001</ele>
        <time>2024-09-12T09:57:38Z</time>
      </trkpt>
      <trkpt lat="51.253288015723228" lon="11.090015033259988">
        <ele>189.03999999999999</ele>
        <time>2024-09-12T09:57:48Z</time>
      </trkpt>
      <trkpt lat="51.254889965057373" lon="11.090252995491028">
        <ele>183.27000000000001</ele>
        <time>2024-09-12T09:57:57Z</time>
      </trkpt>
      <trkpt lat="51.256274990737438" lon="11.09021401964128">
        <ele>176.06</ele>
        <time>2024-09-12T09:58:05Z</time>
      </trkpt>
      <trkpt lat="51.256903968751431" lon="11.090040011331439">
        <ele>172.21000000000001</ele>
        <time>2024-09-12T09:58:09Z</time>
      </trkpt>
      <trkpt lat="51.257980037480593" lon="11.089883018285036">
        <ele>163.56</ele>
        <time>2024-09-12T09:58:18Z</time>
      </trkpt>
      <trkpt lat="51.258241971954703" lon="11.089871032163501">
        <ele>160.68000000000001</ele>
        <time>2024-09-12T09:58:21Z</time>
      </trkpt>
      <trkpt lat="51.259313011541963" lon="11.089824009686708">
        <ele>152.50999999999999</ele>
        <time>2024-09-12T09:58:31Z</time>
      </trkpt>
      <trkpt lat="51.259982977062464" lon="11.089811017736793">
        <ele>149.13999999999999</ele>
        <time>2024-09-12T09:58:38Z</time>
      </trkpt>
      <trkpt lat="51.260178023949265" lon="11.089875977486372">
        <ele>148.66</ele>
        <time>2024-09-12T09:58:40Z</time>
      </trkpt>
      <trkpt lat="51.260266033932567" lon="11.089928029105067">
        <ele>147.69999999999999</ele>
        <time>2024-09-12T09:58:41Z</time>
      </trkpt>
      <trkpt lat="51.260347003117204" lon="11.090016961097717">
        <ele>147.22</ele>
        <time>2024-09-12T09:58:42Z</time>
      </trkpt>
      <trkpt lat="51.260413974523544" lon="11.090112011879683">
        <ele>146.74000000000001</ele>
        <time>2024-09-12T09:58:43Z</time>
      </trkpt>
      <trkpt lat="51.260479018092155" lon="11.090204967185855">
        <ele>146.25999999999999</ele>
        <time>2024-09-12T09:58:44Z</time>
      </trkpt>
      <trkpt lat="51.260540038347244" lon="11.090293982997537">
        <ele>145.78</ele>
        <time>2024-09-12T09:58:45Z</time>
      </trkpt>
      <trkpt lat="51.260668030008674" lon="11.090480983257294">
        <ele>145.78</ele>
        <time>2024-09-12T09:58:47Z</time>
      </trkpt>
      <trkpt lat="51.260727038607001" lon="11.090569999068975">
        <ele>145.78</ele>
        <time>2024-09-12T09:58:48Z</time>
      </trkpt>
      <trkpt lat="51.260868022218347" lon="11.090695979073644">
        <ele>145.30000000000001</ele>
        <time>2024-09-12T09:58:50Z</time>
      </trkpt>
      <trkpt lat="51.260942034423351" lon="11.090763034299016">
        <ele>145.30000000000001</ele>
        <time>2024-09-12T09:58:51Z</time>
      </trkpt>
      <trkpt lat="51.260990984737873" lon="11.090796981006861">
        <ele>144.81999999999999</ele>
        <time>2024-09-12T09:58:52Z</time>
      </trkpt>
      <trkpt lat="51.261233976110816" lon="11.090959003195167">
        <ele>142.88999999999999</ele>
        <time>2024-09-12T09:58:56Z</time>
      </trkpt>
      <trkpt lat="51.261309999972582" lon="11.090977024286985">
        <ele>142.41</ele>
        <time>2024-09-12T09:58:57Z</time>
      </trkpt>
      <trkpt lat="51.261389963328838" lon="11.090974006801844">
        <ele>141.93000000000001</ele>
        <time>2024-09-12T09:58:58Z</time>
      </trkpt>
      <trkpt lat="51.261547962203622" lon="11.09096696600318">
        <ele>140.49000000000001</ele>
        <time>2024-09-12T09:59:00Z</time>
      </trkpt>
      <trkpt lat="51.261630021035671" lon="11.09096403233707">
        <ele>140.00999999999999</ele>
        <time>2024-09-12T09:59:01Z</time>
      </trkpt>
      <trkpt lat="51.26261699013412" lon="11.090997979044914">
        <ele>139.05000000000001</ele>
        <time>2024-09-12T09:59:13Z</time>
      </trkpt>
      <trkpt lat="51.263430034741759" lon="11.091043995693326">
        <ele>139.05000000000001</ele>
        <time>2024-09-12T09:59:23Z</time>
      </trkpt>
      <trkpt lat="51.264495961368084" lon="11.091084983199835">
        <ele>139.05000000000001</ele>
        <time>2024-09-12T09:59:34Z</time>
      </trkpt>
      <trkpt lat="51.265391986817122" lon="11.091091018170118">
        <ele>137.61000000000001</ele>
        <time>2024-09-12T09:59:43Z</time>
      </trkpt>
      <trkpt lat="51.266571991145611" lon="11.091090012341738">
        <ele>139.05000000000001</ele>
        <time>2024-09-12T09:59:54Z</time>
      </trkpt>
      <trkpt lat="51.267749983817339" lon="11.09109596349299">
        <ele>140.00999999999999</ele>
        <time>2024-09-12T10:00:03Z</time>
      </trkpt>
      <trkpt lat="51.267862971872091" lon="11.091123959049582">
        <ele>140.49000000000001</ele>
        <time>2024-09-12T10:00:04Z</time>
      </trkpt>
      <trkpt lat="51.26796699129045" lon="11.091168969869614">
        <ele>140.49000000000001</ele>
        <time>2024-09-12T10:00:05Z</time>
      </trkpt>
      <trkpt lat="51.268065981566906" lon="11.091235019266605">
        <ele>140.97</ele>
        <time>2024-09-12T10:00:06Z</time>
      </trkpt>
      <trkpt lat="51.268142005428672" lon="11.091301990672946">
        <ele>140.97</ele>
        <time>2024-09-12T10:00:07Z</time>
      </trkpt>
      <trkpt lat="51.268211994320154" lon="11.091365022584796">
        <ele>141.44999999999999</ele>
        <time>2024-09-12T10:00:08Z</time>
      </trkpt>
      <trkpt lat="51.268277959898114" lon="11.091378014534712">
        <ele>141.93000000000001</ele>
        <time>2024-09-12T10:00:09Z</time>
      </trkpt>
      <trkpt lat="51.268339985981584" lon="11.09128899872303">
        <ele>142.41</ele>
        <time>2024-09-12T10:00:10Z</time>
      </trkpt>
      <trkpt lat="51.268413998186588" lon="11.09118196181953">
        <ele>142.88999999999999</ele>
        <time>2024-09-12T10:00:11Z</time>
      </trkpt>
      <trkpt lat="51.268489016219974" lon="11.09105296432972">
        <ele>143.37</ele>
        <time>2024-09-12T10:00:12Z</time>
      </trkpt>
      <trkpt lat="51.268835021182895" lon="11.090361038222909">
        <ele>144.81999999999999</ele>
        <time>2024-09-12T10:00:16Z</time>
      </trkpt>
      <trkpt lat="51.268906015902758" lon="11.09012701548636">
        <ele>145.30000000000001</ele>
        <time>2024-09-12T10:00:17Z</time>
      </trkpt>
      <trkpt lat="51.26895303837955" lon="11.089872037991881">
        <ele>145.78</ele>
        <time>2024-09-12T10:00:18Z</time>
      </trkpt>
      <trkpt lat="51.268979022279382" lon="11.089601973071694">
        <ele>145.78</ele>
        <time>2024-09-12T10:00:19Z</time>
      </trkpt>
      <trkpt lat="51.269009029492736" lon="11.089317994192243">
        <ele>146.25999999999999</ele>
        <time>2024-09-12T10:00:20Z</time>
      </trkpt>
      <trkpt lat="51.269348999485373" lon="11.086150975897908">
        <ele>152.50999999999999</ele>
        <time>2024-09-12T10:00:31Z</time>
      </trkpt>
      <trkpt lat="51.269680000841618" lon="11.083053024485707">
        <ele>154.43000000000001</ele>
        <time>2024-09-12T10:00:40Z</time>
      </trkpt>
      <trkpt lat="51.270166989415884" lon="11.07844197191298">
        <ele>159.24000000000001</ele>
        <time>2024-09-12T10:00:52Z</time>
      </trkpt>
      <trkpt lat="51.270365975797176" lon="11.076451018452644">
        <ele>161.63999999999999</ele>
        <time>2024-09-12T10:00:58Z</time>
      </trkpt>
      <trkpt lat="51.27047804184258" lon="11.075974004343152">
        <ele>163.08000000000001</ele>
        <time>2024-09-12T10:01:00Z</time>
      </trkpt>
      <trkpt lat="51.270675016567111" lon="11.07564702630043">
        <ele>163.56</ele>
        <time>2024-09-12T10:01:02Z</time>
      </trkpt>
      <trkpt lat="51.270821029320359" lon="11.075515011325479">
        <ele>164.03999999999999</ele>
        <time>2024-09-12T10:01:03Z</time>
      </trkpt>
      <trkpt lat="51.270982967689633" lon="11.075427001342177">
        <ele>164.52000000000001</ele>
        <time>2024-09-12T10:01:04Z</time>
      </trkpt>
      <trkpt lat="51.271150019019842" lon="11.075373021885753">
        <ele>165</ele>
        <time>2024-09-12T10:01:05Z</time>
      </trkpt>
      <trkpt lat="51.271330984309316" lon="11.075358018279076">
        <ele>165.47999999999999</ele>
        <time>2024-09-12T10:01:06Z</time>
      </trkpt>
      <trkpt lat="51.272733025252819" lon="11.075241006910801">
        <ele>168.37</ele>
        <time>2024-09-12T10:01:12Z</time>
      </trkpt>
      <trkpt lat="51.275050034746528" lon="11.075039003044367">
        <ele>175.58000000000001</ele>
        <time>2024-09-12T10:01:21Z</time>
      </trkpt>
      <trkpt lat="51.276135994121432" lon="11.075013019144535">
        <ele>178.94</ele>
        <time>2024-09-12T10:01:27Z</time>
      </trkpt>
      <trkpt lat="51.276770001277328" lon="11.07504797168076">
        <ele>177.5</ele>
        <time>2024-09-12T10:01:32Z</time>
      </trkpt>
      <trkpt lat="51.276878966018558" lon="11.075115026906133">
        <ele>177.02000000000001</ele>
        <time>2024-09-12T10:01:33Z</time>
      </trkpt>
      <trkpt lat="51.276998994871974" lon="11.075191972777247">
        <ele>176.53999999999999</ele>
        <time>2024-09-12T10:01:34Z</time>
      </trkpt>
      <trkpt lat="51.277111982926726" lon="11.075316024944186">
        <ele>175.58000000000001</ele>
        <time>2024-09-12T10:01:35Z</time>
      </trkpt>
      <trkpt lat="51.277225976809859" lon="11.075442004948854">
        <ele>174.62</ele>
        <time>2024-09-12T10:01:36Z</time>
      </trkpt>
      <trkpt lat="51.277645993977785" lon="11.075897980481386">
        <ele>169.33000000000001</ele>
        <time>2024-09-12T10:01:40Z</time>
      </trkpt>
      <trkpt lat="51.277746995911002" lon="11.075952965766191">
        <ele>167.88999999999999</ele>
        <time>2024-09-12T10:01:41Z</time>
      </trkpt>
      <trkpt lat="51.277856966480613" lon="11.0760129801929">
        <ele>165.96000000000001</ele>
        <time>2024-09-12T10:01:42Z</time>
      </trkpt>
      <trkpt lat="51.277985963970423" lon="11.075986996293068">
        <ele>164.52000000000001</ele>
        <time>2024-09-12T10:01:43Z</time>
      </trkpt>
      <trkpt lat="51.278139017522335" lon="11.075940979644656">
        <ele>162.59999999999999</ele>
        <time>2024-09-12T10:01:44Z</time>
      </trkpt>
      <trkpt lat="51.278313025832176" lon="11.075888006016612">
        <ele>160.68000000000001</ele>
        <time>2024-09-12T10:01:45Z</time>
      </trkpt>
      <trkpt lat="51.279811039566994" lon="11.075255004689097">
        <ele>147.69999999999999</ele>
        <time>2024-09-12T10:01:52Z</time>
      </trkpt>
      <trkpt lat="51.281413994729519" lon="11.074572969228029">
        <ele>142.88999999999999</ele>
        <time>2024-09-12T10:02:00Z</time>
      </trkpt>
      <trkpt lat="51.282206000760198" lon="11.074219001457095">
        <ele>144.34</ele>
        <time>2024-09-12T10:02:07Z</time>
      </trkpt>
      <trkpt lat="51.28264001570642" lon="11.073999982327223">
        <ele>144.34</ele>
        <time>2024-09-12T10:02:13Z</time>
      </trkpt>
      <trkpt lat="51.282702963799238" lon="11.073937034234405">
        <ele>144.34</ele>
        <time>2024-09-12T10:02:14Z</time>
      </trkpt>
      <trkpt lat="51.282741017639637" lon="11.0738439951092">
        <ele>144.81999999999999</ele>
        <time>2024-09-12T10:02:15Z</time>
      </trkpt>
      <trkpt lat="51.282773036509752" lon="11.073727989569306">
        <ele>144.81999999999999</ele>
        <time>2024-09-12T10:02:16Z</time>
      </trkpt>
      <trkpt lat="51.282805977389216" lon="11.07360796071589">
        <ele>144.81999999999999</ele>
        <time>2024-09-12T10:02:17Z</time>
      </trkpt>
      <trkpt lat="51.282839002087712" lon="11.073487009853125">
        <ele>144.34</ele>
        <time>2024-09-12T10:02:18Z</time>
      </trkpt>
      <trkpt lat="51.282873032614589" lon="11.073363041505218">
        <ele>144.34</ele>
        <time>2024-09-12T10:02:19Z</time>
      </trkpt>
      <trkpt lat="51.282904967665672" lon="11.073244018480182">
        <ele>143.84999999999999</ele>
        <time>2024-09-12T10:02:20Z</time>
      </trkpt>
      <trkpt lat="51.282936986535788" lon="11.073128012940288">
        <ele>143.84999999999999</ele>
        <time>2024-09-12T10:02:21Z</time>
      </trkpt>
      <trkpt lat="51.282999012619257" lon="11.072899019345641">
        <ele>143.84999999999999</ele>
        <time>2024-09-12T10:02:23Z</time>
      </trkpt>
      <trkpt lat="51.283029019832611" lon="11.072789970785379">
        <ele>143.84999999999999</ele>
        <time>2024-09-12T10:02:24Z</time>
      </trkpt>
      <trkpt lat="51.28302801400423" lon="11.072670025750995">
        <ele>143.37</ele>
        <time>2024-09-12T10:02:25Z</time>
      </trkpt>
      <trkpt lat="51.283000018447638" lon="11.072545973584056">
        <ele>143.37</ele>
        <time>2024-09-12T10:02:26Z</time>
      </trkpt>
      <trkpt lat="51.282971017062664" lon="11.072413958609104">
        <ele>142.88999999999999</ele>
        <time>2024-09-12T10:02:27Z</time>
      </trkpt>
      <trkpt lat="51.282659964635968" lon="11.071202019229531">
        <ele>142.41</ele>
        <time>2024-09-12T10:02:36Z</time>
      </trkpt>
      <trkpt lat="51.282614031806588" lon="11.071021975949407">
        <ele>142.88999999999999</ele>
        <time>2024-09-12T10:02:37Z</time>
      </trkpt>
      <trkpt lat="51.282563991844654" lon="11.070922985672951">
        <ele>142.88999999999999</ele>
        <time>2024-09-12T10:02:38Z</time>
      </trkpt>
      <trkpt lat="51.282486962154508" lon="11.070788959041238">
        <ele>142.88999999999999</ele>
        <time>2024-09-12T10:02:39Z</time>
      </trkpt>
      <trkpt lat="51.282390989363194" lon="11.070699021220207">
        <ele>142.88999999999999</ele>
        <time>2024-09-12T10:02:40Z</time>
      </trkpt>
      <trkpt lat="51.282299961894751" lon="11.070613022893667">
        <ele>143.37</ele>
        <time>2024-09-12T10:02:41Z</time>
      </trkpt>
      <trkpt lat="51.282209018245339" lon="11.070528030395508">
        <ele>143.37</ele>
        <time>2024-09-12T10:02:42Z</time>
      </trkpt>
      <trkpt lat="51.282114973291755" lon="11.070453012362123">
        <ele>143.37</ele>
        <time>2024-09-12T10:02:43Z</time>
      </trkpt>
      <trkpt lat="51.282020006328821" lon="11.070391992107034">
        <ele>143.37</ele>
        <time>2024-09-12T10:02:44Z</time>
      </trkpt>
      <trkpt lat="51.281919004395604" lon="11.07033901847899">
        <ele>143.37</ele>
        <time>2024-09-12T10:02:45Z</time>
      </trkpt>
      <trkpt lat="51.281625973060727" lon="11.070184959098697">
        <ele>143.84999999999999</ele>
        <time>2024-09-12T10:02:48Z</time>
      </trkpt>
      <trkpt lat="51.281526982784271" lon="11.070135002955794">
        <ele>143.37</ele>
        <time>2024-09-12T10:02:49Z</time>
      </trkpt>
      <trkpt lat="51.28126597031951" lon="11.069982033222914">
        <ele>142.41</ele>
        <time>2024-09-12T10:02:52Z</time>
      </trkpt>
      <trkpt lat="51.281194975599647" lon="11.069925958290696">
        <ele>142.88999999999999</ele>
        <time>2024-09-12T10:02:53Z</time>
      </trkpt>
      <trkpt lat="51.281130015850067" lon="11.069872984662652">
        <ele>142.88999999999999</ele>
        <time>2024-09-12T10:02:54Z</time>
      </trkpt>
      <trkpt lat="51.281090034171939" lon="11.069841971620917">
        <ele>143.84999999999999</ele>
        <time>2024-09-12T10:02:55Z</time>
      </trkpt>
      <trkpt lat="51.281061032786965" lon="11.069754967465997">
        <ele>143.84999999999999</ele>
        <time>2024-09-12T10:02:56Z</time>
      </trkpt>
      <trkpt lat="51.281047035008669" lon="11.06969696469605">
        <ele>144.34</ele>
        <time>2024-09-12T10:02:57Z</time>
      </trkpt>
      <trkpt lat="51.281047035008669" lon="11.069550029933453">
        <ele>144.81999999999999</ele>
        <time>2024-09-12T10:02:58Z</time>
      </trkpt>
      <trkpt lat="51.281054997816682" lon="11.067943973466754">
        <ele>147.22</ele>
        <time>2024-09-12T10:03:08Z</time>
      </trkpt>
      <trkpt lat="51.281111994758248" lon="11.066491976380348">
        <ele>150.09999999999999</ele>
        <time>2024-09-12T10:03:16Z</time>
      </trkpt>
      <trkpt lat="51.281121969223022" lon="11.06636599637568">
        <ele>150.58000000000001</ele>
        <time>2024-09-12T10:03:17Z</time>
      </trkpt>
      <trkpt lat="51.281167985871434" lon="11.066245967522264">
        <ele>150.58000000000001</ele>
        <time>2024-09-12T10:03:18Z</time>
      </trkpt>
      <trkpt lat="51.281245015561581" lon="11.066123005002737">
        <ele>151.06</ele>
        <time>2024-09-12T10:03:19Z</time>
      </trkpt>
      <trkpt lat="51.28133000805974" lon="11.065989984199405">
        <ele>151.53999999999999</ele>
        <time>2024-09-12T10:03:20Z</time>
      </trkpt>
      <trkpt lat="51.281407037749887" lon="11.065851012244821">
        <ele>152.03</ele>
        <time>2024-09-12T10:03:21Z</time>
      </trkpt>
      <trkpt lat="51.281467974185944" lon="11.065693013370037">
        <ele>152.99000000000001</ele>
        <time>2024-09-12T10:03:22Z</time>
      </trkpt>
      <trkpt lat="51.281523965299129" lon="11.065526967868209">
        <ele>153.47</ele>
        <time>2024-09-12T10:03:23Z</time>
      </trkpt>
      <trkpt lat="51.282000979408622" lon="11.063666017726064">
        <ele>163.56</ele>
        <time>2024-09-12T10:03:34Z</time>
      </trkpt>
      <trkpt lat="51.282605985179543" lon="11.06125102378428">
        <ele>177.97999999999999</ele>
        <time>2024-09-12T10:03:48Z</time>
      </trkpt>
      <trkpt lat="51.282987026497722" lon="11.059773964807391">
        <ele>182.78999999999999</ele>
        <time>2024-09-12T10:03:54Z</time>
      </trkpt>
      <trkpt lat="51.284019006416202" lon="11.055778982117772">
        <ele>195.77000000000001</ele>
        <time>2024-09-12T10:04:07Z</time>
      </trkpt>
      <trkpt lat="51.284379009157419" lon="11.054381970316172">
        <ele>199.13</ele>
        <time>2024-09-12T10:04:13Z</time>
      </trkpt>
      <trkpt lat="51.284413039684296" lon="11.054250039160252">
        <ele>199.13</ele>
        <time>2024-09-12T10:04:14Z</time>
      </trkpt>
      <trkpt lat="51.284539019688964" lon="11.05416496284306">
        <ele>198.65000000000001</ele>
        <time>2024-09-12T10:04:15Z</time>
      </trkpt>
      <trkpt lat="51.284634992480278" lon="11.054174015298486">
        <ele>198.65000000000001</ele>
        <time>2024-09-12T10:04:16Z</time>
      </trkpt>
      <trkpt lat="51.284755021333694" lon="11.05418499559164">
        <ele>197.69</ele>
        <time>2024-09-12T10:04:17Z</time>
      </trkpt>
      <trkpt lat="51.285792030394077" lon="11.054281974211335">
        <ele>195.28</ele>
        <time>2024-09-12T10:04:23Z</time>
      </trkpt>
      <trkpt lat="51.287620039656758" lon="11.054451959207654">
        <ele>199.61000000000001</ele>
        <time>2024-09-12T10:04:32Z</time>
      </trkpt>
      <trkpt lat="51.289619961753488" lon="11.054638959467411">
        <ele>209.22</ele>
        <time>2024-09-12T10:04:41Z</time>
      </trkpt>
      <trkpt lat="51.292174011468887" lon="11.054875999689102">
        <ele>218.36000000000001</ele>
        <time>2024-09-12T10:04:52Z</time>
      </trkpt>
      <trkpt lat="51.29237400367856" lon="11.054851021617651">
        <ele>219.31999999999999</ele>
        <time>2024-09-12T10:04:53Z</time>
      </trkpt>
      <trkpt lat="51.292571984231472" lon="11.054784972220659">
        <ele>220.28</ele>
        <time>2024-09-12T10:04:54Z</time>
      </trkpt>
      <trkpt lat="51.292768958956003" lon="11.05470098555088">
        <ele>222.19999999999999</ele>
        <time>2024-09-12T10:04:55Z</time>
      </trkpt>
      <trkpt lat="51.294911038130522" lon="11.053651990368962">
        <ele>236.13999999999999</ele>
        <time>2024-09-12T10:05:05Z</time>
      </trkpt>
      <trkpt lat="51.295723998919129" lon="11.053254017606378">
        <ele>236.62</ele>
        <time>2024-09-12T10:05:09Z</time>
      </trkpt>
      <trkpt lat="51.295916028320789" lon="11.053205989301205">
        <ele>236.62</ele>
        <time>2024-09-12T10:05:10Z</time>
      </trkpt>
      <trkpt lat="51.296099005267024" lon="11.053252005949616">
        <ele>236.62</ele>
        <time>2024-09-12T10:05:11Z</time>
      </trkpt>
      <trkpt lat="51.296276031062007" lon="11.053348984569311">
        <ele>237.09999999999999</ele>
        <time>2024-09-12T10:05:12Z</time>
      </trkpt>
      <trkpt lat="51.296460013836622" lon="11.053454009816051">
        <ele>237.58000000000001</ele>
        <time>2024-09-12T10:05:13Z</time>
      </trkpt>
      <trkpt lat="51.296647014096379" lon="11.053560962900519">
        <ele>237.58000000000001</ele>
        <time>2024-09-12T10:05:14Z</time>
      </trkpt>
      <trkpt lat="51.296848012134433" lon="11.053634975105524">
        <ele>238.06</ele>
        <time>2024-09-12T10:05:15Z</time>
      </trkpt>
      <trkpt lat="51.298865033313632" lon="11.054043006151915">
        <ele>241.43000000000001</ele>
        <time>2024-09-12T10:05:25Z</time>
      </trkpt>
      <trkpt lat="51.299053961411119" lon="11.054009981453419">
        <ele>240.94999999999999</ele>
        <time>2024-09-12T10:05:26Z</time>
      </trkpt>
      <trkpt lat="51.300198007375002" lon="11.053703036159277">
        <ele>238.53999999999999</ele>
        <time>2024-09-12T10:05:33Z</time>
      </trkpt>
      <trkpt lat="51.300523979589343" lon="11.053689960390329">
        <ele>236.62</ele>
        <time>2024-09-12T10:05:36Z</time>
      </trkpt>
      <trkpt lat="51.300647025927901" lon="11.053707981482148">
        <ele>235.66</ele>
        <time>2024-09-12T10:05:37Z</time>
      </trkpt>
      <trkpt lat="51.300777029246092" lon="11.053728014230728">
        <ele>234.69999999999999</ele>
        <time>2024-09-12T10:05:38Z</time>
      </trkpt>
      <trkpt lat="51.302162976935506" lon="11.053914008662105">
        <ele>219.80000000000001</ele>
        <time>2024-09-12T10:05:48Z</time>
      </trkpt>
      <trkpt lat="51.302418038249016" lon="11.05386296287179">
        <ele>216.43000000000001</ele>
        <time>2024-09-12T10:05:50Z</time>
      </trkpt>
      <trkpt lat="51.302504958584905" lon="11.053833961486816">
        <ele>214.50999999999999</ele>
        <time>2024-09-12T10:05:51Z</time>
      </trkpt>
      <trkpt lat="51.302628004923463" lon="11.05371099896729">
        <ele>212.59</ele>
        <time>2024-09-12T10:05:52Z</time>
      </trkpt>
      <trkpt lat="51.302733030170202" lon="11.053605973720551">
        <ele>211.15000000000001</ele>
        <time>2024-09-12T10:05:53Z</time>
      </trkpt>
      <trkpt lat="51.302838977426291" lon="11.053500026464462">
        <ele>209.69999999999999</ele>
        <time>2024-09-12T10:05:54Z</time>
      </trkpt>
      <trkpt lat="51.302933022379875" lon="11.053398018702865">
        <ele>208.25999999999999</ele>
        <time>2024-09-12T10:05:55Z</time>
      </trkpt>
      <trkpt lat="51.303028995171189" lon="11.053263992071152">
        <ele>206.81999999999999</ele>
        <time>2024-09-12T10:05:56Z</time>
      </trkpt>
      <trkpt lat="51.303865006193519" lon="11.052094968035817">
        <ele>195.77000000000001</ele>
        <time>2024-09-12T10:06:04Z</time>
      </trkpt>
      <trkpt lat="51.304045971482992" lon="11.051832027733326">
        <ele>192.88</ele>
        <time>2024-09-12T10:06:06Z</time>
      </trkpt>
      <trkpt lat="51.304129958152771" lon="11.051694983616471">
        <ele>191.44</ele>
        <time>2024-09-12T10:06:07Z</time>
      </trkpt>
      <trkpt lat="51.304567996412516" lon="11.050995010882616">
        <ele>182.78999999999999</ele>
        <time>2024-09-12T10:06:13Z</time>
      </trkpt>
      <trkpt lat="51.305257994681597" lon="11.05020702816546">
        <ele>171.72999999999999</ele>
        <time>2024-09-12T10:06:22Z</time>
      </trkpt>
      <trkpt lat="51.305342987179756" lon="11.050111977383494">
        <ele>170.77000000000001</ele>
        <time>2024-09-12T10:06:23Z</time>
      </trkpt>
      <trkpt lat="51.305432002991438" lon="11.050006030127406">
        <ele>170.28999999999999</ele>
        <time>2024-09-12T10:06:24Z</time>
      </trkpt>
      <trkpt lat="51.305524036288261" lon="11.049897987395525">
        <ele>170.28999999999999</ele>
        <time>2024-09-12T10:06:25Z</time>
      </trkpt>
      <trkpt lat="51.30558698438108" lon="11.049706963822246">
        <ele>169.81</ele>
        <time>2024-09-12T10:06:26Z</time>
      </trkpt>
      <trkpt lat="51.305792005732656" lon="11.04954301379621">
        <ele>168.84999999999999</ele>
        <time>2024-09-12T10:06:28Z</time>
      </trkpt>
      <trkpt lat="51.305996021255851" lon="11.049377974122763">
        <ele>167.88999999999999</ele>
        <time>2024-09-12T10:06:30Z</time>
      </trkpt>
      <trkpt lat="51.306582000106573" lon="11.048813033849001">
        <ele>165.96000000000001</ele>
        <time>2024-09-12T10:06:36Z</time>
      </trkpt>
      <trkpt lat="51.306870002299547" lon="11.048885034397244">
        <ele>165.47999999999999</ele>
        <time>2024-09-12T10:06:38Z</time>
      </trkpt>
      <trkpt lat="51.307354979217052" lon="11.048727035522461">
        <ele>165.47999999999999</ele>
        <time>2024-09-12T10:06:44Z</time>
      </trkpt>
      <trkpt lat="51.307581961154938" lon="11.048727035522461">
        <ele>165.47999999999999</ele>
        <time>2024-09-12T10:06:47Z</time>
      </trkpt>
      <trkpt lat="51.307664019986987" lon="11.048727035522461">
        <ele>165.47999999999999</ele>
        <time>2024-09-12T10:06:48Z</time>
      </trkpt>
      <trkpt lat="51.307834004983306" lon="11.048789983615279">
        <ele>165.47999999999999</ele>
        <time>2024-09-12T10:06:50Z</time>
      </trkpt>
      <trkpt lat="51.307906005531549" lon="11.048828959465027">
        <ele>165.47999999999999</ele>
        <time>2024-09-12T10:06:51Z</time>
      </trkpt>
      <trkpt lat="51.308016981929541" lon="11.048958962783217">
        <ele>165.47999999999999</ele>
        <time>2024-09-12T10:06:53Z</time>
      </trkpt>
      <trkpt lat="51.308068027719855" lon="11.049043033272028">
        <ele>165</ele>
        <time>2024-09-12T10:06:54Z</time>
      </trkpt>
      <trkpt lat="51.308118989691138" lon="11.049128025770187">
        <ele>165</ele>
        <time>2024-09-12T10:06:55Z</time>
      </trkpt>
      <trkpt lat="51.308182021602988" lon="11.049208994954824">
        <ele>165</ele>
        <time>2024-09-12T10:06:56Z</time>
      </trkpt>
      <trkpt lat="51.308242036029696" lon="11.04926498606801">
        <ele>164.52000000000001</ele>
        <time>2024-09-12T10:06:57Z</time>
      </trkpt>
      <trkpt lat="51.308304984122515" lon="11.049322988837957">
        <ele>164.03999999999999</ele>
        <time>2024-09-12T10:06:58Z</time>
      </trkpt>
      <trkpt lat="51.308370027691126" lon="11.049384009093046">
        <ele>164.03999999999999</ele>
        <time>2024-09-12T10:06:59Z</time>
      </trkpt>
      <trkpt lat="51.308438004925847" lon="11.049446035176516">
        <ele>163.56</ele>
        <time>2024-09-12T10:07:00Z</time>
      </trkpt>
      <trkpt lat="51.308514028787613" lon="11.049477970227599">
        <ele>163.08000000000001</ele>
        <time>2024-09-12T10:07:01Z</time>
      </trkpt>
      <trkpt lat="51.308587035164237" lon="11.049503032118082">
        <ele>163.08000000000001</ele>
        <time>2024-09-12T10:07:02Z</time>
      </trkpt>
      <trkpt lat="51.3086580298841" lon="11.049525998532772">
        <ele>162.59999999999999</ele>
        <time>2024-09-12T10:07:03Z</time>
      </trkpt>
      <trkpt lat="51.308729024603963" lon="11.049549970775843">
        <ele>162.59999999999999</ele>
        <time>2024-09-12T10:07:04Z</time>
      </trkpt>
      <trkpt lat="51.308801025152206" lon="11.049575032666326">
        <ele>162.12</ele>
        <time>2024-09-12T10:07:05Z</time>
      </trkpt>
      <trkpt lat="51.308871014043689" lon="11.049600010737777">
        <ele>162.12</ele>
        <time>2024-09-12T10:07:06Z</time>
      </trkpt>
      <trkpt lat="51.308945026248693" lon="11.049625994637609">
        <ele>161.63999999999999</ele>
        <time>2024-09-12T10:07:07Z</time>
      </trkpt>
      <trkpt lat="51.309020966291428" lon="11.049652984365821">
        <ele>161.16</ele>
        <time>2024-09-12T10:07:08Z</time>
      </trkpt>
      <trkpt lat="51.309097995981574" lon="11.049680979922414">
        <ele>160.68000000000001</ele>
        <time>2024-09-12T10:07:09Z</time>
      </trkpt>
      <trkpt lat="51.309179970994592" lon="11.049709981307387">
        <ele>160.19999999999999</ele>
        <time>2024-09-12T10:07:10Z</time>
      </trkpt>
      <trkpt lat="51.309262029826641" lon="11.049738982692361">
        <ele>160.19999999999999</ele>
        <time>2024-09-12T10:07:11Z</time>
      </trkpt>
      <trkpt lat="51.309425979852676" lon="11.049798997119069">
        <ele>159.24000000000001</ele>
        <time>2024-09-12T10:07:13Z</time>
      </trkpt>
      <trkpt lat="51.309508038684726" lon="11.049829004332423">
        <ele>159.24000000000001</ele>
        <time>2024-09-12T10:07:14Z</time>
      </trkpt>
      <trkpt lat="51.309597976505756" lon="11.049862029030919">
        <ele>159.24000000000001</ele>
        <time>2024-09-12T10:07:15Z</time>
      </trkpt>
      <trkpt lat="51.309687998145819" lon="11.049894969910383">
        <ele>159.24000000000001</ele>
        <time>2024-09-12T10:07:16Z</time>
      </trkpt>
      <trkpt lat="51.309779025614262" lon="11.04992900043726">
        <ele>159.72</ele>
        <time>2024-09-12T10:07:17Z</time>
      </trkpt>
      <trkpt lat="51.309853037819266" lon="11.04990896768868">
        <ele>160.19999999999999</ele>
        <time>2024-09-12T10:07:18Z</time>
      </trkpt>
      <trkpt lat="51.309937024489045" lon="11.04988600127399">
        <ele>160.19999999999999</ele>
        <time>2024-09-12T10:07:19Z</time>
      </trkpt>
      <trkpt lat="51.310020005330443" lon="11.0498630348593">
        <ele>160.68000000000001</ele>
        <time>2024-09-12T10:07:20Z</time>
      </trkpt>
      <trkpt lat="51.310189990326762" lon="11.049817018210888">
        <ele>161.16</ele>
        <time>2024-09-12T10:07:22Z</time>
      </trkpt>
      <trkpt lat="51.31027297116816" lon="11.049784999340773">
        <ele>161.63999999999999</ele>
        <time>2024-09-12T10:07:23Z</time>
      </trkpt>
      <trkpt lat="51.310351006686687" lon="11.049731019884348">
        <ele>161.63999999999999</ele>
        <time>2024-09-12T10:07:24Z</time>
      </trkpt>
      <trkpt lat="51.310730958357453" lon="11.049394989386201">
        <ele>162.59999999999999</ele>
        <time>2024-09-12T10:07:29Z</time>
      </trkpt>
      <trkpt lat="51.311380974948406" lon="11.048343982547522">
        <ele>161.16</ele>
        <time>2024-09-12T10:07:38Z</time>
      </trkpt>
      <trkpt lat="51.311436966061592" lon="11.04816997423768">
        <ele>160.68000000000001</ele>
        <time>2024-09-12T10:07:39Z</time>
      </trkpt>
      <trkpt lat="51.311462027952075" lon="11.047981968149543">
        <ele>160.68000000000001</ele>
        <time>2024-09-12T10:07:40Z</time>
      </trkpt>
      <trkpt lat="51.311487006023526" lon="11.047793962061405">
        <ele>160.19999999999999</ele>
        <time>2024-09-12T10:07:41Z</time>
      </trkpt>
      <trkpt lat="51.311511984094977" lon="11.047606039792299">
        <ele>160.19999999999999</ele>
        <time>2024-09-12T10:07:42Z</time>
      </trkpt>
      <trkpt lat="51.311501003801823" lon="11.047408981248736">
        <ele>159.72</ele>
        <time>2024-09-12T10:07:43Z</time>
      </trkpt>
      <trkpt lat="51.311480971053243" lon="11.047219969332218">
        <ele>159.24000000000001</ele>
        <time>2024-09-12T10:07:44Z</time>
      </trkpt>
      <trkpt lat="51.311462027952075" lon="11.047029029577971">
        <ele>158.75</ele>
        <time>2024-09-12T10:07:45Z</time>
      </trkpt>
      <trkpt lat="51.311426991596818" lon="11.046852003782988">
        <ele>158.75</ele>
        <time>2024-09-12T10:07:46Z</time>
      </trkpt>
      <trkpt lat="51.311379969120026" lon="11.046680007129908">
        <ele>158.27000000000001</ele>
        <time>2024-09-12T10:07:47Z</time>
      </trkpt>
      <trkpt lat="51.311332024633884" lon="11.046500969678164">
        <ele>157.78999999999999</ele>
        <time>2024-09-12T10:07:48Z</time>
      </trkpt>
      <trkpt lat="51.311282990500331" lon="11.046323021873832">
        <ele>157.31</ele>
        <time>2024-09-12T10:07:49Z</time>
      </trkpt>
      <trkpt lat="51.311219958588481" lon="11.046154964715242">
        <ele>157.31</ele>
        <time>2024-09-12T10:07:50Z</time>
      </trkpt>
      <trkpt lat="51.311147036030889" lon="11.046000989153981">
        <ele>157.31</ele>
        <time>2024-09-12T10:07:51Z</time>
      </trkpt>
      <trkpt lat="51.311071012169123" lon="11.045841984450817">
        <ele>156.83000000000001</ele>
        <time>2024-09-12T10:07:52Z</time>
      </trkpt>
      <trkpt lat="51.3106560241431" lon="11.045164978131652">
        <ele>156.34999999999999</ele>
        <time>2024-09-12T10:07:57Z</time>
      </trkpt>
      <trkpt lat="51.310568014159799" lon="11.045023994520307">
        <ele>155.87</ele>
        <time>2024-09-12T10:07:58Z</time>
      </trkpt>
      <trkpt lat="51.31044496782124" lon="11.04490396566689">
        <ele>155.87</ele>
        <time>2024-09-12T10:07:59Z</time>
      </trkpt>
      <trkpt lat="51.310302978381515" lon="11.044848980382085">
        <ele>155.87</ele>
        <time>2024-09-12T10:08:00Z</time>
      </trkpt>
      <trkpt lat="51.310152020305395" lon="11.044789971783757">
        <ele>155.87</ele>
        <time>2024-09-12T10:08:01Z</time>
      </trkpt>
      <trkpt lat="51.309997960925102" lon="11.044730041176081">
        <ele>155.38999999999999</ele>
        <time>2024-09-12T10:08:02Z</time>
      </trkpt>
      <trkpt lat="51.309405025094748" lon="11.044417982921004">
        <ele>154.43000000000001</ele>
        <time>2024-09-12T10:08:06Z</time>
      </trkpt>
      <trkpt lat="51.309266975149512" lon="11.044304994866252">
        <ele>153.47</ele>
        <time>2024-09-12T10:08:07Z</time>
      </trkpt>
      <trkpt lat="51.308367010205984" lon="11.042974032461643">
        <ele>148.66</ele>
        <time>2024-09-12T10:08:14Z</time>
      </trkpt>
      <trkpt lat="51.308158971369267" lon="11.042467011138797">
        <ele>147.69999999999999</ele>
        <time>2024-09-12T10:08:16Z</time>
      </trkpt>
      <trkpt lat="51.307865018025041" lon="11.041361019015312">
        <ele>148.18000000000001</ele>
        <time>2024-09-12T10:08:20Z</time>
      </trkpt>
      <trkpt lat="51.307835010811687" lon="11.041062036529183">
        <ele>148.18000000000001</ele>
        <time>2024-09-12T10:08:21Z</time>
      </trkpt>
      <trkpt lat="51.307796034961939" lon="11.040438003838062">
        <ele>148.66</ele>
        <time>2024-09-12T10:08:23Z</time>
      </trkpt>
      <trkpt lat="51.307788994163275" lon="11.040122006088495">
        <ele>148.66</ele>
        <time>2024-09-12T10:08:24Z</time>
      </trkpt>
      <trkpt lat="51.307998038828373" lon="11.037333011627197">
        <ele>148.66</ele>
        <time>2024-09-12T10:08:33Z</time>
      </trkpt>
      <trkpt lat="51.308107003569603" lon="11.037066970020533">
        <ele>148.18000000000001</ele>
        <time>2024-09-12T10:08:34Z</time>
      </trkpt>
      <trkpt lat="51.308212028816342" lon="11.036810986697674">
        <ele>148.18000000000001</ele>
        <time>2024-09-12T10:08:35Z</time>
      </trkpt>
      <trkpt lat="51.308317976072431" lon="11.036555003374815">
        <ele>147.69999999999999</ele>
        <time>2024-09-12T10:08:36Z</time>
      </trkpt>
      <trkpt lat="51.308453008532524" lon="11.036341013386846">
        <ele>147.69999999999999</ele>
        <time>2024-09-12T10:08:37Z</time>
      </trkpt>
      <trkpt lat="51.308603966608644" lon="11.036130040884018">
        <ele>147.69999999999999</ele>
        <time>2024-09-12T10:08:38Z</time>
      </trkpt>
      <trkpt lat="51.31018303334713" lon="11.034217039123178">
        <ele>151.06</ele>
        <time>2024-09-12T10:08:48Z</time>
      </trkpt>
      <trkpt lat="51.310468018054962" lon="11.033828034996986">
        <ele>151.53999999999999</ele>
        <time>2024-09-12T10:08:50Z</time>
      </trkpt>
      <trkpt lat="51.31059299223125" lon="11.033574985340238">
        <ele>152.50999999999999</ele>
        <time>2024-09-12T10:08:51Z</time>
      </trkpt>
      <trkpt lat="51.31110898219049" lon="11.032530013471842">
        <ele>152.99000000000001</ele>
        <time>2024-09-12T10:08:55Z</time>
      </trkpt>
      <trkpt lat="51.311245020478964" lon="11.032337984070182">
        <ele>152.99000000000001</ele>
        <time>2024-09-12T10:08:56Z</time>
      </trkpt>
      <trkpt lat="51.311396984383464" lon="11.032167999073863">
        <ele>152.99000000000001</ele>
        <time>2024-09-12T10:08:57Z</time>
      </trkpt>
      <trkpt lat="51.312678996473551" lon="11.030804011970758">
        <ele>155.38999999999999</ele>
        <time>2024-09-12T10:09:05Z</time>
      </trkpt>
      <trkpt lat="51.31284898146987" lon="11.030727988108993">
        <ele>156.34999999999999</ele>
        <time>2024-09-12T10:09:06Z</time>
      </trkpt>
      <trkpt lat="51.31304201669991" lon="11.030696975067258">
        <ele>156.83000000000001</ele>
        <time>2024-09-12T10:09:07Z</time>
      </trkpt>
      <trkpt lat="51.313231028616428" lon="11.030665962025523">
        <ele>157.31</ele>
        <time>2024-09-12T10:09:08Z</time>
      </trkpt>
      <trkpt lat="51.31340797059238" lon="11.03063696064055">
        <ele>157.78999999999999</ele>
        <time>2024-09-12T10:09:09Z</time>
      </trkpt>
      <trkpt lat="51.313575021922588" lon="11.030609970912337">
        <ele>158.27000000000001</ele>
        <time>2024-09-12T10:09:10Z</time>
      </trkpt>
      <trkpt lat="51.313724974170327" lon="11.030622962862253">
        <ele>158.27000000000001</ele>
        <time>2024-09-12T10:09:11Z</time>
      </trkpt>
      <trkpt lat="51.313904011622071" lon="11.03070099838078">
        <ele>158.75</ele>
        <time>2024-09-12T10:09:12Z</time>
      </trkpt>
      <trkpt lat="51.315488023683429" lon="11.0312370210886">
        <ele>160.68000000000001</ele>
        <time>2024-09-12T10:09:20Z</time>
      </trkpt>
      <trkpt lat="51.316439034417272" lon="11.031589983031154">
        <ele>161.63999999999999</ele>
        <time>2024-09-12T10:09:25Z</time>
      </trkpt>
      <trkpt lat="51.316627962514758" lon="11.031700959429145">
        <ele>161.63999999999999</ele>
        <time>2024-09-12T10:09:26Z</time>
      </trkpt>
      <trkpt lat="51.316797025501728" lon="11.031874967738986">
        <ele>161.63999999999999</ele>
        <time>2024-09-12T10:09:27Z</time>
      </trkpt>
      <trkpt lat="51.316962987184525" lon="11.032055011019111">
        <ele>162.12</ele>
        <time>2024-09-12T10:09:28Z</time>
      </trkpt>
      <trkpt lat="51.317128026857972" lon="11.032233964651823">
        <ele>162.59999999999999</ele>
        <time>2024-09-12T10:09:29Z</time>
      </trkpt>
      <trkpt lat="51.317284014075994" lon="11.032439991831779">
        <ele>162.59999999999999</ele>
        <time>2024-09-12T10:09:30Z</time>
      </trkpt>
      <trkpt lat="51.318203005939722" lon="11.03418200276792">
        <ele>170.77000000000001</ele>
        <time>2024-09-12T10:09:37Z</time>
      </trkpt>
      <trkpt lat="51.318377014249563" lon="11.034678965806961">
        <ele>172.69</ele>
        <time>2024-09-12T10:09:39Z</time>
      </trkpt>
      <trkpt lat="51.318578012287617" lon="11.035103006288409">
        <ele>173.66</ele>
        <time>2024-09-12T10:09:41Z</time>
      </trkpt>
      <trkpt lat="51.31871597841382" lon="11.035254970192909">
        <ele>173.66</ele>
        <time>2024-09-12T10:09:42Z</time>
      </trkpt>
      <trkpt lat="51.320078959688544" lon="11.036534970626235">
        <ele>171.25</ele>
        <time>2024-09-12T10:09:50Z</time>
      </trkpt>
      <trkpt lat="51.322926040738821" lon="11.039199996739626">
        <ele>165.96000000000001</ele>
        <time>2024-09-12T10:10:06Z</time>
      </trkpt>
      <trkpt lat="51.32326802238822" lon="11.039462015032768">
        <ele>165</ele>
        <time>2024-09-12T10:10:08Z</time>
      </trkpt>
      <trkpt lat="51.324496977031231" lon="11.040137009695172">
        <ele>162.59999999999999</ele>
        <time>2024-09-12T10:10:16Z</time>
      </trkpt>
      <trkpt lat="51.325586037710309" lon="11.040791971608996">
        <ele>163.56</ele>
        <time>2024-09-12T10:10:26Z</time>
      </trkpt>
      <trkpt lat="51.326855979859829" lon="11.041665030643344">
        <ele>165</ele>
        <time>2024-09-12T10:10:38Z</time>
      </trkpt>
      <trkpt lat="51.327810008078814" lon="11.042310018092394">
        <ele>167.88999999999999</ele>
        <time>2024-09-12T10:10:47Z</time>
      </trkpt>
      <trkpt lat="51.327883014455438" lon="11.042357962578535">
        <ele>168.37</ele>
        <time>2024-09-12T10:10:48Z</time>
      </trkpt>
      <trkpt lat="51.327945040538907" lon="11.042286967858672">
        <ele>168.84999999999999</ele>
        <time>2024-09-12T10:10:49Z</time>
      </trkpt>
      <trkpt lat="51.327988961711526" lon="11.042172973975539">
        <ele>168.84999999999999</ele>
        <time>2024-09-12T10:10:50Z</time>
      </trkpt>
      <trkpt lat="51.328034978359938" lon="11.042034002020955">
        <ele>168.84999999999999</ele>
        <time>2024-09-12T10:10:51Z</time>
      </trkpt>
      <trkpt lat="51.328079989179969" lon="11.041859993711114">
        <ele>169.33000000000001</ele>
        <time>2024-09-12T10:10:52Z</time>
      </trkpt>
      <trkpt lat="51.328129023313522" lon="11.041675005108118">
        <ele>169.33000000000001</ele>
        <time>2024-09-12T10:10:53Z</time>
      </trkpt>
      <trkpt lat="51.328177973628044" lon="11.041488004848361">
        <ele>169.81</ele>
        <time>2024-09-12T10:10:54Z</time>
      </trkpt>
      <trkpt lat="51.328758001327515" lon="11.039361013099551">
        <ele>171.72999999999999</ele>
        <time>2024-09-12T10:11:06Z</time>
      </trkpt>
      <trkpt lat="51.329383961856365" lon="11.037063030526042">
        <ele>171.25</ele>
        <time>2024-09-12T10:11:19Z</time>
      </trkpt>
      <trkpt lat="51.329869022592902" lon="11.035308027639985">
        <ele>169.81</ele>
        <time>2024-09-12T10:11:29Z</time>
      </trkpt>
      <trkpt lat="51.329917972907424" lon="11.035137036815286">
        <ele>169.81</ele>
        <time>2024-09-12T10:11:30Z</time>
      </trkpt>
      <trkpt lat="51.329991985112429" lon="11.034981971606612">
        <ele>169.33000000000001</ele>
        <time>2024-09-12T10:11:31Z</time>
      </trkpt>
      <trkpt lat="51.330070020630956" lon="11.034835958853364">
        <ele>169.33000000000001</ele>
        <time>2024-09-12T10:11:32Z</time>
      </trkpt>
      <trkpt lat="51.330154007300735" lon="11.03469799272716">
        <ele>168.84999999999999</ele>
        <time>2024-09-12T10:11:33Z</time>
      </trkpt>
      <trkpt lat="51.330964034423232" lon="11.033656960353255">
        <ele>168.84999999999999</ele>
        <time>2024-09-12T10:11:40Z</time>
      </trkpt>
      <trkpt lat="51.332260966300964" lon="11.032047970220447">
        <ele>168.37</ele>
        <time>2024-09-12T10:11:49Z</time>
      </trkpt>
      <trkpt lat="51.332705039530993" lon="11.031427038833499">
        <ele>169.33000000000001</ele>
        <time>2024-09-12T10:11:52Z</time>
      </trkpt>
      <trkpt lat="51.332802018150687" lon="11.03117298334837">
        <ele>169.81</ele>
        <time>2024-09-12T10:11:53Z</time>
      </trkpt>
      <trkpt lat="51.332905031740665" lon="11.030909037217498">
        <ele>170.28999999999999</ele>
        <time>2024-09-12T10:11:54Z</time>
      </trkpt>
      <trkpt lat="51.33362595923245" lon="11.029042974114418">
        <ele>169.81</ele>
        <time>2024-09-12T10:12:01Z</time>
      </trkpt>
      <trkpt lat="51.333789993077517" lon="11.02887399494648">
        <ele>169.33000000000001</ele>
        <time>2024-09-12T10:12:02Z</time>
      </trkpt>
      <trkpt lat="51.33536696434021" lon="11.027153022587299">
        <ele>168.84999999999999</ele>
        <time>2024-09-12T10:12:11Z</time>
      </trkpt>
      <trkpt lat="51.336790965870023" lon="11.024861996993423">
        <ele>170.77000000000001</ele>
        <time>2024-09-12T10:12:20Z</time>
      </trkpt>
      <trkpt lat="51.337422039359808" lon="11.02339499630034">
        <ele>171.72999999999999</ele>
        <time>2024-09-12T10:12:25Z</time>
      </trkpt>
      <trkpt lat="51.337516000494361" lon="11.023075981065631">
        <ele>171.72999999999999</ele>
        <time>2024-09-12T10:12:26Z</time>
      </trkpt>
      <trkpt lat="51.33758096024394" lon="11.022743973881006">
        <ele>171.25</ele>
        <time>2024-09-12T10:12:27Z</time>
      </trkpt>
      <trkpt lat="51.337647009640932" lon="11.022408027201891">
        <ele>170.77000000000001</ele>
        <time>2024-09-12T10:12:28Z</time>
      </trkpt>
      <trkpt lat="51.337712975218892" lon="11.022071996703744">
        <ele>170.28999999999999</ele>
        <time>2024-09-12T10:12:29Z</time>
      </trkpt>
      <trkpt lat="51.338071972131729" lon="11.018921993672848">
        <ele>168.84999999999999</ele>
        <time>2024-09-12T10:12:38Z</time>
      </trkpt>
      <trkpt lat="51.338257966563106" lon="11.01484696380794">
        <ele>170.77000000000001</ele>
        <time>2024-09-12T10:12:50Z</time>
      </trkpt>
      <trkpt lat="51.338290991261601" lon="11.014567008242011">
        <ele>171.25</ele>
        <time>2024-09-12T10:12:51Z</time>
      </trkpt>
      <trkpt lat="51.338353017345071" lon="11.014299960806966">
        <ele>171.25</ele>
        <time>2024-09-12T10:12:52Z</time>
      </trkpt>
      <trkpt lat="51.3387590367347" lon="11.013102019205689">
        <ele>173.16999999999999</ele>
        <time>2024-09-12T10:12:58Z</time>
      </trkpt>
      <trkpt lat="51.339176036417484" lon="11.011811960488558">
        <ele>175.09999999999999</ele>
        <time>2024-09-12T10:13:06Z</time>
      </trkpt>
      <trkpt lat="51.339201014488935" lon="11.011622026562691">
        <ele>175.09999999999999</ele>
        <time>2024-09-12T10:13:07Z</time>
      </trkpt>
      <trkpt lat="51.339450962841511" lon="11.009947992861271">
        <ele>170.77000000000001</ele>
        <time>2024-09-12T10:13:16Z</time>
      </trkpt>
      <trkpt lat="51.339671993628144" lon="11.009282972663641">
        <ele>168.84999999999999</ele>
        <time>2024-09-12T10:13:20Z</time>
      </trkpt>
      <trkpt lat="51.33974701166153" lon="11.009134026244283">
        <ele>168.37</ele>
        <time>2024-09-12T10:13:21Z</time>
      </trkpt>
      <trkpt lat="51.339820018038154" lon="11.008988013491035">
        <ele>168.37</ele>
        <time>2024-09-12T10:13:22Z</time>
      </trkpt>
      <trkpt lat="51.33992001414299" lon="11.008873013779521">
        <ele>167.88999999999999</ele>
        <time>2024-09-12T10:13:23Z</time>
      </trkpt>
      <trkpt lat="51.340019004419446" lon="11.008761031553149">
        <ele>167.88999999999999</ele>
        <time>2024-09-12T10:13:24Z</time>
      </trkpt>
      <trkpt lat="51.340126041322947" lon="11.008643014356494">
        <ele>167.88999999999999</ele>
        <time>2024-09-12T10:13:25Z</time>
      </trkpt>
      <trkpt lat="51.340250009670854" lon="11.008618036285043">
        <ele>167.88999999999999</ele>
        <time>2024-09-12T10:13:26Z</time>
      </trkpt>
      <trkpt lat="51.340374983847141" lon="11.008629016578197">
        <ele>167.41</ele>
        <time>2024-09-12T10:13:27Z</time>
      </trkpt>
      <trkpt lat="51.340482020750642" lon="11.008704034611583">
        <ele>167.41</ele>
        <time>2024-09-12T10:13:28Z</time>
      </trkpt>
      <trkpt lat="51.340582016855478" lon="11.0088050365448">
        <ele>167.41</ele>
        <time>2024-09-12T10:13:29Z</time>
      </trkpt>
      <trkpt lat="51.340668015182018" lon="11.008948031812906">
        <ele>167.88999999999999</ele>
        <time>2024-09-12T10:13:30Z</time>
      </trkpt>
      <trkpt lat="51.340753007680178" lon="11.009089015424252">
        <ele>167.88999999999999</ele>
        <time>2024-09-12T10:13:31Z</time>
      </trkpt>
      <trkpt lat="51.341798985376954" lon="11.010673027485609">
        <ele>170.28999999999999</ele>
        <time>2024-09-12T10:13:43Z</time>
      </trkpt>
      <trkpt lat="51.341888001188636" lon="11.010799007490277">
        <ele>170.77000000000001</ele>
        <time>2024-09-12T10:13:44Z</time>
      </trkpt>
      <trkpt lat="51.342352023348212" lon="11.011454975232482">
        <ele>171.72999999999999</ele>
        <time>2024-09-12T10:13:49Z</time>
      </trkpt>
      <trkpt lat="51.343774013221264" lon="11.0134900175035">
        <ele>174.62</ele>
        <time>2024-09-12T10:14:05Z</time>
      </trkpt>
      <trkpt lat="51.344205010682344" lon="11.014142967760563">
        <ele>175.58000000000001</ele>
        <time>2024-09-12T10:14:10Z</time>
      </trkpt>
      <trkpt lat="51.344396034255624" lon="11.014383025467396">
        <ele>176.06</ele>
        <time>2024-09-12T10:14:12Z</time>
      </trkpt>
      <trkpt lat="51.344494018703699" lon="11.014506993815303">
        <ele>176.53999999999999</ele>
        <time>2024-09-12T10:14:13Z</time>
      </trkpt>
      <trkpt lat="51.34458496235311" lon="11.014663986861706">
        <ele>176.53999999999999</ele>
        <time>2024-09-12T10:14:14Z</time>
      </trkpt>
      <trkpt lat="51.344656040892005" lon="11.014821985736489">
        <ele>176.53999999999999</ele>
        <time>2024-09-12T10:14:15Z</time>
      </trkpt>
      <trkpt lat="51.344726029783487" lon="11.014976967126131">
        <ele>176.53999999999999</ele>
        <time>2024-09-12T10:14:16Z</time>
      </trkpt>
      <trkpt lat="51.344957035034895" lon="11.015405030921102">
        <ele>176.06</ele>
        <time>2024-09-12T10:14:19Z</time>
      </trkpt>
      <trkpt lat="51.34505401365459" lon="11.015492035076022">
        <ele>175.58000000000001</ele>
        <time>2024-09-12T10:14:20Z</time>
      </trkpt>
      <trkpt lat="51.34518401697278" lon="11.01559697650373">
        <ele>176.06</ele>
        <time>2024-09-12T10:14:21Z</time>
      </trkpt>
      <trkpt lat="51.345278983935714" lon="11.015636036172509">
        <ele>176.06</ele>
        <time>2024-09-12T10:14:22Z</time>
      </trkpt>
      <trkpt lat="51.345395995303988" lon="11.015684986487031">
        <ele>176.06</ele>
        <time>2024-09-12T10:14:23Z</time>
      </trkpt>
      <trkpt lat="51.345519041642547" lon="11.015736032277346">
        <ele>176.06</ele>
        <time>2024-09-12T10:14:24Z</time>
      </trkpt>
      <trkpt lat="51.345644015818834" lon="11.015788000077009">
        <ele>175.58000000000001</ele>
        <time>2024-09-12T10:14:25Z</time>
      </trkpt>
      <trkpt lat="51.345768989995122" lon="11.015834016725421">
        <ele>174.62</ele>
        <time>2024-09-12T10:14:26Z</time>
      </trkpt>
      <trkpt lat="51.345889018848538" lon="11.01591900922358">
        <ele>174.13999999999999</ele>
        <time>2024-09-12T10:14:27Z</time>
      </trkpt>
      <trkpt lat="51.345983985811472" lon="11.016020011156797">
        <ele>173.66</ele>
        <time>2024-09-12T10:14:28Z</time>
      </trkpt>
      <trkpt lat="51.346074007451534" lon="11.016115983948112">
        <ele>173.16999999999999</ele>
        <time>2024-09-12T10:14:29Z</time>
      </trkpt>
      <trkpt lat="51.346162017434835" lon="11.01622000336647">
        <ele>173.16999999999999</ele>
        <time>2024-09-12T10:14:30Z</time>
      </trkpt>
      <trkpt lat="51.34623602963984" lon="11.016357969492674">
        <ele>173.16999999999999</ele>
        <time>2024-09-12T10:14:31Z</time>
      </trkpt>
      <trkpt lat="51.346609024330974" lon="11.017130026593804">
        <ele>173.16999999999999</ele>
        <time>2024-09-12T10:14:36Z</time>
      </trkpt>
      <trkpt lat="51.346669960767031" lon="11.017289031296968">
        <ele>173.16999999999999</ele>
        <time>2024-09-12T10:14:37Z</time>
      </trkpt>
      <trkpt lat="51.346712959930301" lon="11.01746303960681">
        <ele>173.16999999999999</ele>
        <time>2024-09-12T10:14:38Z</time>
      </trkpt>
      <trkpt lat="51.346742967143655" lon="11.017648028209805">
        <ele>173.16999999999999</ele>
        <time>2024-09-12T10:14:39Z</time>
      </trkpt>
      <trkpt lat="51.3467510137707" lon="11.017855983227491">
        <ele>173.66</ele>
        <time>2024-09-12T10:14:40Z</time>
      </trkpt>
      <trkpt lat="51.3467510137707" lon="11.018085982650518">
        <ele>173.66</ele>
        <time>2024-09-12T10:14:41Z</time>
      </trkpt>
      <trkpt lat="51.346738021820784" lon="11.01832402870059">
        <ele>173.66</ele>
        <time>2024-09-12T10:14:42Z</time>
      </trkpt>
      <trkpt lat="51.346725029870868" lon="11.018570959568024">
        <ele>173.66</ele>
        <time>2024-09-12T10:14:43Z</time>
      </trkpt>
      <trkpt lat="51.346672978252172" lon="11.019559018313885">
        <ele>174.13999999999999</ele>
        <time>2024-09-12T10:14:47Z</time>
      </trkpt>
      <trkpt lat="51.346683958545327" lon="11.019799998030066">
        <ele>174.13999999999999</ele>
        <time>2024-09-12T10:14:48Z</time>
      </trkpt>
      <trkpt lat="51.346732992678881" lon="11.020023040473461">
        <ele>174.13999999999999</ele>
        <time>2024-09-12T10:14:49Z</time>
      </trkpt>
      <trkpt lat="51.346814967691898" lon="11.020218003541231">
        <ele>174.13999999999999</ele>
        <time>2024-09-12T10:14:50Z</time>
      </trkpt>
      <trkpt lat="51.346912030130625" lon="11.020393017679453">
        <ele>174.13999999999999</ele>
        <time>2024-09-12T10:14:51Z</time>
      </trkpt>
      <trkpt lat="51.347038010135293" lon="11.020523020997643">
        <ele>174.13999999999999</ele>
        <time>2024-09-12T10:14:52Z</time>
      </trkpt>
      <trkpt lat="51.347192991524935" lon="11.020596027374268">
        <ele>174.13999999999999</ele>
        <time>2024-09-12T10:14:53Z</time>
      </trkpt>
      <trkpt lat="51.347361970692873" lon="11.020675990730524">
        <ele>174.13999999999999</ele>
        <time>2024-09-12T10:14:54Z</time>
      </trkpt>
      <trkpt lat="51.348946988582611" lon="11.021422985941172">
        <ele>174.13999999999999</ele>
        <time>2024-09-12T10:15:02Z</time>
      </trkpt>
      <trkpt lat="51.349753998219967" lon="11.021860018372536">
        <ele>174.62</ele>
        <time>2024-09-12T10:15:06Z</time>
      </trkpt>
      <trkpt lat="51.349914008751512" lon="11.022013993933797">
        <ele>174.62</ele>
        <time>2024-09-12T10:15:07Z</time>
      </trkpt>
      <trkpt lat="51.350031020119786" lon="11.022217003628612">
        <ele>175.09999999999999</ele>
        <time>2024-09-12T10:15:08Z</time>
      </trkpt>
      <trkpt lat="51.350115006789565" lon="11.022458989173174">
        <ele>175.09999999999999</ele>
        <time>2024-09-12T10:15:09Z</time>
      </trkpt>
      <trkpt lat="51.350206034258008" lon="11.022720001637936">
        <ele>175.58000000000001</ele>
        <time>2024-09-12T10:15:10Z</time>
      </trkpt>
      <trkpt lat="51.350216008722782" lon="11.022998029366136">
        <ele>175.58000000000001</ele>
        <time>2024-09-12T10:15:11Z</time>
      </trkpt>
      <trkpt lat="51.350229000672698" lon="11.023314027115703">
        <ele>176.06</ele>
        <time>2024-09-12T10:15:12Z</time>
      </trkpt>
      <trkpt lat="51.350352969020605" lon="11.025618966668844">
        <ele>180.87</ele>
        <time>2024-09-12T10:15:19Z</time>
      </trkpt>
      <trkpt lat="51.350414995104074" lon="11.025888025760651">
        <ele>181.34999999999999</ele>
        <time>2024-09-12T10:15:20Z</time>
      </trkpt>
      <trkpt lat="51.350509962067008" lon="11.026129005476832">
        <ele>181.34999999999999</ele>
        <time>2024-09-12T10:15:21Z</time>
      </trkpt>
      <trkpt lat="51.350636025890708" lon="11.026359004899859">
        <ele>181.83000000000001</ele>
        <time>2024-09-12T10:15:22Z</time>
      </trkpt>
      <trkpt lat="51.350782038643956" lon="11.026581041514874">
        <ele>182.31</ele>
        <time>2024-09-12T10:15:23Z</time>
      </trkpt>
      <trkpt lat="51.350949006155133" lon="11.026793019846082">
        <ele>182.31</ele>
        <time>2024-09-12T10:15:24Z</time>
      </trkpt>
      <trkpt lat="51.352825965732336" lon="11.029180018231273">
        <ele>186.15000000000001</ele>
        <time>2024-09-12T10:15:34Z</time>
      </trkpt>
      <trkpt lat="51.354075036942959" lon="11.030729999765754">
        <ele>192.88</ele>
        <time>2024-09-12T10:15:41Z</time>
      </trkpt>
      <trkpt lat="51.354262037202716" lon="11.030855979770422">
        <ele>194.80000000000001</ele>
        <time>2024-09-12T10:15:42Z</time>
      </trkpt>
      <trkpt lat="51.355587970465422" lon="11.03177203796804">
        <ele>206.34</ele>
        <time>2024-09-12T10:15:49Z</time>
      </trkpt>
      <trkpt lat="51.355739012360573" lon="11.031922996044159">
        <ele>207.30000000000001</ele>
        <time>2024-09-12T10:15:50Z</time>
      </trkpt>
      <trkpt lat="51.355830039829016" lon="11.03211703710258">
        <ele>208.25999999999999</ele>
        <time>2024-09-12T10:15:51Z</time>
      </trkpt>
      <trkpt lat="51.355898017063737" lon="11.032342007383704">
        <ele>208.25999999999999</ele>
        <time>2024-09-12T10:15:52Z</time>
      </trkpt>
      <trkpt lat="51.355934981256723" lon="11.032563038170338">
        <ele>208.74000000000001</ele>
        <time>2024-09-12T10:15:53Z</time>
      </trkpt>
      <trkpt lat="51.355937998741865" lon="11.032824972644448">
        <ele>208.74000000000001</ele>
        <time>2024-09-12T10:15:54Z</time>
      </trkpt>
      <trkpt lat="51.355940010398626" lon="11.033104006201029">
        <ele>208.74000000000001</ele>
        <time>2024-09-12T10:15:55Z</time>
      </trkpt>
      <trkpt lat="51.355956019833684" lon="11.036202041432261">
        <ele>205.38</ele>
        <time>2024-09-12T10:16:05Z</time>
      </trkpt>
      <trkpt lat="51.355985021218657" lon="11.03673898614943">
        <ele>203.46000000000001</ele>
        <time>2024-09-12T10:16:07Z</time>
      </trkpt>
      <trkpt lat="51.356018967926502" lon="11.036980971693993">
        <ele>202.49000000000001</ele>
        <time>2024-09-12T10:16:08Z</time>
      </trkpt>
      <trkpt lat="51.356064984574914" lon="11.03720803745091">
        <ele>201.05000000000001</ele>
        <time>2024-09-12T10:16:09Z</time>
      </trkpt>
      <trkpt lat="51.356128016486764" lon="11.037397971376777">
        <ele>199.61000000000001</ele>
        <time>2024-09-12T10:16:10Z</time>
      </trkpt>
      <trkpt lat="51.356276962906122" lon="11.037573991343379">
        <ele>197.69</ele>
        <time>2024-09-12T10:16:11Z</time>
      </trkpt>
      <trkpt lat="51.356415012851357" lon="11.037739031016827">
        <ele>196.25</ele>
        <time>2024-09-12T10:16:12Z</time>
      </trkpt>
      <trkpt lat="51.356574017554522" lon="11.037871968001127">
        <ele>194.31999999999999</ele>
        <time>2024-09-12T10:16:13Z</time>
      </trkpt>
      <trkpt lat="51.356751965358853" lon="11.037986967712641">
        <ele>192.40000000000001</ele>
        <time>2024-09-12T10:16:14Z</time>
      </trkpt>
      <trkpt lat="51.358628002926707" lon="11.039183987304568">
        <ele>173.16999999999999</ele>
        <time>2024-09-12T10:16:24Z</time>
      </trkpt>
      <trkpt lat="51.359329987317324" lon="11.039608027786016">
        <ele>166.44999999999999</ele>
        <time>2024-09-12T10:16:29Z</time>
      </trkpt>
      <trkpt lat="51.35942897759378" lon="11.039608027786016">
        <ele>165.47999999999999</ele>
        <time>2024-09-12T10:16:30Z</time>
      </trkpt>
      <trkpt lat="51.359517993405461" lon="11.039608027786016">
        <ele>164.52000000000001</ele>
        <time>2024-09-12T10:16:31Z</time>
      </trkpt>
      <trkpt lat="51.359589993953705" lon="11.039598975330591">
        <ele>163.56</ele>
        <time>2024-09-12T10:16:32Z</time>
      </trkpt>
      <trkpt lat="51.359661994501948" lon="11.039590006694198">
        <ele>162.59999999999999</ele>
        <time>2024-09-12T10:16:33Z</time>
      </trkpt>
      <trkpt lat="51.35972703807056" lon="11.03965999558568">
        <ele>161.63999999999999</ele>
        <time>2024-09-12T10:16:34Z</time>
      </trkpt>
      <trkpt lat="51.359769031405449" lon="11.039744988083839">
        <ele>160.68000000000001</ele>
        <time>2024-09-12T10:16:35Z</time>
      </trkpt>
      <trkpt lat="51.359812030568719" lon="11.039829980581999">
        <ele>159.72</ele>
        <time>2024-09-12T10:16:36Z</time>
      </trkpt>
      <trkpt lat="51.359854023903608" lon="11.039913967251778">
        <ele>158.75</ele>
        <time>2024-09-12T10:16:37Z</time>
      </trkpt>
      <trkpt lat="51.35992300696671" lon="11.039999965578318">
        <ele>157.78999999999999</ele>
        <time>2024-09-12T10:16:38Z</time>
      </trkpt>
      <trkpt lat="51.359999030828476" lon="11.040051011368632">
        <ele>156.83000000000001</ele>
        <time>2024-09-12T10:16:39Z</time>
      </trkpt>
      <trkpt lat="51.360083017498255" lon="11.040109014138579">
        <ele>155.87</ele>
        <time>2024-09-12T10:16:40Z</time>
      </trkpt>
      <trkpt lat="51.360171027481556" lon="11.040169028565288">
        <ele>154.91</ele>
        <time>2024-09-12T10:16:41Z</time>
      </trkpt>
      <trkpt lat="51.360561959445477" lon="11.040359968319535">
        <ele>152.50999999999999</ele>
        <time>2024-09-12T10:16:48Z</time>
      </trkpt>
      <trkpt lat="51.360621973872185" lon="11.040432974696159">
        <ele>152.03</ele>
        <time>2024-09-12T10:16:58Z</time>
      </trkpt>
      <trkpt lat="51.360768992453814" lon="11.041177958250046">
        <ele>150.09999999999999</ele>
        <time>2024-09-12T10:17:04Z</time>
      </trkpt>
      <trkpt lat="51.361260004341602" lon="11.043217023834586">
        <ele>146.74000000000001</ele>
        <time>2024-09-12T10:17:16Z</time>
      </trkpt>
      <trkpt lat="51.361879007890821" lon="11.045293975621462">
        <ele>142.88999999999999</ele>
        <time>2024-09-12T10:17:28Z</time>
      </trkpt>
      <trkpt lat="51.362055027857423" lon="11.045802002772689">
        <ele>141.93000000000001</ele>
        <time>2024-09-12T10:17:31Z</time>
      </trkpt>
      <trkpt lat="51.362103978171945" lon="11.045978022739291">
        <ele>141.44999999999999</ele>
        <time>2024-09-12T10:17:32Z</time>
      </trkpt>
      <trkpt lat="51.36217899620533" lon="11.046339031308889">
        <ele>140.97</ele>
        <time>2024-09-12T10:17:34Z</time>
      </trkpt>
      <trkpt lat="51.362241022288799" lon="11.046503987163305">
        <ele>140.49000000000001</ele>
        <time>2024-09-12T10:17:35Z</time>
      </trkpt>
      <trkpt lat="51.362306987866759" lon="11.046654023230076">
        <ele>140.00999999999999</ele>
        <time>2024-09-12T10:17:36Z</time>
      </trkpt>
      <trkpt lat="51.362392986193299" lon="11.046775979921222">
        <ele>140.00999999999999</ele>
        <time>2024-09-12T10:17:37Z</time>
      </trkpt>
      <trkpt lat="51.362486025318503" lon="11.046876981854439">
        <ele>139.53</ele>
        <time>2024-09-12T10:17:38Z</time>
      </trkpt>
      <trkpt lat="51.362588033080101" lon="11.046956023201346">
        <ele>139.05000000000001</ele>
        <time>2024-09-12T10:17:39Z</time>
      </trkpt>
      <trkpt lat="51.362677970901132" lon="11.047025006264448">
        <ele>138.56999999999999</ele>
        <time>2024-09-12T10:17:40Z</time>
      </trkpt>
      <trkpt lat="51.362750977277756" lon="11.047098012641072">
        <ele>138.56999999999999</ele>
        <time>2024-09-12T10:17:41Z</time>
      </trkpt>
      <trkpt lat="51.362799005582929" lon="11.047203959897161">
        <ele>138.56999999999999</ele>
        <time>2024-09-12T10:17:42Z</time>
      </trkpt>
      <trkpt lat="51.362790036946535" lon="11.047333963215351">
        <ele>138.56999999999999</ele>
        <time>2024-09-12T10:17:43Z</time>
      </trkpt>
      <trkpt lat="51.362779978662729" lon="11.047504032030702">
        <ele>138.56999999999999</ele>
        <time>2024-09-12T10:17:44Z</time>
      </trkpt>
      <trkpt lat="51.362762041389942" lon="11.047643003985286">
        <ele>138.56999999999999</ele>
        <time>2024-09-12T10:17:45Z</time>
      </trkpt>
      <trkpt lat="51.36263002641499" lon="11.048711026087403">
        <ele>138.56999999999999</ele>
        <time>2024-09-12T10:17:51Z</time>
      </trkpt>
      <trkpt lat="51.362660033628345" lon="11.049746023491025">
        <ele>137.13</ele>
        <time>2024-09-12T10:17:57Z</time>
      </trkpt>
      <trkpt lat="51.362681994214654" lon="11.049880972132087">
        <ele>137.13</ele>
        <time>2024-09-12T10:17:58Z</time>
      </trkpt>
      <trkpt lat="51.362741002812982" lon="11.049987003207207">
        <ele>137.61000000000001</ele>
        <time>2024-09-12T10:17:59Z</time>
      </trkpt>
      <trkpt lat="51.362811997532845" lon="11.05007803067565">
        <ele>137.61000000000001</ele>
        <time>2024-09-12T10:18:00Z</time>
      </trkpt>
      <trkpt lat="51.362905036658049" lon="11.050137039273977">
        <ele>137.61000000000001</ele>
        <time>2024-09-12T10:18:01Z</time>
      </trkpt>
      <trkpt lat="51.363005032762885" lon="11.050200993195176">
        <ele>137.61000000000001</ele>
        <time>2024-09-12T10:18:02Z</time>
      </trkpt>
      <trkpt lat="51.363112991675735" lon="11.050266958773136">
        <ele>137.61000000000001</ele>
        <time>2024-09-12T10:18:03Z</time>
      </trkpt>
      <trkpt lat="51.364344963803887" lon="11.051016971468925">
        <ele>137.61000000000001</ele>
        <time>2024-09-12T10:18:12Z</time>
      </trkpt>
      <trkpt lat="51.365892011672258" lon="11.05205699801445">
        <ele>138.56999999999999</ele>
        <time>2024-09-12T10:18:21Z</time>
      </trkpt>
      <trkpt lat="51.366050010547042" lon="11.052282974123955">
        <ele>139.05000000000001</ele>
        <time>2024-09-12T10:18:22Z</time>
      </trkpt>
      <trkpt lat="51.366704972460866" lon="11.053208000957966">
        <ele>140.00999999999999</ele>
        <time>2024-09-12T10:18:26Z</time>
      </trkpt>
      <trkpt lat="51.366904964670539" lon="11.053352002054453">
        <ele>140.00999999999999</ele>
        <time>2024-09-12T10:18:27Z</time>
      </trkpt>
      <trkpt lat="51.36815101839602" lon="11.054147025570273">
        <ele>143.37</ele>
        <time>2024-09-12T10:18:34Z</time>
      </trkpt>
      <trkpt lat="51.369084008038044" lon="11.054753959178925">
        <ele>148.66</ele>
        <time>2024-09-12T10:18:40Z</time>
      </trkpt>
      <trkpt lat="51.369195990264416" lon="11.054928973317146">
        <ele>149.62</ele>
        <time>2024-09-12T10:18:41Z</time>
      </trkpt>
      <trkpt lat="51.369304032996297" lon="11.055102981626987">
        <ele>150.58000000000001</ele>
        <time>2024-09-12T10:18:42Z</time>
      </trkpt>
      <trkpt lat="51.36937796138227" lon="11.055340021848679">
        <ele>151.53999999999999</ele>
        <time>2024-09-12T10:18:43Z</time>
      </trkpt>
      <trkpt lat="51.369455996900797" lon="11.055588964372873">
        <ele>152.50999999999999</ele>
        <time>2024-09-12T10:18:44Z</time>
      </trkpt>
      <trkpt lat="51.369520034641027" lon="11.055840002372861">
        <ele>152.99000000000001</ele>
        <time>2024-09-12T10:18:45Z</time>
      </trkpt>
      <trkpt lat="51.369533026590943" lon="11.056136973202229">
        <ele>153.94999999999999</ele>
        <time>2024-09-12T10:18:46Z</time>
      </trkpt>
      <trkpt lat="51.36950796470046" lon="11.056438973173499">
        <ele>154.91</ele>
        <time>2024-09-12T10:18:47Z</time>
      </trkpt>
      <trkpt lat="51.369452979415655" lon="11.056754970923066">
        <ele>156.34999999999999</ele>
        <time>2024-09-12T10:18:48Z</time>
      </trkpt>
      <trkpt lat="51.368693998083472" lon="11.060607964172959">
        <ele>165.47999999999999</ele>
        <time>2024-09-12T10:19:00Z</time>
      </trkpt>
      <trkpt lat="51.368197035044432" lon="11.062307981774211">
        <ele>168.37</ele>
        <time>2024-09-12T10:19:05Z</time>
      </trkpt>
      <trkpt lat="51.367847006767988" lon="11.06378898024559">
        <ele>170.28999999999999</ele>
        <time>2024-09-12T10:19:09Z</time>
      </trkpt>
      <trkpt lat="51.367733012884855" lon="11.064143031835556">
        <ele>170.77000000000001</ele>
        <time>2024-09-12T10:19:10Z</time>
      </trkpt>
      <trkpt lat="51.36759496293962" lon="11.064464980736375">
        <ele>171.25</ele>
        <time>2024-09-12T10:19:11Z</time>
      </trkpt>
      <trkpt lat="51.36669198051095" lon="11.066359039396048">
        <ele>170.28999999999999</ele>
        <time>2024-09-12T10:19:18Z</time>
      </trkpt>
      <trkpt lat="51.366576980799437" lon="11.066624997183681">
        <ele>170.28999999999999</ele>
        <time>2024-09-12T10:19:19Z</time>
      </trkpt>
      <trkpt lat="51.366486037150025" lon="11.066920962184668">
        <ele>169.81</ele>
        <time>2024-09-12T10:19:20Z</time>
      </trkpt>
      <trkpt lat="51.365840965881944" lon="11.0689000133425">
        <ele>166.93000000000001</ele>
        <time>2024-09-12T10:19:27Z</time>
      </trkpt>
      <trkpt lat="51.365695958957076" lon="11.069124983623624">
        <ele>166.44999999999999</ele>
        <time>2024-09-12T10:19:28Z</time>
      </trkpt>
      <trkpt lat="51.364635983482003" lon="11.071049971506">
        <ele>162.12</ele>
        <time>2024-09-12T10:19:36Z</time>
      </trkpt>
      <trkpt lat="51.363778011873364" lon="11.07405899092555">
        <ele>160.19999999999999</ele>
        <time>2024-09-12T10:19:46Z</time>
      </trkpt>
      <trkpt lat="51.363025987520814" lon="11.076224958524108">
        <ele>156.34999999999999</ele>
        <time>2024-09-12T10:19:54Z</time>
      </trkpt>
      <trkpt lat="51.362785007804632" lon="11.076950998976827">
        <ele>154.91</ele>
        <time>2024-09-12T10:19:57Z</time>
      </trkpt>
      <trkpt lat="51.362244039773941" lon="11.079605966806412">
        <ele>150.58000000000001</ele>
        <time>2024-09-12T10:20:07Z</time>
      </trkpt>
      <trkpt lat="51.362215960398316" lon="11.079834960401058">
        <ele>150.58000000000001</ele>
        <time>2024-09-12T10:20:08Z</time>
      </trkpt>
      <trkpt lat="51.362204980105162" lon="11.080042999237776">
        <ele>150.58000000000001</ele>
        <time>2024-09-12T10:20:09Z</time>
      </trkpt>
      <trkpt lat="51.36220003478229" lon="11.080223964527249">
        <ele>150.58000000000001</ele>
        <time>2024-09-12T10:20:10Z</time>
      </trkpt>
      <trkpt lat="51.36220003478229" lon="11.080391015857458">
        <ele>150.58000000000001</ele>
        <time>2024-09-12T10:20:11Z</time>
      </trkpt>
      <trkpt lat="51.36220003478229" lon="11.080543985590339">
        <ele>150.09999999999999</ele>
        <time>2024-09-12T10:20:12Z</time>
      </trkpt>
      <trkpt lat="51.362204980105162" lon="11.080687986686826">
        <ele>150.09999999999999</ele>
        <time>2024-09-12T10:20:13Z</time>
      </trkpt>
      <trkpt lat="51.36235099285841" lon="11.082100002095103">
        <ele>149.13999999999999</ele>
        <time>2024-09-12T10:20:23Z</time>
      </trkpt>
      <trkpt lat="51.362305982038379" lon="11.082742977887392">
        <ele>148.66</ele>
        <time>2024-09-12T10:20:28Z</time>
      </trkpt>
      <trkpt lat="51.362153012305498" lon="11.083689965307713">
        <ele>148.18000000000001</ele>
        <time>2024-09-12T10:20:34Z</time>
      </trkpt>
      <trkpt lat="51.36157700791955" lon="11.085682008415461">
        <ele>150.09999999999999</ele>
        <time>2024-09-12T10:20:43Z</time>
      </trkpt>
      <trkpt lat="51.361162019893527" lon="11.087821992114186">
        <ele>152.03</ele>
        <time>2024-09-12T10:20:52Z</time>
      </trkpt>
      <trkpt lat="51.360878963023424" lon="11.090047974139452">
        <ele>151.06</ele>
        <time>2024-09-12T10:21:02Z</time>
      </trkpt>
      <trkpt lat="51.360865971073508" lon="11.090272022411227">
        <ele>151.06</ele>
        <time>2024-09-12T10:21:03Z</time>
      </trkpt>
      <trkpt lat="51.360852979123592" lon="11.09049397520721">
        <ele>151.06</ele>
        <time>2024-09-12T10:21:04Z</time>
      </trkpt>
      <trkpt lat="51.360831018537283" lon="11.090717017650604">
        <ele>151.06</ele>
        <time>2024-09-12T10:21:05Z</time>
      </trkpt>
      <trkpt lat="51.360618034377694" lon="11.092408988624811">
        <ele>151.53999999999999</ele>
        <time>2024-09-12T10:21:14Z</time>
      </trkpt>
      <trkpt lat="51.360391974449158" lon="11.094293994829059">
        <ele>154.43000000000001</ele>
        <time>2024-09-12T10:21:24Z</time>
      </trkpt>
      <trkpt lat="51.360369008034468" lon="11.094485018402338">
        <ele>154.43000000000001</ele>
        <time>2024-09-12T10:21:25Z</time>
      </trkpt>
      <trkpt lat="51.360346041619778" lon="11.094675958156586">
        <ele>154.91</ele>
        <time>2024-09-12T10:21:26Z</time>
      </trkpt>
      <trkpt lat="51.360170021653175" lon="11.095867026597261">
        <ele>155.87</ele>
        <time>2024-09-12T10:21:34Z</time>
      </trkpt>
      <trkpt lat="51.360091986134648" lon="11.096147987991571">
        <ele>155.87</ele>
        <time>2024-09-12T10:21:37Z</time>
      </trkpt>
      <trkpt lat="51.360055021941662" lon="11.09622904099524">
        <ele>155.87</ele>
        <time>2024-09-12T10:21:38Z</time>
      </trkpt>
      <trkpt lat="51.360032977536321" lon="11.096276985481381">
        <ele>155.87</ele>
        <time>2024-09-12T10:21:39Z</time>
      </trkpt>
      <trkpt lat="51.359937004745007" lon="11.096349991858006">
        <ele>155.87</ele>
        <time>2024-09-12T10:21:40Z</time>
      </trkpt>
      <trkpt lat="51.359860980883241" lon="11.096405982971191">
        <ele>155.38999999999999</ele>
        <time>2024-09-12T10:21:41Z</time>
      </trkpt>
      <trkpt lat="51.359774982556701" lon="11.096425009891391">
        <ele>155.38999999999999</ele>
        <time>2024-09-12T10:21:42Z</time>
      </trkpt>
      <trkpt lat="51.359209958463907" lon="11.096554007381201">
        <ele>151.53999999999999</ele>
        <time>2024-09-12T10:21:48Z</time>
      </trkpt>
      <trkpt lat="51.359103005379438" lon="11.09657596796751">
        <ele>151.06</ele>
        <time>2024-09-12T10:21:49Z</time>
      </trkpt>
      <trkpt lat="51.359002003446221" lon="11.096545960754156">
        <ele>150.09999999999999</ele>
        <time>2024-09-12T10:21:50Z</time>
      </trkpt>
      <trkpt lat="51.358558014035225" lon="11.096416963264346">
        <ele>147.22</ele>
        <time>2024-09-12T10:21:55Z</time>
      </trkpt>
      <trkpt lat="51.358445025980473" lon="11.096385028213263">
        <ele>146.74000000000001</ele>
        <time>2024-09-12T10:21:56Z</time>
      </trkpt>
      <trkpt lat="51.357829039916396" lon="11.096435990184546">
        <ele>144.81999999999999</ele>
        <time>2024-09-12T10:22:03Z</time>
      </trkpt>
      <trkpt lat="51.357729965820909" lon="11.096412017941475">
        <ele>144.34</ele>
        <time>2024-09-12T10:22:04Z</time>
      </trkpt>
      <trkpt lat="51.35665699839592" lon="11.096038017421961">
        <ele>137.61000000000001</ele>
        <time>2024-09-12T10:22:15Z</time>
      </trkpt>
      <trkpt lat="51.356459017843008" lon="11.09595000743866">
        <ele>137.13</ele>
        <time>2024-09-12T10:22:17Z</time>
      </trkpt>
      <trkpt lat="51.356354998424649" lon="11.095906002447009">
        <ele>136.63999999999999</ele>
        <time>2024-09-12T10:22:18Z</time>
      </trkpt>
      <trkpt lat="51.356255002319813" lon="11.095857974141836">
        <ele>137.13</ele>
        <time>2024-09-12T10:22:19Z</time>
      </trkpt>
      <trkpt lat="51.356145031750202" lon="11.095826961100101">
        <ele>136.63999999999999</ele>
        <time>2024-09-12T10:22:20Z</time>
      </trkpt>
      <trkpt lat="51.356039000675082" lon="11.09580097720027">
        <ele>136.63999999999999</ele>
        <time>2024-09-12T10:22:21Z</time>
      </trkpt>
      <trkpt lat="51.354911969974637" lon="11.095532001927495">
        <ele>134.72</ele>
        <time>2024-09-12T10:22:32Z</time>
      </trkpt>
      <trkpt lat="51.354706026613712" lon="11.095562009140849">
        <ele>134.72</ele>
        <time>2024-09-12T10:22:34Z</time>
      </trkpt>
      <trkpt lat="51.354625979438424" lon="11.095611965283751">
        <ele>135.19999999999999</ele>
        <time>2024-09-12T10:22:35Z</time>
      </trkpt>
      <trkpt lat="51.354589015245438" lon="11.095732999965549">
        <ele>135.68000000000001</ele>
        <time>2024-09-12T10:22:36Z</time>
      </trkpt>
      <trkpt lat="51.354545010253787" lon="11.095880018547177">
        <ele>135.68000000000001</ele>
        <time>2024-09-12T10:22:37Z</time>
      </trkpt>
      <trkpt lat="51.354495976120234" lon="11.096039023250341">
        <ele>135.68000000000001</ele>
        <time>2024-09-12T10:22:38Z</time>
      </trkpt>
      <trkpt lat="51.354369996115565" lon="11.096384022384882">
        <ele>136.63999999999999</ele>
        <time>2024-09-12T10:22:40Z</time>
      </trkpt>
      <trkpt lat="51.354291038587689" lon="11.096507990732789">
        <ele>137.13</ele>
        <time>2024-09-12T10:22:41Z</time>
      </trkpt>
      <trkpt lat="51.354199005290866" lon="11.096619972959161">
        <ele>137.61000000000001</ele>
        <time>2024-09-12T10:22:42Z</time>
      </trkpt>
      <trkpt lat="51.354110995307565" lon="11.096711000427604">
        <ele>138.09</ele>
        <time>2024-09-12T10:22:43Z</time>
      </trkpt>
      <trkpt lat="51.354023991152644" lon="11.096801022067666">
        <ele>138.09</ele>
        <time>2024-09-12T10:22:44Z</time>
      </trkpt>
      <trkpt lat="51.353853000327945" lon="11.096977964043617">
        <ele>139.05000000000001</ele>
        <time>2024-09-12T10:22:46Z</time>
      </trkpt>
      <trkpt lat="51.353771025314927" lon="11.097063040360808">
        <ele>139.53</ele>
        <time>2024-09-12T10:22:47Z</time>
      </trkpt>
      <trkpt lat="51.353691983968019" lon="11.097144009545445">
        <ele>139.53</ele>
        <time>2024-09-12T10:22:48Z</time>
      </trkpt>
      <trkpt lat="51.353616965934634" lon="11.097221961244941">
        <ele>140.00999999999999</ele>
        <time>2024-09-12T10:22:49Z</time>
      </trkpt>
      <trkpt lat="51.353573966771364" lon="11.097331009805202">
        <ele>140.00999999999999</ele>
        <time>2024-09-12T10:22:50Z</time>
      </trkpt>
      <trkpt lat="51.353524010628462" lon="11.097460007295012">
        <ele>140.00999999999999</ele>
        <time>2024-09-12T10:22:51Z</time>
      </trkpt>
      <trkpt lat="51.353469025343657" lon="11.097598979249597">
        <ele>140.00999999999999</ele>
        <time>2024-09-12T10:22:52Z</time>
      </trkpt>
      <trkpt lat="51.353420997038484" lon="11.097730994224548">
        <ele>139.53</ele>
        <time>2024-09-12T10:22:53Z</time>
      </trkpt>
      <trkpt lat="51.353386966511607" lon="11.097889998927712">
        <ele>139.05000000000001</ele>
        <time>2024-09-12T10:22:54Z</time>
      </trkpt>
      <trkpt lat="51.353354025632143" lon="11.098050009459257">
        <ele>139.05000000000001</ele>
        <time>2024-09-12T10:22:55Z</time>
      </trkpt>
      <trkpt lat="51.353147998452187" lon="11.099899979308248">
        <ele>138.09</ele>
        <time>2024-09-12T10:23:05Z</time>
      </trkpt>
      <trkpt lat="51.353141041472554" lon="11.100650997832417">
        <ele>137.61000000000001</ele>
        <time>2024-09-12T10:23:09Z</time>
      </trkpt>
      <trkpt lat="51.353447986766696" lon="11.102301981300116">
        <ele>137.61000000000001</ele>
        <time>2024-09-12T10:23:19Z</time>
      </trkpt>
      <trkpt lat="51.354019967839122" lon="11.103871995583177">
        <ele>137.13</ele>
        <time>2024-09-12T10:23:30Z</time>
      </trkpt>
      <trkpt lat="51.354324985295534" lon="11.104669030755758">
        <ele>136.63999999999999</ele>
        <time>2024-09-12T10:23:36Z</time>
      </trkpt>
      <trkpt lat="51.354363961145282" lon="11.104762991890311">
        <ele>136.63999999999999</ele>
        <time>2024-09-12T10:23:37Z</time>
      </trkpt>
      <trkpt lat="51.354437973350286" lon="11.104748994112015">
        <ele>136.63999999999999</ele>
        <time>2024-09-12T10:23:38Z</time>
      </trkpt>
      <trkpt lat="51.354507962241769" lon="11.104722004383802">
        <ele>136.16</ele>
        <time>2024-09-12T10:23:39Z</time>
      </trkpt>
      <trkpt lat="51.354569988325238" lon="11.104677999392152">
        <ele>136.16</ele>
        <time>2024-09-12T10:23:40Z</time>
      </trkpt>
      <trkpt lat="51.354646012187004" lon="11.104599041864276">
        <ele>135.68000000000001</ele>
        <time>2024-09-12T10:23:41Z</time>
      </trkpt>
      <trkpt lat="51.35472496971488" lon="11.104515977203846">
        <ele>135.68000000000001</ele>
        <time>2024-09-12T10:23:42Z</time>
      </trkpt>
      <trkpt lat="51.354952035471797" lon="11.104278014972806">
        <ele>135.68000000000001</ele>
        <time>2024-09-12T10:23:46Z</time>
      </trkpt>
      <trkpt lat="51.354968966916203" lon="11.104259993880987">
        <ele>135.68000000000001</ele>
        <time>2024-09-12T10:23:47Z</time>
      </trkpt>
      <trkpt lat="51.355055971071124" lon="11.104271980002522">
        <ele>136.16</ele>
        <time>2024-09-12T10:23:48Z</time>
      </trkpt>
      <trkpt lat="51.355165019631386" lon="11.104314979165792">
        <ele>136.16</ele>
        <time>2024-09-12T10:23:50Z</time>
      </trkpt>
      <trkpt lat="51.355827022343874" lon="11.104799034073949">
        <ele>138.56999999999999</ele>
        <time>2024-09-12T10:24:01Z</time>
      </trkpt>
      <trkpt lat="51.355889970436692" lon="11.104843039065599">
        <ele>138.56999999999999</ele>
        <time>2024-09-12T10:24:02Z</time>
      </trkpt>
      <trkpt lat="51.355957025662065" lon="11.104890983551741">
        <ele>139.05000000000001</ele>
        <time>2024-09-12T10:24:03Z</time>
      </trkpt>
      <trkpt lat="51.356021985411644" lon="11.104938006028533">
        <ele>139.53</ele>
        <time>2024-09-12T10:24:04Z</time>
      </trkpt>
      <trkpt lat="51.356085017323494" lon="11.104982011020184">
        <ele>140.00999999999999</ele>
        <time>2024-09-12T10:24:05Z</time>
      </trkpt>
      <trkpt lat="51.356315016746521" lon="11.10514503903687">
        <ele>140.49000000000001</ele>
        <time>2024-09-12T10:24:09Z</time>
      </trkpt>
      <trkpt lat="51.356385005638003" lon="11.105194995179772">
        <ele>140.97</ele>
        <time>2024-09-12T10:24:10Z</time>
      </trkpt>
      <trkpt lat="51.356676025316119" lon="11.105400016531348">
        <ele>141.44999999999999</ele>
        <time>2024-09-12T10:24:14Z</time>
      </trkpt>
      <trkpt lat="51.356745008379221" lon="11.105449972674251">
        <ele>141.44999999999999</ele>
        <time>2024-09-12T10:24:15Z</time>
      </trkpt>
      <trkpt lat="51.356816003099084" lon="11.105500012636185">
        <ele>141.44999999999999</ele>
        <time>2024-09-12T10:24:16Z</time>
      </trkpt>
      <trkpt lat="51.35758101940155" lon="11.105988007038832">
        <ele>141.93000000000001</ele>
        <time>2024-09-12T10:24:26Z</time>
      </trkpt>
      <trkpt lat="51.358358021825552" lon="11.106335017830133">
        <ele>148.18000000000001</ele>
        <time>2024-09-12T10:24:37Z</time>
      </trkpt>
      <trkpt lat="51.358608976006508" lon="11.106423027813435">
        <ele>152.50999999999999</ele>
        <time>2024-09-12T10:24:45Z</time>
      </trkpt>
      <trkpt lat="51.358626997098327" lon="11.106428978964686">
        <ele>152.50999999999999</ele>
        <time>2024-09-12T10:24:49Z</time>
      </trkpt>
      <trkpt lat="51.358642000705004" lon="11.106434008106589">
        <ele>152.99000000000001</ele>
        <time>2024-09-12T10:24:50Z</time>
      </trkpt>
      <trkpt lat="51.358642000705004" lon="11.106434008106589">
        <ele>153.94999999999999</ele>
        <time>2024-09-12T10:25:06Z</time>
      </trkpt>
      <trkpt lat="51.358709977939725" lon="11.106451023370028">
        <ele>154.43000000000001</ele>
        <time>2024-09-12T10:25:15Z</time>
      </trkpt>
      <trkpt lat="51.358746020123363" lon="11.106454962864518">
        <ele>154.91</ele>
        <time>2024-09-12T10:25:16Z</time>
      </trkpt>
      <trkpt lat="51.358772004023194" lon="11.106456974521279">
        <ele>154.91</ele>
        <time>2024-09-12T10:25:17Z</time>
      </trkpt>
      <trkpt lat="51.358795976266265" lon="11.106459992006421">
        <ele>155.38999999999999</ele>
        <time>2024-09-12T10:25:18Z</time>
      </trkpt>
      <trkpt lat="51.358795976266265" lon="11.106459992006421">
        <ele>154.91</ele>
        <time>2024-09-12T10:25:31Z</time>
      </trkpt>
      <trkpt lat="51.358795976266265" lon="11.106459992006421">
        <ele>153.94999999999999</ele>
        <time>2024-09-12T10:25:44Z</time>
      </trkpt>
      <trkpt lat="51.358795976266265" lon="11.106459992006421">
        <ele>153.47</ele>
        <time>2024-09-12T10:26:03Z</time>
      </trkpt>
      <trkpt lat="51.358872000128031" lon="11.106189005076885">
        <ele>148.66</ele>
        <time>2024-09-12T10:26:13Z</time>
      </trkpt>
      <trkpt lat="51.358864959329367" lon="11.106109041720629">
        <ele>148.18000000000001</ele>
        <time>2024-09-12T10:26:14Z</time>
      </trkpt>
      <trkpt lat="51.358826989308" lon="11.10566396266222">
        <ele>142.88999999999999</ele>
        <time>2024-09-12T10:26:21Z</time>
      </trkpt>
      <trkpt lat="51.358824977651238" lon="11.105635967105627">
        <ele>142.41</ele>
        <time>2024-09-12T10:26:22Z</time>
      </trkpt>
      <trkpt lat="51.358822965994477" lon="11.105610989034176">
        <ele>141.93000000000001</ele>
        <time>2024-09-12T10:26:23Z</time>
      </trkpt>
      <trkpt lat="51.358820032328367" lon="11.105582993477583">
        <ele>141.44999999999999</ele>
        <time>2024-09-12T10:26:24Z</time>
      </trkpt>
      <trkpt lat="51.358818020671606" lon="11.105559021234512">
        <ele>140.49000000000001</ele>
        <time>2024-09-12T10:26:25Z</time>
      </trkpt>
      <trkpt lat="51.358818020671606" lon="11.105559021234512">
        <ele>136.63999999999999</ele>
        <time>2024-09-12T10:26:39Z</time>
      </trkpt>
      <trkpt lat="51.358734034001827" lon="11.105703022330999">
        <ele>174.62</ele>
        <time>2024-09-12T10:38:10Z</time>
      </trkpt>
      <trkpt lat="51.35880402289331" lon="11.105559021234512">
        <ele>154.43000000000001</ele>
        <time>2024-09-12T10:38:43Z</time>
      </trkpt>
      <trkpt lat="51.358803017064929" lon="11.105520967394114">
        <ele>151.06</ele>
        <time>2024-09-12T10:39:23Z</time>
      </trkpt>
      <trkpt lat="51.35880402289331" lon="11.105552986264229">
        <ele>151.53999999999999</ele>
        <time>2024-09-12T10:40:01Z</time>
      </trkpt>
      <trkpt lat="51.358806034550071" lon="11.105549968779087">
        <ele>151.53999999999999</ele>
        <time>2024-09-12T10:40:35Z</time>
      </trkpt>
      <trkpt lat="51.358781978487968" lon="11.105493977665901">
        <ele>151.06</ele>
        <time>2024-09-12T10:40:56Z</time>
      </trkpt>
      <trkpt lat="51.358781978487968" lon="11.105493977665901">
        <ele>151.06</ele>
        <time>2024-09-12T10:41:01Z</time>
      </trkpt>
      <trkpt lat="51.35871903039515" lon="11.105346959084272">
        <ele>150.09999999999999</ele>
        <time>2024-09-12T10:41:06Z</time>
      </trkpt>
      <trkpt lat="51.358684999868274" lon="11.105304965749383">
        <ele>149.62</ele>
        <time>2024-09-12T10:41:07Z</time>
      </trkpt>
      <trkpt lat="51.35844100266695" lon="11.105089969933033">
        <ele>148.66</ele>
        <time>2024-09-12T10:41:12Z</time>
      </trkpt>
      <trkpt lat="51.357820993289351" lon="11.104815965518355">
        <ele>145.78</ele>
        <time>2024-09-12T10:41:22Z</time>
      </trkpt>
      <trkpt lat="51.357423020526767" lon="11.104611027985811">
        <ele>143.84999999999999</ele>
        <time>2024-09-12T10:41:28Z</time>
      </trkpt>
      <trkpt lat="51.35670100338757" lon="11.10411498695612">
        <ele>140.97</ele>
        <time>2024-09-12T10:41:39Z</time>
      </trkpt>
      <trkpt lat="51.356621040031314" lon="11.104069976136088">
        <ele>140.97</ele>
        <time>2024-09-12T10:41:40Z</time>
      </trkpt>
      <trkpt lat="51.355989966541529" lon="11.103705028072">
        <ele>140.49000000000001</ele>
        <time>2024-09-12T10:41:50Z</time>
      </trkpt>
      <trkpt lat="51.355925006791949" lon="11.103664040565491">
        <ele>140.49000000000001</ele>
        <time>2024-09-12T10:41:51Z</time>
      </trkpt>
      <trkpt lat="51.35586298070848" lon="11.103624980896711">
        <ele>140.49000000000001</ele>
        <time>2024-09-12T10:41:53Z</time>
      </trkpt>
      <trkpt lat="51.355804977938533" lon="11.103588016703725">
        <ele>140.49000000000001</ele>
        <time>2024-09-12T10:41:54Z</time>
      </trkpt>
      <trkpt lat="51.355745969340205" lon="11.103550968691707">
        <ele>140.49000000000001</ele>
        <time>2024-09-12T10:41:55Z</time>
      </trkpt>
      <trkpt lat="51.355685032904148" lon="11.103511992841959">
        <ele>140.49000000000001</ele>
        <time>2024-09-12T10:41:56Z</time>
      </trkpt>
      <trkpt lat="51.35545302182436" lon="11.10336396843195">
        <ele>139.53</ele>
        <time>2024-09-12T10:41:59Z</time>
      </trkpt>
      <trkpt lat="51.355397030711174" lon="11.103328010067344">
        <ele>139.53</ele>
        <time>2024-09-12T10:42:00Z</time>
      </trkpt>
      <trkpt lat="51.355342967435718" lon="11.103348964825273">
        <ele>139.05000000000001</ele>
        <time>2024-09-12T10:42:02Z</time>
      </trkpt>
      <trkpt lat="51.355179017409682" lon="11.10351299867034">
        <ele>139.05000000000001</ele>
        <time>2024-09-12T10:42:04Z</time>
      </trkpt>
      <trkpt lat="51.355124032124877" lon="11.103567983955145">
        <ele>139.05000000000001</ele>
        <time>2024-09-12T10:42:05Z</time>
      </trkpt>
      <trkpt lat="51.355076003819704" lon="11.103616012260318">
        <ele>139.05000000000001</ele>
        <time>2024-09-12T10:42:06Z</time>
      </trkpt>
      <trkpt lat="51.355043984949589" lon="11.103810975328088">
        <ele>139.05000000000001</ele>
        <time>2024-09-12T10:42:08Z</time>
      </trkpt>
      <trkpt lat="51.35502596385777" lon="11.103916000574827">
        <ele>138.56999999999999</ele>
        <time>2024-09-12T10:42:09Z</time>
      </trkpt>
      <trkpt lat="51.355008026584983" lon="11.104023959487677">
        <ele>138.56999999999999</ele>
        <time>2024-09-12T10:42:11Z</time>
      </trkpt>
      <trkpt lat="51.354968966916203" lon="11.104259993880987">
        <ele>138.56999999999999</ele>
        <time>2024-09-12T10:42:13Z</time>
      </trkpt>
      <trkpt lat="51.354906018823385" lon="11.104325959458947">
        <ele>138.09</ele>
        <time>2024-09-12T10:42:15Z</time>
      </trkpt>
      <trkpt lat="51.354823959991336" lon="11.104411035776138">
        <ele>138.09</ele>
        <time>2024-09-12T10:42:17Z</time>
      </trkpt>
      <trkpt lat="51.354581974446774" lon="11.104666013270617">
        <ele>137.61000000000001</ele>
        <time>2024-09-12T10:42:27Z</time>
      </trkpt>
      <trkpt lat="51.354521038010716" lon="11.104716975241899">
        <ele>138.56999999999999</ele>
        <time>2024-09-12T10:42:47Z</time>
      </trkpt>
      <trkpt lat="51.35442104190588" lon="11.104755029082298">
        <ele>138.56999999999999</ele>
        <time>2024-09-12T10:42:49Z</time>
      </trkpt>
      <trkpt lat="51.354329008609056" lon="11.104680011048913">
        <ele>138.09</ele>
        <time>2024-09-12T10:42:50Z</time>
      </trkpt>
      <trkpt lat="51.35429497808218" lon="11.104598036035895">
        <ele>138.56999999999999</ele>
        <time>2024-09-12T10:42:51Z</time>
      </trkpt>
      <trkpt lat="51.353841014206409" lon="11.10338400118053">
        <ele>137.13</ele>
        <time>2024-09-12T10:43:00Z</time>
      </trkpt>
      <trkpt lat="51.353315971791744" lon="11.101680966094136">
        <ele>138.09</ele>
        <time>2024-09-12T10:43:13Z</time>
      </trkpt>
      <trkpt lat="51.353144980967045" lon="11.100692991167307">
        <ele>137.61000000000001</ele>
        <time>2024-09-12T10:43:20Z</time>
      </trkpt>
      <trkpt lat="51.353125032037497" lon="11.100430972874165">
        <ele>137.13</ele>
        <time>2024-09-12T10:43:22Z</time>
      </trkpt>
      <trkpt lat="51.353250006213784" lon="11.098684016615152">
        <ele>138.09</ele>
        <time>2024-09-12T10:43:33Z</time>
      </trkpt>
      <trkpt lat="51.353273978456855" lon="11.09852802939713">
        <ele>138.09</ele>
        <time>2024-09-12T10:43:40Z</time>
      </trkpt>
      <trkpt lat="51.35328495875001" lon="11.098458962514997">
        <ele>138.56999999999999</ele>
        <time>2024-09-12T10:43:54Z</time>
      </trkpt>
      <trkpt lat="51.353296022862196" lon="11.098391991108656">
        <ele>138.56999999999999</ele>
        <time>2024-09-12T10:43:56Z</time>
      </trkpt>
      <trkpt lat="51.353532979264855" lon="11.097436035051942">
        <ele>137.61000000000001</ele>
        <time>2024-09-12T10:44:05Z</time>
      </trkpt>
      <trkpt lat="51.35358402505517" lon="11.097307037562132">
        <ele>137.61000000000001</ele>
        <time>2024-09-12T10:44:07Z</time>
      </trkpt>
      <trkpt lat="51.353736994788051" lon="11.097097992897034">
        <ele>137.13</ele>
        <time>2024-09-12T10:44:08Z</time>
      </trkpt>
      <trkpt lat="51.353825004771352" lon="11.097006965428591">
        <ele>137.13</ele>
        <time>2024-09-12T10:44:09Z</time>
      </trkpt>
      <trkpt lat="51.353903040289879" lon="11.096925996243954">
        <ele>136.63999999999999</ele>
        <time>2024-09-12T10:44:10Z</time>
      </trkpt>
      <trkpt lat="51.353976968675852" lon="11.096849972382188">
        <ele>136.63999999999999</ele>
        <time>2024-09-12T10:44:11Z</time>
      </trkpt>
      <trkpt lat="51.354049975052476" lon="11.096774032339454">
        <ele>136.63999999999999</ele>
        <time>2024-09-12T10:44:12Z</time>
      </trkpt>
      <trkpt lat="51.354197999462485" lon="11.096621984615922">
        <ele>137.13</ele>
        <time>2024-09-12T10:44:15Z</time>
      </trkpt>
      <trkpt lat="51.354335965588689" lon="11.096439007669687">
        <ele>137.13</ele>
        <time>2024-09-12T10:44:16Z</time>
      </trkpt>
      <trkpt lat="51.354410983622074" lon="11.096319984644651">
        <ele>137.61000000000001</ele>
        <time>2024-09-12T10:44:17Z</time>
      </trkpt>
      <trkpt lat="51.354601001366973" lon="11.09569301828742">
        <ele>138.09</ele>
        <time>2024-09-12T10:44:23Z</time>
      </trkpt>
      <trkpt lat="51.354710971936584" lon="11.095558991655707">
        <ele>138.09</ele>
        <time>2024-09-12T10:44:24Z</time>
      </trkpt>
      <trkpt lat="51.354766963049769" lon="11.095524039119482">
        <ele>137.61000000000001</ele>
        <time>2024-09-12T10:44:25Z</time>
      </trkpt>
      <trkpt lat="51.354827983304858" lon="11.095511969178915">
        <ele>137.61000000000001</ele>
        <time>2024-09-12T10:44:26Z</time>
      </trkpt>
      <trkpt lat="51.354886991903186" lon="11.095525966957211">
        <ele>137.61000000000001</ele>
        <time>2024-09-12T10:44:27Z</time>
      </trkpt>
      <trkpt lat="51.354952035471797" lon="11.095540970563889">
        <ele>137.61000000000001</ele>
        <time>2024-09-12T10:44:28Z</time>
      </trkpt>
      <trkpt lat="51.355656031519175" lon="11.095709027722478">
        <ele>138.09</ele>
        <time>2024-09-12T10:44:36Z</time>
      </trkpt>
      <trkpt lat="51.356740985065699" lon="11.096071964129806">
        <ele>137.61000000000001</ele>
        <time>2024-09-12T10:44:47Z</time>
      </trkpt>
      <trkpt lat="51.356941983103752" lon="11.096154022961855">
        <ele>138.09</ele>
        <time>2024-09-12T10:44:50Z</time>
      </trkpt>
      <trkpt lat="51.357378009706736" lon="11.096327025443316">
        <ele>138.56999999999999</ele>
        <time>2024-09-12T10:44:53Z</time>
      </trkpt>
      <trkpt lat="51.357811018824577" lon="11.096430961042643">
        <ele>139.53</ele>
        <time>2024-09-12T10:44:57Z</time>
      </trkpt>
      <trkpt lat="51.357917971909046" lon="11.096457028761506">
        <ele>139.53</ele>
        <time>2024-09-12T10:44:58Z</time>
      </trkpt>
      <trkpt lat="51.358021991327405" lon="11.096461974084377">
        <ele>140.00999999999999</ele>
        <time>2024-09-12T10:44:59Z</time>
      </trkpt>
      <trkpt lat="51.358129028230906" lon="11.096442025154829">
        <ele>140.49000000000001</ele>
        <time>2024-09-12T10:45:00Z</time>
      </trkpt>
      <trkpt lat="51.358234975486994" lon="11.09642299823463">
        <ele>140.49000000000001</ele>
        <time>2024-09-12T10:45:01Z</time>
      </trkpt>
      <trkpt lat="51.358445025980473" lon="11.096385028213263">
        <ele>140.97</ele>
        <time>2024-09-12T10:45:03Z</time>
      </trkpt>
      <trkpt lat="51.358664967119694" lon="11.096448982134461">
        <ele>141.93000000000001</ele>
        <time>2024-09-12T10:45:05Z</time>
      </trkpt>
      <trkpt lat="51.358767980709672" lon="11.096477983519435">
        <ele>142.41</ele>
        <time>2024-09-12T10:45:07Z</time>
      </trkpt>
      <trkpt lat="51.358932014554739" lon="11.096526011824608">
        <ele>142.88999999999999</ele>
        <time>2024-09-12T10:45:13Z</time>
      </trkpt>
      <trkpt lat="51.35895699262619" lon="11.09653296880424">
        <ele>142.88999999999999</ele>
        <time>2024-09-12T10:45:30Z</time>
      </trkpt>
      <trkpt lat="51.358991023153067" lon="11.096543027088046">
        <ele>142.88999999999999</ele>
        <time>2024-09-12T10:45:31Z</time>
      </trkpt>
      <trkpt lat="51.359043996781111" lon="11.096558030694723">
        <ele>142.88999999999999</ele>
        <time>2024-09-12T10:45:32Z</time>
      </trkpt>
      <trkpt lat="51.359107028692961" lon="11.09657596796751">
        <ele>142.88999999999999</ele>
        <time>2024-09-12T10:45:33Z</time>
      </trkpt>
      <trkpt lat="51.35917198844254" lon="11.096562976017594">
        <ele>143.37</ele>
        <time>2024-09-12T10:45:34Z</time>
      </trkpt>
      <trkpt lat="51.359249018132687" lon="11.096545038744807">
        <ele>143.37</ele>
        <time>2024-09-12T10:45:35Z</time>
      </trkpt>
      <trkpt lat="51.359330993145704" lon="11.096525005996227">
        <ele>143.37</ele>
        <time>2024-09-12T10:45:36Z</time>
      </trkpt>
      <trkpt lat="51.359415985643864" lon="11.096504973247647">
        <ele>143.84999999999999</ele>
        <time>2024-09-12T10:45:37Z</time>
      </trkpt>
      <trkpt lat="51.360603030771017" lon="11.09644403681159">
        <ele>149.13999999999999</ele>
        <time>2024-09-12T10:45:49Z</time>
      </trkpt>
      <trkpt lat="51.360970996320248" lon="11.096507990732789">
        <ele>152.50999999999999</ele>
        <time>2024-09-12T10:45:52Z</time>
      </trkpt>
      <trkpt lat="51.361100999638438" lon="11.096461974084377">
        <ele>153.94999999999999</ele>
        <time>2024-09-12T10:45:53Z</time>
      </trkpt>
      <trkpt lat="51.361229997128248" lon="11.096398020163178">
        <ele>154.91</ele>
        <time>2024-09-12T10:45:54Z</time>
      </trkpt>
      <trkpt lat="51.361352959647775" lon="11.096319984644651">
        <ele>155.87</ele>
        <time>2024-09-12T10:45:55Z</time>
      </trkpt>
      <trkpt lat="51.361477011814713" lon="11.096233986318111">
        <ele>156.83000000000001</ele>
        <time>2024-09-12T10:45:56Z</time>
      </trkpt>
      <trkpt lat="51.361856963485479" lon="11.095959981903434">
        <ele>159.72</ele>
        <time>2024-09-12T10:45:59Z</time>
      </trkpt>
      <trkpt lat="51.36314601637423" lon="11.094965972006321">
        <ele>167.88999999999999</ele>
        <time>2024-09-12T10:46:10Z</time>
      </trkpt>
      <trkpt lat="51.363278031349182" lon="11.094894977286458">
        <ele>168.37</ele>
        <time>2024-09-12T10:46:11Z</time>
      </trkpt>
      <trkpt lat="51.36370500549674" lon="11.094845021143556">
        <ele>169.33000000000001</ele>
        <time>2024-09-12T10:46:13Z</time>
      </trkpt>
      <trkpt lat="51.364151006564498" lon="11.094862958416343">
        <ele>171.25</ele>
        <time>2024-09-12T10:46:16Z</time>
      </trkpt>
      <trkpt lat="51.36428696103394" lon="11.094877040013671">
        <ele>171.72999999999999</ele>
        <time>2024-09-12T10:46:17Z</time>
      </trkpt>
      <trkpt lat="51.36441595852375" lon="11.094891037791967">
        <ele>172.21000000000001</ele>
        <time>2024-09-12T10:46:18Z</time>
      </trkpt>
      <trkpt lat="51.364571023732424" lon="11.094896988943219">
        <ele>172.69</ele>
        <time>2024-09-12T10:46:19Z</time>
      </trkpt>
      <trkpt lat="51.364741008728743" lon="11.094858013093472">
        <ele>173.16999999999999</ele>
        <time>2024-09-12T10:46:20Z</time>
      </trkpt>
      <trkpt lat="51.364920968189836" lon="11.094771008938551">
        <ele>173.66</ele>
        <time>2024-09-12T10:46:21Z</time>
      </trkpt>
      <trkpt lat="51.365086007863283" lon="11.094658020883799">
        <ele>174.13999999999999</ele>
        <time>2024-09-12T10:46:22Z</time>
      </trkpt>
      <trkpt lat="51.365225985646248" lon="11.094517959281802">
        <ele>174.62</ele>
        <time>2024-09-12T10:46:23Z</time>
      </trkpt>
      <trkpt lat="51.365325981751084" lon="11.09434001147747">
        <ele>175.09999999999999</ele>
        <time>2024-09-12T10:46:24Z</time>
      </trkpt>
      <trkpt lat="51.365442993119359" lon="11.094133984297514">
        <ele>175.58000000000001</ele>
        <time>2024-09-12T10:46:25Z</time>
      </trkpt>
      <trkpt lat="51.365537038072944" lon="11.093933992087841">
        <ele>176.06</ele>
        <time>2024-09-12T10:46:26Z</time>
      </trkpt>
      <trkpt lat="51.365619013085961" lon="11.093701981008053">
        <ele>176.53999999999999</ele>
        <time>2024-09-12T10:46:27Z</time>
      </trkpt>
      <trkpt lat="51.36570199392736" lon="11.093467958271503">
        <ele>177.5</ele>
        <time>2024-09-12T10:46:29Z</time>
      </trkpt>
      <trkpt lat="51.365886982530355" lon="11.092950962483883">
        <ele>178.46000000000001</ele>
        <time>2024-09-12T10:46:30Z</time>
      </trkpt>
      <trkpt lat="51.366353016346693" lon="11.091986959800124">
        <ele>180.87</ele>
        <time>2024-09-12T10:46:35Z</time>
      </trkpt>
      <trkpt lat="51.366472961381078" lon="11.091828960925341">
        <ele>181.83000000000001</ele>
        <time>2024-09-12T10:46:36Z</time>
      </trkpt>
      <trkpt lat="51.366771021857858" lon="11.091492008417845">
        <ele>182.78999999999999</ele>
        <time>2024-09-12T10:46:38Z</time>
      </trkpt>
      <trkpt lat="51.36686397716403" lon="11.091420007869601">
        <ele>183.27000000000001</ele>
        <time>2024-09-12T10:46:39Z</time>
      </trkpt>
      <trkpt lat="51.367118032649159" lon="11.091240970417857">
        <ele>186.15000000000001</ele>
        <time>2024-09-12T10:46:41Z</time>
      </trkpt>
      <trkpt lat="51.367329005151987" lon="11.091152960434556">
        <ele>189.03999999999999</ele>
        <time>2024-09-12T10:46:43Z</time>
      </trkpt>
      <trkpt lat="51.367448028177023" lon="11.091110967099667">
        <ele>190.47999999999999</ele>
        <time>2024-09-12T10:46:44Z</time>
      </trkpt>
      <trkpt lat="51.367551041767001" lon="11.091092023998499">
        <ele>191.91999999999999</ele>
        <time>2024-09-12T10:46:45Z</time>
      </trkpt>
      <trkpt lat="51.367800990119576" lon="11.091255974024534">
        <ele>192.88</ele>
        <time>2024-09-12T10:46:46Z</time>
      </trkpt>
      <trkpt lat="51.368283033370972" lon="11.092242021113634">
        <ele>199.61000000000001</ele>
        <time>2024-09-12T10:46:52Z</time>
      </trkpt>
      <trkpt lat="51.368429968133569" lon="11.092543015256524">
        <ele>201.53</ele>
        <time>2024-09-12T10:46:54Z</time>
      </trkpt>
      <trkpt lat="51.368728028610349" lon="11.093151960521936">
        <ele>204.41999999999999</ele>
        <time>2024-09-12T10:46:58Z</time>
      </trkpt>
      <trkpt lat="51.36879701167345" lon="11.093205017969012">
        <ele>204.90000000000001</ele>
        <time>2024-09-12T10:46:59Z</time>
      </trkpt>
      <trkpt lat="51.368894996121526" lon="11.093237036839128">
        <ele>205.38</ele>
        <time>2024-09-12T10:47:00Z</time>
      </trkpt>
      <trkpt lat="51.368961967527866" lon="11.093213986605406">
        <ele>205.86000000000001</ele>
        <time>2024-09-12T10:47:01Z</time>
      </trkpt>
      <trkpt lat="51.369036985561252" lon="11.093097981065512">
        <ele>205.86000000000001</ele>
        <time>2024-09-12T10:47:02Z</time>
      </trkpt>
      <trkpt lat="51.369131030514836" lon="11.092950962483883">
        <ele>205.86000000000001</ele>
        <time>2024-09-12T10:47:03Z</time>
      </trkpt>
      <trkpt lat="51.369199007749557" lon="11.092817019671202">
        <ele>206.34</ele>
        <time>2024-09-12T10:47:04Z</time>
      </trkpt>
      <trkpt lat="51.369291041046381" lon="11.092632031068206">
        <ele>206.34</ele>
        <time>2024-09-12T10:47:05Z</time>
      </trkpt>
      <trkpt lat="51.369394976645708" lon="11.092423992231488">
        <ele>206.81999999999999</ele>
        <time>2024-09-12T10:47:06Z</time>
      </trkpt>
      <trkpt lat="51.369409980252385" lon="11.092393985018134">
        <ele>207.30000000000001</ele>
        <time>2024-09-12T10:47:07Z</time>
      </trkpt>
      <trkpt lat="51.369624976068735" lon="11.092140013352036">
        <ele>207.78</ele>
        <time>2024-09-12T10:47:08Z</time>
      </trkpt>
      <trkpt lat="51.369752967730165" lon="11.091988971456885">
        <ele>208.25999999999999</ele>
        <time>2024-09-12T10:47:10Z</time>
      </trkpt>
      <trkpt lat="51.370355961844325" lon="11.090611992403865">
        <ele>211.15000000000001</ele>
        <time>2024-09-12T10:47:15Z</time>
      </trkpt>
      <trkpt lat="51.370437014847994" lon="11.090437984094024">
        <ele>212.11000000000001</ele>
        <time>2024-09-12T10:47:16Z</time>
      </trkpt>
      <trkpt lat="51.370528964325786" lon="11.09027897939086">
        <ele>213.06999999999999</ele>
        <time>2024-09-12T10:47:17Z</time>
      </trkpt>
      <trkpt lat="51.370598031207919" lon="11.090221982449293">
        <ele>214.50999999999999</ele>
        <time>2024-09-12T10:47:18Z</time>
      </trkpt>
      <trkpt lat="51.370761981233954" lon="11.090140007436275">
        <ele>215.94999999999999</ele>
        <time>2024-09-12T10:47:19Z</time>
      </trkpt>
      <trkpt lat="51.370887961238623" lon="11.090122992172837">
        <ele>216.91</ele>
        <time>2024-09-12T10:47:20Z</time>
      </trkpt>
      <trkpt lat="51.371085019782186" lon="11.090088961645961">
        <ele>217.88</ele>
        <time>2024-09-12T10:47:21Z</time>
      </trkpt>
      <trkpt lat="51.371277971193194" lon="11.090012015774846">
        <ele>218.84</ele>
        <time>2024-09-12T10:47:22Z</time>
      </trkpt>
      <trkpt lat="51.371491961181164" lon="11.089926017448306">
        <ele>220.28</ele>
        <time>2024-09-12T10:47:24Z</time>
      </trkpt>
      <trkpt lat="51.37178398668766" lon="11.089662993326783">
        <ele>221.72</ele>
        <time>2024-09-12T10:47:26Z</time>
      </trkpt>
      <trkpt lat="51.371921030804515" lon="11.089540030807257">
        <ele>222.68000000000001</ele>
        <time>2024-09-12T10:47:27Z</time>
      </trkpt>
      <trkpt lat="51.372157987207174" lon="11.089551011100411">
        <ele>223.16</ele>
        <time>2024-09-12T10:47:28Z</time>
      </trkpt>
      <trkpt lat="51.372312968596816" lon="11.089681014418602">
        <ele>224.12</ele>
        <time>2024-09-12T10:47:29Z</time>
      </trkpt>
      <trkpt lat="51.372438026592135" lon="11.089876983314753">
        <ele>224.61000000000001</ele>
        <time>2024-09-12T10:47:30Z</time>
      </trkpt>
      <trkpt lat="51.372568029910326" lon="11.090078987181187">
        <ele>225.56999999999999</ele>
        <time>2024-09-12T10:47:32Z</time>
      </trkpt>
      <trkpt lat="51.373031968250871" lon="11.091045001521707">
        <ele>228.93000000000001</ele>
        <time>2024-09-12T10:47:36Z</time>
      </trkpt>
      <trkpt lat="51.373311001807451" lon="11.091364016756415">
        <ele>229.41</ele>
        <time>2024-09-12T10:47:37Z</time>
      </trkpt>
      <trkpt lat="51.373474029824138" lon="11.091497959569097">
        <ele>230.37</ele>
        <time>2024-09-12T10:47:38Z</time>
      </trkpt>
      <trkpt lat="51.37363001704216" lon="11.091626035049558">
        <ele>232.30000000000001</ele>
        <time>2024-09-12T10:47:40Z</time>
      </trkpt>
      <trkpt lat="51.373851969838142" lon="11.091879000887275">
        <ele>233.74000000000001</ele>
        <time>2024-09-12T10:47:41Z</time>
      </trkpt>
      <trkpt lat="51.373897986486554" lon="11.092119980603456">
        <ele>234.69999999999999</ele>
        <time>2024-09-12T10:47:42Z</time>
      </trkpt>
      <trkpt lat="51.373937968164682" lon="11.092329025268555">
        <ele>235.66</ele>
        <time>2024-09-12T10:47:43Z</time>
      </trkpt>
      <trkpt lat="51.373925982043147" lon="11.092571010813117">
        <ele>236.62</ele>
        <time>2024-09-12T10:47:44Z</time>
      </trkpt>
      <trkpt lat="51.373912990093231" lon="11.092839986085892">
        <ele>237.58000000000001</ele>
        <time>2024-09-12T10:47:45Z</time>
      </trkpt>
      <trkpt lat="51.373898992314935" lon="11.093121031299233">
        <ele>237.58000000000001</ele>
        <time>2024-09-12T10:47:46Z</time>
      </trkpt>
      <trkpt lat="51.373946014791727" lon="11.093433005735278">
        <ele>238.53999999999999</ele>
        <time>2024-09-12T10:47:47Z</time>
      </trkpt>
      <trkpt lat="51.374040981754661" lon="11.093688989058137">
        <ele>239.50999999999999</ele>
        <time>2024-09-12T10:47:48Z</time>
      </trkpt>
      <trkpt lat="51.374141983687878" lon="11.093934997916222">
        <ele>240.47</ele>
        <time>2024-09-12T10:47:49Z</time>
      </trkpt>
      <trkpt lat="51.374303000047803" lon="11.094139013439417">
        <ele>241.91</ele>
        <time>2024-09-12T10:47:50Z</time>
      </trkpt>
      <trkpt lat="51.374452030286193" lon="11.094317967072129">
        <ele>242.38999999999999</ele>
        <time>2024-09-12T10:47:51Z</time>
      </trkpt>
      <trkpt lat="51.37459603138268" lon="11.09448904171586">
        <ele>244.78999999999999</ele>
        <time>2024-09-12T10:47:53Z</time>
      </trkpt>
      <trkpt lat="51.374710025265813" lon="11.094624996185303">
        <ele>246.22999999999999</ele>
        <time>2024-09-12T10:47:54Z</time>
      </trkpt>
      <trkpt lat="51.374884033575654" lon="11.094615021720529">
        <ele>248.63999999999999</ele>
        <time>2024-09-12T10:47:56Z</time>
      </trkpt>
      <trkpt lat="51.374925021082163" lon="11.094581997022033">
        <ele>250.08000000000001</ele>
        <time>2024-09-12T10:47:57Z</time>
      </trkpt>
      <trkpt lat="51.375157032161951" lon="11.094086039811373">
        <ele>252</ele>
        <time>2024-09-12T10:47:59Z</time>
      </trkpt>
      <trkpt lat="51.375268008559942" lon="11.094000963494182">
        <ele>252.96000000000001</ele>
        <time>2024-09-12T10:48:00Z</time>
      </trkpt>
      <trkpt lat="51.375387031584978" lon="11.09391001984477">
        <ele>253.93000000000001</ele>
        <time>2024-09-12T10:48:01Z</time>
      </trkpt>
      <trkpt lat="51.375495996326208" lon="11.093827039003372">
        <ele>254.88999999999999</ele>
        <time>2024-09-12T10:48:02Z</time>
      </trkpt>
      <trkpt lat="51.375546958297491" lon="11.093787979334593">
        <ele>256.81</ele>
        <time>2024-09-12T10:48:04Z</time>
      </trkpt>
      <trkpt lat="51.375560034066439" lon="11.093656970188022">
        <ele>257.76999999999998</ele>
        <time>2024-09-12T10:48:05Z</time>
      </trkpt>
      <trkpt lat="51.375569002702832" lon="11.093573989346623">
        <ele>258.25</ele>
        <time>2024-09-12T10:48:06Z</time>
      </trkpt>
      <trkpt lat="51.375519968569279" lon="11.093439040705562">
        <ele>259.20999999999998</ele>
        <time>2024-09-12T10:48:07Z</time>
      </trkpt>
      <trkpt lat="51.375475963577628" lon="11.093335021287203">
        <ele>260.17000000000002</ele>
        <time>2024-09-12T10:48:08Z</time>
      </trkpt>
      <trkpt lat="51.375351995229721" lon="11.093280036002398">
        <ele>260.64999999999998</ele>
        <time>2024-09-12T10:48:09Z</time>
      </trkpt>
      <trkpt lat="51.375222997739911" lon="11.09322203323245">
        <ele>261.13999999999999</ele>
        <time>2024-09-12T10:48:10Z</time>
      </trkpt>
      <trkpt lat="51.375096011906862" lon="11.093165958300233">
        <ele>262.57999999999998</ele>
        <time>2024-09-12T10:48:11Z</time>
      </trkpt>
      <trkpt lat="51.374988975003362" lon="11.093102004379034">
        <ele>263.54000000000002</ele>
        <time>2024-09-12T10:48:12Z</time>
      </trkpt>
      <trkpt lat="51.374875986948609" lon="11.093011982738972">
        <ele>264.5</ele>
        <time>2024-09-12T10:48:13Z</time>
      </trkpt>
      <trkpt lat="51.374847991392016" lon="11.092883991077542">
        <ele>265.45999999999998</ele>
        <time>2024-09-12T10:48:14Z</time>
      </trkpt>
      <trkpt lat="51.374868024140596" lon="11.092706965282559">
        <ele>266.42000000000002</ele>
        <time>2024-09-12T10:48:15Z</time>
      </trkpt>
      <trkpt lat="51.374904988333583" lon="11.092530023306608">
        <ele>266.89999999999998</ele>
        <time>2024-09-12T10:48:16Z</time>
      </trkpt>
      <trkpt lat="51.375360041856766" lon="11.09049397520721">
        <ele>273.14999999999998</ele>
        <time>2024-09-12T10:48:23Z</time>
      </trkpt>
      <trkpt lat="51.375968987122178" lon="11.088458010926843">
        <ele>281.31999999999999</ele>
        <time>2024-09-12T10:48:32Z</time>
      </trkpt>
      <trkpt lat="51.376036964356899" lon="11.08826195821166">
        <ele>281.80000000000001</ele>
        <time>2024-09-12T10:48:33Z</time>
      </trkpt>
      <trkpt lat="51.376113994047046" lon="11.088105970993638">
        <ele>282.76999999999998</ele>
        <time>2024-09-12T10:48:34Z</time>
      </trkpt>
      <trkpt lat="51.376197980716825" lon="11.087974961847067">
        <ele>283.73000000000002</ele>
        <time>2024-09-12T10:48:35Z</time>
      </trkpt>
      <trkpt lat="51.376285990700126" lon="11.087903967127204">
        <ele>284.69</ele>
        <time>2024-09-12T10:48:36Z</time>
      </trkpt>
      <trkpt lat="51.37640199624002" lon="11.08782903291285">
        <ele>285.64999999999998</ele>
        <time>2024-09-12T10:48:37Z</time>
      </trkpt>
      <trkpt lat="51.376547003164887" lon="11.087734987959266">
        <ele>286.61000000000001</ele>
        <time>2024-09-12T10:48:38Z</time>
      </trkpt>
      <trkpt lat="51.377058969810605" lon="11.087424019351602">
        <ele>289.97000000000003</ele>
        <time>2024-09-12T10:48:41Z</time>
      </trkpt>
      <trkpt lat="51.377215040847659" lon="11.087328968569636">
        <ele>291.42000000000002</ele>
        <time>2024-09-12T10:48:42Z</time>
      </trkpt>
      <trkpt lat="51.377361975610256" lon="11.087280018255115">
        <ele>292.38</ele>
        <time>2024-09-12T10:48:43Z</time>
      </trkpt>
      <trkpt lat="51.37752098031342" lon="11.087265014648437">
        <ele>293.33999999999997</ele>
        <time>2024-09-12T10:48:44Z</time>
      </trkpt>
      <trkpt lat="51.377660036087036" lon="11.087341960519552">
        <ele>294.30000000000001</ele>
        <time>2024-09-12T10:48:45Z</time>
      </trkpt>
      <trkpt lat="51.377792973071337" lon="11.087501971051097">
        <ele>294.77999999999997</ele>
        <time>2024-09-12T10:48:46Z</time>
      </trkpt>
      <trkpt lat="51.37790503911674" lon="11.087686959654093">
        <ele>295.25999999999999</ele>
        <time>2024-09-12T10:48:47Z</time>
      </trkpt>
      <trkpt lat="51.37809899635613" lon="11.087985020130873">
        <ele>296.22000000000003</ele>
        <time>2024-09-12T10:48:48Z</time>
      </trkpt>
      <trkpt lat="51.37820603325963" lon="11.088051991537213">
        <ele>296.69999999999999</ele>
        <time>2024-09-12T10:48:49Z</time>
      </trkpt>
      <trkpt lat="51.378324972465634" lon="11.088028019294143">
        <ele>297.18000000000001</ele>
        <time>2024-09-12T10:48:50Z</time>
      </trkpt>
      <trkpt lat="51.378436032682657" lon="11.0879179649055">
        <ele>297.18000000000001</ele>
        <time>2024-09-12T10:48:51Z</time>
      </trkpt>
      <trkpt lat="51.378542985767126" lon="11.087749991565943">
        <ele>297.67000000000002</ele>
        <time>2024-09-12T10:48:52Z</time>
      </trkpt>
      <trkpt lat="51.378643987700343" lon="11.087590986862779">
        <ele>299.11000000000001</ele>
        <time>2024-09-12T10:48:54Z</time>
      </trkpt>
      <trkpt lat="51.37870098464191" lon="11.087500965222716">
        <ele>300.06999999999999</ele>
        <time>2024-09-12T10:48:55Z</time>
      </trkpt>
      <trkpt lat="51.378839034587145" lon="11.087451009079814">
        <ele>301.50999999999999</ele>
        <time>2024-09-12T10:48:56Z</time>
      </trkpt>
      <trkpt lat="51.378955040127039" lon="11.087432987987995">
        <ele>302.47000000000003</ele>
        <time>2024-09-12T10:48:57Z</time>
      </trkpt>
      <trkpt lat="51.379056964069605" lon="11.087534995749593">
        <ele>303.43000000000001</ele>
        <time>2024-09-12T10:48:58Z</time>
      </trkpt>
      <trkpt lat="51.379168024286628" lon="11.087668016552925">
        <ele>304.38999999999999</ele>
        <time>2024-09-12T10:48:59Z</time>
      </trkpt>
      <trkpt lat="51.379742017015815" lon="11.0890559758991">
        <ele>310.63999999999999</ele>
        <time>2024-09-12T10:49:05Z</time>
      </trkpt>
      <trkpt lat="51.37984000146389" lon="11.089319000020623">
        <ele>312.08999999999997</ele>
        <time>2024-09-12T10:49:06Z</time>
      </trkpt>
      <trkpt lat="51.379933962598443" lon="11.08957196585834">
        <ele>313.05000000000001</ele>
        <time>2024-09-12T10:49:07Z</time>
      </trkpt>
      <trkpt lat="51.380015015602112" lon="11.090433038771152">
        <ele>316.41000000000003</ele>
        <time>2024-09-12T10:49:10Z</time>
      </trkpt>
      <trkpt lat="51.380036976188421" lon="11.090692961588502">
        <ele>317.37</ele>
        <time>2024-09-12T10:49:11Z</time>
      </trkpt>
      <trkpt lat="51.380052985623479" lon="11.090891025960445">
        <ele>318.32999999999998</ele>
        <time>2024-09-12T10:49:12Z</time>
      </trkpt>
      <trkpt lat="51.380133032798767" lon="11.091035027056932">
        <ele>319.77999999999997</ele>
        <time>2024-09-12T10:49:13Z</time>
      </trkpt>
      <trkpt lat="51.380201010033488" lon="11.091097975149751">
        <ele>320.74000000000001</ele>
        <time>2024-09-12T10:49:14Z</time>
      </trkpt>
      <trkpt lat="51.380289020016789" lon="11.091127982363105">
        <ele>321.22000000000003</ele>
        <time>2024-09-12T10:49:15Z</time>
      </trkpt>
      <trkpt lat="51.380364038050175" lon="11.091064028441906">
        <ele>321.22000000000003</ele>
        <time>2024-09-12T10:49:16Z</time>
      </trkpt>
      <trkpt lat="51.380456993356347" lon="11.090946011245251">
        <ele>321.22000000000003</ele>
        <time>2024-09-12T10:49:17Z</time>
      </trkpt>
      <trkpt lat="51.381187979131937" lon="11.088862018659711">
        <ele>327.47000000000003</ele>
        <time>2024-09-12T10:49:25Z</time>
      </trkpt>
      <trkpt lat="51.382593037560582" lon="11.084935013204813">
        <ele>343.81</ele>
        <time>2024-09-12T10:49:36Z</time>
      </trkpt>
      <trkpt lat="51.382909035310149" lon="11.084091039374471">
        <ele>348.13</ele>
        <time>2024-09-12T10:49:40Z</time>
      </trkpt>
      <trkpt lat="51.383137023076415" lon="11.083674039691687">
        <ele>349.10000000000002</ele>
        <time>2024-09-12T10:49:41Z</time>
      </trkpt>
      <trkpt lat="51.383282030001283" lon="11.08355300500989">
        <ele>349.57999999999998</ele>
        <time>2024-09-12T10:49:42Z</time>
      </trkpt>
      <trkpt lat="51.383436005562544" lon="11.083501959219575">
        <ele>350.06</ele>
        <time>2024-09-12T10:49:43Z</time>
      </trkpt>
      <trkpt lat="51.383597021922469" lon="11.083498019725084">
        <ele>351.5</ele>
        <time>2024-09-12T10:49:45Z</time>
      </trkpt>
      <trkpt lat="51.384892025962472" lon="11.084093973040581">
        <ele>354.38</ele>
        <time>2024-09-12T10:49:51Z</time>
      </trkpt>
      <trkpt lat="51.386508978903294" lon="11.084726974368095">
        <ele>354.86000000000001</ele>
        <time>2024-09-12T10:49:57Z</time>
      </trkpt>
      <trkpt lat="51.386663960292935" lon="11.084695961326361">
        <ele>354.86000000000001</ele>
        <time>2024-09-12T10:49:58Z</time>
      </trkpt>
      <trkpt lat="51.386826988309622" lon="11.084580961614847">
        <ele>354.38</ele>
        <time>2024-09-12T10:49:59Z</time>
      </trkpt>
      <trkpt lat="51.386951962485909" lon="11.084411982446909">
        <ele>353.89999999999998</ele>
        <time>2024-09-12T10:50:00Z</time>
      </trkpt>
      <trkpt lat="51.387089006602764" lon="11.084189023822546">
        <ele>353.42000000000002</ele>
        <time>2024-09-12T10:50:01Z</time>
      </trkpt>
      <trkpt lat="51.387232001870871" lon="11.083932034671307">
        <ele>352.94</ele>
        <time>2024-09-12T10:50:02Z</time>
      </trkpt>
      <trkpt lat="51.388729009777308" lon="11.081257034093142">
        <ele>351.98000000000002</ele>
        <time>2024-09-12T10:50:11Z</time>
      </trkpt>
      <trkpt lat="51.389557980000973" lon="11.079842001199722">
        <ele>354.38</ele>
        <time>2024-09-12T10:50:17Z</time>
      </trkpt>
      <trkpt lat="51.390139013528824" lon="11.079285023733974">
        <ele>354.86000000000001</ele>
        <time>2024-09-12T10:50:19Z</time>
      </trkpt>
      <trkpt lat="51.391621017828584" lon="11.078108036890626">
        <ele>354.38</ele>
        <time>2024-09-12T10:50:26Z</time>
      </trkpt>
      <trkpt lat="51.392925996333361" lon="11.076987963169813">
        <ele>357.26999999999998</ele>
        <time>2024-09-12T10:50:33Z</time>
      </trkpt>
      <trkpt lat="51.393059017136693" lon="11.07682996429503">
        <ele>357.75</ele>
        <time>2024-09-12T10:50:34Z</time>
      </trkpt>
      <trkpt lat="51.39328901655972" lon="11.076461998745799">
        <ele>359.67000000000002</ele>
        <time>2024-09-12T10:50:36Z</time>
      </trkpt>
      <trkpt lat="51.394194010645151" lon="11.074905982241035">
        <ele>368.80000000000001</ele>
        <time>2024-09-12T10:50:45Z</time>
      </trkpt>
      <trkpt lat="51.394493998959661" lon="11.074518989771605">
        <ele>370.73000000000002</ele>
        <time>2024-09-12T10:50:48Z</time>
      </trkpt>
      <trkpt lat="51.394644035026431" lon="11.074436008930206">
        <ele>371.69</ele>
        <time>2024-09-12T10:50:49Z</time>
      </trkpt>
      <trkpt lat="51.394778983667493" lon="11.074360990896821">
        <ele>372.17000000000002</ele>
        <time>2024-09-12T10:50:50Z</time>
      </trkpt>
      <trkpt lat="51.394908986985683" lon="11.074297036975622">
        <ele>373.13</ele>
        <time>2024-09-12T10:50:52Z</time>
      </trkpt>
      <trkpt lat="51.395319029688835" lon="11.074190000072122">
        <ele>374.08999999999997</ele>
        <time>2024-09-12T10:50:55Z</time>
      </trkpt>
      <trkpt lat="51.395871983841062" lon="11.074184970930219">
        <ele>375.52999999999997</ele>
        <time>2024-09-12T10:50:58Z</time>
      </trkpt>
      <trkpt lat="51.395982038229704" lon="11.074269041419029">
        <ele>375.52999999999997</ele>
        <time>2024-09-12T10:50:59Z</time>
      </trkpt>
      <trkpt lat="51.39608102850616" lon="11.074390998110175">
        <ele>376.00999999999999</ele>
        <time>2024-09-12T10:51:00Z</time>
      </trkpt>
      <trkpt lat="51.396171972155571" lon="11.074580010026693">
        <ele>376.00999999999999</ele>
        <time>2024-09-12T10:51:01Z</time>
      </trkpt>
      <trkpt lat="51.396274985745549" lon="11.074795005843043">
        <ele>375.52999999999997</ele>
        <time>2024-09-12T10:51:02Z</time>
      </trkpt>
      <trkpt lat="51.396983005106449" lon="11.076251026242971">
        <ele>373.13</ele>
        <time>2024-09-12T10:51:07Z</time>
      </trkpt>
      <trkpt lat="51.398310028016567" lon="11.079086037352681">
        <ele>371.69</ele>
        <time>2024-09-12T10:51:16Z</time>
      </trkpt>
      <trkpt lat="51.398727027699351" lon="11.079929005354643">
        <ele>372.17000000000002</ele>
        <time>2024-09-12T10:51:18Z</time>
      </trkpt>
      <trkpt lat="51.398873962461948" lon="11.08013897202909">
        <ele>372.64999999999998</ele>
        <time>2024-09-12T10:51:19Z</time>
      </trkpt>
      <trkpt lat="51.399021986871958" lon="11.080312980338931">
        <ele>372.64999999999998</ele>
        <time>2024-09-12T10:51:20Z</time>
      </trkpt>
      <trkpt lat="51.399226002395153" lon="11.080411970615387">
        <ele>372.64999999999998</ele>
        <time>2024-09-12T10:51:21Z</time>
      </trkpt>
      <trkpt lat="51.399434041231871" lon="11.080512972548604">
        <ele>373.13</ele>
        <time>2024-09-12T10:51:22Z</time>
      </trkpt>
      <trkpt lat="51.399661023169756" lon="11.080623026937246">
        <ele>374.08999999999997</ele>
        <time>2024-09-12T10:51:23Z</time>
      </trkpt>
      <trkpt lat="51.399897979572415" lon="11.08073903247714">
        <ele>374.56999999999999</ele>
        <time>2024-09-12T10:51:24Z</time>
      </trkpt>
      <trkpt lat="51.400127978995442" lon="11.080851014703512">
        <ele>375.52999999999997</ele>
        <time>2024-09-12T10:51:25Z</time>
      </trkpt>
      <trkpt lat="51.401423988863826" lon="11.081508994102478">
        <ele>380.81999999999999</ele>
        <time>2024-09-12T10:51:31Z</time>
      </trkpt>
      <trkpt lat="51.401610989123583" lon="11.08168501406908">
        <ele>381.77999999999997</ele>
        <time>2024-09-12T10:51:32Z</time>
      </trkpt>
      <trkpt lat="51.402005022391677" lon="11.082054991275072">
        <ele>383.69999999999999</ele>
        <time>2024-09-12T10:51:34Z</time>
      </trkpt>
      <trkpt lat="51.40222798101604" lon="11.082205027341843">
        <ele>386.11000000000001</ele>
        <time>2024-09-12T10:51:36Z</time>
      </trkpt>
      <trkpt lat="51.403206987306476" lon="11.082835011184216">
        <ele>389.94999999999999</ele>
        <time>2024-09-12T10:51:41Z</time>
      </trkpt>
      <trkpt lat="51.403438998386264" lon="11.083153020590544">
        <ele>390.43000000000001</ele>
        <time>2024-09-12T10:51:42Z</time>
      </trkpt>
      <trkpt lat="51.403527008369565" lon="11.083394000306726">
        <ele>391.38999999999999</ele>
        <time>2024-09-12T10:51:43Z</time>
      </trkpt>
      <trkpt lat="51.403625998646021" lon="11.083668004721403">
        <ele>391.87</ele>
        <time>2024-09-12T10:51:44Z</time>
      </trkpt>
      <trkpt lat="51.40371099114418" lon="11.083990959450603">
        <ele>392.83999999999997</ele>
        <time>2024-09-12T10:51:45Z</time>
      </trkpt>
      <trkpt lat="51.403775028884411" lon="11.084341993555427">
        <ele>393.31999999999999</ele>
        <time>2024-09-12T10:51:46Z</time>
      </trkpt>
      <trkpt lat="51.403831019997597" lon="11.084718005731702">
        <ele>393.80000000000001</ele>
        <time>2024-09-12T10:51:47Z</time>
      </trkpt>
      <trkpt lat="51.403878964483738" lon="11.085107009857893">
        <ele>395.24000000000001</ele>
        <time>2024-09-12T10:51:49Z</time>
      </trkpt>
      <trkpt lat="51.403999999165535" lon="11.08714397996664">
        <ele>398.60000000000002</ele>
        <time>2024-09-12T10:51:55Z</time>
      </trkpt>
      <trkpt lat="51.404165960848331" lon="11.08748696744442">
        <ele>398.60000000000002</ele>
        <time>2024-09-12T10:51:56Z</time>
      </trkpt>
      <trkpt lat="51.40426998026669" lon="11.087612025439739">
        <ele>398.60000000000002</ele>
        <time>2024-09-12T10:51:57Z</time>
      </trkpt>
      <trkpt lat="51.404384979978204" lon="11.087644966319203">
        <ele>398.60000000000002</ele>
        <time>2024-09-12T10:51:58Z</time>
      </trkpt>
      <trkpt lat="51.404487993568182" lon="11.087611019611359">
        <ele>398.60000000000002</ele>
        <time>2024-09-12T10:51:59Z</time>
      </trkpt>
      <trkpt lat="51.404597964137793" lon="11.087556034326553">
        <ele>399.07999999999998</ele>
        <time>2024-09-12T10:52:00Z</time>
      </trkpt>
      <trkpt lat="51.404724027961493" lon="11.087455032393336">
        <ele>399.56999999999999</ele>
        <time>2024-09-12T10:52:01Z</time>
      </trkpt>
      <trkpt lat="51.404858976602554" lon="11.087301978841424">
        <ele>399.56999999999999</ele>
        <time>2024-09-12T10:52:02Z</time>
      </trkpt>
      <trkpt lat="51.405913000926375" lon="11.086105965077877">
        <ele>402.93000000000001</ele>
        <time>2024-09-12T10:52:08Z</time>
      </trkpt>
      <trkpt lat="51.408387003466487" lon="11.08333800919354">
        <ele>417.82999999999998</ele>
        <time>2024-09-12T10:52:20Z</time>
      </trkpt>
      <trkpt lat="51.40985400415957" lon="11.081763971596956">
        <ele>430.32999999999998</ele>
        <time>2024-09-12T10:52:28Z</time>
      </trkpt>
      <trkpt lat="51.410042010247707" lon="11.081632962450385">
        <ele>431.76999999999998</ele>
        <time>2024-09-12T10:52:29Z</time>
      </trkpt>
      <trkpt lat="51.410248037427664" lon="11.081566996872425">
        <ele>433.20999999999998</ele>
        <time>2024-09-12T10:52:30Z</time>
      </trkpt>
      <trkpt lat="51.410884978249669" lon="11.08136398717761">
        <ele>437.54000000000002</ele>
        <time>2024-09-12T10:52:33Z</time>
      </trkpt>
      <trkpt lat="51.411076001822948" lon="11.081240018829703">
        <ele>438.98000000000002</ele>
        <time>2024-09-12T10:52:34Z</time>
      </trkpt>
      <trkpt lat="51.411256967112422" lon="11.081088976934552">
        <ele>439.94</ele>
        <time>2024-09-12T10:52:35Z</time>
      </trkpt>
      <trkpt lat="51.411434998735785" lon="11.080941036343575">
        <ele>440.89999999999998</ele>
        <time>2024-09-12T10:52:36Z</time>
      </trkpt>
      <trkpt lat="51.411586040630937" lon="11.080723023042083">
        <ele>442.33999999999997</ele>
        <time>2024-09-12T10:52:37Z</time>
      </trkpt>
      <trkpt lat="51.411730963736773" lon="11.080489000305533">
        <ele>443.31</ele>
        <time>2024-09-12T10:52:38Z</time>
      </trkpt>
      <trkpt lat="51.411879993975163" lon="11.080250032246113">
        <ele>444.26999999999998</ele>
        <time>2024-09-12T10:52:39Z</time>
      </trkpt>
      <trkpt lat="51.413277005776763" lon="11.078002005815506">
        <ele>446.19</ele>
        <time>2024-09-12T10:52:48Z</time>
      </trkpt>
      <trkpt lat="51.41355000436306" lon="11.077599003911018">
        <ele>446.19</ele>
        <time>2024-09-12T10:52:50Z</time>
      </trkpt>
      <trkpt lat="51.413676990196109" lon="11.077437987551093">
        <ele>445.70999999999998</ele>
        <time>2024-09-12T10:52:51Z</time>
      </trkpt>
      <trkpt lat="51.413827026262879" lon="11.077367998659611">
        <ele>445.70999999999998</ele>
        <time>2024-09-12T10:52:53Z</time>
      </trkpt>
      <trkpt lat="51.414148975163698" lon="11.077278982847929">
        <ele>445.70999999999998</ele>
        <time>2024-09-12T10:52:54Z</time>
      </trkpt>
      <trkpt lat="51.414148975163698" lon="11.077278982847929">
        <ele>445.70999999999998</ele>
        <time>2024-09-12T10:52:55Z</time>
      </trkpt>
      <trkpt lat="51.415728963911533" lon="11.077211005613208">
        <ele>446.19</ele>
        <time>2024-09-12T10:53:02Z</time>
      </trkpt>
      <trkpt lat="51.416191980242729" lon="11.077235983684659">
        <ele>446.67000000000002</ele>
        <time>2024-09-12T10:53:05Z</time>
      </trkpt>
      <trkpt lat="51.416319971904159" lon="11.077312007546425">
        <ele>447.14999999999998</ele>
        <time>2024-09-12T10:53:06Z</time>
      </trkpt>
      <trkpt lat="51.416436983272433" lon="11.0774290189147">
        <ele>447.14999999999998</ele>
        <time>2024-09-12T10:53:07Z</time>
      </trkpt>
      <trkpt lat="51.416520969942212" lon="11.077571008354425">
        <ele>447.63</ele>
        <time>2024-09-12T10:53:08Z</time>
      </trkpt>
      <trkpt lat="51.416594982147217" lon="11.077724983915687">
        <ele>448.11000000000001</ele>
        <time>2024-09-12T10:53:09Z</time>
      </trkpt>
      <trkpt lat="51.416664971038699" lon="11.077873008325696">
        <ele>448.58999999999997</ele>
        <time>2024-09-12T10:53:10Z</time>
      </trkpt>
      <trkpt lat="51.416723979637027" lon="11.077994965016842">
        <ele>448.58999999999997</ele>
        <time>2024-09-12T10:53:12Z</time>
      </trkpt>
      <trkpt lat="51.416849037632346" lon="11.078322026878595">
        <ele>448.11000000000001</ele>
        <time>2024-09-12T10:53:14Z</time>
      </trkpt>
      <trkpt lat="51.416806038469076" lon="11.078542973846197">
        <ele>448.11000000000001</ele>
        <time>2024-09-12T10:53:15Z</time>
      </trkpt>
      <trkpt lat="51.416559023782611" lon="11.079819034785032">
        <ele>446.67000000000002</ele>
        <time>2024-09-12T10:53:23Z</time>
      </trkpt>
      <trkpt lat="51.416229028254747" lon="11.081582000479102">
        <ele>442.81999999999999</ele>
        <time>2024-09-12T10:53:30Z</time>
      </trkpt>
      <trkpt lat="51.41571999527514" lon="11.084480965510011">
        <ele>437.06</ele>
        <time>2024-09-12T10:53:40Z</time>
      </trkpt>
      <trkpt lat="51.4156149700284" lon="11.086987992748618">
        <ele>431.76999999999998</ele>
        <time>2024-09-12T10:53:48Z</time>
      </trkpt>
      <trkpt lat="51.415622010827065" lon="11.087265014648437">
        <ele>430.81</ele>
        <time>2024-09-12T10:53:49Z</time>
      </trkpt>
      <trkpt lat="51.415641037747264" lon="11.087518986314535">
        <ele>430.32999999999998</ele>
        <time>2024-09-12T10:53:50Z</time>
      </trkpt>
      <trkpt lat="51.415800964459777" lon="11.088231028988957">
        <ele>427.44</ele>
        <time>2024-09-12T10:53:53Z</time>
      </trkpt>
      <trkpt lat="51.415809011086822" lon="11.088502015918493">
        <ele>426.95999999999998</ele>
        <time>2024-09-12T10:53:54Z</time>
      </trkpt>
      <trkpt lat="51.415768023580313" lon="11.088767973706126">
        <ele>426</ele>
        <time>2024-09-12T10:53:55Z</time>
      </trkpt>
      <trkpt lat="51.415713960304856" lon="11.089044995605946">
        <ele>425.51999999999998</ele>
        <time>2024-09-12T10:53:56Z</time>
      </trkpt>
      <trkpt lat="51.41565503552556" lon="11.089349007233977">
        <ele>425.04000000000002</ele>
        <time>2024-09-12T10:53:57Z</time>
      </trkpt>
      <trkpt lat="51.415240969508886" lon="11.091879000887275">
        <ele>418.31</ele>
        <time>2024-09-12T10:54:05Z</time>
      </trkpt>
      <trkpt lat="51.415210040286183" lon="11.092176977545023">
        <ele>417.35000000000002</ele>
        <time>2024-09-12T10:54:06Z</time>
      </trkpt>
      <trkpt lat="51.415200987830758" lon="11.092504039406776">
        <ele>416.38999999999999</ele>
        <time>2024-09-12T10:54:07Z</time>
      </trkpt>
      <trkpt lat="51.415200987830758" lon="11.092845015227795">
        <ele>415.43000000000001</ele>
        <time>2024-09-12T10:54:08Z</time>
      </trkpt>
      <trkpt lat="51.415200987830758" lon="11.093191020190716">
        <ele>414.47000000000003</ele>
        <time>2024-09-12T10:54:09Z</time>
      </trkpt>
      <trkpt lat="51.415200987830758" lon="11.093543982133269">
        <ele>413.5</ele>
        <time>2024-09-12T10:54:10Z</time>
      </trkpt>
      <trkpt lat="51.415197970345616" lon="11.093891998752952">
        <ele>412.54000000000002</ele>
        <time>2024-09-12T10:54:11Z</time>
      </trkpt>
      <trkpt lat="51.414827993139625" lon="11.096062995493412">
        <ele>406.76999999999998</ele>
        <time>2024-09-12T10:54:18Z</time>
      </trkpt>
      <trkpt lat="51.414730008691549" lon="11.096353009343147">
        <ele>405.81</ele>
        <time>2024-09-12T10:54:19Z</time>
      </trkpt>
      <trkpt lat="51.414365982636809" lon="11.097431005910039">
        <ele>401.97000000000003</ele>
        <time>2024-09-12T10:54:23Z</time>
      </trkpt>
      <trkpt lat="51.414318960160017" lon="11.09766997396946">
        <ele>401.00999999999999</ele>
        <time>2024-09-12T10:54:24Z</time>
      </trkpt>
      <trkpt lat="51.414289958775043" lon="11.097882958129048">
        <ele>400.05000000000001</ele>
        <time>2024-09-12T10:54:25Z</time>
      </trkpt>
      <trkpt lat="51.414277972653508" lon="11.099301008507609">
        <ele>390.43000000000001</ele>
        <time>2024-09-12T10:54:33Z</time>
      </trkpt>
      <trkpt lat="51.414143024012446" lon="11.100261993706226">
        <ele>385.14999999999998</ele>
        <time>2024-09-12T10:54:41Z</time>
      </trkpt>
      <trkpt lat="51.414050990715623" lon="11.100599030032754">
        <ele>382.74000000000001</ele>
        <time>2024-09-12T10:54:46Z</time>
      </trkpt>
      <trkpt lat="51.414031041786075" lon="11.100672036409378">
        <ele>382.74000000000001</ele>
        <time>2024-09-12T10:54:48Z</time>
      </trkpt>
      <trkpt lat="51.413886034861207" lon="11.101176040247083">
        <ele>381.30000000000001</ele>
        <time>2024-09-12T10:54:55Z</time>
      </trkpt>
      <trkpt lat="51.413769023492932" lon="11.1015809699893">
        <ele>382.74000000000001</ele>
        <time>2024-09-12T10:55:03Z</time>
      </trkpt>
      <trkpt lat="51.413760976865888" lon="11.101606031879783">
        <ele>382.25999999999999</ele>
        <time>2024-09-12T10:55:04Z</time>
      </trkpt>
      <trkpt lat="51.413667015731335" lon="11.101689012721181">
        <ele>382.25999999999999</ele>
        <time>2024-09-12T10:55:06Z</time>
      </trkpt>
      <trkpt lat="51.41359300352633" lon="11.101604020223022">
        <ele>383.22000000000003</ele>
        <time>2024-09-12T10:55:18Z</time>
      </trkpt>
      <trkpt lat="51.41357003711164" lon="11.101577030494809">
        <ele>382.74000000000001</ele>
        <time>2024-09-12T10:55:19Z</time>
      </trkpt>
      <trkpt lat="51.413694005459547" lon="11.101493965834379">
        <ele>388.02999999999997</ele>
        <time>2024-09-12T10:56:11Z</time>
      </trkpt>
      <trkpt lat="51.413576994091272" lon="11.101554986089468">
        <ele>392.36000000000001</ele>
        <time>2024-09-12T10:56:31Z</time>
      </trkpt>
      <trkpt lat="51.413557967171073" lon="11.101520033553243">
        <ele>393.31999999999999</ele>
        <time>2024-09-12T10:56:39Z</time>
      </trkpt>
      <trkpt lat="51.41355000436306" lon="11.101475022733212">
        <ele>393.31999999999999</ele>
        <time>2024-09-12T10:56:40Z</time>
      </trkpt>
      <trkpt lat="51.413536006584764" lon="11.10140603967011">
        <ele>393.31999999999999</ele>
        <time>2024-09-12T10:56:41Z</time>
      </trkpt>
      <trkpt lat="51.413518991321325" lon="11.10132398083806">
        <ele>392.83999999999997</ele>
        <time>2024-09-12T10:56:42Z</time>
      </trkpt>
      <trkpt lat="51.413552016019821" lon="11.101089036092162">
        <ele>390.91000000000003</ele>
        <time>2024-09-12T10:56:44Z</time>
      </trkpt>
      <trkpt lat="51.413580011576414" lon="11.100989961996675">
        <ele>390.91000000000003</ele>
        <time>2024-09-12T10:56:45Z</time>
      </trkpt>
      <trkpt lat="51.413685036823153" lon="11.100773038342595">
        <ele>390.43000000000001</ele>
        <time>2024-09-12T10:56:48Z</time>
      </trkpt>
      <trkpt lat="51.413713032379746" lon="11.100735990330577">
        <ele>390.43000000000001</ele>
        <time>2024-09-12T10:56:49Z</time>
      </trkpt>
      <trkpt lat="51.413753014057875" lon="11.100683016702533">
        <ele>390.43000000000001</ele>
        <time>2024-09-12T10:56:55Z</time>
      </trkpt>
      <trkpt lat="51.413827026262879" lon="11.100614033639431">
        <ele>390.43000000000001</ele>
        <time>2024-09-12T10:56:56Z</time>
      </trkpt>
      <trkpt lat="51.413929034024477" lon="11.101024998351932">
        <ele>392.36000000000001</ele>
        <time>2024-09-12T10:56:59Z</time>
      </trkpt>
      <trkpt lat="51.413906989619136" lon="11.101102028042078">
        <ele>392.36000000000001</ele>
        <time>2024-09-12T10:57:00Z</time>
      </trkpt>
      <trkpt lat="51.413882011547685" lon="11.101187020540237">
        <ele>392.36000000000001</ele>
        <time>2024-09-12T10:57:01Z</time>
      </trkpt>
      <trkpt lat="51.413726024329662" lon="11.10173000022769">
        <ele>392.36000000000001</ele>
        <time>2024-09-12T10:57:10Z</time>
      </trkpt>
      <trkpt lat="51.41369903460145" lon="11.101855980232358">
        <ele>392.36000000000001</ele>
        <time>2024-09-12T10:57:13Z</time>
      </trkpt>
      <trkpt lat="51.413668021559715" lon="11.101941978558898">
        <ele>392.83999999999997</ele>
        <time>2024-09-12T10:57:14Z</time>
      </trkpt>
      <trkpt lat="51.413461994379759" lon="11.102517982944846">
        <ele>391.87</ele>
        <time>2024-09-12T10:57:21Z</time>
      </trkpt>
      <trkpt lat="51.413427041843534" lon="11.102614039555192">
        <ele>391.38999999999999</ele>
        <time>2024-09-12T10:57:22Z</time>
      </trkpt>
      <trkpt lat="51.413392005488276" lon="11.102712024003267">
        <ele>391.38999999999999</ele>
        <time>2024-09-12T10:57:23Z</time>
      </trkpt>
      <trkpt lat="51.413320004940033" lon="11.10291201621294">
        <ele>391.38999999999999</ele>
        <time>2024-09-12T10:57:24Z</time>
      </trkpt>
      <trkpt lat="51.413283962756395" lon="11.103023998439312">
        <ele>390.91000000000003</ele>
        <time>2024-09-12T10:57:26Z</time>
      </trkpt>
      <trkpt lat="51.413254961371422" lon="11.103141009807587">
        <ele>390.43000000000001</ele>
        <time>2024-09-12T10:57:27Z</time>
      </trkpt>
      <trkpt lat="51.412914991378784" lon="11.104775983840227">
        <ele>388.02999999999997</ele>
        <time>2024-09-12T10:57:38Z</time>
      </trkpt>
      <trkpt lat="51.412601005285978" lon="11.105937967076898">
        <ele>385.14999999999998</ele>
        <time>2024-09-12T10:57:45Z</time>
      </trkpt>
      <trkpt lat="51.412493968382478" lon="11.106267962604761">
        <ele>384.18000000000001</ele>
        <time>2024-09-12T10:57:48Z</time>
      </trkpt>
      <trkpt lat="51.412273021414876" lon="11.106681022793055">
        <ele>383.22000000000003</ele>
        <time>2024-09-12T10:57:56Z</time>
      </trkpt>
      <trkpt lat="51.412247959524393" lon="11.10671597532928">
        <ele>383.69999999999999</ele>
        <time>2024-09-12T10:57:57Z</time>
      </trkpt>
      <trkpt lat="51.41223999671638" lon="11.106727039441466">
        <ele>384.66000000000003</ele>
        <time>2024-09-12T10:58:07Z</time>
      </trkpt>
      <trkpt lat="51.412089038640261" lon="11.106770038604736">
        <ele>384.66000000000003</ele>
        <time>2024-09-12T10:58:33Z</time>
      </trkpt>
      <trkpt lat="51.412089038640261" lon="11.106770038604736">
        <ele>384.66000000000003</ele>
        <time>2024-09-12T10:58:34Z</time>
      </trkpt>
      <trkpt lat="51.412089038640261" lon="11.106770038604736">
        <ele>384.66000000000003</ele>
        <time>2024-09-12T10:58:35Z</time>
      </trkpt>
      <trkpt lat="51.412089038640261" lon="11.106770038604736">
        <ele>384.18000000000001</ele>
        <time>2024-09-12T10:58:36Z</time>
      </trkpt>
      <trkpt lat="51.41204696148634" lon="11.106876991689205">
        <ele>384.18000000000001</ele>
        <time>2024-09-12T10:58:37Z</time>
      </trkpt>
      <trkpt lat="51.41204696148634" lon="11.106876991689205">
        <ele>384.66000000000003</ele>
        <time>2024-09-12T10:58:39Z</time>
      </trkpt>
      <trkpt lat="51.412119967862964" lon="11.106761991977692">
        <ele>384.18000000000001</ele>
        <time>2024-09-12T10:58:52Z</time>
      </trkpt>
      <trkpt lat="51.412150980904698" lon="11.106853019446135">
        <ele>395.24000000000001</ele>
        <time>2024-09-12T11:02:35Z</time>
      </trkpt>
      <trkpt lat="51.412180988118052" lon="11.106743970885873">
        <ele>384.18000000000001</ele>
        <time>2024-09-12T11:03:07Z</time>
      </trkpt>
      <trkpt lat="51.41223999671638" lon="11.106727039441466">
        <ele>384.18000000000001</ele>
        <time>2024-09-12T11:03:08Z</time>
      </trkpt>
      <trkpt lat="51.41223999671638" lon="11.106727039441466">
        <ele>383.69999999999999</ele>
        <time>2024-09-12T11:03:09Z</time>
      </trkpt>
      <trkpt lat="51.412277966737747" lon="11.106674987822771">
        <ele>384.18000000000001</ele>
        <time>2024-09-12T11:03:10Z</time>
      </trkpt>
      <trkpt lat="51.41232498921454" lon="11.106610028073192">
        <ele>384.18000000000001</ele>
        <time>2024-09-12T11:03:11Z</time>
      </trkpt>
      <trkpt lat="51.412487011402845" lon="11.10628598369658">
        <ele>384.66000000000003</ele>
        <time>2024-09-12T11:03:15Z</time>
      </trkpt>
      <trkpt lat="51.41252095811069" lon="11.106193028390408">
        <ele>384.66000000000003</ele>
        <time>2024-09-12T11:03:16Z</time>
      </trkpt>
      <trkpt lat="51.412593964487314" lon="11.105965040624142">
        <ele>385.14999999999998</ele>
        <time>2024-09-12T11:03:18Z</time>
      </trkpt>
      <trkpt lat="51.412993026897311" lon="11.104479013010859">
        <ele>388.02999999999997</ele>
        <time>2024-09-12T11:03:28Z</time>
      </trkpt>
      <trkpt lat="51.413019010797143" lon="11.104309028014541">
        <ele>388.50999999999999</ele>
        <time>2024-09-12T11:03:29Z</time>
      </trkpt>
      <trkpt lat="51.41314297914505" lon="11.103604026138783">
        <ele>388.02999999999997</ele>
        <time>2024-09-12T11:03:33Z</time>
      </trkpt>
      <trkpt lat="51.413381025195122" lon="11.102742031216621">
        <ele>386.58999999999997</ele>
        <time>2024-09-12T11:03:39Z</time>
      </trkpt>
      <trkpt lat="51.413413966074586" lon="11.102649997919798">
        <ele>387.06999999999999</ele>
        <time>2024-09-12T11:03:40Z</time>
      </trkpt>
      <trkpt lat="51.413453025743365" lon="11.102542961016297">
        <ele>387.06999999999999</ele>
        <time>2024-09-12T11:03:41Z</time>
      </trkpt>
      <trkpt lat="51.413553021848202" lon="11.102264011278749">
        <ele>387.55000000000001</ele>
        <time>2024-09-12T11:03:44Z</time>
      </trkpt>
      <trkpt lat="51.413582023233175" lon="11.10218103043735">
        <ele>388.02999999999997</ele>
        <time>2024-09-12T11:03:45Z</time>
      </trkpt>
      <trkpt lat="51.413675984367728" lon="11.101920017972589">
        <ele>389.47000000000003</ele>
        <time>2024-09-12T11:03:50Z</time>
      </trkpt>
      <trkpt lat="51.413686964660883" lon="11.101887999102473">
        <ele>389.47000000000003</ele>
        <time>2024-09-12T11:03:51Z</time>
      </trkpt>
      <trkpt lat="51.41369903460145" lon="11.101855980232358">
        <ele>389.47000000000003</ele>
        <time>2024-09-12T11:03:52Z</time>
      </trkpt>
      <trkpt lat="51.413704985752702" lon="11.101825973019004">
        <ele>389.47000000000003</ele>
        <time>2024-09-12T11:03:53Z</time>
      </trkpt>
      <trkpt lat="51.413719989359379" lon="11.101749027147889">
        <ele>389.94999999999999</ele>
        <time>2024-09-12T11:03:54Z</time>
      </trkpt>
      <trkpt lat="51.413719989359379" lon="11.101749027147889">
        <ele>389.47000000000003</ele>
        <time>2024-09-12T11:04:03Z</time>
      </trkpt>
      <trkpt lat="51.413719989359379" lon="11.101749027147889">
        <ele>389.47000000000003</ele>
        <time>2024-09-12T11:04:18Z</time>
      </trkpt>
      <trkpt lat="51.41357003711164" lon="11.101577030494809">
        <ele>389.47000000000003</ele>
        <time>2024-09-12T11:04:19Z</time>
      </trkpt>
      <trkpt lat="51.413624016568065" lon="11.101638972759247">
        <ele>389.47000000000003</ele>
        <time>2024-09-12T11:04:20Z</time>
      </trkpt>
      <trkpt lat="51.413611024618149" lon="11.10162497498095">
        <ele>389.47000000000003</ele>
        <time>2024-09-12T11:04:21Z</time>
      </trkpt>
      <trkpt lat="51.413559978827834" lon="11.101410984992981">
        <ele>421.68000000000001</ele>
        <time>2024-09-12T11:40:37Z</time>
      </trkpt>
      <trkpt lat="51.413583029061556" lon="11.10147301107645">
        <ele>405.81</ele>
        <time>2024-09-12T11:41:24Z</time>
      </trkpt>
      <trkpt lat="51.413576994091272" lon="11.101364968344569">
        <ele>401.00999999999999</ele>
        <time>2024-09-12T11:41:44Z</time>
      </trkpt>
      <trkpt lat="51.413594009354711" lon="11.101331021636724">
        <ele>401.97000000000003</ele>
        <time>2024-09-12T11:42:01Z</time>
      </trkpt>
      <trkpt lat="51.41350700519979" lon="11.101251980289817">
        <ele>401.49000000000001</ele>
        <time>2024-09-12T11:42:17Z</time>
      </trkpt>
      <trkpt lat="51.413522008806467" lon="11.101196995005012">
        <ele>401.49000000000001</ele>
        <time>2024-09-12T11:42:18Z</time>
      </trkpt>
      <trkpt lat="51.413542963564396" lon="11.101122982800007">
        <ele>401.49000000000001</ele>
        <time>2024-09-12T11:42:19Z</time>
      </trkpt>
      <trkpt lat="51.413566013798118" lon="11.101038996130228">
        <ele>401.49000000000001</ele>
        <time>2024-09-12T11:42:20Z</time>
      </trkpt>
      <trkpt lat="51.413590991869569" lon="11.100949980318546">
        <ele>401.49000000000001</ele>
        <time>2024-09-12T11:42:21Z</time>
      </trkpt>
      <trkpt lat="51.413651006296277" lon="11.100817965343595">
        <ele>401.00999999999999</ele>
        <time>2024-09-12T11:42:22Z</time>
      </trkpt>
      <trkpt lat="51.413700040429831" lon="11.100753005594015">
        <ele>401.00999999999999</ele>
        <time>2024-09-12T11:42:23Z</time>
      </trkpt>
      <trkpt lat="51.413745973259211" lon="11.100690979510546">
        <ele>400.52999999999997</ele>
        <time>2024-09-12T11:42:24Z</time>
      </trkpt>
      <trkpt lat="51.41385099850595" lon="11.10061596147716">
        <ele>400.52999999999997</ele>
        <time>2024-09-12T11:42:25Z</time>
      </trkpt>
      <trkpt lat="51.413915036246181" lon="11.100621996447444">
        <ele>400.05000000000001</ele>
        <time>2024-09-12T11:42:26Z</time>
      </trkpt>
      <trkpt lat="51.413963986560702" lon="11.100626019760966">
        <ele>400.05000000000001</ele>
        <time>2024-09-12T11:42:27Z</time>
      </trkpt>
      <trkpt lat="51.414042022079229" lon="11.100632976740599">
        <ele>399.56999999999999</ele>
        <time>2024-09-12T11:42:28Z</time>
      </trkpt>
      <trkpt lat="51.414042022079229" lon="11.100632976740599">
        <ele>399.56999999999999</ele>
        <time>2024-09-12T11:42:29Z</time>
      </trkpt>
      <trkpt lat="51.414064988493919" lon="11.100551001727581">
        <ele>399.56999999999999</ele>
        <time>2024-09-12T11:42:30Z</time>
      </trkpt>
      <trkpt lat="51.414094995707273" lon="11.10044103115797">
        <ele>399.07999999999998</ele>
        <time>2024-09-12T11:42:31Z</time>
      </trkpt>
      <trkpt lat="51.414128020405769" lon="11.100318990647793">
        <ele>399.07999999999998</ele>
        <time>2024-09-12T11:42:32Z</time>
      </trkpt>
      <trkpt lat="51.414171019569039" lon="11.100160991773009">
        <ele>399.07999999999998</ele>
        <time>2024-09-12T11:42:33Z</time>
      </trkpt>
      <trkpt lat="51.414185017347336" lon="11.100057978183031">
        <ele>398.60000000000002</ele>
        <time>2024-09-12T11:42:34Z</time>
      </trkpt>
      <trkpt lat="51.414204966276884" lon="11.099908025935292">
        <ele>399.07999999999998</ele>
        <time>2024-09-12T11:42:35Z</time>
      </trkpt>
      <trkpt lat="51.414227010682225" lon="11.099751032888889">
        <ele>399.56999999999999</ele>
        <time>2024-09-12T11:42:36Z</time>
      </trkpt>
      <trkpt lat="51.414246959611773" lon="11.099583981558681">
        <ele>400.05000000000001</ele>
        <time>2024-09-12T11:42:37Z</time>
      </trkpt>
      <trkpt lat="51.414277972653508" lon="11.099091041833162">
        <ele>401.97000000000003</ele>
        <time>2024-09-12T11:42:40Z</time>
      </trkpt>
      <trkpt lat="51.414318960160017" lon="11.09767097979784">
        <ele>408.69999999999999</ele>
        <time>2024-09-12T11:42:49Z</time>
      </trkpt>
      <trkpt lat="51.414341004565358" lon="11.097511975094676">
        <ele>409.18000000000001</ele>
        <time>2024-09-12T11:42:50Z</time>
      </trkpt>
      <trkpt lat="51.41438802704215" lon="11.097366968169808">
        <ele>409.66000000000003</ele>
        <time>2024-09-12T11:42:51Z</time>
      </trkpt>
      <trkpt lat="51.414439994841814" lon="11.097210980951786">
        <ele>410.13999999999999</ele>
        <time>2024-09-12T11:42:52Z</time>
      </trkpt>
      <trkpt lat="51.414494980126619" lon="11.097048036754131">
        <ele>411.10000000000002</ele>
        <time>2024-09-12T11:42:53Z</time>
      </trkpt>
      <trkpt lat="51.414550971239805" lon="11.096882997080684">
        <ele>411.57999999999998</ele>
        <time>2024-09-12T11:42:54Z</time>
      </trkpt>
      <trkpt lat="51.414608974009752" lon="11.096709994599223">
        <ele>412.06</ele>
        <time>2024-09-12T11:42:55Z</time>
      </trkpt>
      <trkpt lat="51.415115995332599" lon="11.094795987010002">
        <ele>418.31</ele>
        <time>2024-09-12T11:43:05Z</time>
      </trkpt>
      <trkpt lat="51.415200987830758" lon="11.093366034328938">
        <ele>419.75</ele>
        <time>2024-09-12T11:43:11Z</time>
      </trkpt>
      <trkpt lat="51.415200987830758" lon="11.09249004162848">
        <ele>420.23000000000002</ele>
        <time>2024-09-12T11:43:14Z</time>
      </trkpt>
      <trkpt lat="51.415233006700873" lon="11.091951001435518">
        <ele>420.70999999999998</ele>
        <time>2024-09-12T11:43:16Z</time>
      </trkpt>
      <trkpt lat="51.415259996429086" lon="11.091694012284279">
        <ele>421.19</ele>
        <time>2024-09-12T11:43:17Z</time>
      </trkpt>
      <trkpt lat="51.415287991985679" lon="11.091425959020853">
        <ele>421.68000000000001</ele>
        <time>2024-09-12T11:43:18Z</time>
      </trkpt>
      <trkpt lat="51.415790989995003" lon="11.088650962337852">
        <ele>429.85000000000002</ele>
        <time>2024-09-12T11:43:28Z</time>
      </trkpt>
      <trkpt lat="51.415816973894835" lon="11.088402019813657">
        <ele>430.81</ele>
        <time>2024-09-12T11:43:29Z</time>
      </trkpt>
      <trkpt lat="51.415789984166622" lon="11.088187023997307">
        <ele>431.29000000000002</ele>
        <time>2024-09-12T11:43:30Z</time>
      </trkpt>
      <trkpt lat="51.415742039680481" lon="11.088003041222692">
        <ele>432.25</ele>
        <time>2024-09-12T11:43:31Z</time>
      </trkpt>
      <trkpt lat="51.415689988061786" lon="11.087800031527877">
        <ele>433.20999999999998</ele>
        <time>2024-09-12T11:43:32Z</time>
      </trkpt>
      <trkpt lat="51.415643971413374" lon="11.087552011013031">
        <ele>433.69</ele>
        <time>2024-09-12T11:43:33Z</time>
      </trkpt>
      <trkpt lat="51.415625028312206" lon="11.087306002154946">
        <ele>434.64999999999998</ele>
        <time>2024-09-12T11:43:34Z</time>
      </trkpt>
      <trkpt lat="51.41561203636229" lon="11.087036021053791">
        <ele>435.13</ele>
        <time>2024-09-12T11:43:35Z</time>
      </trkpt>
      <trkpt lat="51.415630979463458" lon="11.086748018860817">
        <ele>435.61000000000001</ele>
        <time>2024-09-12T11:43:36Z</time>
      </trkpt>
      <trkpt lat="51.415651012212038" lon="11.086435038596392">
        <ele>436.10000000000002</ele>
        <time>2024-09-12T11:43:37Z</time>
      </trkpt>
      <trkpt lat="51.41576299443841" lon="11.084071006625891">
        <ele>440.42000000000002</ele>
        <time>2024-09-12T11:43:44Z</time>
      </trkpt>
      <trkpt lat="51.415824014693499" lon="11.08374503441155">
        <ele>440.89999999999998</ele>
        <time>2024-09-12T11:43:45Z</time>
      </trkpt>
      <trkpt lat="51.416326006874442" lon="11.081060981377959">
        <ele>444.26999999999998</ele>
        <time>2024-09-12T11:43:53Z</time>
      </trkpt>
      <trkpt lat="51.416717022657394" lon="11.079003978520632">
        <ele>450.51999999999998</ele>
        <time>2024-09-12T11:44:01Z</time>
      </trkpt>
      <trkpt lat="51.416750969365239" lon="11.07882896438241">
        <ele>451.48000000000002</ele>
        <time>2024-09-12T11:44:02Z</time>
      </trkpt>
      <trkpt lat="51.416779970750213" lon="11.078675994649529">
        <ele>452.44</ele>
        <time>2024-09-12T11:44:03Z</time>
      </trkpt>
      <trkpt lat="51.416805032640696" lon="11.078550014644861">
        <ele>452.92000000000002</ele>
        <time>2024-09-12T11:44:04Z</time>
      </trkpt>
      <trkpt lat="51.416823975741863" lon="11.078451024368405">
        <ele>453.39999999999998</ele>
        <time>2024-09-12T11:44:05Z</time>
      </trkpt>
      <trkpt lat="51.416841996833682" lon="11.078357985243201">
        <ele>453.88</ele>
        <time>2024-09-12T11:44:06Z</time>
      </trkpt>
      <trkpt lat="51.417046012356877" lon="11.078230999410152">
        <ele>454.36000000000001</ele>
        <time>2024-09-12T11:44:07Z</time>
      </trkpt>
      <trkpt lat="51.417088005691767" lon="11.078212978318334">
        <ele>454.36000000000001</ele>
        <time>2024-09-12T11:44:08Z</time>
      </trkpt>
      <trkpt lat="51.41744096763432" lon="11.077962024137378">
        <ele>454.36000000000001</ele>
        <time>2024-09-12T11:44:11Z</time>
      </trkpt>
      <trkpt lat="51.417535012587905" lon="11.077800001949072">
        <ele>454.36000000000001</ele>
        <time>2024-09-12T11:44:12Z</time>
      </trkpt>
      <trkpt lat="51.417605001479387" lon="11.077607972547412">
        <ele>453.88</ele>
        <time>2024-09-12T11:44:13Z</time>
      </trkpt>
      <trkpt lat="51.417659986764193" lon="11.077400017529726">
        <ele>453.39999999999998</ele>
        <time>2024-09-12T11:44:14Z</time>
      </trkpt>
      <trkpt lat="51.417699968442321" lon="11.077189967036247">
        <ele>452.92000000000002</ele>
        <time>2024-09-12T11:44:15Z</time>
      </trkpt>
      <trkpt lat="51.417720001190901" lon="11.076983017846942">
        <ele>451.95999999999998</ele>
        <time>2024-09-12T11:44:16Z</time>
      </trkpt>
      <trkpt lat="51.417726036161184" lon="11.076800962910056">
        <ele>451.48000000000002</ele>
        <time>2024-09-12T11:44:17Z</time>
      </trkpt>
      <trkpt lat="51.417694017291069" lon="11.076603988185525">
        <ele>451</ele>
        <time>2024-09-12T11:44:18Z</time>
      </trkpt>
      <trkpt lat="51.417648000642657" lon="11.076385974884033">
        <ele>449.55000000000001</ele>
        <time>2024-09-12T11:44:19Z</time>
      </trkpt>
      <trkpt lat="51.417599972337484" lon="11.07616201043129">
        <ele>448.58999999999997</ele>
        <time>2024-09-12T11:44:20Z</time>
      </trkpt>
      <trkpt lat="51.417560996487737" lon="11.075978027656674">
        <ele>447.63</ele>
        <time>2024-09-12T11:44:21Z</time>
      </trkpt>
      <trkpt lat="51.417571976780891" lon="11.075702011585236">
        <ele>446.67000000000002</ele>
        <time>2024-09-12T11:44:22Z</time>
      </trkpt>
      <trkpt lat="51.417581029236317" lon="11.075461031869054">
        <ele>445.70999999999998</ele>
        <time>2024-09-12T11:44:23Z</time>
      </trkpt>
      <trkpt lat="51.417640959843993" lon="11.075246036052704">
        <ele>444.75</ele>
        <time>2024-09-12T11:44:24Z</time>
      </trkpt>
      <trkpt lat="51.417712038382888" lon="11.075032968074083">
        <ele>443.79000000000002</ele>
        <time>2024-09-12T11:44:25Z</time>
      </trkpt>
      <trkpt lat="51.417799964547157" lon="11.074870023876429">
        <ele>442.81999999999999</ele>
        <time>2024-09-12T11:44:26Z</time>
      </trkpt>
      <trkpt lat="51.417912030592561" lon="11.074705990031362">
        <ele>441.86000000000001</ele>
        <time>2024-09-12T11:44:27Z</time>
      </trkpt>
      <trkpt lat="51.418024012818933" lon="11.074541034176946">
        <ele>440.89999999999998</ele>
        <time>2024-09-12T11:44:28Z</time>
      </trkpt>
      <trkpt lat="51.41812602058053" lon="11.074390998110175">
        <ele>439.45999999999998</ele>
        <time>2024-09-12T11:44:29Z</time>
      </trkpt>
      <trkpt lat="51.418185029178858" lon="11.074176002293825">
        <ele>438.5</ele>
        <time>2024-09-12T11:44:30Z</time>
      </trkpt>
      <trkpt lat="51.418195003643632" lon="11.073955977335572">
        <ele>437.06</ele>
        <time>2024-09-12T11:44:31Z</time>
      </trkpt>
      <trkpt lat="51.418183017522097" lon="11.073790015652776">
        <ele>435.13</ele>
        <time>2024-09-12T11:44:32Z</time>
      </trkpt>
      <trkpt lat="51.418209001421928" lon="11.07352196238935">
        <ele>433.20999999999998</ele>
        <time>2024-09-12T11:44:33Z</time>
      </trkpt>
      <trkpt lat="51.418226016685367" lon="11.073338985443115">
        <ele>431.29000000000002</ele>
        <time>2024-09-12T11:44:34Z</time>
      </trkpt>
      <trkpt lat="51.418296005576849" lon="11.073090964928269">
        <ele>429.85000000000002</ele>
        <time>2024-09-12T11:44:35Z</time>
      </trkpt>
      <trkpt lat="51.418359959498048" lon="11.072859037667513">
        <ele>428.39999999999998</ele>
        <time>2024-09-12T11:44:36Z</time>
      </trkpt>
      <trkpt lat="51.418519970029593" lon="11.072125034406781">
        <ele>422.16000000000003</ele>
        <time>2024-09-12T11:44:40Z</time>
      </trkpt>
      <trkpt lat="51.418500021100044" lon="11.071984972804785">
        <ele>420.70999999999998</ele>
        <time>2024-09-12T11:44:41Z</time>
      </trkpt>
      <trkpt lat="51.41844998113811" lon="11.071846000850201">
        <ele>419.26999999999998</ele>
        <time>2024-09-12T11:44:42Z</time>
      </trkpt>
      <trkpt lat="51.418353002518415" lon="11.071750028058887">
        <ele>417.82999999999998</ele>
        <time>2024-09-12T11:44:43Z</time>
      </trkpt>
      <trkpt lat="51.418243031948805" lon="11.071638967841864">
        <ele>416.87</ele>
        <time>2024-09-12T11:44:44Z</time>
      </trkpt>
      <trkpt lat="51.418141024187207" lon="11.071536960080266">
        <ele>415.91000000000003</ele>
        <time>2024-09-12T11:44:45Z</time>
      </trkpt>
      <trkpt lat="51.418012026697397" lon="11.071525979787111">
        <ele>414.94999999999999</ele>
        <time>2024-09-12T11:44:46Z</time>
      </trkpt>
      <trkpt lat="51.417883029207587" lon="11.071514999493957">
        <ele>413.98000000000002</ele>
        <time>2024-09-12T11:44:47Z</time>
      </trkpt>
      <trkpt lat="51.417741039767861" lon="11.071597980335355">
        <ele>413.5</ele>
        <time>2024-09-12T11:44:48Z</time>
      </trkpt>
      <trkpt lat="51.41758899204433" lon="11.071686996147037">
        <ele>412.54000000000002</ele>
        <time>2024-09-12T11:44:49Z</time>
      </trkpt>
      <trkpt lat="51.417441973462701" lon="11.071772994473577">
        <ele>411.57999999999998</ele>
        <time>2024-09-12T11:44:50Z</time>
      </trkpt>
      <trkpt lat="51.417049029842019" lon="11.072002993896604">
        <ele>408.69999999999999</ele>
        <time>2024-09-12T11:44:53Z</time>
      </trkpt>
      <trkpt lat="51.416936963796616" lon="11.071974998340011">
        <ele>407.74000000000001</ele>
        <time>2024-09-12T11:44:54Z</time>
      </trkpt>
      <trkpt lat="51.416873009875417" lon="11.071919007226825">
        <ele>406.76999999999998</ele>
        <time>2024-09-12T11:44:55Z</time>
      </trkpt>
      <trkpt lat="51.416824981570244" lon="11.071837032213807">
        <ele>406.29000000000002</ele>
        <time>2024-09-12T11:44:56Z</time>
      </trkpt>
      <trkpt lat="51.416760021820664" lon="11.071725971996784">
        <ele>405.32999999999998</ele>
        <time>2024-09-12T11:44:57Z</time>
      </trkpt>
      <trkpt lat="51.416688021272421" lon="11.071600997820497">
        <ele>403.88999999999999</ele>
        <time>2024-09-12T11:44:58Z</time>
      </trkpt>
      <trkpt lat="51.416595987975597" lon="11.071507036685944">
        <ele>402.44999999999999</ele>
        <time>2024-09-12T11:44:59Z</time>
      </trkpt>
      <trkpt lat="51.416475959122181" lon="11.071511982008815">
        <ele>401.00999999999999</ele>
        <time>2024-09-12T11:45:00Z</time>
      </trkpt>
      <trkpt lat="51.416229028254747" lon="11.071594040840864">
        <ele>398.12</ele>
        <time>2024-09-12T11:45:02Z</time>
      </trkpt>
      <trkpt lat="51.41610698774457" lon="11.071608038619161">
        <ele>396.68000000000001</ele>
        <time>2024-09-12T11:45:03Z</time>
      </trkpt>
      <trkpt lat="51.415972961112857" lon="11.071557998657227">
        <ele>394.75999999999999</ele>
        <time>2024-09-12T11:45:04Z</time>
      </trkpt>
      <trkpt lat="51.415903978049755" lon="11.07147803530097">
        <ele>393.31999999999999</ele>
        <time>2024-09-12T11:45:05Z</time>
      </trkpt>
      <trkpt lat="51.415838012471795" lon="11.071326993405819">
        <ele>391.38999999999999</ele>
        <time>2024-09-12T11:45:06Z</time>
      </trkpt>
      <trkpt lat="51.41582602635026" lon="11.071134964004159">
        <ele>389.94999999999999</ele>
        <time>2024-09-12T11:45:07Z</time>
      </trkpt>
      <trkpt lat="51.415860978886485" lon="11.070933965966105">
        <ele>388.50999999999999</ele>
        <time>2024-09-12T11:45:08Z</time>
      </trkpt>
      <trkpt lat="51.41591495834291" lon="11.070689968764782">
        <ele>387.55000000000001</ele>
        <time>2024-09-12T11:45:09Z</time>
      </trkpt>
      <trkpt lat="51.415989976376295" lon="11.070437002927065">
        <ele>386.11000000000001</ele>
        <time>2024-09-12T11:45:10Z</time>
      </trkpt>
      <trkpt lat="51.416067006066442" lon="11.070175990462303">
        <ele>385.14999999999998</ele>
        <time>2024-09-12T11:45:11Z</time>
      </trkpt>
      <trkpt lat="51.416159961372614" lon="11.069926964119077">
        <ele>383.69999999999999</ele>
        <time>2024-09-12T11:45:12Z</time>
      </trkpt>
      <trkpt lat="51.416348973289132" lon="11.069504013285041">
        <ele>382.25999999999999</ele>
        <time>2024-09-12T11:45:14Z</time>
      </trkpt>
      <trkpt lat="51.416430026292801" lon="11.069322964176536">
        <ele>381.30000000000001</ele>
        <time>2024-09-12T11:45:15Z</time>
      </trkpt>
      <trkpt lat="51.416475959122181" lon="11.069121966138482">
        <ele>380.33999999999997</ele>
        <time>2024-09-12T11:45:16Z</time>
      </trkpt>
      <trkpt lat="51.416491968557239" lon="11.068909987807274">
        <ele>379.86000000000001</ele>
        <time>2024-09-12T11:45:17Z</time>
      </trkpt>
      <trkpt lat="51.416506972163916" lon="11.068722987547517">
        <ele>378.89999999999998</ele>
        <time>2024-09-12T11:45:18Z</time>
      </trkpt>
      <trkpt lat="51.41647101379931" lon="11.06855602003634">
        <ele>378.42000000000002</ele>
        <time>2024-09-12T11:45:19Z</time>
      </trkpt>
      <trkpt lat="51.416430026292801" lon="11.068422999233007">
        <ele>377.94</ele>
        <time>2024-09-12T11:45:20Z</time>
      </trkpt>
      <trkpt lat="51.416356014087796" lon="11.068345969542861">
        <ele>376.97000000000003</ele>
        <time>2024-09-12T11:45:21Z</time>
      </trkpt>
      <trkpt lat="51.416274039074779" lon="11.068274974822998">
        <ele>376.49000000000001</ele>
        <time>2024-09-12T11:45:22Z</time>
      </trkpt>
      <trkpt lat="51.416202038526535" lon="11.068253014236689">
        <ele>376.00999999999999</ele>
        <time>2024-09-12T11:45:23Z</time>
      </trkpt>
      <trkpt lat="51.416115034371614" lon="11.068226024508476">
        <ele>375.05000000000001</ele>
        <time>2024-09-12T11:45:24Z</time>
      </trkpt>
      <trkpt lat="51.416030963882804" lon="11.068199034780264">
        <ele>374.08999999999997</ele>
        <time>2024-09-12T11:45:25Z</time>
      </trkpt>
      <trkpt lat="51.415949994698167" lon="11.068173972889781">
        <ele>373.61000000000001</ele>
        <time>2024-09-12T11:45:26Z</time>
      </trkpt>
      <trkpt lat="51.415896015241742" lon="11.068065008148551">
        <ele>372.64999999999998</ele>
        <time>2024-09-12T11:45:27Z</time>
      </trkpt>
      <trkpt lat="51.415855027735233" lon="11.067941039800644">
        <ele>372.17000000000002</ele>
        <time>2024-09-12T11:45:28Z</time>
      </trkpt>
      <trkpt lat="51.415811022743583" lon="11.067809024825692">
        <ele>371.20999999999998</ele>
        <time>2024-09-12T11:45:29Z</time>
      </trkpt>
      <trkpt lat="51.415771963074803" lon="11.067668041214347">
        <ele>370.73000000000002</ele>
        <time>2024-09-12T11:45:30Z</time>
      </trkpt>
      <trkpt lat="51.415747990831733" lon="11.067523034289479">
        <ele>370.24000000000001</ele>
        <time>2024-09-12T11:45:31Z</time>
      </trkpt>
      <trkpt lat="51.415725024417043" lon="11.067385990172625">
        <ele>369.75999999999999</ele>
        <time>2024-09-12T11:45:32Z</time>
      </trkpt>
      <trkpt lat="51.415733993053436" lon="11.067233020439744">
        <ele>369.27999999999997</ele>
        <time>2024-09-12T11:45:33Z</time>
      </trkpt>
      <trkpt lat="51.415780009701848" lon="11.067079966887832">
        <ele>368.31999999999999</ele>
        <time>2024-09-12T11:45:34Z</time>
      </trkpt>
      <trkpt lat="51.415858967229724" lon="11.067020958289504">
        <ele>367.83999999999997</ele>
        <time>2024-09-12T11:45:35Z</time>
      </trkpt>
      <trkpt lat="51.415953012183309" lon="11.066951975226402">
        <ele>366.88</ele>
        <time>2024-09-12T11:45:36Z</time>
      </trkpt>
      <trkpt lat="51.416066000238061" lon="11.066870000213385">
        <ele>366.39999999999998</ele>
        <time>2024-09-12T11:45:37Z</time>
      </trkpt>
      <trkpt lat="51.416175970807672" lon="11.066761035472155">
        <ele>365.92000000000002</ele>
        <time>2024-09-12T11:45:38Z</time>
      </trkpt>
      <trkpt lat="51.416909974068403" lon="11.066010016947985">
        <ele>362.55000000000001</ele>
        <time>2024-09-12T11:45:46Z</time>
      </trkpt>
      <trkpt lat="51.416960014030337" lon="11.065957965329289">
        <ele>362.06999999999999</ele>
        <time>2024-09-12T11:45:47Z</time>
      </trkpt>
      <trkpt lat="51.416960014030337" lon="11.065856041386724">
        <ele>361.58999999999997</ele>
        <time>2024-09-12T11:45:48Z</time>
      </trkpt>
      <trkpt lat="51.416960014030337" lon="11.065722014755011">
        <ele>360.63</ele>
        <time>2024-09-12T11:45:49Z</time>
      </trkpt>
      <trkpt lat="51.416919026523829" lon="11.065597040578723">
        <ele>360.14999999999998</ele>
        <time>2024-09-12T11:45:50Z</time>
      </trkpt>
      <trkpt lat="51.416875021532178" lon="11.065464019775391">
        <ele>359.19</ele>
        <time>2024-09-12T11:45:51Z</time>
      </trkpt>
      <trkpt lat="51.416875021532178" lon="11.065307026728988">
        <ele>358.23000000000002</ele>
        <time>2024-09-12T11:45:52Z</time>
      </trkpt>
      <trkpt lat="51.416906034573913" lon="11.065208036452532">
        <ele>357.26999999999998</ele>
        <time>2024-09-12T11:45:53Z</time>
      </trkpt>
      <trkpt lat="51.416960014030337" lon="11.065099993720651">
        <ele>356.79000000000002</ele>
        <time>2024-09-12T11:45:54Z</time>
      </trkpt>
      <trkpt lat="51.417028997093439" lon="11.064995974302292">
        <ele>356.31</ele>
        <time>2024-09-12T11:45:55Z</time>
      </trkpt>
      <trkpt lat="51.417131004855037" lon="11.064864965155721">
        <ele>355.82999999999998</ele>
        <time>2024-09-12T11:45:56Z</time>
      </trkpt>
      <trkpt lat="51.417228989303112" lon="11.064740996807814">
        <ele>354.86000000000001</ele>
        <time>2024-09-12T11:45:57Z</time>
      </trkpt>
      <trkpt lat="51.417319010943174" lon="11.06462499126792">
        <ele>354.38</ele>
        <time>2024-09-12T11:45:58Z</time>
      </trkpt>
      <trkpt lat="51.417390005663037" lon="11.06447596102953">
        <ele>353.42000000000002</ele>
        <time>2024-09-12T11:45:59Z</time>
      </trkpt>
      <trkpt lat="51.417398974299431" lon="11.064312011003494">
        <ele>352.45999999999998</ele>
        <time>2024-09-12T11:46:00Z</time>
      </trkpt>
      <trkpt lat="51.417367961257696" lon="11.064112018793821">
        <ele>351.01999999999998</ele>
        <time>2024-09-12T11:46:01Z</time>
      </trkpt>
      <trkpt lat="51.41728900372982" lon="11.064006993547082">
        <ele>350.06</ele>
        <time>2024-09-12T11:46:02Z</time>
      </trkpt>
      <trkpt lat="51.417195964604616" lon="11.063883025199175">
        <ele>348.62</ele>
        <time>2024-09-12T11:46:03Z</time>
      </trkpt>
      <trkpt lat="51.417106026783586" lon="11.063762996345758">
        <ele>347.17000000000002</ele>
        <time>2024-09-12T11:46:04Z</time>
      </trkpt>
      <trkpt lat="51.417046012356877" lon="11.06368001550436">
        <ele>346.20999999999998</ele>
        <time>2024-09-12T11:46:05Z</time>
      </trkpt>
      <trkpt lat="51.417027991265059" lon="11.063517993316054">
        <ele>344.76999999999998</ele>
        <time>2024-09-12T11:46:06Z</time>
      </trkpt>
      <trkpt lat="51.417024973779917" lon="11.063489997759461">
        <ele>343.81</ele>
        <time>2024-09-12T11:46:07Z</time>
      </trkpt>
      <trkpt lat="51.417089011520147" lon="11.063339961692691">
        <ele>341.41000000000003</ele>
        <time>2024-09-12T11:46:09Z</time>
      </trkpt>
      <trkpt lat="51.417206022888422" lon="11.063234014436603">
        <ele>339</ele>
        <time>2024-09-12T11:46:10Z</time>
      </trkpt>
      <trkpt lat="51.417328985407948" lon="11.06312396004796">
        <ele>337.07999999999998</ele>
        <time>2024-09-12T11:46:11Z</time>
      </trkpt>
      <trkpt lat="51.417587986215949" lon="11.063048020005226">
        <ele>333.70999999999998</ele>
        <time>2024-09-12T11:46:13Z</time>
      </trkpt>
      <trkpt lat="51.417699968442321" lon="11.06301499530673">
        <ele>331.79000000000002</ele>
        <time>2024-09-12T11:46:14Z</time>
      </trkpt>
      <trkpt lat="51.417805999517441" lon="11.062983982264996">
        <ele>330.35000000000002</ele>
        <time>2024-09-12T11:46:15Z</time>
      </trkpt>
      <trkpt lat="51.417907001450658" lon="11.062953975051641">
        <ele>328.91000000000003</ele>
        <time>2024-09-12T11:46:16Z</time>
      </trkpt>
      <trkpt lat="51.418067011982203" lon="11.062896978110075">
        <ele>327.47000000000003</ele>
        <time>2024-09-12T11:46:17Z</time>
      </trkpt>
      <trkpt lat="51.418204978108406" lon="11.062738979235291">
        <ele>326.01999999999998</ele>
        <time>2024-09-12T11:46:18Z</time>
      </trkpt>
      <trkpt lat="51.418240014463663" lon="11.062674019485712">
        <ele>324.57999999999998</ele>
        <time>2024-09-12T11:46:19Z</time>
      </trkpt>
      <trkpt lat="51.418359037488699" lon="11.062394985929132">
        <ele>323.62</ele>
        <time>2024-09-12T11:46:20Z</time>
      </trkpt>
      <trkpt lat="51.418365994468331" lon="11.06228300370276">
        <ele>323.13999999999999</ele>
        <time>2024-09-12T11:46:21Z</time>
      </trkpt>
      <trkpt lat="51.418302962556481" lon="11.061978992074728">
        <ele>322.18000000000001</ele>
        <time>2024-09-12T11:46:22Z</time>
      </trkpt>
      <trkpt lat="51.418279996141791" lon="11.061933981254697">
        <ele>321.69999999999999</ele>
        <time>2024-09-12T11:46:23Z</time>
      </trkpt>
      <trkpt lat="51.418243031948805" lon="11.061863992363214">
        <ele>320.74000000000001</ele>
        <time>2024-09-12T11:46:24Z</time>
      </trkpt>
      <trkpt lat="51.418201038613915" lon="11.061786040663719">
        <ele>319.77999999999997</ele>
        <time>2024-09-12T11:46:25Z</time>
      </trkpt>
      <trkpt lat="51.418181005865335" lon="11.061726026237011">
        <ele>318.32999999999998</ele>
        <time>2024-09-12T11:46:26Z</time>
      </trkpt>
      <trkpt lat="51.418161978945136" lon="11.061515975743532">
        <ele>317.37</ele>
        <time>2024-09-12T11:46:27Z</time>
      </trkpt>
      <trkpt lat="51.418175976723433" lon="11.061486974358559">
        <ele>316.41000000000003</ele>
        <time>2024-09-12T11:46:28Z</time>
      </trkpt>
      <trkpt lat="51.418247977271676" lon="11.061343979090452">
        <ele>314.97000000000003</ele>
        <time>2024-09-12T11:46:29Z</time>
      </trkpt>
      <trkpt lat="51.418330958113074" lon="11.061266027390957">
        <ele>314.00999999999999</ele>
        <time>2024-09-12T11:46:30Z</time>
      </trkpt>
      <trkpt lat="51.418514018878341" lon="11.061093024909496">
        <ele>311.60000000000002</ele>
        <time>2024-09-12T11:46:32Z</time>
      </trkpt>
      <trkpt lat="51.418633963912725" lon="11.060979031026363">
        <ele>310.63999999999999</ele>
        <time>2024-09-12T11:46:33Z</time>
      </trkpt>
      <trkpt lat="51.418719962239265" lon="11.060828994959593">
        <ele>309.68000000000001</ele>
        <time>2024-09-12T11:46:34Z</time>
      </trkpt>
      <trkpt lat="51.418729014694691" lon="11.06071600690484">
        <ele>308.72000000000003</ele>
        <time>2024-09-12T11:46:35Z</time>
      </trkpt>
      <trkpt lat="51.418741000816226" lon="11.060549961403012">
        <ele>307.75999999999999</ele>
        <time>2024-09-12T11:46:36Z</time>
      </trkpt>
      <trkpt lat="51.418719962239265" lon="11.060440996661782">
        <ele>307.27999999999997</ele>
        <time>2024-09-12T11:46:37Z</time>
      </trkpt>
      <trkpt lat="51.41868400387466" lon="11.060322979465127">
        <ele>306.80000000000001</ele>
        <time>2024-09-12T11:46:38Z</time>
      </trkpt>
      <trkpt lat="51.418629018589854" lon="11.060271011665463">
        <ele>306.31999999999999</ele>
        <time>2024-09-12T11:46:39Z</time>
      </trkpt>
      <trkpt lat="51.418569004163146" lon="11.060215020552278">
        <ele>305.83999999999997</ele>
        <time>2024-09-12T11:46:40Z</time>
      </trkpt>
      <trkpt lat="51.418504966422915" lon="11.06015601195395">
        <ele>304.88</ele>
        <time>2024-09-12T11:46:41Z</time>
      </trkpt>
      <trkpt lat="51.418398013338447" lon="11.060057021677494">
        <ele>303.91000000000003</ele>
        <time>2024-09-12T11:46:42Z</time>
      </trkpt>
      <trkpt lat="51.418380998075008" lon="11.059994995594025">
        <ele>303.43000000000001</ele>
        <time>2024-09-12T11:46:43Z</time>
      </trkpt>
      <trkpt lat="51.418349985033274" lon="11.059879995882511">
        <ele>302.47000000000003</ele>
        <time>2024-09-12T11:46:44Z</time>
      </trkpt>
      <trkpt lat="51.418372029438615" lon="11.059690983965993">
        <ele>301.99000000000001</ele>
        <time>2024-09-12T11:46:45Z</time>
      </trkpt>
      <trkpt lat="51.418458027765155" lon="11.059560980647802">
        <ele>300.55000000000001</ele>
        <time>2024-09-12T11:46:46Z</time>
      </trkpt>
      <trkpt lat="51.418540002778172" lon="11.059499960392714">
        <ele>299.58999999999997</ele>
        <time>2024-09-12T11:46:47Z</time>
      </trkpt>
      <trkpt lat="51.418626001104712" lon="11.059435000643134">
        <ele>298.63</ele>
        <time>2024-09-12T11:46:48Z</time>
      </trkpt>
      <trkpt lat="51.418741000816226" lon="11.059349002316594">
        <ele>297.67000000000002</ele>
        <time>2024-09-12T11:46:49Z</time>
      </trkpt>
      <trkpt lat="51.418776959180832" lon="11.059295022860169">
        <ele>296.69999999999999</ele>
        <time>2024-09-12T11:46:50Z</time>
      </trkpt>
      <trkpt lat="51.418869998306036" lon="11.059155967086554">
        <ele>295.25999999999999</ele>
        <time>2024-09-12T11:46:51Z</time>
      </trkpt>
      <trkpt lat="51.418874021619558" lon="11.059023030102253">
        <ele>293.81999999999999</ele>
        <time>2024-09-12T11:46:52Z</time>
      </trkpt>
      <trkpt lat="51.41887896694243" lon="11.058884980157018">
        <ele>292.38</ele>
        <time>2024-09-12T11:46:53Z</time>
      </trkpt>
      <trkpt lat="51.418882990255952" lon="11.058751037344337">
        <ele>290.94</ele>
        <time>2024-09-12T11:46:54Z</time>
      </trkpt>
      <trkpt lat="51.418887013569474" lon="11.058620028197765">
        <ele>289.97000000000003</ele>
        <time>2024-09-12T11:46:55Z</time>
      </trkpt>
      <trkpt lat="51.418891036882997" lon="11.058494970202446">
        <ele>288.52999999999997</ele>
        <time>2024-09-12T11:46:56Z</time>
      </trkpt>
      <trkpt lat="51.418891958892345" lon="11.058468986302614">
        <ele>287.56999999999999</ele>
        <time>2024-09-12T11:46:57Z</time>
      </trkpt>
      <trkpt lat="51.418924983590841" lon="11.058347029611468">
        <ele>286.13</ele>
        <time>2024-09-12T11:46:58Z</time>
      </trkpt>
      <trkpt lat="51.418955996632576" lon="11.058233035728335">
        <ele>284.69</ele>
        <time>2024-09-12T11:46:59Z</time>
      </trkpt>
      <trkpt lat="51.418955996632576" lon="11.058233035728335">
        <ele>283.25</ele>
        <time>2024-09-12T11:47:00Z</time>
      </trkpt>
      <trkpt lat="51.418979968875647" lon="11.058228006586432">
        <ele>281.80000000000001</ele>
        <time>2024-09-12T11:47:01Z</time>
      </trkpt>
      <trkpt lat="51.419149031862617" lon="11.058190036565065">
        <ele>280.36000000000001</ele>
        <time>2024-09-12T11:47:02Z</time>
      </trkpt>
      <trkpt lat="51.41920099966228" lon="11.058211997151375">
        <ele>278.92000000000002</ele>
        <time>2024-09-12T11:47:03Z</time>
      </trkpt>
      <trkpt lat="51.419321028515697" lon="11.058264970779419">
        <ele>277</ele>
        <time>2024-09-12T11:47:04Z</time>
      </trkpt>
      <trkpt lat="51.419423958286643" lon="11.05830998159945">
        <ele>275.56</ele>
        <time>2024-09-12T11:47:05Z</time>
      </trkpt>
      <trkpt lat="51.419508028775454" lon="11.058346023783088">
        <ele>274.11000000000001</ele>
        <time>2024-09-12T11:47:06Z</time>
      </trkpt>
      <trkpt lat="51.419642977416515" lon="11.058405032381415">
        <ele>273.14999999999998</ele>
        <time>2024-09-12T11:47:07Z</time>
      </trkpt>
      <trkpt lat="51.419660998508334" lon="11.058401009067893">
        <ele>272.19</ele>
        <time>2024-09-12T11:47:08Z</time>
      </trkpt>
      <trkpt lat="51.419693017378449" lon="11.05839497409761">
        <ele>270.75</ele>
        <time>2024-09-12T11:47:09Z</time>
      </trkpt>
      <trkpt lat="51.419693017378449" lon="11.05839497409761">
        <ele>264.98000000000002</ele>
        <time>2024-09-12T11:47:17Z</time>
      </trkpt>
      <trkpt lat="51.419693017378449" lon="11.05839497409761">
        <ele>264.01999999999998</ele>
        <time>2024-09-12T11:47:53Z</time>
      </trkpt>
      <trkpt lat="51.419693017378449" lon="11.05839497409761">
        <ele>264.01999999999998</ele>
        <time>2024-09-12T11:48:36Z</time>
      </trkpt>
      <trkpt lat="51.419735010713339" lon="11.058386005461216">
        <ele>263.06</ele>
        <time>2024-09-12T11:48:58Z</time>
      </trkpt>
      <trkpt lat="51.419783961027861" lon="11.058376030996442">
        <ele>262.57999999999998</ele>
        <time>2024-09-12T11:48:59Z</time>
      </trkpt>
      <trkpt lat="51.419840035960078" lon="11.058364966884255">
        <ele>262.57999999999998</ele>
        <time>2024-09-12T11:49:00Z</time>
      </trkpt>
      <trkpt lat="51.420071963220835" lon="11.058319034054875">
        <ele>262.57999999999998</ele>
        <time>2024-09-12T11:49:01Z</time>
      </trkpt>
      <trkpt lat="51.420096019282937" lon="11.05828701518476">
        <ele>262.10000000000002</ele>
        <time>2024-09-12T11:49:02Z</time>
      </trkpt>
      <trkpt lat="51.420270027592778" lon="11.057929024100304">
        <ele>261.62</ele>
        <time>2024-09-12T11:49:05Z</time>
      </trkpt>
      <trkpt lat="51.420350996777415" lon="11.057674968615174">
        <ele>262.10000000000002</ele>
        <time>2024-09-12T11:49:06Z</time>
      </trkpt>
      <trkpt lat="51.420350996777415" lon="11.057674968615174">
        <ele>262.10000000000002</ele>
        <time>2024-09-12T11:49:07Z</time>
      </trkpt>
      <trkpt lat="51.420458033680916" lon="11.057631969451904">
        <ele>262.10000000000002</ele>
        <time>2024-09-12T11:49:08Z</time>
      </trkpt>
      <trkpt lat="51.420458033680916" lon="11.057631969451904">
        <ele>261.62</ele>
        <time>2024-09-12T11:49:09Z</time>
      </trkpt>
      <trkpt lat="51.420516036450863" lon="11.0576649941504">
        <ele>261.13999999999999</ele>
        <time>2024-09-12T11:49:10Z</time>
      </trkpt>
      <trkpt lat="51.420649979263544" lon="11.057778988033533">
        <ele>262.57999999999998</ele>
        <time>2024-09-12T11:49:11Z</time>
      </trkpt>
      <trkpt lat="51.420717034488916" lon="11.057874960824847">
        <ele>262.10000000000002</ele>
        <time>2024-09-12T11:49:12Z</time>
      </trkpt>
      <trkpt lat="51.421068990603089" lon="11.058380976319313">
        <ele>263.06</ele>
        <time>2024-09-12T11:49:17Z</time>
      </trkpt>
      <trkpt lat="51.421145014464855" lon="11.058490024879575">
        <ele>263.54000000000002</ele>
        <time>2024-09-12T11:49:18Z</time>
      </trkpt>
      <trkpt lat="51.421232018619776" lon="11.058541992679238">
        <ele>264.5</ele>
        <time>2024-09-12T11:49:19Z</time>
      </trkpt>
      <trkpt lat="51.421848004683852" lon="11.058797976002097">
        <ele>268.35000000000002</ele>
        <time>2024-09-12T11:49:25Z</time>
      </trkpt>
      <trkpt lat="51.421873988583684" lon="11.058791019022465">
        <ele>268.82999999999998</ele>
        <time>2024-09-12T11:49:26Z</time>
      </trkpt>
      <trkpt lat="51.421999968588352" lon="11.058685993775725">
        <ele>268.82999999999998</ele>
        <time>2024-09-12T11:49:27Z</time>
      </trkpt>
      <trkpt lat="51.422084039077163" lon="11.058616004884243">
        <ele>268.35000000000002</ele>
        <time>2024-09-12T11:49:28Z</time>
      </trkpt>
      <trkpt lat="51.422181017696857" lon="11.058535035699606">
        <ele>268.35000000000002</ele>
        <time>2024-09-12T11:49:29Z</time>
      </trkpt>
      <trkpt lat="51.422386039048433" lon="11.058464962989092">
        <ele>267.38</ele>
        <time>2024-09-12T11:49:31Z</time>
      </trkpt>
      <trkpt lat="51.422481006011367" lon="11.058462029322982">
        <ele>266.89999999999998</ele>
        <time>2024-09-12T11:49:32Z</time>
      </trkpt>
      <trkpt lat="51.422587959095836" lon="11.05845901183784">
        <ele>266.89999999999998</ele>
        <time>2024-09-12T11:49:33Z</time>
      </trkpt>
      <trkpt lat="51.422697007656097" lon="11.058454988524318">
        <ele>266.89999999999998</ele>
        <time>2024-09-12T11:49:34Z</time>
      </trkpt>
      <trkpt lat="51.422803038731217" lon="11.058451971039176">
        <ele>266.42000000000002</ele>
        <time>2024-09-12T11:49:35Z</time>
      </trkpt>
      <trkpt lat="51.422947039827704" lon="11.058447025716305">
        <ele>265.94</ele>
        <time>2024-09-12T11:49:37Z</time>
      </trkpt>
      <trkpt lat="51.423004036769271" lon="11.058344012126327">
        <ele>266.42000000000002</ele>
        <time>2024-09-12T11:49:38Z</time>
      </trkpt>
      <trkpt lat="51.423053992912173" lon="11.058251978829503">
        <ele>266.42000000000002</ele>
        <time>2024-09-12T11:49:39Z</time>
      </trkpt>
      <trkpt lat="51.423076037317514" lon="11.058210991322994">
        <ele>266.42000000000002</ele>
        <time>2024-09-12T11:49:40Z</time>
      </trkpt>
      <trkpt lat="51.423073019832373" lon="11.058135973289609">
        <ele>265.94</ele>
        <time>2024-09-12T11:49:41Z</time>
      </trkpt>
      <trkpt lat="51.423066984862089" lon="11.057981997728348">
        <ele>265.45999999999998</ele>
        <time>2024-09-12T11:49:42Z</time>
      </trkpt>
      <trkpt lat="51.423061033710837" lon="11.057826010510325">
        <ele>264.98000000000002</ele>
        <time>2024-09-12T11:49:43Z</time>
      </trkpt>
      <trkpt lat="51.423053992912173" lon="11.057654013857245">
        <ele>264.98000000000002</ele>
        <time>2024-09-12T11:49:44Z</time>
      </trkpt>
      <trkpt lat="51.423037983477116" lon="11.057616965845227">
        <ele>264.98000000000002</ele>
        <time>2024-09-12T11:49:45Z</time>
      </trkpt>
      <trkpt lat="51.422976963222027" lon="11.057478999719024">
        <ele>264.98000000000002</ele>
        <time>2024-09-12T11:49:46Z</time>
      </trkpt>
      <trkpt lat="51.422915020957589" lon="11.057338016107678">
        <ele>264.5</ele>
        <time>2024-09-12T11:49:47Z</time>
      </trkpt>
      <trkpt lat="51.422850983217359" lon="11.057194015011191">
        <ele>264.01999999999998</ele>
        <time>2024-09-12T11:49:48Z</time>
      </trkpt>
      <trkpt lat="51.422786023467779" lon="11.057046996429563">
        <ele>263.54000000000002</ele>
        <time>2024-09-12T11:49:49Z</time>
      </trkpt>
      <trkpt lat="51.422719974070787" lon="11.056897966191173">
        <ele>263.06</ele>
        <time>2024-09-12T11:49:50Z</time>
      </trkpt>
      <trkpt lat="51.422645039856434" lon="11.056726975366473">
        <ele>262.10000000000002</ele>
        <time>2024-09-12T11:49:51Z</time>
      </trkpt>
      <trkpt lat="51.422587959095836" lon="11.056562019512057">
        <ele>261.13999999999999</ele>
        <time>2024-09-12T11:49:52Z</time>
      </trkpt>
      <trkpt lat="51.422490980476141" lon="11.056281980127096">
        <ele>259.69</ele>
        <time>2024-09-12T11:49:54Z</time>
      </trkpt>
      <trkpt lat="51.42244697548449" lon="11.056105038151145">
        <ele>258.73000000000002</ele>
        <time>2024-09-12T11:49:55Z</time>
      </trkpt>
      <trkpt lat="51.42248704098165" lon="11.055836984887719">
        <ele>258.25</ele>
        <time>2024-09-12T11:49:56Z</time>
      </trkpt>
      <trkpt lat="51.422619977965951" lon="11.0556860268116">
        <ele>257.29000000000002</ele>
        <time>2024-09-12T11:49:57Z</time>
      </trkpt>
      <trkpt lat="51.42270103096962" lon="11.055648978799582">
        <ele>256.32999999999998</ele>
        <time>2024-09-12T11:49:58Z</time>
      </trkpt>
      <trkpt lat="51.422774959355593" lon="11.055615032091737">
        <ele>255.37</ele>
        <time>2024-09-12T11:49:59Z</time>
      </trkpt>
      <trkpt lat="51.422914015129209" lon="11.055630035698414">
        <ele>254.88999999999999</ele>
        <time>2024-09-12T11:50:00Z</time>
      </trkpt>
      <trkpt lat="51.422969000414014" lon="11.055636992678046">
        <ele>253.93000000000001</ele>
        <time>2024-09-12T11:50:01Z</time>
      </trkpt>
      <trkpt lat="51.423100009560585" lon="11.055754004046321">
        <ele>252.96000000000001</ele>
        <time>2024-09-12T11:50:02Z</time>
      </trkpt>
      <trkpt lat="51.423189025372267" lon="11.055832039564848">
        <ele>252.47999999999999</ele>
        <time>2024-09-12T11:50:03Z</time>
      </trkpt>
      <trkpt lat="51.423276029527187" lon="11.055907979607582">
        <ele>252</ele>
        <time>2024-09-12T11:50:04Z</time>
      </trkpt>
      <trkpt lat="51.42336999066174" lon="11.055981991812587">
        <ele>251.52000000000001</ele>
        <time>2024-09-12T11:50:05Z</time>
      </trkpt>
      <trkpt lat="51.423469986766577" lon="11.056049969047308">
        <ele>251.03999999999999</ele>
        <time>2024-09-12T11:50:06Z</time>
      </trkpt>
      <trkpt lat="51.423571994528174" lon="11.056118030101061">
        <ele>250.08000000000001</ele>
        <time>2024-09-12T11:50:07Z</time>
      </trkpt>
      <trkpt lat="51.423786990344524" lon="11.056261025369167">
        <ele>249.12</ele>
        <time>2024-09-12T11:50:09Z</time>
      </trkpt>
      <trkpt lat="51.424032999202609" lon="11.0563750192523">
        <ele>248.16</ele>
        <time>2024-09-12T11:50:11Z</time>
      </trkpt>
      <trkpt lat="51.424170965328813" lon="11.056408965960145">
        <ele>247.68000000000001</ele>
        <time>2024-09-12T11:50:12Z</time>
      </trkpt>
      <trkpt lat="51.424771025776863" lon="11.056473003700376">
        <ele>245.27000000000001</ele>
        <time>2024-09-12T11:50:17Z</time>
      </trkpt>
      <trkpt lat="51.424832968041301" lon="11.056395974010229">
        <ele>244.78999999999999</ele>
        <time>2024-09-12T11:50:18Z</time>
      </trkpt>
      <trkpt lat="51.424857024103403" lon="11.056365966796875">
        <ele>244.78999999999999</ele>
        <time>2024-09-12T11:50:19Z</time>
      </trkpt>
      <trkpt lat="51.424889964982867" lon="11.056201010942459">
        <ele>244.31</ele>
        <time>2024-09-12T11:50:20Z</time>
      </trkpt>
      <trkpt lat="51.424898011609912" lon="11.056115012615919">
        <ele>243.34999999999999</ele>
        <time>2024-09-12T11:50:21Z</time>
      </trkpt>
      <trkpt lat="51.424887031316757" lon="11.055936980992556">
        <ele>242.87</ele>
        <time>2024-09-12T11:50:22Z</time>
      </trkpt>
      <trkpt lat="51.424875967204571" lon="11.055746963247657">
        <ele>242.38999999999999</ele>
        <time>2024-09-12T11:50:23Z</time>
      </trkpt>
      <trkpt lat="51.424865992739797" lon="11.0555599629879">
        <ele>242.38999999999999</ele>
        <time>2024-09-12T11:50:24Z</time>
      </trkpt>
      <trkpt lat="51.424855012446642" lon="11.055376986041665">
        <ele>241.91</ele>
        <time>2024-09-12T11:50:25Z</time>
      </trkpt>
      <trkpt lat="51.424834979698062" lon="11.055036010220647">
        <ele>241.43000000000001</ele>
        <time>2024-09-12T11:50:27Z</time>
      </trkpt>
      <trkpt lat="51.42485098913312" lon="11.054800981655717">
        <ele>240.94999999999999</ele>
        <time>2024-09-12T11:50:28Z</time>
      </trkpt>
      <trkpt lat="51.424892982468009" lon="11.05461498722434">
        <ele>239.99000000000001</ele>
        <time>2024-09-12T11:50:29Z</time>
      </trkpt>
      <trkpt lat="51.42495802603662" lon="11.054465034976602">
        <ele>239.50999999999999</ele>
        <time>2024-09-12T11:50:30Z</time>
      </trkpt>
      <trkpt lat="51.425032038241625" lon="11.054403008893132">
        <ele>238.53999999999999</ele>
        <time>2024-09-12T11:50:31Z</time>
      </trkpt>
      <trkpt lat="51.425071014091372" lon="11.054370990023017">
        <ele>237.58000000000001</ele>
        <time>2024-09-12T11:50:32Z</time>
      </trkpt>
      <trkpt lat="51.425178973004222" lon="11.054428992792964">
        <ele>236.62</ele>
        <time>2024-09-12T11:50:33Z</time>
      </trkpt>
      <trkpt lat="51.425291039049625" lon="11.054490013048053">
        <ele>235.66</ele>
        <time>2024-09-12T11:50:34Z</time>
      </trkpt>
      <trkpt lat="51.425400003790855" lon="11.054585985839367">
        <ele>234.22</ele>
        <time>2024-09-12T11:50:35Z</time>
      </trkpt>
      <trkpt lat="51.425511986017227" lon="11.054690005257726">
        <ele>233.25999999999999</ele>
        <time>2024-09-12T11:50:36Z</time>
      </trkpt>
      <trkpt lat="51.425618017092347" lon="11.054788995534182">
        <ele>231.81</ele>
        <time>2024-09-12T11:50:37Z</time>
      </trkpt>
      <trkpt lat="51.425828989595175" lon="11.054985970258713">
        <ele>229.88999999999999</ele>
        <time>2024-09-12T11:50:39Z</time>
      </trkpt>
      <trkpt lat="51.426335005089641" lon="11.055435994639993">
        <ele>225.09</ele>
        <time>2024-09-12T11:50:44Z</time>
      </trkpt>
      <trkpt lat="51.426427038386464" lon="11.055415961891413">
        <ele>224.12</ele>
        <time>2024-09-12T11:50:45Z</time>
      </trkpt>
      <trkpt lat="51.426487974822521" lon="11.055378997698426">
        <ele>222.68000000000001</ele>
        <time>2024-09-12T11:50:46Z</time>
      </trkpt>
      <trkpt lat="51.42652896232903" lon="11.055247988551855">
        <ele>221.72</ele>
        <time>2024-09-12T11:50:47Z</time>
      </trkpt>
      <trkpt lat="51.426571039482951" lon="11.055112034082413">
        <ele>221.24000000000001</ele>
        <time>2024-09-12T11:50:48Z</time>
      </trkpt>
      <trkpt lat="51.426595011726022" lon="11.054980019107461">
        <ele>220.28</ele>
        <time>2024-09-12T11:50:49Z</time>
      </trkpt>
      <trkpt lat="51.426595011726022" lon="11.054811039939523">
        <ele>219.31999999999999</ele>
        <time>2024-09-12T11:50:50Z</time>
      </trkpt>
      <trkpt lat="51.426595011726022" lon="11.054649017751217">
        <ele>218.36000000000001</ele>
        <time>2024-09-12T11:50:51Z</time>
      </trkpt>
      <trkpt lat="51.426631975919008" lon="11.054274011403322">
        <ele>215.47</ele>
        <time>2024-09-12T11:50:54Z</time>
      </trkpt>
      <trkpt lat="51.426658965647221" lon="11.054220031946898">
        <ele>214.50999999999999</ele>
        <time>2024-09-12T11:50:55Z</time>
      </trkpt>
      <trkpt lat="51.426658965647221" lon="11.054220031946898">
        <ele>213.55000000000001</ele>
        <time>2024-09-12T11:50:56Z</time>
      </trkpt>
      <trkpt lat="51.426714034751058" lon="11.054198993369937">
        <ele>212.59</ele>
        <time>2024-09-12T11:50:57Z</time>
      </trkpt>
      <trkpt lat="51.426758961752057" lon="11.054180972278118">
        <ele>211.63</ele>
        <time>2024-09-12T11:50:58Z</time>
      </trkpt>
      <trkpt lat="51.426809001713991" lon="11.05420502834022">
        <ele>210.19</ele>
        <time>2024-09-12T11:50:59Z</time>
      </trkpt>
      <trkpt lat="51.426899023354053" lon="11.054263031110168">
        <ele>208.74000000000001</ele>
        <time>2024-09-12T11:51:00Z</time>
      </trkpt>
      <trkpt lat="51.42699901945889" lon="11.054327990859747">
        <ele>207.30000000000001</ele>
        <time>2024-09-12T11:51:01Z</time>
      </trkpt>
      <trkpt lat="51.427131034433842" lon="11.054412983357906">
        <ele>205.86000000000001</ele>
        <time>2024-09-12T11:51:02Z</time>
      </trkpt>
      <trkpt lat="51.427204040810466" lon="11.054515996947885">
        <ele>204.90000000000001</ele>
        <time>2024-09-12T11:51:03Z</time>
      </trkpt>
      <trkpt lat="51.427286015823483" lon="11.054630996659398">
        <ele>203.94</ele>
        <time>2024-09-12T11:51:04Z</time>
      </trkpt>
      <trkpt lat="51.427363967522979" lon="11.054740967229009">
        <ele>202.97999999999999</ele>
        <time>2024-09-12T11:51:05Z</time>
      </trkpt>
      <trkpt lat="51.427434962242842" lon="11.054840963333845">
        <ele>202.00999999999999</ele>
        <time>2024-09-12T11:51:06Z</time>
      </trkpt>
      <trkpt lat="51.427603019401431" lon="11.055079009383917">
        <ele>200.56999999999999</ele>
        <time>2024-09-12T11:51:07Z</time>
      </trkpt>
      <trkpt lat="51.427603019401431" lon="11.055079009383917">
        <ele>199.13</ele>
        <time>2024-09-12T11:51:08Z</time>
      </trkpt>
      <trkpt lat="51.427818015217781" lon="11.055079009383917">
        <ele>197.69</ele>
        <time>2024-09-12T11:51:09Z</time>
      </trkpt>
      <trkpt lat="51.42786000855267" lon="11.054980019107461">
        <ele>197.21000000000001</ele>
        <time>2024-09-12T11:51:10Z</time>
      </trkpt>
      <trkpt lat="51.427918011322618" lon="11.054843980818987">
        <ele>196.25</ele>
        <time>2024-09-12T11:51:11Z</time>
      </trkpt>
      <trkpt lat="51.427972996607423" lon="11.054713977500796">
        <ele>195.77000000000001</ele>
        <time>2024-09-12T11:51:12Z</time>
      </trkpt>
      <trkpt lat="51.428211964666843" lon="11.05407795868814">
        <ele>193.36000000000001</ele>
        <time>2024-09-12T11:51:16Z</time>
      </trkpt>
      <trkpt lat="51.428250018507242" lon="11.053897999227047">
        <ele>192.88</ele>
        <time>2024-09-12T11:51:17Z</time>
      </trkpt>
      <trkpt lat="51.42829000018537" lon="11.053640004247427">
        <ele>192.40000000000001</ele>
        <time>2024-09-12T11:51:18Z</time>
      </trkpt>
      <trkpt lat="51.42829000018537" lon="11.053444035351276">
        <ele>192.40000000000001</ele>
        <time>2024-09-12T11:51:19Z</time>
      </trkpt>
      <trkpt lat="51.428271979093552" lon="11.053215963765979">
        <ele>192.40000000000001</ele>
        <time>2024-09-12T11:51:20Z</time>
      </trkpt>
      <trkpt lat="51.428240966051817" lon="11.053034998476505">
        <ele>192.88</ele>
        <time>2024-09-12T11:51:21Z</time>
      </trkpt>
      <trkpt lat="51.428175000473857" lon="11.052642976865172">
        <ele>192.40000000000001</ele>
        <time>2024-09-12T11:51:23Z</time>
      </trkpt>
      <trkpt lat="51.42814096994698" lon="11.052447007969022">
        <ele>192.40000000000001</ele>
        <time>2024-09-12T11:51:24Z</time>
      </trkpt>
      <trkpt lat="51.428167959675193" lon="11.052230000495911">
        <ele>191.91999999999999</ele>
        <time>2024-09-12T11:51:25Z</time>
      </trkpt>
      <trkpt lat="51.428194027394056" lon="11.052044006064534">
        <ele>191.44</ele>
        <time>2024-09-12T11:51:26Z</time>
      </trkpt>
      <trkpt lat="51.428216993808746" lon="11.051867986097932">
        <ele>190.96000000000001</ele>
        <time>2024-09-12T11:51:27Z</time>
      </trkpt>
      <trkpt lat="51.428239038214087" lon="11.051690960302949">
        <ele>190</ele>
        <time>2024-09-12T11:51:28Z</time>
      </trkpt>
      <trkpt lat="51.428259992972016" lon="11.051518963649869">
        <ele>189.52000000000001</ele>
        <time>2024-09-12T11:51:29Z</time>
      </trkpt>
      <trkpt lat="51.42826896160841" lon="11.051357025280595">
        <ele>189.52000000000001</ele>
        <time>2024-09-12T11:51:30Z</time>
      </trkpt>
      <trkpt lat="51.42826896160841" lon="11.051178993657231">
        <ele>189.03999999999999</ele>
        <time>2024-09-12T11:51:31Z</time>
      </trkpt>
      <trkpt lat="51.42826896160841" lon="11.050989981740713">
        <ele>189.03999999999999</ele>
        <time>2024-09-12T11:51:32Z</time>
      </trkpt>
      <trkpt lat="51.428239960223436" lon="11.049257023259997">
        <ele>187.59</ele>
        <time>2024-09-12T11:51:39Z</time>
      </trkpt>
      <trkpt lat="51.42831296660006" lon="11.048624021932483">
        <ele>187.59</ele>
        <time>2024-09-12T11:51:41Z</time>
      </trkpt>
      <trkpt lat="51.428359989076853" lon="11.048271981999278">
        <ele>187.11000000000001</ele>
        <time>2024-09-12T11:51:42Z</time>
      </trkpt>
      <trkpt lat="51.428806995972991" lon="11.045382991433144">
        <ele>181.83000000000001</ele>
        <time>2024-09-12T11:51:50Z</time>
      </trkpt>
      <trkpt lat="51.428969018161297" lon="11.0446219984442">
        <ele>180.38</ele>
        <time>2024-09-12T11:51:53Z</time>
      </trkpt>
      <trkpt lat="51.429050993174314" lon="11.044361991807818">
        <ele>179.41999999999999</ele>
        <time>2024-09-12T11:51:54Z</time>
      </trkpt>
      <trkpt lat="51.429171022027731" lon="11.044254032894969">
        <ele>178.94</ele>
        <time>2024-09-12T11:51:55Z</time>
      </trkpt>
      <trkpt lat="51.42931804060936" lon="11.044157976284623">
        <ele>178.46000000000001</ele>
        <time>2024-09-12T11:51:56Z</time>
      </trkpt>
      <trkpt lat="51.429465981200337" lon="11.044111037626863">
        <ele>177.97999999999999</ele>
        <time>2024-09-12T11:51:57Z</time>
      </trkpt>
      <trkpt lat="51.429618028923869" lon="11.04406300932169">
        <ele>177.5</ele>
        <time>2024-09-12T11:51:58Z</time>
      </trkpt>
      <trkpt lat="51.429777033627033" lon="11.044019004330039">
        <ele>177.02000000000001</ele>
        <time>2024-09-12T11:51:59Z</time>
      </trkpt>
      <trkpt lat="51.43127697519958" lon="11.04378598742187">
        <ele>171.25</ele>
        <time>2024-09-12T11:52:10Z</time>
      </trkpt>
      <trkpt lat="51.432812958955765" lon="11.043639974668622">
        <ele>165.47999999999999</ele>
        <time>2024-09-12T11:52:23Z</time>
      </trkpt>
      <trkpt lat="51.434360006824136" lon="11.043472001329064">
        <ele>160.68000000000001</ele>
        <time>2024-09-12T11:52:36Z</time>
      </trkpt>
      <trkpt lat="51.435580998659134" lon="11.043171007186174">
        <ele>158.27000000000001</ele>
        <time>2024-09-12T11:52:47Z</time>
      </trkpt>
      <trkpt lat="51.435831030830741" lon="11.043170001357794">
        <ele>157.78999999999999</ele>
        <time>2024-09-12T11:52:51Z</time>
      </trkpt>
      <trkpt lat="51.435838993638754" lon="11.043250970542431">
        <ele>157.78999999999999</ele>
        <time>2024-09-12T11:52:52Z</time>
      </trkpt>
      <trkpt lat="51.435848968103528" lon="11.043363958597183">
        <ele>157.78999999999999</ele>
        <time>2024-09-12T11:52:53Z</time>
      </trkpt>
      <trkpt lat="51.435861960053444" lon="11.043503014370799">
        <ele>157.31</ele>
        <time>2024-09-12T11:52:54Z</time>
      </trkpt>
      <trkpt lat="51.435864977538586" lon="11.043659001588821">
        <ele>156.83000000000001</ele>
        <time>2024-09-12T11:52:55Z</time>
      </trkpt>
      <trkpt lat="51.436116015538573" lon="11.045687003061175">
        <ele>156.83000000000001</ele>
        <time>2024-09-12T11:53:05Z</time>
      </trkpt>
      <trkpt lat="51.436340985819697" lon="11.047968976199627">
        <ele>157.31</ele>
        <time>2024-09-12T11:53:17Z</time>
      </trkpt>
      <trkpt lat="51.436424972489476" lon="11.048868019133806">
        <ele>157.78999999999999</ele>
        <time>2024-09-12T11:53:24Z</time>
      </trkpt>
      <trkpt lat="51.436480041593313" lon="11.049084020778537">
        <ele>158.27000000000001</ele>
        <time>2024-09-12T11:53:25Z</time>
      </trkpt>
      <trkpt lat="51.436615996062756" lon="11.04913498274982">
        <ele>158.27000000000001</ele>
        <time>2024-09-12T11:53:26Z</time>
      </trkpt>
      <trkpt lat="51.437210021540523" lon="11.049630017951131">
        <ele>157.31</ele>
        <time>2024-09-12T11:53:30Z</time>
      </trkpt>
      <trkpt lat="51.438566967844963" lon="11.050784038379788">
        <ele>155.87</ele>
        <time>2024-09-12T11:53:37Z</time>
      </trkpt>
      <trkpt lat="51.441081035882235" lon="11.052929973229766">
        <ele>150.09999999999999</ele>
        <time>2024-09-12T11:53:50Z</time>
      </trkpt>
      <trkpt lat="51.443000994622707" lon="11.054568970575929">
        <ele>150.09999999999999</ele>
        <time>2024-09-12T11:53:58Z</time>
      </trkpt>
      <trkpt lat="51.446146974340081" lon="11.05725503526628">
        <ele>151.53999999999999</ele>
        <time>2024-09-12T11:54:11Z</time>
      </trkpt>
      <trkpt lat="51.449778014793992" lon="11.060353992506862">
        <ele>155.87</ele>
        <time>2024-09-12T11:54:26Z</time>
      </trkpt>
      <trkpt lat="51.453390028327703" lon="11.063554035499692">
        <ele>162.59999999999999</ele>
        <time>2024-09-12T11:54:41Z</time>
      </trkpt>
      <trkpt lat="51.454904973506927" lon="11.065323036164045">
        <ele>161.63999999999999</ele>
        <time>2024-09-12T11:54:48Z</time>
      </trkpt>
      <trkpt lat="51.455042017623782" lon="11.065641967579722">
        <ele>161.16</ele>
        <time>2024-09-12T11:54:49Z</time>
      </trkpt>
      <trkpt lat="51.455186018720269" lon="11.065976992249489">
        <ele>160.68000000000001</ele>
        <time>2024-09-12T11:54:50Z</time>
      </trkpt>
      <trkpt lat="51.456238031387329" lon="11.068528024479747">
        <ele>154.91</ele>
        <time>2024-09-12T11:54:57Z</time>
      </trkpt>
      <trkpt lat="51.456479011103511" lon="11.069118026643991">
        <ele>152.99000000000001</ele>
        <time>2024-09-12T11:54:59Z</time>
      </trkpt>
      <trkpt lat="51.456527039408684" lon="11.069434024393559">
        <ele>152.03</ele>
        <time>2024-09-12T11:55:00Z</time>
      </trkpt>
      <trkpt lat="51.456570960581303" lon="11.069755973294377">
        <ele>151.53999999999999</ele>
        <time>2024-09-12T11:55:01Z</time>
      </trkpt>
      <trkpt lat="51.456662993878126" lon="11.071854969486594">
        <ele>148.18000000000001</ele>
        <time>2024-09-12T11:55:08Z</time>
      </trkpt>
      <trkpt lat="51.456673974171281" lon="11.072011040523648">
        <ele>147.69999999999999</ele>
        <time>2024-09-12T11:55:09Z</time>
      </trkpt>
      <trkpt lat="51.456717979162931" lon="11.072126040235162">
        <ele>147.69999999999999</ele>
        <time>2024-09-12T11:55:10Z</time>
      </trkpt>
      <trkpt lat="51.456806994974613" lon="11.072244979441166">
        <ele>147.69999999999999</ele>
        <time>2024-09-12T11:55:11Z</time>
      </trkpt>
      <trkpt lat="51.456903973594308" lon="11.072297031059861">
        <ele>147.69999999999999</ele>
        <time>2024-09-12T11:55:12Z</time>
      </trkpt>
      <trkpt lat="51.45703598856926" lon="11.072368025779724">
        <ele>147.69999999999999</ele>
        <time>2024-09-12T11:55:13Z</time>
      </trkpt>
      <trkpt lat="51.458242982625961" lon="11.073017036542296">
        <ele>148.18000000000001</ele>
        <time>2024-09-12T11:55:20Z</time>
      </trkpt>
      <trkpt lat="51.4592270180583" lon="11.073536965996027">
        <ele>149.13999999999999</ele>
        <time>2024-09-12T11:55:27Z</time>
      </trkpt>
      <trkpt lat="51.460132012143731" lon="11.073618018999696">
        <ele>151.06</ele>
        <time>2024-09-12T11:55:35Z</time>
      </trkpt>
      <trkpt lat="51.460742969065905" lon="11.073658000677824">
        <ele>151.06</ele>
        <time>2024-09-12T11:55:40Z</time>
      </trkpt>
      <trkpt lat="51.460856962949038" lon="11.073725977912545">
        <ele>151.06</ele>
        <time>2024-09-12T11:55:41Z</time>
      </trkpt>
      <trkpt lat="51.460971040651202" lon="11.073794038966298">
        <ele>151.06</ele>
        <time>2024-09-12T11:55:42Z</time>
      </trkpt>
      <trkpt lat="51.461084028705955" lon="11.0738630220294">
        <ele>150.58000000000001</ele>
        <time>2024-09-12T11:55:43Z</time>
      </trkpt>
      <trkpt lat="51.461198022589087" lon="11.07392999343574">
        <ele>150.58000000000001</ele>
        <time>2024-09-12T11:55:44Z</time>
      </trkpt>
      <trkpt lat="51.462121959775686" lon="11.074370965361595">
        <ele>151.53999999999999</ele>
        <time>2024-09-12T11:55:52Z</time>
      </trkpt>
      <trkpt lat="51.462233019992709" lon="11.074424022808671">
        <ele>151.06</ele>
        <time>2024-09-12T11:55:53Z</time>
      </trkpt>
      <trkpt lat="51.46249202080071" lon="11.074544973671436">
        <ele>150.58000000000001</ele>
        <time>2024-09-12T11:55:56Z</time>
      </trkpt>
      <trkpt lat="51.462554968893528" lon="11.07457498088479">
        <ele>151.06</ele>
        <time>2024-09-12T11:55:57Z</time>
      </trkpt>
      <trkpt lat="51.462602997198701" lon="11.074597025290132">
        <ele>151.53999999999999</ele>
        <time>2024-09-12T11:55:58Z</time>
      </trkpt>
      <trkpt lat="51.46266502328217" lon="11.074730968102813">
        <ele>152.03</ele>
        <time>2024-09-12T11:56:00Z</time>
      </trkpt>
      <trkpt lat="51.46266502328217" lon="11.074836999177933">
        <ele>152.50999999999999</ele>
        <time>2024-09-12T11:56:01Z</time>
      </trkpt>
      <trkpt lat="51.46266502328217" lon="11.074955016374588">
        <ele>152.50999999999999</ele>
        <time>2024-09-12T11:56:02Z</time>
      </trkpt>
      <trkpt lat="51.46266502328217" lon="11.075074961408973">
        <ele>152.99000000000001</ele>
        <time>2024-09-12T11:56:03Z</time>
      </trkpt>
      <trkpt lat="51.46266502328217" lon="11.075199013575912">
        <ele>152.99000000000001</ele>
        <time>2024-09-12T11:56:04Z</time>
      </trkpt>
      <trkpt lat="51.46266502328217" lon="11.07532599940896">
        <ele>153.47</ele>
        <time>2024-09-12T11:56:05Z</time>
      </trkpt>
      <trkpt lat="51.462667034938931" lon="11.07547502964735">
        <ele>153.47</ele>
        <time>2024-09-12T11:56:06Z</time>
      </trkpt>
      <trkpt lat="51.462709028273821" lon="11.075773006305099">
        <ele>154.43000000000001</ele>
        <time>2024-09-12T11:56:08Z</time>
      </trkpt>
      <trkpt lat="51.462733000516891" lon="11.075925976037979">
        <ele>154.91</ele>
        <time>2024-09-12T11:56:09Z</time>
      </trkpt>
      <trkpt lat="51.462770970538259" lon="11.076063020154834">
        <ele>155.38999999999999</ele>
        <time>2024-09-12T11:56:10Z</time>
      </trkpt>
      <trkpt lat="51.46313700824976" lon="11.077136993408203">
        <ele>157.78999999999999</ele>
        <time>2024-09-12T11:56:18Z</time>
      </trkpt>
      <trkpt lat="51.463157963007689" lon="11.077219974249601">
        <ele>157.78999999999999</ele>
        <time>2024-09-12T11:56:19Z</time>
      </trkpt>
      <trkpt lat="51.463219989091158" lon="11.077293986454606">
        <ele>158.27000000000001</ele>
        <time>2024-09-12T11:56:20Z</time>
      </trkpt>
      <trkpt lat="51.463281009346247" lon="11.077271020039916">
        <ele>158.27000000000001</ele>
        <time>2024-09-12T11:56:21Z</time>
      </trkpt>
      <trkpt lat="51.46335300989449" lon="11.077244030311704">
        <ele>158.75</ele>
        <time>2024-09-12T11:56:22Z</time>
      </trkpt>
      <trkpt lat="51.46343800239265" lon="11.077216034755111">
        <ele>158.75</ele>
        <time>2024-09-12T11:56:23Z</time>
      </trkpt>
      <trkpt lat="51.463529029861093" lon="11.077185021713376">
        <ele>158.75</ele>
        <time>2024-09-12T11:56:24Z</time>
      </trkpt>
      <trkpt lat="51.463618967682123" lon="11.077156020328403">
        <ele>159.24000000000001</ele>
        <time>2024-09-12T11:56:25Z</time>
      </trkpt>
      <trkpt lat="51.463704966008663" lon="11.077127018943429">
        <ele>159.72</ele>
        <time>2024-09-12T11:56:26Z</time>
      </trkpt>
      <trkpt lat="51.463995985686779" lon="11.077030040323734">
        <ele>160.68000000000001</ele>
        <time>2024-09-12T11:56:29Z</time>
      </trkpt>
      <trkpt lat="51.464783968403935" lon="11.077189967036247">
        <ele>161.63999999999999</ele>
        <time>2024-09-12T11:56:38Z</time>
      </trkpt>
      <trkpt lat="51.464866027235985" lon="11.077263979241252">
        <ele>161.16</ele>
        <time>2024-09-12T11:56:39Z</time>
      </trkpt>
      <trkpt lat="51.4656319655478" lon="11.078049028292298">
        <ele>162.59999999999999</ele>
        <time>2024-09-12T11:56:47Z</time>
      </trkpt>
      <trkpt lat="51.46659797988832" lon="11.078894007951021">
        <ele>171.25</ele>
        <time>2024-09-12T11:56:56Z</time>
      </trkpt>
      <trkpt lat="51.467869011685252" lon="11.079749967902899">
        <ele>179.90000000000001</ele>
        <time>2024-09-12T11:57:04Z</time>
      </trkpt>
      <trkpt lat="51.468061041086912" lon="11.079846024513245">
        <ele>180.87</ele>
        <time>2024-09-12T11:57:05Z</time>
      </trkpt>
      <trkpt lat="51.468262039124966" lon="11.079910984262824">
        <ele>182.31</ele>
        <time>2024-09-12T11:57:06Z</time>
      </trkpt>
      <trkpt lat="51.470457008108497" lon="11.080386992543936">
        <ele>193.36000000000001</ele>
        <time>2024-09-12T11:57:16Z</time>
      </trkpt>
      <trkpt lat="51.472160965204239" lon="11.081013958901167">
        <ele>198.65000000000001</ele>
        <time>2024-09-12T11:57:24Z</time>
      </trkpt>
      <trkpt lat="51.473885038867593" lon="11.081957006826997">
        <ele>203.94</ele>
        <time>2024-09-12T11:57:32Z</time>
      </trkpt>
      <trkpt lat="51.476014964282513" lon="11.083364998921752">
        <ele>212.59</ele>
        <time>2024-09-12T11:57:42Z</time>
      </trkpt>
      <trkpt lat="51.476983996108174" lon="11.084210984408855">
        <ele>219.31999999999999</ele>
        <time>2024-09-12T11:57:47Z</time>
      </trkpt>
      <trkpt lat="51.477109976112843" lon="11.08441298827529">
        <ele>220.75999999999999</ele>
        <time>2024-09-12T11:57:48Z</time>
      </trkpt>
      <trkpt lat="51.477213995531201" lon="11.084661008790135">
        <ele>222.19999999999999</ele>
        <time>2024-09-12T11:57:49Z</time>
      </trkpt>
      <trkpt lat="51.477309968322515" lon="11.084917997941375">
        <ele>223.63999999999999</ele>
        <time>2024-09-12T11:57:50Z</time>
      </trkpt>
      <trkpt lat="51.477367971092463" lon="11.085239024832845">
        <ele>224.61000000000001</ele>
        <time>2024-09-12T11:57:51Z</time>
      </trkpt>
      <trkpt lat="51.477428991347551" lon="11.085575977340341">
        <ele>225.56999999999999</ele>
        <time>2024-09-12T11:57:52Z</time>
      </trkpt>
      <trkpt lat="51.477864012122154" lon="11.089052958413959">
        <ele>237.58000000000001</ele>
        <time>2024-09-12T11:58:01Z</time>
      </trkpt>
      <trkpt lat="51.477943975478411" lon="11.090518031269312">
        <ele>242.87</ele>
        <time>2024-09-12T11:58:06Z</time>
      </trkpt>
      <trkpt lat="51.477997032925487" lon="11.090705031529069">
        <ele>243.83000000000001</ele>
        <time>2024-09-12T11:58:07Z</time>
      </trkpt>
      <trkpt lat="51.47809099406004" lon="11.090806033462286">
        <ele>244.31</ele>
        <time>2024-09-12T11:58:08Z</time>
      </trkpt>
      <trkpt lat="51.478201970458031" lon="11.090891025960445">
        <ele>244.78999999999999</ele>
        <time>2024-09-12T11:58:09Z</time>
      </trkpt>
      <trkpt lat="51.478312024846673" lon="11.090820031240582">
        <ele>245.75</ele>
        <time>2024-09-12T11:58:10Z</time>
      </trkpt>
      <trkpt lat="51.478436999022961" lon="11.090740989893675">
        <ele>246.72</ele>
        <time>2024-09-12T11:58:11Z</time>
      </trkpt>
      <trkpt lat="51.478524003177881" lon="11.090552983805537">
        <ele>247.19999999999999</ele>
        <time>2024-09-12T11:58:12Z</time>
      </trkpt>
      <trkpt lat="51.47862802259624" lon="11.090332036837935">
        <ele>248.16</ele>
        <time>2024-09-12T11:58:13Z</time>
      </trkpt>
      <trkpt lat="51.478973021730781" lon="11.08959099277854">
        <ele>250.56</ele>
        <time>2024-09-12T11:58:16Z</time>
      </trkpt>
      <trkpt lat="51.479087015613914" lon="11.089392006397247">
        <ele>251.52000000000001</ele>
        <time>2024-09-12T11:58:17Z</time>
      </trkpt>
      <trkpt lat="51.479218024760485" lon="11.08922797255218">
        <ele>252.47999999999999</ele>
        <time>2024-09-12T11:58:18Z</time>
      </trkpt>
      <trkpt lat="51.479372000321746" lon="11.089100986719131">
        <ele>253.44</ele>
        <time>2024-09-12T11:58:19Z</time>
      </trkpt>
      <trkpt lat="51.479539973661304" lon="11.089034015312791">
        <ele>254.41</ele>
        <time>2024-09-12T11:58:20Z</time>
      </trkpt>
      <trkpt lat="51.479726973921061" lon="11.089018005877733">
        <ele>255.84999999999999</ele>
        <time>2024-09-12T11:58:21Z</time>
      </trkpt>
      <trkpt lat="51.479926966130733" lon="11.089044995605946">
        <ele>256.81</ele>
        <time>2024-09-12T11:58:22Z</time>
      </trkpt>
      <trkpt lat="51.480136010795832" lon="11.089078020304441">
        <ele>258.25</ele>
        <time>2024-09-12T11:58:23Z</time>
      </trkpt>
      <trkpt lat="51.480582011863589" lon="11.089174998924136">
        <ele>260.64999999999998</ele>
        <time>2024-09-12T11:58:25Z</time>
      </trkpt>
      <trkpt lat="51.480934973806143" lon="11.089385971426964">
        <ele>263.54000000000002</ele>
        <time>2024-09-12T11:58:27Z</time>
      </trkpt>
      <trkpt lat="51.481071012094617" lon="11.089504994452">
        <ele>264.5</ele>
        <time>2024-09-12T11:58:28Z</time>
      </trkpt>
      <trkpt lat="51.48120503872633" lon="11.089668022468686">
        <ele>265.45999999999998</ele>
        <time>2024-09-12T11:58:29Z</time>
      </trkpt>
      <trkpt lat="51.481298999860883" lon="11.089877989143133">
        <ele>266.89999999999998</ele>
        <time>2024-09-12T11:58:30Z</time>
      </trkpt>
      <trkpt lat="51.481408970430493" lon="11.090123998001218">
        <ele>267.86000000000001</ele>
        <time>2024-09-12T11:58:31Z</time>
      </trkpt>
      <trkpt lat="51.481527993455529" lon="11.090389033779502">
        <ele>268.35000000000002</ele>
        <time>2024-09-12T11:58:32Z</time>
      </trkpt>
      <trkpt lat="51.481651039794087" lon="11.090662032365799">
        <ele>269.31</ele>
        <time>2024-09-12T11:58:33Z</time>
      </trkpt>
      <trkpt lat="51.482755020260811" lon="11.093060011044145">
        <ele>278.92000000000002</ele>
        <time>2024-09-12T11:58:41Z</time>
      </trkpt>
      <trkpt lat="51.483424985781312" lon="11.094462973996997">
        <ele>286.61000000000001</ele>
        <time>2024-09-12T11:58:46Z</time>
      </trkpt>
      <trkpt lat="51.483533028513193" lon="11.094636982306838">
        <ele>288.05000000000001</ele>
        <time>2024-09-12T11:58:47Z</time>
      </trkpt>
      <trkpt lat="51.483654985204339" lon="11.094719963148236">
        <ele>289.00999999999999</ele>
        <time>2024-09-12T11:58:48Z</time>
      </trkpt>
      <trkpt lat="51.483797980472445" lon="11.094766985625029">
        <ele>289.97000000000003</ele>
        <time>2024-09-12T11:58:49Z</time>
      </trkpt>
      <trkpt lat="51.483954973518848" lon="11.094778971746564">
        <ele>291.42000000000002</ele>
        <time>2024-09-12T11:58:50Z</time>
      </trkpt>
      <trkpt lat="51.484126970171928" lon="11.094732033088803">
        <ele>292.38</ele>
        <time>2024-09-12T11:58:51Z</time>
      </trkpt>
      <trkpt lat="51.485376041382551" lon="11.094379993155599">
        <ele>296.69999999999999</ele>
        <time>2024-09-12T11:58:58Z</time>
      </trkpt>
      <trkpt lat="51.485538985580206" lon="11.09434001147747">
        <ele>296.69999999999999</ele>
        <time>2024-09-12T11:58:59Z</time>
      </trkpt>
      <trkpt lat="51.485700001940131" lon="11.094308998435736">
        <ele>296.69999999999999</ele>
        <time>2024-09-12T11:59:00Z</time>
      </trkpt>
      <trkpt lat="51.485845008864999" lon="11.094380998983979">
        <ele>296.69999999999999</ele>
        <time>2024-09-12T11:59:01Z</time>
      </trkpt>
      <trkpt lat="51.486112978309393" lon="11.09466003254056">
        <ele>296.69999999999999</ele>
        <time>2024-09-12T11:59:03Z</time>
      </trkpt>
      <trkpt lat="51.486265026032925" lon="11.094719041138887">
        <ele>296.22000000000003</ele>
        <time>2024-09-12T11:59:04Z</time>
      </trkpt>
      <trkpt lat="51.486379019916058" lon="11.094728009775281">
        <ele>295.74000000000001</ele>
        <time>2024-09-12T11:59:05Z</time>
      </trkpt>
      <trkpt lat="51.486484967172146" lon="11.094687022268772">
        <ele>295.25999999999999</ele>
        <time>2024-09-12T11:59:06Z</time>
      </trkpt>
      <trkpt lat="51.486592004075646" lon="11.094580991193652">
        <ele>294.30000000000001</ele>
        <time>2024-09-12T11:59:07Z</time>
      </trkpt>
      <trkpt lat="51.486713960766792" lon="11.094459034502506">
        <ele>293.33999999999997</ele>
        <time>2024-09-12T11:59:08Z</time>
      </trkpt>
      <trkpt lat="51.486852010712028" lon="11.094320984557271">
        <ele>292.38</ele>
        <time>2024-09-12T11:59:09Z</time>
      </trkpt>
      <trkpt lat="51.488422024995089" lon="11.092749964445829">
        <ele>278.44</ele>
        <time>2024-09-12T11:59:18Z</time>
      </trkpt>
      <trkpt lat="51.490598972886801" lon="11.090951040387154">
        <ele>266.42000000000002</ele>
        <time>2024-09-12T11:59:28Z</time>
      </trkpt>
      <trkpt lat="51.491209007799625" lon="11.090523982420564">
        <ele>265.45999999999998</ele>
        <time>2024-09-12T11:59:31Z</time>
      </trkpt>
      <trkpt lat="51.49141201749444" lon="11.090422980487347">
        <ele>265.45999999999998</ele>
        <time>2024-09-12T11:59:32Z</time>
      </trkpt>
      <trkpt lat="51.491615027189255" lon="11.090405965223908">
        <ele>265.94</ele>
        <time>2024-09-12T11:59:33Z</time>
      </trkpt>
      <trkpt lat="51.491824993863702" lon="11.090417029336095">
        <ele>266.89999999999998</ele>
        <time>2024-09-12T11:59:34Z</time>
      </trkpt>
      <trkpt lat="51.492034960538149" lon="11.090488024055958">
        <ele>267.86000000000001</ele>
        <time>2024-09-12T11:59:35Z</time>
      </trkpt>
      <trkpt lat="51.492238976061344" lon="11.090571004897356">
        <ele>268.82999999999998</ele>
        <time>2024-09-12T11:59:36Z</time>
      </trkpt>
      <trkpt lat="51.493158973753452" lon="11.090950034558773">
        <ele>276.51999999999998</ele>
        <time>2024-09-12T11:59:42Z</time>
      </trkpt>
      <trkpt lat="51.493248995393515" lon="11.09098699875176">
        <ele>277.48000000000002</ele>
        <time>2024-09-12T11:59:43Z</time>
      </trkpt>
      <trkpt lat="51.493352008983493" lon="11.090908963233232">
        <ele>277.95999999999998</ele>
        <time>2024-09-12T11:59:44Z</time>
      </trkpt>
      <trkpt lat="51.493385033681989" lon="11.090760016813874">
        <ele>278.44</ele>
        <time>2024-09-12T11:59:45Z</time>
      </trkpt>
      <trkpt lat="51.493429038673639" lon="11.090560024604201">
        <ele>278.44</ele>
        <time>2024-09-12T11:59:46Z</time>
      </trkpt>
      <trkpt lat="51.493480000644922" lon="11.090320972725749">
        <ele>278.44</ele>
        <time>2024-09-12T11:59:47Z</time>
      </trkpt>
      <trkpt lat="51.493515037000179" lon="11.09004101715982">
        <ele>278.44</ele>
        <time>2024-09-12T11:59:48Z</time>
      </trkpt>
      <trkpt lat="51.493823993951082" lon="11.087544970214367">
        <ele>276.04000000000002</ele>
        <time>2024-09-12T11:59:55Z</time>
      </trkpt>
      <trkpt lat="51.494684983044863" lon="11.080586984753609">
        <ele>264.01999999999998</ele>
        <time>2024-09-12T12:00:12Z</time>
      </trkpt>
      <trkpt lat="51.494924034923315" lon="11.078795017674565">
        <ele>261.62</ele>
        <time>2024-09-12T12:00:17Z</time>
      </trkpt>
      <trkpt lat="51.494996035471559" lon="11.07852797023952">
        <ele>261.62</ele>
        <time>2024-09-12T12:00:18Z</time>
      </trkpt>
      <trkpt lat="51.495073987171054" lon="11.078263018280268">
        <ele>261.62</ele>
        <time>2024-09-12T12:00:19Z</time>
      </trkpt>
      <trkpt lat="51.49517297744751" lon="11.078025978058577">
        <ele>261.62</ele>
        <time>2024-09-12T12:00:20Z</time>
      </trkpt>
      <trkpt lat="51.495290994644165" lon="11.077807964757085">
        <ele>262.10000000000002</ele>
        <time>2024-09-12T12:00:21Z</time>
      </trkpt>
      <trkpt lat="51.495410017669201" lon="11.077588023617864">
        <ele>262.57999999999998</ele>
        <time>2024-09-12T12:00:22Z</time>
      </trkpt>
      <trkpt lat="51.495572039857507" lon="11.077418960630894">
        <ele>263.06</ele>
        <time>2024-09-12T12:00:23Z</time>
      </trkpt>
      <trkpt lat="51.495743030682206" lon="11.077240006998181">
        <ele>263.54000000000002</ele>
        <time>2024-09-12T12:00:24Z</time>
      </trkpt>
      <trkpt lat="51.49751597084105" lon="11.075408980250359">
        <ele>268.35000000000002</ele>
        <time>2024-09-12T12:00:33Z</time>
      </trkpt>
      <trkpt lat="51.49850201793015" lon="11.07450800947845">
        <ele>272.19</ele>
        <time>2024-09-12T12:00:38Z</time>
      </trkpt>
      <trkpt lat="51.498701004311442" lon="11.074456963688135">
        <ele>272.67000000000002</ele>
        <time>2024-09-12T12:00:39Z</time>
      </trkpt>
      <trkpt lat="51.499538021162152" lon="11.074243979528546">
        <ele>276.51999999999998</ele>
        <time>2024-09-12T12:00:43Z</time>
      </trkpt>
      <trkpt lat="51.499746982008219" lon="11.074139960110188">
        <ele>277.48000000000002</ele>
        <time>2024-09-12T12:00:44Z</time>
      </trkpt>
      <trkpt lat="51.502019986510277" lon="11.072500040754676">
        <ele>288.05000000000001</ele>
        <time>2024-09-12T12:00:55Z</time>
      </trkpt>
      <trkpt lat="51.503368970006704" lon="11.071925964206457">
        <ele>291.89999999999998</ele>
        <time>2024-09-12T12:01:02Z</time>
      </trkpt>
      <trkpt lat="51.50419601239264" lon="11.071600997820497">
        <ele>294.77999999999997</ele>
        <time>2024-09-12T12:01:07Z</time>
      </trkpt>
      <trkpt lat="51.504350993782282" lon="11.071538971737027">
        <ele>295.74000000000001</ele>
        <time>2024-09-12T12:01:08Z</time>
      </trkpt>
      <trkpt lat="51.504489965736866" lon="11.071537965908647">
        <ele>296.22000000000003</ele>
        <time>2024-09-12T12:01:09Z</time>
      </trkpt>
      <trkpt lat="51.504636984318495" lon="11.071596974506974">
        <ele>296.22000000000003</ele>
        <time>2024-09-12T12:01:10Z</time>
      </trkpt>
      <trkpt lat="51.504807975143194" lon="11.071665035560727">
        <ele>296.69999999999999</ele>
        <time>2024-09-12T12:01:11Z</time>
      </trkpt>
      <trkpt lat="51.504960022866726" lon="11.071795960888267">
        <ele>297.18000000000001</ele>
        <time>2024-09-12T12:01:12Z</time>
      </trkpt>
      <trkpt lat="51.505409963428974" lon="11.072183959186077">
        <ele>297.67000000000002</ele>
        <time>2024-09-12T12:01:15Z</time>
      </trkpt>
      <trkpt lat="51.505538960918784" lon="11.072342963889241">
        <ele>297.67000000000002</ele>
        <time>2024-09-12T12:01:16Z</time>
      </trkpt>
      <trkpt lat="51.505661001428962" lon="11.072516972199082">
        <ele>298.14999999999998</ele>
        <time>2024-09-12T12:01:17Z</time>
      </trkpt>
      <trkpt lat="51.505730990320444" lon="11.072673965245485">
        <ele>298.14999999999998</ele>
        <time>2024-09-12T12:01:18Z</time>
      </trkpt>
      <trkpt lat="51.50578698143363" lon="11.072971019893885">
        <ele>298.63</ele>
        <time>2024-09-12T12:01:19Z</time>
      </trkpt>
      <trkpt lat="51.505838027223945" lon="11.073237983509898">
        <ele>299.11000000000001</ele>
        <time>2024-09-12T12:01:20Z</time>
      </trkpt>
      <trkpt lat="51.506013041362166" lon="11.074075000360608">
        <ele>301.02999999999997</ele>
        <time>2024-09-12T12:01:23Z</time>
      </trkpt>
      <trkpt lat="51.506088981404901" lon="11.074330983683467">
        <ele>301.50999999999999</ele>
        <time>2024-09-12T12:01:24Z</time>
      </trkpt>
      <trkpt lat="51.506183026358485" lon="11.074584033340216">
        <ele>302.47000000000003</ele>
        <time>2024-09-12T12:01:25Z</time>
      </trkpt>
      <trkpt lat="51.506300959736109" lon="11.074817972257733">
        <ele>302.94999999999999</ele>
        <time>2024-09-12T12:01:26Z</time>
      </trkpt>
      <trkpt lat="51.506419982761145" lon="11.075050989165902">
        <ele>303.91000000000003</ele>
        <time>2024-09-12T12:01:27Z</time>
      </trkpt>
      <trkpt lat="51.506976038217545" lon="11.076068971306086">
        <ele>307.27999999999997</ele>
        <time>2024-09-12T12:01:33Z</time>
      </trkpt>
      <trkpt lat="51.507121967151761" lon="11.076224036514759">
        <ele>309.19999999999999</ele>
        <time>2024-09-12T12:01:38Z</time>
      </trkpt>
      <trkpt lat="51.507144011557102" lon="11.076247002929449">
        <ele>309.68000000000001</ele>
        <time>2024-09-12T12:01:39Z</time>
      </trkpt>
      <trkpt lat="51.50716102682054" lon="11.076265024021268">
        <ele>309.68000000000001</ele>
        <time>2024-09-12T12:01:40Z</time>
      </trkpt>
      <trkpt lat="51.507172007113695" lon="11.076277010142803">
        <ele>310.16000000000003</ele>
        <time>2024-09-12T12:01:41Z</time>
      </trkpt>
      <trkpt lat="51.507172007113695" lon="11.076277010142803">
        <ele>311.12</ele>
        <time>2024-09-12T12:01:52Z</time>
      </trkpt>
      <trkpt lat="51.507230009883642" lon="11.07626804150641">
        <ele>319.77999999999997</ele>
        <time>2024-09-12T12:04:56Z</time>
      </trkpt>
      <trkpt lat="51.507189022377133" lon="11.076367031782866">
        <ele>326.99000000000001</ele>
        <time>2024-09-12T12:05:51Z</time>
      </trkpt>
      <trkpt lat="51.507253982126713" lon="11.076365020126104">
        <ele>324.57999999999998</ele>
        <time>2024-09-12T12:06:12Z</time>
      </trkpt>
      <trkpt lat="51.507253982126713" lon="11.076365020126104">
        <ele>324.57999999999998</ele>
        <time>2024-09-12T12:06:13Z</time>
      </trkpt>
      <trkpt lat="51.507317014038563" lon="11.076383041217923">
        <ele>324.57999999999998</ele>
        <time>2024-09-12T12:06:14Z</time>
      </trkpt>
      <trkpt lat="51.507381973788142" lon="11.076402990147471">
        <ele>324.10000000000002</ele>
        <time>2024-09-12T12:06:15Z</time>
      </trkpt>
      <trkpt lat="51.507453974336386" lon="11.076424028724432">
        <ele>324.10000000000002</ele>
        <time>2024-09-12T12:06:16Z</time>
      </trkpt>
      <trkpt lat="51.507545001804829" lon="11.076452024281025">
        <ele>324.10000000000002</ele>
        <time>2024-09-12T12:06:17Z</time>
      </trkpt>
      <trkpt lat="51.507664024829865" lon="11.076487982645631">
        <ele>323.62</ele>
        <time>2024-09-12T12:06:18Z</time>
      </trkpt>
      <trkpt lat="51.507792016491294" lon="11.07652603648603">
        <ele>323.62</ele>
        <time>2024-09-12T12:06:19Z</time>
      </trkpt>
      <trkpt lat="51.507906010374427" lon="11.076555959880352">
        <ele>323.13999999999999</ele>
        <time>2024-09-12T12:06:20Z</time>
      </trkpt>
      <trkpt lat="51.50804003700614" lon="11.076522013172507">
        <ele>322.66000000000003</ele>
        <time>2024-09-12T12:06:21Z</time>
      </trkpt>
      <trkpt lat="51.508175991475582" lon="11.076487982645631">
        <ele>322.66000000000003</ele>
        <time>2024-09-12T12:06:22Z</time>
      </trkpt>
      <trkpt lat="51.508317980915308" lon="11.076453030109406">
        <ele>322.18000000000001</ele>
        <time>2024-09-12T12:06:23Z</time>
      </trkpt>
      <trkpt lat="51.508464999496937" lon="11.076368037611246">
        <ele>322.18000000000001</ele>
        <time>2024-09-12T12:06:24Z</time>
      </trkpt>
      <trkpt lat="51.508601037785411" lon="11.076210960745811">
        <ele>322.18000000000001</ele>
        <time>2024-09-12T12:06:25Z</time>
      </trkpt>
      <trkpt lat="51.508730035275221" lon="11.076062014326453">
        <ele>321.69999999999999</ele>
        <time>2024-09-12T12:06:26Z</time>
      </trkpt>
      <trkpt lat="51.508859032765031" lon="11.075910972431302">
        <ele>321.69999999999999</ele>
        <time>2024-09-12T12:06:27Z</time>
      </trkpt>
      <trkpt lat="51.508980989456177" lon="11.075769988819957">
        <ele>321.69999999999999</ele>
        <time>2024-09-12T12:06:28Z</time>
      </trkpt>
      <trkpt lat="51.509427996352315" lon="11.075251987203956">
        <ele>322.18000000000001</ele>
        <time>2024-09-12T12:06:32Z</time>
      </trkpt>
      <trkpt lat="51.509532015770674" lon="11.075098011642694">
        <ele>322.66000000000003</ele>
        <time>2024-09-12T12:06:33Z</time>
      </trkpt>
      <trkpt lat="51.509620025753975" lon="11.074931966140866">
        <ele>323.13999999999999</ele>
        <time>2024-09-12T12:06:34Z</time>
      </trkpt>
      <trkpt lat="51.509703006595373" lon="11.07472401112318">
        <ele>323.13999999999999</ele>
        <time>2024-09-12T12:06:35Z</time>
      </trkpt>
      <trkpt lat="51.509774001315236" lon="11.074507003650069">
        <ele>323.13999999999999</ele>
        <time>2024-09-12T12:06:36Z</time>
      </trkpt>
      <trkpt lat="51.509918002411723" lon="11.074063014239073">
        <ele>323.62</ele>
        <time>2024-09-12T12:06:38Z</time>
      </trkpt>
      <trkpt lat="51.510087987408042" lon="11.073685996234417">
        <ele>324.10000000000002</ele>
        <time>2024-09-12T12:06:40Z</time>
      </trkpt>
      <trkpt lat="51.510174991562963" lon="11.073555992916226">
        <ele>324.57999999999998</ele>
        <time>2024-09-12T12:06:41Z</time>
      </trkpt>
      <trkpt lat="51.510300971567631" lon="11.073454990983009">
        <ele>325.54000000000002</ele>
        <time>2024-09-12T12:06:42Z</time>
      </trkpt>
      <trkpt lat="51.510440027341247" lon="11.073373015969992">
        <ele>326.01999999999998</ele>
        <time>2024-09-12T12:06:43Z</time>
      </trkpt>
      <trkpt lat="51.510603977367282" lon="11.073305960744619">
        <ele>326.5</ele>
        <time>2024-09-12T12:06:44Z</time>
      </trkpt>
      <trkpt lat="51.511735031381249" lon="11.072785025462508">
        <ele>332.75</ele>
        <time>2024-09-12T12:06:50Z</time>
      </trkpt>
      <trkpt lat="51.511909961700439" lon="11.072626020759344">
        <ele>333.70999999999998</ele>
        <time>2024-09-12T12:06:51Z</time>
      </trkpt>
      <trkpt lat="51.512058991938829" lon="11.072470033541322">
        <ele>334.68000000000001</ele>
        <time>2024-09-12T12:06:52Z</time>
      </trkpt>
      <trkpt lat="51.512203998863697" lon="11.07231798581779">
        <ele>335.63999999999999</ele>
        <time>2024-09-12T12:06:53Z</time>
      </trkpt>
      <trkpt lat="51.512330984696746" lon="11.072085974738002">
        <ele>336.60000000000002</ele>
        <time>2024-09-12T12:06:54Z</time>
      </trkpt>
      <trkpt lat="51.512438021600246" lon="11.071836026385427">
        <ele>338.04000000000002</ele>
        <time>2024-09-12T12:06:55Z</time>
      </trkpt>
      <trkpt lat="51.512542963027954" lon="11.071551963686943">
        <ele>339</ele>
        <time>2024-09-12T12:06:56Z</time>
      </trkpt>
      <trkpt lat="51.512628039345145" lon="11.071244012564421">
        <ele>340.44</ele>
        <time>2024-09-12T12:06:57Z</time>
      </trkpt>
      <trkpt lat="51.512703979387879" lon="11.070914017036557">
        <ele>341.41000000000003</ele>
        <time>2024-09-12T12:06:58Z</time>
      </trkpt>
      <trkpt lat="51.512757958844304" lon="11.070587038993835">
        <ele>342.85000000000002</ele>
        <time>2024-09-12T12:06:59Z</time>
      </trkpt>
      <trkpt lat="51.512855021283031" lon="11.069992007687688">
        <ele>345.73000000000002</ele>
        <time>2024-09-12T12:07:01Z</time>
      </trkpt>
      <trkpt lat="51.512932972982526" lon="11.069806013256311">
        <ele>346.69</ele>
        <time>2024-09-12T12:07:02Z</time>
      </trkpt>
      <trkpt lat="51.512999022379518" lon="11.069649020209908">
        <ele>348.13</ele>
        <time>2024-09-12T12:07:03Z</time>
      </trkpt>
      <trkpt lat="51.513055013492703" lon="11.06956503354013">
        <ele>349.10000000000002</ele>
        <time>2024-09-12T12:07:04Z</time>
      </trkpt>
      <trkpt lat="51.51315500959754" lon="11.069497978314757">
        <ele>350.54000000000002</ele>
        <time>2024-09-12T12:07:05Z</time>
      </trkpt>
      <trkpt lat="51.513246037065983" lon="11.06952496804297">
        <ele>351.5</ele>
        <time>2024-09-12T12:07:06Z</time>
      </trkpt>
      <trkpt lat="51.513402024284005" lon="11.069593029096723">
        <ele>352.45999999999998</ele>
        <time>2024-09-12T12:07:07Z</time>
      </trkpt>
      <trkpt lat="51.513546025380492" lon="11.069729989394546">
        <ele>353.42000000000002</ele>
        <time>2024-09-12T12:07:08Z</time>
      </trkpt>
      <trkpt lat="51.51369396597147" lon="11.069871978834271">
        <ele>354.38</ele>
        <time>2024-09-12T12:07:09Z</time>
      </trkpt>
      <trkpt lat="51.513841990381479" lon="11.070015979930758">
        <ele>355.33999999999997</ele>
        <time>2024-09-12T12:07:10Z</time>
      </trkpt>
      <trkpt lat="51.513967970386147" lon="11.070152018219233">
        <ele>356.31</ele>
        <time>2024-09-12T12:07:11Z</time>
      </trkpt>
      <trkpt lat="51.51407802477479" lon="11.070271041244268">
        <ele>357.75</ele>
        <time>2024-09-12T12:07:12Z</time>
      </trkpt>
      <trkpt lat="51.514201993122697" lon="11.070271041244268">
        <ele>359.19</ele>
        <time>2024-09-12T12:07:13Z</time>
      </trkpt>
      <trkpt lat="51.514350017532706" lon="11.070271041244268">
        <ele>360.14999999999998</ele>
        <time>2024-09-12T12:07:14Z</time>
      </trkpt>
      <trkpt lat="51.514497958123684" lon="11.070218989625573">
        <ele>360.63</ele>
        <time>2024-09-12T12:07:15Z</time>
      </trkpt>
      <trkpt lat="51.514658974483609" lon="11.070132991299033">
        <ele>361.58999999999997</ele>
        <time>2024-09-12T12:07:16Z</time>
      </trkpt>
      <trkpt lat="51.515807965770364" lon="11.069594034925103">
        <ele>365.92000000000002</ele>
        <time>2024-09-12T12:07:22Z</time>
      </trkpt>
      <trkpt lat="51.516177020967007" lon="11.069485992193222">
        <ele>367.83999999999997</ele>
        <time>2024-09-12T12:07:24Z</time>
      </trkpt>
      <trkpt lat="51.516359997913241" lon="11.069510970264673">
        <ele>368.80000000000001</ele>
        <time>2024-09-12T12:07:25Z</time>
      </trkpt>
      <trkpt lat="51.516653029248118" lon="11.069648014381528">
        <ele>370.73000000000002</ele>
        <time>2024-09-12T12:07:27Z</time>
      </trkpt>
      <trkpt lat="51.516825025901198" lon="11.069839959964156">
        <ele>371.20999999999998</ele>
        <time>2024-09-12T12:07:28Z</time>
      </trkpt>
      <trkpt lat="51.516954023391008" lon="11.069984966889024">
        <ele>372.17000000000002</ele>
        <time>2024-09-12T12:07:29Z</time>
      </trkpt>
      <trkpt lat="51.517055025324225" lon="11.07014698907733">
        <ele>372.64999999999998</ele>
        <time>2024-09-12T12:07:30Z</time>
      </trkpt>
      <trkpt lat="51.517146974802017" lon="11.070369025692344">
        <ele>373.13</ele>
        <time>2024-09-12T12:07:31Z</time>
      </trkpt>
      <trkpt lat="51.517461966723204" lon="11.071084002032876">
        <ele>375.52999999999997</ele>
        <time>2024-09-12T12:07:34Z</time>
      </trkpt>
      <trkpt lat="51.517610996961594" lon="11.071246024221182">
        <ele>376.49000000000001</ele>
        <time>2024-09-12T12:07:35Z</time>
      </trkpt>
      <trkpt lat="51.517768995836377" lon="11.071417015045881">
        <ele>377.44999999999999</ele>
        <time>2024-09-12T12:07:36Z</time>
      </trkpt>
      <trkpt lat="51.518078036606312" lon="11.071752961724997">
        <ele>379.38</ele>
        <time>2024-09-12T12:07:38Z</time>
      </trkpt>
      <trkpt lat="51.518213991075754" lon="11.071944991126657">
        <ele>380.33999999999997</ele>
        <time>2024-09-12T12:07:39Z</time>
      </trkpt>
      <trkpt lat="51.518342988565564" lon="11.072178008034825">
        <ele>381.30000000000001</ele>
        <time>2024-09-12T12:07:40Z</time>
      </trkpt>
      <trkpt lat="51.518497969955206" lon="11.072458969429135">
        <ele>382.25999999999999</ele>
        <time>2024-09-12T12:07:41Z</time>
      </trkpt>
      <trkpt lat="51.518573993816972" lon="11.072644963860512">
        <ele>383.22000000000003</ele>
        <time>2024-09-12T12:07:42Z</time>
      </trkpt>
      <trkpt lat="51.518768034875393" lon="11.073015024885535">
        <ele>385.14999999999998</ele>
        <time>2024-09-12T12:07:44Z</time>
      </trkpt>
      <trkpt lat="51.518879011273384" lon="11.073135975748301">
        <ele>386.58999999999997</ele>
        <time>2024-09-12T12:07:45Z</time>
      </trkpt>
      <trkpt lat="51.519013959914446" lon="11.073194984346628">
        <ele>387.55000000000001</ele>
        <time>2024-09-12T12:07:46Z</time>
      </trkpt>
      <trkpt lat="51.519166007637978" lon="11.073204958811402">
        <ele>388.50999999999999</ele>
        <time>2024-09-12T12:07:47Z</time>
      </trkpt>
      <trkpt lat="51.519306991249323" lon="11.073179980739951">
        <ele>389.94999999999999</ele>
        <time>2024-09-12T12:07:48Z</time>
      </trkpt>
      <trkpt lat="51.519462978467345" lon="11.073095994070172">
        <ele>391.38999999999999</ele>
        <time>2024-09-12T12:07:49Z</time>
      </trkpt>
      <trkpt lat="51.519603040069342" lon="11.072992980480194">
        <ele>392.36000000000001</ele>
        <time>2024-09-12T12:07:50Z</time>
      </trkpt>
      <trkpt lat="51.519742012023926" lon="11.072796005755663">
        <ele>393.31999999999999</ele>
        <time>2024-09-12T12:07:51Z</time>
      </trkpt>
      <trkpt lat="51.519888024777174" lon="11.072588972747326">
        <ele>394.75999999999999</ele>
        <time>2024-09-12T12:07:52Z</time>
      </trkpt>
      <trkpt lat="51.520309969782829" lon="11.072027971968055">
        <ele>398.60000000000002</ele>
        <time>2024-09-12T12:07:55Z</time>
      </trkpt>
      <trkpt lat="51.520552961155772" lon="11.071871984750032">
        <ele>401.00999999999999</ele>
        <time>2024-09-12T12:07:57Z</time>
      </trkpt>
      <trkpt lat="51.520673995837569" lon="11.071859998628497">
        <ele>401.97000000000003</ele>
        <time>2024-09-12T12:07:58Z</time>
      </trkpt>
      <trkpt lat="51.520769968628883" lon="11.071940967813134">
        <ele>402.93000000000001</ele>
        <time>2024-09-12T12:07:59Z</time>
      </trkpt>
      <trkpt lat="51.520837023854256" lon="11.072009028866887">
        <ele>404.37</ele>
        <time>2024-09-12T12:08:00Z</time>
      </trkpt>
      <trkpt lat="51.520879017189145" lon="11.072177002206445">
        <ele>405.32999999999998</ele>
        <time>2024-09-12T12:08:01Z</time>
      </trkpt>
      <trkpt lat="51.520899971947074" lon="11.072275992482901">
        <ele>406.76999999999998</ele>
        <time>2024-09-12T12:08:02Z</time>
      </trkpt>
      <trkpt lat="51.520880023017526" lon="11.072466010227799">
        <ele>408.22000000000003</ele>
        <time>2024-09-12T12:08:03Z</time>
      </trkpt>
      <trkpt lat="51.520855966955423" lon="11.072692992165685">
        <ele>409.66000000000003</ele>
        <time>2024-09-12T12:08:04Z</time>
      </trkpt>
      <trkpt lat="51.520829983055592" lon="11.072945035994053">
        <ele>411.10000000000002</ele>
        <time>2024-09-12T12:08:05Z</time>
      </trkpt>
      <trkpt lat="51.520800981670618" lon="11.073215017095208">
        <ele>412.54000000000002</ele>
        <time>2024-09-12T12:08:06Z</time>
      </trkpt>
      <trkpt lat="51.520779021084309" lon="11.073551969602704">
        <ele>413.5</ele>
        <time>2024-09-12T12:08:07Z</time>
      </trkpt>
      <trkpt lat="51.520811961963773" lon="11.073857992887497">
        <ele>414.47000000000003</ele>
        <time>2024-09-12T12:08:08Z</time>
      </trkpt>
      <trkpt lat="51.521029975265265" lon="11.076157987117767">
        <ele>419.75</ele>
        <time>2024-09-12T12:08:15Z</time>
      </trkpt>
      <trkpt lat="51.521025029942393" lon="11.076434003189206">
        <ele>420.23000000000002</ele>
        <time>2024-09-12T12:08:16Z</time>
      </trkpt>
      <trkpt lat="51.520972978323698" lon="11.076733991503716">
        <ele>421.19</ele>
        <time>2024-09-12T12:08:17Z</time>
      </trkpt>
      <trkpt lat="51.520560001954436" lon="11.079116966575384">
        <ele>426</ele>
        <time>2024-09-12T12:08:24Z</time>
      </trkpt>
      <trkpt lat="51.520366966724396" lon="11.080358996987343">
        <ele>426.95999999999998</ele>
        <time>2024-09-12T12:08:28Z</time>
      </trkpt>
      <trkpt lat="51.52035104110837" lon="11.080623026937246">
        <ele>427.44</ele>
        <time>2024-09-12T12:08:29Z</time>
      </trkpt>
      <trkpt lat="51.520385993644595" lon="11.080871969461441">
        <ele>427.92000000000002</ele>
        <time>2024-09-12T12:08:30Z</time>
      </trkpt>
      <trkpt lat="51.520435027778149" lon="11.081087971106172">
        <ele>428.39999999999998</ele>
        <time>2024-09-12T12:08:31Z</time>
      </trkpt>
      <trkpt lat="51.520509961992502" lon="11.081268014386296">
        <ele>428.88999999999999</ele>
        <time>2024-09-12T12:08:32Z</time>
      </trkpt>
      <trkpt lat="51.520605012774467" lon="11.081424001604319">
        <ele>429.37</ele>
        <time>2024-09-12T12:08:33Z</time>
      </trkpt>
      <trkpt lat="51.520729986950755" lon="11.081529026851058">
        <ele>430.32999999999998</ele>
        <time>2024-09-12T12:08:34Z</time>
      </trkpt>
      <trkpt lat="51.52086803689599" lon="11.081600021570921">
        <ele>431.29000000000002</ele>
        <time>2024-09-12T12:08:35Z</time>
      </trkpt>
      <trkpt lat="51.521004997193813" lon="11.081600021570921">
        <ele>432.25</ele>
        <time>2024-09-12T12:08:36Z</time>
      </trkpt>
      <trkpt lat="51.5211489982903" lon="11.081497007980943">
        <ele>433.69</ele>
        <time>2024-09-12T12:08:37Z</time>
      </trkpt>
      <trkpt lat="51.521291993558407" lon="11.081372033804655">
        <ele>434.64999999999998</ele>
        <time>2024-09-12T12:08:38Z</time>
      </trkpt>
      <trkpt lat="51.521454015746713" lon="11.081231972202659">
        <ele>435.61000000000001</ele>
        <time>2024-09-12T12:08:39Z</time>
      </trkpt>
      <trkpt lat="51.522660003975034" lon="11.080177025869489">
        <ele>442.81999999999999</ele>
        <time>2024-09-12T12:08:45Z</time>
      </trkpt>
      <trkpt lat="51.523735988885164" lon="11.079287035390735">
        <ele>446.67000000000002</ele>
        <time>2024-09-12T12:08:51Z</time>
      </trkpt>
      <trkpt lat="51.524588009342551" lon="11.078554959967732">
        <ele>446.67000000000002</ele>
        <time>2024-09-12T12:08:57Z</time>
      </trkpt>
      <trkpt lat="51.52467199601233" lon="11.078356979414821">
        <ele>446.67000000000002</ele>
        <time>2024-09-12T12:08:58Z</time>
      </trkpt>
      <trkpt lat="51.524764029309154" lon="11.078138966113329">
        <ele>446.67000000000002</ele>
        <time>2024-09-12T12:08:59Z</time>
      </trkpt>
      <trkpt lat="51.525183962658048" lon="11.076368037611246">
        <ele>443.79000000000002</ele>
        <time>2024-09-12T12:09:05Z</time>
      </trkpt>
      <trkpt lat="51.525441035628319" lon="11.073980033397675">
        <ele>440.42000000000002</ele>
        <time>2024-09-12T12:09:12Z</time>
      </trkpt>
      <trkpt lat="51.525639016181231" lon="11.071491027250886">
        <ele>436.10000000000002</ele>
        <time>2024-09-12T12:09:19Z</time>
      </trkpt>
      <trkpt lat="51.526041012257338" lon="11.068651992827654">
        <ele>431.29000000000002</ele>
        <time>2024-09-12T12:09:27Z</time>
      </trkpt>
      <trkpt lat="51.526707038283348" lon="11.065693013370037">
        <ele>435.61000000000001</ele>
        <time>2024-09-12T12:09:36Z</time>
      </trkpt>
      <trkpt lat="51.527114985510707" lon="11.064210003241897">
        <ele>438.98000000000002</ele>
        <time>2024-09-12T12:09:41Z</time>
      </trkpt>
      <trkpt lat="51.527233002707362" lon="11.06396097689867">
        <ele>439.45999999999998</ele>
        <time>2024-09-12T12:09:42Z</time>
      </trkpt>
      <trkpt lat="51.527395024895668" lon="11.063735000789165">
        <ele>440.42000000000002</ele>
        <time>2024-09-12T12:09:43Z</time>
      </trkpt>
      <trkpt lat="51.527596022933722" lon="11.063532996922731">
        <ele>440.42000000000002</ele>
        <time>2024-09-12T12:09:44Z</time>
      </trkpt>
      <trkpt lat="51.52780900709331" lon="11.063320012763143">
        <ele>440.89999999999998</ele>
        <time>2024-09-12T12:09:45Z</time>
      </trkpt>
      <trkpt lat="51.52974296361208" lon="11.061399970203638">
        <ele>438.5</ele>
        <time>2024-09-12T12:09:53Z</time>
      </trkpt>
      <trkpt lat="51.530693974345922" lon="11.060462035238743">
        <ele>441.38</ele>
        <time>2024-09-12T12:09:58Z</time>
      </trkpt>
      <trkpt lat="51.531593017280102" lon="11.059573972597718">
        <ele>443.79000000000002</ele>
        <time>2024-09-12T12:10:05Z</time>
      </trkpt>
      <trkpt lat="51.532589960843325" lon="11.058622039854527">
        <ele>448.11000000000001</ele>
        <time>2024-09-12T12:10:14Z</time>
      </trkpt>
      <trkpt lat="51.533390013501048" lon="11.057868003845215">
        <ele>448.11000000000001</ele>
        <time>2024-09-12T12:10:22Z</time>
      </trkpt>
      <trkpt lat="51.534397015348077" lon="11.056861001998186">
        <ele>448.11000000000001</ele>
        <time>2024-09-12T12:10:30Z</time>
      </trkpt>
      <trkpt lat="51.535044014453888" lon="11.056291032582521">
        <ele>447.63</ele>
        <time>2024-09-12T12:10:34Z</time>
      </trkpt>
      <trkpt lat="51.535235038027167" lon="11.056151976808906">
        <ele>447.63</ele>
        <time>2024-09-12T12:10:35Z</time>
      </trkpt>
      <trkpt lat="51.536909993737936" lon="11.055458961054683">
        <ele>446.19</ele>
        <time>2024-09-12T12:10:43Z</time>
      </trkpt>
      <trkpt lat="51.53709196485579" lon="11.055426020175219">
        <ele>446.19</ele>
        <time>2024-09-12T12:10:44Z</time>
      </trkpt>
      <trkpt lat="51.537252981215715" lon="11.055418979376554">
        <ele>446.67000000000002</ele>
        <time>2024-09-12T12:10:45Z</time>
      </trkpt>
      <trkpt lat="51.537382984533906" lon="11.055530961602926">
        <ele>447.14999999999998</ele>
        <time>2024-09-12T12:10:46Z</time>
      </trkpt>
      <trkpt lat="51.537531008943915" lon="11.055658031255007">
        <ele>447.14999999999998</ele>
        <time>2024-09-12T12:10:47Z</time>
      </trkpt>
      <trkpt lat="51.537649026140571" lon="11.055861040949821">
        <ele>447.63</ele>
        <time>2024-09-12T12:10:48Z</time>
      </trkpt>
      <trkpt lat="51.537785986438394" lon="11.05609598569572">
        <ele>448.11000000000001</ele>
        <time>2024-09-12T12:10:49Z</time>
      </trkpt>
      <trkpt lat="51.537933005020022" lon="11.056349035352468">
        <ele>449.06999999999999</ele>
        <time>2024-09-12T12:10:50Z</time>
      </trkpt>
      <trkpt lat="51.539133964106441" lon="11.058312999084592">
        <ele>452.92000000000002</ele>
        <time>2024-09-12T12:10:57Z</time>
      </trkpt>
      <trkpt lat="51.540984017774463" lon="11.060530012473464">
        <ele>447.63</ele>
        <time>2024-09-12T12:11:06Z</time>
      </trkpt>
      <trkpt lat="51.542469961568713" lon="11.061369962990284">
        <ele>441.38</ele>
        <time>2024-09-12T12:11:12Z</time>
      </trkpt>
      <trkpt lat="51.543504036962986" lon="11.061556041240692">
        <ele>437.54000000000002</ele>
        <time>2024-09-12T12:11:16Z</time>
      </trkpt>
      <trkpt lat="51.543765971437097" lon="11.061501977965236">
        <ele>436.57999999999998</ele>
        <time>2024-09-12T12:11:17Z</time>
      </trkpt>
      <trkpt lat="51.544027989730239" lon="11.061437018215656">
        <ele>436.10000000000002</ele>
        <time>2024-09-12T12:11:18Z</time>
      </trkpt>
      <trkpt lat="51.544284978881478" lon="11.061332998797297">
        <ele>435.13</ele>
        <time>2024-09-12T12:11:19Z</time>
      </trkpt>
      <trkpt lat="51.544538028538227" lon="11.061200983822346">
        <ele>435.13</ele>
        <time>2024-09-12T12:11:20Z</time>
      </trkpt>
      <trkpt lat="51.546914968639612" lon="11.059959959238768">
        <ele>435.13</ele>
        <time>2024-09-12T12:11:30Z</time>
      </trkpt>
      <trkpt lat="51.547526009380817" lon="11.059641027823091">
        <ele>438.01999999999998</ele>
        <time>2024-09-12T12:11:35Z</time>
      </trkpt>
      <trkpt lat="51.547579988837242" lon="11.059615965932608">
        <ele>438.5</ele>
        <time>2024-09-12T12:11:36Z</time>
      </trkpt>
      <trkpt lat="51.547626005485654" lon="11.05959702283144">
        <ele>438.98000000000002</ele>
        <time>2024-09-12T12:11:37Z</time>
      </trkpt>
      <trkpt lat="51.54768300242722" lon="11.059572966769338">
        <ele>439.94</ele>
        <time>2024-09-12T12:11:38Z</time>
      </trkpt>
      <trkpt lat="51.547761959955096" lon="11.059540025889874">
        <ele>440.42000000000002</ele>
        <time>2024-09-12T12:11:39Z</time>
      </trkpt>
      <trkpt lat="51.547841001302004" lon="11.059507001191378">
        <ele>440.89999999999998</ele>
        <time>2024-09-12T12:11:40Z</time>
      </trkpt>
      <trkpt lat="51.548167979344726" lon="11.059413040056825">
        <ele>443.31</ele>
        <time>2024-09-12T12:11:43Z</time>
      </trkpt>
      <trkpt lat="51.548316003754735" lon="11.059413040056825">
        <ele>444.26999999999998</ele>
        <time>2024-09-12T12:11:44Z</time>
      </trkpt>
      <trkpt lat="51.549254022538662" lon="11.059703975915909">
        <ele>446.67000000000002</ele>
        <time>2024-09-12T12:11:49Z</time>
      </trkpt>
      <trkpt lat="51.550620021298528" lon="11.060607964172959">
        <ele>442.81999999999999</ele>
        <time>2024-09-12T12:11:55Z</time>
      </trkpt>
      <trkpt lat="51.552680963650346" lon="11.062758006155491">
        <ele>438.01999999999998</ele>
        <time>2024-09-12T12:12:04Z</time>
      </trkpt>
      <trkpt lat="51.55356802046299" lon="11.06421796604991">
        <ele>433.69</ele>
        <time>2024-09-12T12:12:09Z</time>
      </trkpt>
      <trkpt lat="51.553711015731096" lon="11.064576040953398">
        <ele>433.20999999999998</ele>
        <time>2024-09-12T12:12:10Z</time>
      </trkpt>
      <trkpt lat="51.554703013971448" lon="11.067095976322889">
        <ele>428.88999999999999</ele>
        <time>2024-09-12T12:12:17Z</time>
      </trkpt>
      <trkpt lat="51.555541958659887" lon="11.069327993318439">
        <ele>423.12</ele>
        <time>2024-09-12T12:12:24Z</time>
      </trkpt>
      <trkpt lat="51.55560901388526" lon="11.069649020209908">
        <ele>423.12</ele>
        <time>2024-09-12T12:12:25Z</time>
      </trkpt>
      <trkpt lat="51.555641032755375" lon="11.069973986595869">
        <ele>423.12</ele>
        <time>2024-09-12T12:12:26Z</time>
      </trkpt>
      <trkpt lat="51.555672967806458" lon="11.070304987952113">
        <ele>423.60000000000002</ele>
        <time>2024-09-12T12:12:27Z</time>
      </trkpt>
      <trkpt lat="51.555656036362052" lon="11.070647975429893">
        <ele>424.07999999999998</ele>
        <time>2024-09-12T12:12:28Z</time>
      </trkpt>
      <trkpt lat="51.555613959208131" lon="11.070990962907672">
        <ele>424.56</ele>
        <time>2024-09-12T12:12:29Z</time>
      </trkpt>
      <trkpt lat="51.555571965873241" lon="11.071330010890961">
        <ele>425.51999999999998</ele>
        <time>2024-09-12T12:12:30Z</time>
      </trkpt>
      <trkpt lat="51.555532990023494" lon="11.07165003195405">
        <ele>426</ele>
        <time>2024-09-12T12:12:31Z</time>
      </trkpt>
      <trkpt lat="51.555495020002127" lon="11.071952031925321">
        <ele>426.48000000000002</ele>
        <time>2024-09-12T12:12:32Z</time>
      </trkpt>
      <trkpt lat="51.555479010567069" lon="11.072242967784405">
        <ele>426.95999999999998</ele>
        <time>2024-09-12T12:12:33Z</time>
      </trkpt>
      <trkpt lat="51.555512035265565" lon="11.072541028261185">
        <ele>427.44</ele>
        <time>2024-09-12T12:12:34Z</time>
      </trkpt>
      <trkpt lat="51.555543970316648" lon="11.072832969948649">
        <ele>428.39999999999998</ele>
        <time>2024-09-12T12:12:35Z</time>
      </trkpt>
      <trkpt lat="51.555613959208131" lon="11.073093982413411">
        <ele>428.88999999999999</ele>
        <time>2024-09-12T12:12:36Z</time>
      </trkpt>
      <trkpt lat="51.555727031081915" lon="11.073306966573">
        <ele>429.37</ele>
        <time>2024-09-12T12:12:37Z</time>
      </trkpt>
      <trkpt lat="51.555877989158034" lon="11.073484998196363">
        <ele>430.32999999999998</ele>
        <time>2024-09-12T12:12:38Z</time>
      </trkpt>
      <trkpt lat="51.556064989417791" lon="11.073635034263134">
        <ele>430.81</ele>
        <time>2024-09-12T12:12:39Z</time>
      </trkpt>
      <trkpt lat="51.556270010769367" lon="11.073780041188002">
        <ele>431.29000000000002</ele>
        <time>2024-09-12T12:12:40Z</time>
      </trkpt>
      <trkpt lat="51.55649296939373" lon="11.073877019807696">
        <ele>431.76999999999998</ele>
        <time>2024-09-12T12:12:41Z</time>
      </trkpt>
      <trkpt lat="51.556711988523602" lon="11.07397198677063">
        <ele>432.25</ele>
        <time>2024-09-12T12:12:42Z</time>
      </trkpt>
      <trkpt lat="51.556934025138617" lon="11.074009034782648">
        <ele>432.73000000000002</ele>
        <time>2024-09-12T12:12:43Z</time>
      </trkpt>
      <trkpt lat="51.557167964056134" lon="11.07403895817697">
        <ele>433.20999999999998</ele>
        <time>2024-09-12T12:12:44Z</time>
      </trkpt>
      <trkpt lat="51.557403998449445" lon="11.074001993983984">
        <ele>433.69</ele>
        <time>2024-09-12T12:12:45Z</time>
      </trkpt>
      <trkpt lat="51.557653024792671" lon="11.073936028406024">
        <ele>434.17000000000002</ele>
        <time>2024-09-12T12:12:46Z</time>
      </trkpt>
      <trkpt lat="51.557911019772291" lon="11.073868973180652">
        <ele>434.64999999999998</ele>
        <time>2024-09-12T12:12:47Z</time>
      </trkpt>
      <trkpt lat="51.560129960998893" lon="11.073288023471832">
        <ele>435.61000000000001</ele>
        <time>2024-09-12T12:12:55Z</time>
      </trkpt>
      <trkpt lat="51.563166975975037" lon="11.07289700768888">
        <ele>437.54000000000002</ele>
        <time>2024-09-12T12:13:06Z</time>
      </trkpt>
      <trkpt lat="51.563640972599387" lon="11.072849985212088">
        <ele>438.5</ele>
        <time>2024-09-12T12:13:08Z</time>
      </trkpt>
      <trkpt lat="51.563862003386021" lon="11.072937995195389">
        <ele>438.98000000000002</ele>
        <time>2024-09-12T12:13:09Z</time>
      </trkpt>
      <trkpt lat="51.564084962010384" lon="11.073057018220425">
        <ele>439.94</ele>
        <time>2024-09-12T12:13:10Z</time>
      </trkpt>
      <trkpt lat="51.566257970407605" lon="11.0742930136621">
        <ele>446.67000000000002</ele>
        <time>2024-09-12T12:13:19Z</time>
      </trkpt>
      <trkpt lat="51.567465970292687" lon="11.075287023559213">
        <ele>449.55000000000001</ele>
        <time>2024-09-12T12:13:25Z</time>
      </trkpt>
      <trkpt lat="51.56809201464057" lon="11.075752973556519">
        <ele>451.95999999999998</ele>
        <time>2024-09-12T12:13:30Z</time>
      </trkpt>
      <trkpt lat="51.568815037608147" lon="11.07579798437655">
        <ele>451.95999999999998</ele>
        <time>2024-09-12T12:13:37Z</time>
      </trkpt>
      <trkpt lat="51.569469999521971" lon="11.075734030455351">
        <ele>449.06999999999999</ele>
        <time>2024-09-12T12:13:43Z</time>
      </trkpt>
      <trkpt lat="51.569569995626807" lon="11.075678961351514">
        <ele>448.58999999999997</ele>
        <time>2024-09-12T12:13:44Z</time>
      </trkpt>
      <trkpt lat="51.569665968418121" lon="11.075591035187244">
        <ele>448.11000000000001</ele>
        <time>2024-09-12T12:13:45Z</time>
      </trkpt>
      <trkpt lat="51.569762025028467" lon="11.075504031032324">
        <ele>447.63</ele>
        <time>2024-09-12T12:13:46Z</time>
      </trkpt>
      <trkpt lat="51.569831008091569" lon="11.075386013835669">
        <ele>447.14999999999998</ele>
        <time>2024-09-12T12:13:47Z</time>
      </trkpt>
      <trkpt lat="51.569902002811432" lon="11.075246036052704">
        <ele>447.14999999999998</ele>
        <time>2024-09-12T12:13:48Z</time>
      </trkpt>
      <trkpt lat="51.569974003359675" lon="11.075101029127836">
        <ele>446.67000000000002</ele>
        <time>2024-09-12T12:13:49Z</time>
      </trkpt>
      <trkpt lat="51.570046003907919" lon="11.074949987232685">
        <ele>446.67000000000002</ele>
        <time>2024-09-12T12:13:50Z</time>
      </trkpt>
      <trkpt lat="51.570720998570323" lon="11.072859959676862">
        <ele>441.38</ele>
        <time>2024-09-12T12:14:02Z</time>
      </trkpt>
      <trkpt lat="51.571375960484147" lon="11.070783007889986">
        <ele>438.5</ele>
        <time>2024-09-12T12:14:14Z</time>
      </trkpt>
      <trkpt lat="51.572325965389609" lon="11.06859901919961">
        <ele>434.64999999999998</ele>
        <time>2024-09-12T12:14:28Z</time>
      </trkpt>
      <trkpt lat="51.573339002206922" lon="11.067449022084475">
        <ele>428.39999999999998</ele>
        <time>2024-09-12T12:14:37Z</time>
      </trkpt>
      <trkpt lat="51.57348501496017" lon="11.067319018766284">
        <ele>427.44</ele>
        <time>2024-09-12T12:14:38Z</time>
      </trkpt>
      <trkpt lat="51.573638990521431" lon="11.067263027653098">
        <ele>426.48000000000002</ele>
        <time>2024-09-12T12:14:39Z</time>
      </trkpt>
      <trkpt lat="51.573799001052976" lon="11.067253975197673">
        <ele>425.51999999999998</ele>
        <time>2024-09-12T12:14:40Z</time>
      </trkpt>
      <trkpt lat="51.573974015191197" lon="11.067270990461111">
        <ele>424.56</ele>
        <time>2024-09-12T12:14:41Z</time>
      </trkpt>
      <trkpt lat="51.57415397465229" lon="11.06737601570785">
        <ele>423.60000000000002</ele>
        <time>2024-09-12T12:14:42Z</time>
      </trkpt>
      <trkpt lat="51.57434499822557" lon="11.067487997934222">
        <ele>422.63999999999999</ele>
        <time>2024-09-12T12:14:43Z</time>
      </trkpt>
      <trkpt lat="51.575860027223825" lon="11.068482007831335">
        <ele>414.47000000000003</ele>
        <time>2024-09-12T12:14:50Z</time>
      </trkpt>
      <trkpt lat="51.576633006334305" lon="11.068978970870376">
        <ele>409.18000000000001</ele>
        <time>2024-09-12T12:14:54Z</time>
      </trkpt>
      <trkpt lat="51.576784970238805" lon="11.069021970033646">
        <ele>408.22000000000003</ele>
        <time>2024-09-12T12:14:55Z</time>
      </trkpt>
      <trkpt lat="51.576940035447478" lon="11.069006966426969">
        <ele>407.74000000000001</ele>
        <time>2024-09-12T12:14:56Z</time>
      </trkpt>
      <trkpt lat="51.577083030715585" lon="11.068932032212615">
        <ele>407.74000000000001</ele>
        <time>2024-09-12T12:14:57Z</time>
      </trkpt>
      <trkpt lat="51.577231977134943" lon="11.068835975602269">
        <ele>407.74000000000001</ele>
        <time>2024-09-12T12:14:58Z</time>
      </trkpt>
      <trkpt lat="51.577373966574669" lon="11.068687029182911">
        <ele>407.74000000000001</ele>
        <time>2024-09-12T12:14:59Z</time>
      </trkpt>
      <trkpt lat="51.577522996813059" lon="11.068486031144857">
        <ele>407.74000000000001</ele>
        <time>2024-09-12T12:15:00Z</time>
      </trkpt>
      <trkpt lat="51.577662974596024" lon="11.068237004801631">
        <ele>407.74000000000001</ele>
        <time>2024-09-12T12:15:01Z</time>
      </trkpt>
      <trkpt lat="51.578923026099801" lon="11.066014040261507">
        <ele>407.74000000000001</ele>
        <time>2024-09-12T12:15:09Z</time>
      </trkpt>
      <trkpt lat="51.579497018828988" lon="11.065083984285593">
        <ele>408.22000000000003</ele>
        <time>2024-09-12T12:15:13Z</time>
      </trkpt>
      <trkpt lat="51.57967496663332" lon="11.064905030652881">
        <ele>408.22000000000003</ele>
        <time>2024-09-12T12:15:14Z</time>
      </trkpt>
      <trkpt lat="51.579858027398586" lon="11.06475499458611">
        <ele>408.69999999999999</ele>
        <time>2024-09-12T12:15:15Z</time>
      </trkpt>
      <trkpt lat="51.580036981031299" lon="11.06462499126792">
        <ele>408.69999999999999</ele>
        <time>2024-09-12T12:15:16Z</time>
      </trkpt>
      <trkpt lat="51.58021098934114" lon="11.064500017091632">
        <ele>408.69999999999999</ele>
        <time>2024-09-12T12:15:17Z</time>
      </trkpt>
      <trkpt lat="51.58036102540791" lon="11.06439096853137">
        <ele>408.69999999999999</ele>
        <time>2024-09-12T12:15:18Z</time>
      </trkpt>
      <trkpt lat="51.58051298931241" lon="11.064197011291981">
        <ele>409.18000000000001</ele>
        <time>2024-09-12T12:15:19Z</time>
      </trkpt>
      <trkpt lat="51.580642992630601" lon="11.063998024910688">
        <ele>409.66000000000003</ele>
        <time>2024-09-12T12:15:20Z</time>
      </trkpt>
      <trkpt lat="51.580762015655637" lon="11.063759978860617">
        <ele>409.66000000000003</ele>
        <time>2024-09-12T12:15:21Z</time>
      </trkpt>
      <trkpt lat="51.580880032852292" lon="11.063520004972816">
        <ele>410.13999999999999</ele>
        <time>2024-09-12T12:15:22Z</time>
      </trkpt>
      <trkpt lat="51.581167029216886" lon="11.062892032787204">
        <ele>412.06</ele>
        <time>2024-09-12T12:15:25Z</time>
      </trkpt>
      <trkpt lat="51.581273982301354" lon="11.062767980620265">
        <ele>413.01999999999998</ele>
        <time>2024-09-12T12:15:26Z</time>
      </trkpt>
      <trkpt lat="51.581388982012868" lon="11.062697991728783">
        <ele>413.5</ele>
        <time>2024-09-12T12:15:27Z</time>
      </trkpt>
      <trkpt lat="51.581504987552762" lon="11.06271299533546">
        <ele>414.47000000000003</ele>
        <time>2024-09-12T12:15:28Z</time>
      </trkpt>
      <trkpt lat="51.58160699531436" lon="11.062783990055323">
        <ele>415.43000000000001</ele>
        <time>2024-09-12T12:15:29Z</time>
      </trkpt>
      <trkpt lat="51.581701040267944" lon="11.062921034172177">
        <ele>415.91000000000003</ele>
        <time>2024-09-12T12:15:30Z</time>
      </trkpt>
      <trkpt lat="51.58177999779582" lon="11.063117003068328">
        <ele>416.87</ele>
        <time>2024-09-12T12:15:31Z</time>
      </trkpt>
      <trkpt lat="51.581836994737387" lon="11.063365023583174">
        <ele>417.35000000000002</ele>
        <time>2024-09-12T12:15:32Z</time>
      </trkpt>
      <trkpt lat="51.581900026649237" lon="11.06363701634109">
        <ele>418.31</ele>
        <time>2024-09-12T12:15:33Z</time>
      </trkpt>
      <trkpt lat="51.582210995256901" lon="11.064874017611146">
        <ele>421.19</ele>
        <time>2024-09-12T12:15:37Z</time>
      </trkpt>
      <trkpt lat="51.582350973039865" lon="11.065153973177075">
        <ele>421.68000000000001</ele>
        <time>2024-09-12T12:15:38Z</time>
      </trkpt>
      <trkpt lat="51.582514001056552" lon="11.065412973985076">
        <ele>422.16000000000003</ele>
        <time>2024-09-12T12:15:39Z</time>
      </trkpt>
      <trkpt lat="51.584205972030759" lon="11.067594029009342">
        <ele>426.95999999999998</ele>
        <time>2024-09-12T12:15:48Z</time>
      </trkpt>
      <trkpt lat="51.584579972550273" lon="11.067964006215334">
        <ele>428.39999999999998</ele>
        <time>2024-09-12T12:15:50Z</time>
      </trkpt>
      <trkpt lat="51.584770996123552" lon="11.068116975948215">
        <ele>428.88999999999999</ele>
        <time>2024-09-12T12:15:51Z</time>
      </trkpt>
      <trkpt lat="51.584962019696832" lon="11.068188976496458">
        <ele>429.37</ele>
        <time>2024-09-12T12:15:52Z</time>
      </trkpt>
      <trkpt lat="51.585143990814686" lon="11.068253014236689">
        <ele>429.85000000000002</ele>
        <time>2024-09-12T12:15:53Z</time>
      </trkpt>
      <trkpt lat="51.585312969982624" lon="11.068254020065069">
        <ele>429.85000000000002</ele>
        <time>2024-09-12T12:15:54Z</time>
      </trkpt>
      <trkpt lat="51.585483960807323" lon="11.068200962617993">
        <ele>429.85000000000002</ele>
        <time>2024-09-12T12:15:55Z</time>
      </trkpt>
      <trkpt lat="51.585673978552222" lon="11.068140026181936">
        <ele>430.32999999999998</ele>
        <time>2024-09-12T12:15:56Z</time>
      </trkpt>
      <trkpt lat="51.585857961326838" lon="11.06804103590548">
        <ele>430.32999999999998</ele>
        <time>2024-09-12T12:15:57Z</time>
      </trkpt>
      <trkpt lat="51.586040016263723" lon="11.067872978746891">
        <ele>430.81</ele>
        <time>2024-09-12T12:15:58Z</time>
      </trkpt>
      <trkpt lat="51.586229028180242" lon="11.06769997626543">
        <ele>431.76999999999998</ele>
        <time>2024-09-12T12:15:59Z</time>
      </trkpt>
      <trkpt lat="51.586400019004941" lon="11.067486992105842">
        <ele>432.25</ele>
        <time>2024-09-12T12:16:00Z</time>
      </trkpt>
      <trkpt lat="51.586566986516118" lon="11.067234026268125">
        <ele>433.20999999999998</ele>
        <time>2024-09-12T12:16:01Z</time>
      </trkpt>
      <trkpt lat="51.586739988997579" lon="11.066972007974982">
        <ele>433.69</ele>
        <time>2024-09-12T12:16:02Z</time>
      </trkpt>
      <trkpt lat="51.58818201161921" lon="11.064983988180757">
        <ele>438.01999999999998</ele>
        <time>2024-09-12T12:16:10Z</time>
      </trkpt>
      <trkpt lat="51.589288003742695" lon="11.064079999923706">
        <ele>439.45999999999998</ele>
        <time>2024-09-12T12:16:16Z</time>
      </trkpt>
      <trkpt lat="51.590267010033131" lon="11.063406011089683">
        <ele>440.42000000000002</ele>
        <time>2024-09-12T12:16:21Z</time>
      </trkpt>
      <trkpt lat="51.590424003079534" lon="11.063182968646288">
        <ele>440.42000000000002</ele>
        <time>2024-09-12T12:16:22Z</time>
      </trkpt>
      <trkpt lat="51.591625967994332" lon="11.061847982928157">
        <ele>443.31</ele>
        <time>2024-09-12T12:16:29Z</time>
      </trkpt>
      <trkpt lat="51.592688038945198" lon="11.06069203466177">
        <ele>447.14999999999998</ele>
        <time>2024-09-12T12:16:35Z</time>
      </trkpt>
      <trkpt lat="51.593045024201274" lon="11.059972029179335">
        <ele>448.58999999999997</ele>
        <time>2024-09-12T12:16:38Z</time>
      </trkpt>
      <trkpt lat="51.593590015545487" lon="11.058752965182066">
        <ele>450.02999999999997</ele>
        <time>2024-09-12T12:16:44Z</time>
      </trkpt>
      <trkpt lat="51.593676013872027" lon="11.058554984629154">
        <ele>450.02999999999997</ele>
        <time>2024-09-12T12:16:46Z</time>
      </trkpt>
      <trkpt lat="51.593700991943479" lon="11.058496981859207">
        <ele>450.02999999999997</ele>
        <time>2024-09-12T12:16:47Z</time>
      </trkpt>
      <trkpt lat="51.593717001378536" lon="11.058460017666221">
        <ele>450.51999999999998</ele>
        <time>2024-09-12T12:16:48Z</time>
      </trkpt>
      <trkpt lat="51.593728987500072" lon="11.058431016281247">
        <ele>450.51999999999998</ele>
        <time>2024-09-12T12:16:49Z</time>
      </trkpt>
      <trkpt lat="51.593751031905413" lon="11.058381982147694">
        <ele>450.51999999999998</ele>
        <time>2024-09-12T12:16:50Z</time>
      </trkpt>
      <trkpt lat="51.593733010813594" lon="11.058322973549366">
        <ele>450.51999999999998</ele>
        <time>2024-09-12T12:16:51Z</time>
      </trkpt>
      <trkpt lat="51.593699986115098" lon="11.058205040171742">
        <ele>450.02999999999997</ele>
        <time>2024-09-12T12:16:52Z</time>
      </trkpt>
      <trkpt lat="51.59366000443697" lon="11.058062966912985">
        <ele>450.02999999999997</ele>
        <time>2024-09-12T12:16:53Z</time>
      </trkpt>
      <trkpt lat="51.593305030837655" lon="11.056793024763465">
        <ele>449.06999999999999</ele>
        <time>2024-09-12T12:16:59Z</time>
      </trkpt>
      <trkpt lat="51.593025997281075" lon="11.055329963564873">
        <ele>448.11000000000001</ele>
        <time>2024-09-12T12:17:04Z</time>
      </trkpt>
      <trkpt lat="51.592996995896101" lon="11.055011032149196">
        <ele>447.14999999999998</ele>
        <time>2024-09-12T12:17:05Z</time>
      </trkpt>
      <trkpt lat="51.592888031154871" lon="11.05207996442914">
        <ele>441.86000000000001</ele>
        <time>2024-09-12T12:17:13Z</time>
      </trkpt>
      <trkpt lat="51.592784011736512" lon="11.049246964976192">
        <ele>444.26999999999998</ele>
        <time>2024-09-12T12:17:21Z</time>
      </trkpt>
      <trkpt lat="51.592709999531507" lon="11.046739015728235">
        <ele>446.19</ele>
        <time>2024-09-12T12:17:29Z</time>
      </trkpt>
      <trkpt lat="51.592687033116817" lon="11.046097967773676">
        <ele>446.67000000000002</ele>
        <time>2024-09-12T12:17:32Z</time>
      </trkpt>
      <trkpt lat="51.592682003974915" lon="11.045968970283866">
        <ele>446.67000000000002</ele>
        <time>2024-09-12T12:17:33Z</time>
      </trkpt>
      <trkpt lat="51.592720979824662" lon="11.04582698084414">
        <ele>447.14999999999998</ele>
        <time>2024-09-12T12:17:34Z</time>
      </trkpt>
      <trkpt lat="51.592811001464725" lon="11.045819018036127">
        <ele>447.63</ele>
        <time>2024-09-12T12:17:35Z</time>
      </trkpt>
      <trkpt lat="51.59293002448976" lon="11.045808959752321">
        <ele>448.58999999999997</ele>
        <time>2024-09-12T12:17:36Z</time>
      </trkpt>
      <trkpt lat="51.593073019757867" lon="11.045796973630786">
        <ele>449.06999999999999</ele>
        <time>2024-09-12T12:17:37Z</time>
      </trkpt>
      <trkpt lat="51.594287976622581" lon="11.045695971697569">
        <ele>450.02999999999997</ele>
        <time>2024-09-12T12:17:43Z</time>
      </trkpt>
      <trkpt lat="51.596844037994742" lon="11.045481981709599">
        <ele>451.48000000000002</ele>
        <time>2024-09-12T12:17:53Z</time>
      </trkpt>
      <trkpt lat="51.60085896961391" lon="11.045161038637161">
        <ele>446.67000000000002</ele>
        <time>2024-09-12T12:18:07Z</time>
      </trkpt>
      <trkpt lat="51.603677971288562" lon="11.045000022277236">
        <ele>443.79000000000002</ele>
        <time>2024-09-12T12:18:17Z</time>
      </trkpt>
      <trkpt lat="51.605930021032691" lon="11.045603016391397">
        <ele>440.42000000000002</ele>
        <time>2024-09-12T12:18:25Z</time>
      </trkpt>
      <trkpt lat="51.607938995584846" lon="11.046140966936946">
        <ele>436.57999999999998</ele>
        <time>2024-09-12T12:18:33Z</time>
      </trkpt>
      <trkpt lat="51.609350005164742" lon="11.046516979113221">
        <ele>435.13</ele>
        <time>2024-09-12T12:18:40Z</time>
      </trkpt>
      <trkpt lat="51.610642997547984" lon="11.046863989904523">
        <ele>429.85000000000002</ele>
        <time>2024-09-12T12:18:48Z</time>
      </trkpt>
      <trkpt lat="51.611458975821733" lon="11.047128019854426">
        <ele>423.12</ele>
        <time>2024-09-12T12:18:54Z</time>
      </trkpt>
      <trkpt lat="51.611564001068473" lon="11.047214018180966">
        <ele>422.16000000000003</ele>
        <time>2024-09-12T12:18:55Z</time>
      </trkpt>
      <trkpt lat="51.611655028536916" lon="11.047316025942564">
        <ele>421.19</ele>
        <time>2024-09-12T12:18:56Z</time>
      </trkpt>
      <trkpt lat="51.612278977409005" lon="11.047900998964906">
        <ele>415.91000000000003</ele>
        <time>2024-09-12T12:19:04Z</time>
      </trkpt>
      <trkpt lat="51.612418033182621" lon="11.048019016161561">
        <ele>414.47000000000003</ele>
        <time>2024-09-12T12:19:06Z</time>
      </trkpt>
      <trkpt lat="51.612505037337542" lon="11.048025973141193">
        <ele>413.5</ele>
        <time>2024-09-12T12:19:07Z</time>
      </trkpt>
      <trkpt lat="51.612582989037037" lon="11.048033013939857">
        <ele>412.54000000000002</ele>
        <time>2024-09-12T12:19:08Z</time>
      </trkpt>
      <trkpt lat="51.612664964050055" lon="11.048038965091109">
        <ele>412.06</ele>
        <time>2024-09-12T12:19:09Z</time>
      </trkpt>
      <trkpt lat="51.612730007618666" lon="11.048009963706136">
        <ele>411.10000000000002</ele>
        <time>2024-09-12T12:19:10Z</time>
      </trkpt>
      <trkpt lat="51.612805025652051" lon="11.047967970371246">
        <ele>410.62</ele>
        <time>2024-09-12T12:19:11Z</time>
      </trkpt>
      <trkpt lat="51.612883983179927" lon="11.047922959551215">
        <ele>410.13999999999999</ele>
        <time>2024-09-12T12:19:12Z</time>
      </trkpt>
      <trkpt lat="51.612964030355215" lon="11.047879038378596">
        <ele>409.18000000000001</ele>
        <time>2024-09-12T12:19:13Z</time>
      </trkpt>
      <trkpt lat="51.61304097622633" lon="11.047834027558565">
        <ele>408.22000000000003</ele>
        <time>2024-09-12T12:19:14Z</time>
      </trkpt>
      <trkpt lat="51.61319000646472" lon="11.047740988433361">
        <ele>406.76999999999998</ele>
        <time>2024-09-12T12:19:16Z</time>
      </trkpt>
      <trkpt lat="51.613273993134499" lon="11.04773998260498">
        <ele>405.81</ele>
        <time>2024-09-12T12:19:17Z</time>
      </trkpt>
      <trkpt lat="51.613354040309787" lon="11.04773998260498">
        <ele>405.32999999999998</ele>
        <time>2024-09-12T12:19:18Z</time>
      </trkpt>
      <trkpt lat="51.613435009494424" lon="11.04773998260498">
        <ele>404.37</ele>
        <time>2024-09-12T12:19:19Z</time>
      </trkpt>
      <trkpt lat="51.6135139670223" lon="11.047747023403645">
        <ele>403.88999999999999</ele>
        <time>2024-09-12T12:19:20Z</time>
      </trkpt>
      <trkpt lat="51.613596025854349" lon="11.047775018960238">
        <ele>402.93000000000001</ele>
        <time>2024-09-12T12:19:21Z</time>
      </trkpt>
      <trkpt lat="51.61368403583765" lon="11.047804020345211">
        <ele>401.97000000000003</ele>
        <time>2024-09-12T12:19:22Z</time>
      </trkpt>
      <trkpt lat="51.613743966445327" lon="11.047847019508481">
        <ele>400.52999999999997</ele>
        <time>2024-09-12T12:19:23Z</time>
      </trkpt>
      <trkpt lat="51.613818984478712" lon="11.047898987308145">
        <ele>400.05000000000001</ele>
        <time>2024-09-12T12:19:24Z</time>
      </trkpt>
      <trkpt lat="51.614129031077027" lon="11.048109959810972">
        <ele>397.63999999999999</ele>
        <time>2024-09-12T12:19:28Z</time>
      </trkpt>
      <trkpt lat="51.614364981651306" lon="11.048251027241349">
        <ele>396.19999999999999</ele>
        <time>2024-09-12T12:19:31Z</time>
      </trkpt>
      <trkpt lat="51.614445028826594" lon="11.048299977555871">
        <ele>395.72000000000003</ele>
        <time>2024-09-12T12:19:32Z</time>
      </trkpt>
      <trkpt lat="51.614527003839612" lon="11.048348005861044">
        <ele>395.24000000000001</ele>
        <time>2024-09-12T12:19:33Z</time>
      </trkpt>
      <trkpt lat="51.614604033529758" lon="11.048395028337836">
        <ele>394.75999999999999</ele>
        <time>2024-09-12T12:19:34Z</time>
      </trkpt>
      <trkpt lat="51.614677961915731" lon="11.048439033329487">
        <ele>393.80000000000001</ele>
        <time>2024-09-12T12:19:35Z</time>
      </trkpt>
      <trkpt lat="51.615246003493667" lon="11.048641037195921">
        <ele>392.36000000000001</ele>
        <time>2024-09-12T12:19:42Z</time>
      </trkpt>
      <trkpt lat="51.615413976833224" lon="11.048602983355522">
        <ele>390.43000000000001</ele>
        <time>2024-09-12T12:19:44Z</time>
      </trkpt>
      <trkpt lat="51.615765010938048" lon="11.048517990857363">
        <ele>386.11000000000001</ele>
        <time>2024-09-12T12:19:48Z</time>
      </trkpt>
      <trkpt lat="51.615852015092969" lon="11.04855596087873">
        <ele>385.14999999999998</ele>
        <time>2024-09-12T12:19:49Z</time>
      </trkpt>
      <trkpt lat="51.615911023691297" lon="11.048641037195921">
        <ele>384.18000000000001</ele>
        <time>2024-09-12T12:19:50Z</time>
      </trkpt>
      <trkpt lat="51.615974977612495" lon="11.048734998330474">
        <ele>383.22000000000003</ele>
        <time>2024-09-12T12:19:51Z</time>
      </trkpt>
      <trkpt lat="51.616038009524345" lon="11.048827031627297">
        <ele>382.25999999999999</ele>
        <time>2024-09-12T12:19:52Z</time>
      </trkpt>
      <trkpt lat="51.616166001185775" lon="11.049014031887054">
        <ele>381.30000000000001</ele>
        <time>2024-09-12T12:19:54Z</time>
      </trkpt>
      <trkpt lat="51.616229033097625" lon="11.049104975536466">
        <ele>380.33999999999997</ele>
        <time>2024-09-12T12:19:55Z</time>
      </trkpt>
      <trkpt lat="51.616288963705301" lon="11.049193991348147">
        <ele>379.86000000000001</ele>
        <time>2024-09-12T12:19:56Z</time>
      </trkpt>
      <trkpt lat="51.616341015323997" lon="11.049270015209913">
        <ele>379.38</ele>
        <time>2024-09-12T12:19:57Z</time>
      </trkpt>
      <trkpt lat="51.616366999223828" lon="11.0493069794029">
        <ele>378.89999999999998</ele>
        <time>2024-09-12T12:19:58Z</time>
      </trkpt>
      <trkpt lat="51.616428019478917" lon="11.0493069794029">
        <ele>378.89999999999998</ele>
        <time>2024-09-12T12:19:59Z</time>
      </trkpt>
      <trkpt lat="51.616454003378749" lon="11.0493069794029">
        <ele>378.42000000000002</ele>
        <time>2024-09-12T12:20:00Z</time>
      </trkpt>
      <trkpt lat="51.616405975073576" lon="11.049466989934444">
        <ele>377.94</ele>
        <time>2024-09-12T12:20:01Z</time>
      </trkpt>
      <trkpt lat="51.616425001993775" lon="11.049538990482688">
        <ele>377.44999999999999</ele>
        <time>2024-09-12T12:20:02Z</time>
      </trkpt>
      <trkpt lat="51.616446962580085" lon="11.049627000465989">
        <ele>376.97000000000003</ele>
        <time>2024-09-12T12:20:03Z</time>
      </trkpt>
      <trkpt lat="51.616472024470568" lon="11.049726996570826">
        <ele>376.49000000000001</ele>
        <time>2024-09-12T12:20:04Z</time>
      </trkpt>
      <trkpt lat="51.616526003926992" lon="11.049875020980835">
        <ele>376.00999999999999</ele>
        <time>2024-09-12T12:20:05Z</time>
      </trkpt>
      <trkpt lat="51.616576965898275" lon="11.049965964630246">
        <ele>375.52999999999997</ele>
        <time>2024-09-12T12:20:06Z</time>
      </trkpt>
      <trkpt lat="51.61662801168859" lon="11.050055986270308">
        <ele>375.05000000000001</ele>
        <time>2024-09-12T12:20:07Z</time>
      </trkpt>
      <trkpt lat="51.616997988894582" lon="11.050689993426204">
        <ele>370.24000000000001</ele>
        <time>2024-09-12T12:20:15Z</time>
      </trkpt>
      <trkpt lat="51.617032019421458" lon="11.050743972882628">
        <ele>369.75999999999999</ele>
        <time>2024-09-12T12:20:16Z</time>
      </trkpt>
      <trkpt lat="51.617085998877883" lon="11.050752019509673">
        <ele>369.27999999999997</ele>
        <time>2024-09-12T12:20:17Z</time>
      </trkpt>
      <trkpt lat="51.617122041061521" lon="11.050756964832544">
        <ele>368.31999999999999</ele>
        <time>2024-09-12T12:20:18Z</time>
      </trkpt>
      <trkpt lat="51.6171870008111" lon="11.050794012844563">
        <ele>367.83999999999997</ele>
        <time>2024-09-12T12:20:19Z</time>
      </trkpt>
      <trkpt lat="51.617198986932635" lon="11.05085201561451">
        <ele>367.36000000000001</ele>
        <time>2024-09-12T12:20:20Z</time>
      </trkpt>
      <trkpt lat="51.617216002196074" lon="11.050942959263921">
        <ele>366.88</ele>
        <time>2024-09-12T12:20:21Z</time>
      </trkpt>
      <trkpt lat="51.617237962782383" lon="11.051054019480944">
        <ele>366.39999999999998</ele>
        <time>2024-09-12T12:20:22Z</time>
      </trkpt>
      <trkpt lat="51.617261013016105" lon="11.05117597617209">
        <ele>365.92000000000002</ele>
        <time>2024-09-12T12:20:23Z</time>
      </trkpt>
      <trkpt lat="51.617286996915936" lon="11.051307991147041">
        <ele>365.44</ele>
        <time>2024-09-12T12:20:24Z</time>
      </trkpt>
      <trkpt lat="51.617678012698889" lon="11.052999040111899">
        <ele>364.48000000000002</ele>
        <time>2024-09-12T12:20:34Z</time>
      </trkpt>
      <trkpt lat="51.61819702014327" lon="11.054698973894119">
        <ele>364.95999999999998</ele>
        <time>2024-09-12T12:20:41Z</time>
      </trkpt>
      <trkpt lat="51.618502959609032" lon="11.05577202513814">
        <ele>364</ele>
        <time>2024-09-12T12:20:45Z</time>
      </trkpt>
      <trkpt lat="51.618568003177643" lon="11.056032031774521">
        <ele>364</ele>
        <time>2024-09-12T12:20:46Z</time>
      </trkpt>
      <trkpt lat="51.618604967370629" lon="11.056282985955477">
        <ele>363.51999999999998</ele>
        <time>2024-09-12T12:20:47Z</time>
      </trkpt>
      <trkpt lat="51.618641009554267" lon="11.057141963392496">
        <ele>361.58999999999997</ele>
        <time>2024-09-12T12:20:51Z</time>
      </trkpt>
      <trkpt lat="51.618641009554267" lon="11.057351008057594">
        <ele>361.11000000000001</ele>
        <time>2024-09-12T12:20:52Z</time>
      </trkpt>
      <trkpt lat="51.618641009554267" lon="11.057566003873944">
        <ele>360.63</ele>
        <time>2024-09-12T12:20:53Z</time>
      </trkpt>
      <trkpt lat="51.618641009554267" lon="11.057788040488958">
        <ele>359.67000000000002</ele>
        <time>2024-09-12T12:20:54Z</time>
      </trkpt>
      <trkpt lat="51.618646960705519" lon="11.058012004941702">
        <ele>359.19</ele>
        <time>2024-09-12T12:20:55Z</time>
      </trkpt>
      <trkpt lat="51.618661964312196" lon="11.058253990486264">
        <ele>358.70999999999998</ele>
        <time>2024-09-12T12:20:56Z</time>
      </trkpt>
      <trkpt lat="51.618661964312196" lon="11.058756988495588">
        <ele>357.75</ele>
        <time>2024-09-12T12:20:58Z</time>
      </trkpt>
      <trkpt lat="51.618661964312196" lon="11.059007020667195">
        <ele>356.79000000000002</ele>
        <time>2024-09-12T12:20:59Z</time>
      </trkpt>
      <trkpt lat="51.618661964312196" lon="11.059281025081873">
        <ele>355.33999999999997</ele>
        <time>2024-09-12T12:21:00Z</time>
      </trkpt>
      <trkpt lat="51.61864897236228" lon="11.05957699008286">
        <ele>354.38</ele>
        <time>2024-09-12T12:21:01Z</time>
      </trkpt>
      <trkpt lat="51.618630029261112" lon="11.059899022802711">
        <ele>353.89999999999998</ele>
        <time>2024-09-12T12:21:02Z</time>
      </trkpt>
      <trkpt lat="51.618533972650766" lon="11.061963988468051">
        <ele>353.42000000000002</ele>
        <time>2024-09-12T12:21:08Z</time>
      </trkpt>
      <trkpt lat="51.618533972650766" lon="11.062308987602592">
        <ele>353.42000000000002</ele>
        <time>2024-09-12T12:21:09Z</time>
      </trkpt>
      <trkpt lat="51.618614019826055" lon="11.063238037750125">
        <ele>353.89999999999998</ele>
        <time>2024-09-12T12:21:12Z</time>
      </trkpt>
      <trkpt lat="51.618699012324214" lon="11.063526961952448">
        <ele>353.89999999999998</ele>
        <time>2024-09-12T12:21:13Z</time>
      </trkpt>
      <trkpt lat="51.618795990943909" lon="11.06380901299417">
        <ele>353.89999999999998</ele>
        <time>2024-09-12T12:21:14Z</time>
      </trkpt>
      <trkpt lat="51.619246015325189" lon="11.064978037029505">
        <ele>354.38</ele>
        <time>2024-09-12T12:21:18Z</time>
      </trkpt>
      <trkpt lat="51.619842974469066" lon="11.0661939997226">
        <ele>354.86000000000001</ele>
        <time>2024-09-12T12:21:23Z</time>
      </trkpt>
      <trkpt lat="51.620010025799274" lon="11.066332971677184">
        <ele>354.86000000000001</ele>
        <time>2024-09-12T12:21:24Z</time>
      </trkpt>
      <trkpt lat="51.62017498165369" lon="11.066471021622419">
        <ele>354.86000000000001</ele>
        <time>2024-09-12T12:21:25Z</time>
      </trkpt>
      <trkpt lat="51.621150970458984" lon="11.067198989912868">
        <ele>355.33999999999997</ele>
        <time>2024-09-12T12:21:31Z</time>
      </trkpt>
      <trkpt lat="51.621313998475671" lon="11.067249029874802">
        <ele>355.33999999999997</ele>
        <time>2024-09-12T12:21:32Z</time>
      </trkpt>
      <trkpt lat="51.621488006785512" lon="11.067302003502846">
        <ele>355.33999999999997</ele>
        <time>2024-09-12T12:21:33Z</time>
      </trkpt>
      <trkpt lat="51.621665032580495" lon="11.067392025142908">
        <ele>354.86000000000001</ele>
        <time>2024-09-12T12:21:34Z</time>
      </trkpt>
      <trkpt lat="51.621834011748433" lon="11.06752797961235">
        <ele>354.86000000000001</ele>
        <time>2024-09-12T12:21:35Z</time>
      </trkpt>
      <trkpt lat="51.62197801284492" lon="11.06773903593421">
        <ele>354.86000000000001</ele>
        <time>2024-09-12T12:21:36Z</time>
      </trkpt>
      <trkpt lat="51.622132994234562" lon="11.067964006215334">
        <ele>354.38</ele>
        <time>2024-09-12T12:21:37Z</time>
      </trkpt>
      <trkpt lat="51.622294010594487" lon="11.068200040608644">
        <ele>354.38</ele>
        <time>2024-09-12T12:21:38Z</time>
      </trkpt>
      <trkpt lat="51.622981997206807" lon="11.069265967234969">
        <ele>355.33999999999997</ele>
        <time>2024-09-12T12:21:43Z</time>
      </trkpt>
      <trkpt lat="51.623125998303294" lon="11.069437963888049">
        <ele>355.33999999999997</ele>
        <time>2024-09-12T12:21:44Z</time>
      </trkpt>
      <trkpt lat="51.623285003006458" lon="11.069578025490046">
        <ele>355.33999999999997</ele>
        <time>2024-09-12T12:21:45Z</time>
      </trkpt>
      <trkpt lat="51.623476026579738" lon="11.069672992452979">
        <ele>355.33999999999997</ele>
        <time>2024-09-12T12:21:46Z</time>
      </trkpt>
      <trkpt lat="51.623670989647508" lon="11.069770976901054">
        <ele>354.86000000000001</ele>
        <time>2024-09-12T12:21:47Z</time>
      </trkpt>
      <trkpt lat="51.624645972624421" lon="11.070328038185835">
        <ele>353.89999999999998</ele>
        <time>2024-09-12T12:21:52Z</time>
      </trkpt>
      <trkpt lat="51.624822998419404" lon="11.070470027625561">
        <ele>353.42000000000002</ele>
        <time>2024-09-12T12:21:53Z</time>
      </trkpt>
      <trkpt lat="51.624971022829413" lon="11.070688962936401">
        <ele>353.42000000000002</ele>
        <time>2024-09-12T12:21:54Z</time>
      </trkpt>
      <trkpt lat="51.625111000612378" lon="11.070908987894654">
        <ele>352.94</ele>
        <time>2024-09-12T12:21:55Z</time>
      </trkpt>
      <trkpt lat="51.625249972566962" lon="11.071129012852907">
        <ele>352.94</ele>
        <time>2024-09-12T12:21:56Z</time>
      </trkpt>
      <trkpt lat="51.62532901391387" lon="11.071380972862244">
        <ele>352.45999999999998</ele>
        <time>2024-09-12T12:21:57Z</time>
      </trkpt>
      <trkpt lat="51.625407971441746" lon="11.071631005033851">
        <ele>352.45999999999998</ele>
        <time>2024-09-12T12:21:58Z</time>
      </trkpt>
      <trkpt lat="51.625485001131892" lon="11.071878019720316">
        <ele>352.45999999999998</ele>
        <time>2024-09-12T12:21:59Z</time>
      </trkpt>
      <trkpt lat="51.62550201639533" lon="11.072175996378064">
        <ele>352.45999999999998</ele>
        <time>2024-09-12T12:22:00Z</time>
      </trkpt>
      <trkpt lat="51.625517020002007" lon="11.072468021884561">
        <ele>352.45999999999998</ele>
        <time>2024-09-12T12:22:01Z</time>
      </trkpt>
      <trkpt lat="51.625516014173627" lon="11.072772033512592">
        <ele>352.45999999999998</ele>
        <time>2024-09-12T12:22:02Z</time>
      </trkpt>
      <trkpt lat="51.625464968383312" lon="11.073061963543296">
        <ele>351.98000000000002</ele>
        <time>2024-09-12T12:22:03Z</time>
      </trkpt>
      <trkpt lat="51.625411994755268" lon="11.07336999848485">
        <ele>351.98000000000002</ele>
        <time>2024-09-12T12:22:04Z</time>
      </trkpt>
      <trkpt lat="51.625348040834069" lon="11.073708040639758">
        <ele>351.5</ele>
        <time>2024-09-12T12:22:05Z</time>
      </trkpt>
      <trkpt lat="51.625025002285838" lon="11.074545979499817">
        <ele>351.01999999999998</ele>
        <time>2024-09-12T12:22:08Z</time>
      </trkpt>
      <trkpt lat="51.624890975654125" lon="11.074775978922844">
        <ele>351.01999999999998</ele>
        <time>2024-09-12T12:22:09Z</time>
      </trkpt>
      <trkpt lat="51.624468024820089" lon="11.075507970526814">
        <ele>350.54000000000002</ele>
        <time>2024-09-12T12:22:12Z</time>
      </trkpt>
      <trkpt lat="51.624341038987041" lon="11.075810976326466">
        <ele>350.54000000000002</ele>
        <time>2024-09-12T12:22:13Z</time>
      </trkpt>
      <trkpt lat="51.623679958283901" lon="11.077519040554762">
        <ele>349.57999999999998</ele>
        <time>2024-09-12T12:22:19Z</time>
      </trkpt>
      <trkpt lat="51.623619021847844" lon="11.077781980857253">
        <ele>349.57999999999998</ele>
        <time>2024-09-12T12:22:20Z</time>
      </trkpt>
      <trkpt lat="51.623598989099264" lon="11.078081969171762">
        <ele>349.10000000000002</ele>
        <time>2024-09-12T12:22:21Z</time>
      </trkpt>
      <trkpt lat="51.623576022684574" lon="11.078402996063232">
        <ele>349.10000000000002</ele>
        <time>2024-09-12T12:22:22Z</time>
      </trkpt>
      <trkpt lat="51.623602006584406" lon="11.078716982156038">
        <ele>349.10000000000002</ele>
        <time>2024-09-12T12:22:23Z</time>
      </trkpt>
      <trkpt lat="51.623631007969379" lon="11.079055024310946">
        <ele>349.10000000000002</ele>
        <time>2024-09-12T12:22:24Z</time>
      </trkpt>
      <trkpt lat="51.623685993254185" lon="11.079387031495571">
        <ele>348.62</ele>
        <time>2024-09-12T12:22:25Z</time>
      </trkpt>
      <trkpt lat="51.623879028484225" lon="11.080294959247112">
        <ele>348.62</ele>
        <time>2024-09-12T12:22:28Z</time>
      </trkpt>
      <trkpt lat="51.623954968526959" lon="11.080574998632073">
        <ele>348.62</ele>
        <time>2024-09-12T12:22:29Z</time>
      </trkpt>
      <trkpt lat="51.62406200543046" lon="11.08084699138999">
        <ele>348.13</ele>
        <time>2024-09-12T12:22:30Z</time>
      </trkpt>
      <trkpt lat="51.624298961833119" lon="11.081388965249062">
        <ele>347.64999999999998</ele>
        <time>2024-09-12T12:22:32Z</time>
      </trkpt>
      <trkpt lat="51.624689977616072" lon="11.082152975723147">
        <ele>347.17000000000002</ele>
        <time>2024-09-12T12:22:35Z</time>
      </trkpt>
      <trkpt lat="51.624793997034431" lon="11.082361014559865">
        <ele>346.69</ele>
        <time>2024-09-12T12:22:36Z</time>
      </trkpt>
      <trkpt lat="51.624971022829413" lon="11.08271598815918">
        <ele>345.73000000000002</ele>
        <time>2024-09-12T12:22:38Z</time>
      </trkpt>
      <trkpt lat="51.625112006440759" lon="11.083054030314088">
        <ele>344.29000000000002</ele>
        <time>2024-09-12T12:22:40Z</time>
      </trkpt>
      <trkpt lat="51.625178977847099" lon="11.083237007260323">
        <ele>343.81</ele>
        <time>2024-09-12T12:22:41Z</time>
      </trkpt>
      <trkpt lat="51.62548097781837" lon="11.084009986370802">
        <ele>342.37</ele>
        <time>2024-09-12T12:22:46Z</time>
      </trkpt>
      <trkpt lat="51.625595977529883" lon="11.084226993843913">
        <ele>341.41000000000003</ele>
        <time>2024-09-12T12:22:48Z</time>
      </trkpt>
      <trkpt lat="51.625670995563269" lon="11.084330007433891">
        <ele>340.92000000000002</ele>
        <time>2024-09-12T12:22:49Z</time>
      </trkpt>
      <trkpt lat="51.62575900554657" lon="11.084377029910684">
        <ele>340.44</ele>
        <time>2024-09-12T12:22:50Z</time>
      </trkpt>
      <trkpt lat="51.62584500387311" lon="11.084394967183471">
        <ele>340.44</ele>
        <time>2024-09-12T12:22:51Z</time>
      </trkpt>
      <trkpt lat="51.625936031341553" lon="11.084406031295657">
        <ele>339.95999999999998</ele>
        <time>2024-09-12T12:22:52Z</time>
      </trkpt>
      <trkpt lat="51.626021023839712" lon="11.084384992718697">
        <ele>339.95999999999998</ele>
        <time>2024-09-12T12:22:53Z</time>
      </trkpt>
      <trkpt lat="51.626107022166252" lon="11.084363032132387">
        <ele>339.95999999999998</ele>
        <time>2024-09-12T12:22:54Z</time>
      </trkpt>
      <trkpt lat="51.626192014664412" lon="11.084341993555427">
        <ele>340.44</ele>
        <time>2024-09-12T12:22:55Z</time>
      </trkpt>
      <trkpt lat="51.626285975798965" lon="11.084316009655595">
        <ele>341.41000000000003</ele>
        <time>2024-09-12T12:22:56Z</time>
      </trkpt>
      <trkpt lat="51.626377003267407" lon="11.08428399078548">
        <ele>341.88999999999999</ele>
        <time>2024-09-12T12:22:57Z</time>
      </trkpt>
      <trkpt lat="51.626706998795271" lon="11.084171002730727">
        <ele>343.32999999999998</ele>
        <time>2024-09-12T12:23:01Z</time>
      </trkpt>
      <trkpt lat="51.626794002950191" lon="11.084174020215869">
        <ele>343.32999999999998</ele>
        <time>2024-09-12T12:23:02Z</time>
      </trkpt>
      <trkpt lat="51.626868015155196" lon="11.084248032420874">
        <ele>343.32999999999998</ele>
        <time>2024-09-12T12:23:03Z</time>
      </trkpt>
      <trkpt lat="51.626944961026311" lon="11.084324978291988">
        <ele>343.32999999999998</ele>
        <time>2024-09-12T12:23:04Z</time>
      </trkpt>
      <trkpt lat="51.626988966017962" lon="11.084488006308675">
        <ele>343.81</ele>
        <time>2024-09-12T12:23:05Z</time>
      </trkpt>
      <trkpt lat="51.627018973231316" lon="11.084676012396812">
        <ele>343.81</ele>
        <time>2024-09-12T12:23:06Z</time>
      </trkpt>
      <trkpt lat="51.627030959352851" lon="11.084884973242879">
        <ele>343.32999999999998</ele>
        <time>2024-09-12T12:23:07Z</time>
      </trkpt>
      <trkpt lat="51.627030959352851" lon="11.085100974887609">
        <ele>342.85000000000002</ele>
        <time>2024-09-12T12:23:08Z</time>
      </trkpt>
      <trkpt lat="51.627012016251683" lon="11.085314964875579">
        <ele>342.85000000000002</ele>
        <time>2024-09-12T12:23:09Z</time>
      </trkpt>
      <trkpt lat="51.626974968239665" lon="11.085521997883916">
        <ele>342.37</ele>
        <time>2024-09-12T12:23:10Z</time>
      </trkpt>
      <trkpt lat="51.626863991841674" lon="11.086168996989727">
        <ele>341.88999999999999</ele>
        <time>2024-09-12T12:23:13Z</time>
      </trkpt>
      <trkpt lat="51.626843037083745" lon="11.086382986977696">
        <ele>342.37</ele>
        <time>2024-09-12T12:23:14Z</time>
      </trkpt>
      <trkpt lat="51.626858962699771" lon="11.086599994450808">
        <ele>342.37</ele>
        <time>2024-09-12T12:23:15Z</time>
      </trkpt>
      <trkpt lat="51.626903973519802" lon="11.08679998666048">
        <ele>342.37</ele>
        <time>2024-09-12T12:23:16Z</time>
      </trkpt>
      <trkpt lat="51.626950995996594" lon="11.08701397664845">
        <ele>341.88999999999999</ele>
        <time>2024-09-12T12:23:17Z</time>
      </trkpt>
      <trkpt lat="51.627011010423303" lon="11.087247999384999">
        <ele>341.88999999999999</ele>
        <time>2024-09-12T12:23:18Z</time>
      </trkpt>
      <trkpt lat="51.627089967951179" lon="11.08748403377831">
        <ele>341.88999999999999</ele>
        <time>2024-09-12T12:23:19Z</time>
      </trkpt>
      <trkpt lat="51.627211002632976" lon="11.087694000452757">
        <ele>341.88999999999999</ele>
        <time>2024-09-12T12:23:20Z</time>
      </trkpt>
      <trkpt lat="51.62747897207737" lon="11.088111000135541">
        <ele>341.88999999999999</ele>
        <time>2024-09-12T12:23:22Z</time>
      </trkpt>
      <trkpt lat="51.628259997814894" lon="11.088924966752529">
        <ele>342.37</ele>
        <time>2024-09-12T12:23:27Z</time>
      </trkpt>
      <trkpt lat="51.628421014174819" lon="11.089042983949184">
        <ele>342.37</ele>
        <time>2024-09-12T12:23:28Z</time>
      </trkpt>
      <trkpt lat="51.628867015242577" lon="11.089230990037322">
        <ele>342.37</ele>
        <time>2024-09-12T12:23:31Z</time>
      </trkpt>
      <trkpt lat="51.628988971933722" lon="11.089282035827637">
        <ele>342.37</ele>
        <time>2024-09-12T12:23:32Z</time>
      </trkpt>
      <trkpt lat="51.629113024100661" lon="11.089378008618951">
        <ele>342.37</ele>
        <time>2024-09-12T12:23:33Z</time>
      </trkpt>
      <trkpt lat="51.629165997728705" lon="11.089504994452">
        <ele>341.88999999999999</ele>
        <time>2024-09-12T12:23:34Z</time>
      </trkpt>
      <trkpt lat="51.629188964143395" lon="11.089663999155164">
        <ele>341.88999999999999</ele>
        <time>2024-09-12T12:23:35Z</time>
      </trkpt>
      <trkpt lat="51.629173038527369" lon="11.089811017736793">
        <ele>341.41000000000003</ele>
        <time>2024-09-12T12:23:36Z</time>
      </trkpt>
      <trkpt lat="51.629155017435551" lon="11.089969016611576">
        <ele>341.41000000000003</ele>
        <time>2024-09-12T12:23:37Z</time>
      </trkpt>
      <trkpt lat="51.629119981080294" lon="11.09017102047801">
        <ele>340.92000000000002</ele>
        <time>2024-09-12T12:23:38Z</time>
      </trkpt>
      <trkpt lat="51.62908704020083" lon="11.090403031557798">
        <ele>340.44</ele>
        <time>2024-09-12T12:23:39Z</time>
      </trkpt>
      <trkpt lat="51.628978997468948" lon="11.091119013726711">
        <ele>338.51999999999998</ele>
        <time>2024-09-12T12:23:43Z</time>
      </trkpt>
      <trkpt lat="51.628942033275962" lon="11.091232001781464">
        <ele>338.04000000000002</ele>
        <time>2024-09-12T12:23:44Z</time>
      </trkpt>
      <trkpt lat="51.628901967778802" lon="11.091325040906668">
        <ele>337.07999999999998</ele>
        <time>2024-09-12T12:23:45Z</time>
      </trkpt>
      <trkpt lat="51.628732988610864" lon="11.091596027836204">
        <ele>336.60000000000002</ele>
        <time>2024-09-12T12:23:48Z</time>
      </trkpt>
      <trkpt lat="51.628673980012536" lon="11.091693006455898">
        <ele>336.60000000000002</ele>
        <time>2024-09-12T12:23:49Z</time>
      </trkpt>
      <trkpt lat="51.628621006384492" lon="11.091781016439199">
        <ele>336.60000000000002</ele>
        <time>2024-09-12T12:23:50Z</time>
      </trkpt>
      <trkpt lat="51.628598039969802" lon="11.091896016150713">
        <ele>336.60000000000002</ele>
        <time>2024-09-12T12:23:51Z</time>
      </trkpt>
      <trkpt lat="51.628661993891001" lon="11.092006992548704">
        <ele>336.60000000000002</ele>
        <time>2024-09-12T12:23:52Z</time>
      </trkpt>
      <trkpt lat="51.628712033852935" lon="11.092130038887262">
        <ele>336.12</ele>
        <time>2024-09-12T12:23:53Z</time>
      </trkpt>
      <trkpt lat="51.628775987774134" lon="11.092285020276904">
        <ele>336.12</ele>
        <time>2024-09-12T12:23:54Z</time>
      </trkpt>
      <trkpt lat="51.629163986071944" lon="11.093198982998729">
        <ele>335.63999999999999</ele>
        <time>2024-09-12T12:23:59Z</time>
      </trkpt>
      <trkpt lat="51.629242021590471" lon="11.093644984066486">
        <ele>336.12</ele>
        <time>2024-09-12T12:24:01Z</time>
      </trkpt>
      <trkpt lat="51.629276974126697" lon="11.0938670206815">
        <ele>336.12</ele>
        <time>2024-09-12T12:24:02Z</time>
      </trkpt>
      <trkpt lat="51.629437990486622" lon="11.095707016065717">
        <ele>334.68000000000001</ele>
        <time>2024-09-12T12:24:10Z</time>
      </trkpt>
      <trkpt lat="51.62986203096807" lon="11.096965977922082">
        <ele>332.75</ele>
        <time>2024-09-12T12:24:15Z</time>
      </trkpt>
      <trkpt lat="51.629989016801119" lon="11.0971740167588">
        <ele>332.26999999999998</ele>
        <time>2024-09-12T12:24:16Z</time>
      </trkpt>
      <trkpt lat="51.631140019744635" lon="11.098113963380456">
        <ele>328.91000000000003</ele>
        <time>2024-09-12T12:24:23Z</time>
      </trkpt>
      <trkpt lat="51.631283015012741" lon="11.098141958937049">
        <ele>328.43000000000001</ele>
        <time>2024-09-12T12:24:24Z</time>
      </trkpt>
      <trkpt lat="51.631672019138932" lon="11.098125027492642">
        <ele>327.47000000000003</ele>
        <time>2024-09-12T12:24:26Z</time>
      </trkpt>
      <trkpt lat="51.632494032382965" lon="11.09801203943789">
        <ele>327.94999999999999</ele>
        <time>2024-09-12T12:24:32Z</time>
      </trkpt>
      <trkpt lat="51.632628981024027" lon="11.097972979769111">
        <ele>327.94999999999999</ele>
        <time>2024-09-12T12:24:33Z</time>
      </trkpt>
      <trkpt lat="51.632782034575939" lon="11.097929980605841">
        <ele>328.43000000000001</ele>
        <time>2024-09-12T12:24:34Z</time>
      </trkpt>
      <trkpt lat="51.633868999779224" lon="11.097357999533415">
        <ele>333.23000000000002</ele>
        <time>2024-09-12T12:24:42Z</time>
      </trkpt>
      <trkpt lat="51.634383983910084" lon="11.097235037013888">
        <ele>334.68000000000001</ele>
        <time>2024-09-12T12:24:45Z</time>
      </trkpt>
      <trkpt lat="51.634583976119757" lon="11.097254985943437">
        <ele>334.68000000000001</ele>
        <time>2024-09-12T12:24:46Z</time>
      </trkpt>
      <trkpt lat="51.634993012994528" lon="11.097294967621565">
        <ele>335.16000000000003</ele>
        <time>2024-09-12T12:24:48Z</time>
      </trkpt>
      <trkpt lat="51.635215971618891" lon="11.097262026742101">
        <ele>335.16000000000003</ele>
        <time>2024-09-12T12:24:49Z</time>
      </trkpt>
      <trkpt lat="51.635415041819215" lon="11.097167981788516">
        <ele>335.16000000000003</ele>
        <time>2024-09-12T12:24:50Z</time>
      </trkpt>
      <trkpt lat="51.635789964348078" lon="11.097022974863648">
        <ele>335.16000000000003</ele>
        <time>2024-09-12T12:24:52Z</time>
      </trkpt>
      <trkpt lat="51.635957015678287" lon="11.096963966265321">
        <ele>335.16000000000003</ele>
        <time>2024-09-12T12:24:53Z</time>
      </trkpt>
      <trkpt lat="51.636119037866592" lon="11.09698198735714">
        <ele>335.16000000000003</ele>
        <time>2024-09-12T12:24:54Z</time>
      </trkpt>
      <trkpt lat="51.636268990114331" lon="11.097058011218905">
        <ele>335.16000000000003</ele>
        <time>2024-09-12T12:24:55Z</time>
      </trkpt>
      <trkpt lat="51.636426988989115" lon="11.0971549898386">
        <ele>335.16000000000003</ele>
        <time>2024-09-12T12:24:56Z</time>
      </trkpt>
      <trkpt lat="51.636552968993783" lon="11.097332015633583">
        <ele>334.68000000000001</ele>
        <time>2024-09-12T12:24:57Z</time>
      </trkpt>
      <trkpt lat="51.636683978140354" lon="11.09751801006496">
        <ele>334.68000000000001</ele>
        <time>2024-09-12T12:24:58Z</time>
      </trkpt>
      <trkpt lat="51.636755978688598" lon="11.09777701087296">
        <ele>334.19999999999999</ele>
        <time>2024-09-12T12:24:59Z</time>
      </trkpt>
      <trkpt lat="51.636819010600448" lon="11.09805503860116">
        <ele>334.19999999999999</ele>
        <time>2024-09-12T12:25:00Z</time>
      </trkpt>
      <trkpt lat="51.636840971186757" lon="11.098363995552063">
        <ele>334.19999999999999</ele>
        <time>2024-09-12T12:25:01Z</time>
      </trkpt>
      <trkpt lat="51.636841977015138" lon="11.098689967766404">
        <ele>334.19999999999999</ele>
        <time>2024-09-12T12:25:02Z</time>
      </trkpt>
      <trkpt lat="51.63678296841681" lon="11.099022980779409">
        <ele>334.19999999999999</ele>
        <time>2024-09-12T12:25:03Z</time>
      </trkpt>
      <trkpt lat="51.636723959818482" lon="11.099364040419459">
        <ele>334.19999999999999</ele>
        <time>2024-09-12T12:25:04Z</time>
      </trkpt>
      <trkpt lat="51.636664029210806" lon="11.099701998755336">
        <ele>334.19999999999999</ele>
        <time>2024-09-12T12:25:05Z</time>
      </trkpt>
      <trkpt lat="51.636626981198788" lon="11.100060995668173">
        <ele>333.70999999999998</ele>
        <time>2024-09-12T12:25:06Z</time>
      </trkpt>
      <trkpt lat="51.636650031432509" lon="11.100433990359306">
        <ele>333.23000000000002</ele>
        <time>2024-09-12T12:25:07Z</time>
      </trkpt>
      <trkpt lat="51.636807024478912" lon="11.101871989667416">
        <ele>331.31</ele>
        <time>2024-09-12T12:25:11Z</time>
      </trkpt>
      <trkpt lat="51.636920012533665" lon="11.102192010730505">
        <ele>330.82999999999998</ele>
        <time>2024-09-12T12:25:12Z</time>
      </trkpt>
      <trkpt lat="51.637046998366714" lon="11.102509014308453">
        <ele>329.87</ele>
        <time>2024-09-12T12:25:13Z</time>
      </trkpt>
      <trkpt lat="51.637201979756355" lon="11.102778995409608">
        <ele>329.38999999999999</ele>
        <time>2024-09-12T12:25:14Z</time>
      </trkpt>
      <trkpt lat="51.637351009994745" lon="11.10304000787437">
        <ele>329.38999999999999</ele>
        <time>2024-09-12T12:25:15Z</time>
      </trkpt>
      <trkpt lat="51.637641023844481" lon="11.10349296592176">
        <ele>328.91000000000003</ele>
        <time>2024-09-12T12:25:17Z</time>
      </trkpt>
      <trkpt lat="51.637810003012419" lon="11.103670997545123">
        <ele>328.91000000000003</ele>
        <time>2024-09-12T12:25:18Z</time>
      </trkpt>
      <trkpt lat="51.638003960251808" lon="11.103752972558141">
        <ele>328.43000000000001</ele>
        <time>2024-09-12T12:25:19Z</time>
      </trkpt>
      <trkpt lat="51.638209987431765" lon="11.103840982541442">
        <ele>327.47000000000003</ele>
        <time>2024-09-12T12:25:20Z</time>
      </trkpt>
      <trkpt lat="51.638416014611721" lon="11.103927986696362">
        <ele>326.5</ele>
        <time>2024-09-12T12:25:21Z</time>
      </trkpt>
      <trkpt lat="51.63983004167676" lon="11.104527963325381">
        <ele>323.13999999999999</ele>
        <time>2024-09-12T12:25:27Z</time>
      </trkpt>
      <trkpt lat="51.641391003504395" lon="11.105579975992441">
        <ele>321.22000000000003</ele>
        <time>2024-09-12T12:25:34Z</time>
      </trkpt>
      <trkpt lat="51.64234695956111" lon="11.10656401142478">
        <ele>321.69999999999999</ele>
        <time>2024-09-12T12:25:40Z</time>
      </trkpt>
      <trkpt lat="51.642835037782788" lon="11.107178991660476">
        <ele>321.69999999999999</ele>
        <time>2024-09-12T12:25:44Z</time>
      </trkpt>
      <trkpt lat="51.643079034984112" lon="11.10753396525979">
        <ele>321.22000000000003</ele>
        <time>2024-09-12T12:25:46Z</time>
      </trkpt>
      <trkpt lat="51.643301993608475" lon="11.107894973829389">
        <ele>321.22000000000003</ele>
        <time>2024-09-12T12:25:48Z</time>
      </trkpt>
      <trkpt lat="51.643402995541692" lon="11.108074011281133">
        <ele>321.22000000000003</ele>
        <time>2024-09-12T12:25:49Z</time>
      </trkpt>
      <trkpt lat="51.643669959157705" lon="11.108557982370257">
        <ele>320.25999999999999</ele>
        <time>2024-09-12T12:25:52Z</time>
      </trkpt>
      <trkpt lat="51.643724022433162" lon="11.108718998730183">
        <ele>319.77999999999997</ele>
        <time>2024-09-12T12:25:53Z</time>
      </trkpt>
      <trkpt lat="51.643770039081573" lon="11.108857970684767">
        <ele>319.77999999999997</ele>
        <time>2024-09-12T12:25:54Z</time>
      </trkpt>
      <trkpt lat="51.643805997446179" lon="11.108945980668068">
        <ele>319.30000000000001</ele>
        <time>2024-09-12T12:25:55Z</time>
      </trkpt>
      <trkpt lat="51.643842961639166" lon="11.10901203006506">
        <ele>318.81</ele>
        <time>2024-09-12T12:25:56Z</time>
      </trkpt>
      <trkpt lat="51.643902976065874" lon="11.10909903421998">
        <ele>318.32999999999998</ele>
        <time>2024-09-12T12:25:57Z</time>
      </trkpt>
      <trkpt lat="51.643941029906273" lon="11.109037008136511">
        <ele>317.85000000000002</ele>
        <time>2024-09-12T12:25:58Z</time>
      </trkpt>
      <trkpt lat="51.643995009362698" lon="11.10894899815321">
        <ele>317.37</ele>
        <time>2024-09-12T12:25:59Z</time>
      </trkpt>
      <trkpt lat="51.644070027396083" lon="11.108828969299793">
        <ele>317.37</ele>
        <time>2024-09-12T12:26:00Z</time>
      </trkpt>
      <trkpt lat="51.644159965217113" lon="11.108759986236691">
        <ele>316.88999999999999</ele>
        <time>2024-09-12T12:26:01Z</time>
      </trkpt>
      <trkpt lat="51.644255015999079" lon="11.108687985688448">
        <ele>316.88999999999999</ele>
        <time>2024-09-12T12:26:02Z</time>
      </trkpt>
      <trkpt lat="51.644349982962012" lon="11.108614979311824">
        <ele>316.41000000000003</ele>
        <time>2024-09-12T12:26:03Z</time>
      </trkpt>
      <trkpt lat="51.644435981288552" lon="11.108544990420341">
        <ele>315.93000000000001</ele>
        <time>2024-09-12T12:26:04Z</time>
      </trkpt>
      <trkpt lat="51.644497001543641" lon="11.108397971838713">
        <ele>315.44999999999999</ele>
        <time>2024-09-12T12:26:05Z</time>
      </trkpt>
      <trkpt lat="51.644552992656827" lon="11.108223041519523">
        <ele>315.44999999999999</ele>
        <time>2024-09-12T12:26:06Z</time>
      </trkpt>
      <trkpt lat="51.644614012911916" lon="11.108027994632721">
        <ele>315.44999999999999</ele>
        <time>2024-09-12T12:26:07Z</time>
      </trkpt>
      <trkpt lat="51.644676961004734" lon="11.10781199298799">
        <ele>314.97000000000003</ele>
        <time>2024-09-12T12:26:08Z</time>
      </trkpt>
      <trkpt lat="51.644747033715248" lon="11.10757696442306">
        <ele>314.97000000000003</ele>
        <time>2024-09-12T12:26:09Z</time>
      </trkpt>
      <trkpt lat="51.64496798068285" lon="11.106786970049143">
        <ele>316.41000000000003</ele>
        <time>2024-09-12T12:26:12Z</time>
      </trkpt>
      <trkpt lat="51.645582960918546" lon="11.103961011394858">
        <ele>323.62</ele>
        <time>2024-09-12T12:26:21Z</time>
      </trkpt>
      <trkpt lat="51.645753029733896" lon="11.103290962055326">
        <ele>324.57999999999998</ele>
        <time>2024-09-12T12:26:23Z</time>
      </trkpt>
      <trkpt lat="51.64584799669683" lon="11.102586966007948">
        <ele>326.01999999999998</ele>
        <time>2024-09-12T12:26:25Z</time>
      </trkpt>
      <trkpt lat="51.645840033888817" lon="11.100031994283199">
        <ele>332.26999999999998</ele>
        <time>2024-09-12T12:26:32Z</time>
      </trkpt>
      <trkpt lat="51.645846990868449" lon="11.099279969930649">
        <ele>334.19999999999999</ele>
        <time>2024-09-12T12:26:34Z</time>
      </trkpt>
      <trkpt lat="51.645878003910184" lon="11.098904963582754">
        <ele>335.16000000000003</ele>
        <time>2024-09-12T12:26:35Z</time>
      </trkpt>
      <trkpt lat="51.645930977538228" lon="11.098527023568749">
        <ele>335.63999999999999</ele>
        <time>2024-09-12T12:26:36Z</time>
      </trkpt>
      <trkpt lat="51.645985962823033" lon="11.098159980028868">
        <ele>336.60000000000002</ele>
        <time>2024-09-12T12:26:37Z</time>
      </trkpt>
      <trkpt lat="51.64608595892787" lon="11.097807018086314">
        <ele>337.56</ele>
        <time>2024-09-12T12:26:38Z</time>
      </trkpt>
      <trkpt lat="51.646935967728496" lon="11.094806967303157">
        <ele>347.17000000000002</ele>
        <time>2024-09-12T12:26:46Z</time>
      </trkpt>
      <trkpt lat="51.647940035909414" lon="11.091472981497645">
        <ele>360.63</ele>
        <time>2024-09-12T12:26:55Z</time>
      </trkpt>
      <trkpt lat="51.649057008326054" lon="11.088145030662417">
        <ele>372.17000000000002</ele>
        <time>2024-09-12T12:27:04Z</time>
      </trkpt>
      <trkpt lat="51.649353979155421" lon="11.08750800602138">
        <ele>375.05000000000001</ele>
        <time>2024-09-12T12:27:06Z</time>
      </trkpt>
      <trkpt lat="51.650945032015443" lon="11.084801992401481">
        <ele>386.58999999999997</ele>
        <time>2024-09-12T12:27:15Z</time>
      </trkpt>
      <trkpt lat="51.651836028322577" lon="11.082864012569189">
        <ele>395.72000000000003</ele>
        <time>2024-09-12T12:27:22Z</time>
      </trkpt>
      <trkpt lat="51.652292003855109" lon="11.081509999930859">
        <ele>400.52999999999997</ele>
        <time>2024-09-12T12:27:27Z</time>
      </trkpt>
      <trkpt lat="51.652324022725224" lon="11.081220991909504">
        <ele>401.49000000000001</ele>
        <time>2024-09-12T12:27:28Z</time>
      </trkpt>
      <trkpt lat="51.652351012453437" lon="11.080912034958601">
        <ele>402.93000000000001</ele>
        <time>2024-09-12T12:27:29Z</time>
      </trkpt>
      <trkpt lat="51.652327962219715" lon="11.080595031380653">
        <ele>404.37</ele>
        <time>2024-09-12T12:27:30Z</time>
      </trkpt>
      <trkpt lat="51.65229300968349" lon="11.080285990610719">
        <ele>405.81</ele>
        <time>2024-09-12T12:27:31Z</time>
      </trkpt>
      <trkpt lat="51.652218997478485" lon="11.079991031438112">
        <ele>406.76999999999998</ele>
        <time>2024-09-12T12:27:32Z</time>
      </trkpt>
      <trkpt lat="51.652125036343932" lon="11.079709986224771">
        <ele>408.22000000000003</ele>
        <time>2024-09-12T12:27:33Z</time>
      </trkpt>
      <trkpt lat="51.651999978348613" lon="11.079460037872195">
        <ele>409.66000000000003</ele>
        <time>2024-09-12T12:27:34Z</time>
      </trkpt>
      <trkpt lat="51.651862012222409" lon="11.079216040670872">
        <ele>410.62</ele>
        <time>2024-09-12T12:27:35Z</time>
      </trkpt>
      <trkpt lat="51.650516968220472" lon="11.077198013663292">
        <ele>417.35000000000002</ele>
        <time>2024-09-12T12:27:43Z</time>
      </trkpt>
      <trkpt lat="51.650226032361388" lon="11.07663500122726">
        <ele>418.31</ele>
        <time>2024-09-12T12:27:45Z</time>
      </trkpt>
      <trkpt lat="51.65010298602283" lon="11.076320009306073">
        <ele>418.31</ele>
        <time>2024-09-12T12:27:46Z</time>
      </trkpt>
      <trkpt lat="51.650015981867909" lon="11.075972998514771">
        <ele>418.79000000000002</ele>
        <time>2024-09-12T12:27:47Z</time>
      </trkpt>
      <trkpt lat="51.649931995198131" lon="11.075635040178895">
        <ele>418.79000000000002</ele>
        <time>2024-09-12T12:27:48Z</time>
      </trkpt>
      <trkpt lat="51.649859994649887" lon="11.075286017730832">
        <ele>419.26999999999998</ele>
        <time>2024-09-12T12:27:49Z</time>
      </trkpt>
      <trkpt lat="51.649848008528352" lon="11.074905982241035">
        <ele>419.26999999999998</ele>
        <time>2024-09-12T12:27:50Z</time>
      </trkpt>
      <trkpt lat="51.649836022406816" lon="11.074522007256746">
        <ele>419.75</ele>
        <time>2024-09-12T12:27:51Z</time>
      </trkpt>
      <trkpt lat="51.64982495829463" lon="11.074158987030387">
        <ele>419.75</ele>
        <time>2024-09-12T12:27:52Z</time>
      </trkpt>
      <trkpt lat="51.649834010750055" lon="11.073805019259453">
        <ele>420.23000000000002</ele>
        <time>2024-09-12T12:27:53Z</time>
      </trkpt>
      <trkpt lat="51.649869969114661" lon="11.073452979326248">
        <ele>420.23000000000002</ele>
        <time>2024-09-12T12:27:54Z</time>
      </trkpt>
      <trkpt lat="51.649944987148046" lon="11.073128012940288">
        <ele>420.23000000000002</ele>
        <time>2024-09-12T12:27:55Z</time>
      </trkpt>
      <trkpt lat="51.650017993524671" lon="11.072810003533959">
        <ele>420.23000000000002</ele>
        <time>2024-09-12T12:27:56Z</time>
      </trkpt>
      <trkpt lat="51.650086976587772" lon="11.072508003562689">
        <ele>418.79000000000002</ele>
        <time>2024-09-12T12:27:57Z</time>
      </trkpt>
      <trkpt lat="51.650098040699959" lon="11.072225030511618">
        <ele>417.82999999999998</ele>
        <time>2024-09-12T12:27:58Z</time>
      </trkpt>
      <trkpt lat="51.650073984637856" lon="11.07197399251163">
        <ele>417.35000000000002</ele>
        <time>2024-09-12T12:27:59Z</time>
      </trkpt>
      <trkpt lat="51.650006007403135" lon="11.071757990866899">
        <ele>416.38999999999999</ele>
        <time>2024-09-12T12:28:00Z</time>
      </trkpt>
      <trkpt lat="51.649893019348383" lon="11.071610972285271">
        <ele>415.91000000000003</ele>
        <time>2024-09-12T12:28:01Z</time>
      </trkpt>
      <trkpt lat="51.649776007980108" lon="11.071493960916996">
        <ele>415.43000000000001</ele>
        <time>2024-09-12T12:28:02Z</time>
      </trkpt>
      <trkpt lat="51.649614991620183" lon="11.071479041129351">
        <ele>414.47000000000003</ele>
        <time>2024-09-12T12:28:03Z</time>
      </trkpt>
      <trkpt lat="51.649484988301992" lon="11.071514999493957">
        <ele>413.98000000000002</ele>
        <time>2024-09-12T12:28:04Z</time>
      </trkpt>
      <trkpt lat="51.64935196749866" lon="11.071619018912315">
        <ele>413.01999999999998</ele>
        <time>2024-09-12T12:28:05Z</time>
      </trkpt>
      <trkpt lat="51.649251971393824" lon="11.071777017787099">
        <ele>412.54000000000002</ele>
        <time>2024-09-12T12:28:06Z</time>
      </trkpt>
      <trkpt lat="51.649147029966116" lon="11.071976004168391">
        <ele>411.57999999999998</ele>
        <time>2024-09-12T12:28:07Z</time>
      </trkpt>
      <trkpt lat="51.649048961699009" lon="11.07223198749125">
        <ele>410.62</ele>
        <time>2024-09-12T12:28:08Z</time>
      </trkpt>
      <trkpt lat="51.648943014442921" lon="11.072509009391069">
        <ele>409.18000000000001</ele>
        <time>2024-09-12T12:28:09Z</time>
      </trkpt>
      <trkpt lat="51.648629028350115" lon="11.073329010978341">
        <ele>405.81</ele>
        <time>2024-09-12T12:28:12Z</time>
      </trkpt>
      <trkpt lat="51.64849097840488" lon="11.073513999581337">
        <ele>404.37</ele>
        <time>2024-09-12T12:28:13Z</time>
      </trkpt>
      <trkpt lat="51.648351000621915" lon="11.073683984577656">
        <ele>403.41000000000003</ele>
        <time>2024-09-12T12:28:14Z</time>
      </trkpt>
      <trkpt lat="51.648186966776848" lon="11.07377702370286">
        <ele>401.97000000000003</ele>
        <time>2024-09-12T12:28:15Z</time>
      </trkpt>
      <trkpt lat="51.648009018972516" lon="11.07379999011755">
        <ele>400.52999999999997</ele>
        <time>2024-09-12T12:28:16Z</time>
      </trkpt>
      <trkpt lat="51.647831993177533" lon="11.073779035359621">
        <ele>399.07999999999998</ele>
        <time>2024-09-12T12:28:17Z</time>
      </trkpt>
      <trkpt lat="51.647650022059679" lon="11.073706028982997">
        <ele>397.63999999999999</ele>
        <time>2024-09-12T12:28:18Z</time>
      </trkpt>
      <trkpt lat="51.647468972951174" lon="11.073577031493187">
        <ele>396.19999999999999</ele>
        <time>2024-09-12T12:28:19Z</time>
      </trkpt>
      <trkpt lat="51.647292030975223" lon="11.073401011526585">
        <ele>395.24000000000001</ele>
        <time>2024-09-12T12:28:20Z</time>
      </trkpt>
      <trkpt lat="51.647120034322143" lon="11.073219040408731">
        <ele>393.80000000000001</ele>
        <time>2024-09-12T12:28:21Z</time>
      </trkpt>
      <trkpt lat="51.646973015740514" lon="11.072984011843801">
        <ele>392.83999999999997</ele>
        <time>2024-09-12T12:28:22Z</time>
      </trkpt>
      <trkpt lat="51.646853992715478" lon="11.072732973843813">
        <ele>391.38999999999999</ele>
        <time>2024-09-12T12:28:23Z</time>
      </trkpt>
      <trkpt lat="51.6467509791255" lon="11.072448994964361">
        <ele>390.91000000000003</ele>
        <time>2024-09-12T12:28:24Z</time>
      </trkpt>
      <trkpt lat="51.646672021597624" lon="11.072156969457865">
        <ele>389.47000000000003</ele>
        <time>2024-09-12T12:28:25Z</time>
      </trkpt>
      <trkpt lat="51.64662198163569" lon="11.071819011121988">
        <ele>388.50999999999999</ele>
        <time>2024-09-12T12:28:26Z</time>
      </trkpt>
      <trkpt lat="51.64662198163569" lon="11.071498990058899">
        <ele>387.06999999999999</ele>
        <time>2024-09-12T12:28:27Z</time>
      </trkpt>
      <trkpt lat="51.646627010777593" lon="11.071163965389132">
        <ele>386.11000000000001</ele>
        <time>2024-09-12T12:28:28Z</time>
      </trkpt>
      <trkpt lat="51.646641008555889" lon="11.070821983739734">
        <ele>384.18000000000001</ele>
        <time>2024-09-12T12:28:29Z</time>
      </trkpt>
      <trkpt lat="51.646670009940863" lon="11.070474972948432">
        <ele>382.74000000000001</ele>
        <time>2024-09-12T12:28:30Z</time>
      </trkpt>
      <trkpt lat="51.646702028810978" lon="11.069542989134789">
        <ele>380.33999999999997</ele>
        <time>2024-09-12T12:28:33Z</time>
      </trkpt>
      <trkpt lat="51.646676966920495" lon="11.069264961406589">
        <ele>379.38</ele>
        <time>2024-09-12T12:28:34Z</time>
      </trkpt>
      <trkpt lat="51.646615024656057" lon="11.069005960598588">
        <ele>378.42000000000002</ele>
        <time>2024-09-12T12:28:35Z</time>
      </trkpt>
      <trkpt lat="51.646518968045712" lon="11.068761041387916">
        <ele>378.42000000000002</ele>
        <time>2024-09-12T12:28:36Z</time>
      </trkpt>
      <trkpt lat="51.646414026618004" lon="11.068502962589264">
        <ele>378.42000000000002</ele>
        <time>2024-09-12T12:28:37Z</time>
      </trkpt>
      <trkpt lat="51.646306989714503" lon="11.068252008408308">
        <ele>378.89999999999998</ele>
        <time>2024-09-12T12:28:38Z</time>
      </trkpt>
      <trkpt lat="51.646202970296144" lon="11.068007005378604">
        <ele>378.89999999999998</ele>
        <time>2024-09-12T12:28:39Z</time>
      </trkpt>
      <trkpt lat="51.646115966141224" lon="11.067749010398984">
        <ele>379.38</ele>
        <time>2024-09-12T12:28:40Z</time>
      </trkpt>
      <trkpt lat="51.646100962534547" lon="11.067438963800669">
        <ele>380.33999999999997</ele>
        <time>2024-09-12T12:28:41Z</time>
      </trkpt>
      <trkpt lat="51.646094005554914" lon="11.067112991586328">
        <ele>381.30000000000001</ele>
        <time>2024-09-12T12:28:42Z</time>
      </trkpt>
      <trkpt lat="51.64608696475625" lon="11.066767992451787">
        <ele>382.25999999999999</ele>
        <time>2024-09-12T12:28:43Z</time>
      </trkpt>
      <trkpt lat="51.64617002941668" lon="11.063621006906033">
        <ele>386.58999999999997</ele>
        <time>2024-09-12T12:28:51Z</time>
      </trkpt>
      <trkpt lat="51.646204981952906" lon="11.059029987081885">
        <ele>391.87</ele>
        <time>2024-09-12T12:29:02Z</time>
      </trkpt>
      <trkpt lat="51.646272959187627" lon="11.056005964055657">
        <ele>395.72000000000003</ele>
        <time>2024-09-12T12:29:10Z</time>
      </trkpt>
      <trkpt lat="51.646155025810003" lon="11.054705008864403">
        <ele>397.16000000000003</ele>
        <time>2024-09-12T12:29:16Z</time>
      </trkpt>
      <trkpt lat="51.646139016374946" lon="11.054534018039703">
        <ele>397.16000000000003</ele>
        <time>2024-09-12T12:29:17Z</time>
      </trkpt>
      <trkpt lat="51.646056035533547" lon="11.053705969825387">
        <ele>396.68000000000001</ele>
        <time>2024-09-12T12:29:22Z</time>
      </trkpt>
      <trkpt lat="51.64589200168848" lon="11.052674995735288">
        <ele>393.80000000000001</ele>
        <time>2024-09-12T12:29:29Z</time>
      </trkpt>
      <trkpt lat="51.645831987261772" lon="11.052553961053491">
        <ele>393.31999999999999</ele>
        <time>2024-09-12T12:29:30Z</time>
      </trkpt>
      <trkpt lat="51.645771972835064" lon="11.052452959120274">
        <ele>393.31999999999999</ele>
        <time>2024-09-12T12:29:31Z</time>
      </trkpt>
      <trkpt lat="51.64569703862071" lon="11.052404008805752">
        <ele>392.83999999999997</ele>
        <time>2024-09-12T12:29:32Z</time>
      </trkpt>
      <trkpt lat="51.645620008930564" lon="11.052353968843818">
        <ele>392.36000000000001</ele>
        <time>2024-09-12T12:29:33Z</time>
      </trkpt>
      <trkpt lat="51.645539961755276" lon="11.052303006872535">
        <ele>391.87</ele>
        <time>2024-09-12T12:29:34Z</time>
      </trkpt>
      <trkpt lat="51.645371988415718" lon="11.052183983847499">
        <ele>391.38999999999999</ele>
        <time>2024-09-12T12:29:36Z</time>
      </trkpt>
      <trkpt lat="51.645288001745939" lon="11.052110977470875">
        <ele>390.91000000000003</ele>
        <time>2024-09-12T12:29:37Z</time>
      </trkpt>
      <trkpt lat="51.645243996754289" lon="11.051992038264871">
        <ele>390.91000000000003</ele>
        <time>2024-09-12T12:29:38Z</time>
      </trkpt>
      <trkpt lat="51.645208038389683" lon="11.051848959177732">
        <ele>390.91000000000003</ele>
        <time>2024-09-12T12:29:39Z</time>
      </trkpt>
      <trkpt lat="51.645175013691187" lon="11.051718033850193">
        <ele>390.91000000000003</ele>
        <time>2024-09-12T12:29:40Z</time>
      </trkpt>
      <trkpt lat="51.64514098316431" lon="11.051580989733338">
        <ele>391.38999999999999</ele>
        <time>2024-09-12T12:29:41Z</time>
      </trkpt>
      <trkpt lat="51.645127991214395" lon="11.051418967545033">
        <ele>391.87</ele>
        <time>2024-09-12T12:29:42Z</time>
      </trkpt>
      <trkpt lat="51.645113993436098" lon="11.05124001391232">
        <ele>392.83999999999997</ele>
        <time>2024-09-12T12:29:43Z</time>
      </trkpt>
      <trkpt lat="51.645098989829421" lon="11.051054019480944">
        <ele>393.80000000000001</ele>
        <time>2024-09-12T12:29:44Z</time>
      </trkpt>
      <trkpt lat="51.644920036196709" lon="11.048908000811934">
        <ele>398.60000000000002</ele>
        <time>2024-09-12T12:29:55Z</time>
      </trkpt>
      <trkpt lat="51.644819034263492" lon="11.047146040946245">
        <ele>394.27999999999997</ele>
        <time>2024-09-12T12:30:04Z</time>
      </trkpt>
      <trkpt lat="51.644869996234775" lon="11.044950988143682">
        <ele>384.18000000000001</ele>
        <time>2024-09-12T12:30:15Z</time>
      </trkpt>
      <trkpt lat="51.645067976787686" lon="11.043176036328077">
        <ele>384.66000000000003</ele>
        <time>2024-09-12T12:30:21Z</time>
      </trkpt>
      <trkpt lat="51.645410964265466" lon="11.040101973339915">
        <ele>394.27999999999997</ele>
        <time>2024-09-12T12:30:29Z</time>
      </trkpt>
      <trkpt lat="51.645902981981635" lon="11.036853985860944">
        <ele>404.37</ele>
        <time>2024-09-12T12:30:37Z</time>
      </trkpt>
      <trkpt lat="51.646971004083753" lon="11.033190004527569">
        <ele>413.5</ele>
        <time>2024-09-12T12:30:46Z</time>
      </trkpt>
      <trkpt lat="51.648452002555132" lon="11.028383988887072">
        <ele>431.29000000000002</ele>
        <time>2024-09-12T12:30:58Z</time>
      </trkpt>
      <trkpt lat="51.649638041853905" lon="11.026047030463815">
        <ele>438.98000000000002</ele>
        <time>2024-09-12T12:31:05Z</time>
      </trkpt>
      <trkpt lat="51.650558961555362" lon="11.02378299459815">
        <ele>439.45999999999998</ele>
        <time>2024-09-12T12:31:11Z</time>
      </trkpt>
      <trkpt lat="51.651103030890226" lon="11.020870031788945">
        <ele>436.57999999999998</ele>
        <time>2024-09-12T12:31:18Z</time>
      </trkpt>
      <trkpt lat="51.650994988158345" lon="11.017860006541014">
        <ele>431.29000000000002</ele>
        <time>2024-09-12T12:31:25Z</time>
      </trkpt>
      <trkpt lat="51.650505987927318" lon="11.013578027486801">
        <ele>424.56</ele>
        <time>2024-09-12T12:31:35Z</time>
      </trkpt>
      <trkpt lat="51.650617970153689" lon="11.010563978925347">
        <ele>415.43000000000001</ele>
        <time>2024-09-12T12:31:42Z</time>
      </trkpt>
      <trkpt lat="51.650828020647168" lon="11.007871963083744">
        <ele>409.66000000000003</ele>
        <time>2024-09-12T12:31:48Z</time>
      </trkpt>
      <trkpt lat="51.650534989312291" lon="11.004844000563025">
        <ele>419.26999999999998</ele>
        <time>2024-09-12T12:31:55Z</time>
      </trkpt>
      <trkpt lat="51.649748012423515" lon="11.00238399580121">
        <ele>424.07999999999998</ele>
        <time>2024-09-12T12:32:01Z</time>
      </trkpt>
      <trkpt lat="51.648262990638614" lon="10.999532975256443">
        <ele>433.69</ele>
        <time>2024-09-12T12:32:09Z</time>
      </trkpt>
      <trkpt lat="51.646974021568894" lon="10.996950007975101">
        <ele>437.06</ele>
        <time>2024-09-12T12:32:17Z</time>
      </trkpt>
      <trkpt lat="51.646442022174597" lon="10.994697036221623">
        <ele>428.39999999999998</ele>
        <time>2024-09-12T12:32:23Z</time>
      </trkpt>
      <trkpt lat="51.645910022780299" lon="10.991204967722297">
        <ele>416.38999999999999</ele>
        <time>2024-09-12T12:32:32Z</time>
      </trkpt>
      <trkpt lat="51.645861994475126" lon="10.990164019167423">
        <ele>415.43000000000001</ele>
        <time>2024-09-12T12:32:35Z</time>
      </trkpt>
      <trkpt lat="51.645842967554927" lon="10.989837041124701">
        <ele>414.94999999999999</ele>
        <time>2024-09-12T12:32:36Z</time>
      </trkpt>
      <trkpt lat="51.64580499753356" lon="10.98953302949667">
        <ele>414.47000000000003</ele>
        <time>2024-09-12T12:32:37Z</time>
      </trkpt>
      <trkpt lat="51.645730985328555" lon="10.988944033160806">
        <ele>413.01999999999998</ele>
        <time>2024-09-12T12:32:39Z</time>
      </trkpt>
      <trkpt lat="51.64569603279233" lon="10.988661982119083">
        <ele>412.06</ele>
        <time>2024-09-12T12:32:40Z</time>
      </trkpt>
      <trkpt lat="51.645496040582657" lon="10.987091967836022">
        <ele>407.25999999999999</ele>
        <time>2024-09-12T12:32:47Z</time>
      </trkpt>
      <trkpt lat="51.64548103697598" lon="10.986921982839704">
        <ele>406.76999999999998</ele>
        <time>2024-09-12T12:32:48Z</time>
      </trkpt>
      <trkpt lat="51.645459998399019" lon="10.986759960651398">
        <ele>406.29000000000002</ele>
        <time>2024-09-12T12:32:49Z</time>
      </trkpt>
      <trkpt lat="51.645339969545603" lon="10.985833005979657">
        <ele>405.81</ele>
        <time>2024-09-12T12:32:55Z</time>
      </trkpt>
      <trkpt lat="51.645322032272816" lon="10.985518014058471">
        <ele>407.25999999999999</ele>
        <time>2024-09-12T12:32:57Z</time>
      </trkpt>
      <trkpt lat="51.645325971767306" lon="10.985226994380355">
        <ele>409.18000000000001</ele>
        <time>2024-09-12T12:32:59Z</time>
      </trkpt>
      <trkpt lat="51.645430997014046" lon="10.984665993601084">
        <ele>413.01999999999998</ele>
        <time>2024-09-12T12:33:03Z</time>
      </trkpt>
      <trkpt lat="51.6454419773072" lon="10.984156038612127">
        <ele>414.94999999999999</ele>
        <time>2024-09-12T12:33:07Z</time>
      </trkpt>
      <trkpt lat="51.6454419773072" lon="10.984052019193769">
        <ele>415.43000000000001</ele>
        <time>2024-09-12T12:33:08Z</time>
      </trkpt>
      <trkpt lat="51.645509032532573" lon="10.983897959813476">
        <ele>415.43000000000001</ele>
        <time>2024-09-12T12:33:09Z</time>
      </trkpt>
      <trkpt lat="51.645568963140249" lon="10.983836017549038">
        <ele>415.43000000000001</ele>
        <time>2024-09-12T12:33:10Z</time>
      </trkpt>
      <trkpt lat="51.645631995052099" lon="10.983770973980427">
        <ele>415.91000000000003</ele>
        <time>2024-09-12T12:33:11Z</time>
      </trkpt>
      <trkpt lat="51.645879009738564" lon="10.983514990657568">
        <ele>415.91000000000003</ele>
        <time>2024-09-12T12:33:15Z</time>
      </trkpt>
      <trkpt lat="51.645937012508512" lon="10.98345497623086">
        <ele>415.91000000000003</ele>
        <time>2024-09-12T12:33:16Z</time>
      </trkpt>
      <trkpt lat="51.645994009450078" lon="10.983395967632532">
        <ele>415.91000000000003</ele>
        <time>2024-09-12T12:33:17Z</time>
      </trkpt>
      <trkpt lat="51.646071961149573" lon="10.983296977356076">
        <ele>415.91000000000003</ele>
        <time>2024-09-12T12:33:18Z</time>
      </trkpt>
      <trkpt lat="51.646100040525198" lon="10.98319698125124">
        <ele>415.91000000000003</ele>
        <time>2024-09-12T12:33:19Z</time>
      </trkpt>
      <trkpt lat="51.64612996391952" lon="10.983092039823532">
        <ele>416.38999999999999</ele>
        <time>2024-09-12T12:33:20Z</time>
      </trkpt>
      <trkpt lat="51.64640698581934" lon="10.98240103572607">
        <ele>416.38999999999999</ele>
        <time>2024-09-12T12:33:29Z</time>
      </trkpt>
      <trkpt lat="51.646433975547552" lon="10.982442023232579">
        <ele>416.38999999999999</ele>
        <time>2024-09-12T12:33:30Z</time>
      </trkpt>
      <trkpt lat="51.646475968882442" lon="10.982504971325397">
        <ele>416.87</ele>
        <time>2024-09-12T12:33:31Z</time>
      </trkpt>
      <trkpt lat="51.646549981087446" lon="10.982549982145429">
        <ele>416.38999999999999</ele>
        <time>2024-09-12T12:33:32Z</time>
      </trkpt>
      <trkpt lat="51.64662198163569" lon="10.98257496021688">
        <ele>416.38999999999999</ele>
        <time>2024-09-12T12:33:33Z</time>
      </trkpt>
      <trkpt lat="51.646694988012314" lon="10.982601027935743">
        <ele>416.38999999999999</ele>
        <time>2024-09-12T12:33:34Z</time>
      </trkpt>
      <trkpt lat="51.646847035735846" lon="10.982654001563787">
        <ele>416.87</ele>
        <time>2024-09-12T12:33:36Z</time>
      </trkpt>
      <trkpt lat="51.647015009075403" lon="10.982679985463619">
        <ele>417.82999999999998</ele>
        <time>2024-09-12T12:33:38Z</time>
      </trkpt>
      <trkpt lat="51.64711500518024" lon="10.982679985463619">
        <ele>418.79000000000002</ele>
        <time>2024-09-12T12:33:39Z</time>
      </trkpt>
      <trkpt lat="51.647985968738794" lon="10.983220031484962">
        <ele>423.12</ele>
        <time>2024-09-12T12:33:48Z</time>
      </trkpt>
      <trkpt lat="51.648961035534739" lon="10.98401103168726">
        <ele>427.44</ele>
        <time>2024-09-12T12:33:57Z</time>
      </trkpt>
      <trkpt lat="51.650268025696278" lon="10.985024990513921">
        <ele>432.25</ele>
        <time>2024-09-12T12:34:09Z</time>
      </trkpt>
      <trkpt lat="51.651237979531288" lon="10.985604012385011">
        <ele>430.32999999999998</ele>
        <time>2024-09-12T12:34:15Z</time>
      </trkpt>
      <trkpt lat="51.651833010837436" lon="10.985769974067807">
        <ele>428.39999999999998</ele>
        <time>2024-09-12T12:34:18Z</time>
      </trkpt>
      <trkpt lat="51.652027973905206" lon="10.985769974067807">
        <ele>427.44</ele>
        <time>2024-09-12T12:34:19Z</time>
      </trkpt>
      <trkpt lat="51.652234001085162" lon="10.985769974067807">
        <ele>426.48000000000002</ele>
        <time>2024-09-12T12:34:20Z</time>
      </trkpt>
      <trkpt lat="51.653893031179905" lon="10.985887991264462">
        <ele>423.12</ele>
        <time>2024-09-12T12:34:27Z</time>
      </trkpt>
      <trkpt lat="51.654353030025959" lon="10.985994022339582">
        <ele>423.60000000000002</ele>
        <time>2024-09-12T12:34:29Z</time>
      </trkpt>
      <trkpt lat="51.654562996700406" lon="10.986126037314534">
        <ele>424.07999999999998</ele>
        <time>2024-09-12T12:34:30Z</time>
      </trkpt>
      <trkpt lat="51.654754020273685" lon="10.98631102591753">
        <ele>424.56</ele>
        <time>2024-09-12T12:34:31Z</time>
      </trkpt>
      <trkpt lat="51.654933979734778" lon="10.986532978713512">
        <ele>425.04000000000002</ele>
        <time>2024-09-12T12:34:32Z</time>
      </trkpt>
      <trkpt lat="51.655076975002885" lon="10.986768007278442">
        <ele>425.51999999999998</ele>
        <time>2024-09-12T12:34:33Z</time>
      </trkpt>
      <trkpt lat="51.655206978321075" lon="10.987047962844372">
        <ele>426</ele>
        <time>2024-09-12T12:34:34Z</time>
      </trkpt>
      <trkpt lat="51.65534402243793" lon="10.987340994179249">
        <ele>426.48000000000002</ele>
        <time>2024-09-12T12:34:35Z</time>
      </trkpt>
      <trkpt lat="51.655501015484333" lon="10.987642994150519">
        <ele>427.44</ele>
        <time>2024-09-12T12:34:36Z</time>
      </trkpt>
      <trkpt lat="51.655693966895342" lon="10.987886991351843">
        <ele>428.39999999999998</ele>
        <time>2024-09-12T12:34:37Z</time>
      </trkpt>
      <trkpt lat="51.655894964933395" lon="10.988139035180211">
        <ele>429.85000000000002</ele>
        <time>2024-09-12T12:34:38Z</time>
      </trkpt>
      <trkpt lat="51.657835962250829" lon="10.990503989160061">
        <ele>442.81999999999999</ele>
        <time>2024-09-12T12:34:47Z</time>
      </trkpt>
      <trkpt lat="51.65865202434361" lon="10.991170015186071">
        <ele>447.14999999999998</ele>
        <time>2024-09-12T12:34:51Z</time>
      </trkpt>
      <trkpt lat="51.660139979794621" lon="10.99202798679471">
        <ele>450.51999999999998</ele>
        <time>2024-09-12T12:34:57Z</time>
      </trkpt>
      <trkpt lat="51.661475971341133" lon="10.993349980562925">
        <ele>451.95999999999998</ele>
        <time>2024-09-12T12:35:03Z</time>
      </trkpt>
      <trkpt lat="51.662817997857928" lon="10.994346002116799">
        <ele>447.63</ele>
        <time>2024-09-12T12:35:09Z</time>
      </trkpt>
      <trkpt lat="51.664093974977732" lon="10.994956959038973">
        <ele>447.14999999999998</ele>
        <time>2024-09-12T12:35:15Z</time>
      </trkpt>
      <trkpt lat="51.664214003831148" lon="10.995104983448982">
        <ele>447.63</ele>
        <time>2024-09-12T12:35:16Z</time>
      </trkpt>
      <trkpt lat="51.664301007986069" lon="10.995273040607572">
        <ele>448.58999999999997</ele>
        <time>2024-09-12T12:35:17Z</time>
      </trkpt>
      <trkpt lat="51.66436898522079" lon="10.995487030595541">
        <ele>449.06999999999999</ele>
        <time>2024-09-12T12:35:18Z</time>
      </trkpt>
      <trkpt lat="51.664437968283892" lon="10.995702026411891">
        <ele>450.02999999999997</ele>
        <time>2024-09-12T12:35:19Z</time>
      </trkpt>
      <trkpt lat="51.664493037387729" lon="10.995929008349776">
        <ele>450.51999999999998</ele>
        <time>2024-09-12T12:35:20Z</time>
      </trkpt>
      <trkpt lat="51.665019001811743" lon="10.997773027047515">
        <ele>453.88</ele>
        <time>2024-09-12T12:35:28Z</time>
      </trkpt>
      <trkpt lat="51.665112962946296" lon="10.997951980680227">
        <ele>453.88</ele>
        <time>2024-09-12T12:35:29Z</time>
      </trkpt>
      <trkpt lat="51.665802039206028" lon="10.998868960887194">
        <ele>454.83999999999997</ele>
        <time>2024-09-12T12:35:36Z</time>
      </trkpt>
      <trkpt lat="51.665866998955607" lon="10.998878013342619">
        <ele>454.83999999999997</ele>
        <time>2024-09-12T12:35:37Z</time>
      </trkpt>
      <trkpt lat="51.665903041139245" lon="10.998792015016079">
        <ele>454.36000000000001</ele>
        <time>2024-09-12T12:35:38Z</time>
      </trkpt>
      <trkpt lat="51.665952997282147" lon="10.998671986162663">
        <ele>454.36000000000001</ele>
        <time>2024-09-12T12:35:39Z</time>
      </trkpt>
      <trkpt lat="51.666005970910192" lon="10.998518010601401">
        <ele>453.88</ele>
        <time>2024-09-12T12:35:40Z</time>
      </trkpt>
      <trkpt lat="51.666492959484458" lon="10.997109012678266">
        <ele>454.36000000000001</ele>
        <time>2024-09-12T12:35:46Z</time>
      </trkpt>
      <trkpt lat="51.667447993531823" lon="10.994340972974896">
        <ele>459.17000000000002</ele>
        <time>2024-09-12T12:35:55Z</time>
      </trkpt>
      <trkpt lat="51.668885992839932" lon="10.990173993632197">
        <ele>463.00999999999999</ele>
        <time>2024-09-12T12:36:08Z</time>
      </trkpt>
      <trkpt lat="51.670190971344709" lon="10.986380008980632">
        <ele>471.66000000000003</ele>
        <time>2024-09-12T12:36:19Z</time>
      </trkpt>
      <trkpt lat="51.671099988743663" lon="10.983725963160396">
        <ele>475.50999999999999</ele>
        <time>2024-09-12T12:36:27Z</time>
      </trkpt>
      <trkpt lat="51.671170983463526" lon="10.983447013422847">
        <ele>475.50999999999999</ele>
        <time>2024-09-12T12:36:28Z</time>
      </trkpt>
      <trkpt lat="51.671197973191738" lon="10.983149958774447">
        <ele>475.02999999999997</ele>
        <time>2024-09-12T12:36:29Z</time>
      </trkpt>
      <trkpt lat="51.671208031475544" lon="10.982842007651925">
        <ele>475.02999999999997</ele>
        <time>2024-09-12T12:36:30Z</time>
      </trkpt>
      <trkpt lat="51.671182969585061" lon="10.982503965497017">
        <ele>475.02999999999997</ele>
        <time>2024-09-12T12:36:31Z</time>
      </trkpt>
      <trkpt lat="51.671134019270539" lon="10.982163995504379">
        <ele>475.02999999999997</ele>
        <time>2024-09-12T12:36:32Z</time>
      </trkpt>
      <trkpt lat="51.671083979308605" lon="10.981818996369839">
        <ele>475.02999999999997</ele>
        <time>2024-09-12T12:36:33Z</time>
      </trkpt>
      <trkpt lat="51.670933021232486" lon="10.98078902810812">
        <ele>475.50999999999999</ele>
        <time>2024-09-12T12:36:36Z</time>
      </trkpt>
      <trkpt lat="51.670916005969048" lon="10.980444028973579">
        <ele>475.50999999999999</ele>
        <time>2024-09-12T12:36:37Z</time>
      </trkpt>
      <trkpt lat="51.67092296294868" lon="10.98008100874722">
        <ele>475.99000000000001</ele>
        <time>2024-09-12T12:36:38Z</time>
      </trkpt>
      <trkpt lat="51.670931009575725" lon="10.979712037369609">
        <ele>475.99000000000001</ele>
        <time>2024-09-12T12:36:39Z</time>
      </trkpt>
      <trkpt lat="51.670978032052517" lon="10.979344993829727">
        <ele>476.47000000000003</ele>
        <time>2024-09-12T12:36:40Z</time>
      </trkpt>
      <trkpt lat="51.671043997630477" lon="10.978977028280497">
        <ele>476.47000000000003</ele>
        <time>2024-09-12T12:36:41Z</time>
      </trkpt>
      <trkpt lat="51.671110969036818" lon="10.978606967255473">
        <ele>476.47000000000003</ele>
        <time>2024-09-12T12:36:42Z</time>
      </trkpt>
      <trkpt lat="51.671847989782691" lon="10.975847980007529">
        <ele>474.06999999999999</ele>
        <time>2024-09-12T12:36:50Z</time>
      </trkpt>
      <trkpt lat="51.672412008047104" lon="10.974116027355194">
        <ele>471.18000000000001</ele>
        <time>2024-09-12T12:36:57Z</time>
      </trkpt>
      <trkpt lat="51.673066969960928" lon="10.972791016101837">
        <ele>468.77999999999997</ele>
        <time>2024-09-12T12:37:05Z</time>
      </trkpt>
      <trkpt lat="51.673868028447032" lon="10.971371959894896">
        <ele>468.77999999999997</ele>
        <time>2024-09-12T12:37:15Z</time>
      </trkpt>
      <trkpt lat="51.674038013443351" lon="10.971099967136979">
        <ele>468.30000000000001</ele>
        <time>2024-09-12T12:37:17Z</time>
      </trkpt>
      <trkpt lat="51.674127029255033" lon="10.97097298130393">
        <ele>468.30000000000001</ele>
        <time>2024-09-12T12:37:18Z</time>
      </trkpt>
      <trkpt lat="51.674345964565873" lon="10.970806013792753">
        <ele>467.81999999999999</ele>
        <time>2024-09-12T12:37:20Z</time>
      </trkpt>
      <trkpt lat="51.675244001671672" lon="10.970222968608141">
        <ele>464.44999999999999</ele>
        <time>2024-09-12T12:37:28Z</time>
      </trkpt>
      <trkpt lat="51.676348987966776" lon="10.969964973628521">
        <ele>461.08999999999997</ele>
        <time>2024-09-12T12:37:37Z</time>
      </trkpt>
      <trkpt lat="51.676901020109653" lon="10.969836981967092">
        <ele>457.72000000000003</ele>
        <time>2024-09-12T12:37:42Z</time>
      </trkpt>
      <trkpt lat="51.677077040076256" lon="10.969707984477282">
        <ele>455.80000000000001</ele>
        <time>2024-09-12T12:37:44Z</time>
      </trkpt>
      <trkpt lat="51.677163960412145" lon="10.969633972272277">
        <ele>454.83999999999997</ele>
        <time>2024-09-12T12:37:45Z</time>
      </trkpt>
      <trkpt lat="51.678036013618112" lon="10.968885971233249">
        <ele>447.63</ele>
        <time>2024-09-12T12:37:55Z</time>
      </trkpt>
      <trkpt lat="51.678347988054156" lon="10.968613978475332">
        <ele>447.14999999999998</ele>
        <time>2024-09-12T12:37:59Z</time>
      </trkpt>
      <trkpt lat="51.678725006058812" lon="10.968259004876018">
        <ele>446.19</ele>
        <time>2024-09-12T12:38:04Z</time>
      </trkpt>
      <trkpt lat="51.678967997431755" lon="10.968159008771181">
        <ele>443.31</ele>
        <time>2024-09-12T12:38:10Z</time>
      </trkpt>
      <trkpt lat="51.679013008251786" lon="10.96813696436584">
        <ele>442.81999999999999</ele>
        <time>2024-09-12T12:38:11Z</time>
      </trkpt>
      <trkpt lat="51.679049972444773" lon="10.968119027093053">
        <ele>442.33999999999997</ele>
        <time>2024-09-12T12:38:12Z</time>
      </trkpt>
      <trkpt lat="51.679077968001366" lon="10.968105029314756">
        <ele>441.86000000000001</ele>
        <time>2024-09-12T12:38:13Z</time>
      </trkpt>
      <trkpt lat="51.679099006578326" lon="10.96809396520257">
        <ele>441.38</ele>
        <time>2024-09-12T12:38:14Z</time>
      </trkpt>
      <trkpt lat="51.679121972993016" lon="10.968082984909415">
        <ele>440.89999999999998</ele>
        <time>2024-09-12T12:38:15Z</time>
      </trkpt>
      <trkpt lat="51.679142005741596" lon="10.968073010444641">
        <ele>440.89999999999998</ele>
        <time>2024-09-12T12:38:16Z</time>
      </trkpt>
      <trkpt lat="51.679159021005034" lon="10.968064041808248">
        <ele>440.42000000000002</ele>
        <time>2024-09-12T12:38:17Z</time>
      </trkpt>
      <trkpt lat="51.679190034046769" lon="10.96804803237319">
        <ele>439.94</ele>
        <time>2024-09-12T12:38:40Z</time>
      </trkpt>
      <trkpt lat="51.679205037653446" lon="10.968040991574526">
        <ele>439.45999999999998</ele>
        <time>2024-09-12T12:38:47Z</time>
      </trkpt>
      <trkpt lat="51.679049972444773" lon="10.968283982947469">
        <ele>439.94</ele>
        <time>2024-09-12T12:38:49Z</time>
      </trkpt>
      <trkpt lat="51.679166983813047" lon="10.968060018494725">
        <ele>439.94</ele>
        <time>2024-09-12T12:38:50Z</time>
      </trkpt>
      <trkpt lat="51.6791280079633" lon="10.968079967424273">
        <ele>439.94</ele>
        <time>2024-09-12T12:38:51Z</time>
      </trkpt>
      <trkpt lat="51.67908601462841" lon="10.968101006001234">
        <ele>439.94</ele>
        <time>2024-09-12T12:38:52Z</time>
      </trkpt>
      <trkpt lat="51.679045027121902" lon="10.968121038749814">
        <ele>440.89999999999998</ele>
        <time>2024-09-12T12:38:53Z</time>
      </trkpt>
      <trkpt lat="51.67902298271656" lon="10.968233020976186">
        <ele>441.38</ele>
        <time>2024-09-12T12:38:54Z</time>
      </trkpt>
      <trkpt lat="51.679051984101534" lon="10.968287000432611">
        <ele>441.86000000000001</ele>
        <time>2024-09-12T12:38:55Z</time>
      </trkpt>
      <trkpt lat="51.679093977436423" lon="10.968365035951138">
        <ele>441.38</ele>
        <time>2024-09-12T12:38:56Z</time>
      </trkpt>
      <trkpt lat="51.679144017398357" lon="10.96845799125731">
        <ele>441.38</ele>
        <time>2024-09-12T12:38:57Z</time>
      </trkpt>
      <trkpt lat="51.679355995729566" lon="10.968786980956793">
        <ele>440.89999999999998</ele>
        <time>2024-09-12T12:39:00Z</time>
      </trkpt>
      <trkpt lat="51.679450962692499" lon="10.968882031738758">
        <ele>440.89999999999998</ele>
        <time>2024-09-12T12:39:01Z</time>
      </trkpt>
      <trkpt lat="51.679555987939239" lon="10.968914972618222">
        <ele>440.89999999999998</ele>
        <time>2024-09-12T12:39:02Z</time>
      </trkpt>
      <trkpt lat="51.679668975993991" lon="10.96895101480186">
        <ele>440.42000000000002</ele>
        <time>2024-09-12T12:39:03Z</time>
      </trkpt>
      <trkpt lat="51.679780036211014" lon="10.968985967338085">
        <ele>439.94</ele>
        <time>2024-09-12T12:39:04Z</time>
      </trkpt>
      <trkpt lat="51.679889000952244" lon="10.969019997864962">
        <ele>439.45999999999998</ele>
        <time>2024-09-12T12:39:05Z</time>
      </trkpt>
      <trkpt lat="51.680211033672094" lon="10.969163998961449">
        <ele>438.5</ele>
        <time>2024-09-12T12:39:08Z</time>
      </trkpt>
      <trkpt lat="51.680299965664744" lon="10.969245973974466">
        <ele>438.5</ele>
        <time>2024-09-12T12:39:09Z</time>
      </trkpt>
      <trkpt lat="51.68131903745234" lon="10.970349032431841">
        <ele>431.29000000000002</ele>
        <time>2024-09-12T12:39:20Z</time>
      </trkpt>
      <trkpt lat="51.681393971666694" lon="10.970489010214806">
        <ele>430.81</ele>
        <time>2024-09-12T12:39:21Z</time>
      </trkpt>
      <trkpt lat="51.681458009406924" lon="10.970651032403111">
        <ele>430.32999999999998</ele>
        <time>2024-09-12T12:39:22Z</time>
      </trkpt>
      <trkpt lat="51.681523974984884" lon="10.970819005742669">
        <ele>429.85000000000002</ele>
        <time>2024-09-12T12:39:23Z</time>
      </trkpt>
      <trkpt lat="51.681592036038637" lon="10.970991002395749">
        <ele>429.37</ele>
        <time>2024-09-12T12:39:24Z</time>
      </trkpt>
      <trkpt lat="51.681982968002558" lon="10.972617007791996">
        <ele>426.48000000000002</ele>
        <time>2024-09-12T12:39:31Z</time>
      </trkpt>
      <trkpt lat="51.682407008484006" lon="10.974187022075057">
        <ele>422.63999999999999</ele>
        <time>2024-09-12T12:39:37Z</time>
      </trkpt>
      <trkpt lat="51.682490995153785" lon="10.974294980987906">
        <ele>421.68000000000001</ele>
        <time>2024-09-12T12:39:38Z</time>
      </trkpt>
      <trkpt lat="51.682564001530409" lon="10.974362036213279">
        <ele>420.70999999999998</ele>
        <time>2024-09-12T12:39:39Z</time>
      </trkpt>
      <trkpt lat="51.682632984593511" lon="10.974337980151176">
        <ele>419.75</ele>
        <time>2024-09-12T12:39:40Z</time>
      </trkpt>
      <trkpt lat="51.68271797709167" lon="10.97425801679492">
        <ele>419.26999999999998</ele>
        <time>2024-09-12T12:39:41Z</time>
      </trkpt>
      <trkpt lat="51.682813027873635" lon="10.974141005426645">
        <ele>418.31</ele>
        <time>2024-09-12T12:39:42Z</time>
      </trkpt>
      <trkpt lat="51.682919980958104" lon="10.974007984623313">
        <ele>417.35000000000002</ele>
        <time>2024-09-12T12:39:43Z</time>
      </trkpt>
      <trkpt lat="51.683143023401499" lon="10.973732974380255">
        <ele>414.94999999999999</ele>
        <time>2024-09-12T12:39:45Z</time>
      </trkpt>
      <trkpt lat="51.683291969820857" lon="10.973695004358888">
        <ele>413.98000000000002</ele>
        <time>2024-09-12T12:39:46Z</time>
      </trkpt>
      <trkpt lat="51.683436976745725" lon="10.97365896217525">
        <ele>413.01999999999998</ele>
        <time>2024-09-12T12:39:47Z</time>
      </trkpt>
      <trkpt lat="51.683588018640876" lon="10.973634989932179">
        <ele>412.06</ele>
        <time>2024-09-12T12:39:48Z</time>
      </trkpt>
      <trkpt lat="51.683725984767079" lon="10.973716964945197">
        <ele>411.57999999999998</ele>
        <time>2024-09-12T12:39:49Z</time>
      </trkpt>
      <trkpt lat="51.683849031105638" lon="10.973829030990601">
        <ele>410.62</ele>
        <time>2024-09-12T12:39:50Z</time>
      </trkpt>
      <trkpt lat="51.68396302498877" lon="10.973964985460043">
        <ele>410.13999999999999</ele>
        <time>2024-09-12T12:39:51Z</time>
      </trkpt>
      <trkpt lat="51.684040976688266" lon="10.974114015698433">
        <ele>409.18000000000001</ele>
        <time>2024-09-12T12:39:52Z</time>
      </trkpt>
      <trkpt lat="51.68411398306489" lon="10.974299004301429">
        <ele>408.69999999999999</ele>
        <time>2024-09-12T12:39:53Z</time>
      </trkpt>
      <trkpt lat="51.684185983613133" lon="10.974481981247663">
        <ele>407.74000000000001</ele>
        <time>2024-09-12T12:39:54Z</time>
      </trkpt>
      <trkpt lat="51.684253038838506" lon="10.974644003435969">
        <ele>407.25999999999999</ele>
        <time>2024-09-12T12:39:55Z</time>
      </trkpt>
      <trkpt lat="51.684314981102943" lon="10.974767971783876">
        <ele>406.76999999999998</ele>
        <time>2024-09-12T12:39:56Z</time>
      </trkpt>
      <trkpt lat="51.684434004127979" lon="10.974849024787545">
        <ele>406.76999999999998</ele>
        <time>2024-09-12T12:39:57Z</time>
      </trkpt>
      <trkpt lat="51.684529976919293" lon="10.974819017574191">
        <ele>406.29000000000002</ele>
        <time>2024-09-12T12:39:58Z</time>
      </trkpt>
      <trkpt lat="51.684638019651175" lon="10.974784987047315">
        <ele>405.32999999999998</ele>
        <time>2024-09-12T12:39:59Z</time>
      </trkpt>
      <trkpt lat="51.684755031019449" lon="10.974724972620606">
        <ele>405.32999999999998</ele>
        <time>2024-09-12T12:40:00Z</time>
      </trkpt>
      <trkpt lat="51.684884028509259" lon="10.974619025364518">
        <ele>404.85000000000002</ele>
        <time>2024-09-12T12:40:01Z</time>
      </trkpt>
      <trkpt lat="51.685023000463843" lon="10.974504025653005">
        <ele>403.88999999999999</ele>
        <time>2024-09-12T12:40:02Z</time>
      </trkpt>
      <trkpt lat="51.685142023488879" lon="10.974346026778221">
        <ele>403.41000000000003</ele>
        <time>2024-09-12T12:40:03Z</time>
      </trkpt>
      <trkpt lat="51.685258029028773" lon="10.974147962406278">
        <ele>402.44999999999999</ele>
        <time>2024-09-12T12:40:04Z</time>
      </trkpt>
      <trkpt lat="51.685378979891539" lon="10.973941013216972">
        <ele>401.97000000000003</ele>
        <time>2024-09-12T12:40:05Z</time>
      </trkpt>
      <trkpt lat="51.685480987653136" lon="10.973713025450706">
        <ele>401.49000000000001</ele>
        <time>2024-09-12T12:40:06Z</time>
      </trkpt>
      <trkpt lat="51.685567991808057" lon="10.973451007157564">
        <ele>400.52999999999997</ele>
        <time>2024-09-12T12:40:07Z</time>
      </trkpt>
      <trkpt lat="51.685649966821074" lon="10.973175996914506">
        <ele>400.05000000000001</ele>
        <time>2024-09-12T12:40:08Z</time>
      </trkpt>
      <trkpt lat="51.685712998732924" lon="10.972876008599997">
        <ele>399.56999999999999</ele>
        <time>2024-09-12T12:40:09Z</time>
      </trkpt>
      <trkpt lat="51.685775024816394" lon="10.9725839830935">
        <ele>398.60000000000002</ele>
        <time>2024-09-12T12:40:10Z</time>
      </trkpt>
      <trkpt lat="51.685835039243102" lon="10.972298998385668">
        <ele>398.12</ele>
        <time>2024-09-12T12:40:11Z</time>
      </trkpt>
      <trkpt lat="51.686093034222722" lon="10.970518011599779">
        <ele>393.31999999999999</ele>
        <time>2024-09-12T12:40:17Z</time>
      </trkpt>
      <trkpt lat="51.686185989528894" lon="10.970277031883597">
        <ele>392.83999999999997</ele>
        <time>2024-09-12T12:40:18Z</time>
      </trkpt>
      <trkpt lat="51.686300989240408" lon="10.970058012753725">
        <ele>392.36000000000001</ele>
        <time>2024-09-12T12:40:19Z</time>
      </trkpt>
      <trkpt lat="51.686436021700501" lon="10.969823990017176">
        <ele>391.87</ele>
        <time>2024-09-12T12:40:20Z</time>
      </trkpt>
      <trkpt lat="51.68658203445375" lon="10.969572030007839">
        <ele>391.38999999999999</ele>
        <time>2024-09-12T12:40:21Z</time>
      </trkpt>
      <trkpt lat="51.686728969216347" lon="10.969316968694329">
        <ele>390.91000000000003</ele>
        <time>2024-09-12T12:40:22Z</time>
      </trkpt>
      <trkpt lat="51.68686400167644" lon="10.969039024785161">
        <ele>390.43000000000001</ele>
        <time>2024-09-12T12:40:23Z</time>
      </trkpt>
      <trkpt lat="51.687499014660716" lon="10.967546962201595">
        <ele>388.99000000000001</ele>
        <time>2024-09-12T12:40:28Z</time>
      </trkpt>
      <trkpt lat="51.687600016593933" lon="10.967234987765551">
        <ele>388.99000000000001</ele>
        <time>2024-09-12T12:40:29Z</time>
      </trkpt>
      <trkpt lat="51.687664976343513" lon="10.966878002509475">
        <ele>388.50999999999999</ele>
        <time>2024-09-12T12:40:30Z</time>
      </trkpt>
      <trkpt lat="51.687732031568885" lon="10.966516993939877">
        <ele>388.02999999999997</ele>
        <time>2024-09-12T12:40:31Z</time>
      </trkpt>
      <trkpt lat="51.687793973833323" lon="10.96618096344173">
        <ele>387.55000000000001</ele>
        <time>2024-09-12T12:40:32Z</time>
      </trkpt>
      <trkpt lat="51.687842002138495" lon="10.965921962633729">
        <ele>387.06999999999999</ele>
        <time>2024-09-12T12:40:33Z</time>
      </trkpt>
      <trkpt lat="51.687953984364867" lon="10.965623985975981">
        <ele>386.11000000000001</ele>
        <time>2024-09-12T12:40:34Z</time>
      </trkpt>
      <trkpt lat="51.688069989904761" lon="10.965436985716224">
        <ele>385.63</ele>
        <time>2024-09-12T12:40:35Z</time>
      </trkpt>
      <trkpt lat="51.688208961859345" lon="10.965236993506551">
        <ele>385.14999999999998</ele>
        <time>2024-09-12T12:40:36Z</time>
      </trkpt>
      <trkpt lat="51.688354974612594" lon="10.965027026832104">
        <ele>384.66000000000003</ele>
        <time>2024-09-12T12:40:37Z</time>
      </trkpt>
      <trkpt lat="51.688464023172855" lon="10.964871039614081">
        <ele>384.18000000000001</ele>
        <time>2024-09-12T12:40:38Z</time>
      </trkpt>
      <trkpt lat="51.688537029549479" lon="10.964555041864514">
        <ele>383.22000000000003</ele>
        <time>2024-09-12T12:40:39Z</time>
      </trkpt>
      <trkpt lat="51.688593020662665" lon="10.964304003864527">
        <ele>382.74000000000001</ele>
        <time>2024-09-12T12:40:40Z</time>
      </trkpt>
      <trkpt lat="51.688597965985537" lon="10.964006027206779">
        <ele>381.77999999999997</ele>
        <time>2024-09-12T12:40:41Z</time>
      </trkpt>
      <trkpt lat="51.688602995127439" lon="10.963675025850534">
        <ele>381.30000000000001</ele>
        <time>2024-09-12T12:40:42Z</time>
      </trkpt>
      <trkpt lat="51.688653035089374" lon="10.961392968893051">
        <ele>375.52999999999997</ele>
        <time>2024-09-12T12:40:48Z</time>
      </trkpt>
      <trkpt lat="51.688719000667334" lon="10.960240038111806">
        <ele>371.20999999999998</ele>
        <time>2024-09-12T12:40:51Z</time>
      </trkpt>
      <trkpt lat="51.688685975968838" lon="10.959510980173945">
        <ele>368.31999999999999</ele>
        <time>2024-09-12T12:40:53Z</time>
      </trkpt>
      <trkpt lat="51.688623027876019" lon="10.95859500579536">
        <ele>364</ele>
        <time>2024-09-12T12:40:56Z</time>
      </trkpt>
      <trkpt lat="51.688656974583864" lon="10.958389984443784">
        <ele>362.55000000000001</ele>
        <time>2024-09-12T12:40:57Z</time>
      </trkpt>
      <trkpt lat="51.688744984567165" lon="10.958178006112576">
        <ele>361.58999999999997</ele>
        <time>2024-09-12T12:40:58Z</time>
      </trkpt>
      <trkpt lat="51.688808016479015" lon="10.958025958389044">
        <ele>360.14999999999998</ele>
        <time>2024-09-12T12:40:59Z</time>
      </trkpt>
      <trkpt lat="51.688937013968825" lon="10.95786795951426">
        <ele>358.70999999999998</ele>
        <time>2024-09-12T12:41:00Z</time>
      </trkpt>
      <trkpt lat="51.689045978710055" lon="10.957770980894566">
        <ele>357.26999999999998</ele>
        <time>2024-09-12T12:41:01Z</time>
      </trkpt>
      <trkpt lat="51.689192997291684" lon="10.957711972296238">
        <ele>355.82999999999998</ele>
        <time>2024-09-12T12:41:02Z</time>
      </trkpt>
      <trkpt lat="51.689357031136751" lon="10.957645000889897">
        <ele>354.86000000000001</ele>
        <time>2024-09-12T12:41:03Z</time>
      </trkpt>
      <trkpt lat="51.689732037484646" lon="10.957493958994746">
        <ele>351.98000000000002</ele>
        <time>2024-09-12T12:41:05Z</time>
      </trkpt>
      <trkpt lat="51.689937980845571" lon="10.957378959283233">
        <ele>351.01999999999998</ele>
        <time>2024-09-12T12:41:06Z</time>
      </trkpt>
      <trkpt lat="51.690098997205496" lon="10.957173015922308">
        <ele>350.06</ele>
        <time>2024-09-12T12:41:07Z</time>
      </trkpt>
      <trkpt lat="51.690269988030195" lon="10.956955002620816">
        <ele>349.10000000000002</ele>
        <time>2024-09-12T12:41:08Z</time>
      </trkpt>
      <trkpt lat="51.690443996340036" lon="10.956733971834183">
        <ele>348.62</ele>
        <time>2024-09-12T12:41:09Z</time>
      </trkpt>
      <trkpt lat="51.691110022366047" lon="10.956044979393482">
        <ele>345.73000000000002</ele>
        <time>2024-09-12T12:41:13Z</time>
      </trkpt>
      <trkpt lat="51.691255029290915" lon="10.955940959975123">
        <ele>345.25</ele>
        <time>2024-09-12T12:41:14Z</time>
      </trkpt>
      <trkpt lat="51.691423002630472" lon="10.95591195859015">
        <ele>344.76999999999998</ele>
        <time>2024-09-12T12:41:15Z</time>
      </trkpt>
      <trkpt lat="51.691593993455172" lon="10.955923022702336">
        <ele>343.81</ele>
        <time>2024-09-12T12:41:16Z</time>
      </trkpt>
      <trkpt lat="51.691769007593393" lon="10.955960992723703">
        <ele>343.32999999999998</ele>
        <time>2024-09-12T12:41:17Z</time>
      </trkpt>
      <trkpt lat="51.692574005573988" lon="10.956237008795142">
        <ele>339.95999999999998</ele>
        <time>2024-09-12T12:41:23Z</time>
      </trkpt>
      <trkpt lat="51.692784978076816" lon="10.956291994079947">
        <ele>339</ele>
        <time>2024-09-12T12:41:25Z</time>
      </trkpt>
      <trkpt lat="51.692874999716878" lon="10.956314960494637">
        <ele>339</ele>
        <time>2024-09-12T12:41:26Z</time>
      </trkpt>
      <trkpt lat="51.693031992763281" lon="10.956355025991797">
        <ele>338.04000000000002</ele>
        <time>2024-09-12T12:41:28Z</time>
      </trkpt>
      <trkpt lat="51.693112039938569" lon="10.956375980749726">
        <ele>338.04000000000002</ele>
        <time>2024-09-12T12:41:29Z</time>
      </trkpt>
      <trkpt lat="51.693209018558264" lon="10.956421997398138">
        <ele>338.04000000000002</ele>
        <time>2024-09-12T12:41:30Z</time>
      </trkpt>
      <trkpt lat="51.693286970257759" lon="10.956513024866581">
        <ele>338.04000000000002</ele>
        <time>2024-09-12T12:41:31Z</time>
      </trkpt>
      <trkpt lat="51.693357964977622" lon="10.956650990992785">
        <ele>338.51999999999998</ele>
        <time>2024-09-12T12:41:32Z</time>
      </trkpt>
      <trkpt lat="51.693420996889472" lon="10.956802032887936">
        <ele>338.51999999999998</ele>
        <time>2024-09-12T12:41:33Z</time>
      </trkpt>
      <trkpt lat="51.69423102401197" lon="10.958236008882523">
        <ele>337.07999999999998</ele>
        <time>2024-09-12T12:41:42Z</time>
      </trkpt>
      <trkpt lat="51.694563031196594" lon="10.958644039928913">
        <ele>335.63999999999999</ele>
        <time>2024-09-12T12:41:45Z</time>
      </trkpt>
      <trkpt lat="51.694946000352502" lon="10.95887596718967">
        <ele>334.68000000000001</ele>
        <time>2024-09-12T12:41:48Z</time>
      </trkpt>
      <trkpt lat="51.695184968411922" lon="10.959014017134905">
        <ele>333.70999999999998</ele>
        <time>2024-09-12T12:41:50Z</time>
      </trkpt>
      <trkpt lat="51.695606997236609" lon="10.959382988512516">
        <ele>331.31</ele>
        <time>2024-09-12T12:41:54Z</time>
      </trkpt>
      <trkpt lat="51.695705987513065" lon="10.959445014595985">
        <ele>331.31</ele>
        <time>2024-09-12T12:41:55Z</time>
      </trkpt>
      <trkpt lat="51.695829033851624" lon="10.95945498906076">
        <ele>330.82999999999998</ele>
        <time>2024-09-12T12:41:56Z</time>
      </trkpt>
      <trkpt lat="51.695953002199531" lon="10.959465969353914">
        <ele>330.82999999999998</ele>
        <time>2024-09-12T12:41:57Z</time>
      </trkpt>
      <trkpt lat="51.696076970547438" lon="10.959477033466101">
        <ele>330.82999999999998</ele>
        <time>2024-09-12T12:41:58Z</time>
      </trkpt>
      <trkpt lat="51.696550967171788" lon="10.959596978500485">
        <ele>329.87</ele>
        <time>2024-09-12T12:42:02Z</time>
      </trkpt>
      <trkpt lat="51.696662027388811" lon="10.959665961563587">
        <ele>329.38999999999999</ele>
        <time>2024-09-12T12:42:03Z</time>
      </trkpt>
      <trkpt lat="51.696775015443563" lon="10.959736034274101">
        <ele>329.38999999999999</ele>
        <time>2024-09-12T12:42:04Z</time>
      </trkpt>
      <trkpt lat="51.696886997669935" lon="10.959824966266751">
        <ele>328.91000000000003</ele>
        <time>2024-09-12T12:42:05Z</time>
      </trkpt>
      <trkpt lat="51.696989005431533" lon="10.95994901843369">
        <ele>328.43000000000001</ele>
        <time>2024-09-12T12:42:06Z</time>
      </trkpt>
      <trkpt lat="51.697217999026179" lon="10.960225034505129">
        <ele>327.47000000000003</ele>
        <time>2024-09-12T12:42:08Z</time>
      </trkpt>
      <trkpt lat="51.697334004566073" lon="10.960431983694434">
        <ele>327.47000000000003</ele>
        <time>2024-09-12T12:42:09Z</time>
      </trkpt>
      <trkpt lat="51.697459984570742" lon="10.960700958967209">
        <ele>326.99000000000001</ele>
        <time>2024-09-12T12:42:10Z</time>
      </trkpt>
      <trkpt lat="51.697829961776733" lon="10.961650963872671">
        <ele>326.99000000000001</ele>
        <time>2024-09-12T12:42:13Z</time>
      </trkpt>
      <trkpt lat="51.697902968153358" lon="10.961955981329083">
        <ele>326.99000000000001</ele>
        <time>2024-09-12T12:42:14Z</time>
      </trkpt>
      <trkpt lat="51.697942027822137" lon="10.962263010442257">
        <ele>326.99000000000001</ele>
        <time>2024-09-12T12:42:15Z</time>
      </trkpt>
      <trkpt lat="51.697978992015123" lon="10.962562998756766">
        <ele>326.99000000000001</ele>
        <time>2024-09-12T12:42:16Z</time>
      </trkpt>
      <trkpt lat="51.697983015328646" lon="10.96287002786994">
        <ele>326.5</ele>
        <time>2024-09-12T12:42:17Z</time>
      </trkpt>
      <trkpt lat="51.69797002337873" lon="10.96321796067059">
        <ele>325.54000000000002</ele>
        <time>2024-09-12T12:42:18Z</time>
      </trkpt>
      <trkpt lat="51.697918977588415" lon="10.963518032804132">
        <ele>325.06</ele>
        <time>2024-09-12T12:42:19Z</time>
      </trkpt>
      <trkpt lat="51.697800038382411" lon="10.964153967797756">
        <ele>323.13999999999999</ele>
        <time>2024-09-12T12:42:21Z</time>
      </trkpt>
      <trkpt lat="51.697703981772065" lon="10.96441799774766">
        <ele>322.18000000000001</ele>
        <time>2024-09-12T12:42:22Z</time>
      </trkpt>
      <trkpt lat="51.697611026465893" lon="10.964643973857164">
        <ele>321.22000000000003</ele>
        <time>2024-09-12T12:42:23Z</time>
      </trkpt>
      <trkpt lat="51.697510024532676" lon="10.964845977723598">
        <ele>320.25999999999999</ele>
        <time>2024-09-12T12:42:24Z</time>
      </trkpt>
      <trkpt lat="51.697416985407472" lon="10.965032977983356">
        <ele>319.77999999999997</ele>
        <time>2024-09-12T12:42:25Z</time>
      </trkpt>
      <trkpt lat="51.697362000122666" lon="10.96521302126348">
        <ele>318.81</ele>
        <time>2024-09-12T12:42:26Z</time>
      </trkpt>
      <trkpt lat="51.69734800234437" lon="10.965386023744941">
        <ele>318.81</ele>
        <time>2024-09-12T12:42:27Z</time>
      </trkpt>
      <trkpt lat="51.697399970144033" lon="10.965517032891512">
        <ele>319.30000000000001</ele>
        <time>2024-09-12T12:42:28Z</time>
      </trkpt>
      <trkpt lat="51.69747800566256" lon="10.965659022331238">
        <ele>319.77999999999997</ele>
        <time>2024-09-12T12:42:29Z</time>
      </trkpt>
      <trkpt lat="51.697584958747029" lon="10.965800005942583">
        <ele>320.25999999999999</ele>
        <time>2024-09-12T12:42:30Z</time>
      </trkpt>
      <trkpt lat="51.697702975943685" lon="10.965954987332225">
        <ele>320.25999999999999</ele>
        <time>2024-09-12T12:42:31Z</time>
      </trkpt>
      <trkpt lat="51.69784102588892" lon="10.966136958450079">
        <ele>320.74000000000001</ele>
        <time>2024-09-12T12:42:32Z</time>
      </trkpt>
      <trkpt lat="51.697934987023473" lon="10.966335022822022">
        <ele>320.74000000000001</ele>
        <time>2024-09-12T12:42:33Z</time>
      </trkpt>
      <trkpt lat="51.69803699478507" lon="10.966553036123514">
        <ele>320.74000000000001</ele>
        <time>2024-09-12T12:42:34Z</time>
      </trkpt>
      <trkpt lat="51.698131039738655" lon="10.966751016676426">
        <ele>320.74000000000001</ele>
        <time>2024-09-12T12:42:35Z</time>
      </trkpt>
      <trkpt lat="51.698225000873208" lon="10.966884959489107">
        <ele>320.25999999999999</ele>
        <time>2024-09-12T12:42:36Z</time>
      </trkpt>
      <trkpt lat="51.698355004191399" lon="10.966947991400957">
        <ele>320.25999999999999</ele>
        <time>2024-09-12T12:42:37Z</time>
      </trkpt>
      <trkpt lat="51.69850998558104" lon="10.967023009434342">
        <ele>320.25999999999999</ele>
        <time>2024-09-12T12:42:38Z</time>
      </trkpt>
      <trkpt lat="51.698855990543962" lon="10.967212021350861">
        <ele>319.30000000000001</ele>
        <time>2024-09-12T12:42:40Z</time>
      </trkpt>
      <trkpt lat="51.699010971933603" lon="10.967357028275728">
        <ele>319.30000000000001</ele>
        <time>2024-09-12T12:42:41Z</time>
      </trkpt>
      <trkpt lat="51.699128989130259" lon="10.967466998845339">
        <ele>318.81</ele>
        <time>2024-09-12T12:42:42Z</time>
      </trkpt>
      <trkpt lat="51.699257986620069" lon="10.967733040452003">
        <ele>318.81</ele>
        <time>2024-09-12T12:42:43Z</time>
      </trkpt>
      <trkpt lat="51.699379021301866" lon="10.967980977147818">
        <ele>319.30000000000001</ele>
        <time>2024-09-12T12:42:44Z</time>
      </trkpt>
      <trkpt lat="51.699501983821392" lon="10.968241989612579">
        <ele>319.30000000000001</ele>
        <time>2024-09-12T12:42:45Z</time>
      </trkpt>
      <trkpt lat="51.69971002265811" lon="10.968812964856625">
        <ele>320.74000000000001</ele>
        <time>2024-09-12T12:42:47Z</time>
      </trkpt>
      <trkpt lat="51.69977598823607" lon="10.969095015898347">
        <ele>321.22000000000003</ele>
        <time>2024-09-12T12:42:48Z</time>
      </trkpt>
      <trkpt lat="51.69981999322772" lon="10.969398021697998">
        <ele>321.22000000000003</ele>
        <time>2024-09-12T12:42:49Z</time>
      </trkpt>
      <trkpt lat="51.699957037344575" lon="10.971515960991383">
        <ele>321.22000000000003</ele>
        <time>2024-09-12T12:42:55Z</time>
      </trkpt>
      <trkpt lat="51.699911020696163" lon="10.97180999815464">
        <ele>321.22000000000003</ele>
        <time>2024-09-12T12:42:56Z</time>
      </trkpt>
      <trkpt lat="51.699870033189654" lon="10.97206799313426">
        <ele>320.74000000000001</ele>
        <time>2024-09-12T12:42:57Z</time>
      </trkpt>
      <trkpt lat="51.699781017377973" lon="10.97226002253592">
        <ele>320.25999999999999</ele>
        <time>2024-09-12T12:42:58Z</time>
      </trkpt>
      <trkpt lat="51.699661994352937" lon="10.972438976168633">
        <ele>319.77999999999997</ele>
        <time>2024-09-12T12:42:59Z</time>
      </trkpt>
      <trkpt lat="51.69953802600503" lon="10.972624970600009">
        <ele>319.30000000000001</ele>
        <time>2024-09-12T12:43:00Z</time>
      </trkpt>
      <trkpt lat="51.699382038787007" lon="10.972766038030386">
        <ele>318.81</ele>
        <time>2024-09-12T12:43:01Z</time>
      </trkpt>
      <trkpt lat="51.699193026870489" lon="10.972916996106505">
        <ele>318.32999999999998</ele>
        <time>2024-09-12T12:43:02Z</time>
      </trkpt>
      <trkpt lat="51.698899995535612" lon="10.973179014399648">
        <ele>317.85000000000002</ele>
        <time>2024-09-12T12:43:04Z</time>
      </trkpt>
      <trkpt lat="51.698773009702563" lon="10.973310023546219">
        <ele>317.85000000000002</ele>
        <time>2024-09-12T12:43:05Z</time>
      </trkpt>
      <trkpt lat="51.698696985840797" lon="10.97348696552217">
        <ele>317.85000000000002</ele>
        <time>2024-09-12T12:43:06Z</time>
      </trkpt>
      <trkpt lat="51.698657004162669" lon="10.973711013793945">
        <ele>317.85000000000002</ele>
        <time>2024-09-12T12:43:07Z</time>
      </trkpt>
      <trkpt lat="51.698700003325939" lon="10.973928021267056">
        <ele>317.85000000000002</ele>
        <time>2024-09-12T12:43:08Z</time>
      </trkpt>
      <trkpt lat="51.698755994439125" lon="10.974182998761535">
        <ele>317.85000000000002</ele>
        <time>2024-09-12T12:43:09Z</time>
      </trkpt>
      <trkpt lat="51.698842998594046" lon="10.974448034539819">
        <ele>317.37</ele>
        <time>2024-09-12T12:43:10Z</time>
      </trkpt>
      <trkpt lat="51.69893603771925" lon="10.974736036732793">
        <ele>317.37</ele>
        <time>2024-09-12T12:43:11Z</time>
      </trkpt>
      <trkpt lat="51.699035027995706" lon="10.975039964541793">
        <ele>316.88999999999999</ele>
        <time>2024-09-12T12:43:12Z</time>
      </trkpt>
      <trkpt lat="51.699135024100542" lon="10.975344981998205">
        <ele>316.41000000000003</ele>
        <time>2024-09-12T12:43:13Z</time>
      </trkpt>
      <trkpt lat="51.699411040171981" lon="10.976145034655929">
        <ele>315.44999999999999</ele>
        <time>2024-09-12T12:43:16Z</time>
      </trkpt>
      <trkpt lat="51.699515981599689" lon="10.976308984681964">
        <ele>314.49000000000001</ele>
        <time>2024-09-12T12:43:17Z</time>
      </trkpt>
      <trkpt lat="51.699633998796344" lon="10.976399006322026">
        <ele>314.00999999999999</ele>
        <time>2024-09-12T12:43:18Z</time>
      </trkpt>
      <trkpt lat="51.699751010164618" lon="10.976458014920354">
        <ele>313.52999999999997</ele>
        <time>2024-09-12T12:43:19Z</time>
      </trkpt>
      <trkpt lat="51.699856035411358" lon="10.976372016593814">
        <ele>313.52999999999997</ele>
        <time>2024-09-12T12:43:20Z</time>
      </trkpt>
      <trkpt lat="51.699986960738897" lon="10.976264979690313">
        <ele>313.05000000000001</ele>
        <time>2024-09-12T12:43:21Z</time>
      </trkpt>
      <trkpt lat="51.700044041499496" lon="10.976119972765446">
        <ele>313.05000000000001</ele>
        <time>2024-09-12T12:43:22Z</time>
      </trkpt>
      <trkpt lat="51.700129033997655" lon="10.975904976949096">
        <ele>313.05000000000001</ele>
        <time>2024-09-12T12:43:23Z</time>
      </trkpt>
      <trkpt lat="51.700326008722186" lon="10.975407008081675">
        <ele>313.05000000000001</ele>
        <time>2024-09-12T12:43:25Z</time>
      </trkpt>
      <trkpt lat="51.700752982869744" lon="10.974621959030628">
        <ele>312.56999999999999</ele>
        <time>2024-09-12T12:43:28Z</time>
      </trkpt>
      <trkpt lat="51.701096976175904" lon="10.974166989326477">
        <ele>312.56999999999999</ele>
        <time>2024-09-12T12:43:30Z</time>
      </trkpt>
      <trkpt lat="51.701291017234325" lon="10.973973032087088">
        <ele>312.56999999999999</ele>
        <time>2024-09-12T12:43:31Z</time>
      </trkpt>
      <trkpt lat="51.701501989737153" lon="10.973813021555543">
        <ele>312.56999999999999</ele>
        <time>2024-09-12T12:43:32Z</time>
      </trkpt>
      <trkpt lat="51.701897028833628" lon="10.973560977727175">
        <ele>312.08999999999997</ele>
        <time>2024-09-12T12:43:34Z</time>
      </trkpt>
      <trkpt lat="51.702117975801229" lon="10.973524013534188">
        <ele>312.08999999999997</ele>
        <time>2024-09-12T12:43:35Z</time>
      </trkpt>
      <trkpt lat="51.702275974676013" lon="10.973547985777259">
        <ele>312.08999999999997</ele>
        <time>2024-09-12T12:43:36Z</time>
      </trkpt>
      <trkpt lat="51.702426010742784" lon="10.973632978275418">
        <ele>312.08999999999997</ele>
        <time>2024-09-12T12:43:37Z</time>
      </trkpt>
      <trkpt lat="51.702590966597199" lon="10.973752001300454">
        <ele>311.60000000000002</ele>
        <time>2024-09-12T12:43:38Z</time>
      </trkpt>
      <trkpt lat="51.702946024015546" lon="10.974052995443344">
        <ele>310.16000000000003</ele>
        <time>2024-09-12T12:43:40Z</time>
      </trkpt>
      <trkpt lat="51.703122965991497" lon="10.974214011803269">
        <ele>309.68000000000001</ele>
        <time>2024-09-12T12:43:41Z</time>
      </trkpt>
      <trkpt lat="51.703453967347741" lon="10.974509976804256">
        <ele>308.24000000000001</ele>
        <time>2024-09-12T12:43:43Z</time>
      </trkpt>
      <trkpt lat="51.703624958172441" lon="10.974566973745823">
        <ele>307.27999999999997</ele>
        <time>2024-09-12T12:43:44Z</time>
      </trkpt>
      <trkpt lat="51.703784968703985" lon="10.974554987624288">
        <ele>306.31999999999999</ele>
        <time>2024-09-12T12:43:45Z</time>
      </trkpt>
      <trkpt lat="51.703927963972092" lon="10.974498996511102">
        <ele>305.36000000000001</ele>
        <time>2024-09-12T12:43:46Z</time>
      </trkpt>
      <trkpt lat="51.704056039452553" lon="10.974389025941491">
        <ele>303.91000000000003</ele>
        <time>2024-09-12T12:43:47Z</time>
      </trkpt>
      <trkpt lat="51.704175984486938" lon="10.974278971552849">
        <ele>302.94999999999999</ele>
        <time>2024-09-12T12:43:48Z</time>
      </trkpt>
      <trkpt lat="51.704254020005465" lon="10.974095994606614">
        <ele>301.50999999999999</ele>
        <time>2024-09-12T12:43:49Z</time>
      </trkpt>
      <trkpt lat="51.704311016947031" lon="10.973872030153871">
        <ele>300.06999999999999</ele>
        <time>2024-09-12T12:43:50Z</time>
      </trkpt>
      <trkpt lat="51.704337000846863" lon="10.973602971062064">
        <ele>299.11000000000001</ele>
        <time>2024-09-12T12:43:51Z</time>
      </trkpt>
      <trkpt lat="51.70433297753334" lon="10.973328966647387">
        <ele>298.14999999999998</ele>
        <time>2024-09-12T12:43:52Z</time>
      </trkpt>
      <trkpt lat="51.704321997240186" lon="10.973067032173276">
        <ele>297.18000000000001</ele>
        <time>2024-09-12T12:43:53Z</time>
      </trkpt>
      <trkpt lat="51.704364996403456" lon="10.972895035520196">
        <ele>296.69999999999999</ele>
        <time>2024-09-12T12:43:54Z</time>
      </trkpt>
      <trkpt lat="51.704432973638177" lon="10.972762014716864">
        <ele>295.74000000000001</ele>
        <time>2024-09-12T12:43:55Z</time>
      </trkpt>
      <trkpt lat="51.704532969743013" lon="10.972663024440408">
        <ele>295.25999999999999</ele>
        <time>2024-09-12T12:43:56Z</time>
      </trkpt>
      <trkpt lat="51.704658027738333" lon="10.972635028883815">
        <ele>294.30000000000001</ele>
        <time>2024-09-12T12:43:57Z</time>
      </trkpt>
      <trkpt lat="51.704796999692917" lon="10.97264701500535">
        <ele>293.33999999999997</ele>
        <time>2024-09-12T12:43:58Z</time>
      </trkpt>
      <trkpt lat="51.704944018274546" lon="10.972740976139903">
        <ele>292.38</ele>
        <time>2024-09-12T12:43:59Z</time>
      </trkpt>
      <trkpt lat="51.705102017149329" lon="10.972867961972952">
        <ele>291.89999999999998</ele>
        <time>2024-09-12T12:44:00Z</time>
      </trkpt>
      <trkpt lat="51.705264039337635" lon="10.97305404022336">
        <ele>290.94</ele>
        <time>2024-09-12T12:44:01Z</time>
      </trkpt>
      <trkpt lat="51.705435030162334" lon="10.973250009119511">
        <ele>290.45999999999998</ele>
        <time>2024-09-12T12:44:02Z</time>
      </trkpt>
      <trkpt lat="51.706374976783991" lon="10.974282994866371">
        <ele>286.61000000000001</ele>
        <time>2024-09-12T12:44:07Z</time>
      </trkpt>
      <trkpt lat="51.708014979958534" lon="10.975815039128065">
        <ele>281.80000000000001</ele>
        <time>2024-09-12T12:44:16Z</time>
      </trkpt>
      <trkpt lat="51.708523007109761" lon="10.976172024384141">
        <ele>279.88</ele>
        <time>2024-09-12T12:44:19Z</time>
      </trkpt>
      <trkpt lat="51.708662984892726" lon="10.976222986355424">
        <ele>279.39999999999998</ele>
        <time>2024-09-12T12:44:20Z</time>
      </trkpt>
      <trkpt lat="51.70877899043262" lon="10.976230027154088">
        <ele>278.92000000000002</ele>
        <time>2024-09-12T12:44:21Z</time>
      </trkpt>
      <trkpt lat="51.708888038992882" lon="10.976205971091986">
        <ele>278.44</ele>
        <time>2024-09-12T12:44:22Z</time>
      </trkpt>
      <trkpt lat="51.708979988470674" lon="10.976108992472291">
        <ele>277.95999999999998</ele>
        <time>2024-09-12T12:44:23Z</time>
      </trkpt>
      <trkpt lat="51.709085013717413" lon="10.975963985547423">
        <ele>277.48000000000002</ele>
        <time>2024-09-12T12:44:24Z</time>
      </trkpt>
      <trkpt lat="51.709142010658979" lon="10.975778996944427">
        <ele>277</ele>
        <time>2024-09-12T12:44:25Z</time>
      </trkpt>
      <trkpt lat="51.709192972630262" lon="10.975540028885007">
        <ele>277</ele>
        <time>2024-09-12T12:44:26Z</time>
      </trkpt>
      <trkpt lat="51.709235971793532" lon="10.975258983671665">
        <ele>277</ele>
        <time>2024-09-12T12:44:27Z</time>
      </trkpt>
      <trkpt lat="51.709282994270325" lon="10.974952960386872">
        <ele>277</ele>
        <time>2024-09-12T12:44:28Z</time>
      </trkpt>
      <trkpt lat="51.709385002031922" lon="10.974290035665035">
        <ele>277.48000000000002</ele>
        <time>2024-09-12T12:44:30Z</time>
      </trkpt>
      <trkpt lat="51.709899986162782" lon="10.97157103009522">
        <ele>280.83999999999997</ele>
        <time>2024-09-12T12:44:38Z</time>
      </trkpt>
      <trkpt lat="51.709990007802844" lon="10.9713130351156">
        <ele>280.36000000000001</ele>
        <time>2024-09-12T12:44:39Z</time>
      </trkpt>
      <trkpt lat="51.710098972544074" lon="10.971090998500586">
        <ele>280.36000000000001</ele>
        <time>2024-09-12T12:44:40Z</time>
      </trkpt>
      <trkpt lat="51.710240039974451" lon="10.970890000462532">
        <ele>279.88</ele>
        <time>2024-09-12T12:44:41Z</time>
      </trkpt>
      <trkpt lat="51.710416981950402" lon="10.970782041549683">
        <ele>279.88</ele>
        <time>2024-09-12T12:44:42Z</time>
      </trkpt>
      <trkpt lat="51.710601970553398" lon="10.970668969675899">
        <ele>279.39999999999998</ele>
        <time>2024-09-12T12:44:43Z</time>
      </trkpt>
      <trkpt lat="51.710795005783439" lon="10.97054298967123">
        <ele>278.92000000000002</ele>
        <time>2024-09-12T12:44:44Z</time>
      </trkpt>
      <trkpt lat="51.711365981027484" lon="10.970211988314986">
        <ele>277.95999999999998</ele>
        <time>2024-09-12T12:44:47Z</time>
      </trkpt>
      <trkpt lat="51.711558010429144" lon="10.970222968608141">
        <ele>277.48000000000002</ele>
        <time>2024-09-12T12:44:48Z</time>
      </trkpt>
      <trkpt lat="51.711748028174043" lon="10.970275020226836">
        <ele>277</ele>
        <time>2024-09-12T12:44:49Z</time>
      </trkpt>
      <trkpt lat="51.711939973756671" lon="10.970337968319654">
        <ele>276.51999999999998</ele>
        <time>2024-09-12T12:44:50Z</time>
      </trkpt>
      <trkpt lat="51.712120017036796" lon="10.970475012436509">
        <ele>275.56</ele>
        <time>2024-09-12T12:44:51Z</time>
      </trkpt>
      <trkpt lat="51.71230299398303" lon="10.970613984391093">
        <ele>275.06999999999999</ele>
        <time>2024-09-12T12:44:52Z</time>
      </trkpt>
      <trkpt lat="51.712472978979349" lon="10.970793021842837">
        <ele>274.58999999999997</ele>
        <time>2024-09-12T12:44:53Z</time>
      </trkpt>
      <trkpt lat="51.712636006996036" lon="10.970994019880891">
        <ele>274.11000000000001</ele>
        <time>2024-09-12T12:44:54Z</time>
      </trkpt>
      <trkpt lat="51.712799035012722" lon="10.971195017918944">
        <ele>273.63</ele>
        <time>2024-09-12T12:44:55Z</time>
      </trkpt>
      <trkpt lat="51.713233971968293" lon="10.971850985661149">
        <ele>272.19</ele>
        <time>2024-09-12T12:44:58Z</time>
      </trkpt>
      <trkpt lat="51.713874014094472" lon="10.973092010244727">
        <ele>271.70999999999998</ele>
        <time>2024-09-12T12:45:03Z</time>
      </trkpt>
      <trkpt lat="51.71397602185607" lon="10.973338019102812">
        <ele>271.70999999999998</ele>
        <time>2024-09-12T12:45:04Z</time>
      </trkpt>
      <trkpt lat="51.714328983798623" lon="10.974181992933154">
        <ele>272.19</ele>
        <time>2024-09-12T12:45:08Z</time>
      </trkpt>
      <trkpt lat="51.714401990175247" lon="10.974375028163195">
        <ele>272.19</ele>
        <time>2024-09-12T12:45:09Z</time>
      </trkpt>
      <trkpt lat="51.714469967409968" lon="10.974553981795907">
        <ele>272.19</ele>
        <time>2024-09-12T12:45:10Z</time>
      </trkpt>
      <trkpt lat="51.714516989886761" lon="10.974736958742142">
        <ele>272.19</ele>
        <time>2024-09-12T12:45:11Z</time>
      </trkpt>
      <trkpt lat="51.714551020413637" lon="10.97490300424397">
        <ele>272.19</ele>
        <time>2024-09-12T12:45:12Z</time>
      </trkpt>
      <trkpt lat="51.714581027626991" lon="10.975064020603895">
        <ele>271.70999999999998</ele>
        <time>2024-09-12T12:45:13Z</time>
      </trkpt>
      <trkpt lat="51.714653028175235" lon="10.975960968062282">
        <ele>270.75</ele>
        <time>2024-09-12T12:45:19Z</time>
      </trkpt>
      <trkpt lat="51.714684963226318" lon="10.976062975823879">
        <ele>270.75</ele>
        <time>2024-09-12T12:45:20Z</time>
      </trkpt>
      <trkpt lat="51.714715976268053" lon="10.976155009120703">
        <ele>270.26999999999998</ele>
        <time>2024-09-12T12:45:21Z</time>
      </trkpt>
      <trkpt lat="51.714756963774562" lon="10.976234972476959">
        <ele>269.79000000000002</ele>
        <time>2024-09-12T12:45:22Z</time>
      </trkpt>
      <trkpt lat="51.714770961552858" lon="10.976264979690313">
        <ele>269.79000000000002</ele>
        <time>2024-09-12T12:45:23Z</time>
      </trkpt>
      <trkpt lat="51.714861989021301" lon="10.976255005225539">
        <ele>269.31</ele>
        <time>2024-09-12T12:45:24Z</time>
      </trkpt>
      <trkpt lat="51.714931977912784" lon="10.976246958598495">
        <ele>269.31</ele>
        <time>2024-09-12T12:45:25Z</time>
      </trkpt>
      <trkpt lat="51.714977994561195" lon="10.976219968870282">
        <ele>269.79000000000002</ele>
        <time>2024-09-12T12:45:26Z</time>
      </trkpt>
      <trkpt lat="51.715032979846001" lon="10.976122990250587">
        <ele>269.79000000000002</ele>
        <time>2024-09-12T12:45:27Z</time>
      </trkpt>
      <trkpt lat="51.715096011757851" lon="10.976013019680977">
        <ele>269.79000000000002</ele>
        <time>2024-09-12T12:45:28Z</time>
      </trkpt>
      <trkpt lat="51.71516097150743" lon="10.975900031626225">
        <ele>269.79000000000002</ele>
        <time>2024-09-12T12:45:29Z</time>
      </trkpt>
      <trkpt lat="51.715859016403556" lon="10.974628999829292">
        <ele>268.35000000000002</ele>
        <time>2024-09-12T12:45:40Z</time>
      </trkpt>
      <trkpt lat="51.715946020558476" lon="10.974399000406265">
        <ele>268.35000000000002</ele>
        <time>2024-09-12T12:45:42Z</time>
      </trkpt>
      <trkpt lat="51.716005029156804" lon="10.974264973774552">
        <ele>268.35000000000002</ele>
        <time>2024-09-12T12:45:43Z</time>
      </trkpt>
      <trkpt lat="51.716039981693029" lon="10.974250975996256">
        <ele>268.35000000000002</ele>
        <time>2024-09-12T12:45:44Z</time>
      </trkpt>
      <trkpt lat="51.716065965592861" lon="10.974239995703101">
        <ele>268.35000000000002</ele>
        <time>2024-09-12T12:45:45Z</time>
      </trkpt>
      <trkpt lat="51.716084992513061" lon="10.974233038723469">
        <ele>268.35000000000002</ele>
        <time>2024-09-12T12:45:46Z</time>
      </trkpt>
      <trkpt lat="51.716095972806215" lon="10.974228009581566">
        <ele>268.35000000000002</ele>
        <time>2024-09-12T12:45:47Z</time>
      </trkpt>
      <trkpt lat="51.716102007776499" lon="10.974225997924805">
        <ele>268.35000000000002</ele>
        <time>2024-09-12T12:45:48Z</time>
      </trkpt>
      <trkpt lat="51.716102007776499" lon="10.974225997924805">
        <ele>268.82999999999998</ele>
        <time>2024-09-12T12:46:02Z</time>
      </trkpt>
      <trkpt lat="51.716102007776499" lon="10.974225997924805">
        <ele>269.31</ele>
        <time>2024-09-12T12:46:31Z</time>
      </trkpt>
      <trkpt lat="51.716414988040924" lon="10.974084008485079">
        <ele>269.31</ele>
        <time>2024-09-12T12:46:40Z</time>
      </trkpt>
      <trkpt lat="51.716493023559451" lon="10.974033968523145">
        <ele>269.31</ele>
        <time>2024-09-12T12:46:41Z</time>
      </trkpt>
      <trkpt lat="51.716584973037243" lon="10.973975965753198">
        <ele>269.31</ele>
        <time>2024-09-12T12:46:42Z</time>
      </trkpt>
      <trkpt lat="51.716896025463939" lon="10.973754012957215">
        <ele>269.31</ele>
        <time>2024-09-12T12:46:45Z</time>
      </trkpt>
      <trkpt lat="51.717617958784103" lon="10.973112965002656">
        <ele>269.31</ele>
        <time>2024-09-12T12:46:51Z</time>
      </trkpt>
      <trkpt lat="51.717774029821157" lon="10.973095027729869">
        <ele>269.31</ele>
        <time>2024-09-12T12:46:52Z</time>
      </trkpt>
      <trkpt lat="51.717945020645857" lon="10.973074994981289">
        <ele>268.82999999999998</ele>
        <time>2024-09-12T12:46:53Z</time>
      </trkpt>
      <trkpt lat="51.718612974509597" lon="10.973031995818019">
        <ele>268.35000000000002</ele>
        <time>2024-09-12T12:46:57Z</time>
      </trkpt>
      <trkpt lat="51.718782959505916" lon="10.972998971119523">
        <ele>268.35000000000002</ele>
        <time>2024-09-12T12:46:58Z</time>
      </trkpt>
      <trkpt lat="51.718926038593054" lon="10.972913978621364">
        <ele>267.86000000000001</ele>
        <time>2024-09-12T12:46:59Z</time>
      </trkpt>
      <trkpt lat="51.719074985012412" lon="10.972824040800333">
        <ele>267.86000000000001</ele>
        <time>2024-09-12T12:47:00Z</time>
      </trkpt>
      <trkpt lat="51.719225021079183" lon="10.972698982805014">
        <ele>267.38</ele>
        <time>2024-09-12T12:47:01Z</time>
      </trkpt>
      <trkpt lat="51.719335997477174" lon="10.97256001085043">
        <ele>267.38</ele>
        <time>2024-09-12T12:47:02Z</time>
      </trkpt>
      <trkpt lat="51.719426019117236" lon="10.972350966185331">
        <ele>267.38</ele>
        <time>2024-09-12T12:47:03Z</time>
      </trkpt>
      <trkpt lat="51.719511011615396" lon="10.972146028652787">
        <ele>267.38</ele>
        <time>2024-09-12T12:47:04Z</time>
      </trkpt>
      <trkpt lat="51.719598015770316" lon="10.971891973167658">
        <ele>267.86000000000001</ele>
        <time>2024-09-12T12:47:05Z</time>
      </trkpt>
      <trkpt lat="51.720376024022698" lon="10.969804041087627">
        <ele>273.14999999999998</ele>
        <time>2024-09-12T12:47:13Z</time>
      </trkpt>
      <trkpt lat="51.720500998198986" lon="10.969504974782467">
        <ele>274.11000000000001</ele>
        <time>2024-09-12T12:47:14Z</time>
      </trkpt>
      <trkpt lat="51.721445973962545" lon="10.968088014051318">
        <ele>277.48000000000002</ele>
        <time>2024-09-12T12:47:21Z</time>
      </trkpt>
      <trkpt lat="51.722319032996893" lon="10.966926030814648">
        <ele>280.36000000000001</ele>
        <time>2024-09-12T12:47:27Z</time>
      </trkpt>
      <trkpt lat="51.722454987466335" lon="10.966767026111484">
        <ele>281.31999999999999</ele>
        <time>2024-09-12T12:47:28Z</time>
      </trkpt>
      <trkpt lat="51.722646011039615" lon="10.966543983668089">
        <ele>281.80000000000001</ele>
        <time>2024-09-12T12:47:29Z</time>
      </trkpt>
      <trkpt lat="51.722753969952464" lon="10.966490004211664">
        <ele>282.76999999999998</ele>
        <time>2024-09-12T12:47:30Z</time>
      </trkpt>
      <trkpt lat="51.722904006019235" lon="10.96641599200666">
        <ele>283.73000000000002</ele>
        <time>2024-09-12T12:47:31Z</time>
      </trkpt>
      <trkpt lat="51.723641026765108" lon="10.966270985081792">
        <ele>287.56999999999999</ele>
        <time>2024-09-12T12:47:35Z</time>
      </trkpt>
      <trkpt lat="51.723816962912679" lon="10.966304009780288">
        <ele>288.52999999999997</ele>
        <time>2024-09-12T12:47:36Z</time>
      </trkpt>
      <trkpt lat="51.723955012857914" lon="10.96632999368012">
        <ele>289.00999999999999</ele>
        <time>2024-09-12T12:47:37Z</time>
      </trkpt>
      <trkpt lat="51.724118962883949" lon="10.966452034190297">
        <ele>289.97000000000003</ele>
        <time>2024-09-12T12:47:38Z</time>
      </trkpt>
      <trkpt lat="51.724264975637197" lon="10.966562004759908">
        <ele>290.94</ele>
        <time>2024-09-12T12:47:39Z</time>
      </trkpt>
      <trkpt lat="51.724395984783769" lon="10.966659989207983">
        <ele>292.38</ele>
        <time>2024-09-12T12:47:40Z</time>
      </trkpt>
      <trkpt lat="51.724559012800455" lon="10.966692008078098">
        <ele>293.33999999999997</ele>
        <time>2024-09-12T12:47:41Z</time>
      </trkpt>
      <trkpt lat="51.724692033603787" lon="10.966656971722841">
        <ele>293.81999999999999</ele>
        <time>2024-09-12T12:47:42Z</time>
      </trkpt>
      <trkpt lat="51.724838968366385" lon="10.96667499281466">
        <ele>294.30000000000001</ele>
        <time>2024-09-12T12:47:43Z</time>
      </trkpt>
      <trkpt lat="51.72497802414" lon="10.966807007789612">
        <ele>294.77999999999997</ele>
        <time>2024-09-12T12:47:44Z</time>
      </trkpt>
      <trkpt lat="51.725124958902597" lon="10.966947991400957">
        <ele>295.25999999999999</ele>
        <time>2024-09-12T12:47:45Z</time>
      </trkpt>
      <trkpt lat="51.725264014676213" lon="10.967081012204289">
        <ele>296.22000000000003</ele>
        <time>2024-09-12T12:47:46Z</time>
      </trkpt>
      <trkpt lat="51.725367028266191" lon="10.967247979715466">
        <ele>298.14999999999998</ele>
        <time>2024-09-12T12:47:47Z</time>
      </trkpt>
      <trkpt lat="51.725496025756001" lon="10.967389969155192">
        <ele>299.58999999999997</ele>
        <time>2024-09-12T12:47:48Z</time>
      </trkpt>
      <trkpt lat="51.72564497217536" lon="10.967463981360197">
        <ele>301.02999999999997</ele>
        <time>2024-09-12T12:47:49Z</time>
      </trkpt>
      <trkpt lat="51.726647028699517" lon="10.968177029863">
        <ele>309.68000000000001</ele>
        <time>2024-09-12T12:47:55Z</time>
      </trkpt>
      <trkpt lat="51.726801004260778" lon="10.96822002902627">
        <ele>311.12</ele>
        <time>2024-09-12T12:47:56Z</time>
      </trkpt>
      <trkpt lat="51.726973000913858" lon="10.968225980177522">
        <ele>312.08999999999997</ele>
        <time>2024-09-12T12:47:57Z</time>
      </trkpt>
      <trkpt lat="51.727152038365602" lon="10.968232015147805">
        <ele>313.52999999999997</ele>
        <time>2024-09-12T12:47:58Z</time>
      </trkpt>
      <trkpt lat="51.727337026968598" lon="10.968238972127438">
        <ele>314.49000000000001</ele>
        <time>2024-09-12T12:47:59Z</time>
      </trkpt>
      <trkpt lat="51.72794396057725" lon="10.968261016532779">
        <ele>319.30000000000001</ele>
        <time>2024-09-12T12:48:03Z</time>
      </trkpt>
      <trkpt lat="51.727995006367564" lon="10.968212988227606">
        <ele>319.77999999999997</ele>
        <time>2024-09-12T12:48:04Z</time>
      </trkpt>
      <trkpt lat="51.728054014965892" lon="10.968153979629278">
        <ele>320.25999999999999</ele>
        <time>2024-09-12T12:48:05Z</time>
      </trkpt>
      <trkpt lat="51.728087039664388" lon="10.96800796687603">
        <ele>321.22000000000003</ele>
        <time>2024-09-12T12:48:06Z</time>
      </trkpt>
      <trkpt lat="51.728118974715471" lon="10.967866983264685">
        <ele>321.69999999999999</ele>
        <time>2024-09-12T12:48:07Z</time>
      </trkpt>
      <trkpt lat="51.728145964443684" lon="10.9677470382303">
        <ele>321.69999999999999</ele>
        <time>2024-09-12T12:48:08Z</time>
      </trkpt>
      <trkpt lat="51.728188041597605" lon="10.967674031853676">
        <ele>322.66000000000003</ele>
        <time>2024-09-12T12:48:09Z</time>
      </trkpt>
      <trkpt lat="51.728246966376901" lon="10.967657016590238">
        <ele>323.13999999999999</ele>
        <time>2024-09-12T12:48:10Z</time>
      </trkpt>
      <trkpt lat="51.728311004117131" lon="10.967638995498419">
        <ele>324.57999999999998</ele>
        <time>2024-09-12T12:48:11Z</time>
      </trkpt>
      <trkpt lat="51.728389961645007" lon="10.967803029343486">
        <ele>325.54000000000002</ele>
        <time>2024-09-12T12:48:12Z</time>
      </trkpt>
      <trkpt lat="51.728490963578224" lon="10.968011990189552">
        <ele>326.01999999999998</ele>
        <time>2024-09-12T12:48:13Z</time>
      </trkpt>
      <trkpt lat="51.729067973792553" lon="10.969278998672962">
        <ele>329.38999999999999</ele>
        <time>2024-09-12T12:48:18Z</time>
      </trkpt>
      <trkpt lat="51.729424959048629" lon="10.97006999887526">
        <ele>331.79000000000002</ele>
        <time>2024-09-12T12:48:21Z</time>
      </trkpt>
      <trkpt lat="51.729566026479006" lon="10.970317013561726">
        <ele>332.75</ele>
        <time>2024-09-12T12:48:22Z</time>
      </trkpt>
      <trkpt lat="51.730268010869622" lon="10.971591984853148">
        <ele>340.44</ele>
        <time>2024-09-12T12:48:27Z</time>
      </trkpt>
      <trkpt lat="51.730379993095994" lon="10.971833970397711">
        <ele>341.88999999999999</ele>
        <time>2024-09-12T12:48:28Z</time>
      </trkpt>
      <trkpt lat="51.73058602027595" lon="10.972380973398685">
        <ele>346.20999999999998</ele>
        <time>2024-09-12T12:48:31Z</time>
      </trkpt>
      <trkpt lat="51.73056498169899" lon="10.972563028335571">
        <ele>347.64999999999998</ele>
        <time>2024-09-12T12:48:32Z</time>
      </trkpt>
      <trkpt lat="51.730541009455919" lon="10.972765032202005">
        <ele>348.62</ele>
        <time>2024-09-12T12:48:33Z</time>
      </trkpt>
      <trkpt lat="51.730507984757423" lon="10.972962006926537">
        <ele>349.57999999999998</ele>
        <time>2024-09-12T12:48:34Z</time>
      </trkpt>
      <trkpt lat="51.730387033894658" lon="10.973180020228028">
        <ele>350.54000000000002</ele>
        <time>2024-09-12T12:48:35Z</time>
      </trkpt>
      <trkpt lat="51.730257030576468" lon="10.973414964973927">
        <ele>351.01999999999998</ele>
        <time>2024-09-12T12:48:36Z</time>
      </trkpt>
      <trkpt lat="51.730138007551432" lon="10.973628032952547">
        <ele>351.5</ele>
        <time>2024-09-12T12:48:37Z</time>
      </trkpt>
      <trkpt lat="51.730061983689666" lon="10.973900025710464">
        <ele>352.45999999999998</ele>
        <time>2024-09-12T12:48:38Z</time>
      </trkpt>
      <trkpt lat="51.730017978698015" lon="10.974173024296761">
        <ele>353.42000000000002</ele>
        <time>2024-09-12T12:48:39Z</time>
      </trkpt>
      <trkpt lat="51.729994006454945" lon="10.974463960155845">
        <ele>354.86000000000001</ele>
        <time>2024-09-12T12:48:40Z</time>
      </trkpt>
      <trkpt lat="51.729998029768467" lon="10.974761014804244">
        <ele>356.31</ele>
        <time>2024-09-12T12:48:41Z</time>
      </trkpt>
      <trkpt lat="51.730056032538414" lon="10.975040970370173">
        <ele>357.75</ele>
        <time>2024-09-12T12:48:42Z</time>
      </trkpt>
      <trkpt lat="51.730128033086658" lon="10.975317992269993">
        <ele>359.67000000000002</ele>
        <time>2024-09-12T12:48:43Z</time>
      </trkpt>
      <trkpt lat="51.730201961472631" lon="10.975605994462967">
        <ele>361.11000000000001</ele>
        <time>2024-09-12T12:48:44Z</time>
      </trkpt>
      <trkpt lat="51.730520976707339" lon="10.977015998214483">
        <ele>367.83999999999997</ele>
        <time>2024-09-12T12:48:49Z</time>
      </trkpt>
      <trkpt lat="51.73065198585391" lon="10.977167962118983">
        <ele>369.27999999999997</ele>
        <time>2024-09-12T12:48:50Z</time>
      </trkpt>
      <trkpt lat="51.730777965858579" lon="10.977315986528993">
        <ele>370.73000000000002</ele>
        <time>2024-09-12T12:48:51Z</time>
      </trkpt>
      <trkpt lat="51.731565026566386" lon="10.978045966476202">
        <ele>377.44999999999999</ele>
        <time>2024-09-12T12:48:56Z</time>
      </trkpt>
      <trkpt lat="51.73168103210628" lon="10.978271020576358">
        <ele>378.42000000000002</ele>
        <time>2024-09-12T12:48:57Z</time>
      </trkpt>
      <trkpt lat="51.731774993240833" lon="10.97849196754396">
        <ele>379.86000000000001</ele>
        <time>2024-09-12T12:48:58Z</time>
      </trkpt>
      <trkpt lat="51.732009015977383" lon="10.978950038552284">
        <ele>382.74000000000001</ele>
        <time>2024-09-12T12:49:00Z</time>
      </trkpt>
      <trkpt lat="51.73215301707387" lon="10.979170985519886">
        <ele>384.18000000000001</ele>
        <time>2024-09-12T12:49:01Z</time>
      </trkpt>
      <trkpt lat="51.732450993731618" lon="10.979626961052418">
        <ele>387.55000000000001</ele>
        <time>2024-09-12T12:49:03Z</time>
      </trkpt>
      <trkpt lat="51.732599018141627" lon="10.979882022365928">
        <ele>388.99000000000001</ele>
        <time>2024-09-12T12:49:04Z</time>
      </trkpt>
      <trkpt lat="51.7326919734478" lon="10.980178993195295">
        <ele>390.43000000000001</ele>
        <time>2024-09-12T12:49:05Z</time>
      </trkpt>
      <trkpt lat="51.732788030058146" lon="10.980483004823327">
        <ele>391.87</ele>
        <time>2024-09-12T12:49:06Z</time>
      </trkpt>
      <trkpt lat="51.73288400284946" lon="10.980788022279739">
        <ele>393.31999999999999</ele>
        <time>2024-09-12T12:49:07Z</time>
      </trkpt>
      <trkpt lat="51.733285998925567" lon="10.982171958312392">
        <ele>399.56999999999999</ele>
        <time>2024-09-12T12:49:12Z</time>
      </trkpt>
      <trkpt lat="51.733348025009036" lon="10.982430959120393">
        <ele>400.52999999999997</ele>
        <time>2024-09-12T12:49:13Z</time>
      </trkpt>
      <trkpt lat="51.733456989750266" lon="10.982886012643576">
        <ele>402.93000000000001</ele>
        <time>2024-09-12T12:49:15Z</time>
      </trkpt>
      <trkpt lat="51.733505018055439" lon="10.983087010681629">
        <ele>403.88999999999999</ele>
        <time>2024-09-12T12:49:16Z</time>
      </trkpt>
      <trkpt lat="51.733574001118541" lon="10.983254984021187">
        <ele>404.85000000000002</ele>
        <time>2024-09-12T12:49:17Z</time>
      </trkpt>
      <trkpt lat="51.73365798778832" lon="10.983394961804152">
        <ele>405.81</ele>
        <time>2024-09-12T12:49:18Z</time>
      </trkpt>
      <trkpt lat="51.733735017478466" lon="10.983523037284613">
        <ele>406.76999999999998</ele>
        <time>2024-09-12T12:49:19Z</time>
      </trkpt>
      <trkpt lat="51.734047997742891" lon="10.984055958688259">
        <ele>411.10000000000002</ele>
        <time>2024-09-12T12:49:25Z</time>
      </trkpt>
      <trkpt lat="51.734505984932184" lon="10.984578989446163">
        <ele>412.06</ele>
        <time>2024-09-12T12:49:30Z</time>
      </trkpt>
      <trkpt lat="51.734627019613981" lon="10.984685020521283">
        <ele>412.06</ele>
        <time>2024-09-12T12:49:31Z</time>
      </trkpt>
      <trkpt lat="51.734756017103791" lon="10.984723996371031">
        <ele>411.57999999999998</ele>
        <time>2024-09-12T12:49:32Z</time>
      </trkpt>
      <trkpt lat="51.73490303568542" lon="10.984758026897907">
        <ele>411.10000000000002</ele>
        <time>2024-09-12T12:49:33Z</time>
      </trkpt>
      <trkpt lat="51.735038990154862" lon="10.98472198471427">
        <ele>410.62</ele>
        <time>2024-09-12T12:49:34Z</time>
      </trkpt>
      <trkpt lat="51.735199000686407" lon="10.984669011086226">
        <ele>410.13999999999999</ele>
        <time>2024-09-12T12:49:35Z</time>
      </trkpt>
      <trkpt lat="51.735344007611275" lon="10.984584018588066">
        <ele>409.18000000000001</ele>
        <time>2024-09-12T12:49:36Z</time>
      </trkpt>
      <trkpt lat="51.735496977344155" lon="10.984477987512946">
        <ele>408.22000000000003</ele>
        <time>2024-09-12T12:49:37Z</time>
      </trkpt>
      <trkpt lat="51.735621029511094" lon="10.984320994466543">
        <ele>407.25999999999999</ele>
        <time>2024-09-12T12:49:38Z</time>
      </trkpt>
      <trkpt lat="51.73587198369205" lon="10.983966020867229">
        <ele>405.81</ele>
        <time>2024-09-12T12:49:40Z</time>
      </trkpt>
      <trkpt lat="51.735993018373847" lon="10.98379603587091">
        <ele>404.85000000000002</ele>
        <time>2024-09-12T12:49:41Z</time>
      </trkpt>
      <trkpt lat="51.736079016700387" lon="10.983581962063909">
        <ele>404.37</ele>
        <time>2024-09-12T12:49:42Z</time>
      </trkpt>
      <trkpt lat="51.736097037792206" lon="10.983424969017506">
        <ele>403.88999999999999</ele>
        <time>2024-09-12T12:49:43Z</time>
      </trkpt>
      <trkpt lat="51.736125033348799" lon="10.983181977644563">
        <ele>403.41000000000003</ele>
        <time>2024-09-12T12:49:44Z</time>
      </trkpt>
      <trkpt lat="51.736165015026927" lon="10.982965975999832">
        <ele>402.93000000000001</ele>
        <time>2024-09-12T12:49:45Z</time>
      </trkpt>
      <trkpt lat="51.736254030838609" lon="10.982817029580474">
        <ele>402.44999999999999</ele>
        <time>2024-09-12T12:49:46Z</time>
      </trkpt>
      <trkpt lat="51.736372970044613" lon="10.982728013768792">
        <ele>401.97000000000003</ele>
        <time>2024-09-12T12:49:47Z</time>
      </trkpt>
      <trkpt lat="51.736502973362803" lon="10.982631035149097">
        <ele>401.00999999999999</ele>
        <time>2024-09-12T12:49:48Z</time>
      </trkpt>
      <trkpt lat="51.736629959195852" lon="10.982534978538752">
        <ele>400.05000000000001</ele>
        <time>2024-09-12T12:49:49Z</time>
      </trkpt>
      <trkpt lat="51.736722998321056" lon="10.98246599547565">
        <ele>399.07999999999998</ele>
        <time>2024-09-12T12:49:50Z</time>
      </trkpt>
      <trkpt lat="51.736788041889668" lon="10.982299027964473">
        <ele>398.12</ele>
        <time>2024-09-12T12:49:51Z</time>
      </trkpt>
      <trkpt lat="51.73685803078115" lon="10.982118984684348">
        <ele>397.16000000000003</ele>
        <time>2024-09-12T12:49:52Z</time>
      </trkpt>
      <trkpt lat="51.736941011622548" lon="10.98190700635314">
        <ele>396.19999999999999</ele>
        <time>2024-09-12T12:49:53Z</time>
      </trkpt>
      <trkpt lat="51.73703396692872" lon="10.981668038293719">
        <ele>395.24000000000001</ele>
        <time>2024-09-12T12:49:54Z</time>
      </trkpt>
      <trkpt lat="51.737147960811853" lon="10.981437033042312">
        <ele>394.75999999999999</ele>
        <time>2024-09-12T12:49:55Z</time>
      </trkpt>
      <trkpt lat="51.737273018807173" lon="10.981210973113775">
        <ele>394.27999999999997</ele>
        <time>2024-09-12T12:49:56Z</time>
      </trkpt>
      <trkpt lat="51.737388018518686" lon="10.981003018096089">
        <ele>393.31999999999999</ele>
        <time>2024-09-12T12:49:57Z</time>
      </trkpt>
      <trkpt lat="51.737645007669926" lon="10.980714010074735">
        <ele>392.36000000000001</ele>
        <time>2024-09-12T12:49:59Z</time>
      </trkpt>
      <trkpt lat="51.737807029858232" lon="10.980607978999615">
        <ele>391.38999999999999</ele>
        <time>2024-09-12T12:50:00Z</time>
      </trkpt>
      <trkpt lat="51.737981038168073" lon="10.980492979288101">
        <ele>390.43000000000001</ele>
        <time>2024-09-12T12:50:01Z</time>
      </trkpt>
      <trkpt lat="51.738298963755369" lon="10.980284018442035">
        <ele>389.47000000000003</ele>
        <time>2024-09-12T12:50:03Z</time>
      </trkpt>
      <trkpt lat="51.738403989002109" lon="10.98018703982234">
        <ele>388.99000000000001</ele>
        <time>2024-09-12T12:50:04Z</time>
      </trkpt>
      <trkpt lat="51.738482024520636" lon="10.980062987655401">
        <ele>388.50999999999999</ele>
        <time>2024-09-12T12:50:05Z</time>
      </trkpt>
      <trkpt lat="51.738542038947344" lon="10.979837011545897">
        <ele>388.50999999999999</ele>
        <time>2024-09-12T12:50:06Z</time>
      </trkpt>
      <trkpt lat="51.73857900314033" lon="10.979594020172954">
        <ele>388.50999999999999</ele>
        <time>2024-09-12T12:50:07Z</time>
      </trkpt>
      <trkpt lat="51.73860196955502" lon="10.979299983009696">
        <ele>388.50999999999999</ele>
        <time>2024-09-12T12:50:08Z</time>
      </trkpt>
      <trkpt lat="51.738608004525304" lon="10.978990020230412">
        <ele>388.50999999999999</ele>
        <time>2024-09-12T12:50:09Z</time>
      </trkpt>
      <trkpt lat="51.738584032282233" lon="10.977756958454847">
        <ele>387.06999999999999</ele>
        <time>2024-09-12T12:50:13Z</time>
      </trkpt>
      <trkpt lat="51.73855503089726" lon="10.977485971525311">
        <ele>386.11000000000001</ele>
        <time>2024-09-12T12:50:14Z</time>
      </trkpt>
      <trkpt lat="51.738503985106945" lon="10.977253960445523">
        <ele>385.63</ele>
        <time>2024-09-12T12:50:15Z</time>
      </trkpt>
      <trkpt lat="51.73838596791029" lon="10.976841989904642">
        <ele>384.18000000000001</ele>
        <time>2024-09-12T12:50:17Z</time>
      </trkpt>
      <trkpt lat="51.738337017595768" lon="10.976630011573434">
        <ele>383.22000000000003</ele>
        <time>2024-09-12T12:50:18Z</time>
      </trkpt>
      <trkpt lat="51.738380016759038" lon="10.976465977728367">
        <ele>382.74000000000001</ele>
        <time>2024-09-12T12:50:19Z</time>
      </trkpt>
      <trkpt lat="51.73842896707356" lon="10.97627998329699">
        <ele>381.77999999999997</ele>
        <time>2024-09-12T12:50:20Z</time>
      </trkpt>
      <trkpt lat="51.738464003428817" lon="10.976098012179136">
        <ele>380.81999999999999</ele>
        <time>2024-09-12T12:50:21Z</time>
      </trkpt>
      <trkpt lat="51.73847297206521" lon="10.975914029404521">
        <ele>379.86000000000001</ele>
        <time>2024-09-12T12:50:22Z</time>
      </trkpt>
      <trkpt lat="51.738481018692255" lon="10.975748989731073">
        <ele>378.89999999999998</ele>
        <time>2024-09-12T12:50:23Z</time>
      </trkpt>
      <trkpt lat="51.738542960956693" lon="10.975646981969476">
        <ele>377.94</ele>
        <time>2024-09-12T12:50:24Z</time>
      </trkpt>
      <trkpt lat="51.738596018403769" lon="10.975575987249613">
        <ele>377.44999999999999</ele>
        <time>2024-09-12T12:50:25Z</time>
      </trkpt>
      <trkpt lat="51.738670030608773" lon="10.975585961714387">
        <ele>376.97000000000003</ele>
        <time>2024-09-12T12:50:26Z</time>
      </trkpt>
      <trkpt lat="51.738752005621791" lon="10.975645976141095">
        <ele>376.00999999999999</ele>
        <time>2024-09-12T12:50:27Z</time>
      </trkpt>
      <trkpt lat="51.738803973421454" lon="10.975749995559454">
        <ele>375.05000000000001</ele>
        <time>2024-09-12T12:50:28Z</time>
      </trkpt>
      <trkpt lat="51.7389000300318" lon="10.976010002195835">
        <ele>374.08999999999997</ele>
        <time>2024-09-12T12:50:29Z</time>
      </trkpt>
      <trkpt lat="51.739255003631115" lon="10.977041982114315">
        <ele>368.80000000000001</ele>
        <time>2024-09-12T12:50:33Z</time>
      </trkpt>
      <trkpt lat="51.739338990300894" lon="10.977341970428824">
        <ele>367.36000000000001</ele>
        <time>2024-09-12T12:50:34Z</time>
      </trkpt>
      <trkpt lat="51.739751966670156" lon="10.979238040745258">
        <ele>357.26999999999998</ele>
        <time>2024-09-12T12:50:40Z</time>
      </trkpt>
      <trkpt lat="51.739934021607041" lon="10.979829970747232">
        <ele>353.89999999999998</ele>
        <time>2024-09-12T12:50:42Z</time>
      </trkpt>
      <trkpt lat="51.740052960813046" lon="10.980114033445716">
        <ele>352.45999999999998</ele>
        <time>2024-09-12T12:50:43Z</time>
      </trkpt>
      <trkpt lat="51.740181036293507" lon="10.980370016768575">
        <ele>350.54000000000002</ele>
        <time>2024-09-12T12:50:44Z</time>
      </trkpt>
      <trkpt lat="51.740527963265777" lon="10.981064960360527">
        <ele>345.73000000000002</ele>
        <time>2024-09-12T12:50:47Z</time>
      </trkpt>
      <trkpt lat="51.740628965198994" lon="10.981266964226961">
        <ele>344.29000000000002</ele>
        <time>2024-09-12T12:50:48Z</time>
      </trkpt>
      <trkpt lat="51.740728039294481" lon="10.981465028598905">
        <ele>342.85000000000002</ele>
        <time>2024-09-12T12:50:49Z</time>
      </trkpt>
      <trkpt lat="51.740828035399318" lon="10.981665020808578">
        <ele>341.41000000000003</ele>
        <time>2024-09-12T12:50:50Z</time>
      </trkpt>
      <trkpt lat="51.740958038717508" lon="10.981835005804896">
        <ele>339.95999999999998</ele>
        <time>2024-09-12T12:50:51Z</time>
      </trkpt>
      <trkpt lat="51.741111008450389" lon="10.981955034658313">
        <ele>338.51999999999998</ele>
        <time>2024-09-12T12:50:52Z</time>
      </trkpt>
      <trkpt lat="51.741274958476424" lon="10.982081014662981">
        <ele>337.07999999999998</ele>
        <time>2024-09-12T12:50:53Z</time>
      </trkpt>
      <trkpt lat="51.741460030898452" lon="10.982155026867986">
        <ele>335.63999999999999</ele>
        <time>2024-09-12T12:50:54Z</time>
      </trkpt>
      <trkpt lat="51.741654993966222" lon="10.982197020202875">
        <ele>334.19999999999999</ele>
        <time>2024-09-12T12:50:55Z</time>
      </trkpt>
      <trkpt lat="51.743157031014562" lon="10.982414027675986">
        <ele>326.5</ele>
        <time>2024-09-12T12:51:02Z</time>
      </trkpt>
      <trkpt lat="51.744041992351413" lon="10.982369016855955">
        <ele>321.22000000000003</ele>
        <time>2024-09-12T12:51:06Z</time>
      </trkpt>
      <trkpt lat="51.744242990389466" lon="10.98229500465095">
        <ele>319.77999999999997</ele>
        <time>2024-09-12T12:51:07Z</time>
      </trkpt>
      <trkpt lat="51.745536988601089" lon="10.982585018500686">
        <ele>310.16000000000003</ele>
        <time>2024-09-12T12:51:15Z</time>
      </trkpt>
      <trkpt lat="51.74560597166419" lon="10.98263799212873">
        <ele>309.68000000000001</ele>
        <time>2024-09-12T12:51:16Z</time>
      </trkpt>
      <trkpt lat="51.745761036872864" lon="10.982819963246584">
        <ele>309.19999999999999</ele>
        <time>2024-09-12T12:51:17Z</time>
      </trkpt>
      <trkpt lat="51.745921969413757" lon="10.983008975163102">
        <ele>308.72000000000003</ele>
        <time>2024-09-12T12:51:18Z</time>
      </trkpt>
      <trkpt lat="51.745971003547311" lon="10.983066977933049">
        <ele>308.24000000000001</ele>
        <time>2024-09-12T12:51:19Z</time>
      </trkpt>
      <trkpt lat="51.74611802212894" lon="10.983361015096307">
        <ele>308.24000000000001</ele>
        <time>2024-09-12T12:51:20Z</time>
      </trkpt>
      <trkpt lat="51.74745099619031" lon="10.985706020146608">
        <ele>307.27999999999997</ele>
        <time>2024-09-12T12:51:29Z</time>
      </trkpt>
      <trkpt lat="51.748484987765551" lon="10.985939037054777">
        <ele>303.91000000000003</ele>
        <time>2024-09-12T12:51:34Z</time>
      </trkpt>
      <trkpt lat="51.748658996075392" lon="10.985922021791339">
        <ele>302.94999999999999</ele>
        <time>2024-09-12T12:51:35Z</time>
      </trkpt>
      <trkpt lat="51.75054500810802" lon="10.986116984859109">
        <ele>297.67000000000002</ele>
        <time>2024-09-12T12:51:44Z</time>
      </trkpt>
      <trkpt lat="51.752318032085896" lon="10.987177966162562">
        <ele>293.33999999999997</ele>
        <time>2024-09-12T12:51:52Z</time>
      </trkpt>
      <trkpt lat="51.753235012292862" lon="10.987778026610613">
        <ele>289.00999999999999</ele>
        <time>2024-09-12T12:51:57Z</time>
      </trkpt>
      <trkpt lat="51.753352023661137" lon="10.987829994410276">
        <ele>288.05000000000001</ele>
        <time>2024-09-12T12:51:58Z</time>
      </trkpt>
      <trkpt lat="51.75348898395896" lon="10.987829994410276">
        <ele>286.61000000000001</ele>
        <time>2024-09-12T12:51:59Z</time>
      </trkpt>
      <trkpt lat="51.754926983267069" lon="10.987113006412983">
        <ele>277</ele>
        <time>2024-09-12T12:52:07Z</time>
      </trkpt>
      <trkpt lat="51.755224959924817" lon="10.986972022801638">
        <ele>273.14999999999998</ele>
        <time>2024-09-12T12:52:09Z</time>
      </trkpt>
      <trkpt lat="51.755333002656698" lon="10.986972022801638">
        <ele>271.23000000000002</ele>
        <time>2024-09-12T12:52:10Z</time>
      </trkpt>
      <trkpt lat="51.755584040656686" lon="10.986972022801638">
        <ele>269.79000000000002</ele>
        <time>2024-09-12T12:52:11Z</time>
      </trkpt>
      <trkpt lat="51.755633996799588" lon="10.987017033621669">
        <ele>268.82999999999998</ele>
        <time>2024-09-12T12:52:12Z</time>
      </trkpt>
      <trkpt lat="51.755819991230965" lon="10.987187018617988">
        <ele>267.86000000000001</ele>
        <time>2024-09-12T12:52:13Z</time>
      </trkpt>
      <trkpt lat="51.755911018699408" lon="10.987345017492771">
        <ele>266.89999999999998</ele>
        <time>2024-09-12T12:52:14Z</time>
      </trkpt>
      <trkpt lat="51.756011014804244" lon="10.987517014145851">
        <ele>266.42000000000002</ele>
        <time>2024-09-12T12:52:15Z</time>
      </trkpt>
      <trkpt lat="51.756142023950815" lon="10.987743996083736">
        <ele>265.45999999999998</ele>
        <time>2024-09-12T12:52:16Z</time>
      </trkpt>
      <trkpt lat="51.756154010072351" lon="10.987753970548511">
        <ele>264.98000000000002</ele>
        <time>2024-09-12T12:52:17Z</time>
      </trkpt>
      <trkpt lat="51.756271021440625" lon="10.987852038815618">
        <ele>264.01999999999998</ele>
        <time>2024-09-12T12:52:18Z</time>
      </trkpt>
      <trkpt lat="51.756485011428595" lon="10.987852038815618">
        <ele>263.54000000000002</ele>
        <time>2024-09-12T12:52:19Z</time>
      </trkpt>
      <trkpt lat="51.756485011428595" lon="10.987852038815618">
        <ele>263.06</ele>
        <time>2024-09-12T12:52:20Z</time>
      </trkpt>
      <trkpt lat="51.756660025566816" lon="10.987714994698763">
        <ele>262.57999999999998</ele>
        <time>2024-09-12T12:52:21Z</time>
      </trkpt>
      <trkpt lat="51.756739988923073" lon="10.987505028024316">
        <ele>262.57999999999998</ele>
        <time>2024-09-12T12:52:22Z</time>
      </trkpt>
      <trkpt lat="51.756826993077993" lon="10.987285003066063">
        <ele>262.10000000000002</ele>
        <time>2024-09-12T12:52:23Z</time>
      </trkpt>
      <trkpt lat="51.757090017199516" lon="10.986620988696814">
        <ele>261.13999999999999</ele>
        <time>2024-09-12T12:52:26Z</time>
      </trkpt>
      <trkpt lat="51.757188001647592" lon="10.986313037574291">
        <ele>261.13999999999999</ele>
        <time>2024-09-12T12:52:27Z</time>
      </trkpt>
      <trkpt lat="51.757482038810849" lon="10.98407699726522">
        <ele>261.62</ele>
        <time>2024-09-12T12:52:35Z</time>
      </trkpt>
      <trkpt lat="51.758010014891624" lon="10.981818996369839">
        <ele>260.17000000000002</ele>
        <time>2024-09-12T12:52:44Z</time>
      </trkpt>
      <trkpt lat="51.758316038176417" lon="10.979320015758276">
        <ele>262.10000000000002</ele>
        <time>2024-09-12T12:52:53Z</time>
      </trkpt>
      <trkpt lat="51.758350990712643" lon="10.978711992502213">
        <ele>261.62</ele>
        <time>2024-09-12T12:52:55Z</time>
      </trkpt>
      <trkpt lat="51.75834403373301" lon="10.978408986702561">
        <ele>261.62</ele>
        <time>2024-09-12T12:52:56Z</time>
      </trkpt>
      <trkpt lat="51.758337998762727" lon="10.978107992559671">
        <ele>261.13999999999999</ele>
        <time>2024-09-12T12:52:57Z</time>
      </trkpt>
      <trkpt lat="51.758244959637523" lon="10.976946009323001">
        <ele>261.62</ele>
        <time>2024-09-12T12:53:01Z</time>
      </trkpt>
      <trkpt lat="51.758244959637523" lon="10.976629005745053">
        <ele>262.10000000000002</ele>
        <time>2024-09-12T12:53:02Z</time>
      </trkpt>
      <trkpt lat="51.758291982114315" lon="10.976405963301659">
        <ele>263.06</ele>
        <time>2024-09-12T12:53:03Z</time>
      </trkpt>
      <trkpt lat="51.758356019854546" lon="10.976141011342406">
        <ele>263.54000000000002</ele>
        <time>2024-09-12T12:53:04Z</time>
      </trkpt>
      <trkpt lat="51.758436989039183" lon="10.97589198499918">
        <ele>264.01999999999998</ele>
        <time>2024-09-12T12:53:05Z</time>
      </trkpt>
      <trkpt lat="51.75851795822382" lon="10.975641030818224">
        <ele>264.5</ele>
        <time>2024-09-12T12:53:06Z</time>
      </trkpt>
      <trkpt lat="51.759469974786043" lon="10.974101023748517">
        <ele>266.42000000000002</ele>
        <time>2024-09-12T12:53:13Z</time>
      </trkpt>
      <trkpt lat="51.759616993367672" lon="10.973910000175238">
        <ele>266.42000000000002</ele>
        <time>2024-09-12T12:53:14Z</time>
      </trkpt>
      <trkpt lat="51.75976200029254" lon="10.973775973543525">
        <ele>265.94</ele>
        <time>2024-09-12T12:53:15Z</time>
      </trkpt>
      <trkpt lat="51.759926034137607" lon="10.973650999367237">
        <ele>265.45999999999998</ele>
        <time>2024-09-12T12:53:16Z</time>
      </trkpt>
      <trkpt lat="51.760093001648784" lon="10.973543962463737">
        <ele>264.98000000000002</ele>
        <time>2024-09-12T12:53:17Z</time>
      </trkpt>
      <trkpt lat="51.760542020201683" lon="10.973203992471099">
        <ele>263.06</ele>
        <time>2024-09-12T12:53:20Z</time>
      </trkpt>
      <trkpt lat="51.760657019913197" lon="10.973041970282793">
        <ele>262.10000000000002</ele>
        <time>2024-09-12T12:53:21Z</time>
      </trkpt>
      <trkpt lat="51.760753998532891" lon="10.972828986123204">
        <ele>261.62</ele>
        <time>2024-09-12T12:53:22Z</time>
      </trkpt>
      <trkpt lat="51.761293038725853" lon="10.971622997894883">
        <ele>257.29000000000002</ele>
        <time>2024-09-12T12:53:28Z</time>
      </trkpt>
      <trkpt lat="51.761383982375264" lon="10.971472961828113">
        <ele>256.32999999999998</ele>
        <time>2024-09-12T12:53:29Z</time>
      </trkpt>
      <trkpt lat="51.761484984308481" lon="10.971308005973697">
        <ele>255.37</ele>
        <time>2024-09-12T12:53:30Z</time>
      </trkpt>
      <trkpt lat="51.761562013998628" lon="10.971261989325285">
        <ele>254.41</ele>
        <time>2024-09-12T12:53:31Z</time>
      </trkpt>
      <trkpt lat="51.761633008718491" lon="10.971221001818776">
        <ele>253.44</ele>
        <time>2024-09-12T12:53:32Z</time>
      </trkpt>
      <trkpt lat="51.761691011488438" lon="10.9711869712919">
        <ele>252.96000000000001</ele>
        <time>2024-09-12T12:53:33Z</time>
      </trkpt>
      <trkpt lat="51.761852027848363" lon="10.971093010157347">
        <ele>249.12</ele>
        <time>2024-09-12T12:53:40Z</time>
      </trkpt>
      <trkpt lat="51.761852027848363" lon="10.971093010157347">
        <ele>249.12</ele>
        <time>2024-09-12T12:54:11Z</time>
      </trkpt>
      <trkpt lat="51.761852027848363" lon="10.971093010157347">
        <ele>247.68000000000001</ele>
        <time>2024-09-12T12:55:03Z</time>
      </trkpt>
      <trkpt lat="51.761866025626659" lon="10.971093010157347">
        <ele>247.68000000000001</ele>
        <time>2024-09-12T12:55:28Z</time>
      </trkpt>
      <trkpt lat="51.761903995648026" lon="10.971090998500586">
        <ele>247.68000000000001</ele>
        <time>2024-09-12T12:55:29Z</time>
      </trkpt>
      <trkpt lat="51.761971972882748" lon="10.971087981015444">
        <ele>247.19999999999999</ele>
        <time>2024-09-12T12:55:30Z</time>
      </trkpt>
      <trkpt lat="51.762050008401275" lon="10.971084963530302">
        <ele>246.72</ele>
        <time>2024-09-12T12:55:31Z</time>
      </trkpt>
      <trkpt lat="51.762137012556195" lon="10.971081024035811">
        <ele>246.22999999999999</ele>
        <time>2024-09-12T12:55:32Z</time>
      </trkpt>
      <trkpt lat="51.762957014143467" lon="10.970896035432816">
        <ele>243.83000000000001</ele>
        <time>2024-09-12T12:55:40Z</time>
      </trkpt>
      <trkpt lat="51.763805011287332" lon="10.970480963587761">
        <ele>238.53999999999999</ele>
        <time>2024-09-12T12:55:49Z</time>
      </trkpt>
      <trkpt lat="51.764585031196475" lon="10.97021802328527">
        <ele>234.22</ele>
        <time>2024-09-12T12:55:57Z</time>
      </trkpt>
      <trkpt lat="51.764715034514666" lon="10.970252975821495">
        <ele>233.74000000000001</ele>
        <time>2024-09-12T12:55:58Z</time>
      </trkpt>
      <trkpt lat="51.764820981770754" lon="10.970328999683261">
        <ele>233.25999999999999</ele>
        <time>2024-09-12T12:55:59Z</time>
      </trkpt>
      <trkpt lat="51.764921983703971" lon="10.970404017716646">
        <ele>233.25999999999999</ele>
        <time>2024-09-12T12:56:00Z</time>
      </trkpt>
      <trkpt lat="51.765023991465569" lon="10.970480041578412">
        <ele>233.25999999999999</ele>
        <time>2024-09-12T12:56:01Z</time>
      </trkpt>
      <trkpt lat="51.765322973951697" lon="10.970701994374394">
        <ele>232.78</ele>
        <time>2024-09-12T12:56:04Z</time>
      </trkpt>
      <trkpt lat="51.765409978106618" lon="10.970823029056191">
        <ele>234.22</ele>
        <time>2024-09-12T12:56:05Z</time>
      </trkpt>
      <trkpt lat="51.765450965613127" lon="10.970969963818789">
        <ele>234.69999999999999</ele>
        <time>2024-09-12T12:56:06Z</time>
      </trkpt>
      <trkpt lat="51.765493964776397" lon="10.971127040684223">
        <ele>235.18000000000001</ele>
        <time>2024-09-12T12:56:07Z</time>
      </trkpt>
      <trkpt lat="51.765537969768047" lon="10.971285961568356">
        <ele>235.66</ele>
        <time>2024-09-12T12:56:08Z</time>
      </trkpt>
      <trkpt lat="51.765910964459181" lon="10.97279797308147">
        <ele>237.09999999999999</ele>
        <time>2024-09-12T12:56:17Z</time>
      </trkpt>
      <trkpt lat="51.765948012471199" lon="10.972953960299492">
        <ele>237.09999999999999</ele>
        <time>2024-09-12T12:56:18Z</time>
      </trkpt>
      <trkpt lat="51.765981959179044" lon="10.973100978881121">
        <ele>237.09999999999999</ele>
        <time>2024-09-12T12:56:19Z</time>
      </trkpt>
      <trkpt lat="51.76601598970592" lon="10.973245985805988">
        <ele>237.09999999999999</ele>
        <time>2024-09-12T12:56:20Z</time>
      </trkpt>
      <trkpt lat="51.766113974153996" lon="10.973515966907144">
        <ele>237.58000000000001</ele>
        <time>2024-09-12T12:56:22Z</time>
      </trkpt>
      <trkpt lat="51.766191003844142" lon="10.973618980497122">
        <ele>237.09999999999999</ele>
        <time>2024-09-12T12:56:23Z</time>
      </trkpt>
      <trkpt lat="51.766284964978695" lon="10.973669020459056">
        <ele>236.62</ele>
        <time>2024-09-12T12:56:24Z</time>
      </trkpt>
      <trkpt lat="51.766468025743961" lon="10.973767004907131">
        <ele>235.66</ele>
        <time>2024-09-12T12:56:26Z</time>
      </trkpt>
      <trkpt lat="51.766666006296873" lon="10.973873035982251">
        <ele>234.22</ele>
        <time>2024-09-12T12:56:28Z</time>
      </trkpt>
      <trkpt lat="51.76676600240171" lon="10.973926009610295">
        <ele>233.25999999999999</ele>
        <time>2024-09-12T12:56:29Z</time>
      </trkpt>
      <trkpt lat="51.766977980732918" lon="10.97395702265203">
        <ele>231.81</ele>
        <time>2024-09-12T12:56:31Z</time>
      </trkpt>
      <trkpt lat="51.767089040949941" lon="10.973974037915468">
        <ele>231.33000000000001</ele>
        <time>2024-09-12T12:56:32Z</time>
      </trkpt>
      <trkpt lat="51.767311999574304" lon="10.974006978794932">
        <ele>230.37</ele>
        <time>2024-09-12T12:56:34Z</time>
      </trkpt>
      <trkpt lat="51.767524983733892" lon="10.974089959636331">
        <ele>230.37</ele>
        <time>2024-09-12T12:56:36Z</time>
      </trkpt>
      <trkpt lat="51.767621962353587" lon="10.974131030961871">
        <ele>230.84999999999999</ele>
        <time>2024-09-12T12:56:37Z</time>
      </trkpt>
      <trkpt lat="51.767716007307172" lon="10.974171012639999">
        <ele>230.84999999999999</ele>
        <time>2024-09-12T12:56:38Z</time>
      </trkpt>
      <trkpt lat="51.767902001738548" lon="10.974175035953522">
        <ele>231.33000000000001</ele>
        <time>2024-09-12T12:56:40Z</time>
      </trkpt>
      <trkpt lat="51.768028987571597" lon="10.974139999598265">
        <ele>231.81</ele>
        <time>2024-09-12T12:56:41Z</time>
      </trkpt>
      <trkpt lat="51.768373986706138" lon="10.973861971870065">
        <ele>234.22</ele>
        <time>2024-09-12T12:56:45Z</time>
      </trkpt>
      <trkpt lat="51.769446032121778" lon="10.972573002800345">
        <ele>238.53999999999999</ele>
        <time>2024-09-12T12:56:55Z</time>
      </trkpt>
      <trkpt lat="51.770715974271297" lon="10.970969963818789">
        <ele>239.50999999999999</ele>
        <time>2024-09-12T12:57:04Z</time>
      </trkpt>
      <trkpt lat="51.771873012185097" lon="10.969505980610847">
        <ele>242.38999999999999</ele>
        <time>2024-09-12T12:57:13Z</time>
      </trkpt>
      <trkpt lat="51.77280399017036" lon="10.968327987939119">
        <ele>243.34999999999999</ele>
        <time>2024-09-12T12:57:23Z</time>
      </trkpt>
      <trkpt lat="51.774140987545252" lon="10.966634005308151">
        <ele>244.31</ele>
        <time>2024-09-12T12:57:38Z</time>
      </trkpt>
      <trkpt lat="51.774354977533221" lon="10.966363018378615">
        <ele>245.27000000000001</ele>
        <time>2024-09-12T12:57:43Z</time>
      </trkpt>
      <trkpt lat="51.774408034980297" lon="10.966334016993642">
        <ele>245.27000000000001</ele>
        <time>2024-09-12T12:57:44Z</time>
      </trkpt>
      <trkpt lat="51.774461008608341" lon="10.966342985630035">
        <ele>245.27000000000001</ele>
        <time>2024-09-12T12:57:45Z</time>
      </trkpt>
      <trkpt lat="51.774527980014682" lon="10.966356983408332">
        <ele>245.75</ele>
        <time>2024-09-12T12:57:46Z</time>
      </trkpt>
      <trkpt lat="51.774605009704828" lon="10.966383973136544">
        <ele>245.75</ele>
        <time>2024-09-12T12:57:47Z</time>
      </trkpt>
      <trkpt lat="51.775442026555538" lon="10.966640040278435">
        <ele>247.19999999999999</ele>
        <time>2024-09-12T12:57:55Z</time>
      </trkpt>
      <trkpt lat="51.776111992076039" lon="10.966844977810979">
        <ele>248.16</ele>
        <time>2024-09-12T12:58:02Z</time>
      </trkpt>
      <trkpt lat="51.777040958404541" lon="10.967447971925139">
        <ele>244.31</ele>
        <time>2024-09-12T12:58:13Z</time>
      </trkpt>
      <trkpt lat="51.777802035212517" lon="10.968061024323106">
        <ele>242.38999999999999</ele>
        <time>2024-09-12T12:58:22Z</time>
      </trkpt>
      <trkpt lat="51.777920974418521" lon="10.968132019042969">
        <ele>242.38999999999999</ele>
        <time>2024-09-12T12:58:23Z</time>
      </trkpt>
      <trkpt lat="51.778023988008499" lon="10.968127995729446">
        <ele>242.38999999999999</ele>
        <time>2024-09-12T12:58:24Z</time>
      </trkpt>
      <trkpt lat="51.77843595854938" lon="10.968110980466008">
        <ele>243.83000000000001</ele>
        <time>2024-09-12T12:58:27Z</time>
      </trkpt>
      <trkpt lat="51.779654016718268" lon="10.968468971550465">
        <ele>250.08000000000001</ele>
        <time>2024-09-12T12:58:36Z</time>
      </trkpt>
      <trkpt lat="51.781032001599669" lon="10.968423038721085">
        <ele>255.84999999999999</ele>
        <time>2024-09-12T12:58:44Z</time>
      </trkpt>
      <trkpt lat="51.782534960657358" lon="10.968185998499393">
        <ele>265.45999999999998</ele>
        <time>2024-09-12T12:58:53Z</time>
      </trkpt>
      <trkpt lat="51.783790988847613" lon="10.967571018263698">
        <ele>269.31</ele>
        <time>2024-09-12T12:59:03Z</time>
      </trkpt>
      <trkpt lat="51.784405969083309" lon="10.966958971694112">
        <ele>269.79000000000002</ele>
        <time>2024-09-12T12:59:10Z</time>
      </trkpt>
      <trkpt lat="51.784466989338398" lon="10.966842966154218">
        <ele>269.31</ele>
        <time>2024-09-12T12:59:11Z</time>
      </trkpt>
      <trkpt lat="51.784528009593487" lon="10.966720003634691">
        <ele>268.82999999999998</ele>
        <time>2024-09-12T12:59:12Z</time>
      </trkpt>
      <trkpt lat="51.784574026241899" lon="10.96658899448812">
        <ele>268.35000000000002</ele>
        <time>2024-09-12T12:59:13Z</time>
      </trkpt>
      <trkpt lat="51.784625994041562" lon="10.966448010876775">
        <ele>267.86000000000001</ele>
        <time>2024-09-12T12:59:14Z</time>
      </trkpt>
      <trkpt lat="51.785208033397794" lon="10.964970029890537">
        <ele>264.5</ele>
        <time>2024-09-12T12:59:24Z</time>
      </trkpt>
      <trkpt lat="51.785611035302281" lon="10.963953975588083">
        <ele>259.20999999999998</ele>
        <time>2024-09-12T12:59:31Z</time>
      </trkpt>
      <trkpt lat="51.78584598004818" lon="10.963377971202135">
        <ele>257.76999999999998</ele>
        <time>2024-09-12T12:59:35Z</time>
      </trkpt>
      <trkpt lat="51.785918986424804" lon="10.96323698759079">
        <ele>257.29000000000002</ele>
        <time>2024-09-12T12:59:36Z</time>
      </trkpt>
      <trkpt lat="51.78670696914196" lon="10.962021024897695">
        <ele>250.56</ele>
        <time>2024-09-12T12:59:46Z</time>
      </trkpt>
      <trkpt lat="51.787002012133598" lon="10.961730005219579">
        <ele>248.16</ele>
        <time>2024-09-12T12:59:50Z</time>
      </trkpt>
      <trkpt lat="51.78715598769486" lon="10.961596984416246">
        <ele>247.68000000000001</ele>
        <time>2024-09-12T12:59:52Z</time>
      </trkpt>
      <trkpt lat="51.787247015163302" lon="10.961565971374512">
        <ele>247.19999999999999</ele>
        <time>2024-09-12T12:59:53Z</time>
      </trkpt>
      <trkpt lat="51.787339970469475" lon="10.961575023829937">
        <ele>247.19999999999999</ele>
        <time>2024-09-12T12:59:54Z</time>
      </trkpt>
      <trkpt lat="51.787433009594679" lon="10.961588015779853">
        <ele>246.72</ele>
        <time>2024-09-12T12:59:55Z</time>
      </trkpt>
      <trkpt lat="51.787524037063122" lon="10.961601007729769">
        <ele>246.22999999999999</ele>
        <time>2024-09-12T12:59:56Z</time>
      </trkpt>
      <trkpt lat="51.787620009854436" lon="10.961615005508065">
        <ele>245.75</ele>
        <time>2024-09-12T12:59:57Z</time>
      </trkpt>
      <trkpt lat="51.788422996178269" lon="10.961649036034942">
        <ele>242.38999999999999</ele>
        <time>2024-09-12T13:00:04Z</time>
      </trkpt>
      <trkpt lat="51.788545958697796" lon="10.961635038256645">
        <ele>241.91</ele>
        <time>2024-09-12T13:00:05Z</time>
      </trkpt>
      <trkpt lat="51.788665987551212" lon="10.961591033264995">
        <ele>241.91</ele>
        <time>2024-09-12T13:00:06Z</time>
      </trkpt>
      <trkpt lat="51.789182983338833" lon="10.961174033582211">
        <ele>239.02000000000001</ele>
        <time>2024-09-12T13:00:11Z</time>
      </trkpt>
      <trkpt lat="51.789259007200599" lon="10.961048975586891">
        <ele>238.53999999999999</ele>
        <time>2024-09-12T13:00:12Z</time>
      </trkpt>
      <trkpt lat="51.789332013577223" lon="10.960930036380887">
        <ele>237.58000000000001</ele>
        <time>2024-09-12T13:00:13Z</time>
      </trkpt>
      <trkpt lat="51.789368977770209" lon="10.960796009749174">
        <ele>237.09999999999999</ele>
        <time>2024-09-12T13:00:14Z</time>
      </trkpt>
      <trkpt lat="51.789408959448338" lon="10.960639016702771">
        <ele>236.13999999999999</ele>
        <time>2024-09-12T13:00:15Z</time>
      </trkpt>
      <trkpt lat="51.789449024945498" lon="10.960481017827988">
        <ele>235.66</ele>
        <time>2024-09-12T13:00:16Z</time>
      </trkpt>
      <trkpt lat="51.789489006623626" lon="10.960323018953204">
        <ele>235.18000000000001</ele>
        <time>2024-09-12T13:00:17Z</time>
      </trkpt>
      <trkpt lat="51.789681036025286" lon="10.959535958245397">
        <ele>230.37</ele>
        <time>2024-09-12T13:00:24Z</time>
      </trkpt>
      <trkpt lat="51.789829982444644" lon="10.958990966901183">
        <ele>222.68000000000001</ele>
        <time>2024-09-12T13:00:36Z</time>
      </trkpt>
      <trkpt lat="51.789887985214591" lon="10.958799021318555">
        <ele>220.75999999999999</ele>
        <time>2024-09-12T13:00:41Z</time>
      </trkpt>
      <trkpt lat="51.790001979097724" lon="10.958798015490174">
        <ele>220.28</ele>
        <time>2024-09-12T13:00:42Z</time>
      </trkpt>
      <trkpt lat="51.790024023503065" lon="10.958769014105201">
        <ele>219.80000000000001</ele>
        <time>2024-09-12T13:00:43Z</time>
      </trkpt>
      <trkpt lat="51.790066016837955" lon="10.958712017163634">
        <ele>219.80000000000001</ele>
        <time>2024-09-12T13:00:44Z</time>
      </trkpt>
      <trkpt lat="51.790066016837955" lon="10.958570027723908">
        <ele>219.31999999999999</ele>
        <time>2024-09-12T13:00:45Z</time>
      </trkpt>
      <trkpt lat="51.790040032938123" lon="10.958508001640439">
        <ele>218.36000000000001</ele>
        <time>2024-09-12T13:00:46Z</time>
      </trkpt>
      <trkpt lat="51.790007008239627" lon="10.958442036062479">
        <ele>218.36000000000001</ele>
        <time>2024-09-12T13:00:47Z</time>
      </trkpt>
      <trkpt lat="51.789988987147808" lon="10.958342039957643">
        <ele>217.40000000000001</ele>
        <time>2024-09-12T13:00:48Z</time>
      </trkpt>
      <trkpt lat="51.789981024339795" lon="10.958283031359315">
        <ele>217.40000000000001</ele>
        <time>2024-09-12T13:00:49Z</time>
      </trkpt>
      <trkpt lat="51.789985969662666" lon="10.958173982799053">
        <ele>216.91</ele>
        <time>2024-09-12T13:00:50Z</time>
      </trkpt>
      <trkpt lat="51.789990998804569" lon="10.958084966987371">
        <ele>216.43000000000001</ele>
        <time>2024-09-12T13:00:51Z</time>
      </trkpt>
      <trkpt lat="51.789996027946472" lon="10.957992011681199">
        <ele>216.43000000000001</ele>
        <time>2024-09-12T13:00:52Z</time>
      </trkpt>
      <trkpt lat="51.790000973269343" lon="10.957897966727614">
        <ele>215.94999999999999</ele>
        <time>2024-09-12T13:00:53Z</time>
      </trkpt>
      <trkpt lat="51.790009019896388" lon="10.95780098810792">
        <ele>215.94999999999999</ele>
        <time>2024-09-12T13:00:54Z</time>
      </trkpt>
      <trkpt lat="51.790252011269331" lon="10.956976963207126">
        <ele>214.50999999999999</ele>
        <time>2024-09-12T13:01:02Z</time>
      </trkpt>
      <trkpt lat="51.790327029302716" lon="10.956763979047537">
        <ele>214.50999999999999</ele>
        <time>2024-09-12T13:01:04Z</time>
      </trkpt>
      <trkpt lat="51.790363993495703" lon="10.956658031791449">
        <ele>214.03</ele>
        <time>2024-09-12T13:01:05Z</time>
      </trkpt>
      <trkpt lat="51.790396012365818" lon="10.956549989059567">
        <ele>214.03</ele>
        <time>2024-09-12T13:01:06Z</time>
      </trkpt>
      <trkpt lat="51.790441023185849" lon="10.956310015171766">
        <ele>213.55000000000001</ele>
        <time>2024-09-12T13:01:08Z</time>
      </trkpt>
      <trkpt lat="51.790463989600539" lon="10.956193003803492">
        <ele>213.55000000000001</ele>
        <time>2024-09-12T13:01:09Z</time>
      </trkpt>
      <trkpt lat="51.790484022349119" lon="10.956071969121695">
        <ele>214.03</ele>
        <time>2024-09-12T13:01:10Z</time>
      </trkpt>
      <trkpt lat="51.790576977655292" lon="10.955342995002866">
        <ele>216.43000000000001</ele>
        <time>2024-09-12T13:01:16Z</time>
      </trkpt>
      <trkpt lat="51.790585024282336" lon="10.955217014998198">
        <ele>217.40000000000001</ele>
        <time>2024-09-12T13:01:17Z</time>
      </trkpt>
      <trkpt lat="51.79070002399385" lon="10.953706009313464">
        <ele>223.16</ele>
        <time>2024-09-12T13:01:28Z</time>
      </trkpt>
      <trkpt lat="51.790706980973482" lon="10.953467963263392">
        <ele>223.63999999999999</ele>
        <time>2024-09-12T13:01:30Z</time>
      </trkpt>
      <trkpt lat="51.790691977366805" lon="10.953204017132521">
        <ele>224.12</ele>
        <time>2024-09-12T13:01:37Z</time>
      </trkpt>
      <trkpt lat="51.790730031207204" lon="10.953128999099135">
        <ele>224.12</ele>
        <time>2024-09-12T13:01:47Z</time>
      </trkpt>
      <trkpt lat="51.790760038420558" lon="10.953109972178936">
        <ele>223.63999999999999</ele>
        <time>2024-09-12T13:01:48Z</time>
      </trkpt>
      <trkpt lat="51.790799014270306" lon="10.953085999935865">
        <ele>223.63999999999999</ele>
        <time>2024-09-12T13:01:49Z</time>
      </trkpt>
      <trkpt lat="51.790849976241589" lon="10.95305398106575">
        <ele>223.63999999999999</ele>
        <time>2024-09-12T13:01:50Z</time>
      </trkpt>
      <trkpt lat="51.790906973183155" lon="10.953023973852396">
        <ele>223.63999999999999</ele>
        <time>2024-09-12T13:01:51Z</time>
      </trkpt>
      <trkpt lat="51.790973022580147" lon="10.952991032972932">
        <ele>223.63999999999999</ele>
        <time>2024-09-12T13:01:52Z</time>
      </trkpt>
      <trkpt lat="51.791040999814868" lon="10.952960019931197">
        <ele>223.63999999999999</ele>
        <time>2024-09-12T13:01:53Z</time>
      </trkpt>
      <trkpt lat="51.791114006191492" lon="10.952948033809662">
        <ele>223.63999999999999</ele>
        <time>2024-09-12T13:01:54Z</time>
      </trkpt>
      <trkpt lat="51.791181983426213" lon="10.952936969697475">
        <ele>223.63999999999999</ele>
        <time>2024-09-12T13:01:55Z</time>
      </trkpt>
      <trkpt lat="51.791245015338063" lon="10.952925989404321">
        <ele>223.16</ele>
        <time>2024-09-12T13:01:56Z</time>
      </trkpt>
      <trkpt lat="51.791309975087643" lon="10.952926995232701">
        <ele>223.16</ele>
        <time>2024-09-12T13:01:57Z</time>
      </trkpt>
      <trkpt lat="51.791381975635886" lon="10.952955996617675">
        <ele>223.16</ele>
        <time>2024-09-12T13:01:58Z</time>
      </trkpt>
      <trkpt lat="51.792088989168406" lon="10.953164035454392">
        <ele>221.24000000000001</ele>
        <time>2024-09-12T13:02:06Z</time>
      </trkpt>
      <trkpt lat="51.792181022465229" lon="10.953150037676096">
        <ele>221.24000000000001</ele>
        <time>2024-09-12T13:02:07Z</time>
      </trkpt>
      <trkpt lat="51.792368022724986" lon="10.95307300798595">
        <ele>220.75999999999999</ele>
        <time>2024-09-12T13:02:09Z</time>
      </trkpt>
      <trkpt lat="51.79246298968792" lon="10.953034032136202">
        <ele>220.75999999999999</ele>
        <time>2024-09-12T13:02:10Z</time>
      </trkpt>
      <trkpt lat="51.792740011587739" lon="10.952825993299484">
        <ele>221.24000000000001</ele>
        <time>2024-09-12T13:02:13Z</time>
      </trkpt>
      <trkpt lat="51.793621033430099" lon="10.951868025586009">
        <ele>223.63999999999999</ele>
        <time>2024-09-12T13:02:23Z</time>
      </trkpt>
      <trkpt lat="51.79370803758502" lon="10.95176300033927">
        <ele>224.12</ele>
        <time>2024-09-12T13:02:24Z</time>
      </trkpt>
      <trkpt lat="51.793899983167648" lon="10.95159200951457">
        <ele>224.12</ele>
        <time>2024-09-12T13:02:26Z</time>
      </trkpt>
      <trkpt lat="51.794002996757627" lon="10.951540041714907">
        <ele>223.63999999999999</ele>
        <time>2024-09-12T13:02:27Z</time>
      </trkpt>
      <trkpt lat="51.794217992573977" lon="10.95146200619638">
        <ele>223.16</ele>
        <time>2024-09-12T13:02:29Z</time>
      </trkpt>
      <trkpt lat="51.794335003942251" lon="10.951459994539618">
        <ele>222.19999999999999</ele>
        <time>2024-09-12T13:02:30Z</time>
      </trkpt>
      <trkpt lat="51.795159028843045" lon="10.951416995376348">
        <ele>218.84</ele>
        <time>2024-09-12T13:02:39Z</time>
      </trkpt>
      <trkpt lat="51.795237986370921" lon="10.951416995376348">
        <ele>218.36000000000001</ele>
        <time>2024-09-12T13:02:40Z</time>
      </trkpt>
      <trkpt lat="51.795314010232687" lon="10.951416995376348">
        <ele>217.88</ele>
        <time>2024-09-12T13:02:41Z</time>
      </trkpt>
      <trkpt lat="51.795595977455378" lon="10.951405009254813">
        <ele>215.94999999999999</ele>
        <time>2024-09-12T13:02:46Z</time>
      </trkpt>
      <trkpt lat="51.795822037383914" lon="10.951381959021091">
        <ele>212.11000000000001</ele>
        <time>2024-09-12T13:02:55Z</time>
      </trkpt>
      <trkpt lat="51.795822037383914" lon="10.951381959021091">
        <ele>211.63</ele>
        <time>2024-09-12T13:03:11Z</time>
      </trkpt>
      <trkpt lat="51.795827988535166" lon="10.951381037011743">
        <ele>211.63</ele>
        <time>2024-09-12T13:03:15Z</time>
      </trkpt>
      <trkpt lat="51.795849027112126" lon="10.95137701369822">
        <ele>211.15000000000001</ele>
        <time>2024-09-12T13:03:16Z</time>
      </trkpt>
      <trkpt lat="51.795885991305113" lon="10.951369972899556">
        <ele>210.66999999999999</ele>
        <time>2024-09-12T13:03:17Z</time>
      </trkpt>
      <trkpt lat="51.796061005443335" lon="10.951337032020092">
        <ele>210.66999999999999</ele>
        <time>2024-09-12T13:03:20Z</time>
      </trkpt>
      <trkpt lat="51.796119008213282" lon="10.951319010928273">
        <ele>211.15000000000001</ele>
        <time>2024-09-12T13:03:21Z</time>
      </trkpt>
      <trkpt lat="51.796874972060323" lon="10.950934030115604">
        <ele>210.66999999999999</ele>
        <time>2024-09-12T13:03:29Z</time>
      </trkpt>
      <trkpt lat="51.79697697982192" lon="10.950879966840148">
        <ele>211.15000000000001</ele>
        <time>2024-09-12T13:03:30Z</time>
      </trkpt>
      <trkpt lat="51.797947017475963" lon="10.950298011302948">
        <ele>217.40000000000001</ele>
        <time>2024-09-12T13:03:40Z</time>
      </trkpt>
      <trkpt lat="51.798550011590123" lon="10.949977990239859">
        <ele>218.84</ele>
        <time>2024-09-12T13:03:48Z</time>
      </trkpt>
      <trkpt lat="51.799539998173714" lon="10.94948798418045">
        <ele>217.88</ele>
        <time>2024-09-12T13:04:00Z</time>
      </trkpt>
      <trkpt lat="51.80021901614964" lon="10.949101997539401">
        <ele>216.43000000000001</ele>
        <time>2024-09-12T13:04:10Z</time>
      </trkpt>
      <trkpt lat="51.800278024747968" lon="10.949063021689653">
        <ele>216.43000000000001</ele>
        <time>2024-09-12T13:04:12Z</time>
      </trkpt>
      <trkpt lat="51.800246005877852" lon="10.949020022526383">
        <ele>216.43000000000001</ele>
        <time>2024-09-12T13:04:13Z</time>
      </trkpt>
      <trkpt lat="51.800234019756317" lon="10.948968976736069">
        <ele>216.43000000000001</ele>
        <time>2024-09-12T13:04:14Z</time>
      </trkpt>
      <trkpt lat="51.800220021978021" lon="10.948908040300012">
        <ele>216.43000000000001</ele>
        <time>2024-09-12T13:04:15Z</time>
      </trkpt>
      <trkpt lat="51.800206024199724" lon="10.948846014216542">
        <ele>215.94999999999999</ele>
        <time>2024-09-12T13:04:16Z</time>
      </trkpt>
      <trkpt lat="51.800185991451144" lon="10.949122030287981">
        <ele>215.94999999999999</ele>
        <time>2024-09-12T13:04:17Z</time>
      </trkpt>
      <trkpt lat="51.800128994509578" lon="10.949156982824206">
        <ele>215.94999999999999</ele>
        <time>2024-09-12T13:04:18Z</time>
      </trkpt>
      <trkpt lat="51.800074009224772" lon="10.949190007522702">
        <ele>215.94999999999999</ele>
        <time>2024-09-12T13:04:19Z</time>
      </trkpt>
      <trkpt lat="51.800028998404741" lon="10.949218003079295">
        <ele>215.47</ele>
        <time>2024-09-12T13:04:20Z</time>
      </trkpt>
      <trkpt lat="51.799991028383374" lon="10.949241975322366">
        <ele>215.47</ele>
        <time>2024-09-12T13:04:21Z</time>
      </trkpt>
      <trkpt lat="51.799958003684878" lon="10.949262008070946">
        <ele>215.47</ele>
        <time>2024-09-12T13:04:22Z</time>
      </trkpt>
      <trkpt lat="51.799929002299905" lon="10.949279023334384">
        <ele>214.99000000000001</ele>
        <time>2024-09-12T13:04:23Z</time>
      </trkpt>
      <trkpt lat="51.799889020621777" lon="10.949304001405835">
        <ele>214.03</ele>
        <time>2024-09-12T13:04:32Z</time>
      </trkpt>
      <trkpt lat="51.79970595985651" lon="10.948947016149759">
        <ele>262.10000000000002</ele>
        <time>2024-09-12T13:07:20Z</time>
      </trkpt>
      <trkpt lat="51.799726998433471" lon="10.948852971196175">
        <ele>214.99000000000001</ele>
        <time>2024-09-12T13:07:49Z</time>
      </trkpt>
      <trkpt lat="51.799734961241484" lon="10.949002001434565">
        <ele>216.43000000000001</ele>
        <time>2024-09-12T13:08:18Z</time>
      </trkpt>
      <trkpt lat="51.79972599260509" lon="10.949094034731388">
        <ele>211.63</ele>
        <time>2024-09-12T13:08:59Z</time>
      </trkpt>
      <trkpt lat="51.799732027575374" lon="10.949085988104343">
        <ele>211.63</ele>
        <time>2024-09-12T13:09:36Z</time>
      </trkpt>
      <trkpt lat="51.799734039232135" lon="10.949091017246246">
        <ele>211.63</ele>
        <time>2024-09-12T13:10:09Z</time>
      </trkpt>
      <trkpt lat="51.799726998433471" lon="10.949085988104343">
        <ele>217.88</ele>
        <time>2024-09-12T13:10:34Z</time>
      </trkpt>
      <trkpt lat="51.799726998433471" lon="10.949085988104343">
        <ele>217.88</ele>
        <time>2024-09-12T13:10:38Z</time>
      </trkpt>
      <trkpt lat="51.799686010926962" lon="10.949411038309336">
        <ele>212.11000000000001</ele>
        <time>2024-09-12T13:10:45Z</time>
      </trkpt>
      <trkpt lat="51.799686010926962" lon="10.949411038309336">
        <ele>212.11000000000001</ele>
        <time>2024-09-12T13:11:13Z</time>
      </trkpt>
      <trkpt lat="51.799696991220117" lon="10.949405003339052">
        <ele>212.59</ele>
        <time>2024-09-12T13:11:29Z</time>
      </trkpt>
      <trkpt lat="51.799721969291568" lon="10.949393017217517">
        <ele>212.11000000000001</ele>
        <time>2024-09-12T13:11:30Z</time>
      </trkpt>
      <trkpt lat="51.799755999818444" lon="10.949374996125698">
        <ele>211.63</ele>
        <time>2024-09-12T13:11:31Z</time>
      </trkpt>
      <trkpt lat="51.799798998981714" lon="10.949352029711008">
        <ele>210.66999999999999</ele>
        <time>2024-09-12T13:11:32Z</time>
      </trkpt>
      <trkpt lat="51.799841998144984" lon="10.949329985305667">
        <ele>210.19</ele>
        <time>2024-09-12T13:11:33Z</time>
      </trkpt>
      <trkpt lat="51.799891032278538" lon="10.949301989749074">
        <ele>209.69999999999999</ele>
        <time>2024-09-12T13:11:34Z</time>
      </trkpt>
      <trkpt lat="51.799943000078201" lon="10.949270976707339">
        <ele>208.74000000000001</ele>
        <time>2024-09-12T13:11:35Z</time>
      </trkpt>
      <trkpt lat="51.799993962049484" lon="10.949239963665605">
        <ele>208.25999999999999</ele>
        <time>2024-09-12T13:11:36Z</time>
      </trkpt>
      <trkpt lat="51.800038972869515" lon="10.949211968109012">
        <ele>209.69999999999999</ele>
        <time>2024-09-12T13:11:37Z</time>
      </trkpt>
      <trkpt lat="51.800088007003069" lon="10.949181960895658">
        <ele>211.15000000000001</ele>
        <time>2024-09-12T13:11:38Z</time>
      </trkpt>
      <trkpt lat="51.80013201199472" lon="10.949154971167445">
        <ele>210.66999999999999</ele>
        <time>2024-09-12T13:11:39Z</time>
      </trkpt>
      <trkpt lat="51.800168976187706" lon="10.949133010581136">
        <ele>210.19</ele>
        <time>2024-09-12T13:11:40Z</time>
      </trkpt>
      <trkpt lat="51.800200995057821" lon="10.949112977832556">
        <ele>209.22</ele>
        <time>2024-09-12T13:11:41Z</time>
      </trkpt>
      <trkpt lat="51.800225973129272" lon="10.949097974225879">
        <ele>209.22</ele>
        <time>2024-09-12T13:11:42Z</time>
      </trkpt>
      <trkpt lat="51.800246005877852" lon="10.949084982275963">
        <ele>208.74000000000001</ele>
        <time>2024-09-12T13:11:43Z</time>
      </trkpt>
      <trkpt lat="51.800224967300892" lon="10.948932012543082">
        <ele>207.78</ele>
        <time>2024-09-12T13:11:45Z</time>
      </trkpt>
      <trkpt lat="51.800235025584698" lon="10.948973000049591">
        <ele>207.30000000000001</ele>
        <time>2024-09-12T13:11:46Z</time>
      </trkpt>
      <trkpt lat="51.800235025584698" lon="10.948973000049591">
        <ele>206.81999999999999</ele>
        <time>2024-09-12T13:11:47Z</time>
      </trkpt>
      <trkpt lat="51.800296967849135" lon="10.949049023911357">
        <ele>205.86000000000001</ele>
        <time>2024-09-12T13:11:54Z</time>
      </trkpt>
      <trkpt lat="51.800343990325928" lon="10.9490139875561">
        <ele>205.38</ele>
        <time>2024-09-12T13:11:55Z</time>
      </trkpt>
      <trkpt lat="51.800410039722919" lon="10.948964031413198">
        <ele>205.38</ele>
        <time>2024-09-12T13:11:56Z</time>
      </trkpt>
      <trkpt lat="51.800486985594034" lon="10.94890602864325">
        <ele>205.38</ele>
        <time>2024-09-12T13:11:57Z</time>
      </trkpt>
      <trkpt lat="51.800568960607052" lon="10.94884199090302">
        <ele>204.90000000000001</ele>
        <time>2024-09-12T13:11:58Z</time>
      </trkpt>
      <trkpt lat="51.801086040213704" lon="10.948422979563475">
        <ele>202.49000000000001</ele>
        <time>2024-09-12T13:12:07Z</time>
      </trkpt>
      <trkpt lat="51.801152005791664" lon="10.948361959308386">
        <ele>202.00999999999999</ele>
        <time>2024-09-12T13:12:16Z</time>
      </trkpt>
      <trkpt lat="51.801733039319515" lon="10.947858961299062">
        <ele>202.00999999999999</ele>
        <time>2024-09-12T13:12:23Z</time>
      </trkpt>
      <trkpt lat="51.802758984267712" lon="10.946928989142179">
        <ele>201.05000000000001</ele>
        <time>2024-09-12T13:12:33Z</time>
      </trkpt>
      <trkpt lat="51.803513020277023" lon="10.94630403444171">
        <ele>199.61000000000001</ele>
        <time>2024-09-12T13:12:42Z</time>
      </trkpt>
      <trkpt lat="51.803578985854983" lon="10.946247037500143">
        <ele>199.13</ele>
        <time>2024-09-12T13:12:43Z</time>
      </trkpt>
      <trkpt lat="51.80423797108233" lon="10.945744039490819">
        <ele>198.65000000000001</ele>
        <time>2024-09-12T13:12:51Z</time>
      </trkpt>
      <trkpt lat="51.805702038109303" lon="10.944820018485188">
        <ele>200.56999999999999</ele>
        <time>2024-09-12T13:13:04Z</time>
      </trkpt>
      <trkpt lat="51.806818004697561" lon="10.944199003279209">
        <ele>202.97999999999999</ele>
        <time>2024-09-12T13:13:13Z</time>
      </trkpt>
      <trkpt lat="51.808737041428685" lon="10.94314900226891">
        <ele>209.22</ele>
        <time>2024-09-12T13:13:26Z</time>
      </trkpt>
      <trkpt lat="51.81046798825264" lon="10.942291030660272">
        <ele>212.11000000000001</ele>
        <time>2024-09-12T13:13:39Z</time>
      </trkpt>
      <trkpt lat="51.812082007527351" lon="10.941904960200191">
        <ele>214.03</ele>
        <time>2024-09-12T13:13:50Z</time>
      </trkpt>
      <trkpt lat="51.813592007383704" lon="10.941195013001561">
        <ele>212.59</ele>
        <time>2024-09-12T13:14:00Z</time>
      </trkpt>
      <trkpt lat="51.814602026715875" lon="10.940252970904112">
        <ele>208.25999999999999</ele>
        <time>2024-09-12T13:14:07Z</time>
      </trkpt>
      <trkpt lat="51.814720965921879" lon="10.940173007547855">
        <ele>207.78</ele>
        <time>2024-09-12T13:14:08Z</time>
      </trkpt>
      <trkpt lat="51.814914001151919" lon="10.940163033083081">
        <ele>206.81999999999999</ele>
        <time>2024-09-12T13:14:09Z</time>
      </trkpt>
      <trkpt lat="51.815072000026703" lon="10.940154986456037">
        <ele>206.34</ele>
        <time>2024-09-12T13:14:10Z</time>
      </trkpt>
      <trkpt lat="51.815217006951571" lon="10.940191028639674">
        <ele>205.86000000000001</ele>
        <time>2024-09-12T13:14:11Z</time>
      </trkpt>
      <trkpt lat="51.815368970856071" lon="10.940279960632324">
        <ele>205.86000000000001</ele>
        <time>2024-09-12T13:14:12Z</time>
      </trkpt>
      <trkpt lat="51.815520012751222" lon="10.940368976444006">
        <ele>205.38</ele>
        <time>2024-09-12T13:14:13Z</time>
      </trkpt>
      <trkpt lat="51.815658984705806" lon="10.940469978377223">
        <ele>205.38</ele>
        <time>2024-09-12T13:14:14Z</time>
      </trkpt>
      <trkpt lat="51.815783036872745" lon="10.940602999180555">
        <ele>204.90000000000001</ele>
        <time>2024-09-12T13:14:15Z</time>
      </trkpt>
      <trkpt lat="51.816275976598263" lon="10.940961996093392">
        <ele>203.94</ele>
        <time>2024-09-12T13:14:19Z</time>
      </trkpt>
      <trkpt lat="51.816401034593582" lon="10.941006001085043">
        <ele>203.94</ele>
        <time>2024-09-12T13:14:20Z</time>
      </trkpt>
      <trkpt lat="51.816531959921122" lon="10.94099803827703">
        <ele>203.94</ele>
        <time>2024-09-12T13:14:21Z</time>
      </trkpt>
      <trkpt lat="51.816662969067693" lon="10.940988985821605">
        <ele>203.46000000000001</ele>
        <time>2024-09-12T13:14:22Z</time>
      </trkpt>
      <trkpt lat="51.816778974607587" lon="10.940906004980206">
        <ele>202.97999999999999</ele>
        <time>2024-09-12T13:14:23Z</time>
      </trkpt>
      <trkpt lat="51.816897997632623" lon="10.940813971683383">
        <ele>202.97999999999999</ele>
        <time>2024-09-12T13:14:24Z</time>
      </trkpt>
      <trkpt lat="51.817020960152149" lon="10.940717998892069">
        <ele>202.49000000000001</ele>
        <time>2024-09-12T13:14:25Z</time>
      </trkpt>
      <trkpt lat="51.81712900288403" lon="10.940575003623962">
        <ele>202.49000000000001</ele>
        <time>2024-09-12T13:14:26Z</time>
      </trkpt>
      <trkpt lat="51.817231010645628" lon="10.940408958122134">
        <ele>202.49000000000001</ele>
        <time>2024-09-12T13:14:27Z</time>
      </trkpt>
      <trkpt lat="51.817325977608562" lon="10.940237967297435">
        <ele>202.49000000000001</ele>
        <time>2024-09-12T13:14:28Z</time>
      </trkpt>
      <trkpt lat="51.818053023889661" lon="10.938812037929893">
        <ele>197.69</ele>
        <time>2024-09-12T13:14:36Z</time>
      </trkpt>
      <trkpt lat="51.819173013791442" lon="10.937280999496579">
        <ele>192.40000000000001</ele>
        <time>2024-09-12T13:14:44Z</time>
      </trkpt>
      <trkpt lat="51.820413032546639" lon="10.934701971709728">
        <ele>185.19</ele>
        <time>2024-09-12T13:14:54Z</time>
      </trkpt>
      <trkpt lat="51.820561978965998" lon="10.934486975893378">
        <ele>184.22999999999999</ele>
        <time>2024-09-12T13:14:55Z</time>
      </trkpt>
      <trkpt lat="51.820716960355639" lon="10.934302993118763">
        <ele>183.75</ele>
        <time>2024-09-12T13:14:56Z</time>
      </trkpt>
      <trkpt lat="51.820872025564313" lon="10.934139965102077">
        <ele>182.78999999999999</ele>
        <time>2024-09-12T13:14:57Z</time>
      </trkpt>
      <trkpt lat="51.821050979197025" lon="10.933993030339479">
        <ele>181.83000000000001</ele>
        <time>2024-09-12T13:14:58Z</time>
      </trkpt>
      <trkpt lat="51.821228004992008" lon="10.933899991214275">
        <ele>181.34999999999999</ele>
        <time>2024-09-12T13:14:59Z</time>
      </trkpt>
      <trkpt lat="51.821416011080146" lon="10.933799995109439">
        <ele>180.38</ele>
        <time>2024-09-12T13:15:00Z</time>
      </trkpt>
      <trkpt lat="51.823205966502428" lon="10.932861976325512">
        <ele>173.16999999999999</ele>
        <time>2024-09-12T13:15:10Z</time>
      </trkpt>
      <trkpt lat="51.824210034683347" lon="10.931928986683488">
        <ele>171.72999999999999</ele>
        <time>2024-09-12T13:15:18Z</time>
      </trkpt>
      <trkpt lat="51.824395023286343" lon="10.931728994473815">
        <ele>172.21000000000001</ele>
        <time>2024-09-12T13:15:21Z</time>
      </trkpt>
      <trkpt lat="51.824528966099024" lon="10.931785991415381">
        <ele>172.21000000000001</ele>
        <time>2024-09-12T13:15:22Z</time>
      </trkpt>
      <trkpt lat="51.824565008282661" lon="10.931858997792006">
        <ele>172.21000000000001</ele>
        <time>2024-09-12T13:15:23Z</time>
      </trkpt>
      <trkpt lat="51.824620999395847" lon="10.931968968361616">
        <ele>172.21000000000001</ele>
        <time>2024-09-12T13:15:24Z</time>
      </trkpt>
      <trkpt lat="51.824689982458949" lon="10.932107018306851">
        <ele>172.21000000000001</ele>
        <time>2024-09-12T13:15:25Z</time>
      </trkpt>
      <trkpt lat="51.825263975188136" lon="10.932991979643703">
        <ele>171.72999999999999</ele>
        <time>2024-09-12T13:15:30Z</time>
      </trkpt>
      <trkpt lat="51.826441967859864" lon="10.933820027858019">
        <ele>169.33000000000001</ele>
        <time>2024-09-12T13:15:36Z</time>
      </trkpt>
      <trkpt lat="51.829321989789605" lon="10.935162976384163">
        <ele>167.41</ele>
        <time>2024-09-12T13:15:48Z</time>
      </trkpt>
      <trkpt lat="51.831647967919707" lon="10.936463009566069">
        <ele>165.96000000000001</ele>
        <time>2024-09-12T13:15:57Z</time>
      </trkpt>
      <trkpt lat="51.831863969564438" lon="10.936742965131998">
        <ele>165.47999999999999</ele>
        <time>2024-09-12T13:15:58Z</time>
      </trkpt>
      <trkpt lat="51.832075025886297" lon="10.937030967324972">
        <ele>165.47999999999999</ele>
        <time>2024-09-12T13:15:59Z</time>
      </trkpt>
      <trkpt lat="51.832256997004151" lon="10.937361968681216">
        <ele>165</ele>
        <time>2024-09-12T13:16:00Z</time>
      </trkpt>
      <trkpt lat="51.83242698200047" lon="10.937719037756324">
        <ele>165</ele>
        <time>2024-09-12T13:16:01Z</time>
      </trkpt>
      <trkpt lat="51.832586992532015" lon="10.938085997477174">
        <ele>165</ele>
        <time>2024-09-12T13:16:02Z</time>
      </trkpt>
      <trkpt lat="51.832721019163728" lon="10.938481958582997">
        <ele>165</ele>
        <time>2024-09-12T13:16:03Z</time>
      </trkpt>
      <trkpt lat="51.833854001015425" lon="10.941884005442262">
        <ele>165.47999999999999</ele>
        <time>2024-09-12T13:16:12Z</time>
      </trkpt>
      <trkpt lat="51.835005003958941" lon="10.945571959018707">
        <ele>170.28999999999999</ele>
        <time>2024-09-12T13:16:23Z</time>
      </trkpt>
      <trkpt lat="51.835073987022042" lon="10.945947971194983">
        <ele>170.28999999999999</ele>
        <time>2024-09-12T13:16:24Z</time>
      </trkpt>
      <trkpt lat="51.835142970085144" lon="10.946323983371258">
        <ele>170.28999999999999</ele>
        <time>2024-09-12T13:16:25Z</time>
      </trkpt>
      <trkpt lat="51.83519896119833" lon="10.94671499915421">
        <ele>170.28999999999999</ele>
        <time>2024-09-12T13:16:26Z</time>
      </trkpt>
      <trkpt lat="51.83554102666676" lon="10.949430987238884">
        <ele>170.77000000000001</ele>
        <time>2024-09-12T13:16:33Z</time>
      </trkpt>
      <trkpt lat="51.836539981886744" lon="10.952993966639042">
        <ele>173.16999999999999</ele>
        <time>2024-09-12T13:16:43Z</time>
      </trkpt>
      <trkpt lat="51.837585959583521" lon="10.955671984702349">
        <ele>174.62</ele>
        <time>2024-09-12T13:16:52Z</time>
      </trkpt>
      <trkpt lat="51.837715040892363" lon="10.95591003075242">
        <ele>174.62</ele>
        <time>2024-09-12T13:16:53Z</time>
      </trkpt>
      <trkpt lat="51.83786298148334" lon="10.956131983548403">
        <ele>175.09999999999999</ele>
        <time>2024-09-12T13:16:54Z</time>
      </trkpt>
      <trkpt lat="51.838017040863633" lon="10.95636298879981">
        <ele>175.58000000000001</ele>
        <time>2024-09-12T13:16:55Z</time>
      </trkpt>
      <trkpt lat="51.838187025859952" lon="10.956588964909315">
        <ele>175.58000000000001</ele>
        <time>2024-09-12T13:16:56Z</time>
      </trkpt>
      <trkpt lat="51.838371008634567" lon="10.956798009574413">
        <ele>176.06</ele>
        <time>2024-09-12T13:16:57Z</time>
      </trkpt>
      <trkpt lat="51.838567983359098" lon="10.956950979307294">
        <ele>176.53999999999999</ele>
        <time>2024-09-12T13:16:58Z</time>
      </trkpt>
      <trkpt lat="51.838764036074281" lon="10.957072013989091">
        <ele>176.53999999999999</ele>
        <time>2024-09-12T13:16:59Z</time>
      </trkpt>
      <trkpt lat="51.839500973001122" lon="10.957571994513273">
        <ele>177.5</ele>
        <time>2024-09-12T13:17:03Z</time>
      </trkpt>
      <trkpt lat="51.839667018502951" lon="10.957744996994734">
        <ele>177.97999999999999</ele>
        <time>2024-09-12T13:17:04Z</time>
      </trkpt>
      <trkpt lat="51.841052966192365" lon="10.959408972412348">
        <ele>182.78999999999999</ele>
        <time>2024-09-12T13:17:13Z</time>
      </trkpt>
      <trkpt lat="51.842562966048717" lon="10.961034977808595">
        <ele>189.03999999999999</ele>
        <time>2024-09-12T13:17:23Z</time>
      </trkpt>
      <trkpt lat="51.844034995883703" lon="10.961645012721419">
        <ele>190.96000000000001</ele>
        <time>2024-09-12T13:17:31Z</time>
      </trkpt>
      <trkpt lat="51.84583199210465" lon="10.962196039035916">
        <ele>192.88</ele>
        <time>2024-09-12T13:17:41Z</time>
      </trkpt>
      <trkpt lat="51.847177958115935" lon="10.96259200014174">
        <ele>194.31999999999999</ele>
        <time>2024-09-12T13:17:46Z</time>
      </trkpt>
      <trkpt lat="51.848443038761616" lon="10.962963989004493">
        <ele>195.77000000000001</ele>
        <time>2024-09-12T13:17:51Z</time>
      </trkpt>
      <trkpt lat="51.850340031087399" lon="10.963521972298622">
        <ele>191.91999999999999</ele>
        <time>2024-09-12T13:18:01Z</time>
      </trkpt>
      <trkpt lat="51.852022027596831" lon="10.964017007499933">
        <ele>186.63</ele>
        <time>2024-09-12T13:18:10Z</time>
      </trkpt>
      <trkpt lat="51.853418033570051" lon="10.964837009087205">
        <ele>184.71000000000001</ele>
        <time>2024-09-12T13:18:18Z</time>
      </trkpt>
      <trkpt lat="51.854981007054448" lon="10.966580025851727">
        <ele>183.27000000000001</ele>
        <time>2024-09-12T13:18:28Z</time>
      </trkpt>
      <trkpt lat="51.857190979644656" lon="10.969108007848263">
        <ele>178.94</ele>
        <time>2024-09-12T13:18:42Z</time>
      </trkpt>
      <trkpt lat="51.858395962044597" lon="10.970515999943018">
        <ele>177.97999999999999</ele>
        <time>2024-09-12T13:18:47Z</time>
      </trkpt>
      <trkpt lat="51.861071968451142" lon="10.973588973283768">
        <ele>174.62</ele>
        <time>2024-09-12T13:18:58Z</time>
      </trkpt>
      <trkpt lat="51.863661976531148" lon="10.976563040167093">
        <ele>171.25</ele>
        <time>2024-09-12T13:19:10Z</time>
      </trkpt>
      <trkpt lat="51.864920016378164" lon="10.978023000061512">
        <ele>170.28999999999999</ele>
        <time>2024-09-12T13:19:17Z</time>
      </trkpt>
      <trkpt lat="51.86592098325491" lon="10.979575999081135">
        <ele>172.69</ele>
        <time>2024-09-12T13:19:25Z</time>
      </trkpt>
      <trkpt lat="51.866978025063872" lon="10.98227497190237">
        <ele>175.09999999999999</ele>
        <time>2024-09-12T13:19:36Z</time>
      </trkpt>
      <trkpt lat="51.868238998576999" lon="10.985511979088187">
        <ele>171.72999999999999</ele>
        <time>2024-09-12T13:19:48Z</time>
      </trkpt>
      <trkpt lat="51.869475999847054" lon="10.988735994324088">
        <ele>166.44999999999999</ele>
        <time>2024-09-12T13:19:57Z</time>
      </trkpt>
      <trkpt lat="51.871319012716413" lon="10.99348702467978">
        <ele>157.78999999999999</ele>
        <time>2024-09-12T13:20:09Z</time>
      </trkpt>
      <trkpt lat="51.873637028038502" lon="10.999512020498514">
        <ele>146.74000000000001</ele>
        <time>2024-09-12T13:20:25Z</time>
      </trkpt>
      <trkpt lat="51.87492499127984" lon="11.00287701934576">
        <ele>139.53</ele>
        <time>2024-09-12T13:20:35Z</time>
      </trkpt>
      <trkpt lat="51.876345975324512" lon="11.006564972922206">
        <ele>131.36000000000001</ele>
        <time>2024-09-12T13:20:46Z</time>
      </trkpt>
      <trkpt lat="51.8782530259341" lon="11.011515995487571">
        <ele>127.03</ele>
        <time>2024-09-12T13:21:00Z</time>
      </trkpt>
      <trkpt lat="51.880306005477905" lon="11.016838001087308">
        <ele>124.15000000000001</ele>
        <time>2024-09-12T13:21:15Z</time>
      </trkpt>
      <trkpt lat="51.881573013961315" lon="11.02010702714324">
        <ele>125.59</ele>
        <time>2024-09-12T13:21:25Z</time>
      </trkpt>
      <trkpt lat="51.882872963324189" lon="11.02346196770668">
        <ele>128.47</ele>
        <time>2024-09-12T13:21:37Z</time>
      </trkpt>
      <trkpt lat="51.883937967941165" lon="11.026252973824739">
        <ele>129.43000000000001</ele>
        <time>2024-09-12T13:21:49Z</time>
      </trkpt>
      <trkpt lat="51.884644981473684" lon="11.02812398225069">
        <ele>130.40000000000001</ele>
        <time>2024-09-12T13:21:59Z</time>
      </trkpt>
      <trkpt lat="51.885028034448624" lon="11.029106006026268">
        <ele>131.36000000000001</ele>
        <time>2024-09-12T13:22:09Z</time>
      </trkpt>
      <trkpt lat="51.885153008624911" lon="11.029456034302711">
        <ele>132.31999999999999</ele>
        <time>2024-09-12T13:22:17Z</time>
      </trkpt>
      <trkpt lat="51.885432964190841" lon="11.030195988714695">
        <ele>133.75999999999999</ele>
        <time>2024-09-12T13:22:24Z</time>
      </trkpt>
      <trkpt lat="51.886076023802161" lon="11.031854012981057">
        <ele>136.16</ele>
        <time>2024-09-12T13:22:35Z</time>
      </trkpt>
      <trkpt lat="51.886738026514649" lon="11.033588983118534">
        <ele>139.05000000000001</ele>
        <time>2024-09-12T13:22:47Z</time>
      </trkpt>
      <trkpt lat="51.887379996478558" lon="11.035250024870038">
        <ele>140.49000000000001</ele>
        <time>2024-09-12T13:22:59Z</time>
      </trkpt>
      <trkpt lat="51.887633968144655" lon="11.035891994833946">
        <ele>141.44999999999999</ele>
        <time>2024-09-12T13:23:04Z</time>
      </trkpt>
      <trkpt lat="51.88777201808989" lon="11.03624202311039">
        <ele>142.41</ele>
        <time>2024-09-12T13:23:07Z</time>
      </trkpt>
      <trkpt lat="51.887827003374696" lon="11.036382000893354">
        <ele>142.41</ele>
        <time>2024-09-12T13:23:08Z</time>
      </trkpt>
      <trkpt lat="51.888240985572338" lon="11.037180041894317">
        <ele>142.41</ele>
        <time>2024-09-12T13:23:14Z</time>
      </trkpt>
      <trkpt lat="51.888726968318224" lon="11.037827963009477">
        <ele>143.84999999999999</ele>
        <time>2024-09-12T13:23:20Z</time>
      </trkpt>
      <trkpt lat="51.888807015493512" lon="11.037931982427835">
        <ele>144.34</ele>
        <time>2024-09-12T13:23:21Z</time>
      </trkpt>
      <trkpt lat="51.888880021870136" lon="11.038016974925995">
        <ele>145.30000000000001</ele>
        <time>2024-09-12T13:23:22Z</time>
      </trkpt>
      <trkpt lat="51.889043971896172" lon="11.038175979629159">
        <ele>147.69999999999999</ele>
        <time>2024-09-12T13:23:27Z</time>
      </trkpt>
      <trkpt lat="51.889070961624384" lon="11.038201963528991">
        <ele>149.13999999999999</ele>
        <time>2024-09-12T13:23:53Z</time>
      </trkpt>
      <trkpt lat="51.889248993247747" lon="11.0383690148592">
        <ele>150.09999999999999</ele>
        <time>2024-09-12T13:23:57Z</time>
      </trkpt>
      <trkpt lat="51.889309007674456" lon="11.038402039557695">
        <ele>150.09999999999999</ele>
        <time>2024-09-12T13:23:58Z</time>
      </trkpt>
      <trkpt lat="51.889371033757925" lon="11.038428023457527">
        <ele>150.09999999999999</ele>
        <time>2024-09-12T13:23:59Z</time>
      </trkpt>
      <trkpt lat="51.889482010155916" lon="11.038473034277558">
        <ele>150.58000000000001</ele>
        <time>2024-09-12T13:24:01Z</time>
      </trkpt>
      <trkpt lat="51.889602039009333" lon="11.03852198459208">
        <ele>150.58000000000001</ele>
        <time>2024-09-12T13:24:03Z</time>
      </trkpt>
      <trkpt lat="51.89039396122098" lon="11.038796994835138">
        <ele>150.58000000000001</ele>
        <time>2024-09-12T13:24:12Z</time>
      </trkpt>
      <trkpt lat="51.891172975301743" lon="11.039078962057829">
        <ele>151.53999999999999</ele>
        <time>2024-09-12T13:24:20Z</time>
      </trkpt>
      <trkpt lat="51.891889963299036" lon="11.039339974522591">
        <ele>152.03</ele>
        <time>2024-09-12T13:24:28Z</time>
      </trkpt>
      <trkpt lat="51.891979984939098" lon="11.03935900144279">
        <ele>152.50999999999999</ele>
        <time>2024-09-12T13:24:29Z</time>
      </trkpt>
      <trkpt lat="51.892560012638569" lon="11.039552958682179">
        <ele>152.03</ele>
        <time>2024-09-12T13:24:38Z</time>
      </trkpt>
      <trkpt lat="51.892780959606171" lon="11.039619008079171">
        <ele>149.62</ele>
        <time>2024-09-12T13:24:50Z</time>
      </trkpt>
      <trkpt lat="51.892838962376118" lon="11.039635017514229">
        <ele>148.18000000000001</ele>
        <time>2024-09-12T13:25:04Z</time>
      </trkpt>
      <trkpt lat="51.892838962376118" lon="11.039635017514229">
        <ele>147.69999999999999</ele>
        <time>2024-09-12T13:25:51Z</time>
      </trkpt>
      <trkpt lat="51.893021017313004" lon="11.039707018062472">
        <ele>141.93000000000001</ele>
        <time>2024-09-12T13:26:10Z</time>
      </trkpt>
      <trkpt lat="51.893212962895632" lon="11.039822017773986">
        <ele>140.97</ele>
        <time>2024-09-12T13:26:14Z</time>
      </trkpt>
      <trkpt lat="51.893236013129354" lon="11.039826041087508">
        <ele>140.49000000000001</ele>
        <time>2024-09-12T13:26:15Z</time>
      </trkpt>
      <trkpt lat="51.893290998414159" lon="11.039836015552282">
        <ele>140.00999999999999</ele>
        <time>2024-09-12T13:26:16Z</time>
      </trkpt>
      <trkpt lat="51.893274988979101" lon="11.039636023342609">
        <ele>139.53</ele>
        <time>2024-09-12T13:26:17Z</time>
      </trkpt>
      <trkpt lat="51.893307007849216" lon="11.039541978389025">
        <ele>138.56999999999999</ele>
        <time>2024-09-12T13:26:18Z</time>
      </trkpt>
      <trkpt lat="51.893342966213822" lon="11.039434019476175">
        <ele>138.09</ele>
        <time>2024-09-12T13:26:19Z</time>
      </trkpt>
      <trkpt lat="51.89337900839746" lon="11.039325976744294">
        <ele>137.61000000000001</ele>
        <time>2024-09-12T13:26:20Z</time>
      </trkpt>
      <trkpt lat="51.893418990075588" lon="11.039206031709909">
        <ele>137.13</ele>
        <time>2024-09-12T13:26:21Z</time>
      </trkpt>
      <trkpt lat="51.893468024209142" lon="11.038952982053161">
        <ele>135.68000000000001</ele>
        <time>2024-09-12T13:26:23Z</time>
      </trkpt>
      <trkpt lat="51.893528960645199" lon="11.037591006606817">
        <ele>129.43000000000001</ele>
        <time>2024-09-12T13:26:31Z</time>
      </trkpt>
      <trkpt lat="51.893531978130341" lon="11.037414986640215">
        <ele>128.94999999999999</ele>
        <time>2024-09-12T13:26:32Z</time>
      </trkpt>
      <trkpt lat="51.893533989787102" lon="11.037248019129038">
        <ele>127.98999999999999</ele>
        <time>2024-09-12T13:26:33Z</time>
      </trkpt>
      <trkpt lat="51.893540024757385" lon="11.037083985283971">
        <ele>127.51000000000001</ele>
        <time>2024-09-12T13:26:34Z</time>
      </trkpt>
      <trkpt lat="51.893546981737018" lon="11.036918023601174">
        <ele>127.51000000000001</ele>
        <time>2024-09-12T13:26:35Z</time>
      </trkpt>
      <trkpt lat="51.893554022535682" lon="11.036761030554771">
        <ele>127.03</ele>
        <time>2024-09-12T13:26:36Z</time>
      </trkpt>
      <trkpt lat="51.893603978678584" lon="11.036600014194846">
        <ele>126.55</ele>
        <time>2024-09-12T13:26:37Z</time>
      </trkpt>
      <trkpt lat="51.893664998933673" lon="11.036477973684669">
        <ele>125.59</ele>
        <time>2024-09-12T13:26:38Z</time>
      </trkpt>
      <trkpt lat="51.893728030845523" lon="11.036358028650284">
        <ele>125.11</ele>
        <time>2024-09-12T13:26:39Z</time>
      </trkpt>
      <trkpt lat="51.893814029172063" lon="11.036196006461978">
        <ele>124.63</ele>
        <time>2024-09-12T13:26:40Z</time>
      </trkpt>
      <trkpt lat="51.893878988921642" lon="11.036150995641947">
        <ele>124.15000000000001</ele>
        <time>2024-09-12T13:26:41Z</time>
      </trkpt>
      <trkpt lat="51.893965993076563" lon="11.036090981215239">
        <ele>123.67</ele>
        <time>2024-09-12T13:26:42Z</time>
      </trkpt>
      <trkpt lat="51.894501009956002" lon="11.035530986264348">
        <ele>120.78</ele>
        <time>2024-09-12T13:26:51Z</time>
      </trkpt>
      <trkpt lat="51.894541997462511" lon="11.035478012636304">
        <ele>119.81999999999999</ele>
        <time>2024-09-12T13:26:54Z</time>
      </trkpt>
      <trkpt lat="51.894541997462511" lon="11.035478012636304">
        <ele>119.34</ele>
        <time>2024-09-12T13:27:08Z</time>
      </trkpt>
      <trkpt lat="51.894767973572016" lon="11.035186992958188">
        <ele>118.86</ele>
        <time>2024-09-12T13:27:18Z</time>
      </trkpt>
      <trkpt lat="51.894852966070175" lon="11.035117004066706">
        <ele>118.86</ele>
        <time>2024-09-12T13:27:19Z</time>
      </trkpt>
      <trkpt lat="51.895709009841084" lon="11.03467402048409">
        <ele>117.42</ele>
        <time>2024-09-12T13:27:28Z</time>
      </trkpt>
      <trkpt lat="51.895990977063775" lon="11.03454602882266">
        <ele>117.42</ele>
        <time>2024-09-12T13:27:31Z</time>
      </trkpt>
      <trkpt lat="51.896082004532218" lon="11.034505041316152">
        <ele>117.42</ele>
        <time>2024-09-12T13:27:32Z</time>
      </trkpt>
      <trkpt lat="51.896466985344887" lon="11.03433002717793">
        <ele>117.42</ele>
        <time>2024-09-12T13:27:36Z</time>
      </trkpt>
      <trkpt lat="51.896561030298471" lon="11.03428702801466">
        <ele>117.42</ele>
        <time>2024-09-12T13:27:37Z</time>
      </trkpt>
      <trkpt lat="51.897023962810636" lon="11.033950997516513">
        <ele>118.38</ele>
        <time>2024-09-12T13:27:42Z</time>
      </trkpt>
      <trkpt lat="51.897099986672401" lon="11.033843960613012">
        <ele>118.38</ele>
        <time>2024-09-12T13:27:43Z</time>
      </trkpt>
      <trkpt lat="51.897179028019309" lon="11.033733990043402">
        <ele>118.38</ele>
        <time>2024-09-12T13:27:44Z</time>
      </trkpt>
      <trkpt lat="51.897658975794911" lon="11.032907031476498">
        <ele>116.94</ele>
        <time>2024-09-12T13:27:50Z</time>
      </trkpt>
      <trkpt lat="51.897744974121451" lon="11.032764036208391">
        <ele>116.45999999999999</ele>
        <time>2024-09-12T13:27:51Z</time>
      </trkpt>
      <trkpt lat="51.8987509701401" lon="11.031126966699958">
        <ele>110.69</ele>
        <time>2024-09-12T13:28:03Z</time>
      </trkpt>
      <trkpt lat="51.899703992530704" lon="11.029639011248946">
        <ele>109.73</ele>
        <time>2024-09-12T13:28:14Z</time>
      </trkpt>
      <trkpt lat="51.899903984740376" lon="11.029322007670999">
        <ele>109.73</ele>
        <time>2024-09-12T13:28:18Z</time>
      </trkpt>
      <trkpt lat="51.899928962811828" lon="11.029283031821251">
        <ele>109.73</ele>
        <time>2024-09-12T13:28:19Z</time>
      </trkpt>
      <trkpt lat="51.900066006928682" lon="11.029319996014237">
        <ele>109.73</ele>
        <time>2024-09-12T13:28:20Z</time>
      </trkpt>
      <trkpt lat="51.900073969736695" lon="11.029377998784184">
        <ele>110.20999999999999</ele>
        <time>2024-09-12T13:28:21Z</time>
      </trkpt>
      <trkpt lat="51.900080004706979" lon="11.029414962977171">
        <ele>110.20999999999999</ele>
        <time>2024-09-12T13:28:22Z</time>
      </trkpt>
      <trkpt lat="51.900068018585443" lon="11.02958302013576">
        <ele>110.20999999999999</ele>
        <time>2024-09-12T13:28:23Z</time>
      </trkpt>
      <trkpt lat="51.900059971958399" lon="11.029704976826906">
        <ele>110.20999999999999</ele>
        <time>2024-09-12T13:28:24Z</time>
      </trkpt>
      <trkpt lat="51.900049997493625" lon="11.029844032600522">
        <ele>110.20999999999999</ele>
        <time>2024-09-12T13:28:25Z</time>
      </trkpt>
      <trkpt lat="51.900040023028851" lon="11.029995996505022">
        <ele>110.69</ele>
        <time>2024-09-12T13:28:26Z</time>
      </trkpt>
      <trkpt lat="51.900028958916664" lon="11.030156007036567">
        <ele>110.69</ele>
        <time>2024-09-12T13:28:27Z</time>
      </trkpt>
      <trkpt lat="51.899909013882279" lon="11.032040007412434">
        <ele>113.56999999999999</ele>
        <time>2024-09-12T13:28:38Z</time>
      </trkpt>
      <trkpt lat="51.899886969476938" lon="11.032394981011748">
        <ele>113.56999999999999</ele>
        <time>2024-09-12T13:28:40Z</time>
      </trkpt>
      <trkpt lat="51.899874983355403" lon="11.032574018463492">
        <ele>113.09</ele>
        <time>2024-09-12T13:28:41Z</time>
      </trkpt>
      <trkpt lat="51.899819998070598" lon="11.033434001728892">
        <ele>110.20999999999999</ele>
        <time>2024-09-12T13:28:46Z</time>
      </trkpt>
      <trkpt lat="51.899810023605824" lon="11.033599963411689">
        <ele>109.73</ele>
        <time>2024-09-12T13:28:47Z</time>
      </trkpt>
      <trkpt lat="51.899798959493637" lon="11.033776989206672">
        <ele>108.77</ele>
        <time>2024-09-12T13:28:48Z</time>
      </trkpt>
      <trkpt lat="51.899775993078947" lon="11.034134980291128">
        <ele>107.81</ele>
        <time>2024-09-12T13:28:50Z</time>
      </trkpt>
      <trkpt lat="51.899764006957412" lon="11.034313011914492">
        <ele>106.84</ele>
        <time>2024-09-12T13:28:51Z</time>
      </trkpt>
      <trkpt lat="51.899731988087296" lon="11.034822966903448">
        <ele>105.40000000000001</ele>
        <time>2024-09-12T13:28:54Z</time>
      </trkpt>
      <trkpt lat="51.89965202473104" lon="11.0360739659518">
        <ele>103</ele>
        <time>2024-09-12T13:29:02Z</time>
      </trkpt>
      <trkpt lat="51.899638026952744" lon="11.036302037537098">
        <ele>103</ele>
        <time>2024-09-12T13:29:05Z</time>
      </trkpt>
      <trkpt lat="51.899637021124363" lon="11.036441009491682">
        <ele>103.48</ele>
        <time>2024-09-12T13:29:06Z</time>
      </trkpt>
      <trkpt lat="51.899689994752407" lon="11.03650102391839">
        <ele>103.48</ele>
        <time>2024-09-12T13:29:07Z</time>
      </trkpt>
      <trkpt lat="51.899747997522354" lon="11.036567995324731">
        <ele>103.48</ele>
        <time>2024-09-12T13:29:08Z</time>
      </trkpt>
      <trkpt lat="51.899779010564089" lon="11.036604037508368">
        <ele>103.48</ele>
        <time>2024-09-12T13:29:09Z</time>
      </trkpt>
      <trkpt lat="51.89984698779881" lon="11.03673898614943">
        <ele>103.48</ele>
        <time>2024-09-12T13:29:10Z</time>
      </trkpt>
      <trkpt lat="51.899893004447222" lon="11.036831019446254">
        <ele>103</ele>
        <time>2024-09-12T13:29:11Z</time>
      </trkpt>
      <trkpt lat="51.900129960849881" lon="11.0373380407691">
        <ele>103.48</ele>
        <time>2024-09-12T13:29:20Z</time>
      </trkpt>
      <trkpt lat="51.900129960849881" lon="11.0373380407691">
        <ele>103.48</ele>
        <time>2024-09-12T13:29:36Z</time>
      </trkpt>
      <trkpt lat="51.900186035782099" lon="11.037461003288627">
        <ele>102.52</ele>
        <time>2024-09-12T13:30:00Z</time>
      </trkpt>
      <trkpt lat="51.900218976661563" lon="11.037536021322012">
        <ele>102.52</ele>
        <time>2024-09-12T13:30:01Z</time>
      </trkpt>
      <trkpt lat="51.900345962494612" lon="11.037559993565083">
        <ele>102.52</ele>
        <time>2024-09-12T13:30:02Z</time>
      </trkpt>
      <trkpt lat="51.900384016335011" lon="11.03751003742218">
        <ele>102.52</ele>
        <time>2024-09-12T13:30:03Z</time>
      </trkpt>
      <trkpt lat="51.900439001619816" lon="11.037438958883286">
        <ele>102.52</ele>
        <time>2024-09-12T13:30:04Z</time>
      </trkpt>
      <trkpt lat="51.900508990511298" lon="11.037348015233874">
        <ele>102.52</ele>
        <time>2024-09-12T13:30:05Z</time>
      </trkpt>
      <trkpt lat="51.901280963793397" lon="11.036342019215226">
        <ele>103</ele>
        <time>2024-09-12T13:30:13Z</time>
      </trkpt>
      <trkpt lat="51.902419980615377" lon="11.034856997430325">
        <ele>105.40000000000001</ele>
        <time>2024-09-12T13:30:24Z</time>
      </trkpt>
      <trkpt lat="51.903293961659074" lon="11.03370800614357">
        <ele>109.73</ele>
        <time>2024-09-12T13:30:33Z</time>
      </trkpt>
      <trkpt lat="51.904098959639668" lon="11.032534958794713">
        <ele>114.05</ele>
        <time>2024-09-12T13:30:42Z</time>
      </trkpt>
      <trkpt lat="51.904178000986576" lon="11.03239799849689">
        <ele>115.01000000000001</ele>
        <time>2024-09-12T13:30:43Z</time>
      </trkpt>
      <trkpt lat="51.904201973229647" lon="11.032194988802075">
        <ele>115.98</ele>
        <time>2024-09-12T13:30:44Z</time>
      </trkpt>
      <trkpt lat="51.904226029291749" lon="11.031997008249164">
        <ele>116.94</ele>
        <time>2024-09-12T13:30:45Z</time>
      </trkpt>
      <trkpt lat="51.90425000153482" lon="11.031798021867871">
        <ele>117.90000000000001</ele>
        <time>2024-09-12T13:30:46Z</time>
      </trkpt>
      <trkpt lat="51.90427296794951" lon="11.031601969152689">
        <ele>118.86</ele>
        <time>2024-09-12T13:30:47Z</time>
      </trkpt>
      <trkpt lat="51.904304986819625" lon="11.031404994428158">
        <ele>119.34</ele>
        <time>2024-09-12T13:30:48Z</time>
      </trkpt>
      <trkpt lat="51.904343962669373" lon="11.031218999996781">
        <ele>120.3</ele>
        <time>2024-09-12T13:30:49Z</time>
      </trkpt>
      <trkpt lat="51.904404982924461" lon="11.031052032485604">
        <ele>120.78</ele>
        <time>2024-09-12T13:30:50Z</time>
      </trkpt>
      <trkpt lat="51.904499027878046" lon="11.030949018895626">
        <ele>121.26000000000001</ele>
        <time>2024-09-12T13:30:51Z</time>
      </trkpt>
      <trkpt lat="51.904589971527457" lon="11.03085296228528">
        <ele>122.22</ele>
        <time>2024-09-12T13:30:52Z</time>
      </trkpt>
      <trkpt lat="51.904692985117435" lon="11.03084902279079">
        <ele>122.70999999999999</ele>
        <time>2024-09-12T13:30:53Z</time>
      </trkpt>
      <trkpt lat="51.904801027849317" lon="11.030843993648887">
        <ele>123.67</ele>
        <time>2024-09-12T13:30:54Z</time>
      </trkpt>
      <trkpt lat="51.904914015904069" lon="11.030839970335364">
        <ele>124.15000000000001</ele>
        <time>2024-09-12T13:30:55Z</time>
      </trkpt>
      <trkpt lat="51.905029015615582" lon="11.030835025012493">
        <ele>124.63</ele>
        <time>2024-09-12T13:30:56Z</time>
      </trkpt>
      <trkpt lat="51.905384995043278" lon="11.030810968950391">
        <ele>125.11</ele>
        <time>2024-09-12T13:30:59Z</time>
      </trkpt>
      <trkpt lat="51.905476022511721" lon="11.03072103112936">
        <ele>125.59</ele>
        <time>2024-09-12T13:31:00Z</time>
      </trkpt>
      <trkpt lat="51.905568977817893" lon="11.030609970912337">
        <ele>125.59</ele>
        <time>2024-09-12T13:31:01Z</time>
      </trkpt>
      <trkpt lat="51.905665034428239" lon="11.030495977029204">
        <ele>125.59</ele>
        <time>2024-09-12T13:31:02Z</time>
      </trkpt>
      <trkpt lat="51.905761007219553" lon="11.030380977317691">
        <ele>125.59</ele>
        <time>2024-09-12T13:31:03Z</time>
      </trkpt>
      <trkpt lat="51.906897006556392" lon="11.028859997168183">
        <ele>125.11</ele>
        <time>2024-09-12T13:31:15Z</time>
      </trkpt>
      <trkpt lat="51.908158985897899" lon="11.027254024520516">
        <ele>126.55</ele>
        <time>2024-09-12T13:31:28Z</time>
      </trkpt>
      <trkpt lat="51.909309988841414" lon="11.025776965543628">
        <ele>126.06999999999999</ele>
        <time>2024-09-12T13:31:40Z</time>
      </trkpt>
      <trkpt lat="51.910362001508474" lon="11.024406021460891">
        <ele>127.03</ele>
        <time>2024-09-12T13:31:51Z</time>
      </trkpt>
      <trkpt lat="51.911193989217281" lon="11.023324001580477">
        <ele>128.47</ele>
        <time>2024-09-12T13:32:01Z</time>
      </trkpt>
      <trkpt lat="51.911442009732127" lon="11.023010015487671">
        <ele>129.43000000000001</ele>
        <time>2024-09-12T13:32:07Z</time>
      </trkpt>
      <trkpt lat="51.911550974473357" lon="11.022878000512719">
        <ele>129.43000000000001</ele>
        <time>2024-09-12T13:32:09Z</time>
      </trkpt>
      <trkpt lat="51.912181964144111" lon="11.022059004753828">
        <ele>130.40000000000001</ele>
        <time>2024-09-12T13:32:17Z</time>
      </trkpt>
      <trkpt lat="51.912962989881635" lon="11.021050997078419">
        <ele>129.43000000000001</ele>
        <time>2024-09-12T13:32:26Z</time>
      </trkpt>
      <trkpt lat="51.913781985640526" lon="11.019994039088488">
        <ele>127.03</ele>
        <time>2024-09-12T13:32:36Z</time>
      </trkpt>
      <trkpt lat="51.914237039163709" lon="11.019405964761972">
        <ele>125.59</ele>
        <time>2024-09-12T13:32:41Z</time>
      </trkpt>
      <trkpt lat="51.91548996604979" lon="11.017750035971403">
        <ele>123.67</ele>
        <time>2024-09-12T13:32:54Z</time>
      </trkpt>
      <trkpt lat="51.916642980650067" lon="11.01624196395278">
        <ele>125.11</ele>
        <time>2024-09-12T13:33:03Z</time>
      </trkpt>
      <trkpt lat="51.918112998828292" lon="11.014316976070404">
        <ele>125.59</ele>
        <time>2024-09-12T13:33:13Z</time>
      </trkpt>
      <trkpt lat="51.919466005638242" lon="11.012548981234431">
        <ele>126.55</ele>
        <time>2024-09-12T13:33:21Z</time>
      </trkpt>
      <trkpt lat="51.921284962445498" lon="11.010171035304666">
        <ele>125.11</ele>
        <time>2024-09-12T13:33:31Z</time>
      </trkpt>
      <trkpt lat="51.924496991559863" lon="11.005999026820064">
        <ele>132.31999999999999</ele>
        <time>2024-09-12T13:33:49Z</time>
      </trkpt>
      <trkpt lat="51.927816979587078" lon="11.001681005582213">
        <ele>140.97</ele>
        <time>2024-09-12T13:34:07Z</time>
      </trkpt>
      <trkpt lat="51.931216008961201" lon="10.997252007946372">
        <ele>147.69999999999999</ele>
        <time>2024-09-12T13:34:25Z</time>
      </trkpt>
      <trkpt lat="51.933954041451216" lon="10.993678970262408">
        <ele>152.50999999999999</ele>
        <time>2024-09-12T13:34:39Z</time>
      </trkpt>
      <trkpt lat="51.935523971915245" lon="10.991631019860506">
        <ele>156.83000000000001</ele>
        <time>2024-09-12T13:34:48Z</time>
      </trkpt>
      <trkpt lat="51.936394013464451" lon="10.990518992766738">
        <ele>160.19999999999999</ele>
        <time>2024-09-12T13:34:56Z</time>
      </trkpt>
      <trkpt lat="51.936568021774292" lon="10.990281030535698">
        <ele>161.16</ele>
        <time>2024-09-12T13:34:58Z</time>
      </trkpt>
      <trkpt lat="51.937049981206656" lon="10.989646017551422">
        <ele>164.03999999999999</ele>
        <time>2024-09-12T13:35:03Z</time>
      </trkpt>
      <trkpt lat="51.938668023794889" lon="10.987522965297103">
        <ele>173.16999999999999</ele>
        <time>2024-09-12T13:35:20Z</time>
      </trkpt>
      <trkpt lat="51.939261965453625" lon="10.9862279612571">
        <ele>176.06</ele>
        <time>2024-09-12T13:35:29Z</time>
      </trkpt>
      <trkpt lat="51.939283004030585" lon="10.986135005950928">
        <ele>176.06</ele>
        <time>2024-09-12T13:35:30Z</time>
      </trkpt>
      <trkpt lat="51.939270012080669" lon="10.986046995967627">
        <ele>176.06</ele>
        <time>2024-09-12T13:35:31Z</time>
      </trkpt>
      <trkpt lat="51.939247967675328" lon="10.985907018184662">
        <ele>176.06</ele>
        <time>2024-09-12T13:35:32Z</time>
      </trkpt>
      <trkpt lat="51.939216032624245" lon="10.985790006816387">
        <ele>176.06</ele>
        <time>2024-09-12T13:35:33Z</time>
      </trkpt>
      <trkpt lat="51.93916498683393" lon="10.985651034861803">
        <ele>175.58000000000001</ele>
        <time>2024-09-12T13:35:34Z</time>
      </trkpt>
      <trkpt lat="51.938574984669685" lon="10.984268020838499">
        <ele>171.72999999999999</ele>
        <time>2024-09-12T13:35:42Z</time>
      </trkpt>
      <trkpt lat="51.937554990872741" lon="10.982300033792853">
        <ele>175.09999999999999</ele>
        <time>2024-09-12T13:35:52Z</time>
      </trkpt>
      <trkpt lat="51.936497027054429" lon="10.980193996801972">
        <ele>172.21000000000001</ele>
        <time>2024-09-12T13:36:00Z</time>
      </trkpt>
      <trkpt lat="51.934770019724965" lon="10.976755991578102">
        <ele>164.03999999999999</ele>
        <time>2024-09-12T13:36:11Z</time>
      </trkpt>
      <trkpt lat="51.932946033775806" lon="10.973127968609333">
        <ele>161.16</ele>
        <time>2024-09-12T13:36:22Z</time>
      </trkpt>
      <trkpt lat="51.931574000045657" lon="10.970260016620159">
        <ele>159.72</ele>
        <time>2024-09-12T13:36:31Z</time>
      </trkpt>
      <trkpt lat="51.931476015597582" lon="10.969933960586786">
        <ele>159.24000000000001</ele>
        <time>2024-09-12T13:36:32Z</time>
      </trkpt>
      <trkpt lat="51.931404015049338" lon="10.969588961452246">
        <ele>159.24000000000001</ele>
        <time>2024-09-12T13:36:33Z</time>
      </trkpt>
      <trkpt lat="51.931338971480727" lon="10.96923197619617">
        <ele>158.75</ele>
        <time>2024-09-12T13:36:34Z</time>
      </trkpt>
      <trkpt lat="51.93129999563098" lon="10.96886501647532">
        <ele>158.75</ele>
        <time>2024-09-12T13:36:35Z</time>
      </trkpt>
      <trkpt lat="51.930964970961213" lon="10.965202962979674">
        <ele>159.72</ele>
        <time>2024-09-12T13:36:45Z</time>
      </trkpt>
      <trkpt lat="51.930693984031677" lon="10.963595984503627">
        <ele>161.16</ele>
        <time>2024-09-12T13:36:50Z</time>
      </trkpt>
      <trkpt lat="51.93067797459662" lon="10.963289039209485">
        <ele>161.16</ele>
        <time>2024-09-12T13:36:51Z</time>
      </trkpt>
      <trkpt lat="51.93067797459662" lon="10.962983015924692">
        <ele>161.16</ele>
        <time>2024-09-12T13:36:52Z</time>
      </trkpt>
      <trkpt lat="51.930706975981593" lon="10.962665006518364">
        <ele>161.63999999999999</ele>
        <time>2024-09-12T13:36:53Z</time>
      </trkpt>
      <trkpt lat="51.930776964873075" lon="10.962364012375474">
        <ele>161.63999999999999</ele>
        <time>2024-09-12T13:36:54Z</time>
      </trkpt>
      <trkpt lat="51.930848965421319" lon="10.96205597743392">
        <ele>162.12</ele>
        <time>2024-09-12T13:36:55Z</time>
      </trkpt>
      <trkpt lat="51.930921971797943" lon="10.961742997169495">
        <ele>162.59999999999999</ele>
        <time>2024-09-12T13:36:56Z</time>
      </trkpt>
      <trkpt lat="51.931963004171848" lon="10.957388011738658">
        <ele>165.47999999999999</ele>
        <time>2024-09-12T13:37:09Z</time>
      </trkpt>
      <trkpt lat="51.932614026591182" lon="10.954772019758821">
        <ele>165</ele>
        <time>2024-09-12T13:37:18Z</time>
      </trkpt>
      <trkpt lat="51.93297503516078" lon="10.953350029885769">
        <ele>165.96000000000001</ele>
        <time>2024-09-12T13:37:26Z</time>
      </trkpt>
      <trkpt lat="51.933274017646909" lon="10.952169019728899">
        <ele>165.47999999999999</ele>
        <time>2024-09-12T13:37:35Z</time>
      </trkpt>
      <trkpt lat="51.933490019291639" lon="10.951127987354994">
        <ele>165</ele>
        <time>2024-09-12T13:37:43Z</time>
      </trkpt>
      <trkpt lat="51.933519020676613" lon="10.950846020132303">
        <ele>165</ele>
        <time>2024-09-12T13:37:45Z</time>
      </trkpt>
      <trkpt lat="51.933580962941051" lon="10.950435977429152">
        <ele>165.47999999999999</ele>
        <time>2024-09-12T13:37:48Z</time>
      </trkpt>
      <trkpt lat="51.933614993467927" lon="10.950211007148027">
        <ele>165.96000000000001</ele>
        <time>2024-09-12T13:37:50Z</time>
      </trkpt>
      <trkpt lat="51.933639971539378" lon="10.95004303380847">
        <ele>166.44999999999999</ele>
        <time>2024-09-12T13:37:51Z</time>
      </trkpt>
      <trkpt lat="51.933628991246223" lon="10.949989976361394">
        <ele>166.44999999999999</ele>
        <time>2024-09-12T13:37:52Z</time>
      </trkpt>
      <trkpt lat="51.933548022061586" lon="10.949952006340027">
        <ele>166.44999999999999</ele>
        <time>2024-09-12T13:37:53Z</time>
      </trkpt>
      <trkpt lat="51.933510974049568" lon="10.949914958328009">
        <ele>166.93000000000001</ele>
        <time>2024-09-12T13:37:54Z</time>
      </trkpt>
      <trkpt lat="51.933417012915015" lon="10.949871959164739">
        <ele>166.93000000000001</ele>
        <time>2024-09-12T13:37:55Z</time>
      </trkpt>
      <trkpt lat="51.933330008760095" lon="10.94983197748661">
        <ele>166.93000000000001</ele>
        <time>2024-09-12T13:37:56Z</time>
      </trkpt>
      <trkpt lat="51.933239987120032" lon="10.949790989980102">
        <ele>166.93000000000001</ele>
        <time>2024-09-12T13:37:57Z</time>
      </trkpt>
      <trkpt lat="51.933136973530054" lon="10.949742961674929">
        <ele>166.44999999999999</ele>
        <time>2024-09-12T13:37:58Z</time>
      </trkpt>
      <trkpt lat="51.933023985475302" lon="10.949690993875265">
        <ele>165.96000000000001</ele>
        <time>2024-09-12T13:37:59Z</time>
      </trkpt>
      <trkpt lat="51.932918960228562" lon="10.949595021083951">
        <ele>165.96000000000001</ele>
        <time>2024-09-12T13:38:00Z</time>
      </trkpt>
      <trkpt lat="51.932827010750771" lon="10.949495024979115">
        <ele>165.96000000000001</ele>
        <time>2024-09-12T13:38:01Z</time>
      </trkpt>
      <trkpt lat="51.932627018541098" lon="10.949277011677623">
        <ele>166.44999999999999</ele>
        <time>2024-09-12T13:38:04Z</time>
      </trkpt>
      <trkpt lat="51.932586031034589" lon="10.949233006685972">
        <ele>166.44999999999999</ele>
        <time>2024-09-12T13:38:05Z</time>
      </trkpt>
      <trkpt lat="51.932553006336093" lon="10.949080036953092">
        <ele>166.44999999999999</ele>
        <time>2024-09-12T13:38:06Z</time>
      </trkpt>
      <trkpt lat="51.932585025206208" lon="10.949040977284312">
        <ele>166.44999999999999</ele>
        <time>2024-09-12T13:38:07Z</time>
      </trkpt>
      <trkpt lat="51.932631963863969" lon="10.948982974514365">
        <ele>165.96000000000001</ele>
        <time>2024-09-12T13:38:08Z</time>
      </trkpt>
      <trkpt lat="51.932698013260961" lon="10.948900999501348">
        <ele>166.44999999999999</ele>
        <time>2024-09-12T13:38:09Z</time>
      </trkpt>
      <trkpt lat="51.932781999930739" lon="10.948797985911369">
        <ele>165.96000000000001</ele>
        <time>2024-09-12T13:38:10Z</time>
      </trkpt>
      <trkpt lat="51.933687999844551" lon="10.947533994913101">
        <ele>167.88999999999999</ele>
        <time>2024-09-12T13:38:19Z</time>
      </trkpt>
      <trkpt lat="51.933766035363078" lon="10.947348000481725">
        <ele>167.88999999999999</ele>
        <time>2024-09-12T13:38:20Z</time>
      </trkpt>
      <trkpt lat="51.933849016204476" lon="10.947153959423304">
        <ele>168.37</ele>
        <time>2024-09-12T13:38:21Z</time>
      </trkpt>
      <trkpt lat="51.933912970125675" lon="10.946948016062379">
        <ele>168.37</ele>
        <time>2024-09-12T13:38:22Z</time>
      </trkpt>
      <trkpt lat="51.933954963460565" lon="10.946707036346197">
        <ele>168.84999999999999</ele>
        <time>2024-09-12T13:38:23Z</time>
      </trkpt>
      <trkpt lat="51.933997962623835" lon="10.94645700417459">
        <ele>168.84999999999999</ele>
        <time>2024-09-12T13:38:24Z</time>
      </trkpt>
      <trkpt lat="51.934042973443866" lon="10.94619800336659">
        <ele>169.33000000000001</ele>
        <time>2024-09-12T13:38:25Z</time>
      </trkpt>
      <trkpt lat="51.934398030862212" lon="10.943689970299602">
        <ele>172.21000000000001</ele>
        <time>2024-09-12T13:38:33Z</time>
      </trkpt>
      <trkpt lat="51.934898011386395" lon="10.940102012827992">
        <ele>176.06</ele>
        <time>2024-09-12T13:38:42Z</time>
      </trkpt>
      <trkpt lat="51.935508968308568" lon="10.935606965795159">
        <ele>179.90000000000001</ele>
        <time>2024-09-12T13:38:52Z</time>
      </trkpt>
      <trkpt lat="51.936146998777986" lon="10.930603975430131">
        <ele>175.09999999999999</ele>
        <time>2024-09-12T13:39:03Z</time>
      </trkpt>
      <trkpt lat="51.936208019033074" lon="10.927928974851966">
        <ele>175.58000000000001</ele>
        <time>2024-09-12T13:39:09Z</time>
      </trkpt>
      <trkpt lat="51.936226040124893" lon="10.923367962241173">
        <ele>177.97999999999999</ele>
        <time>2024-09-12T13:39:19Z</time>
      </trkpt>
      <trkpt lat="51.93658503703773" lon="10.918604023754597">
        <ele>176.53999999999999</ele>
        <time>2024-09-12T13:39:30Z</time>
      </trkpt>
      <trkpt lat="51.936711017042398" lon="10.91704398393631">
        <ele>180.38</ele>
        <time>2024-09-12T13:39:36Z</time>
      </trkpt>
      <trkpt lat="51.936875972896814" lon="10.915108015760779">
        <ele>180.87</ele>
        <time>2024-09-12T13:39:46Z</time>
      </trkpt>
      <trkpt lat="51.936932969838381" lon="10.914500998333097">
        <ele>181.34999999999999</ele>
        <time>2024-09-12T13:39:49Z</time>
      </trkpt>
      <trkpt lat="51.937054004520178" lon="10.913727013394237">
        <ele>180.87</ele>
        <time>2024-09-12T13:39:53Z</time>
      </trkpt>
      <trkpt lat="51.937202028930187" lon="10.91272403486073">
        <ele>180.87</ele>
        <time>2024-09-12T13:40:00Z</time>
      </trkpt>
      <trkpt lat="51.937293978407979" lon="10.912029007449746">
        <ele>181.34999999999999</ele>
        <time>2024-09-12T13:40:06Z</time>
      </trkpt>
      <trkpt lat="51.937308982014656" lon="10.91190897859633">
        <ele>181.34999999999999</ele>
        <time>2024-09-12T13:40:07Z</time>
      </trkpt>
      <trkpt lat="51.937690023332834" lon="10.910594025626779">
        <ele>181.83000000000001</ele>
        <time>2024-09-12T13:40:17Z</time>
      </trkpt>
      <trkpt lat="51.937813991680741" lon="10.910379029810429">
        <ele>181.83000000000001</ele>
        <time>2024-09-12T13:40:19Z</time>
      </trkpt>
      <trkpt lat="51.93787400610745" lon="10.910289008170366">
        <ele>181.83000000000001</ele>
        <time>2024-09-12T13:40:20Z</time>
      </trkpt>
      <trkpt lat="51.937947012484074" lon="10.910208038985729">
        <ele>182.31</ele>
        <time>2024-09-12T13:40:21Z</time>
      </trkpt>
      <trkpt lat="51.938034016638994" lon="10.910152969881892">
        <ele>182.31</ele>
        <time>2024-09-12T13:40:22Z</time>
      </trkpt>
      <trkpt lat="51.938127977773547" lon="10.910093039274216">
        <ele>182.31</ele>
        <time>2024-09-12T13:40:23Z</time>
      </trkpt>
      <trkpt lat="51.93823903799057" lon="10.910046016797423">
        <ele>182.78999999999999</ele>
        <time>2024-09-12T13:40:24Z</time>
      </trkpt>
      <trkpt lat="51.938513964414597" lon="10.909925987944007">
        <ele>183.75</ele>
        <time>2024-09-12T13:40:27Z</time>
      </trkpt>
      <trkpt lat="51.938594011589885" lon="10.909879971295595">
        <ele>184.22999999999999</ele>
        <time>2024-09-12T13:40:28Z</time>
      </trkpt>
      <trkpt lat="51.938662994652987" lon="10.909815011546016">
        <ele>184.71000000000001</ele>
        <time>2024-09-12T13:40:29Z</time>
      </trkpt>
      <trkpt lat="51.9387779943645" lon="10.909628011286259">
        <ele>185.19</ele>
        <time>2024-09-12T13:40:31Z</time>
      </trkpt>
      <trkpt lat="51.938883019611239" lon="10.909601021558046">
        <ele>185.66999999999999</ele>
        <time>2024-09-12T13:40:32Z</time>
      </trkpt>
      <trkpt lat="51.938945967704058" lon="10.909624993801117">
        <ele>186.15000000000001</ele>
        <time>2024-09-12T13:40:33Z</time>
      </trkpt>
      <trkpt lat="51.939027020707726" lon="10.909656006842852">
        <ele>186.63</ele>
        <time>2024-09-12T13:40:34Z</time>
      </trkpt>
      <trkpt lat="51.939122993499041" lon="10.909691965207458">
        <ele>187.59</ele>
        <time>2024-09-12T13:40:35Z</time>
      </trkpt>
      <trkpt lat="51.940267961472273" lon="10.910021960735321">
        <ele>193.84</ele>
        <time>2024-09-12T13:40:45Z</time>
      </trkpt>
      <trkpt lat="51.942002009600401" lon="10.910505009815097">
        <ele>200.56999999999999</ele>
        <time>2024-09-12T13:40:59Z</time>
      </trkpt>
      <trkpt lat="51.942445999011397" lon="10.910573992878199">
        <ele>201.05000000000001</ele>
        <time>2024-09-12T13:41:02Z</time>
      </trkpt>
      <trkpt lat="51.942603997886181" lon="10.910543985664845">
        <ele>201.05000000000001</ele>
        <time>2024-09-12T13:41:03Z</time>
      </trkpt>
      <trkpt lat="51.943957004696131" lon="10.910072000697255">
        <ele>203.46000000000001</ele>
        <time>2024-09-12T13:41:10Z</time>
      </trkpt>
      <trkpt lat="51.946502001956105" lon="10.909187039360404">
        <ele>217.40000000000001</ele>
        <time>2024-09-12T13:41:22Z</time>
      </trkpt>
      <trkpt lat="51.948353983461857" lon="10.908594019711018">
        <ele>233.25999999999999</ele>
        <time>2024-09-12T13:41:31Z</time>
      </trkpt>
      <trkpt lat="51.948522962629795" lon="10.908620003610849">
        <ele>234.69999999999999</ele>
        <time>2024-09-12T13:41:32Z</time>
      </trkpt>
      <trkpt lat="51.948694037273526" lon="10.908671971410513">
        <ele>236.62</ele>
        <time>2024-09-12T13:41:33Z</time>
      </trkpt>
      <trkpt lat="51.948873996734619" lon="10.908776996657252">
        <ele>238.06</ele>
        <time>2024-09-12T13:41:34Z</time>
      </trkpt>
      <trkpt lat="51.949060996994376" lon="10.908886967226863">
        <ele>239.99000000000001</ele>
        <time>2024-09-12T13:41:35Z</time>
      </trkpt>
      <trkpt lat="51.950332028791308" lon="10.909644020721316">
        <ele>252</ele>
        <time>2024-09-12T13:41:42Z</time>
      </trkpt>
      <trkpt lat="51.951116994023323" lon="10.910267969593406">
        <ele>261.62</ele>
        <time>2024-09-12T13:41:48Z</time>
      </trkpt>
      <trkpt lat="51.951227970421314" lon="10.910407025367022">
        <ele>263.06</ele>
        <time>2024-09-12T13:41:49Z</time>
      </trkpt>
      <trkpt lat="51.951584033668041" lon="10.910781025886536">
        <ele>267.86000000000001</ele>
        <time>2024-09-12T13:41:52Z</time>
      </trkpt>
      <trkpt lat="51.951723005622625" lon="10.910867024213076">
        <ele>269.31</ele>
        <time>2024-09-12T13:41:53Z</time>
      </trkpt>
      <trkpt lat="51.951873041689396" lon="10.910915974527597">
        <ele>270.26999999999998</ele>
        <time>2024-09-12T13:41:54Z</time>
      </trkpt>
      <trkpt lat="51.953034019097686" lon="10.911223003640771">
        <ele>277.95999999999998</ele>
        <time>2024-09-12T13:42:00Z</time>
      </trkpt>
      <trkpt lat="51.955045005306602" lon="10.911760032176971">
        <ele>282.27999999999997</ele>
        <time>2024-09-12T13:42:09Z</time>
      </trkpt>
      <trkpt lat="51.955375000834465" lon="10.911724995821714">
        <ele>281.80000000000001</ele>
        <time>2024-09-12T13:42:11Z</time>
      </trkpt>
      <trkpt lat="51.955524031072855" lon="10.911657018586993">
        <ele>281.80000000000001</ele>
        <time>2024-09-12T13:42:12Z</time>
      </trkpt>
      <trkpt lat="51.955670965835452" lon="10.911541013047099">
        <ele>281.80000000000001</ele>
        <time>2024-09-12T13:42:13Z</time>
      </trkpt>
      <trkpt lat="51.95583701133728" lon="10.911408998072147">
        <ele>281.31999999999999</ele>
        <time>2024-09-12T13:42:14Z</time>
      </trkpt>
      <trkpt lat="51.956013031303883" lon="10.911268014460802">
        <ele>281.31999999999999</ele>
        <time>2024-09-12T13:42:15Z</time>
      </trkpt>
      <trkpt lat="51.957655968144536" lon="10.909765977412462">
        <ele>281.80000000000001</ele>
        <time>2024-09-12T13:42:24Z</time>
      </trkpt>
      <trkpt lat="51.95826499722898" lon="10.909253004938364">
        <ele>280.36000000000001</ele>
        <time>2024-09-12T13:42:29Z</time>
      </trkpt>
      <trkpt lat="51.958354013040662" lon="10.90926599688828">
        <ele>279.88</ele>
        <time>2024-09-12T13:42:30Z</time>
      </trkpt>
      <trkpt lat="51.958402041345835" lon="10.909273959696293">
        <ele>279.88</ele>
        <time>2024-09-12T13:42:31Z</time>
      </trkpt>
      <trkpt lat="51.958550987765193" lon="10.909379990771413">
        <ele>279.39999999999998</ele>
        <time>2024-09-12T13:42:32Z</time>
      </trkpt>
      <trkpt lat="51.958702029660344" lon="10.909486021846533">
        <ele>279.39999999999998</ele>
        <time>2024-09-12T13:42:33Z</time>
      </trkpt>
      <trkpt lat="51.959581961855292" lon="10.910110976547003">
        <ele>276.51999999999998</ele>
        <time>2024-09-12T13:42:39Z</time>
      </trkpt>
      <trkpt lat="51.959647005423903" lon="10.910269981250167">
        <ele>276.04000000000002</ele>
        <time>2024-09-12T13:42:40Z</time>
      </trkpt>
      <trkpt lat="51.959722023457289" lon="10.910452958196402">
        <ele>275.56</ele>
        <time>2024-09-12T13:42:41Z</time>
      </trkpt>
      <trkpt lat="51.959774997085333" lon="10.910582961514592">
        <ele>275.06999999999999</ele>
        <time>2024-09-12T13:42:42Z</time>
      </trkpt>
      <trkpt lat="51.959799975156784" lon="10.910853026434779">
        <ele>274.11000000000001</ele>
        <time>2024-09-12T13:42:43Z</time>
      </trkpt>
      <trkpt lat="51.959823025390506" lon="10.911090988665819">
        <ele>273.14999999999998</ele>
        <time>2024-09-12T13:42:44Z</time>
      </trkpt>
      <trkpt lat="51.959839034825563" lon="10.911269020289183">
        <ele>272.19</ele>
        <time>2024-09-12T13:42:45Z</time>
      </trkpt>
      <trkpt lat="51.959796035662293" lon="10.911548975855112">
        <ele>271.23000000000002</ele>
        <time>2024-09-12T13:42:46Z</time>
      </trkpt>
      <trkpt lat="51.959753036499023" lon="10.911818034946918">
        <ele>270.75</ele>
        <time>2024-09-12T13:42:47Z</time>
      </trkpt>
      <trkpt lat="51.95961800403893" lon="10.912677012383938">
        <ele>268.35000000000002</ele>
        <time>2024-09-12T13:42:50Z</time>
      </trkpt>
      <trkpt lat="51.959583973512053" lon="10.912980018183589">
        <ele>267.38</ele>
        <time>2024-09-12T13:42:51Z</time>
      </trkpt>
      <trkpt lat="51.959497975185513" lon="10.913880988955498">
        <ele>264.5</ele>
        <time>2024-09-12T13:42:54Z</time>
      </trkpt>
      <trkpt lat="51.959471991285682" lon="10.914149964228272">
        <ele>263.54000000000002</ele>
        <time>2024-09-12T13:42:55Z</time>
      </trkpt>
      <trkpt lat="51.959449024870992" lon="10.914388010278344">
        <ele>262.57999999999998</ele>
        <time>2024-09-12T13:42:56Z</time>
      </trkpt>
      <trkpt lat="51.959434021264315" lon="10.914602000266314">
        <ele>262.10000000000002</ele>
        <time>2024-09-12T13:42:57Z</time>
      </trkpt>
      <trkpt lat="51.959448019042611" lon="10.914772991091013">
        <ele>260.64999999999998</ele>
        <time>2024-09-12T13:42:58Z</time>
      </trkpt>
      <trkpt lat="51.959498981013894" lon="10.914904000237584">
        <ele>259.69</ele>
        <time>2024-09-12T13:42:59Z</time>
      </trkpt>
      <trkpt lat="51.959569975733757" lon="10.915017994120717">
        <ele>258.73000000000002</ele>
        <time>2024-09-12T13:43:00Z</time>
      </trkpt>
      <trkpt lat="51.959667960181832" lon="10.91517498716712">
        <ele>258.25</ele>
        <time>2024-09-12T13:43:01Z</time>
      </trkpt>
      <trkpt lat="51.959774997085333" lon="10.915241036564112">
        <ele>257.76999999999998</ele>
        <time>2024-09-12T13:43:02Z</time>
      </trkpt>
      <trkpt lat="51.960569014772773" lon="10.915732970461249">
        <ele>253.44</ele>
        <time>2024-09-12T13:43:08Z</time>
      </trkpt>
      <trkpt lat="51.960657024756074" lon="10.915935980156064">
        <ele>252.96000000000001</ele>
        <time>2024-09-12T13:43:09Z</time>
      </trkpt>
      <trkpt lat="51.960738999769092" lon="10.916124992072582">
        <ele>252.47999999999999</ele>
        <time>2024-09-12T13:43:10Z</time>
      </trkpt>
      <trkpt lat="51.960847964510322" lon="10.91637603007257">
        <ele>251.52000000000001</ele>
        <time>2024-09-12T13:43:11Z</time>
      </trkpt>
      <trkpt lat="51.960878977552056" lon="10.916599994525313">
        <ele>250.56</ele>
        <time>2024-09-12T13:43:12Z</time>
      </trkpt>
      <trkpt lat="51.960918037220836" lon="10.916882967576385">
        <ele>250.08000000000001</ele>
        <time>2024-09-12T13:43:13Z</time>
      </trkpt>
      <trkpt lat="51.960943015292287" lon="10.9171739872545">
        <ele>249.12</ele>
        <time>2024-09-12T13:43:14Z</time>
      </trkpt>
      <trkpt lat="51.960973022505641" lon="10.917726019397378">
        <ele>247.19999999999999</ele>
        <time>2024-09-12T13:43:16Z</time>
      </trkpt>
      <trkpt lat="51.960939997807145" lon="10.91796699911356">
        <ele>246.22999999999999</ele>
        <time>2024-09-12T13:43:17Z</time>
      </trkpt>
      <trkpt lat="51.960891969501972" lon="10.918193981051445">
        <ele>245.27000000000001</ele>
        <time>2024-09-12T13:43:18Z</time>
      </trkpt>
      <trkpt lat="51.960809994488955" lon="10.918410988524556">
        <ele>244.31</ele>
        <time>2024-09-12T13:43:19Z</time>
      </trkpt>
      <trkpt lat="51.960726007819176" lon="10.918630007654428">
        <ele>243.34999999999999</ele>
        <time>2024-09-12T13:43:20Z</time>
      </trkpt>
      <trkpt lat="51.960645038634539" lon="10.918843997642398">
        <ele>242.38999999999999</ele>
        <time>2024-09-12T13:43:21Z</time>
      </trkpt>
      <trkpt lat="51.960602039471269" lon="10.91908497735858">
        <ele>240.94999999999999</ele>
        <time>2024-09-12T13:43:22Z</time>
      </trkpt>
      <trkpt lat="51.960589969530702" lon="10.919252028688788">
        <ele>239.99000000000001</ele>
        <time>2024-09-12T13:43:23Z</time>
      </trkpt>
      <trkpt lat="51.960615031421185" lon="10.919599961489439">
        <ele>239.02000000000001</ele>
        <time>2024-09-12T13:43:24Z</time>
      </trkpt>
      <trkpt lat="51.960633974522352" lon="10.919870026409626">
        <ele>238.06</ele>
        <time>2024-09-12T13:43:25Z</time>
      </trkpt>
      <trkpt lat="51.960651995614171" lon="10.920133972540498">
        <ele>237.58000000000001</ele>
        <time>2024-09-12T13:43:26Z</time>
      </trkpt>
      <trkpt lat="51.960698012262583" lon="10.920353997498751">
        <ele>236.62</ele>
        <time>2024-09-12T13:43:27Z</time>
      </trkpt>
      <trkpt lat="51.960744028910995" lon="10.920548038557172">
        <ele>235.66</ele>
        <time>2024-09-12T13:43:28Z</time>
      </trkpt>
      <trkpt lat="51.960803959518671" lon="10.920687010511756">
        <ele>234.69999999999999</ele>
        <time>2024-09-12T13:43:29Z</time>
      </trkpt>
      <trkpt lat="51.960890963673592" lon="10.920818019658327">
        <ele>234.22</ele>
        <time>2024-09-12T13:43:30Z</time>
      </trkpt>
      <trkpt lat="51.960990037769079" lon="10.920866969972849">
        <ele>233.74000000000001</ele>
        <time>2024-09-12T13:43:31Z</time>
      </trkpt>
      <trkpt lat="51.961095985025167" lon="10.920898988842964">
        <ele>232.78</ele>
        <time>2024-09-12T13:43:32Z</time>
      </trkpt>
      <trkpt lat="51.961215008050203" lon="10.920881973579526">
        <ele>231.81</ele>
        <time>2024-09-12T13:43:33Z</time>
      </trkpt>
      <trkpt lat="51.961341993883252" lon="10.920864036306739">
        <ele>231.33000000000001</ele>
        <time>2024-09-12T13:43:34Z</time>
      </trkpt>
      <trkpt lat="51.961455987766385" lon="10.920793963596225">
        <ele>230.37</ele>
        <time>2024-09-12T13:43:35Z</time>
      </trkpt>
      <trkpt lat="51.961582973599434" lon="10.920701008290052">
        <ele>228.44999999999999</ele>
        <time>2024-09-12T13:43:36Z</time>
      </trkpt>
      <trkpt lat="51.961670983582735" lon="10.92052498832345">
        <ele>227.00999999999999</ele>
        <time>2024-09-12T13:43:37Z</time>
      </trkpt>
      <trkpt lat="51.961762011051178" lon="10.920314015820622">
        <ele>225.56999999999999</ele>
        <time>2024-09-12T13:43:38Z</time>
      </trkpt>
      <trkpt lat="51.961842980235815" lon="10.920082004740834">
        <ele>224.12</ele>
        <time>2024-09-12T13:43:39Z</time>
      </trkpt>
      <trkpt lat="51.961912969127297" lon="10.919812023639679">
        <ele>222.68000000000001</ele>
        <time>2024-09-12T13:43:40Z</time>
      </trkpt>
      <trkpt lat="51.962079014629126" lon="10.919273989275098">
        <ele>220.28</ele>
        <time>2024-09-12T13:43:42Z</time>
      </trkpt>
      <trkpt lat="51.962156966328621" lon="10.919057987630367">
        <ele>219.31999999999999</ele>
        <time>2024-09-12T13:43:43Z</time>
      </trkpt>
      <trkpt lat="51.962313037365675" lon="10.918837040662766">
        <ele>218.36000000000001</ele>
        <time>2024-09-12T13:43:44Z</time>
      </trkpt>
      <trkpt lat="51.962447986006737" lon="10.918646017089486">
        <ele>217.40000000000001</ele>
        <time>2024-09-12T13:43:45Z</time>
      </trkpt>
      <trkpt lat="51.962588969618082" lon="10.918448036536574">
        <ele>216.43000000000001</ele>
        <time>2024-09-12T13:43:46Z</time>
      </trkpt>
      <trkpt lat="51.963352980092168" lon="10.917340032756329">
        <ele>210.19</ele>
        <time>2024-09-12T13:43:52Z</time>
      </trkpt>
      <trkpt lat="51.963438978418708" lon="10.917175998911262">
        <ele>209.22</ele>
        <time>2024-09-12T13:43:53Z</time>
      </trkpt>
      <trkpt lat="51.963489018380642" lon="10.916991010308266">
        <ele>208.25999999999999</ele>
        <time>2024-09-12T13:43:54Z</time>
      </trkpt>
      <trkpt lat="51.963537968695164" lon="10.916811972856522">
        <ele>206.81999999999999</ele>
        <time>2024-09-12T13:43:55Z</time>
      </trkpt>
      <trkpt lat="51.96355196647346" lon="10.916587002575397">
        <ele>205.38</ele>
        <time>2024-09-12T13:43:56Z</time>
      </trkpt>
      <trkpt lat="51.96355196647346" lon="10.91637703590095">
        <ele>204.41999999999999</ele>
        <time>2024-09-12T13:43:57Z</time>
      </trkpt>
      <trkpt lat="51.963616004213691" lon="10.914856977760792">
        <ele>197.21000000000001</ele>
        <time>2024-09-12T13:44:06Z</time>
      </trkpt>
      <trkpt lat="51.96363695897162" lon="10.91478799469769">
        <ele>196.72999999999999</ele>
        <time>2024-09-12T13:44:07Z</time>
      </trkpt>
      <trkpt lat="51.963694961741567" lon="10.914740972220898">
        <ele>196.25</ele>
        <time>2024-09-12T13:44:08Z</time>
      </trkpt>
      <trkpt lat="51.963750030845404" lon="10.914694033563137">
        <ele>195.77000000000001</ele>
        <time>2024-09-12T13:44:09Z</time>
      </trkpt>
      <trkpt lat="51.963815996423364" lon="10.914681041613221">
        <ele>195.28</ele>
        <time>2024-09-12T13:44:10Z</time>
      </trkpt>
      <trkpt lat="51.963895037770271" lon="10.914681041613221">
        <ele>194.80000000000001</ele>
        <time>2024-09-12T13:44:11Z</time>
      </trkpt>
      <trkpt lat="51.963981036096811" lon="10.914681041613221">
        <ele>194.31999999999999</ele>
        <time>2024-09-12T13:44:12Z</time>
      </trkpt>
      <trkpt lat="51.964055970311165" lon="10.914685986936092">
        <ele>193.84</ele>
        <time>2024-09-12T13:44:13Z</time>
      </trkpt>
      <trkpt lat="51.964943027123809" lon="10.914746001362801">
        <ele>188.08000000000001</ele>
        <time>2024-09-12T13:44:25Z</time>
      </trkpt>
      <trkpt lat="51.96518300101161" lon="10.914764022454619">
        <ele>187.11000000000001</ele>
        <time>2024-09-12T13:44:28Z</time>
      </trkpt>
      <trkpt lat="51.965258019044995" lon="10.914769973605871">
        <ele>186.63</ele>
        <time>2024-09-12T13:44:29Z</time>
      </trkpt>
      <trkpt lat="51.966437017545104" lon="10.91480802744627">
        <ele>183.75</ele>
        <time>2024-09-12T13:44:43Z</time>
      </trkpt>
      <trkpt lat="51.966597028076649" lon="10.914791012182832">
        <ele>183.27000000000001</ele>
        <time>2024-09-12T13:44:45Z</time>
      </trkpt>
      <trkpt lat="51.966746980324388" lon="10.914776008576155">
        <ele>183.27000000000001</ele>
        <time>2024-09-12T13:44:47Z</time>
      </trkpt>
      <trkpt lat="51.966820992529392" lon="10.91476796194911">
        <ele>182.78999999999999</ele>
        <time>2024-09-12T13:44:48Z</time>
      </trkpt>
      <trkpt lat="51.966886036098003" lon="10.91467902995646">
        <ele>182.31</ele>
        <time>2024-09-12T13:44:49Z</time>
      </trkpt>
      <trkpt lat="51.966939009726048" lon="10.914588002488017">
        <ele>181.83000000000001</ele>
        <time>2024-09-12T13:44:50Z</time>
      </trkpt>
      <trkpt lat="51.966997012495995" lon="10.914489012211561">
        <ele>181.34999999999999</ele>
        <time>2024-09-12T13:44:51Z</time>
      </trkpt>
      <trkpt lat="51.967060966417193" lon="10.91438096947968">
        <ele>181.34999999999999</ele>
        <time>2024-09-12T13:44:52Z</time>
      </trkpt>
      <trkpt lat="51.967404037714005" lon="10.913788033649325">
        <ele>178.94</ele>
        <time>2024-09-12T13:44:57Z</time>
      </trkpt>
      <trkpt lat="51.967477966099977" lon="10.913650989532471">
        <ele>178.46000000000001</ele>
        <time>2024-09-12T13:44:58Z</time>
      </trkpt>
      <trkpt lat="51.967647029086947" lon="10.913343038409948">
        <ele>177.97999999999999</ele>
        <time>2024-09-12T13:45:00Z</time>
      </trkpt>
      <trkpt lat="51.967741996049881" lon="10.913172969594598">
        <ele>177.97999999999999</ele>
        <time>2024-09-12T13:45:01Z</time>
      </trkpt>
      <trkpt lat="51.968178022652864" lon="10.912543991580606">
        <ele>177.02000000000001</ele>
        <time>2024-09-12T13:45:05Z</time>
      </trkpt>
      <trkpt lat="51.968318000435829" lon="10.912404013797641">
        <ele>177.02000000000001</ele>
        <time>2024-09-12T13:45:06Z</time>
      </trkpt>
      <trkpt lat="51.968475999310613" lon="10.912279961630702">
        <ele>177.5</ele>
        <time>2024-09-12T13:45:07Z</time>
      </trkpt>
      <trkpt lat="51.969964038580656" lon="10.911465995013714">
        <ele>180.87</ele>
        <time>2024-09-12T13:45:14Z</time>
      </trkpt>
      <trkpt lat="51.971681993454695" lon="10.910810027271509">
        <ele>183.27000000000001</ele>
        <time>2024-09-12T13:45:21Z</time>
      </trkpt>
      <trkpt lat="51.972784968093038" lon="10.910296970978379">
        <ele>182.31</ele>
        <time>2024-09-12T13:45:26Z</time>
      </trkpt>
      <trkpt lat="51.9729820266366" lon="10.910117011517286">
        <ele>181.83000000000001</ele>
        <time>2024-09-12T13:45:27Z</time>
      </trkpt>
      <trkpt lat="51.974857980385423" lon="10.907931011170149">
        <ele>178.46000000000001</ele>
        <time>2024-09-12T13:45:36Z</time>
      </trkpt>
      <trkpt lat="51.978334961459041" lon="10.903832009062171">
        <ele>174.13999999999999</ele>
        <time>2024-09-12T13:45:51Z</time>
      </trkpt>
      <trkpt lat="51.980918012559414" lon="10.900762975215912">
        <ele>167.88999999999999</ele>
        <time>2024-09-12T13:46:02Z</time>
      </trkpt>
      <trkpt lat="51.98106000199914" lon="10.900531969964504">
        <ele>167.88999999999999</ele>
        <time>2024-09-12T13:46:03Z</time>
      </trkpt>
      <trkpt lat="51.981177013367414" lon="10.900277998298407">
        <ele>167.88999999999999</ele>
        <time>2024-09-12T13:46:04Z</time>
      </trkpt>
      <trkpt lat="51.982335979118943" lon="10.897695031017065">
        <ele>164.52000000000001</ele>
        <time>2024-09-12T13:46:13Z</time>
      </trkpt>
      <trkpt lat="51.982916006818414" lon="10.896360967308283">
        <ele>162.12</ele>
        <time>2024-09-12T13:46:19Z</time>
      </trkpt>
      <trkpt lat="51.983182970434427" lon="10.895750010386109">
        <ele>161.63999999999999</ele>
        <time>2024-09-12T13:46:23Z</time>
      </trkpt>
      <trkpt lat="51.983755035325885" lon="10.89444100856781">
        <ele>159.24000000000001</ele>
        <time>2024-09-12T13:46:33Z</time>
      </trkpt>
      <trkpt lat="51.983785964548588" lon="10.894370013847947">
        <ele>158.75</ele>
        <time>2024-09-12T13:46:34Z</time>
      </trkpt>
      <trkpt lat="51.983894007280469" lon="10.894125010818243">
        <ele>158.27000000000001</ele>
        <time>2024-09-12T13:46:35Z</time>
      </trkpt>
      <trkpt lat="51.983894007280469" lon="10.894125010818243">
        <ele>157.78999999999999</ele>
        <time>2024-09-12T13:46:36Z</time>
      </trkpt>
      <trkpt lat="51.983894007280469" lon="10.894125010818243">
        <ele>157.78999999999999</ele>
        <time>2024-09-12T13:46:37Z</time>
      </trkpt>
      <trkpt lat="51.983933988958597" lon="10.894443020224571">
        <ele>157.31</ele>
        <time>2024-09-12T13:46:38Z</time>
      </trkpt>
      <trkpt lat="51.983943041414022" lon="10.894515020772815">
        <ele>156.83000000000001</ele>
        <time>2024-09-12T13:46:39Z</time>
      </trkpt>
      <trkpt lat="51.983955027535558" lon="10.894605964422226">
        <ele>156.83000000000001</ele>
        <time>2024-09-12T13:46:40Z</time>
      </trkpt>
      <trkpt lat="51.983969025313854" lon="10.89472196996212">
        <ele>156.34999999999999</ele>
        <time>2024-09-12T13:46:41Z</time>
      </trkpt>
      <trkpt lat="51.983986040577292" lon="10.894854990765452">
        <ele>155.87</ele>
        <time>2024-09-12T13:46:42Z</time>
      </trkpt>
      <trkpt lat="51.984048988670111" lon="10.895352037623525">
        <ele>155.38999999999999</ele>
        <time>2024-09-12T13:46:46Z</time>
      </trkpt>
      <trkpt lat="51.984060974791646" lon="10.895447004586458">
        <ele>155.38999999999999</ele>
        <time>2024-09-12T13:46:47Z</time>
      </trkpt>
      <trkpt lat="51.984177986159921" lon="10.895615983754396">
        <ele>155.38999999999999</ele>
        <time>2024-09-12T13:46:48Z</time>
      </trkpt>
      <trkpt lat="51.984230959787965" lon="10.895596034824848">
        <ele>155.38999999999999</ele>
        <time>2024-09-12T13:46:49Z</time>
      </trkpt>
      <trkpt lat="51.984306983649731" lon="10.895568961277604">
        <ele>155.38999999999999</ele>
        <time>2024-09-12T13:46:50Z</time>
      </trkpt>
      <trkpt lat="51.984387030825019" lon="10.895540965721011">
        <ele>154.91</ele>
        <time>2024-09-12T13:46:51Z</time>
      </trkpt>
      <trkpt lat="51.984494989737868" lon="10.895478017628193">
        <ele>154.91</ele>
        <time>2024-09-12T13:46:52Z</time>
      </trkpt>
      <trkpt lat="51.984599009156227" lon="10.895416997373104">
        <ele>154.43000000000001</ele>
        <time>2024-09-12T13:46:53Z</time>
      </trkpt>
      <trkpt lat="51.985696032643318" lon="10.894775027409196">
        <ele>150.09999999999999</ele>
        <time>2024-09-12T13:47:03Z</time>
      </trkpt>
      <trkpt lat="51.987064965069294" lon="10.893887970596552">
        <ele>143.84999999999999</ele>
        <time>2024-09-12T13:47:15Z</time>
      </trkpt>
      <trkpt lat="51.987370988354087" lon="10.893600974231958">
        <ele>141.44999999999999</ele>
        <time>2024-09-12T13:47:18Z</time>
      </trkpt>
      <trkpt lat="51.987476013600826" lon="10.893513970077038">
        <ele>140.49000000000001</ele>
        <time>2024-09-12T13:47:19Z</time>
      </trkpt>
      <trkpt lat="51.987594030797482" lon="10.893444987013936">
        <ele>139.53</ele>
        <time>2024-09-12T13:47:20Z</time>
      </trkpt>
      <trkpt lat="51.988797001540661" lon="10.893266033381224">
        <ele>132.31999999999999</ele>
        <time>2024-09-12T13:47:30Z</time>
      </trkpt>
      <trkpt lat="51.988996993750334" lon="10.893233008682728">
        <ele>131.84</ele>
        <time>2024-09-12T13:47:32Z</time>
      </trkpt>
      <trkpt lat="51.989064970985055" lon="10.893176011741161">
        <ele>131.84</ele>
        <time>2024-09-12T13:47:33Z</time>
      </trkpt>
      <trkpt lat="51.989120040088892" lon="10.893128989264369">
        <ele>131.84</ele>
        <time>2024-09-12T13:47:34Z</time>
      </trkpt>
      <trkpt lat="51.989244008436799" lon="10.893027987331152">
        <ele>131.36000000000001</ele>
        <time>2024-09-12T13:47:37Z</time>
      </trkpt>
      <trkpt lat="51.989304022863507" lon="10.893139969557524">
        <ele>131.36000000000001</ele>
        <time>2024-09-12T13:47:38Z</time>
      </trkpt>
      <trkpt lat="51.989350961521268" lon="10.89321599341929">
        <ele>131.36000000000001</ele>
        <time>2024-09-12T13:47:39Z</time>
      </trkpt>
      <trkpt lat="51.989406030625105" lon="10.893306015059352">
        <ele>131.36000000000001</ele>
        <time>2024-09-12T13:47:40Z</time>
      </trkpt>
      <trkpt lat="51.989465039223433" lon="10.893402993679047">
        <ele>131.36000000000001</ele>
        <time>2024-09-12T13:47:41Z</time>
      </trkpt>
      <trkpt lat="51.989598982036114" lon="10.893627963960171">
        <ele>131.36000000000001</ele>
        <time>2024-09-12T13:47:43Z</time>
      </trkpt>
      <trkpt lat="51.989690009504557" lon="10.89370901696384">
        <ele>131.36000000000001</ele>
        <time>2024-09-12T13:47:44Z</time>
      </trkpt>
      <trkpt lat="51.989772990345955" lon="10.893781017512083">
        <ele>131.84</ele>
        <time>2024-09-12T13:47:45Z</time>
      </trkpt>
      <trkpt lat="51.989886984229088" lon="10.893756961449981">
        <ele>131.84</ele>
        <time>2024-09-12T13:47:46Z</time>
      </trkpt>
      <trkpt lat="51.98999997228384" lon="10.89373298920691">
        <ele>131.84</ele>
        <time>2024-09-12T13:47:47Z</time>
      </trkpt>
      <trkpt lat="51.990124024450779" lon="10.893707005307078">
        <ele>131.84</ele>
        <time>2024-09-12T13:47:48Z</time>
      </trkpt>
      <trkpt lat="51.991253988817334" lon="10.893489997833967">
        <ele>133.75999999999999</ele>
        <time>2024-09-12T13:47:55Z</time>
      </trkpt>
      <trkpt lat="51.992798019200563" lon="10.893672974780202">
        <ele>134.72</ele>
        <time>2024-09-12T13:48:02Z</time>
      </trkpt>
      <trkpt lat="51.995984986424446" lon="10.89407597668469">
        <ele>133.75999999999999</ele>
        <time>2024-09-12T13:48:14Z</time>
      </trkpt>
      <trkpt lat="52.00048103928566" lon="10.894632032141089">
        <ele>131.84</ele>
        <time>2024-09-12T13:48:30Z</time>
      </trkpt>
      <trkpt lat="52.00319099240005" lon="10.894946018233895">
        <ele>126.06999999999999</ele>
        <time>2024-09-12T13:48:40Z</time>
      </trkpt>
      <trkpt lat="52.005441030487418" lon="10.895241983234882">
        <ele>123.19</ele>
        <time>2024-09-12T13:48:50Z</time>
      </trkpt>
      <trkpt lat="52.006687000393867" lon="10.895894011482596">
        <ele>123.19</ele>
        <time>2024-09-12T13:48:57Z</time>
      </trkpt>
      <trkpt lat="52.006839970126748" lon="10.895981015637517">
        <ele>123.67</ele>
        <time>2024-09-12T13:48:58Z</time>
      </trkpt>
      <trkpt lat="52.008529007434845" lon="10.89689296670258">
        <ele>126.55</ele>
        <time>2024-09-12T13:49:10Z</time>
      </trkpt>
      <trkpt lat="52.008677031844854" lon="10.896943006664515">
        <ele>126.55</ele>
        <time>2024-09-12T13:49:11Z</time>
      </trkpt>
      <trkpt lat="52.008822960779071" lon="10.896991034969687">
        <ele>126.55</ele>
        <time>2024-09-12T13:49:12Z</time>
      </trkpt>
      <trkpt lat="52.008966961875558" lon="10.897015007212758">
        <ele>126.55</ele>
        <time>2024-09-12T13:49:13Z</time>
      </trkpt>
      <trkpt lat="52.009113980457187" lon="10.89699799194932">
        <ele>126.55</ele>
        <time>2024-09-12T13:49:14Z</time>
      </trkpt>
      <trkpt lat="52.009253036230803" lon="10.896981982514262">
        <ele>126.06999999999999</ele>
        <time>2024-09-12T13:49:15Z</time>
      </trkpt>
      <trkpt lat="52.009859969839454" lon="10.896903024986386">
        <ele>125.11</ele>
        <time>2024-09-12T13:49:20Z</time>
      </trkpt>
      <trkpt lat="52.009981004521251" lon="10.896882992237806">
        <ele>125.11</ele>
        <time>2024-09-12T13:49:21Z</time>
      </trkpt>
      <trkpt lat="52.010361040011048" lon="10.896877041086555">
        <ele>125.11</ele>
        <time>2024-09-12T13:49:24Z</time>
      </trkpt>
      <trkpt lat="52.010477967560291" lon="10.896942000836134">
        <ele>125.59</ele>
        <time>2024-09-12T13:49:25Z</time>
      </trkpt>
      <trkpt lat="52.010588021948934" lon="10.897025987505913">
        <ele>125.59</ele>
        <time>2024-09-12T13:49:26Z</time>
      </trkpt>
      <trkpt lat="52.010690029710531" lon="10.897136963903904">
        <ele>125.59</ele>
        <time>2024-09-12T13:49:27Z</time>
      </trkpt>
      <trkpt lat="52.010792959481478" lon="10.897248024120927">
        <ele>126.06999999999999</ele>
        <time>2024-09-12T13:49:28Z</time>
      </trkpt>
      <trkpt lat="52.010872000828385" lon="10.89738498441875">
        <ele>126.06999999999999</ele>
        <time>2024-09-12T13:49:29Z</time>
      </trkpt>
      <trkpt lat="52.010954981669784" lon="10.89753401465714">
        <ele>126.06999999999999</ele>
        <time>2024-09-12T13:49:30Z</time>
      </trkpt>
      <trkpt lat="52.011335017159581" lon="10.898045981302857">
        <ele>126.06999999999999</ele>
        <time>2024-09-12T13:49:34Z</time>
      </trkpt>
      <trkpt lat="52.011446999385953" lon="10.898097027093172">
        <ele>126.06999999999999</ele>
        <time>2024-09-12T13:49:35Z</time>
      </trkpt>
      <trkpt lat="52.011559987440705" lon="10.89811303652823">
        <ele>126.55</ele>
        <time>2024-09-12T13:49:36Z</time>
      </trkpt>
      <trkpt lat="52.011685967445374" lon="10.898108007386327">
        <ele>126.55</ele>
        <time>2024-09-12T13:49:37Z</time>
      </trkpt>
      <trkpt lat="52.011813959106803" lon="10.898102978244424">
        <ele>126.55</ele>
        <time>2024-09-12T13:49:38Z</time>
      </trkpt>
      <trkpt lat="52.012912994250655" lon="10.898184031248093">
        <ele>127.03</ele>
        <time>2024-09-12T13:49:47Z</time>
      </trkpt>
      <trkpt lat="52.014644024893641" lon="10.898256031796336">
        <ele>121.26000000000001</ele>
        <time>2024-09-12T13:50:01Z</time>
      </trkpt>
      <trkpt lat="52.014763969928026" lon="10.898305987939239">
        <ele>120.78</ele>
        <time>2024-09-12T13:50:02Z</time>
      </trkpt>
      <trkpt lat="52.014866983518004" lon="10.8984150364995">
        <ele>120.78</ele>
        <time>2024-09-12T13:50:03Z</time>
      </trkpt>
      <trkpt lat="52.01509203761816" lon="10.898616034537554">
        <ele>120.3</ele>
        <time>2024-09-12T13:50:05Z</time>
      </trkpt>
      <trkpt lat="52.01519999653101" lon="10.89865199290216">
        <ele>119.81999999999999</ele>
        <time>2024-09-12T13:50:06Z</time>
      </trkpt>
      <trkpt lat="52.015334023162723" lon="10.898641012609005">
        <ele>119.81999999999999</ele>
        <time>2024-09-12T13:50:07Z</time>
      </trkpt>
      <trkpt lat="52.015454974025488" lon="10.898631038144231">
        <ele>119.81999999999999</ele>
        <time>2024-09-12T13:50:08Z</time>
      </trkpt>
      <trkpt lat="52.015558993443847" lon="10.898545039817691">
        <ele>119.34</ele>
        <time>2024-09-12T13:50:09Z</time>
      </trkpt>
      <trkpt lat="52.015667036175728" lon="10.898453006520867">
        <ele>119.34</ele>
        <time>2024-09-12T13:50:10Z</time>
      </trkpt>
      <trkpt lat="52.015777006745338" lon="10.898358961567283">
        <ele>119.34</ele>
        <time>2024-09-12T13:50:11Z</time>
      </trkpt>
      <trkpt lat="52.015885971486568" lon="10.898267012089491">
        <ele>118.86</ele>
        <time>2024-09-12T13:50:12Z</time>
      </trkpt>
      <trkpt lat="52.016847962513566" lon="10.897460002452135">
        <ele>117.90000000000001</ele>
        <time>2024-09-12T13:50:19Z</time>
      </trkpt>
      <trkpt lat="52.018398027867079" lon="10.896087968721986">
        <ele>114.53</ele>
        <time>2024-09-12T13:50:27Z</time>
      </trkpt>
      <trkpt lat="52.02091402374208" lon="10.893852012231946">
        <ele>109.73</ele>
        <time>2024-09-12T13:50:38Z</time>
      </trkpt>
      <trkpt lat="52.023545019328594" lon="10.891517987474799">
        <ele>107.81</ele>
        <time>2024-09-12T13:50:49Z</time>
      </trkpt>
      <trkpt lat="52.025293987244368" lon="10.890097003430128">
        <ele>108.29000000000001</ele>
        <time>2024-09-12T13:50:57Z</time>
      </trkpt>
      <trkpt lat="52.026600977405906" lon="10.889772037044168">
        <ele>111.65000000000001</ele>
        <time>2024-09-12T13:51:03Z</time>
      </trkpt>
      <trkpt lat="52.02734000980854" lon="10.889718979597092">
        <ele>114.53</ele>
        <time>2024-09-12T13:51:08Z</time>
      </trkpt>
      <trkpt lat="52.028128998354077" lon="10.88973700068891">
        <ele>115.98</ele>
        <time>2024-09-12T13:51:15Z</time>
      </trkpt>
      <trkpt lat="52.028245003893971" lon="10.889788968488574">
        <ele>115.98</ele>
        <time>2024-09-12T13:51:16Z</time>
      </trkpt>
      <trkpt lat="52.028323961421847" lon="10.889890976250172">
        <ele>115.98</ele>
        <time>2024-09-12T13:51:17Z</time>
      </trkpt>
      <trkpt lat="52.028418006375432" lon="10.890012010931969">
        <ele>115.98</ele>
        <time>2024-09-12T13:51:18Z</time>
      </trkpt>
      <trkpt lat="52.028512973338366" lon="10.890134973451495">
        <ele>115.98</ele>
        <time>2024-09-12T13:51:19Z</time>
      </trkpt>
      <trkpt lat="52.028611041605473" lon="10.890261037275195">
        <ele>115.5</ele>
        <time>2024-09-12T13:51:20Z</time>
      </trkpt>
      <trkpt lat="52.02867298386991" lon="10.890406966209412">
        <ele>115.5</ele>
        <time>2024-09-12T13:51:21Z</time>
      </trkpt>
      <trkpt lat="52.028745990246534" lon="10.890578962862492">
        <ele>115.5</ele>
        <time>2024-09-12T13:51:22Z</time>
      </trkpt>
      <trkpt lat="52.028816984966397" lon="10.890748025849462">
        <ele>115.5</ele>
        <time>2024-09-12T13:51:23Z</time>
      </trkpt>
      <trkpt lat="52.02888697385788" lon="10.890910970047116">
        <ele>115.01000000000001</ele>
        <time>2024-09-12T13:51:24Z</time>
      </trkpt>
      <trkpt lat="52.028941959142685" lon="10.8910689689219">
        <ele>115.01000000000001</ele>
        <time>2024-09-12T13:51:25Z</time>
      </trkpt>
      <trkpt lat="52.029048996046185" lon="10.891420003026724">
        <ele>113.56999999999999</ele>
        <time>2024-09-12T13:51:27Z</time>
      </trkpt>
      <trkpt lat="52.029182016849518" lon="10.891703981906176">
        <ele>112.61</ele>
        <time>2024-09-12T13:51:29Z</time>
      </trkpt>
      <trkpt lat="52.029267009347677" lon="10.891778999939561">
        <ele>112.13</ele>
        <time>2024-09-12T13:51:30Z</time>
      </trkpt>
      <trkpt lat="52.029356025159359" lon="10.891844965517521">
        <ele>112.13</ele>
        <time>2024-09-12T13:51:31Z</time>
      </trkpt>
      <trkpt lat="52.02944302931428" lon="10.89186298660934">
        <ele>111.65000000000001</ele>
        <time>2024-09-12T13:51:32Z</time>
      </trkpt>
      <trkpt lat="52.029536990448833" lon="10.891877990216017">
        <ele>110.69</ele>
        <time>2024-09-12T13:51:33Z</time>
      </trkpt>
      <trkpt lat="52.02963799238205" lon="10.891893999651074">
        <ele>109.25</ele>
        <time>2024-09-12T13:51:34Z</time>
      </trkpt>
      <trkpt lat="52.02974796295166" lon="10.891912020742893">
        <ele>107.81</ele>
        <time>2024-09-12T13:51:35Z</time>
      </trkpt>
      <trkpt lat="52.029863968491554" lon="10.891930041834712">
        <ele>106.84</ele>
        <time>2024-09-12T13:51:36Z</time>
      </trkpt>
      <trkpt lat="52.030090028420091" lon="10.89207898825407">
        <ele>103.95999999999999</ele>
        <time>2024-09-12T13:51:38Z</time>
      </trkpt>
      <trkpt lat="52.03019698150456" lon="10.892160041257739">
        <ele>103</ele>
        <time>2024-09-12T13:51:39Z</time>
      </trkpt>
      <trkpt lat="52.03030401840806" lon="10.89224997907877">
        <ele>102.52</ele>
        <time>2024-09-12T13:51:40Z</time>
      </trkpt>
      <trkpt lat="52.030907012522221" lon="10.89278600178659">
        <ele>100.59999999999999</ele>
        <time>2024-09-12T13:51:46Z</time>
      </trkpt>
      <trkpt lat="52.031108010560274" lon="10.892860013991594">
        <ele>100.59999999999999</ele>
        <time>2024-09-12T13:51:48Z</time>
      </trkpt>
      <trkpt lat="52.031213035807014" lon="10.892877029255033">
        <ele>100.59999999999999</ele>
        <time>2024-09-12T13:51:49Z</time>
      </trkpt>
      <trkpt lat="52.031298028305173" lon="10.89285297319293">
        <ele>100.11</ele>
        <time>2024-09-12T13:51:50Z</time>
      </trkpt>
      <trkpt lat="52.031398024410009" lon="10.892813997343183">
        <ele>99.629999999999995</ele>
        <time>2024-09-12T13:51:51Z</time>
      </trkpt>
      <trkpt lat="52.031502965837717" lon="10.892772004008293">
        <ele>99.629999999999995</ele>
        <time>2024-09-12T13:51:52Z</time>
      </trkpt>
      <trkpt lat="52.031616037711501" lon="10.892727999016643">
        <ele>99.150000000000006</ele>
        <time>2024-09-12T13:51:53Z</time>
      </trkpt>
      <trkpt lat="52.031732965260744" lon="10.892681982368231">
        <ele>99.150000000000006</ele>
        <time>2024-09-12T13:51:54Z</time>
      </trkpt>
      <trkpt lat="52.031848970800638" lon="10.892635965719819">
        <ele>99.150000000000006</ele>
        <time>2024-09-12T13:51:55Z</time>
      </trkpt>
      <trkpt lat="52.032024990767241" lon="10.892476961016655">
        <ele>99.150000000000006</ele>
        <time>2024-09-12T13:51:57Z</time>
      </trkpt>
      <trkpt lat="52.032114006578922" lon="10.892349975183606">
        <ele>99.150000000000006</ele>
        <time>2024-09-12T13:51:58Z</time>
      </trkpt>
      <trkpt lat="52.032201010733843" lon="10.89222801849246">
        <ele>99.150000000000006</ele>
        <time>2024-09-12T13:51:59Z</time>
      </trkpt>
      <trkpt lat="52.032364038750529" lon="10.891997013241053">
        <ele>99.150000000000006</ele>
        <time>2024-09-12T13:52:01Z</time>
      </trkpt>
      <trkpt lat="52.032441990450025" lon="10.891885031014681">
        <ele>99.150000000000006</ele>
        <time>2024-09-12T13:52:02Z</time>
      </trkpt>
      <trkpt lat="52.032552966848016" lon="10.891827028244734">
        <ele>99.150000000000006</ele>
        <time>2024-09-12T13:52:03Z</time>
      </trkpt>
      <trkpt lat="52.032645000144839" lon="10.891786040738225">
        <ele>99.150000000000006</ele>
        <time>2024-09-12T13:52:04Z</time>
      </trkpt>
      <trkpt lat="52.032738961279392" lon="10.89179802685976">
        <ele>99.150000000000006</ele>
        <time>2024-09-12T13:52:05Z</time>
      </trkpt>
      <trkpt lat="52.032829988747835" lon="10.891810012981296">
        <ele>99.150000000000006</ele>
        <time>2024-09-12T13:52:06Z</time>
      </trkpt>
      <trkpt lat="52.032933002337813" lon="10.891823004931211">
        <ele>98.670000000000002</ele>
        <time>2024-09-12T13:52:07Z</time>
      </trkpt>
      <trkpt lat="52.033197032287717" lon="10.891858963295817">
        <ele>97.709999999999994</ele>
        <time>2024-09-12T13:52:10Z</time>
      </trkpt>
      <trkpt lat="52.03327196650207" lon="10.891870027408004">
        <ele>97.230000000000004</ele>
        <time>2024-09-12T13:52:11Z</time>
      </trkpt>
      <trkpt lat="52.033347990363836" lon="10.891881007701159">
        <ele>96.75</ele>
        <time>2024-09-12T13:52:12Z</time>
      </trkpt>
      <trkpt lat="52.0336779858917" lon="10.891935992985964">
        <ele>94.829999999999998</ele>
        <time>2024-09-12T13:52:16Z</time>
      </trkpt>
      <trkpt lat="52.033757027238607" lon="10.891935992985964">
        <ele>94.349999999999994</ele>
        <time>2024-09-12T13:52:17Z</time>
      </trkpt>
      <trkpt lat="52.033836990594864" lon="10.891935992985964">
        <ele>93.870000000000005</ele>
        <time>2024-09-12T13:52:18Z</time>
      </trkpt>
      <trkpt lat="52.034131027758121" lon="10.891944039613008">
        <ele>93.390000000000001</ele>
        <time>2024-09-12T13:52:21Z</time>
      </trkpt>
      <trkpt lat="52.034227000549436" lon="10.891960971057415">
        <ele>93.390000000000001</ele>
        <time>2024-09-12T13:52:22Z</time>
      </trkpt>
      <trkpt lat="52.034333031624556" lon="10.891979997977614">
        <ele>93.390000000000001</ele>
        <time>2024-09-12T13:52:23Z</time>
      </trkpt>
      <trkpt lat="52.034446019679308" lon="10.892000030726194">
        <ele>93.390000000000001</ele>
        <time>2024-09-12T13:52:24Z</time>
      </trkpt>
      <trkpt lat="52.034549033269286" lon="10.892050992697477">
        <ele>93.390000000000001</ele>
        <time>2024-09-12T13:52:25Z</time>
      </trkpt>
      <trkpt lat="52.034661015495658" lon="10.892106983810663">
        <ele>93.390000000000001</ele>
        <time>2024-09-12T13:52:26Z</time>
      </trkpt>
      <trkpt lat="52.035456961020827" lon="10.892595984041691">
        <ele>94.349999999999994</ele>
        <time>2024-09-12T13:52:33Z</time>
      </trkpt>
      <trkpt lat="52.035574978217483" lon="10.892661027610302">
        <ele>94.349999999999994</ele>
        <time>2024-09-12T13:52:34Z</time>
      </trkpt>
      <trkpt lat="52.036039000377059" lon="10.89289203286171">
        <ele>94.349999999999994</ele>
        <time>2024-09-12T13:52:38Z</time>
      </trkpt>
      <trkpt lat="52.036159029230475" lon="10.892904018983245">
        <ele>94.349999999999994</ele>
        <time>2024-09-12T13:52:39Z</time>
      </trkpt>
      <trkpt lat="52.036273023113608" lon="10.892864959314466">
        <ele>94.349999999999994</ele>
        <time>2024-09-12T13:52:40Z</time>
      </trkpt>
      <trkpt lat="52.036373019218445" lon="10.892802011221647">
        <ele>94.349999999999994</ele>
        <time>2024-09-12T13:52:41Z</time>
      </trkpt>
      <trkpt lat="52.036483995616436" lon="10.892721964046359">
        <ele>93.870000000000005</ele>
        <time>2024-09-12T13:52:42Z</time>
      </trkpt>
      <trkpt lat="52.037581019103527" lon="10.891837002709508">
        <ele>93.390000000000001</ele>
        <time>2024-09-12T13:52:50Z</time>
      </trkpt>
      <trkpt lat="52.039066040888429" lon="10.890608970075846">
        <ele>90.980000000000004</ele>
        <time>2024-09-12T13:52:58Z</time>
      </trkpt>
      <trkpt lat="52.041816981509328" lon="10.888333031907678">
        <ele>87.140000000000001</ele>
        <time>2024-09-12T13:53:11Z</time>
      </trkpt>
      <trkpt lat="52.044300958514214" lon="10.886217020452023">
        <ele>87.620000000000005</ele>
        <time>2024-09-12T13:53:22Z</time>
      </trkpt>
      <trkpt lat="52.045566961169243" lon="10.884786983951926">
        <ele>85.689999999999998</ele>
        <time>2024-09-12T13:53:28Z</time>
      </trkpt>
      <trkpt lat="52.04579503275454" lon="10.884620016440749">
        <ele>85.209999999999994</ele>
        <time>2024-09-12T13:53:29Z</time>
      </trkpt>
      <trkpt lat="52.046029977500439" lon="10.884477021172643">
        <ele>85.209999999999994</ele>
        <time>2024-09-12T13:53:30Z</time>
      </trkpt>
      <trkpt lat="52.046275986358523" lon="10.884394962340593">
        <ele>84.730000000000004</ele>
        <time>2024-09-12T13:53:31Z</time>
      </trkpt>
      <trkpt lat="52.046527024358511" lon="10.884336037561297">
        <ele>84.730000000000004</ele>
        <time>2024-09-12T13:53:32Z</time>
      </trkpt>
      <trkpt lat="52.046785019338131" lon="10.884283985942602">
        <ele>84.730000000000004</ele>
        <time>2024-09-12T13:53:33Z</time>
      </trkpt>
      <trkpt lat="52.049890011548996" lon="10.88389397598803">
        <ele>85.209999999999994</ele>
        <time>2024-09-12T13:53:45Z</time>
      </trkpt>
      <trkpt lat="52.050924003124237" lon="10.883904034271836">
        <ele>85.209999999999994</ele>
        <time>2024-09-12T13:53:49Z</time>
      </trkpt>
      <trkpt lat="52.051172023639083" lon="10.883860029280186">
        <ele>85.689999999999998</ele>
        <time>2024-09-12T13:53:50Z</time>
      </trkpt>
      <trkpt lat="52.052875980734825" lon="10.883651990443468">
        <ele>85.209999999999994</ele>
        <time>2024-09-12T13:53:57Z</time>
      </trkpt>
      <trkpt lat="52.053835960105062" lon="10.8839560020715">
        <ele>84.25</ele>
        <time>2024-09-12T13:54:01Z</time>
      </trkpt>
      <trkpt lat="52.05406503751874" lon="10.884079970419407">
        <ele>84.25</ele>
        <time>2024-09-12T13:54:02Z</time>
      </trkpt>
      <trkpt lat="52.054284978657961" lon="10.884267976507545">
        <ele>83.769999999999996</ele>
        <time>2024-09-12T13:54:03Z</time>
      </trkpt>
      <trkpt lat="52.056897031143308" lon="10.886711971834302">
        <ele>83.769999999999996</ele>
        <time>2024-09-12T13:54:15Z</time>
      </trkpt>
      <trkpt lat="52.05733397975564" lon="10.886973990127444">
        <ele>84.25</ele>
        <time>2024-09-12T13:54:17Z</time>
      </trkpt>
      <trkpt lat="52.057540006935596" lon="10.887077003717422">
        <ele>84.25</ele>
        <time>2024-09-12T13:54:18Z</time>
      </trkpt>
      <trkpt lat="52.058404013514519" lon="10.887313038110733">
        <ele>85.209999999999994</ele>
        <time>2024-09-12T13:54:23Z</time>
      </trkpt>
      <trkpt lat="52.059491984546185" lon="10.888008987531066">
        <ele>85.689999999999998</ele>
        <time>2024-09-12T13:54:31Z</time>
      </trkpt>
      <trkpt lat="52.06083501689136" lon="10.889211958274245">
        <ele>84.730000000000004</ele>
        <time>2024-09-12T13:54:39Z</time>
      </trkpt>
      <trkpt lat="52.062650034204125" lon="10.890400009229779">
        <ele>84.730000000000004</ele>
        <time>2024-09-12T13:54:49Z</time>
      </trkpt>
      <trkpt lat="52.064034976065159" lon="10.890856990590692">
        <ele>85.209999999999994</ele>
        <time>2024-09-12T13:54:57Z</time>
      </trkpt>
      <trkpt lat="52.065048012882471" lon="10.891001997515559">
        <ele>85.689999999999998</ele>
        <time>2024-09-12T13:55:05Z</time>
      </trkpt>
      <trkpt lat="52.066525993868709" lon="10.891222022473812">
        <ele>88.099999999999994</ele>
        <time>2024-09-12T13:55:17Z</time>
      </trkpt>
      <trkpt lat="52.067498965188861" lon="10.891401981934905">
        <ele>91.939999999999998</ele>
        <time>2024-09-12T13:55:25Z</time>
      </trkpt>
      <trkpt lat="52.067618994042277" lon="10.891425032168627">
        <ele>92.900000000000006</ele>
        <time>2024-09-12T13:55:26Z</time>
      </trkpt>
      <trkpt lat="52.06880402751267" lon="10.891658971086144">
        <ele>100.11</ele>
        <time>2024-09-12T13:55:35Z</time>
      </trkpt>
      <trkpt lat="52.070100959390402" lon="10.891940016299486">
        <ele>108.29000000000001</ele>
        <time>2024-09-12T13:55:43Z</time>
      </trkpt>
      <trkpt lat="52.070499015972018" lon="10.891973963007331">
        <ele>111.65000000000001</ele>
        <time>2024-09-12T13:55:46Z</time>
      </trkpt>
      <trkpt lat="52.070629019290209" lon="10.891923001036048">
        <ele>112.61</ele>
        <time>2024-09-12T13:55:47Z</time>
      </trkpt>
      <trkpt lat="52.070754999294877" lon="10.891873966902494">
        <ele>113.56999999999999</ele>
        <time>2024-09-12T13:55:48Z</time>
      </trkpt>
      <trkpt lat="52.071033027023077" lon="10.891763996332884">
        <ele>115.98</ele>
        <time>2024-09-12T13:55:51Z</time>
      </trkpt>
      <trkpt lat="52.071140985935926" lon="10.891890982165933">
        <ele>117.42</ele>
        <time>2024-09-12T13:55:52Z</time>
      </trkpt>
      <trkpt lat="52.071162024512887" lon="10.891914032399654">
        <ele>118.38</ele>
        <time>2024-09-12T13:55:53Z</time>
      </trkpt>
      <trkpt lat="52.071162024512887" lon="10.891914032399654">
        <ele>118.86</ele>
        <time>2024-09-12T13:55:54Z</time>
      </trkpt>
      <trkpt lat="52.071203012019396" lon="10.892129028216004">
        <ele>119.81999999999999</ele>
        <time>2024-09-12T13:55:55Z</time>
      </trkpt>
      <trkpt lat="52.071232013404369" lon="10.892284009605646">
        <ele>120.78</ele>
        <time>2024-09-12T13:55:56Z</time>
      </trkpt>
      <trkpt lat="52.071334021165967" lon="10.892472015693784">
        <ele>121.26000000000001</ele>
        <time>2024-09-12T13:55:57Z</time>
      </trkpt>
      <trkpt lat="52.071440974250436" lon="10.892407977953553">
        <ele>121.26000000000001</ele>
        <time>2024-09-12T13:55:58Z</time>
      </trkpt>
      <trkpt lat="52.071492020040751" lon="10.892302030697465">
        <ele>121.73999999999999</ele>
        <time>2024-09-12T13:55:59Z</time>
      </trkpt>
      <trkpt lat="52.071548011153936" lon="10.89218401350081">
        <ele>122.70999999999999</ele>
        <time>2024-09-12T13:56:00Z</time>
      </trkpt>
      <trkpt lat="52.07162101753056" lon="10.892031965777278">
        <ele>123.19</ele>
        <time>2024-09-12T13:56:01Z</time>
      </trkpt>
      <trkpt lat="52.071697041392326" lon="10.891873966902494">
        <ele>123.67</ele>
        <time>2024-09-12T13:56:02Z</time>
      </trkpt>
      <trkpt lat="52.071803994476795" lon="10.891811018809676">
        <ele>124.15000000000001</ele>
        <time>2024-09-12T13:56:03Z</time>
      </trkpt>
      <trkpt lat="52.071849005296826" lon="10.891786040738225">
        <ele>125.11</ele>
        <time>2024-09-12T13:56:04Z</time>
      </trkpt>
      <trkpt lat="52.071933997794986" lon="10.891829039901495">
        <ele>125.59</ele>
        <time>2024-09-12T13:56:05Z</time>
      </trkpt>
      <trkpt lat="52.072000969201326" lon="10.891917971894145">
        <ele>126.55</ele>
        <time>2024-09-12T13:56:06Z</time>
      </trkpt>
      <trkpt lat="52.072064001113176" lon="10.892003970220685">
        <ele>127.03</ele>
        <time>2024-09-12T13:56:07Z</time>
      </trkpt>
      <trkpt lat="52.072105994448066" lon="10.892199017107487">
        <ele>127.03</ele>
        <time>2024-09-12T13:56:08Z</time>
      </trkpt>
      <trkpt lat="52.072127033025026" lon="10.892401020973921">
        <ele>127.51000000000001</ele>
        <time>2024-09-12T13:56:09Z</time>
      </trkpt>
      <trkpt lat="52.072123009711504" lon="10.892628002911806">
        <ele>127.51000000000001</ele>
        <time>2024-09-12T13:56:10Z</time>
      </trkpt>
      <trkpt lat="52.072085961699486" lon="10.892869988456368">
        <ele>127.51000000000001</ele>
        <time>2024-09-12T13:56:11Z</time>
      </trkpt>
      <trkpt lat="52.072048997506499" lon="10.893106022849679">
        <ele>127.51000000000001</ele>
        <time>2024-09-12T13:56:12Z</time>
      </trkpt>
      <trkpt lat="52.072015972808003" lon="10.893318001180887">
        <ele>127.51000000000001</ele>
        <time>2024-09-12T13:56:13Z</time>
      </trkpt>
      <trkpt lat="52.071976996958256" lon="10.893567027524114">
        <ele>127.03</ele>
        <time>2024-09-12T13:56:14Z</time>
      </trkpt>
      <trkpt lat="52.072021001949906" lon="10.893711028620601">
        <ele>127.03</ele>
        <time>2024-09-12T13:56:15Z</time>
      </trkpt>
      <trkpt lat="52.072138013318181" lon="10.893850000575185">
        <ele>126.55</ele>
        <time>2024-09-12T13:56:16Z</time>
      </trkpt>
      <trkpt lat="52.072271034121513" lon="10.893848994746804">
        <ele>126.55</ele>
        <time>2024-09-12T13:56:17Z</time>
      </trkpt>
      <trkpt lat="52.072358038276434" lon="10.893769031390548">
        <ele>126.55</ele>
        <time>2024-09-12T13:56:18Z</time>
      </trkpt>
      <trkpt lat="52.072441019117832" lon="10.893647996708751">
        <ele>127.03</ele>
        <time>2024-09-12T13:56:19Z</time>
      </trkpt>
      <trkpt lat="52.072536991909146" lon="10.893508018925786">
        <ele>127.51000000000001</ele>
        <time>2024-09-12T13:56:20Z</time>
      </trkpt>
      <trkpt lat="52.072767997160554" lon="10.893248012289405">
        <ele>128.47</ele>
        <time>2024-09-12T13:56:22Z</time>
      </trkpt>
      <trkpt lat="52.072901017963886" lon="10.893154973164201">
        <ele>128.94999999999999</ele>
        <time>2024-09-12T13:56:23Z</time>
      </trkpt>
      <trkpt lat="52.073049964383245" lon="10.893141981214285">
        <ele>129.91999999999999</ele>
        <time>2024-09-12T13:56:24Z</time>
      </trkpt>
      <trkpt lat="52.073209974914789" lon="10.893160002306104">
        <ele>130.88</ele>
        <time>2024-09-12T13:56:25Z</time>
      </trkpt>
      <trkpt lat="52.073387000709772" lon="10.89319403283298">
        <ele>131.84</ele>
        <time>2024-09-12T13:56:26Z</time>
      </trkpt>
      <trkpt lat="52.074936982244253" lon="10.893510030582547">
        <ele>132.80000000000001</ele>
        <time>2024-09-12T13:56:33Z</time>
      </trkpt>
      <trkpt lat="52.077076965942979" lon="10.893945973366499">
        <ele>122.70999999999999</ele>
        <time>2024-09-12T13:56:41Z</time>
      </trkpt>
      <trkpt lat="52.079475028440356" lon="10.894369008019567">
        <ele>117.42</ele>
        <time>2024-09-12T13:56:50Z</time>
      </trkpt>
      <trkpt lat="52.081045964732766" lon="10.894541004672647">
        <ele>123.67</ele>
        <time>2024-09-12T13:56:57Z</time>
      </trkpt>
      <trkpt lat="52.081494983285666" lon="10.894521977752447">
        <ele>126.06999999999999</ele>
        <time>2024-09-12T13:57:00Z</time>
      </trkpt>
      <trkpt lat="52.08251103758812" lon="10.894448971375823">
        <ele>126.55</ele>
        <time>2024-09-12T13:57:10Z</time>
      </trkpt>
      <trkpt lat="52.083211010321975" lon="10.894541004672647">
        <ele>121.73999999999999</ele>
        <time>2024-09-12T13:57:19Z</time>
      </trkpt>
      <trkpt lat="52.083220984786749" lon="10.894553996622562">
        <ele>120.78</ele>
        <time>2024-09-12T13:57:29Z</time>
      </trkpt>
      <trkpt lat="52.083220984786749" lon="10.894553996622562">
        <ele>120.3</ele>
        <time>2024-09-12T13:57:36Z</time>
      </trkpt>
      <trkpt lat="52.083283010870218" lon="10.894512003287673">
        <ele>119.81999999999999</ele>
        <time>2024-09-12T13:57:37Z</time>
      </trkpt>
      <trkpt lat="52.083326010033488" lon="10.89448400773108">
        <ele>119.81999999999999</ele>
        <time>2024-09-12T13:57:38Z</time>
      </trkpt>
      <trkpt lat="52.083386024460196" lon="10.894444026052952">
        <ele>119.34</ele>
        <time>2024-09-12T13:57:39Z</time>
      </trkpt>
      <trkpt lat="52.08345802500844" lon="10.894395997747779">
        <ele>119.34</ele>
        <time>2024-09-12T13:57:40Z</time>
      </trkpt>
      <trkpt lat="52.083550980314612" lon="10.894376970827579">
        <ele>119.34</ele>
        <time>2024-09-12T13:57:41Z</time>
      </trkpt>
      <trkpt lat="52.083654999732971" lon="10.894370013847947">
        <ele>119.34</ele>
        <time>2024-09-12T13:57:42Z</time>
      </trkpt>
      <trkpt lat="52.083863960579038" lon="10.894394991919398">
        <ele>119.34</ele>
        <time>2024-09-12T13:57:44Z</time>
      </trkpt>
      <trkpt lat="52.083968985825777" lon="10.894450983032584">
        <ele>118.86</ele>
        <time>2024-09-12T13:57:45Z</time>
      </trkpt>
      <trkpt lat="52.084080968052149" lon="10.894512003287673">
        <ele>118.38</ele>
        <time>2024-09-12T13:57:46Z</time>
      </trkpt>
      <trkpt lat="52.084414986893535" lon="10.894667990505695">
        <ele>118.38</ele>
        <time>2024-09-12T13:57:49Z</time>
      </trkpt>
      <trkpt lat="52.084513977169991" lon="10.894679976627231">
        <ele>118.38</ele>
        <time>2024-09-12T13:57:50Z</time>
      </trkpt>
      <trkpt lat="52.084564017131925" lon="10.894615016877651">
        <ele>118.38</ele>
        <time>2024-09-12T13:57:51Z</time>
      </trkpt>
      <trkpt lat="52.084617996588349" lon="10.894505968317389">
        <ele>118.86</ele>
        <time>2024-09-12T13:57:52Z</time>
      </trkpt>
      <trkpt lat="52.084680022671819" lon="10.894380994141102">
        <ele>118.86</ele>
        <time>2024-09-12T13:57:53Z</time>
      </trkpt>
      <trkpt lat="52.084698965772986" lon="10.894175972789526">
        <ele>118.86</ele>
        <time>2024-09-12T13:57:54Z</time>
      </trkpt>
      <trkpt lat="52.084720004349947" lon="10.89394697919488">
        <ele>119.34</ele>
        <time>2024-09-12T13:57:55Z</time>
      </trkpt>
      <trkpt lat="52.084742970764637" lon="10.893695019185543">
        <ele>119.34</ele>
        <time>2024-09-12T13:57:56Z</time>
      </trkpt>
      <trkpt lat="52.08476803265512" lon="10.893419003114104">
        <ele>119.81999999999999</ele>
        <time>2024-09-12T13:57:57Z</time>
      </trkpt>
      <trkpt lat="52.084795022383332" lon="10.893117003142834">
        <ele>120.3</ele>
        <time>2024-09-12T13:57:58Z</time>
      </trkpt>
      <trkpt lat="52.084825029596686" lon="10.892794970422983">
        <ele>120.78</ele>
        <time>2024-09-12T13:57:59Z</time>
      </trkpt>
      <trkpt lat="52.084855958819389" lon="10.892459023743868">
        <ele>121.26000000000001</ele>
        <time>2024-09-12T13:58:00Z</time>
      </trkpt>
      <trkpt lat="52.085182014852762" lon="10.888951029628515">
        <ele>129.91999999999999</ele>
        <time>2024-09-12T13:58:09Z</time>
      </trkpt>
      <trkpt lat="52.085405979305506" lon="10.885386038571596">
        <ele>131.84</ele>
        <time>2024-09-12T13:58:17Z</time>
      </trkpt>
      <trkpt lat="52.085483008995652" lon="10.879728002473712">
        <ele>138.56999999999999</ele>
        <time>2024-09-12T13:58:30Z</time>
      </trkpt>
      <trkpt lat="52.085764976218343" lon="10.877133971080184">
        <ele>143.37</ele>
        <time>2024-09-12T13:58:36Z</time>
      </trkpt>
      <trkpt lat="52.086932994425297" lon="10.871997037902474">
        <ele>155.87</ele>
        <time>2024-09-12T13:58:48Z</time>
      </trkpt>
      <trkpt lat="52.088450035080314" lon="10.86649096570909">
        <ele>153.94999999999999</ele>
        <time>2024-09-12T13:59:01Z</time>
      </trkpt>
      <trkpt lat="52.089051017537713" lon="10.863521005958319">
        <ele>152.50999999999999</ele>
        <time>2024-09-12T13:59:09Z</time>
      </trkpt>
      <trkpt lat="52.089333990588784" lon="10.862049981951714">
        <ele>152.50999999999999</ele>
        <time>2024-09-12T13:59:15Z</time>
      </trkpt>
      <trkpt lat="52.089359974488616" lon="10.861913021653891">
        <ele>152.50999999999999</ele>
        <time>2024-09-12T13:59:16Z</time>
      </trkpt>
      <trkpt lat="52.089382018893957" lon="10.861802967265248">
        <ele>152.03</ele>
        <time>2024-09-12T13:59:17Z</time>
      </trkpt>
      <trkpt lat="52.089491989463568" lon="10.861712023615837">
        <ele>152.03</ele>
        <time>2024-09-12T13:59:18Z</time>
      </trkpt>
      <trkpt lat="52.089563990011811" lon="10.86171998642385">
        <ele>151.53999999999999</ele>
        <time>2024-09-12T13:59:19Z</time>
      </trkpt>
      <trkpt lat="52.089667003601789" lon="10.861731972545385">
        <ele>151.06</ele>
        <time>2024-09-12T13:59:20Z</time>
      </trkpt>
      <trkpt lat="52.089796001091599" lon="10.861746976152062">
        <ele>151.06</ele>
        <time>2024-09-12T13:59:21Z</time>
      </trkpt>
      <trkpt lat="52.091037025675178" lon="10.861957026645541">
        <ele>149.62</ele>
        <time>2024-09-12T13:59:28Z</time>
      </trkpt>
      <trkpt lat="52.093141973018646" lon="10.862489026039839">
        <ele>143.37</ele>
        <time>2024-09-12T13:59:37Z</time>
      </trkpt>
      <trkpt lat="52.095998022705317" lon="10.863224035128951">
        <ele>138.09</ele>
        <time>2024-09-12T13:59:49Z</time>
      </trkpt>
      <trkpt lat="52.097812034189701" lon="10.864460030570626">
        <ele>130.40000000000001</ele>
        <time>2024-09-12T13:59:57Z</time>
      </trkpt>
      <trkpt lat="52.100887019187212" lon="10.866594985127449">
        <ele>112.61</ele>
        <time>2024-09-12T14:00:10Z</time>
      </trkpt>
      <trkpt lat="52.101518008857965" lon="10.867110975086689">
        <ele>109.25</ele>
        <time>2024-09-12T14:00:13Z</time>
      </trkpt>
      <trkpt lat="52.10172101855278" lon="10.867322031408548">
        <ele>108.29000000000001</ele>
        <time>2024-09-12T14:00:14Z</time>
      </trkpt>
      <trkpt lat="52.101891003549099" lon="10.867607016116381">
        <ele>107.81</ele>
        <time>2024-09-12T14:00:15Z</time>
      </trkpt>
      <trkpt lat="52.103230012580752" lon="10.869857976213098">
        <ele>104.44</ele>
        <time>2024-09-12T14:00:23Z</time>
      </trkpt>
      <trkpt lat="52.103641983121634" lon="10.870719971135259">
        <ele>104.44</ele>
        <time>2024-09-12T14:00:27Z</time>
      </trkpt>
      <trkpt lat="52.103704009205103" lon="10.870912000536919">
        <ele>103.95999999999999</ele>
        <time>2024-09-12T14:00:28Z</time>
      </trkpt>
      <trkpt lat="52.103753965348005" lon="10.871114004403353">
        <ele>103.48</ele>
        <time>2024-09-12T14:00:29Z</time>
      </trkpt>
      <trkpt lat="52.103800987824798" lon="10.87130100466311">
        <ele>103.48</ele>
        <time>2024-09-12T14:00:30Z</time>
      </trkpt>
      <trkpt lat="52.103845998644829" lon="10.871481969952583">
        <ele>103</ele>
        <time>2024-09-12T14:00:31Z</time>
      </trkpt>
      <trkpt lat="52.103890003636479" lon="10.871660001575947">
        <ele>103</ele>
        <time>2024-09-12T14:00:32Z</time>
      </trkpt>
      <trkpt lat="52.103939959779382" lon="10.873639974743128">
        <ele>100.11</ele>
        <time>2024-09-12T14:00:42Z</time>
      </trkpt>
      <trkpt lat="52.103965021669865" lon="10.874440027400851">
        <ele>100.11</ele>
        <time>2024-09-12T14:00:47Z</time>
      </trkpt>
      <trkpt lat="52.103969966992736" lon="10.874538011848927">
        <ele>100.11</ele>
        <time>2024-09-12T14:00:48Z</time>
      </trkpt>
      <trkpt lat="52.104001985862851" lon="10.874616969376802">
        <ele>100.11</ele>
        <time>2024-09-12T14:00:49Z</time>
      </trkpt>
      <trkpt lat="52.104074992239475" lon="10.874638007953763">
        <ele>99.629999999999995</ele>
        <time>2024-09-12T14:00:50Z</time>
      </trkpt>
      <trkpt lat="52.104156967252493" lon="10.87463297881186">
        <ele>99.629999999999995</ele>
        <time>2024-09-12T14:00:51Z</time>
      </trkpt>
      <trkpt lat="52.104252018034458" lon="10.874628033488989">
        <ele>99.629999999999995</ele>
        <time>2024-09-12T14:00:52Z</time>
      </trkpt>
      <trkpt lat="52.104358971118927" lon="10.874621998518705">
        <ele>99.629999999999995</ele>
        <time>2024-09-12T14:00:53Z</time>
      </trkpt>
      <trkpt lat="52.104469025507569" lon="10.874616969376802">
        <ele>99.629999999999995</ele>
        <time>2024-09-12T14:00:54Z</time>
      </trkpt>
      <trkpt lat="52.104577990248799" lon="10.874611018225551">
        <ele>99.629999999999995</ele>
        <time>2024-09-12T14:00:55Z</time>
      </trkpt>
      <trkpt lat="52.104975041002035" lon="10.874576987698674">
        <ele>99.629999999999995</ele>
        <time>2024-09-12T14:00:59Z</time>
      </trkpt>
      <trkpt lat="52.105082999914885" lon="10.874563995748758">
        <ele>100.11</ele>
        <time>2024-09-12T14:01:00Z</time>
      </trkpt>
      <trkpt lat="52.10606100037694" lon="10.874404991045594">
        <ele>103.95999999999999</ele>
        <time>2024-09-12T14:01:09Z</time>
      </trkpt>
      <trkpt lat="52.106181029230356" lon="10.874384036287665">
        <ele>104.44</ele>
        <time>2024-09-12T14:01:10Z</time>
      </trkpt>
      <trkpt lat="52.106243977323174" lon="10.874319998547435">
        <ele>104.92</ele>
        <time>2024-09-12T14:01:11Z</time>
      </trkpt>
      <trkpt lat="52.106327963992953" lon="10.874228971078992">
        <ele>105.88</ele>
        <time>2024-09-12T14:01:12Z</time>
      </trkpt>
      <trkpt lat="52.106411028653383" lon="10.874129980802536">
        <ele>106.36</ele>
        <time>2024-09-12T14:01:13Z</time>
      </trkpt>
      <trkpt lat="52.107390034943819" lon="10.872822990640998">
        <ele>110.20999999999999</ele>
        <time>2024-09-12T14:01:25Z</time>
      </trkpt>
      <trkpt lat="52.107468992471695" lon="10.872730035334826">
        <ele>110.69</ele>
        <time>2024-09-12T14:01:26Z</time>
      </trkpt>
      <trkpt lat="52.107545016333461" lon="10.872638002038002">
        <ele>110.69</ele>
        <time>2024-09-12T14:01:27Z</time>
      </trkpt>
      <trkpt lat="52.107784990221262" lon="10.872541023418307">
        <ele>110.20999999999999</ele>
        <time>2024-09-12T14:01:30Z</time>
      </trkpt>
      <trkpt lat="52.108009960502386" lon="10.872489977627993">
        <ele>108.29000000000001</ele>
        <time>2024-09-12T14:01:37Z</time>
      </trkpt>
      <trkpt lat="52.108223028481007" lon="10.872473968192935">
        <ele>108.29000000000001</ele>
        <time>2024-09-12T14:01:40Z</time>
      </trkpt>
      <trkpt lat="52.109147971495986" lon="10.872564995661378">
        <ele>116.94</ele>
        <time>2024-09-12T14:01:48Z</time>
      </trkpt>
      <trkpt lat="52.110137036070228" lon="10.873035974800587">
        <ele>122.22</ele>
        <time>2024-09-12T14:01:54Z</time>
      </trkpt>
      <trkpt lat="52.112288000062108" lon="10.874111037701368">
        <ele>128.94999999999999</ele>
        <time>2024-09-12T14:02:04Z</time>
      </trkpt>
      <trkpt lat="52.11431298404932" lon="10.875091971829534">
        <ele>130.88</ele>
        <time>2024-09-12T14:02:13Z</time>
      </trkpt>
      <trkpt lat="52.114542983472347" lon="10.875104041770101">
        <ele>130.40000000000001</ele>
        <time>2024-09-12T14:02:14Z</time>
      </trkpt>
      <trkpt lat="52.114777006208897" lon="10.875117033720016">
        <ele>129.91999999999999</ele>
        <time>2024-09-12T14:02:15Z</time>
      </trkpt>
      <trkpt lat="52.115014968439937" lon="10.875131031498313">
        <ele>128.94999999999999</ele>
        <time>2024-09-12T14:02:16Z</time>
      </trkpt>
      <trkpt lat="52.116528991609812" lon="10.875112004578114">
        <ele>123.19</ele>
        <time>2024-09-12T14:02:22Z</time>
      </trkpt>
      <trkpt lat="52.116776006296277" lon="10.875206971541047">
        <ele>122.70999999999999</ele>
        <time>2024-09-12T14:02:23Z</time>
      </trkpt>
      <trkpt lat="52.117015980184078" lon="10.875347033143044">
        <ele>122.22</ele>
        <time>2024-09-12T14:02:24Z</time>
      </trkpt>
      <trkpt lat="52.117246985435486" lon="10.875500002875924">
        <ele>122.22</ele>
        <time>2024-09-12T14:02:25Z</time>
      </trkpt>
      <trkpt lat="52.117477990686893" lon="10.875685997307301">
        <ele>122.22</ele>
        <time>2024-09-12T14:02:26Z</time>
      </trkpt>
      <trkpt lat="52.119974037632346" lon="10.877731014043093">
        <ele>136.63999999999999</ele>
        <time>2024-09-12T14:02:37Z</time>
      </trkpt>
      <trkpt lat="52.121266024187207" lon="10.878513967618346">
        <ele>144.81999999999999</ele>
        <time>2024-09-12T14:02:43Z</time>
      </trkpt>
      <trkpt lat="52.123785959556699" lon="10.879309996962547">
        <ele>149.13999999999999</ele>
        <time>2024-09-12T14:02:53Z</time>
      </trkpt>
      <trkpt lat="52.127115000039339" lon="10.880358992144465">
        <ele>153.94999999999999</ele>
        <time>2024-09-12T14:03:06Z</time>
      </trkpt>
      <trkpt lat="52.129842974245548" lon="10.881229033693671">
        <ele>155.38999999999999</ele>
        <time>2024-09-12T14:03:18Z</time>
      </trkpt>
      <trkpt lat="52.130004996433854" lon="10.881345961242914">
        <ele>154.43000000000001</ele>
        <time>2024-09-12T14:03:19Z</time>
      </trkpt>
      <trkpt lat="52.130137011408806" lon="10.881516030058265">
        <ele>153.47</ele>
        <time>2024-09-12T14:03:20Z</time>
      </trkpt>
      <trkpt lat="52.130256034433842" lon="10.881678974255919">
        <ele>152.50999999999999</ele>
        <time>2024-09-12T14:03:21Z</time>
      </trkpt>
      <trkpt lat="52.13036198168993" lon="10.881907967850566">
        <ele>151.53999999999999</ele>
        <time>2024-09-12T14:03:22Z</time>
      </trkpt>
      <trkpt lat="52.130470024421811" lon="10.882140984758735">
        <ele>150.09999999999999</ele>
        <time>2024-09-12T14:03:23Z</time>
      </trkpt>
      <trkpt lat="52.130582006648183" lon="10.882385987788439">
        <ele>149.13999999999999</ele>
        <time>2024-09-12T14:03:24Z</time>
      </trkpt>
      <trkpt lat="52.131723035126925" lon="10.885108010843396">
        <ele>144.81999999999999</ele>
        <time>2024-09-12T14:03:35Z</time>
      </trkpt>
      <trkpt lat="52.131862007081509" lon="10.885229967534542">
        <ele>144.81999999999999</ele>
        <time>2024-09-12T14:03:36Z</time>
      </trkpt>
      <trkpt lat="52.132002990692854" lon="10.885337004438043">
        <ele>145.30000000000001</ele>
        <time>2024-09-12T14:03:37Z</time>
      </trkpt>
      <trkpt lat="52.133071012794971" lon="10.885866992175579">
        <ele>143.84999999999999</ele>
        <time>2024-09-12T14:03:45Z</time>
      </trkpt>
      <trkpt lat="52.133401008322835" lon="10.886120963841677">
        <ele>144.34</ele>
        <time>2024-09-12T14:03:48Z</time>
      </trkpt>
      <trkpt lat="52.133501004427671" lon="10.886216014623642">
        <ele>144.81999999999999</ele>
        <time>2024-09-12T14:03:49Z</time>
      </trkpt>
      <trkpt lat="52.13360401801765" lon="10.886313999071717">
        <ele>145.30000000000001</ele>
        <time>2024-09-12T14:03:50Z</time>
      </trkpt>
      <trkpt lat="52.133688004687428" lon="10.886442996561527">
        <ele>145.78</ele>
        <time>2024-09-12T14:03:51Z</time>
      </trkpt>
      <trkpt lat="52.13377601467073" lon="10.886575011536479">
        <ele>146.25999999999999</ele>
        <time>2024-09-12T14:03:52Z</time>
      </trkpt>
      <trkpt lat="52.134215980768204" lon="10.887241959571838">
        <ele>149.13999999999999</ele>
        <time>2024-09-12T14:03:59Z</time>
      </trkpt>
      <trkpt lat="52.134217992424965" lon="10.887390989810228">
        <ele>149.62</ele>
        <time>2024-09-12T14:04:01Z</time>
      </trkpt>
      <trkpt lat="52.134211035445333" lon="10.887494003400207">
        <ele>150.09999999999999</ele>
        <time>2024-09-12T14:04:02Z</time>
      </trkpt>
      <trkpt lat="52.134202988818288" lon="10.887616965919733">
        <ele>150.58000000000001</ele>
        <time>2024-09-12T14:04:03Z</time>
      </trkpt>
      <trkpt lat="52.134162001311779" lon="10.888625979423523">
        <ele>152.50999999999999</ele>
        <time>2024-09-12T14:04:09Z</time>
      </trkpt>
      <trkpt lat="52.134107016026974" lon="10.889128977432847">
        <ele>153.94999999999999</ele>
        <time>2024-09-12T14:04:12Z</time>
      </trkpt>
      <trkpt lat="52.133737038820982" lon="10.89081197977066">
        <ele>155.87</ele>
        <time>2024-09-12T14:04:21Z</time>
      </trkpt>
      <trkpt lat="52.133708959445357" lon="10.891014989465475">
        <ele>155.87</ele>
        <time>2024-09-12T14:04:22Z</time>
      </trkpt>
      <trkpt lat="52.133703008294106" lon="10.891214981675148">
        <ele>155.87</ele>
        <time>2024-09-12T14:04:23Z</time>
      </trkpt>
      <trkpt lat="52.133697979152203" lon="10.89141103439033">
        <ele>155.87</ele>
        <time>2024-09-12T14:04:24Z</time>
      </trkpt>
      <trkpt lat="52.133693033829331" lon="10.891610020771623">
        <ele>155.87</ele>
        <time>2024-09-12T14:04:25Z</time>
      </trkpt>
      <trkpt lat="52.13369001634419" lon="10.892208991572261">
        <ele>155.87</ele>
        <time>2024-09-12T14:04:28Z</time>
      </trkpt>
      <trkpt lat="52.133679036051035" lon="10.892394986003637">
        <ele>155.87</ele>
        <time>2024-09-12T14:04:29Z</time>
      </trkpt>
      <trkpt lat="52.133628996089101" lon="10.894072037190199">
        <ele>157.78999999999999</ele>
        <time>2024-09-12T14:04:37Z</time>
      </trkpt>
      <trkpt lat="52.133731003850698" lon="10.896334983408451">
        <ele>163.56</ele>
        <time>2024-09-12T14:04:45Z</time>
      </trkpt>
      <trkpt lat="52.133743995800614" lon="10.899225985631347">
        <ele>173.16999999999999</ele>
        <time>2024-09-12T14:04:53Z</time>
      </trkpt>
      <trkpt lat="52.133650034666061" lon="10.902902036905289">
        <ele>178.94</ele>
        <time>2024-09-12T14:05:02Z</time>
      </trkpt>
      <trkpt lat="52.133530005812645" lon="10.907631022855639">
        <ele>180.87</ele>
        <time>2024-09-12T14:05:13Z</time>
      </trkpt>
      <trkpt lat="52.133423974737525" lon="10.911794984713197">
        <ele>185.66999999999999</ele>
        <time>2024-09-12T14:05:23Z</time>
      </trkpt>
      <trkpt lat="52.133307969197631" lon="10.916403019800782">
        <ele>189.03999999999999</ele>
        <time>2024-09-12T14:05:35Z</time>
      </trkpt>
      <trkpt lat="52.13321702554822" lon="10.91970699839294">
        <ele>190.96000000000001</ele>
        <time>2024-09-12T14:05:45Z</time>
      </trkpt>
      <trkpt lat="52.133120968937874" lon="10.923695024102926">
        <ele>194.80000000000001</ele>
        <time>2024-09-12T14:05:55Z</time>
      </trkpt>
      <trkpt lat="52.132778987288475" lon="10.92907402664423">
        <ele>195.28</ele>
        <time>2024-09-12T14:06:08Z</time>
      </trkpt>
      <trkpt lat="52.132621994242072" lon="10.933540994301438">
        <ele>190</ele>
        <time>2024-09-12T14:06:19Z</time>
      </trkpt>
      <trkpt lat="52.133096996694803" lon="10.935426000505686">
        <ele>192.40000000000001</ele>
        <time>2024-09-12T14:06:24Z</time>
      </trkpt>
      <trkpt lat="52.134160995483398" lon="10.938434014096856">
        <ele>198.65000000000001</ele>
        <time>2024-09-12T14:06:33Z</time>
      </trkpt>
      <trkpt lat="52.135103037580848" lon="10.941093005239964">
        <ele>204.90000000000001</ele>
        <time>2024-09-12T14:06:43Z</time>
      </trkpt>
      <trkpt lat="52.135951034724712" lon="10.943817961961031">
        <ele>207.78</ele>
        <time>2024-09-12T14:06:53Z</time>
      </trkpt>
      <trkpt lat="52.136628041043878" lon="10.946642998605967">
        <ele>204.90000000000001</ele>
        <time>2024-09-12T14:07:01Z</time>
      </trkpt>
      <trkpt lat="52.136847982183099" lon="10.947729041799903">
        <ele>202.49000000000001</ele>
        <time>2024-09-12T14:07:04Z</time>
      </trkpt>
      <trkpt lat="52.137110000476241" lon="10.949884029105306">
        <ele>197.21000000000001</ele>
        <time>2024-09-12T14:07:11Z</time>
      </trkpt>
      <trkpt lat="52.13745198212564" lon="10.952725997194648">
        <ele>189.03999999999999</ele>
        <time>2024-09-12T14:07:22Z</time>
      </trkpt>
      <trkpt lat="52.137736966833472" lon="10.955192958936095">
        <ele>183.27000000000001</ele>
        <time>2024-09-12T14:07:32Z</time>
      </trkpt>
      <trkpt lat="52.137772003188729" lon="10.955921011045575">
        <ele>181.34999999999999</ele>
        <time>2024-09-12T14:07:36Z</time>
      </trkpt>
      <trkpt lat="52.137747025117278" lon="10.956023018807173">
        <ele>180.87</ele>
        <time>2024-09-12T14:07:37Z</time>
      </trkpt>
      <trkpt lat="52.137684999033809" lon="10.956269027665257">
        <ele>179.41999999999999</ele>
        <time>2024-09-12T14:07:41Z</time>
      </trkpt>
      <trkpt lat="52.137749958783388" lon="10.956387966871262">
        <ele>178.94</ele>
        <time>2024-09-12T14:07:42Z</time>
      </trkpt>
      <trkpt lat="52.137808967381716" lon="10.956472959369421">
        <ele>178.46000000000001</ele>
        <time>2024-09-12T14:07:43Z</time>
      </trkpt>
      <trkpt lat="52.137876022607088" lon="10.956570021808147">
        <ele>177.97999999999999</ele>
        <time>2024-09-12T14:07:44Z</time>
      </trkpt>
      <trkpt lat="52.137950034812093" lon="10.956677980720997">
        <ele>177.02000000000001</ele>
        <time>2024-09-12T14:07:45Z</time>
      </trkpt>
      <trkpt lat="52.138027986511588" lon="10.956789962947369">
        <ele>176.53999999999999</ele>
        <time>2024-09-12T14:07:46Z</time>
      </trkpt>
      <trkpt lat="52.138109039515257" lon="10.956907980144024">
        <ele>176.06</ele>
        <time>2024-09-12T14:07:47Z</time>
      </trkpt>
      <trkpt lat="52.138200988993049" lon="10.957001019269228">
        <ele>175.58000000000001</ele>
        <time>2024-09-12T14:07:48Z</time>
      </trkpt>
      <trkpt lat="52.138287993147969" lon="10.957086011767387">
        <ele>175.09999999999999</ele>
        <time>2024-09-12T14:07:49Z</time>
      </trkpt>
      <trkpt lat="52.13837499730289" lon="10.957154994830489">
        <ele>175.09999999999999</ele>
        <time>2024-09-12T14:07:50Z</time>
      </trkpt>
      <trkpt lat="52.13854799978435" lon="10.957291033118963">
        <ele>175.58000000000001</ele>
        <time>2024-09-12T14:07:52Z</time>
      </trkpt>
      <trkpt lat="52.138617988675833" lon="10.957380970939994">
        <ele>176.06</ele>
        <time>2024-09-12T14:07:53Z</time>
      </trkpt>
      <trkpt lat="52.138668028637767" lon="10.957467975094914">
        <ele>176.06</ele>
        <time>2024-09-12T14:07:54Z</time>
      </trkpt>
      <trkpt lat="52.138712033629417" lon="10.957591021433473">
        <ele>176.53999999999999</ele>
        <time>2024-09-12T14:07:55Z</time>
      </trkpt>
      <trkpt lat="52.138753021135926" lon="10.957705015316606">
        <ele>176.53999999999999</ele>
        <time>2024-09-12T14:07:56Z</time>
      </trkpt>
      <trkpt lat="52.138795014470816" lon="10.9578210208565">
        <ele>177.02000000000001</ele>
        <time>2024-09-12T14:07:57Z</time>
      </trkpt>
      <trkpt lat="52.138838013634086" lon="10.957942977547646">
        <ele>177.5</ele>
        <time>2024-09-12T14:07:58Z</time>
      </trkpt>
      <trkpt lat="52.138884030282497" lon="10.958069963380694">
        <ele>177.97999999999999</ele>
        <time>2024-09-12T14:07:59Z</time>
      </trkpt>
      <trkpt lat="52.138930968940258" lon="10.958200972527266">
        <ele>178.46000000000001</ele>
        <time>2024-09-12T14:08:00Z</time>
      </trkpt>
      <trkpt lat="52.139331037178636" lon="10.95958499237895">
        <ele>181.83000000000001</ele>
        <time>2024-09-12T14:08:11Z</time>
      </trkpt>
      <trkpt lat="52.139332965016365" lon="10.959592033177614">
        <ele>181.83000000000001</ele>
        <time>2024-09-12T14:08:12Z</time>
      </trkpt>
      <trkpt lat="52.139455005526543" lon="10.959628997370601">
        <ele>181.83000000000001</ele>
        <time>2024-09-12T14:08:13Z</time>
      </trkpt>
      <trkpt lat="52.139517031610012" lon="10.95964701846242">
        <ele>181.83000000000001</ele>
        <time>2024-09-12T14:08:14Z</time>
      </trkpt>
      <trkpt lat="52.139581991359591" lon="10.959666967391968">
        <ele>181.34999999999999</ele>
        <time>2024-09-12T14:08:15Z</time>
      </trkpt>
      <trkpt lat="52.139657009392977" lon="10.959689011797309">
        <ele>181.34999999999999</ele>
        <time>2024-09-12T14:08:16Z</time>
      </trkpt>
      <trkpt lat="52.140496037900448" lon="10.959895038977265">
        <ele>179.90000000000001</ele>
        <time>2024-09-12T14:08:25Z</time>
      </trkpt>
      <trkpt lat="52.141006998717785" lon="10.959978019818664">
        <ele>178.46000000000001</ele>
        <time>2024-09-12T14:08:34Z</time>
      </trkpt>
      <trkpt lat="52.14101898483932" lon="10.959907025098801">
        <ele>177.97999999999999</ele>
        <time>2024-09-12T14:08:35Z</time>
      </trkpt>
      <trkpt lat="52.1410390175879" lon="10.959789007902145">
        <ele>177.02000000000001</ele>
        <time>2024-09-12T14:08:36Z</time>
      </trkpt>
      <trkpt lat="52.14106097817421" lon="10.959663027897477">
        <ele>176.53999999999999</ele>
        <time>2024-09-12T14:08:37Z</time>
      </trkpt>
      <trkpt lat="52.141084028407931" lon="10.959530007094145">
        <ele>176.06</ele>
        <time>2024-09-12T14:08:38Z</time>
      </trkpt>
      <trkpt lat="52.141108000651002" lon="10.95939296297729">
        <ele>175.58000000000001</ele>
        <time>2024-09-12T14:08:39Z</time>
      </trkpt>
      <trkpt lat="52.141131972894073" lon="10.959251979365945">
        <ele>175.58000000000001</ele>
        <time>2024-09-12T14:08:40Z</time>
      </trkpt>
      <trkpt lat="52.141303969547153" lon="10.958106005564332">
        <ele>174.62</ele>
        <time>2024-09-12T14:08:48Z</time>
      </trkpt>
      <trkpt lat="52.141580991446972" lon="10.95649198628962">
        <ele>177.5</ele>
        <time>2024-09-12T14:08:56Z</time>
      </trkpt>
      <trkpt lat="52.141637988388538" lon="10.956294005736709">
        <ele>177.97999999999999</ele>
        <time>2024-09-12T14:08:57Z</time>
      </trkpt>
      <trkpt lat="52.141717029735446" lon="10.956093007698655">
        <ele>178.46000000000001</ele>
        <time>2024-09-12T14:08:58Z</time>
      </trkpt>
      <trkpt lat="52.142481040209532" lon="10.954296011477709">
        <ele>181.83000000000001</ele>
        <time>2024-09-12T14:09:06Z</time>
      </trkpt>
      <trkpt lat="52.143355021253228" lon="10.952232973650098">
        <ele>186.15000000000001</ele>
        <time>2024-09-12T14:09:14Z</time>
      </trkpt>
      <trkpt lat="52.144043007865548" lon="10.949298972263932">
        <ele>196.25</ele>
        <time>2024-09-12T14:09:23Z</time>
      </trkpt>
      <trkpt lat="52.14488698169589" lon="10.94508002512157">
        <ele>213.55000000000001</ele>
        <time>2024-09-12T14:09:35Z</time>
      </trkpt>
      <trkpt lat="52.14525000192225" lon="10.942557994276285">
        <ele>223.63999999999999</ele>
        <time>2024-09-12T14:09:42Z</time>
      </trkpt>
      <trkpt lat="52.145318984985352" lon="10.942229004576802">
        <ele>225.09</ele>
        <time>2024-09-12T14:09:43Z</time>
      </trkpt>
      <trkpt lat="52.145419986918569" lon="10.941905966028571">
        <ele>226.05000000000001</ele>
        <time>2024-09-12T14:09:44Z</time>
      </trkpt>
      <trkpt lat="52.145559964701533" lon="10.941631039604545">
        <ele>226.53</ele>
        <time>2024-09-12T14:09:45Z</time>
      </trkpt>
      <trkpt lat="52.14570396579802" lon="10.941348988562822">
        <ele>227.49000000000001</ele>
        <time>2024-09-12T14:09:46Z</time>
      </trkpt>
      <trkpt lat="52.145850984379649" lon="10.941060986369848">
        <ele>228.44999999999999</ele>
        <time>2024-09-12T14:09:47Z</time>
      </trkpt>
      <trkpt lat="52.146028010174632" lon="10.940796034410596">
        <ele>229.41</ele>
        <time>2024-09-12T14:09:48Z</time>
      </trkpt>
      <trkpt lat="52.14808601886034" lon="10.937786009162664">
        <ele>234.22</ele>
        <time>2024-09-12T14:09:59Z</time>
      </trkpt>
      <trkpt lat="52.148793032392859" lon="10.936829969286919">
        <ele>236.62</ele>
        <time>2024-09-12T14:10:03Z</time>
      </trkpt>
      <trkpt lat="52.148976009339094" lon="10.936627965420485">
        <ele>237.58000000000001</ele>
        <time>2024-09-12T14:10:04Z</time>
      </trkpt>
      <trkpt lat="52.149168960750103" lon="10.936454040929675">
        <ele>238.06</ele>
        <time>2024-09-12T14:10:05Z</time>
      </trkpt>
      <trkpt lat="52.149772038683295" lon="10.935913994908333">
        <ele>239.50999999999999</ele>
        <time>2024-09-12T14:10:08Z</time>
      </trkpt>
      <trkpt lat="52.149936994537711" lon="10.935647031292319">
        <ele>239.99000000000001</ele>
        <time>2024-09-12T14:10:09Z</time>
      </trkpt>
      <trkpt lat="52.150972997769713" lon="10.933362962678075">
        <ele>243.34999999999999</ele>
        <time>2024-09-12T14:10:16Z</time>
      </trkpt>
      <trkpt lat="52.15251199901104" lon="10.929431011900306">
        <ele>252.96000000000001</ele>
        <time>2024-09-12T14:10:27Z</time>
      </trkpt>
      <trkpt lat="52.153644980862737" lon="10.927683971822262">
        <ele>257.29000000000002</ele>
        <time>2024-09-12T14:10:33Z</time>
      </trkpt>
      <trkpt lat="52.153793005272746" lon="10.927283987402916">
        <ele>258.25</ele>
        <time>2024-09-12T14:10:34Z</time>
      </trkpt>
      <trkpt lat="52.15392803773284" lon="10.926918033510447">
        <ele>259.69</ele>
        <time>2024-09-12T14:10:35Z</time>
      </trkpt>
      <trkpt lat="52.15517601929605" lon="10.92312497086823">
        <ele>268.35000000000002</ele>
        <time>2024-09-12T14:10:45Z</time>
      </trkpt>
      <trkpt lat="52.156450990587473" lon="10.918004969134927">
        <ele>273.14999999999998</ele>
        <time>2024-09-12T14:10:58Z</time>
      </trkpt>
      <trkpt lat="52.156598009169102" lon="10.91768897138536">
        <ele>273.14999999999998</ele>
        <time>2024-09-12T14:10:59Z</time>
      </trkpt>
      <trkpt lat="52.156745027750731" lon="10.917380014434457">
        <ele>273.14999999999998</ele>
        <time>2024-09-12T14:11:00Z</time>
      </trkpt>
      <trkpt lat="52.156892968341708" lon="10.917069967836142">
        <ele>273.63</ele>
        <time>2024-09-12T14:11:01Z</time>
      </trkpt>
      <trkpt lat="52.157078040763736" lon="10.916815996170044">
        <ele>273.63</ele>
        <time>2024-09-12T14:11:02Z</time>
      </trkpt>
      <trkpt lat="52.157271998003125" lon="10.916561018675566">
        <ele>273.14999999999998</ele>
        <time>2024-09-12T14:11:03Z</time>
      </trkpt>
      <trkpt lat="52.158391987904906" lon="10.915035009384155">
        <ele>266.89999999999998</ele>
        <time>2024-09-12T14:11:09Z</time>
      </trkpt>
      <trkpt lat="52.158518973737955" lon="10.914728986099362">
        <ele>265.94</ele>
        <time>2024-09-12T14:11:10Z</time>
      </trkpt>
      <trkpt lat="52.158645037561655" lon="10.914397984743118">
        <ele>264.98000000000002</ele>
        <time>2024-09-12T14:11:11Z</time>
      </trkpt>
      <trkpt lat="52.15971096418798" lon="10.911691971123219">
        <ele>261.62</ele>
        <time>2024-09-12T14:11:19Z</time>
      </trkpt>
      <trkpt lat="52.159899976104498" lon="10.911403968930244">
        <ele>261.13999999999999</ele>
        <time>2024-09-12T14:11:20Z</time>
      </trkpt>
      <trkpt lat="52.161819012835622" lon="10.909049995243549">
        <ele>255.37</ele>
        <time>2024-09-12T14:11:29Z</time>
      </trkpt>
      <trkpt lat="52.161985980346799" lon="10.908787976950407">
        <ele>254.41</ele>
        <time>2024-09-12T14:11:30Z</time>
      </trkpt>
      <trkpt lat="52.162154959514737" lon="10.908523024991155">
        <ele>253.44</ele>
        <time>2024-09-12T14:11:31Z</time>
      </trkpt>
      <trkpt lat="52.162318993359804" lon="10.908222030848265">
        <ele>252.96000000000001</ele>
        <time>2024-09-12T14:11:32Z</time>
      </trkpt>
      <trkpt lat="52.162424018606544" lon="10.907870996743441">
        <ele>252.47999999999999</ele>
        <time>2024-09-12T14:11:33Z</time>
      </trkpt>
      <trkpt lat="52.162532983347774" lon="10.907510994002223">
        <ele>252.47999999999999</ele>
        <time>2024-09-12T14:11:34Z</time>
      </trkpt>
      <trkpt lat="52.162639014422894" lon="10.90713799931109">
        <ele>252.47999999999999</ele>
        <time>2024-09-12T14:11:35Z</time>
      </trkpt>
      <trkpt lat="52.162682013586164" lon="10.90673197992146">
        <ele>252.96000000000001</ele>
        <time>2024-09-12T14:11:36Z</time>
      </trkpt>
      <trkpt lat="52.162726018577814" lon="10.906316991895437">
        <ele>253.93000000000001</ele>
        <time>2024-09-12T14:11:37Z</time>
      </trkpt>
      <trkpt lat="52.163180988281965" lon="10.901922024786472">
        <ele>258.73000000000002</ele>
        <time>2024-09-12T14:11:47Z</time>
      </trkpt>
      <trkpt lat="52.163500003516674" lon="10.898590972647071">
        <ele>258.73000000000002</ele>
        <time>2024-09-12T14:11:55Z</time>
      </trkpt>
      <trkpt lat="52.163637969642878" lon="10.897512976080179">
        <ele>258.73000000000002</ele>
        <time>2024-09-12T14:11:58Z</time>
      </trkpt>
      <trkpt lat="52.163741989061236" lon="10.897158002480865">
        <ele>258.73000000000002</ele>
        <time>2024-09-12T14:11:59Z</time>
      </trkpt>
      <trkpt lat="52.163850031793118" lon="10.896808980032802">
        <ele>258.73000000000002</ele>
        <time>2024-09-12T14:12:00Z</time>
      </trkpt>
      <trkpt lat="52.164139039814472" lon="10.895769037306309">
        <ele>258.25</ele>
        <time>2024-09-12T14:12:03Z</time>
      </trkpt>
      <trkpt lat="52.164188995957375" lon="10.895377015694976">
        <ele>258.25</ele>
        <time>2024-09-12T14:12:04Z</time>
      </trkpt>
      <trkpt lat="52.164385970681906" lon="10.894212014973164">
        <ele>258.25</ele>
        <time>2024-09-12T14:12:07Z</time>
      </trkpt>
      <trkpt lat="52.164499964565039" lon="10.893848994746804">
        <ele>257.76999999999998</ele>
        <time>2024-09-12T14:12:08Z</time>
      </trkpt>
      <trkpt lat="52.164618987590075" lon="10.893484968692064">
        <ele>257.76999999999998</ele>
        <time>2024-09-12T14:12:09Z</time>
      </trkpt>
      <trkpt lat="52.165195997804403" lon="10.891644973307848">
        <ele>257.29000000000002</ele>
        <time>2024-09-12T14:12:14Z</time>
      </trkpt>
      <trkpt lat="52.165261963382363" lon="10.89126099832356">
        <ele>256.81</ele>
        <time>2024-09-12T14:12:15Z</time>
      </trkpt>
      <trkpt lat="52.165294988080859" lon="10.890861013904214">
        <ele>256.81</ele>
        <time>2024-09-12T14:12:16Z</time>
      </trkpt>
      <trkpt lat="52.16531602665782" lon="10.890446025878191">
        <ele>256.81</ele>
        <time>2024-09-12T14:12:17Z</time>
      </trkpt>
      <trkpt lat="52.165299011394382" lon="10.890031037852168">
        <ele>256.81</ele>
        <time>2024-09-12T14:12:18Z</time>
      </trkpt>
      <trkpt lat="52.165109999477863" lon="10.887145986780524">
        <ele>257.76999999999998</ele>
        <time>2024-09-12T14:12:25Z</time>
      </trkpt>
      <trkpt lat="52.165134977549314" lon="10.885645961388946">
        <ele>258.73000000000002</ele>
        <time>2024-09-12T14:12:29Z</time>
      </trkpt>
      <trkpt lat="52.165507972240448" lon="10.882606012746692">
        <ele>257.29000000000002</ele>
        <time>2024-09-12T14:12:37Z</time>
      </trkpt>
      <trkpt lat="52.165499003604054" lon="10.882272999733686">
        <ele>256.81</ele>
        <time>2024-09-12T14:12:38Z</time>
      </trkpt>
      <trkpt lat="52.165485005825758" lon="10.881925988942385">
        <ele>256.32999999999998</ele>
        <time>2024-09-12T14:12:39Z</time>
      </trkpt>
      <trkpt lat="52.165304040536284" lon="10.878899032250047">
        <ele>249.12</ele>
        <time>2024-09-12T14:12:47Z</time>
      </trkpt>
      <trkpt lat="52.165312003344297" lon="10.878513967618346">
        <ele>248.16</ele>
        <time>2024-09-12T14:12:48Z</time>
      </trkpt>
      <trkpt lat="52.165329018607736" lon="10.878130998462439">
        <ele>247.19999999999999</ele>
        <time>2024-09-12T14:12:49Z</time>
      </trkpt>
      <trkpt lat="52.165386015549302" lon="10.877753980457783">
        <ele>246.22999999999999</ele>
        <time>2024-09-12T14:12:50Z</time>
      </trkpt>
      <trkpt lat="52.166209034621716" lon="10.874218996614218">
        <ele>237.58000000000001</ele>
        <time>2024-09-12T14:12:59Z</time>
      </trkpt>
      <trkpt lat="52.16692702844739" lon="10.871481969952583">
        <ele>232.78</ele>
        <time>2024-09-12T14:13:06Z</time>
      </trkpt>
      <trkpt lat="52.16697002761066" lon="10.871097994968295">
        <ele>232.30000000000001</ele>
        <time>2024-09-12T14:13:07Z</time>
      </trkpt>
      <trkpt lat="52.166997017338872" lon="10.870690969750285">
        <ele>231.81</ele>
        <time>2024-09-12T14:13:08Z</time>
      </trkpt>
      <trkpt lat="52.16723196208477" lon="10.867253970354795">
        <ele>225.56999999999999</ele>
        <time>2024-09-12T14:13:16Z</time>
      </trkpt>
      <trkpt lat="52.1674669906497" lon="10.863771038129926">
        <ele>223.16</ele>
        <time>2024-09-12T14:13:24Z</time>
      </trkpt>
      <trkpt lat="52.167703025043011" lon="10.860164975747466">
        <ele>217.88</ele>
        <time>2024-09-12T14:13:33Z</time>
      </trkpt>
      <trkpt lat="52.167710987851024" lon="10.85920600220561">
        <ele>214.99000000000001</ele>
        <time>2024-09-12T14:13:36Z</time>
      </trkpt>
      <trkpt lat="52.167700007557869" lon="10.858210986480117">
        <ele>208.25999999999999</ele>
        <time>2024-09-12T14:13:40Z</time>
      </trkpt>
      <trkpt lat="52.167720962315798" lon="10.858033038675785">
        <ele>207.30000000000001</ele>
        <time>2024-09-12T14:13:41Z</time>
      </trkpt>
      <trkpt lat="52.167780976742506" lon="10.857893982902169">
        <ele>205.86000000000001</ele>
        <time>2024-09-12T14:13:42Z</time>
      </trkpt>
      <trkpt lat="52.167848031967878" lon="10.857736989855766">
        <ele>203.94</ele>
        <time>2024-09-12T14:13:43Z</time>
      </trkpt>
      <trkpt lat="52.167849959805608" lon="10.857731960713863">
        <ele>202.49000000000001</ele>
        <time>2024-09-12T14:13:44Z</time>
      </trkpt>
      <trkpt lat="52.167988009750843" lon="10.857699019834399">
        <ele>201.05000000000001</ele>
        <time>2024-09-12T14:13:45Z</time>
      </trkpt>
      <trkpt lat="52.168148020282388" lon="10.857660965994">
        <ele>199.13</ele>
        <time>2024-09-12T14:13:46Z</time>
      </trkpt>
      <trkpt lat="52.169491974636912" lon="10.85733700543642">
        <ele>183.27000000000001</ele>
        <time>2024-09-12T14:13:53Z</time>
      </trkpt>
      <trkpt lat="52.170982025563717" lon="10.857081022113562">
        <ele>168.37</ele>
        <time>2024-09-12T14:14:00Z</time>
      </trkpt>
      <trkpt lat="52.172576012089849" lon="10.857146987691522">
        <ele>152.03</ele>
        <time>2024-09-12T14:14:07Z</time>
      </trkpt>
      <trkpt lat="52.174087017774582" lon="10.856986977159977">
        <ele>136.63999999999999</ele>
        <time>2024-09-12T14:14:14Z</time>
      </trkpt>
      <trkpt lat="52.175236009061337" lon="10.856701992452145">
        <ele>124.63</ele>
        <time>2024-09-12T14:14:20Z</time>
      </trkpt>
      <trkpt lat="52.175383027642965" lon="10.856639966368675">
        <ele>123.19</ele>
        <time>2024-09-12T14:14:21Z</time>
      </trkpt>
      <trkpt lat="52.176802000030875" lon="10.855326019227505">
        <ele>116.45999999999999</ele>
        <time>2024-09-12T14:14:29Z</time>
      </trkpt>
      <trkpt lat="52.178485002368689" lon="10.853239009156823">
        <ele>112.13</ele>
        <time>2024-09-12T14:14:38Z</time>
      </trkpt>
      <trkpt lat="52.179732983931899" lon="10.851677963510156">
        <ele>106.84</ele>
        <time>2024-09-12T14:14:45Z</time>
      </trkpt>
      <trkpt lat="52.180749960243702" lon="10.850816974416375">
        <ele>102.04000000000001</ele>
        <time>2024-09-12T14:14:50Z</time>
      </trkpt>
      <trkpt lat="52.180928997695446" lon="10.850630979984999">
        <ele>101.56</ele>
        <time>2024-09-12T14:14:51Z</time>
      </trkpt>
      <trkpt lat="52.181272991001606" lon="10.850220015272498">
        <ele>99.629999999999995</ele>
        <time>2024-09-12T14:14:53Z</time>
      </trkpt>
      <trkpt lat="52.181411040946841" lon="10.849983980879188">
        <ele>98.670000000000002</ele>
        <time>2024-09-12T14:14:54Z</time>
      </trkpt>
      <trkpt lat="52.181546995416284" lon="10.849750963971019">
        <ele>97.709999999999994</ele>
        <time>2024-09-12T14:14:55Z</time>
      </trkpt>
      <trkpt lat="52.18168999068439" lon="10.849458016455173">
        <ele>96.75</ele>
        <time>2024-09-12T14:14:56Z</time>
      </trkpt>
      <trkpt lat="52.181787975132465" lon="10.849177977070212">
        <ele>95.790000000000006</ele>
        <time>2024-09-12T14:14:57Z</time>
      </trkpt>
      <trkpt lat="52.181880008429289" lon="10.848916964605451">
        <ele>94.829999999999998</ele>
        <time>2024-09-12T14:14:58Z</time>
      </trkpt>
      <trkpt lat="52.182127023115754" lon="10.848219003528357">
        <ele>91.939999999999998</ele>
        <time>2024-09-12T14:15:01Z</time>
      </trkpt>
      <trkpt lat="52.182181002572179" lon="10.848021022975445">
        <ele>91.459999999999994</ele>
        <time>2024-09-12T14:15:02Z</time>
      </trkpt>
      <trkpt lat="52.182230958715081" lon="10.847837962210178">
        <ele>90.5</ele>
        <time>2024-09-12T14:15:03Z</time>
      </trkpt>
      <trkpt lat="52.182275969535112" lon="10.847670994699001">
        <ele>90.019999999999996</ele>
        <time>2024-09-12T14:15:04Z</time>
      </trkpt>
      <trkpt lat="52.182317040860653" lon="10.847519030794501">
        <ele>89.540000000000006</ele>
        <time>2024-09-12T14:15:05Z</time>
      </trkpt>
      <trkpt lat="52.182352999225259" lon="10.84738701581955">
        <ele>89.060000000000002</ele>
        <time>2024-09-12T14:15:06Z</time>
      </trkpt>
      <trkpt lat="52.182378983125091" lon="10.847290959209204">
        <ele>89.060000000000002</ele>
        <time>2024-09-12T14:15:07Z</time>
      </trkpt>
      <trkpt lat="52.182397004216909" lon="10.847222981974483">
        <ele>88.579999999999998</ele>
        <time>2024-09-12T14:15:08Z</time>
      </trkpt>
      <trkpt lat="52.182548968121409" lon="10.846682013943791">
        <ele>87.140000000000001</ele>
        <time>2024-09-12T14:15:10Z</time>
      </trkpt>
      <trkpt lat="52.182548968121409" lon="10.846682013943791">
        <ele>86.659999999999997</ele>
        <time>2024-09-12T14:15:11Z</time>
      </trkpt>
      <trkpt lat="52.182548968121409" lon="10.846682013943791">
        <ele>89.540000000000006</ele>
        <time>2024-09-12T14:15:12Z</time>
      </trkpt>
      <trkpt lat="52.182859014719725" lon="10.846876977011561">
        <ele>90.980000000000004</ele>
        <time>2024-09-12T14:15:13Z</time>
      </trkpt>
      <trkpt lat="52.182932021096349" lon="10.84708996117115">
        <ele>91.459999999999994</ele>
        <time>2024-09-12T14:15:14Z</time>
      </trkpt>
      <trkpt lat="52.183710029348731" lon="10.848901038989425">
        <ele>87.140000000000001</ele>
        <time>2024-09-12T14:15:21Z</time>
      </trkpt>
      <trkpt lat="52.185121038928628" lon="10.851372024044394">
        <ele>80.890000000000001</ele>
        <time>2024-09-12T14:15:30Z</time>
      </trkpt>
      <trkpt lat="52.186902025714517" lon="10.853920038789511">
        <ele>80.890000000000001</ele>
        <time>2024-09-12T14:15:40Z</time>
      </trkpt>
      <trkpt lat="52.188737997785211" lon="10.855642016977072">
        <ele>90.019999999999996</ele>
        <time>2024-09-12T14:15:50Z</time>
      </trkpt>
      <trkpt lat="52.190298959612846" lon="10.857480000704527">
        <ele>111.17</ele>
        <time>2024-09-12T14:15:59Z</time>
      </trkpt>
      <trkpt lat="52.192478002980351" lon="10.860439985990524">
        <ele>131.84</ele>
        <time>2024-09-12T14:16:11Z</time>
      </trkpt>
      <trkpt lat="52.193433037027717" lon="10.862497994676232">
        <ele>136.63999999999999</ele>
        <time>2024-09-12T14:16:18Z</time>
      </trkpt>
      <trkpt lat="52.194636007770896" lon="10.866265995427966">
        <ele>142.88999999999999</ele>
        <time>2024-09-12T14:16:29Z</time>
      </trkpt>
      <trkpt lat="52.195889018476009" lon="10.870760036632419">
        <ele>140.97</ele>
        <time>2024-09-12T14:16:40Z</time>
      </trkpt>
      <trkpt lat="52.196930972859263" lon="10.874586040154099">
        <ele>138.09</ele>
        <time>2024-09-12T14:16:50Z</time>
      </trkpt>
      <trkpt lat="52.197487028315663" lon="10.876605994999409">
        <ele>136.16</ele>
        <time>2024-09-12T14:16:57Z</time>
      </trkpt>
      <trkpt lat="52.197581995278597" lon="10.876815039664507">
        <ele>136.16</ele>
        <time>2024-09-12T14:16:58Z</time>
      </trkpt>
      <trkpt lat="52.197671011090279" lon="10.877012014389038">
        <ele>136.16</ele>
        <time>2024-09-12T14:16:59Z</time>
      </trkpt>
      <trkpt lat="52.197831021621823" lon="10.87736296467483">
        <ele>136.63999999999999</ele>
        <time>2024-09-12T14:17:01Z</time>
      </trkpt>
      <trkpt lat="52.197894975543022" lon="10.87751098908484">
        <ele>136.16</ele>
        <time>2024-09-12T14:17:02Z</time>
      </trkpt>
      <trkpt lat="52.197930011898279" lon="10.877663036808372">
        <ele>136.16</ele>
        <time>2024-09-12T14:17:03Z</time>
      </trkpt>
      <trkpt lat="52.19786899164319" lon="10.877880966290832">
        <ele>135.68000000000001</ele>
        <time>2024-09-12T14:17:04Z</time>
      </trkpt>
      <trkpt lat="52.197865974158049" lon="10.877913990989327">
        <ele>135.68000000000001</ele>
        <time>2024-09-12T14:17:05Z</time>
      </trkpt>
      <trkpt lat="52.197854993864894" lon="10.87802697904408">
        <ele>135.68000000000001</ele>
        <time>2024-09-12T14:17:06Z</time>
      </trkpt>
      <trkpt lat="52.197893969714642" lon="10.878204004839063">
        <ele>135.68000000000001</ele>
        <time>2024-09-12T14:17:07Z</time>
      </trkpt>
      <trkpt lat="52.19791199080646" lon="10.878245998173952">
        <ele>135.68000000000001</ele>
        <time>2024-09-12T14:17:08Z</time>
      </trkpt>
      <trkpt lat="52.198010981082916" lon="10.878472980111837">
        <ele>135.68000000000001</ele>
        <time>2024-09-12T14:17:09Z</time>
      </trkpt>
      <trkpt lat="52.198003018274903" lon="10.87864900007844">
        <ele>135.68000000000001</ele>
        <time>2024-09-12T14:17:10Z</time>
      </trkpt>
      <trkpt lat="52.19788801856339" lon="10.880250027403235">
        <ele>135.68000000000001</ele>
        <time>2024-09-12T14:17:17Z</time>
      </trkpt>
      <trkpt lat="52.197764972224832" lon="10.881394995376468">
        <ele>135.68000000000001</ele>
        <time>2024-09-12T14:17:23Z</time>
      </trkpt>
      <trkpt lat="52.197677968069911" lon="10.883197020739317">
        <ele>137.61000000000001</ele>
        <time>2024-09-12T14:17:31Z</time>
      </trkpt>
      <trkpt lat="52.197689032182097" lon="10.883473036810756">
        <ele>137.61000000000001</ele>
        <time>2024-09-12T14:17:32Z</time>
      </trkpt>
      <trkpt lat="52.197906961664557" lon="10.885594999417663">
        <ele>138.09</ele>
        <time>2024-09-12T14:17:38Z</time>
      </trkpt>
      <trkpt lat="52.198364026844501" lon="10.889121014624834">
        <ele>135.68000000000001</ele>
        <time>2024-09-12T14:17:46Z</time>
      </trkpt>
      <trkpt lat="52.199074979871511" lon="10.893467031419277">
        <ele>133.28</ele>
        <time>2024-09-12T14:17:56Z</time>
      </trkpt>
      <trkpt lat="52.200139984488487" lon="10.896600019186735">
        <ele>131.36000000000001</ele>
        <time>2024-09-12T14:18:04Z</time>
      </trkpt>
      <trkpt lat="52.202211990952492" lon="10.901395976543427">
        <ele>129.43000000000001</ele>
        <time>2024-09-12T14:18:17Z</time>
      </trkpt>
      <trkpt lat="52.20472002401948" lon="10.9072479698807">
        <ele>123.19</ele>
        <time>2024-09-12T14:18:33Z</time>
      </trkpt>
      <trkpt lat="52.205440029501915" lon="10.909205982461572">
        <ele>122.22</ele>
        <time>2024-09-12T14:18:39Z</time>
      </trkpt>
      <trkpt lat="52.205740017816424" lon="10.911028040573001">
        <ele>121.26000000000001</ele>
        <time>2024-09-12T14:18:45Z</time>
      </trkpt>
      <trkpt lat="52.205959036946297" lon="10.912756975740194">
        <ele>120.3</ele>
        <time>2024-09-12T14:18:53Z</time>
      </trkpt>
      <trkpt lat="52.20603397116065" lon="10.913754003122449">
        <ele>118.86</ele>
        <time>2024-09-12T14:18:58Z</time>
      </trkpt>
      <trkpt lat="52.206028020009398" lon="10.91395097784698">
        <ele>118.86</ele>
        <time>2024-09-12T14:18:59Z</time>
      </trkpt>
      <trkpt lat="52.206014022231102" lon="10.914126997813582">
        <ele>118.38</ele>
        <time>2024-09-12T14:19:00Z</time>
      </trkpt>
      <trkpt lat="52.205950990319252" lon="10.914289020001888">
        <ele>118.38</ele>
        <time>2024-09-12T14:19:01Z</time>
      </trkpt>
      <trkpt lat="52.205875972285867" lon="10.914422962814569">
        <ele>117.90000000000001</ele>
        <time>2024-09-12T14:19:02Z</time>
      </trkpt>
      <trkpt lat="52.205767007544637" lon="10.914537962526083">
        <ele>117.42</ele>
        <time>2024-09-12T14:19:03Z</time>
      </trkpt>
      <trkpt lat="52.205659970641136" lon="10.914650028571486">
        <ele>116.94</ele>
        <time>2024-09-12T14:19:04Z</time>
      </trkpt>
      <trkpt lat="52.205577995628119" lon="10.914736026898026">
        <ele>115.98</ele>
        <time>2024-09-12T14:19:05Z</time>
      </trkpt>
      <trkpt lat="52.205508006736636" lon="10.914810039103031">
        <ele>115.5</ele>
        <time>2024-09-12T14:19:06Z</time>
      </trkpt>
      <trkpt lat="52.205479005351663" lon="10.914879022166133">
        <ele>114.53</ele>
        <time>2024-09-12T14:19:07Z</time>
      </trkpt>
      <trkpt lat="52.205450003966689" lon="10.914983963593841">
        <ele>113.56999999999999</ele>
        <time>2024-09-12T14:19:08Z</time>
      </trkpt>
      <trkpt lat="52.205480011180043" lon="10.915095023810863">
        <ele>112.61</ele>
        <time>2024-09-12T14:19:09Z</time>
      </trkpt>
      <trkpt lat="52.205514963716269" lon="10.915229972451925">
        <ele>112.13</ele>
        <time>2024-09-12T14:19:10Z</time>
      </trkpt>
      <trkpt lat="52.205555029213428" lon="10.915380008518696">
        <ele>111.65000000000001</ele>
        <time>2024-09-12T14:19:11Z</time>
      </trkpt>
      <trkpt lat="52.205604985356331" lon="10.91553901322186">
        <ele>111.17</ele>
        <time>2024-09-12T14:19:12Z</time>
      </trkpt>
      <trkpt lat="52.20585904084146" lon="10.916371000930667">
        <ele>110.69</ele>
        <time>2024-09-12T14:19:17Z</time>
      </trkpt>
      <trkpt lat="52.205926012247801" lon="10.916511984542012">
        <ele>110.69</ele>
        <time>2024-09-12T14:19:18Z</time>
      </trkpt>
      <trkpt lat="52.205993989482522" lon="10.91665699146688">
        <ele>111.17</ele>
        <time>2024-09-12T14:19:19Z</time>
      </trkpt>
      <trkpt lat="52.20603296533227" lon="10.916780959814787">
        <ele>111.17</ele>
        <time>2024-09-12T14:19:20Z</time>
      </trkpt>
      <trkpt lat="52.206059033051133" lon="10.916953962296247">
        <ele>111.65000000000001</ele>
        <time>2024-09-12T14:19:21Z</time>
      </trkpt>
      <trkpt lat="52.206086022779346" lon="10.917127970606089">
        <ele>111.17</ele>
        <time>2024-09-12T14:19:22Z</time>
      </trkpt>
      <trkpt lat="52.206189036369324" lon="10.918825976550579">
        <ele>109.25</ele>
        <time>2024-09-12T14:19:31Z</time>
      </trkpt>
      <trkpt lat="52.206199010834098" lon="10.919020017609">
        <ele>109.25</ele>
        <time>2024-09-12T14:19:32Z</time>
      </trkpt>
      <trkpt lat="52.206208985298872" lon="10.919212969020009">
        <ele>109.25</ele>
        <time>2024-09-12T14:19:33Z</time>
      </trkpt>
      <trkpt lat="52.206281991675496" lon="10.920328013598919">
        <ele>107.81</ele>
        <time>2024-09-12T14:19:39Z</time>
      </trkpt>
      <trkpt lat="52.206308981403708" lon="10.920465979725122">
        <ele>107.81</ele>
        <time>2024-09-12T14:19:40Z</time>
      </trkpt>
      <trkpt lat="52.206389028578997" lon="10.920552983880043">
        <ele>107.81</ele>
        <time>2024-09-12T14:19:41Z</time>
      </trkpt>
      <trkpt lat="52.206485001370311" lon="10.920575028285384">
        <ele>107.81</ele>
        <time>2024-09-12T14:19:42Z</time>
      </trkpt>
      <trkpt lat="52.206593966111541" lon="10.92056798748672">
        <ele>107.81</ele>
        <time>2024-09-12T14:19:43Z</time>
      </trkpt>
      <trkpt lat="52.206715000793338" lon="10.920547032728791">
        <ele>107.31999999999999</ele>
        <time>2024-09-12T14:19:44Z</time>
      </trkpt>
      <trkpt lat="52.207627035677433" lon="10.920386016368866">
        <ele>107.81</ele>
        <time>2024-09-12T14:19:50Z</time>
      </trkpt>
      <trkpt lat="52.207760978490114" lon="10.920452987775207">
        <ele>108.29000000000001</ele>
        <time>2024-09-12T14:19:51Z</time>
      </trkpt>
      <trkpt lat="52.207896010950208" lon="10.920590031892061">
        <ele>108.29000000000001</ele>
        <time>2024-09-12T14:19:52Z</time>
      </trkpt>
      <trkpt lat="52.208036994561553" lon="10.920734032988548">
        <ele>108.77</ele>
        <time>2024-09-12T14:19:53Z</time>
      </trkpt>
      <trkpt lat="52.208190970122814" lon="10.920892031863332">
        <ele>108.77</ele>
        <time>2024-09-12T14:19:54Z</time>
      </trkpt>
      <trkpt lat="52.209337027743459" lon="10.922087039798498">
        <ele>108.77</ele>
        <time>2024-09-12T14:20:00Z</time>
      </trkpt>
      <trkpt lat="52.21114500425756" lon="10.924211014062166">
        <ele>106.36</ele>
        <time>2024-09-12T14:20:09Z</time>
      </trkpt>
      <trkpt lat="52.211912032216787" lon="10.925216004252434">
        <ele>106.84</ele>
        <time>2024-09-12T14:20:15Z</time>
      </trkpt>
      <trkpt lat="52.211945978924632" lon="10.925260009244084">
        <ele>107.31999999999999</ele>
        <time>2024-09-12T14:20:16Z</time>
      </trkpt>
      <trkpt lat="52.212009010836482" lon="10.925153978168964">
        <ele>107.31999999999999</ele>
        <time>2024-09-12T14:20:17Z</time>
      </trkpt>
      <trkpt lat="52.212067013606429" lon="10.92505800537765">
        <ele>107.31999999999999</ele>
        <time>2024-09-12T14:20:18Z</time>
      </trkpt>
      <trkpt lat="52.212235992774367" lon="10.924803027883172">
        <ele>107.31999999999999</ele>
        <time>2024-09-12T14:20:20Z</time>
      </trkpt>
      <trkpt lat="52.212363984435797" lon="10.924704959616065">
        <ele>107.81</ele>
        <time>2024-09-12T14:20:21Z</time>
      </trkpt>
      <trkpt lat="52.212460963055491" lon="10.924636982381344">
        <ele>107.81</ele>
        <time>2024-09-12T14:20:22Z</time>
      </trkpt>
      <trkpt lat="52.212591972202063" lon="10.924636982381344">
        <ele>107.81</ele>
        <time>2024-09-12T14:20:23Z</time>
      </trkpt>
      <trkpt lat="52.212728010490537" lon="10.924636982381344">
        <ele>107.81</ele>
        <time>2024-09-12T14:20:24Z</time>
      </trkpt>
      <trkpt lat="52.21286203712225" lon="10.92469397932291">
        <ele>107.81</ele>
        <time>2024-09-12T14:20:25Z</time>
      </trkpt>
      <trkpt lat="52.213007966056466" lon="10.924797998741269">
        <ele>107.81</ele>
        <time>2024-09-12T14:20:26Z</time>
      </trkpt>
      <trkpt lat="52.213130006566644" lon="10.924932025372982">
        <ele>107.81</ele>
        <time>2024-09-12T14:20:27Z</time>
      </trkpt>
      <trkpt lat="52.213235031813383" lon="10.925110979005694">
        <ele>107.81</ele>
        <time>2024-09-12T14:20:28Z</time>
      </trkpt>
      <trkpt lat="52.213313989341259" lon="10.925325974822044">
        <ele>108.29000000000001</ele>
        <time>2024-09-12T14:20:29Z</time>
      </trkpt>
      <trkpt lat="52.213352965191007" lon="10.92559696175158">
        <ele>108.29000000000001</ele>
        <time>2024-09-12T14:20:30Z</time>
      </trkpt>
      <trkpt lat="52.213396970182657" lon="10.925893010571599">
        <ele>109.25</ele>
        <time>2024-09-12T14:20:31Z</time>
      </trkpt>
      <trkpt lat="52.213598974049091" lon="10.927921012043953">
        <ele>113.09</ele>
        <time>2024-09-12T14:20:37Z</time>
      </trkpt>
      <trkpt lat="52.213670974597335" lon="10.928435996174812">
        <ele>114.53</ele>
        <time>2024-09-12T14:20:39Z</time>
      </trkpt>
      <trkpt lat="52.21374599263072" lon="10.928648980334401">
        <ele>115.01000000000001</ele>
        <time>2024-09-12T14:20:40Z</time>
      </trkpt>
      <trkpt lat="52.213867027312517" lon="10.928833968937397">
        <ele>115.98</ele>
        <time>2024-09-12T14:20:41Z</time>
      </trkpt>
      <trkpt lat="52.214009016752243" lon="10.928938994184136">
        <ele>116.45999999999999</ele>
        <time>2024-09-12T14:20:42Z</time>
      </trkpt>
      <trkpt lat="52.214161986485124" lon="10.929014012217522">
        <ele>117.42</ele>
        <time>2024-09-12T14:20:43Z</time>
      </trkpt>
      <trkpt lat="52.214331971481442" lon="10.92901099473238">
        <ele>118.38</ele>
        <time>2024-09-12T14:20:44Z</time>
      </trkpt>
      <trkpt lat="52.214513020589948" lon="10.929008983075619">
        <ele>119.34</ele>
        <time>2024-09-12T14:20:45Z</time>
      </trkpt>
      <trkpt lat="52.215696964412928" lon="10.929048964753747">
        <ele>125.11</ele>
        <time>2024-09-12T14:20:51Z</time>
      </trkpt>
      <trkpt lat="52.215859992429614" lon="10.929091963917017">
        <ele>126.06999999999999</ele>
        <time>2024-09-12T14:20:52Z</time>
      </trkpt>
      <trkpt lat="52.216007011011243" lon="10.92922599054873">
        <ele>126.55</ele>
        <time>2024-09-12T14:20:53Z</time>
      </trkpt>
      <trkpt lat="52.216143971309066" lon="10.929378038272262">
        <ele>127.51000000000001</ele>
        <time>2024-09-12T14:20:54Z</time>
      </trkpt>
      <trkpt lat="52.216290989890695" lon="10.929551040753722">
        <ele>127.98999999999999</ele>
        <time>2024-09-12T14:20:55Z</time>
      </trkpt>
      <trkpt lat="52.216413030400872" lon="10.929782968014479">
        <ele>128.47</ele>
        <time>2024-09-12T14:20:56Z</time>
      </trkpt>
      <trkpt lat="52.217607032507658" lon="10.932005010545254">
        <ele>128.94999999999999</ele>
        <time>2024-09-12T14:21:04Z</time>
      </trkpt>
      <trkpt lat="52.218265011906624" lon="10.933180991560221">
        <ele>128.47</ele>
        <time>2024-09-12T14:21:08Z</time>
      </trkpt>
      <trkpt lat="52.218619985505939" lon="10.933580975979567">
        <ele>127.98999999999999</ele>
        <time>2024-09-12T14:21:10Z</time>
      </trkpt>
      <trkpt lat="52.218822995200753" lon="10.933721959590912">
        <ele>127.51000000000001</ele>
        <time>2024-09-12T14:21:11Z</time>
      </trkpt>
      <trkpt lat="52.22057699225843" lon="10.934976981952786">
        <ele>126.06999999999999</ele>
        <time>2024-09-12T14:21:18Z</time>
      </trkpt>
      <trkpt lat="52.223017970100045" lon="10.936730979010463">
        <ele>128.47</ele>
        <time>2024-09-12T14:21:28Z</time>
      </trkpt>
      <trkpt lat="52.22420702688396" lon="10.937578976154327">
        <ele>131.36000000000001</ele>
        <time>2024-09-12T14:21:35Z</time>
      </trkpt>
      <trkpt lat="52.224409030750394" lon="10.937719959765673">
        <ele>131.36000000000001</ele>
        <time>2024-09-12T14:21:37Z</time>
      </trkpt>
      <trkpt lat="52.224467033520341" lon="10.937760025262833">
        <ele>131.36000000000001</ele>
        <time>2024-09-12T14:21:38Z</time>
      </trkpt>
      <trkpt lat="52.224497962743044" lon="10.937781985849142">
        <ele>131.36000000000001</ele>
        <time>2024-09-12T14:21:39Z</time>
      </trkpt>
      <trkpt lat="52.224537022411823" lon="10.937858009710908">
        <ele>131.84</ele>
        <time>2024-09-12T14:21:45Z</time>
      </trkpt>
      <trkpt lat="52.224529981613159" lon="10.937935039401054">
        <ele>131.84</ele>
        <time>2024-09-12T14:21:46Z</time>
      </trkpt>
      <trkpt lat="52.224520007148385" lon="10.938051966950297">
        <ele>131.36000000000001</ele>
        <time>2024-09-12T14:21:47Z</time>
      </trkpt>
      <trkpt lat="52.224506009370089" lon="10.938199991360307">
        <ele>131.84</ele>
        <time>2024-09-12T14:21:48Z</time>
      </trkpt>
      <trkpt lat="52.22448798827827" lon="10.93837701715529">
        <ele>131.36000000000001</ele>
        <time>2024-09-12T14:21:49Z</time>
      </trkpt>
      <trkpt lat="52.22433996386826" lon="10.939922975376248">
        <ele>131.84</ele>
        <time>2024-09-12T14:21:55Z</time>
      </trkpt>
      <trkpt lat="52.22420996055007" lon="10.942584984004498">
        <ele>131.84</ele>
        <time>2024-09-12T14:22:02Z</time>
      </trkpt>
      <trkpt lat="52.224498968571424" lon="10.94652003608644">
        <ele>128.47</ele>
        <time>2024-09-12T14:22:11Z</time>
      </trkpt>
      <trkpt lat="52.225054018199444" lon="10.950976023450494">
        <ele>123.19</ele>
        <time>2024-09-12T14:22:22Z</time>
      </trkpt>
      <trkpt lat="52.225271025672555" lon="10.953746996819973">
        <ele>127.51000000000001</ele>
        <time>2024-09-12T14:22:30Z</time>
      </trkpt>
      <trkpt lat="52.225288040935993" lon="10.957293966785073">
        <ele>129.43000000000001</ele>
        <time>2024-09-12T14:22:40Z</time>
      </trkpt>
      <trkpt lat="52.225588029250503" lon="10.959935020655394">
        <ele>126.55</ele>
        <time>2024-09-12T14:22:47Z</time>
      </trkpt>
      <trkpt lat="52.226047022268176" lon="10.962392007932067">
        <ele>121.73999999999999</ele>
        <time>2024-09-12T14:22:55Z</time>
      </trkpt>
      <trkpt lat="52.226405013352633" lon="10.965534970164299">
        <ele>118.38</ele>
        <time>2024-09-12T14:23:06Z</time>
      </trkpt>
      <trkpt lat="52.226778008043766" lon="10.968840038403869">
        <ele>116.94</ele>
        <time>2024-09-12T14:23:18Z</time>
      </trkpt>
      <trkpt lat="52.2271510027349" lon="10.972150973975658">
        <ele>115.5</ele>
        <time>2024-09-12T14:23:30Z</time>
      </trkpt>
      <trkpt lat="52.227513017132878" lon="10.975407008081675">
        <ele>114.05</ele>
        <time>2024-09-12T14:23:42Z</time>
      </trkpt>
      <trkpt lat="52.227905038744211" lon="10.979494024068117">
        <ele>112.13</ele>
        <time>2024-09-12T14:23:57Z</time>
      </trkpt>
      <trkpt lat="52.228264035657048" lon="10.983735015615821">
        <ele>119.34</ele>
        <time>2024-09-12T14:24:11Z</time>
      </trkpt>
      <trkpt lat="52.228490011766553" lon="10.986529039219022">
        <ele>127.03</ele>
        <time>2024-09-12T14:24:20Z</time>
      </trkpt>
      <trkpt lat="52.228599982336164" lon="10.987806022167206">
        <ele>129.43000000000001</ele>
        <time>2024-09-12T14:24:25Z</time>
      </trkpt>
      <trkpt lat="52.228621020913124" lon="10.988042978569865">
        <ele>130.40000000000001</ele>
        <time>2024-09-12T14:24:26Z</time>
      </trkpt>
      <trkpt lat="52.228814978152514" lon="10.990337021648884">
        <ele>131.84</ele>
        <time>2024-09-12T14:24:37Z</time>
      </trkpt>
      <trkpt lat="52.228851020336151" lon="10.990752009674907">
        <ele>130.88</ele>
        <time>2024-09-12T14:24:43Z</time>
      </trkpt>
      <trkpt lat="52.228857977315784" lon="10.990834990516305">
        <ele>130.40000000000001</ele>
        <time>2024-09-12T14:25:13Z</time>
      </trkpt>
      <trkpt lat="52.228865018114448" lon="10.990921994671226">
        <ele>129.91999999999999</ele>
        <time>2024-09-12T14:25:14Z</time>
      </trkpt>
      <trkpt lat="52.228927966207266" lon="10.991043029353023">
        <ele>128.94999999999999</ele>
        <time>2024-09-12T14:25:15Z</time>
      </trkpt>
      <trkpt lat="52.228987980633974" lon="10.991035988554358">
        <ele>128.47</ele>
        <time>2024-09-12T14:25:16Z</time>
      </trkpt>
      <trkpt lat="52.229070039466023" lon="10.991026014089584">
        <ele>127.51000000000001</ele>
        <time>2024-09-12T14:25:17Z</time>
      </trkpt>
      <trkpt lat="52.229183027520776" lon="10.991013022139668">
        <ele>127.03</ele>
        <time>2024-09-12T14:25:18Z</time>
      </trkpt>
      <trkpt lat="52.229326022788882" lon="10.990998018532991">
        <ele>126.55</ele>
        <time>2024-09-12T14:25:19Z</time>
      </trkpt>
      <trkpt lat="52.229481004178524" lon="10.990982009097934">
        <ele>126.06999999999999</ele>
        <time>2024-09-12T14:25:20Z</time>
      </trkpt>
      <trkpt lat="52.230994021520019" lon="10.990850999951363">
        <ele>121.26000000000001</ele>
        <time>2024-09-12T14:25:28Z</time>
      </trkpt>
      <trkpt lat="52.233499959111214" lon="10.990562997758389">
        <ele>115.01000000000001</ele>
        <time>2024-09-12T14:25:41Z</time>
      </trkpt>
      <trkpt lat="52.235933979973197" lon="10.990183968096972">
        <ele>115.98</ele>
        <time>2024-09-12T14:25:54Z</time>
      </trkpt>
      <trkpt lat="52.238950040191412" lon="10.989621039479971">
        <ele>115.98</ele>
        <time>2024-09-12T14:26:10Z</time>
      </trkpt>
      <trkpt lat="52.240359038114548" lon="10.989356003701687">
        <ele>114.53</ele>
        <time>2024-09-12T14:26:19Z</time>
      </trkpt>
      <trkpt lat="52.240966977551579" lon="10.989239998161793">
        <ele>113.56999999999999</ele>
        <time>2024-09-12T14:26:26Z</time>
      </trkpt>
      <trkpt lat="52.241045013070107" lon="10.989224994555116">
        <ele>113.56999999999999</ele>
        <time>2024-09-12T14:26:33Z</time>
      </trkpt>
      <trkpt lat="52.241318011656404" lon="10.989192975685">
        <ele>113.56999999999999</ele>
        <time>2024-09-12T14:26:53Z</time>
      </trkpt>
      <trkpt lat="52.242054026573896" lon="10.989070013165474">
        <ele>115.5</ele>
        <time>2024-09-12T14:27:01Z</time>
      </trkpt>
      <trkpt lat="52.243260014802217" lon="10.989302024245262">
        <ele>119.34</ele>
        <time>2024-09-12T14:27:11Z</time>
      </trkpt>
      <trkpt lat="52.244290988892317" lon="10.990116996690631">
        <ele>123.19</ele>
        <time>2024-09-12T14:27:19Z</time>
      </trkpt>
      <trkpt lat="52.245829990133643" lon="10.992226973176003">
        <ele>127.98999999999999</ele>
        <time>2024-09-12T14:27:32Z</time>
      </trkpt>
      <trkpt lat="52.247350970283151" lon="10.993989016860723">
        <ele>132.80000000000001</ele>
        <time>2024-09-12T14:27:43Z</time>
      </trkpt>
      <trkpt lat="52.248763991519809" lon="10.994603997096419">
        <ele>136.16</ele>
        <time>2024-09-12T14:27:51Z</time>
      </trkpt>
      <trkpt lat="52.249989006668329" lon="10.994372991845012">
        <ele>139.05000000000001</ele>
        <time>2024-09-12T14:27:58Z</time>
      </trkpt>
      <trkpt lat="52.251901002600789" lon="10.993230035528541">
        <ele>139.05000000000001</ele>
        <time>2024-09-12T14:28:09Z</time>
      </trkpt>
      <trkpt lat="52.254258999601007" lon="10.991706037893891">
        <ele>138.09</ele>
        <time>2024-09-12T14:28:23Z</time>
      </trkpt>
      <trkpt lat="52.256078040227294" lon="10.990497032180429">
        <ele>140.97</ele>
        <time>2024-09-12T14:28:34Z</time>
      </trkpt>
      <trkpt lat="52.25834702141583" lon="10.989046962931752">
        <ele>143.37</ele>
        <time>2024-09-12T14:28:47Z</time>
      </trkpt>
      <trkpt lat="52.260204032063484" lon="10.987786995247006">
        <ele>145.78</ele>
        <time>2024-09-12T14:28:58Z</time>
      </trkpt>
      <trkpt lat="52.262037992477417" lon="10.986630963161588">
        <ele>149.62</ele>
        <time>2024-09-12T14:29:09Z</time>
      </trkpt>
      <trkpt lat="52.262885989621282" lon="10.986056970432401">
        <ele>150.58000000000001</ele>
        <time>2024-09-12T14:29:14Z</time>
      </trkpt>
      <trkpt lat="52.264883983880281" lon="10.98476498387754">
        <ele>154.43000000000001</ele>
        <time>2024-09-12T14:29:26Z</time>
      </trkpt>
      <trkpt lat="52.266302034258842" lon="10.983848003670573">
        <ele>154.43000000000001</ele>
        <time>2024-09-12T14:29:35Z</time>
      </trkpt>
      <trkpt lat="52.267950000241399" lon="10.982792973518372">
        <ele>152.50999999999999</ele>
        <time>2024-09-12T14:29:44Z</time>
      </trkpt>
      <trkpt lat="52.26949998177588" lon="10.981807010248303">
        <ele>149.62</ele>
        <time>2024-09-12T14:29:52Z</time>
      </trkpt>
      <trkpt lat="52.271505016833544" lon="10.980928000062704">
        <ele>144.81999999999999</ele>
        <time>2024-09-12T14:30:02Z</time>
      </trkpt>
      <trkpt lat="52.273201011121273" lon="10.981111982837319">
        <ele>140.97</ele>
        <time>2024-09-12T14:30:10Z</time>
      </trkpt>
      <trkpt lat="52.274880995973945" lon="10.981674995273352">
        <ele>133.28</ele>
        <time>2024-09-12T14:30:19Z</time>
      </trkpt>
      <trkpt lat="52.275962010025978" lon="10.981823019683361">
        <ele>128.94999999999999</ele>
        <time>2024-09-12T14:30:27Z</time>
      </trkpt>
      <trkpt lat="52.276734989136457" lon="10.982076991349459">
        <ele>127.98999999999999</ele>
        <time>2024-09-12T14:30:36Z</time>
      </trkpt>
      <trkpt lat="52.276801960542798" lon="10.982109010219574">
        <ele>127.98999999999999</ele>
        <time>2024-09-12T14:30:43Z</time>
      </trkpt>
      <trkpt lat="52.276884019374847" lon="10.982148991897702">
        <ele>128.47</ele>
        <time>2024-09-12T14:31:24Z</time>
      </trkpt>
      <trkpt lat="52.276940010488033" lon="10.982175981625915">
        <ele>128.47</ele>
        <time>2024-09-12T14:31:25Z</time>
      </trkpt>
      <trkpt lat="52.276971023529768" lon="10.982031980529428">
        <ele>128.47</ele>
        <time>2024-09-12T14:31:26Z</time>
      </trkpt>
      <trkpt lat="52.27697697468102" lon="10.981904994696379">
        <ele>127.98999999999999</ele>
        <time>2024-09-12T14:31:27Z</time>
      </trkpt>
      <trkpt lat="52.276984015479684" lon="10.981744984164834">
        <ele>127.98999999999999</ele>
        <time>2024-09-12T14:31:28Z</time>
      </trkpt>
      <trkpt lat="52.276988038793206" lon="10.981540968641639">
        <ele>127.98999999999999</ele>
        <time>2024-09-12T14:31:29Z</time>
      </trkpt>
      <trkpt lat="52.276992984116077" lon="10.981307029724121">
        <ele>127.51000000000001</ele>
        <time>2024-09-12T14:31:30Z</time>
      </trkpt>
      <trkpt lat="52.277032965794206" lon="10.979139972478151">
        <ele>128.94999999999999</ele>
        <time>2024-09-12T14:31:37Z</time>
      </trkpt>
      <trkpt lat="52.277104966342449" lon="10.977845974266529">
        <ele>130.88</ele>
        <time>2024-09-12T14:31:41Z</time>
      </trkpt>
      <trkpt lat="52.277156012132764" lon="10.977512039244175">
        <ele>130.88</ele>
        <time>2024-09-12T14:31:42Z</time>
      </trkpt>
      <trkpt lat="52.278106017038226" lon="10.974247958511114">
        <ele>131.84</ele>
        <time>2024-09-12T14:31:52Z</time>
      </trkpt>
      <trkpt lat="52.279487019404769" lon="10.970903998240829">
        <ele>129.91999999999999</ele>
        <time>2024-09-12T14:32:03Z</time>
      </trkpt>
      <trkpt lat="52.279844004660845" lon="10.969951981678605">
        <ele>130.40000000000001</ele>
        <time>2024-09-12T14:32:08Z</time>
      </trkpt>
      <trkpt lat="52.279935032129288" lon="10.969843016937375">
        <ele>130.40000000000001</ele>
        <time>2024-09-12T14:32:09Z</time>
      </trkpt>
      <trkpt lat="52.280033016577363" lon="10.96983103081584">
        <ele>130.40000000000001</ele>
        <time>2024-09-12T14:32:10Z</time>
      </trkpt>
      <trkpt lat="52.280154973268509" lon="10.969817033037543">
        <ele>130.88</ele>
        <time>2024-09-12T14:32:11Z</time>
      </trkpt>
      <trkpt lat="52.280276007950306" lon="10.969804041087627">
        <ele>130.88</ele>
        <time>2024-09-12T14:32:12Z</time>
      </trkpt>
      <trkpt lat="52.281230036169291" lon="10.96970496699214">
        <ele>131.36000000000001</ele>
        <time>2024-09-12T14:32:20Z</time>
      </trkpt>
      <trkpt lat="52.282688990235329" lon="10.969498017802835">
        <ele>132.80000000000001</ele>
        <time>2024-09-12T14:32:28Z</time>
      </trkpt>
      <trkpt lat="52.282884959131479" lon="10.969441020861268">
        <ele>132.80000000000001</ele>
        <time>2024-09-12T14:32:29Z</time>
      </trkpt>
      <trkpt lat="52.28305502794683" lon="10.969308000057936">
        <ele>132.80000000000001</ele>
        <time>2024-09-12T14:32:30Z</time>
      </trkpt>
      <trkpt lat="52.283232975751162" lon="10.969144972041249">
        <ele>132.80000000000001</ele>
        <time>2024-09-12T14:32:31Z</time>
      </trkpt>
      <trkpt lat="52.28471003472805" lon="10.967478984966874">
        <ele>134.24000000000001</ele>
        <time>2024-09-12T14:32:39Z</time>
      </trkpt>
      <trkpt lat="52.286513987928629" lon="10.964909009635448">
        <ele>137.13</ele>
        <time>2024-09-12T14:32:49Z</time>
      </trkpt>
      <trkpt lat="52.289385963231325" lon="10.960957026109099">
        <ele>142.41</ele>
        <time>2024-09-12T14:33:04Z</time>
      </trkpt>
      <trkpt lat="52.292329017072916" lon="10.956905968487263">
        <ele>144.81999999999999</ele>
        <time>2024-09-12T14:33:20Z</time>
      </trkpt>
      <trkpt lat="52.293002000078559" lon="10.955813974142075">
        <ele>147.22</ele>
        <time>2024-09-12T14:33:26Z</time>
      </trkpt>
      <trkpt lat="52.293061008676887" lon="10.955714983865619">
        <ele>147.22</ele>
        <time>2024-09-12T14:33:27Z</time>
      </trkpt>
      <trkpt lat="52.293233005329967" lon="10.955728981643915">
        <ele>147.69999999999999</ele>
        <time>2024-09-12T14:33:28Z</time>
      </trkpt>
      <trkpt lat="52.293282961472869" lon="10.955810034647584">
        <ele>147.69999999999999</ele>
        <time>2024-09-12T14:33:29Z</time>
      </trkpt>
      <trkpt lat="52.293342975899577" lon="10.95591003075242">
        <ele>148.18000000000001</ele>
        <time>2024-09-12T14:33:30Z</time>
      </trkpt>
      <trkpt lat="52.293401984497905" lon="10.956050008535385">
        <ele>147.69999999999999</ele>
        <time>2024-09-12T14:33:31Z</time>
      </trkpt>
      <trkpt lat="52.293453030288219" lon="10.956229967996478">
        <ele>147.69999999999999</ele>
        <time>2024-09-12T14:33:32Z</time>
      </trkpt>
      <trkpt lat="52.293511033058167" lon="10.956435995176435">
        <ele>147.69999999999999</ele>
        <time>2024-09-12T14:33:33Z</time>
      </trkpt>
      <trkpt lat="52.293907999992371" lon="10.958177000284195">
        <ele>143.84999999999999</ele>
        <time>2024-09-12T14:33:39Z</time>
      </trkpt>
      <trkpt lat="52.294706040993333" lon="10.961624979972839">
        <ele>136.63999999999999</ele>
        <time>2024-09-12T14:33:48Z</time>
      </trkpt>
      <trkpt lat="52.296018982306123" lon="10.967407990247011">
        <ele>130.40000000000001</ele>
        <time>2024-09-12T14:34:02Z</time>
      </trkpt>
      <trkpt lat="52.296896986663342" lon="10.971311023458838">
        <ele>127.51000000000001</ele>
        <time>2024-09-12T14:34:12Z</time>
      </trkpt>
      <trkpt lat="52.29710703715682" lon="10.972358006983995">
        <ele>127.51000000000001</ele>
        <time>2024-09-12T14:34:15Z</time>
      </trkpt>
      <trkpt lat="52.297211978584528" lon="10.972683979198337">
        <ele>127.51000000000001</ele>
        <time>2024-09-12T14:34:16Z</time>
      </trkpt>
      <trkpt lat="52.298347977921367" lon="10.975489988923073">
        <ele>133.28</ele>
        <time>2024-09-12T14:34:25Z</time>
      </trkpt>
      <trkpt lat="52.299080975353718" lon="10.977301988750696">
        <ele>140.00999999999999</ele>
        <time>2024-09-12T14:34:32Z</time>
      </trkpt>
      <trkpt lat="52.299262024462223" lon="10.977747989818454">
        <ele>143.84999999999999</ele>
        <time>2024-09-12T14:34:37Z</time>
      </trkpt>
      <trkpt lat="52.29929999448359" lon="10.977843040600419">
        <ele>146.25999999999999</ele>
        <time>2024-09-12T14:34:43Z</time>
      </trkpt>
      <trkpt lat="52.299640970304608" lon="10.97840596921742">
        <ele>147.69999999999999</ele>
        <time>2024-09-12T14:34:48Z</time>
      </trkpt>
      <trkpt lat="52.300002984702587" lon="10.978980967774987">
        <ele>148.18000000000001</ele>
        <time>2024-09-12T14:34:51Z</time>
      </trkpt>
      <trkpt lat="52.300113961100578" lon="10.979252960532904">
        <ele>148.18000000000001</ele>
        <time>2024-09-12T14:34:52Z</time>
      </trkpt>
      <trkpt lat="52.300226027145982" lon="10.979528976604342">
        <ele>148.18000000000001</ele>
        <time>2024-09-12T14:34:53Z</time>
      </trkpt>
      <trkpt lat="52.300993977114558" lon="10.981824025511742">
        <ele>146.25999999999999</ele>
        <time>2024-09-12T14:35:00Z</time>
      </trkpt>
      <trkpt lat="52.301939958706498" lon="10.98528197966516">
        <ele>142.41</ele>
        <time>2024-09-12T14:35:09Z</time>
      </trkpt>
      <trkpt lat="52.302596010267735" lon="10.987517014145851">
        <ele>139.53</ele>
        <time>2024-09-12T14:35:15Z</time>
      </trkpt>
      <trkpt lat="52.30273699387908" lon="10.987843992188573">
        <ele>139.05000000000001</ele>
        <time>2024-09-12T14:35:16Z</time>
      </trkpt>
      <trkpt lat="52.30290899053216" lon="10.988145992159843">
        <ele>138.56999999999999</ele>
        <time>2024-09-12T14:35:17Z</time>
      </trkpt>
      <trkpt lat="52.30308199301362" lon="10.988451009616256">
        <ele>137.61000000000001</ele>
        <time>2024-09-12T14:35:18Z</time>
      </trkpt>
      <trkpt lat="52.303292965516448" lon="10.988700035959482">
        <ele>136.63999999999999</ele>
        <time>2024-09-12T14:35:19Z</time>
      </trkpt>
      <trkpt lat="52.303513996303082" lon="10.988932969048619">
        <ele>135.68000000000001</ele>
        <time>2024-09-12T14:35:20Z</time>
      </trkpt>
      <trkpt lat="52.304361993446946" lon="10.989929996430874">
        <ele>133.28</ele>
        <time>2024-09-12T14:35:24Z</time>
      </trkpt>
      <trkpt lat="52.304559973999858" lon="10.99022202193737">
        <ele>133.28</ele>
        <time>2024-09-12T14:35:25Z</time>
      </trkpt>
      <trkpt lat="52.30475896038115" lon="10.990516981109977">
        <ele>132.80000000000001</ele>
        <time>2024-09-12T14:35:26Z</time>
      </trkpt>
      <trkpt lat="52.304942021146417" lon="10.99082300439477">
        <ele>132.31999999999999</ele>
        <time>2024-09-12T14:35:27Z</time>
      </trkpt>
      <trkpt lat="52.305103037506342" lon="10.991163980215788">
        <ele>132.31999999999999</ele>
        <time>2024-09-12T14:35:28Z</time>
      </trkpt>
      <trkpt lat="52.305232034996152" lon="10.991548961028457">
        <ele>131.84</ele>
        <time>2024-09-12T14:35:29Z</time>
      </trkpt>
      <trkpt lat="52.305361032485962" lon="10.991937965154648">
        <ele>130.88</ele>
        <time>2024-09-12T14:35:30Z</time>
      </trkpt>
      <trkpt lat="52.305488018319011" lon="10.992330992594361">
        <ele>130.40000000000001</ele>
        <time>2024-09-12T14:35:31Z</time>
      </trkpt>
      <trkpt lat="52.305577034130692" lon="10.992751009762287">
        <ele>129.91999999999999</ele>
        <time>2024-09-12T14:35:32Z</time>
      </trkpt>
      <trkpt lat="52.305650962516665" lon="10.993176978081465">
        <ele>129.43000000000001</ele>
        <time>2024-09-12T14:35:33Z</time>
      </trkpt>
      <trkpt lat="52.305738972499967" lon="10.995413018390536">
        <ele>126.06999999999999</ele>
        <time>2024-09-12T14:35:38Z</time>
      </trkpt>
      <trkpt lat="52.305233040824533" lon="10.997904036194086">
        <ele>117.90000000000001</ele>
        <time>2024-09-12T14:35:44Z</time>
      </trkpt>
      <trkpt lat="52.304726019501686" lon="11.000439980998635">
        <ele>108.29000000000001</ele>
        <time>2024-09-12T14:35:50Z</time>
      </trkpt>
      <trkpt lat="52.304699029773474" lon="11.000854969024658">
        <ele>106.84</ele>
        <time>2024-09-12T14:35:51Z</time>
      </trkpt>
      <trkpt lat="52.304671034216881" lon="11.001268029212952">
        <ele>105.88</ele>
        <time>2024-09-12T14:35:52Z</time>
      </trkpt>
      <trkpt lat="52.304680002853274" lon="11.00169600918889">
        <ele>103.95999999999999</ele>
        <time>2024-09-12T14:35:53Z</time>
      </trkpt>
      <trkpt lat="52.304739011451602" lon="11.002122983336449">
        <ele>103</ele>
        <time>2024-09-12T14:35:54Z</time>
      </trkpt>
      <trkpt lat="52.304814029484987" lon="11.002547023817897">
        <ele>101.08</ele>
        <time>2024-09-12T14:35:55Z</time>
      </trkpt>
      <trkpt lat="52.304924000054598" lon="11.002956982702017">
        <ele>100.11</ele>
        <time>2024-09-12T14:35:56Z</time>
      </trkpt>
      <trkpt lat="52.305046962574124" lon="11.003338024020195">
        <ele>99.150000000000006</ele>
        <time>2024-09-12T14:35:57Z</time>
      </trkpt>
      <trkpt lat="52.305175960063934" lon="11.003699032589793">
        <ele>97.709999999999994</ele>
        <time>2024-09-12T14:35:58Z</time>
      </trkpt>
      <trkpt lat="52.305299006402493" lon="11.004043025895953">
        <ele>96.75</ele>
        <time>2024-09-12T14:35:59Z</time>
      </trkpt>
      <trkpt lat="52.305808961391449" lon="11.005796017125249">
        <ele>93.390000000000001</ele>
        <time>2024-09-12T14:36:05Z</time>
      </trkpt>
      <trkpt lat="52.306129988282919" lon="11.007143994793296">
        <ele>93.390000000000001</ele>
        <time>2024-09-12T14:36:12Z</time>
      </trkpt>
      <trkpt lat="52.306460989639163" lon="11.008606972172856">
        <ele>92.900000000000006</ele>
        <time>2024-09-12T14:36:23Z</time>
      </trkpt>
      <trkpt lat="52.306663999333978" lon="11.009624032303691">
        <ele>93.390000000000001</ele>
        <time>2024-09-12T14:36:32Z</time>
      </trkpt>
      <trkpt lat="52.306597027927637" lon="11.010487033054233">
        <ele>93.870000000000005</ele>
        <time>2024-09-12T14:36:39Z</time>
      </trkpt>
      <trkpt lat="52.306416984647512" lon="11.011161021888256">
        <ele>93.390000000000001</ele>
        <time>2024-09-12T14:36:45Z</time>
      </trkpt>
      <trkpt lat="52.30615396052599" lon="11.011768039315939">
        <ele>93.390000000000001</ele>
        <time>2024-09-12T14:36:51Z</time>
      </trkpt>
      <trkpt lat="52.306127976626158" lon="11.011886978521943">
        <ele>93.390000000000001</ele>
        <time>2024-09-12T14:36:52Z</time>
      </trkpt>
      <trkpt lat="52.306099981069565" lon="11.012010024860501">
        <ele>93.390000000000001</ele>
        <time>2024-09-12T14:36:53Z</time>
      </trkpt>
      <trkpt lat="52.306072991341352" lon="11.012133993208408">
        <ele>93.390000000000001</ele>
        <time>2024-09-12T14:36:54Z</time>
      </trkpt>
      <trkpt lat="52.306038038805127" lon="11.012291992083192">
        <ele>92.900000000000006</ele>
        <time>2024-09-12T14:36:55Z</time>
      </trkpt>
      <trkpt lat="52.30604600161314" lon="11.01237497292459">
        <ele>92.900000000000006</ele>
        <time>2024-09-12T14:36:56Z</time>
      </trkpt>
      <trkpt lat="52.306057987734675" lon="11.01250296458602">
        <ele>92.900000000000006</ele>
        <time>2024-09-12T14:36:57Z</time>
      </trkpt>
      <trkpt lat="52.306070979684591" lon="11.012636991217732">
        <ele>92.900000000000006</ele>
        <time>2024-09-12T14:36:58Z</time>
      </trkpt>
      <trkpt lat="52.306144991889596" lon="11.013385998085141">
        <ele>92.420000000000002</ele>
        <time>2024-09-12T14:37:04Z</time>
      </trkpt>
      <trkpt lat="52.3061309941113" lon="11.013499991968274">
        <ele>92.420000000000002</ele>
        <time>2024-09-12T14:37:05Z</time>
      </trkpt>
      <trkpt lat="52.306099981069565" lon="11.013758992776275">
        <ele>92.420000000000002</ele>
        <time>2024-09-12T14:37:11Z</time>
      </trkpt>
      <trkpt lat="52.306094029918313" lon="11.013811966404319">
        <ele>92.420000000000002</ele>
        <time>2024-09-12T14:37:12Z</time>
      </trkpt>
      <trkpt lat="52.306112973019481" lon="11.013958984985948">
        <ele>92.420000000000002</ele>
        <time>2024-09-12T14:37:13Z</time>
      </trkpt>
      <trkpt lat="52.306161001324654" lon="11.014012964442372">
        <ele>92.420000000000002</ele>
        <time>2024-09-12T14:37:14Z</time>
      </trkpt>
      <trkpt lat="52.306221015751362" lon="11.014079013839364">
        <ele>92.420000000000002</ele>
        <time>2024-09-12T14:37:15Z</time>
      </trkpt>
      <trkpt lat="52.30628396384418" lon="11.014150008559227">
        <ele>91.939999999999998</ele>
        <time>2024-09-12T14:37:16Z</time>
      </trkpt>
      <trkpt lat="52.306351019069552" lon="11.014225026592612">
        <ele>91.459999999999994</ele>
        <time>2024-09-12T14:37:17Z</time>
      </trkpt>
      <trkpt lat="52.306423019617796" lon="11.014304989948869">
        <ele>91.459999999999994</ele>
        <time>2024-09-12T14:37:18Z</time>
      </trkpt>
      <trkpt lat="52.306501977145672" lon="11.014366010203958">
        <ele>91.459999999999994</ele>
        <time>2024-09-12T14:37:19Z</time>
      </trkpt>
      <trkpt lat="52.306574983522296" lon="11.01441303268075">
        <ele>91.459999999999994</ele>
        <time>2024-09-12T14:37:20Z</time>
      </trkpt>
      <trkpt lat="52.306640027090907" lon="11.014454020187259">
        <ele>91.459999999999994</ele>
        <time>2024-09-12T14:37:21Z</time>
      </trkpt>
      <trkpt lat="52.306724013760686" lon="11.014524009078741">
        <ele>91.459999999999994</ele>
        <time>2024-09-12T14:37:23Z</time>
      </trkpt>
      <trkpt lat="52.30673398822546" lon="11.01463196799159">
        <ele>91.459999999999994</ele>
        <time>2024-09-12T14:37:24Z</time>
      </trkpt>
      <trkpt lat="52.306743040680885" lon="11.01471796631813">
        <ele>91.459999999999994</ele>
        <time>2024-09-12T14:37:25Z</time>
      </trkpt>
      <trkpt lat="52.306752009317279" lon="11.014813017100096">
        <ele>91.459999999999994</ele>
        <time>2024-09-12T14:37:26Z</time>
      </trkpt>
      <trkpt lat="52.306760977953672" lon="11.01490999571979">
        <ele>91.459999999999994</ele>
        <time>2024-09-12T14:37:27Z</time>
      </trkpt>
      <trkpt lat="52.306815963238478" lon="11.015496980398893">
        <ele>90.5</ele>
        <time>2024-09-12T14:37:32Z</time>
      </trkpt>
      <trkpt lat="52.306861979886889" lon="11.015977011993527">
        <ele>90.5</ele>
        <time>2024-09-12T14:37:36Z</time>
      </trkpt>
      <trkpt lat="52.306870026513934" lon="11.016062004491687">
        <ele>90.5</ele>
        <time>2024-09-12T14:37:37Z</time>
      </trkpt>
      <trkpt lat="52.306863991543651" lon="11.016228972002864">
        <ele>90.019999999999996</ele>
        <time>2024-09-12T14:37:39Z</time>
      </trkpt>
      <trkpt lat="52.306810012087226" lon="11.016824003309011">
        <ele>90.019999999999996</ele>
        <time>2024-09-12T14:37:44Z</time>
      </trkpt>
      <trkpt lat="52.306799031794071" lon="11.016940008848906">
        <ele>90.5</ele>
        <time>2024-09-12T14:37:45Z</time>
      </trkpt>
      <trkpt lat="52.306767012923956" lon="11.017388021573424">
        <ele>90.019999999999996</ele>
        <time>2024-09-12T14:37:50Z</time>
      </trkpt>
      <trkpt lat="52.306767012923956" lon="11.01746303960681">
        <ele>90.019999999999996</ele>
        <time>2024-09-12T14:37:51Z</time>
      </trkpt>
      <trkpt lat="52.306780004873872" lon="11.017533028498292">
        <ele>90.019999999999996</ele>
        <time>2024-09-12T14:37:52Z</time>
      </trkpt>
      <trkpt lat="52.307050991803408" lon="11.018521003425121">
        <ele>94.829999999999998</ele>
        <time>2024-09-12T14:38:02Z</time>
      </trkpt>
      <trkpt lat="52.307174960151315" lon="11.018973961472511">
        <ele>99.150000000000006</ele>
        <time>2024-09-12T14:38:09Z</time>
      </trkpt>
      <trkpt lat="52.307217959314585" lon="11.019041016697884">
        <ele>99.150000000000006</ele>
        <time>2024-09-12T14:38:10Z</time>
      </trkpt>
      <trkpt lat="52.307251989841461" lon="11.019026013091207">
        <ele>99.629999999999995</ele>
        <time>2024-09-12T14:38:11Z</time>
      </trkpt>
      <trkpt lat="52.307295994833112" lon="11.019005980342627">
        <ele>99.629999999999995</ele>
        <time>2024-09-12T14:38:12Z</time>
      </trkpt>
      <trkpt lat="52.307342011481524" lon="11.018985025584698">
        <ele>99.629999999999995</ele>
        <time>2024-09-12T14:38:13Z</time>
      </trkpt>
      <trkpt lat="52.307452987879515" lon="11.019045040011406">
        <ele>99.629999999999995</ele>
        <time>2024-09-12T14:38:14Z</time>
      </trkpt>
      <trkpt lat="52.307466985657811" lon="11.019117962568998">
        <ele>99.629999999999995</ele>
        <time>2024-09-12T14:38:15Z</time>
      </trkpt>
      <trkpt lat="52.307496992871165" lon="11.019265986979008">
        <ele>99.629999999999995</ele>
        <time>2024-09-12T14:38:16Z</time>
      </trkpt>
      <trkpt lat="52.307515013962984" lon="11.019304962828755">
        <ele>99.150000000000006</ele>
        <time>2024-09-12T14:38:17Z</time>
      </trkpt>
      <trkpt lat="52.307761022821069" lon="11.019889013841748">
        <ele>98.670000000000002</ele>
        <time>2024-09-12T14:38:25Z</time>
      </trkpt>
      <trkpt lat="52.307773008942604" lon="11.019996972754598">
        <ele>98.670000000000002</ele>
        <time>2024-09-12T14:38:26Z</time>
      </trkpt>
      <trkpt lat="52.30784903280437" lon="11.020721001550555">
        <ele>98.189999999999998</ele>
        <time>2024-09-12T14:38:31Z</time>
      </trkpt>
      <trkpt lat="52.307866970077157" lon="11.020892998203635">
        <ele>97.709999999999994</ele>
        <time>2024-09-12T14:38:32Z</time>
      </trkpt>
      <trkpt lat="52.307928996160626" lon="11.021472020074725">
        <ele>98.189999999999998</ele>
        <time>2024-09-12T14:38:35Z</time>
      </trkpt>
      <trkpt lat="52.307947017252445" lon="11.021648040041327">
        <ele>98.189999999999998</ele>
        <time>2024-09-12T14:38:36Z</time>
      </trkpt>
      <trkpt lat="52.307959003373981" lon="11.021880973130465">
        <ele>98.670000000000002</ele>
        <time>2024-09-12T14:38:37Z</time>
      </trkpt>
      <trkpt lat="52.307990016415715" lon="11.02247198112309">
        <ele>99.629999999999995</ele>
        <time>2024-09-12T14:38:40Z</time>
      </trkpt>
      <trkpt lat="52.308006025850773" lon="11.024482967332006">
        <ele>98.189999999999998</ele>
        <time>2024-09-12T14:38:50Z</time>
      </trkpt>
      <trkpt lat="52.307999990880489" lon="11.02608198300004">
        <ele>100.11</ele>
        <time>2024-09-12T14:38:58Z</time>
      </trkpt>
      <trkpt lat="52.307991022244096" lon="11.028313999995589">
        <ele>104.44</ele>
        <time>2024-09-12T14:39:09Z</time>
      </trkpt>
      <trkpt lat="52.308058999478817" lon="11.030150977894664">
        <ele>103</ele>
        <time>2024-09-12T14:39:17Z</time>
      </trkpt>
      <trkpt lat="52.308407016098499" lon="11.032543005421758">
        <ele>100.11</ele>
        <time>2024-09-12T14:39:24Z</time>
      </trkpt>
      <trkpt lat="52.309000035747886" lon="11.036335984244943">
        <ele>103</ele>
        <time>2024-09-12T14:39:34Z</time>
      </trkpt>
      <trkpt lat="52.309478977695107" lon="11.038945019245148">
        <ele>105.88</ele>
        <time>2024-09-12T14:39:42Z</time>
      </trkpt>
      <trkpt lat="52.309576962143183" lon="11.039239978417754">
        <ele>106.36</ele>
        <time>2024-09-12T14:39:43Z</time>
      </trkpt>
      <trkpt lat="52.309878040105104" lon="11.040141033008695">
        <ele>107.31999999999999</ele>
        <time>2024-09-12T14:39:46Z</time>
      </trkpt>
      <trkpt lat="52.309958003461361" lon="11.040444960817695">
        <ele>107.81</ele>
        <time>2024-09-12T14:39:47Z</time>
      </trkpt>
      <trkpt lat="52.310002008453012" lon="11.040761964395642">
        <ele>107.81</ele>
        <time>2024-09-12T14:39:48Z</time>
      </trkpt>
      <trkpt lat="52.310246005654335" lon="11.042935978621244">
        <ele>108.77</ele>
        <time>2024-09-12T14:39:56Z</time>
      </trkpt>
      <trkpt lat="52.310526967048645" lon="11.044480009004474">
        <ele>105.88</ele>
        <time>2024-09-12T14:40:04Z</time>
      </trkpt>
      <trkpt lat="52.310646995902061" lon="11.044921986758709">
        <ele>103.95999999999999</ele>
        <time>2024-09-12T14:40:08Z</time>
      </trkpt>
      <trkpt lat="52.310666022822261" lon="11.045013014227152">
        <ele>103.48</ele>
        <time>2024-09-12T14:40:09Z</time>
      </trkpt>
      <trkpt lat="52.310694018378854" lon="11.045144023373723">
        <ele>103.48</ele>
        <time>2024-09-12T14:40:10Z</time>
      </trkpt>
      <trkpt lat="52.310694018378854" lon="11.045200014486909">
        <ele>102.52</ele>
        <time>2024-09-12T14:40:11Z</time>
      </trkpt>
      <trkpt lat="52.310694018378854" lon="11.045303028076887">
        <ele>102.04000000000001</ele>
        <time>2024-09-12T14:40:12Z</time>
      </trkpt>
      <trkpt lat="52.310726037248969" lon="11.045851036906242">
        <ele>100.11</ele>
        <time>2024-09-12T14:40:16Z</time>
      </trkpt>
      <trkpt lat="52.31075101532042" lon="11.046014986932278">
        <ele>99.629999999999995</ele>
        <time>2024-09-12T14:40:17Z</time>
      </trkpt>
      <trkpt lat="52.310887975618243" lon="11.046821996569633">
        <ele>97.709999999999994</ele>
        <time>2024-09-12T14:40:22Z</time>
      </trkpt>
      <trkpt lat="52.311102971434593" lon="11.047645015642047">
        <ele>95.310000000000002</ele>
        <time>2024-09-12T14:40:29Z</time>
      </trkpt>
      <trkpt lat="52.311129039153457" lon="11.047729002311826">
        <ele>94.829999999999998</ele>
        <time>2024-09-12T14:40:30Z</time>
      </trkpt>
      <trkpt lat="52.311098026111722" lon="11.047914996743202">
        <ele>94.349999999999994</ele>
        <time>2024-09-12T14:40:31Z</time>
      </trkpt>
      <trkpt lat="52.31103097088635" lon="11.047982973977923">
        <ele>94.349999999999994</ele>
        <time>2024-09-12T14:40:32Z</time>
      </trkpt>
      <trkpt lat="52.310955030843616" lon="11.048057992011309">
        <ele>93.870000000000005</ele>
        <time>2024-09-12T14:40:33Z</time>
      </trkpt>
      <trkpt lat="52.310053976252675" lon="11.04898301884532">
        <ele>91.939999999999998</ele>
        <time>2024-09-12T14:40:43Z</time>
      </trkpt>
      <trkpt lat="52.309883991256356" lon="11.04917898774147">
        <ele>91.939999999999998</ele>
        <time>2024-09-12T14:40:45Z</time>
      </trkpt>
      <trkpt lat="52.309806039556861" lon="11.049289964139462">
        <ele>91.939999999999998</ele>
        <time>2024-09-12T14:40:46Z</time>
      </trkpt>
      <trkpt lat="52.309737978503108" lon="11.049403036013246">
        <ele>91.939999999999998</ele>
        <time>2024-09-12T14:40:47Z</time>
      </trkpt>
      <trkpt lat="52.309681987389922" lon="11.049550976604223">
        <ele>91.939999999999998</ele>
        <time>2024-09-12T14:40:48Z</time>
      </trkpt>
      <trkpt lat="52.309624990448356" lon="11.049704030156136">
        <ele>91.939999999999998</ele>
        <time>2024-09-12T14:40:49Z</time>
      </trkpt>
      <trkpt lat="52.30961300432682" lon="11.049889018759131">
        <ele>91.459999999999994</ele>
        <time>2024-09-12T14:40:50Z</time>
      </trkpt>
      <trkpt lat="52.309605041518807" lon="11.05007903650403">
        <ele>91.459999999999994</ele>
        <time>2024-09-12T14:40:51Z</time>
      </trkpt>
      <trkpt lat="52.309607975184917" lon="11.050263019278646">
        <ele>90.980000000000004</ele>
        <time>2024-09-12T14:40:52Z</time>
      </trkpt>
      <trkpt lat="52.30963496491313" lon="11.050450019538403">
        <ele>90.980000000000004</ele>
        <time>2024-09-12T14:40:53Z</time>
      </trkpt>
      <trkpt lat="52.309663966298103" lon="11.050640037283301">
        <ele>90.980000000000004</ele>
        <time>2024-09-12T14:40:54Z</time>
      </trkpt>
      <trkpt lat="52.309696990996599" lon="11.050835000351071">
        <ele>90.5</ele>
        <time>2024-09-12T14:40:55Z</time>
      </trkpt>
      <trkpt lat="52.30974099598825" lon="11.051023006439209">
        <ele>90.5</ele>
        <time>2024-09-12T14:40:56Z</time>
      </trkpt>
      <trkpt lat="52.310238964855671" lon="11.053469013422728">
        <ele>90.019999999999996</ele>
        <time>2024-09-12T14:41:09Z</time>
      </trkpt>
      <trkpt lat="52.310713967308402" lon="11.05555702932179">
        <ele>91.459999999999994</ele>
        <time>2024-09-12T14:41:20Z</time>
      </trkpt>
      <trkpt lat="52.310797031968832" lon="11.055937986820936">
        <ele>91.459999999999994</ele>
        <time>2024-09-12T14:41:22Z</time>
      </trkpt>
      <trkpt lat="52.310838019475341" lon="11.056128004565835">
        <ele>91.459999999999994</ele>
        <time>2024-09-12T14:41:23Z</time>
      </trkpt>
      <trkpt lat="52.310989983379841" lon="11.056882040575147">
        <ele>90.980000000000004</ele>
        <time>2024-09-12T14:41:27Z</time>
      </trkpt>
      <trkpt lat="52.311085034161806" lon="11.057391995564103">
        <ele>91.459999999999994</ele>
        <time>2024-09-12T14:41:30Z</time>
      </trkpt>
      <trkpt lat="52.311104983091354" lon="11.057509006932378">
        <ele>90.980000000000004</ele>
        <time>2024-09-12T14:41:31Z</time>
      </trkpt>
      <trkpt lat="52.311121998354793" lon="11.057604979723692">
        <ele>90.980000000000004</ele>
        <time>2024-09-12T14:41:32Z</time>
      </trkpt>
      <trkpt lat="52.3110940027982" lon="11.057682009413838">
        <ele>90.980000000000004</ele>
        <time>2024-09-12T14:41:33Z</time>
      </trkpt>
      <trkpt lat="52.311067013069987" lon="11.05775099247694">
        <ele>91.459999999999994</ele>
        <time>2024-09-12T14:41:34Z</time>
      </trkpt>
      <trkpt lat="52.311143958941102" lon="11.057932963594794">
        <ele>91.459999999999994</ele>
        <time>2024-09-12T14:41:35Z</time>
      </trkpt>
      <trkpt lat="52.311143958941102" lon="11.057932963594794">
        <ele>90.980000000000004</ele>
        <time>2024-09-12T14:41:36Z</time>
      </trkpt>
      <trkpt lat="52.31118000112474" lon="11.057871021330357">
        <ele>90.5</ele>
        <time>2024-09-12T14:41:37Z</time>
      </trkpt>
      <trkpt lat="52.311273962259293" lon="11.057782005518675">
        <ele>90.5</ele>
        <time>2024-09-12T14:41:38Z</time>
      </trkpt>
      <trkpt lat="52.311333976686001" lon="11.057782005518675">
        <ele>90.5</ele>
        <time>2024-09-12T14:41:39Z</time>
      </trkpt>
      <trkpt lat="52.311402959749103" lon="11.057782005518675">
        <ele>90.019999999999996</ele>
        <time>2024-09-12T14:41:40Z</time>
      </trkpt>
      <trkpt lat="52.311475966125727" lon="11.057782005518675">
        <ele>90.019999999999996</ele>
        <time>2024-09-12T14:41:41Z</time>
      </trkpt>
      <trkpt lat="52.311550984159112" lon="11.057782005518675">
        <ele>90.019999999999996</ele>
        <time>2024-09-12T14:41:42Z</time>
      </trkpt>
      <trkpt lat="52.311617033556104" lon="11.057782005518675">
        <ele>90.019999999999996</ele>
        <time>2024-09-12T14:41:43Z</time>
      </trkpt>
      <trkpt lat="52.311779977753758" lon="11.057696007192135">
        <ele>90.019999999999996</ele>
        <time>2024-09-12T14:41:45Z</time>
      </trkpt>
      <trkpt lat="52.311859019100666" lon="11.057655019685626">
        <ele>89.540000000000006</ele>
        <time>2024-09-12T14:41:46Z</time>
      </trkpt>
      <trkpt lat="52.312092036008835" lon="11.057503977790475">
        <ele>90.019999999999996</ele>
        <time>2024-09-12T14:41:49Z</time>
      </trkpt>
      <trkpt lat="52.312165964394808" lon="11.057433988898993">
        <ele>90.5</ele>
        <time>2024-09-12T14:41:50Z</time>
      </trkpt>
      <trkpt lat="52.312321029603481" lon="11.057287976145744">
        <ele>90.5</ele>
        <time>2024-09-12T14:41:52Z</time>
      </trkpt>
      <trkpt lat="52.312389006838202" lon="11.057224022224545">
        <ele>90.980000000000004</ele>
        <time>2024-09-12T14:41:53Z</time>
      </trkpt>
      <trkpt lat="52.312496965751052" lon="11.05721203610301">
        <ele>90.980000000000004</ele>
        <time>2024-09-12T14:41:54Z</time>
      </trkpt>
      <trkpt lat="52.31259897351265" lon="11.057199966162443">
        <ele>90.980000000000004</ele>
        <time>2024-09-12T14:41:55Z</time>
      </trkpt>
      <trkpt lat="52.312694024294615" lon="11.057188985869288">
        <ele>90.980000000000004</ele>
        <time>2024-09-12T14:41:56Z</time>
      </trkpt>
      <trkpt lat="52.312781028449535" lon="11.057179011404514">
        <ele>90.980000000000004</ele>
        <time>2024-09-12T14:41:57Z</time>
      </trkpt>
      <trkpt lat="52.312945984303951" lon="11.057167025282979">
        <ele>90.5</ele>
        <time>2024-09-12T14:41:59Z</time>
      </trkpt>
      <trkpt lat="52.313032988458872" lon="11.057159984484315">
        <ele>90.5</ele>
        <time>2024-09-12T14:42:00Z</time>
      </trkpt>
      <trkpt lat="52.313431967049837" lon="11.057137018069625">
        <ele>89.060000000000002</ele>
        <time>2024-09-12T14:42:05Z</time>
      </trkpt>
      <trkpt lat="52.314303014427423" lon="11.057032998651266">
        <ele>86.180000000000007</ele>
        <time>2024-09-12T14:42:16Z</time>
      </trkpt>
      <trkpt lat="52.31485596857965" lon="11.0572540294379">
        <ele>85.689999999999998</ele>
        <time>2024-09-12T14:42:23Z</time>
      </trkpt>
      <trkpt lat="52.314915983006358" lon="11.057356959208846">
        <ele>85.689999999999998</ele>
        <time>2024-09-12T14:42:24Z</time>
      </trkpt>
      <trkpt lat="52.314977003261447" lon="11.057460978627205">
        <ele>86.180000000000007</ele>
        <time>2024-09-12T14:42:25Z</time>
      </trkpt>
      <trkpt lat="52.315095020458102" lon="11.057662982493639">
        <ele>86.659999999999997</ele>
        <time>2024-09-12T14:42:27Z</time>
      </trkpt>
      <trkpt lat="52.3151780012995" lon="11.057693995535374">
        <ele>87.140000000000001</ele>
        <time>2024-09-12T14:42:28Z</time>
      </trkpt>
      <trkpt lat="52.315259976312518" lon="11.057690978050232">
        <ele>87.620000000000005</ele>
        <time>2024-09-12T14:42:29Z</time>
      </trkpt>
      <trkpt lat="52.315429039299488" lon="11.05768502689898">
        <ele>88.099999999999994</ele>
        <time>2024-09-12T14:42:31Z</time>
      </trkpt>
      <trkpt lat="52.316127000376582" lon="11.057758033275604">
        <ele>90.980000000000004</ele>
        <time>2024-09-12T14:42:39Z</time>
      </trkpt>
      <trkpt lat="52.316384995356202" lon="11.05785702355206">
        <ele>92.420000000000002</ele>
        <time>2024-09-12T14:42:42Z</time>
      </trkpt>
      <trkpt lat="52.31706996448338" lon="11.058280980214477">
        <ele>92.420000000000002</ele>
        <time>2024-09-12T14:42:51Z</time>
      </trkpt>
      <trkpt lat="52.317159986123443" lon="11.058337977156043">
        <ele>92.900000000000006</ele>
        <time>2024-09-12T14:42:53Z</time>
      </trkpt>
      <trkpt lat="52.317204996943474" lon="11.058377958834171">
        <ele>92.420000000000002</ele>
        <time>2024-09-12T14:42:54Z</time>
      </trkpt>
      <trkpt lat="52.317232992500067" lon="11.058427998796105">
        <ele>92.420000000000002</ele>
        <time>2024-09-12T14:42:55Z</time>
      </trkpt>
      <trkpt lat="52.317267023026943" lon="11.058486001566052">
        <ele>92.420000000000002</ele>
        <time>2024-09-12T14:42:56Z</time>
      </trkpt>
      <trkpt lat="52.31723802164197" lon="11.058662021532655">
        <ele>92.420000000000002</ele>
        <time>2024-09-12T14:42:57Z</time>
      </trkpt>
      <trkpt lat="52.317255958914757" lon="11.058714995160699">
        <ele>92.420000000000002</ele>
        <time>2024-09-12T14:42:58Z</time>
      </trkpt>
      <trkpt lat="52.317388979718089" lon="11.058791019022465">
        <ele>92.420000000000002</ele>
        <time>2024-09-12T14:42:59Z</time>
      </trkpt>
      <trkpt lat="52.317402977496386" lon="11.058809962123632">
        <ele>92.900000000000006</ele>
        <time>2024-09-12T14:43:00Z</time>
      </trkpt>
      <trkpt lat="52.318105967715383" lon="11.059686038643122">
        <ele>92.900000000000006</ele>
        <time>2024-09-12T14:43:09Z</time>
      </trkpt>
      <trkpt lat="52.319088997319341" lon="11.0606300085783">
        <ele>91.459999999999994</ele>
        <time>2024-09-12T14:43:17Z</time>
      </trkpt>
      <trkpt lat="52.319226963445544" lon="11.060746014118195">
        <ele>90.980000000000004</ele>
        <time>2024-09-12T14:43:18Z</time>
      </trkpt>
      <trkpt lat="52.320457007735968" lon="11.061730971559882">
        <ele>88.579999999999998</ele>
        <time>2024-09-12T14:43:27Z</time>
      </trkpt>
      <trkpt lat="52.321791993454099" lon="11.06292799115181">
        <ele>89.540000000000006</ele>
        <time>2024-09-12T14:43:35Z</time>
      </trkpt>
      <trkpt lat="52.322881976142526" lon="11.063710022717714">
        <ele>90.5</ele>
        <time>2024-09-12T14:43:40Z</time>
      </trkpt>
      <trkpt lat="52.323124967515469" lon="11.063819993287325">
        <ele>90.5</ele>
        <time>2024-09-12T14:43:41Z</time>
      </trkpt>
      <trkpt lat="52.326712002977729" lon="11.065232008695602">
        <ele>90.5</ele>
        <time>2024-09-12T14:43:55Z</time>
      </trkpt>
      <trkpt lat="52.332098968327045" lon="11.067296974360943">
        <ele>88.099999999999994</ele>
        <time>2024-09-12T14:44:15Z</time>
      </trkpt>
      <trkpt lat="52.336085988208652" lon="11.068869000300765">
        <ele>79.930000000000007</ele>
        <time>2024-09-12T14:44:30Z</time>
      </trkpt>
      <trkpt lat="52.336525032296777" lon="11.069108974188566">
        <ele>79.450000000000003</ele>
        <time>2024-09-12T14:44:32Z</time>
      </trkpt>
      <trkpt lat="52.336724018678069" lon="11.069307960569859">
        <ele>78.969999999999999</ele>
        <time>2024-09-12T14:44:33Z</time>
      </trkpt>
      <trkpt lat="52.338902978226542" lon="11.071502007544041">
        <ele>78</ele>
        <time>2024-09-12T14:44:43Z</time>
      </trkpt>
      <trkpt lat="52.340430999174714" lon="11.072935983538628">
        <ele>77.040000000000006</ele>
        <time>2024-09-12T14:44:51Z</time>
      </trkpt>
      <trkpt lat="52.340612970292568" lon="11.072999015450478">
        <ele>76.560000000000002</ele>
        <time>2024-09-12T14:44:52Z</time>
      </trkpt>
      <trkpt lat="52.340800976380706" lon="11.07300597243011">
        <ele>76.560000000000002</ele>
        <time>2024-09-12T14:44:53Z</time>
      </trkpt>
      <trkpt lat="52.340994011610746" lon="11.073013013228774">
        <ele>76.560000000000002</ele>
        <time>2024-09-12T14:44:54Z</time>
      </trkpt>
      <trkpt lat="52.341183023527265" lon="11.072982000187039">
        <ele>76.079999999999998</ele>
        <time>2024-09-12T14:44:55Z</time>
      </trkpt>
      <trkpt lat="52.341378992423415" lon="11.072899019345641">
        <ele>75.599999999999994</ele>
        <time>2024-09-12T14:44:56Z</time>
      </trkpt>
      <trkpt lat="52.343573961406946" lon="11.071968041360378">
        <ele>75.599999999999994</ele>
        <time>2024-09-12T14:45:06Z</time>
      </trkpt>
      <trkpt lat="52.344993017613888" lon="11.071473006159067">
        <ele>77.519999999999996</ele>
        <time>2024-09-12T14:45:13Z</time>
      </trkpt>
      <trkpt lat="52.345159985125065" lon="11.071524973958731">
        <ele>78</ele>
        <time>2024-09-12T14:45:14Z</time>
      </trkpt>
      <trkpt lat="52.345284037292004" lon="11.071648020297289">
        <ele>78.480000000000004</ele>
        <time>2024-09-12T14:45:15Z</time>
      </trkpt>
      <trkpt lat="52.345412028953433" lon="11.071815993636847">
        <ele>78.969999999999999</ele>
        <time>2024-09-12T14:45:16Z</time>
      </trkpt>
      <trkpt lat="52.345509007573128" lon="11.072017997503281">
        <ele>78.969999999999999</ele>
        <time>2024-09-12T14:45:17Z</time>
      </trkpt>
      <trkpt lat="52.345612021163106" lon="11.072235004976392">
        <ele>79.450000000000003</ele>
        <time>2024-09-12T14:45:18Z</time>
      </trkpt>
      <trkpt lat="52.346448032185435" lon="11.073901997879148">
        <ele>79.450000000000003</ele>
        <time>2024-09-12T14:45:25Z</time>
      </trkpt>
      <trkpt lat="52.347116991877556" lon="11.075172023847699">
        <ele>78.480000000000004</ele>
        <time>2024-09-12T14:45:30Z</time>
      </trkpt>
      <trkpt lat="52.347257975488901" lon="11.075356006622314">
        <ele>78.480000000000004</ele>
        <time>2024-09-12T14:45:31Z</time>
      </trkpt>
      <trkpt lat="52.347437012940645" lon="11.075514005497098">
        <ele>78.480000000000004</ele>
        <time>2024-09-12T14:45:32Z</time>
      </trkpt>
      <trkpt lat="52.347593000158668" lon="11.075651971623302">
        <ele>78</ele>
        <time>2024-09-12T14:45:33Z</time>
      </trkpt>
      <trkpt lat="52.347743036225438" lon="11.075784992426634">
        <ele>78</ele>
        <time>2024-09-12T14:45:34Z</time>
      </trkpt>
      <trkpt lat="52.34787899069488" lon="11.075943997129798">
        <ele>78</ele>
        <time>2024-09-12T14:45:35Z</time>
      </trkpt>
      <trkpt lat="52.347977980971336" lon="11.076137032359838">
        <ele>77.519999999999996</ele>
        <time>2024-09-12T14:45:36Z</time>
      </trkpt>
      <trkpt lat="52.348054004833102" lon="11.076346999034286">
        <ele>77.519999999999996</ele>
        <time>2024-09-12T14:45:37Z</time>
      </trkpt>
      <trkpt lat="52.348129022866488" lon="11.076556965708733">
        <ele>77.519999999999996</ele>
        <time>2024-09-12T14:45:38Z</time>
      </trkpt>
      <trkpt lat="52.348201023414731" lon="11.076756035909057">
        <ele>77.519999999999996</ele>
        <time>2024-09-12T14:45:39Z</time>
      </trkpt>
      <trkpt lat="52.348331026732922" lon="11.077116038650274">
        <ele>77.519999999999996</ele>
        <time>2024-09-12T14:45:41Z</time>
      </trkpt>
      <trkpt lat="52.348428005352616" lon="11.077268002554774">
        <ele>77.519999999999996</ele>
        <time>2024-09-12T14:45:42Z</time>
      </trkpt>
      <trkpt lat="52.348532024770975" lon="11.077381996437907">
        <ele>78</ele>
        <time>2024-09-12T14:45:43Z</time>
      </trkpt>
      <trkpt lat="52.348661022260785" lon="11.077428013086319">
        <ele>77.519999999999996</ele>
        <time>2024-09-12T14:45:44Z</time>
      </trkpt>
      <trkpt lat="52.348808040842414" lon="11.07745198532939">
        <ele>78</ele>
        <time>2024-09-12T14:45:45Z</time>
      </trkpt>
      <trkpt lat="52.34897299669683" lon="11.077478975057602">
        <ele>78</ele>
        <time>2024-09-12T14:45:46Z</time>
      </trkpt>
      <trkpt lat="52.35037000849843" lon="11.077771000564098">
        <ele>79.450000000000003</ele>
        <time>2024-09-12T14:45:53Z</time>
      </trkpt>
      <trkpt lat="52.352289967238903" lon="11.078421017155051">
        <ele>78.480000000000004</ele>
        <time>2024-09-12T14:46:01Z</time>
      </trkpt>
      <trkpt lat="52.35460395924747" lon="11.078845979645848">
        <ele>75.599999999999994</ele>
        <time>2024-09-12T14:46:10Z</time>
      </trkpt>
      <trkpt lat="52.35591203905642" lon="11.079078996554017">
        <ele>73.680000000000007</ele>
        <time>2024-09-12T14:46:17Z</time>
      </trkpt>
      <trkpt lat="52.35606299713254" lon="11.079152002930641">
        <ele>74.159999999999997</ele>
        <time>2024-09-12T14:46:18Z</time>
      </trkpt>
      <trkpt lat="52.356204986572266" lon="11.079246969893575">
        <ele>74.159999999999997</ele>
        <time>2024-09-12T14:46:19Z</time>
      </trkpt>
      <trkpt lat="52.356335995718837" lon="11.079371022060513">
        <ele>74.159999999999997</ele>
        <time>2024-09-12T14:46:20Z</time>
      </trkpt>
      <trkpt lat="52.356435991823673" lon="11.079555004835129">
        <ele>74.640000000000001</ele>
        <time>2024-09-12T14:46:21Z</time>
      </trkpt>
      <trkpt lat="52.356502963230014" lon="11.079802019521594">
        <ele>74.640000000000001</ele>
        <time>2024-09-12T14:46:22Z</time>
      </trkpt>
      <trkpt lat="52.356570018455386" lon="11.080064959824085">
        <ele>74.640000000000001</ele>
        <time>2024-09-12T14:46:23Z</time>
      </trkpt>
      <trkpt lat="52.356631960719824" lon="11.080355979502201">
        <ele>75.120000000000005</ele>
        <time>2024-09-12T14:46:24Z</time>
      </trkpt>
      <trkpt lat="52.35720201395452" lon="11.082989992573857">
        <ele>76.560000000000002</ele>
        <time>2024-09-12T14:46:33Z</time>
      </trkpt>
      <trkpt lat="52.357278037816286" lon="11.083229966461658">
        <ele>76.560000000000002</ele>
        <time>2024-09-12T14:46:34Z</time>
      </trkpt>
      <trkpt lat="52.357377028092742" lon="11.083427025005221">
        <ele>76.560000000000002</ele>
        <time>2024-09-12T14:46:35Z</time>
      </trkpt>
      <trkpt lat="52.357535026967525" lon="11.083536995574832">
        <ele>76.079999999999998</ele>
        <time>2024-09-12T14:46:36Z</time>
      </trkpt>
      <trkpt lat="52.357691014185548" lon="11.083631962537766">
        <ele>76.079999999999998</ele>
        <time>2024-09-12T14:46:37Z</time>
      </trkpt>
      <trkpt lat="52.35786602832377" lon="11.083700023591518">
        <ele>76.079999999999998</ele>
        <time>2024-09-12T14:46:38Z</time>
      </trkpt>
      <trkpt lat="52.358054034411907" lon="11.083735981956124">
        <ele>75.599999999999994</ele>
        <time>2024-09-12T14:46:39Z</time>
      </trkpt>
      <trkpt lat="52.359853964298964" lon="11.084081986919045">
        <ele>73.200000000000003</ele>
        <time>2024-09-12T14:46:47Z</time>
      </trkpt>
      <trkpt lat="52.361612990498543" lon="11.08441298827529">
        <ele>68.870000000000005</ele>
        <time>2024-09-12T14:46:54Z</time>
      </trkpt>
      <trkpt lat="52.362811015918851" lon="11.084686992689967">
        <ele>65.030000000000001</ele>
        <time>2024-09-12T14:47:00Z</time>
      </trkpt>
      <trkpt lat="52.363077979534864" lon="11.084974994882941">
        <ele>63.579999999999998</ele>
        <time>2024-09-12T14:47:02Z</time>
      </trkpt>
      <trkpt lat="52.363164983689785" lon="11.085173981264234">
        <ele>63.100000000000001</ele>
        <time>2024-09-12T14:47:03Z</time>
      </trkpt>
      <trkpt lat="52.363772001117468" lon="11.086870981380343">
        <ele>59.740000000000002</ele>
        <time>2024-09-12T14:47:10Z</time>
      </trkpt>
      <trkpt lat="52.364685963839293" lon="11.089187990874052">
        <ele>61.659999999999997</ele>
        <time>2024-09-12T14:47:19Z</time>
      </trkpt>
      <trkpt lat="52.365617025643587" lon="11.091342978179455">
        <ele>65.989999999999995</ele>
        <time>2024-09-12T14:47:28Z</time>
      </trkpt>
      <trkpt lat="52.36575398594141" lon="11.091684959828854">
        <ele>65.989999999999995</ele>
        <time>2024-09-12T14:47:30Z</time>
      </trkpt>
      <trkpt lat="52.366182971745729" lon="11.092693973332644">
        <ele>67.909999999999997</ele>
        <time>2024-09-12T14:47:38Z</time>
      </trkpt>
      <trkpt lat="52.366310963407159" lon="11.093018017709255">
        <ele>69.349999999999994</ele>
        <time>2024-09-12T14:47:41Z</time>
      </trkpt>
      <trkpt lat="52.366353962570429" lon="11.093127988278866">
        <ele>69.829999999999998</ele>
        <time>2024-09-12T14:47:42Z</time>
      </trkpt>
      <trkpt lat="52.366395033895969" lon="11.093235025182366">
        <ele>70.310000000000002</ele>
        <time>2024-09-12T14:47:43Z</time>
      </trkpt>
      <trkpt lat="52.36643903888762" lon="11.09335002489388">
        <ele>70.790000000000006</ele>
        <time>2024-09-12T14:47:44Z</time>
      </trkpt>
      <trkpt lat="52.366487989202142" lon="11.093498971313238">
        <ele>71.269999999999996</ele>
        <time>2024-09-12T14:47:45Z</time>
      </trkpt>
      <trkpt lat="52.366712959483266" lon="11.095231007784605">
        <ele>73.200000000000003</ele>
        <time>2024-09-12T14:47:56Z</time>
      </trkpt>
      <trkpt lat="52.366736009716988" lon="11.095382971689105">
        <ele>73.200000000000003</ele>
        <time>2024-09-12T14:47:57Z</time>
      </trkpt>
      <trkpt lat="52.366804992780089" lon="11.095673991367221">
        <ele>74.159999999999997</ele>
        <time>2024-09-12T14:47:59Z</time>
      </trkpt>
      <trkpt lat="52.366840029135346" lon="11.095813969150186">
        <ele>74.159999999999997</ele>
        <time>2024-09-12T14:48:00Z</time>
      </trkpt>
      <trkpt lat="52.36689199693501" lon="11.095946989953518">
        <ele>74.159999999999997</ele>
        <time>2024-09-12T14:48:01Z</time>
      </trkpt>
      <trkpt lat="52.366980006918311" lon="11.095997029915452">
        <ele>74.640000000000001</ele>
        <time>2024-09-12T14:48:02Z</time>
      </trkpt>
      <trkpt lat="52.367075979709625" lon="11.096051009371877">
        <ele>74.640000000000001</ele>
        <time>2024-09-12T14:48:03Z</time>
      </trkpt>
      <trkpt lat="52.36717295832932" lon="11.096107000485063">
        <ele>74.159999999999997</ele>
        <time>2024-09-12T14:48:04Z</time>
      </trkpt>
      <trkpt lat="52.367372028529644" lon="11.096243038773537">
        <ele>74.159999999999997</ele>
        <time>2024-09-12T14:48:06Z</time>
      </trkpt>
      <trkpt lat="52.367533966898918" lon="11.096434984356165">
        <ele>74.640000000000001</ele>
        <time>2024-09-12T14:48:08Z</time>
      </trkpt>
      <trkpt lat="52.367776958271861" lon="11.09674695879221">
        <ele>75.120000000000005</ele>
        <time>2024-09-12T14:48:11Z</time>
      </trkpt>
      <trkpt lat="52.367851976305246" lon="11.096844021230936">
        <ele>75.120000000000005</ele>
        <time>2024-09-12T14:48:12Z</time>
      </trkpt>
      <trkpt lat="52.367939986288548" lon="11.096867993474007">
        <ele>75.120000000000005</ele>
        <time>2024-09-12T14:48:13Z</time>
      </trkpt>
      <trkpt lat="52.368038976565003" lon="11.096850978210568">
        <ele>75.120000000000005</ele>
        <time>2024-09-12T14:48:14Z</time>
      </trkpt>
      <trkpt lat="52.368147019296885" lon="11.096832035109401">
        <ele>75.120000000000005</ele>
        <time>2024-09-12T14:48:15Z</time>
      </trkpt>
      <trkpt lat="52.368257995694876" lon="11.096813008189201">
        <ele>75.120000000000005</ele>
        <time>2024-09-12T14:48:16Z</time>
      </trkpt>
      <trkpt lat="52.369160978123546" lon="11.096741007640958">
        <ele>73.680000000000007</ele>
        <time>2024-09-12T14:48:24Z</time>
      </trkpt>
      <trkpt lat="52.369424002245069" lon="11.096748970448971">
        <ele>73.680000000000007</ele>
        <time>2024-09-12T14:48:26Z</time>
      </trkpt>
      <trkpt lat="52.369551993906498" lon="11.096814014017582">
        <ele>73.680000000000007</ele>
        <time>2024-09-12T14:48:27Z</time>
      </trkpt>
      <trkpt lat="52.369669005274773" lon="11.096900012344122">
        <ele>73.680000000000007</ele>
        <time>2024-09-12T14:48:28Z</time>
      </trkpt>
      <trkpt lat="52.370218019932508" lon="11.097268983721733">
        <ele>72.719999999999999</ele>
        <time>2024-09-12T14:48:32Z</time>
      </trkpt>
      <trkpt lat="52.370376018807292" lon="11.097310977056623">
        <ele>72.719999999999999</ele>
        <time>2024-09-12T14:48:33Z</time>
      </trkpt>
      <trkpt lat="52.370542986318469" lon="11.097332015633583">
        <ele>72.239999999999995</ele>
        <time>2024-09-12T14:48:34Z</time>
      </trkpt>
      <trkpt lat="52.371904039755464" lon="11.09749898314476">
        <ele>70.790000000000006</ele>
        <time>2024-09-12T14:48:41Z</time>
      </trkpt>
      <trkpt lat="52.373422002419829" lon="11.098116980865598">
        <ele>69.349999999999994</ele>
        <time>2024-09-12T14:48:48Z</time>
      </trkpt>
      <trkpt lat="52.374983970075846" lon="11.099054999649525">
        <ele>69.349999999999994</ele>
        <time>2024-09-12T14:48:55Z</time>
      </trkpt>
      <trkpt lat="52.375166025012732" lon="11.099239988252521">
        <ele>68.870000000000005</ele>
        <time>2024-09-12T14:48:56Z</time>
      </trkpt>
      <trkpt lat="52.376497993245721" lon="11.101006977260113">
        <ele>67.909999999999997</ele>
        <time>2024-09-12T14:49:05Z</time>
      </trkpt>
      <trkpt lat="52.376851961016655" lon="11.101552974432707">
        <ele>67.430000000000007</ele>
        <time>2024-09-12T14:49:08Z</time>
      </trkpt>
      <trkpt lat="52.376934019848704" lon="11.101620029658079">
        <ele>67.430000000000007</ele>
        <time>2024-09-12T14:49:09Z</time>
      </trkpt>
      <trkpt lat="52.377107022330165" lon="11.101660011336207">
        <ele>66.950000000000003</ele>
        <time>2024-09-12T14:49:10Z</time>
      </trkpt>
      <trkpt lat="52.377254040911794" lon="11.101689012721181">
        <ele>66.950000000000003</ele>
        <time>2024-09-12T14:49:11Z</time>
      </trkpt>
      <trkpt lat="52.377412961795926" lon="11.101705022156239">
        <ele>66.950000000000003</ele>
        <time>2024-09-12T14:49:12Z</time>
      </trkpt>
      <trkpt lat="52.378802010789514" lon="11.101821027696133">
        <ele>65.989999999999995</ele>
        <time>2024-09-12T14:49:19Z</time>
      </trkpt>
      <trkpt lat="52.381525039672852" lon="11.102010039612651">
        <ele>68.390000000000001</ele>
        <time>2024-09-12T14:49:30Z</time>
      </trkpt>
      <trkpt lat="52.385088019073009" lon="11.102256970480084">
        <ele>69.829999999999998</ele>
        <time>2024-09-12T14:49:43Z</time>
      </trkpt>
      <trkpt lat="52.389050982892513" lon="11.102530974894762">
        <ele>71.269999999999996</ele>
        <time>2024-09-12T14:49:58Z</time>
      </trkpt>
      <trkpt lat="52.392494017258286" lon="11.102786958217621">
        <ele>70.790000000000006</ele>
        <time>2024-09-12T14:50:11Z</time>
      </trkpt>
      <trkpt lat="52.39389999769628" lon="11.102996002882719">
        <ele>70.310000000000002</ele>
        <time>2024-09-12T14:50:18Z</time>
      </trkpt>
      <trkpt lat="52.394037041813135" lon="11.10314997844398">
        <ele>69.829999999999998</ele>
        <time>2024-09-12T14:50:19Z</time>
      </trkpt>
      <trkpt lat="52.39418095909059" lon="11.103312000632286">
        <ele>70.310000000000002</ele>
        <time>2024-09-12T14:50:20Z</time>
      </trkpt>
      <trkpt lat="52.3955740313977" lon="11.104872040450573">
        <ele>71.269999999999996</ele>
        <time>2024-09-12T14:50:28Z</time>
      </trkpt>
      <trkpt lat="52.397693982347846" lon="11.107302037999034">
        <ele>72.239999999999995</ele>
        <time>2024-09-12T14:50:40Z</time>
      </trkpt>
      <trkpt lat="52.398594031110406" lon="11.108324965462089">
        <ele>73.680000000000007</ele>
        <time>2024-09-12T14:50:48Z</time>
      </trkpt>
      <trkpt lat="52.399466000497341" lon="11.109329033643007">
        <ele>73.680000000000007</ele>
        <time>2024-09-12T14:50:57Z</time>
      </trkpt>
      <trkpt lat="52.399756014347076" lon="11.109689958393574">
        <ele>73.680000000000007</ele>
        <time>2024-09-12T14:51:00Z</time>
      </trkpt>
      <trkpt lat="52.399837989360094" lon="11.109843011945486">
        <ele>73.200000000000003</ele>
        <time>2024-09-12T14:51:01Z</time>
      </trkpt>
      <trkpt lat="52.399996994063258" lon="11.110144006088376">
        <ele>73.200000000000003</ele>
        <time>2024-09-12T14:51:03Z</time>
      </trkpt>
      <trkpt lat="52.400076035410166" lon="11.110293036326766">
        <ele>72.719999999999999</ele>
        <time>2024-09-12T14:51:04Z</time>
      </trkpt>
      <trkpt lat="52.400154992938042" lon="11.110440976917744">
        <ele>72.239999999999995</ele>
        <time>2024-09-12T14:51:05Z</time>
      </trkpt>
      <trkpt lat="52.40071096457541" lon="11.111510004848242">
        <ele>69.829999999999998</ele>
        <time>2024-09-12T14:51:12Z</time>
      </trkpt>
      <trkpt lat="52.400749018415809" lon="11.11169901676476">
        <ele>69.349999999999994</ele>
        <time>2024-09-12T14:51:13Z</time>
      </trkpt>
      <trkpt lat="52.400772990658879" lon="11.111886017024517">
        <ele>69.349999999999994</ele>
        <time>2024-09-12T14:51:14Z</time>
      </trkpt>
      <trkpt lat="52.40079696290195" lon="11.112072011455894">
        <ele>68.870000000000005</ele>
        <time>2024-09-12T14:51:15Z</time>
      </trkpt>
      <trkpt lat="52.400813978165388" lon="11.112236967310309">
        <ele>68.390000000000001</ele>
        <time>2024-09-12T14:51:16Z</time>
      </trkpt>
      <trkpt lat="52.40083803422749" lon="11.112465038895607">
        <ele>67.909999999999997</ele>
        <time>2024-09-12T14:51:18Z</time>
      </trkpt>
      <trkpt lat="52.400843985378742" lon="11.112523041665554">
        <ele>67.430000000000007</ele>
        <time>2024-09-12T14:51:19Z</time>
      </trkpt>
      <trkpt lat="52.400830993428826" lon="11.112736025825143">
        <ele>66.950000000000003</ele>
        <time>2024-09-12T14:51:24Z</time>
      </trkpt>
      <trkpt lat="52.40079503506422" lon="11.112834010273218">
        <ele>66.950000000000003</ele>
        <time>2024-09-12T14:51:25Z</time>
      </trkpt>
      <trkpt lat="52.40079503506422" lon="11.112948004156351">
        <ele>67.430000000000007</ele>
        <time>2024-09-12T14:51:26Z</time>
      </trkpt>
      <trkpt lat="52.400801992043853" lon="11.113082030788064">
        <ele>67.430000000000007</ele>
        <time>2024-09-12T14:51:27Z</time>
      </trkpt>
      <trkpt lat="52.400824958458543" lon="11.113216979429126">
        <ele>66.950000000000003</ele>
        <time>2024-09-12T14:51:28Z</time>
      </trkpt>
      <trkpt lat="52.400849014520645" lon="11.113365003839135">
        <ele>66.469999999999999</ele>
        <time>2024-09-12T14:51:29Z</time>
      </trkpt>
      <trkpt lat="52.401298033073545" lon="11.115102991461754">
        <ele>65.510000000000005</ele>
        <time>2024-09-12T14:51:40Z</time>
      </trkpt>
      <trkpt lat="52.401588968932629" lon="11.116190040484071">
        <ele>66.950000000000003</ele>
        <time>2024-09-12T14:51:48Z</time>
      </trkpt>
      <trkpt lat="52.401574971154332" lon="11.116353990510106">
        <ele>66.950000000000003</ele>
        <time>2024-09-12T14:51:49Z</time>
      </trkpt>
      <trkpt lat="52.401566002517939" lon="11.116461027413607">
        <ele>66.950000000000003</ele>
        <time>2024-09-12T14:51:50Z</time>
      </trkpt>
      <trkpt lat="52.401558961719275" lon="11.116549037396908">
        <ele>66.950000000000003</ele>
        <time>2024-09-12T14:51:51Z</time>
      </trkpt>
      <trkpt lat="52.401553010568023" lon="11.116620032116771">
        <ele>66.950000000000003</ele>
        <time>2024-09-12T14:51:52Z</time>
      </trkpt>
      <trkpt lat="52.40154798142612" lon="11.116677029058337">
        <ele>66.950000000000003</ele>
        <time>2024-09-12T14:51:53Z</time>
      </trkpt>
      <trkpt lat="52.401597015559673" lon="11.116697983816266">
        <ele>66.950000000000003</ele>
        <time>2024-09-12T14:51:54Z</time>
      </trkpt>
      <trkpt lat="52.401610007509589" lon="11.116695972159505">
        <ele>66.950000000000003</ele>
        <time>2024-09-12T14:51:55Z</time>
      </trkpt>
      <trkpt lat="52.401630040258169" lon="11.116693038493395">
        <ele>66.950000000000003</ele>
        <time>2024-09-12T14:51:56Z</time>
      </trkpt>
      <trkpt lat="52.401670021936297" lon="11.116687003523111">
        <ele>66.950000000000003</ele>
        <time>2024-09-12T14:51:57Z</time>
      </trkpt>
      <trkpt lat="52.401712015271187" lon="11.116668982431293">
        <ele>66.950000000000003</ele>
        <time>2024-09-12T14:51:58Z</time>
      </trkpt>
      <trkpt lat="52.401765994727612" lon="11.11661902628839">
        <ele>66.469999999999999</ele>
        <time>2024-09-12T14:51:59Z</time>
      </trkpt>
      <trkpt lat="52.401825003325939" lon="11.116564963012934">
        <ele>66.469999999999999</ele>
        <time>2024-09-12T14:52:00Z</time>
      </trkpt>
      <trkpt lat="52.402209984138608" lon="11.11621200107038">
        <ele>65.510000000000005</ele>
        <time>2024-09-12T14:52:10Z</time>
      </trkpt>
      <trkpt lat="52.402275027707219" lon="11.116319037973881">
        <ele>65.510000000000005</ele>
        <time>2024-09-12T14:52:15Z</time>
      </trkpt>
      <trkpt lat="52.402291959151626" lon="11.11634099856019">
        <ele>65.510000000000005</ele>
        <time>2024-09-12T14:52:16Z</time>
      </trkpt>
      <trkpt lat="52.402345016598701" lon="11.116414004936814">
        <ele>65.510000000000005</ele>
        <time>2024-09-12T14:52:17Z</time>
      </trkpt>
      <trkpt lat="52.402473008260131" lon="11.116588013246655">
        <ele>65.030000000000001</ele>
        <time>2024-09-12T14:52:19Z</time>
      </trkpt>
      <trkpt lat="52.40255800075829" lon="11.116669988259673">
        <ele>65.030000000000001</ele>
        <time>2024-09-12T14:52:20Z</time>
      </trkpt>
      <trkpt lat="52.402654979377985" lon="11.116732014343143">
        <ele>65.030000000000001</ele>
        <time>2024-09-12T14:52:21Z</time>
      </trkpt>
      <trkpt lat="52.40371503867209" lon="11.11739301122725">
        <ele>64.069999999999993</ele>
        <time>2024-09-12T14:52:30Z</time>
      </trkpt>
      <trkpt lat="52.404981963336468" lon="11.118197003379464">
        <ele>63.100000000000001</ele>
        <time>2024-09-12T14:52:40Z</time>
      </trkpt>
      <trkpt lat="52.406490035355091" lon="11.119151031598449">
        <ele>62.619999999999997</ele>
        <time>2024-09-12T14:52:51Z</time>
      </trkpt>
      <trkpt lat="52.407972039654851" lon="11.120068011805415">
        <ele>61.659999999999997</ele>
        <time>2024-09-12T14:53:02Z</time>
      </trkpt>
      <trkpt lat="52.40932596847415" lon="11.120901005342603">
        <ele>59.740000000000002</ele>
        <time>2024-09-12T14:53:12Z</time>
      </trkpt>
      <trkpt lat="52.410916015505791" lon="11.12190599553287">
        <ele>56.859999999999999</ele>
        <time>2024-09-12T14:53:23Z</time>
      </trkpt>
      <trkpt lat="52.412731032818556" lon="11.122878966853023">
        <ele>55.409999999999997</ele>
        <time>2024-09-12T14:53:32Z</time>
      </trkpt>
      <trkpt lat="52.414642022922635" lon="11.124315038323402">
        <ele>53.969999999999999</ele>
        <time>2024-09-12T14:53:41Z</time>
      </trkpt>
      <trkpt lat="52.415674002841115" lon="11.125135039910674">
        <ele>53.009999999999998</ele>
        <time>2024-09-12T14:53:47Z</time>
      </trkpt>
      <trkpt lat="52.416228968650103" lon="11.125582968816161">
        <ele>52.049999999999997</ele>
        <time>2024-09-12T14:53:53Z</time>
      </trkpt>
      <trkpt lat="52.416268028318882" lon="11.125614987686276">
        <ele>52.049999999999997</ele>
        <time>2024-09-12T14:53:54Z</time>
      </trkpt>
      <trkpt lat="52.416327958926558" lon="11.125663015991449">
        <ele>51.57</ele>
        <time>2024-09-12T14:53:57Z</time>
      </trkpt>
      <trkpt lat="52.416327958926558" lon="11.125663015991449">
        <ele>51.57</ele>
        <time>2024-09-12T14:53:58Z</time>
      </trkpt>
      <trkpt lat="52.416327958926558" lon="11.125663015991449">
        <ele>51.57</ele>
        <time>2024-09-12T14:54:15Z</time>
      </trkpt>
      <trkpt lat="52.416381016373634" lon="11.125466041266918">
        <ele>51.090000000000003</ele>
        <time>2024-09-12T15:07:12Z</time>
      </trkpt>
      <trkpt lat="52.416403982788324" lon="11.125479033216834">
        <ele>53.969999999999999</ele>
        <time>2024-09-12T15:07:13Z</time>
      </trkpt>
      <trkpt lat="52.41635100916028" lon="11.125613981857896">
        <ele>48.68</ele>
        <time>2024-09-12T15:07:25Z</time>
      </trkpt>
      <trkpt lat="52.416357966139913" lon="11.125637032091618">
        <ele>53.009999999999998</ele>
        <time>2024-09-12T15:08:18Z</time>
      </trkpt>
      <trkpt lat="52.416359977796674" lon="11.125625967979431">
        <ele>54.450000000000003</ele>
        <time>2024-09-12T15:08:39Z</time>
      </trkpt>
      <trkpt lat="52.416374981403351" lon="11.125700986012816">
        <ele>54.450000000000003</ele>
        <time>2024-09-12T15:08:41Z</time>
      </trkpt>
      <trkpt lat="52.416425021365285" lon="11.125740967690945">
        <ele>53.969999999999999</ele>
        <time>2024-09-12T15:08:42Z</time>
      </trkpt>
      <trkpt lat="52.4165019672364" lon="11.125802993774414">
        <ele>53.969999999999999</ele>
        <time>2024-09-12T15:08:43Z</time>
      </trkpt>
      <trkpt lat="52.416590983048081" lon="11.125874994322658">
        <ele>53.969999999999999</ele>
        <time>2024-09-12T15:08:44Z</time>
      </trkpt>
      <trkpt lat="52.416687039658427" lon="11.125953029841185">
        <ele>53.969999999999999</ele>
        <time>2024-09-12T15:08:45Z</time>
      </trkpt>
      <trkpt lat="52.417729999870062" lon="11.126792980358005">
        <ele>55.890000000000001</ele>
        <time>2024-09-12T15:08:53Z</time>
      </trkpt>
      <trkpt lat="52.419647024944425" lon="11.128339022397995">
        <ele>55.890000000000001</ele>
        <time>2024-09-12T15:09:05Z</time>
      </trkpt>
      <trkpt lat="52.421532031148672" lon="11.129858996719122">
        <ele>55.890000000000001</ele>
        <time>2024-09-12T15:09:15Z</time>
      </trkpt>
      <trkpt lat="52.424077028408647" lon="11.131911976262927">
        <ele>56.369999999999997</ele>
        <time>2024-09-12T15:09:26Z</time>
      </trkpt>
      <trkpt lat="52.42690097540617" lon="11.134179029613733">
        <ele>54.93</ele>
        <time>2024-09-12T15:09:38Z</time>
      </trkpt>
      <trkpt lat="52.42937296628952" lon="11.136181969195604">
        <ele>57.82</ele>
        <time>2024-09-12T15:09:51Z</time>
      </trkpt>
      <trkpt lat="52.431049011647701" lon="11.137531958520412">
        <ele>59.740000000000002</ele>
        <time>2024-09-12T15:10:01Z</time>
      </trkpt>
      <trkpt lat="52.432819018140435" lon="11.138927964493632">
        <ele>57.82</ele>
        <time>2024-09-12T15:10:11Z</time>
      </trkpt>
      <trkpt lat="52.435717983171344" lon="11.141269030049443">
        <ele>53.009999999999998</ele>
        <time>2024-09-12T15:10:26Z</time>
      </trkpt>
      <trkpt lat="52.437478015199304" lon="11.142619019374251">
        <ele>53.490000000000002</ele>
        <time>2024-09-12T15:10:36Z</time>
      </trkpt>
      <trkpt lat="52.439324967563152" lon="11.143532982096076">
        <ele>54.93</ele>
        <time>2024-09-12T15:10:45Z</time>
      </trkpt>
      <trkpt lat="52.441956968978047" lon="11.144753973931074">
        <ele>55.409999999999997</ele>
        <time>2024-09-12T15:10:57Z</time>
      </trkpt>
      <trkpt lat="52.444641022011638" lon="11.145997010171413">
        <ele>55.409999999999997</ele>
        <time>2024-09-12T15:11:09Z</time>
      </trkpt>
      <trkpt lat="52.447321973741055" lon="11.147190006449819">
        <ele>54.450000000000003</ele>
        <time>2024-09-12T15:11:21Z</time>
      </trkpt>
      <trkpt lat="52.447533030062914" lon="11.147219007834792">
        <ele>54.93</ele>
        <time>2024-09-12T15:11:22Z</time>
      </trkpt>
      <trkpt lat="52.447749031707644" lon="11.147221019491553">
        <ele>54.93</ele>
        <time>2024-09-12T15:11:23Z</time>
      </trkpt>
      <trkpt lat="52.447971990332007" lon="11.147135021165013">
        <ele>55.409999999999997</ele>
        <time>2024-09-12T15:11:24Z</time>
      </trkpt>
      <trkpt lat="52.448202995583415" lon="11.147046005353332">
        <ele>55.409999999999997</ele>
        <time>2024-09-12T15:11:25Z</time>
      </trkpt>
      <trkpt lat="52.448422014713287" lon="11.146912984549999">
        <ele>55.890000000000001</ele>
        <time>2024-09-12T15:11:26Z</time>
      </trkpt>
      <trkpt lat="52.448647990822792" lon="11.146759008988738">
        <ele>55.890000000000001</ele>
        <time>2024-09-12T15:11:27Z</time>
      </trkpt>
      <trkpt lat="52.448859969154" lon="11.146568991243839">
        <ele>55.890000000000001</ele>
        <time>2024-09-12T15:11:28Z</time>
      </trkpt>
      <trkpt lat="52.44907203130424" lon="11.146347038447857">
        <ele>56.369999999999997</ele>
        <time>2024-09-12T15:11:29Z</time>
      </trkpt>
      <trkpt lat="52.451475961133838" lon="11.143811009824276">
        <ele>55.409999999999997</ele>
        <time>2024-09-12T15:11:40Z</time>
      </trkpt>
      <trkpt lat="52.453311011195183" lon="11.14201501943171">
        <ele>54.93</ele>
        <time>2024-09-12T15:11:49Z</time>
      </trkpt>
      <trkpt lat="52.453523995354772" lon="11.141918962821364">
        <ele>54.450000000000003</ele>
        <time>2024-09-12T15:11:50Z</time>
      </trkpt>
      <trkpt lat="52.454184992238879" lon="11.141717964783311">
        <ele>54.450000000000003</ele>
        <time>2024-09-12T15:11:53Z</time>
      </trkpt>
      <trkpt lat="52.455507991835475" lon="11.14156398922205">
        <ele>54.450000000000003</ele>
        <time>2024-09-12T15:12:00Z</time>
      </trkpt>
      <trkpt lat="52.456684978678823" lon="11.141483020037413">
        <ele>54.93</ele>
        <time>2024-09-12T15:12:09Z</time>
      </trkpt>
      <trkpt lat="52.457996997982264" lon="11.141420993953943">
        <ele>54.93</ele>
        <time>2024-09-12T15:12:20Z</time>
      </trkpt>
      <trkpt lat="52.459122017025948" lon="11.14137195982039">
        <ele>52.049999999999997</ele>
        <time>2024-09-12T15:12:31Z</time>
      </trkpt>
      <trkpt lat="52.459849985316396" lon="11.141400961205363">
        <ele>50.130000000000003</ele>
        <time>2024-09-12T15:12:39Z</time>
      </trkpt>
      <trkpt lat="52.459999015554786" lon="11.141454018652439">
        <ele>50.130000000000003</ele>
        <time>2024-09-12T15:12:46Z</time>
      </trkpt>
      <trkpt lat="52.459999015554786" lon="11.141454018652439">
        <ele>50.130000000000003</ele>
        <time>2024-09-12T15:13:10Z</time>
      </trkpt>
      <trkpt lat="52.460044026374817" lon="11.141472039744258">
        <ele>50.609999999999999</ele>
        <time>2024-09-12T15:13:53Z</time>
      </trkpt>
      <trkpt lat="52.460493966937065" lon="11.141658034175634">
        <ele>51.090000000000003</ele>
        <time>2024-09-12T15:13:59Z</time>
      </trkpt>
      <trkpt lat="52.460645008832216" lon="11.141699021682143">
        <ele>51.090000000000003</ele>
        <time>2024-09-12T15:14:02Z</time>
      </trkpt>
      <trkpt lat="52.460650959983468" lon="11.141615035012364">
        <ele>51.090000000000003</ele>
        <time>2024-09-12T15:14:03Z</time>
      </trkpt>
      <trkpt lat="52.460662024095654" lon="11.141467010602355">
        <ele>51.57</ele>
        <time>2024-09-12T15:14:04Z</time>
      </trkpt>
      <trkpt lat="52.460773000493646" lon="11.141002988442779">
        <ele>52.049999999999997</ele>
        <time>2024-09-12T15:14:07Z</time>
      </trkpt>
      <trkpt lat="52.461300976574421" lon="11.139406990259886">
        <ele>52.049999999999997</ele>
        <time>2024-09-12T15:14:16Z</time>
      </trkpt>
      <trkpt lat="52.461344981566072" lon="11.139206998050213">
        <ele>52.530000000000001</ele>
        <time>2024-09-12T15:14:17Z</time>
      </trkpt>
      <trkpt lat="52.461633989587426" lon="11.13746196962893">
        <ele>52.049999999999997</ele>
        <time>2024-09-12T15:14:25Z</time>
      </trkpt>
      <trkpt lat="52.461780002340674" lon="11.137042958289385">
        <ele>51.090000000000003</ele>
        <time>2024-09-12T15:14:27Z</time>
      </trkpt>
      <trkpt lat="52.46185895986855" lon="11.136842966079712">
        <ele>50.609999999999999</ele>
        <time>2024-09-12T15:14:28Z</time>
      </trkpt>
      <trkpt lat="52.461931966245174" lon="11.136653032153845">
        <ele>50.130000000000003</ele>
        <time>2024-09-12T15:14:29Z</time>
      </trkpt>
      <trkpt lat="52.462013019248843" lon="11.136445999145508">
        <ele>50.130000000000003</ele>
        <time>2024-09-12T15:14:30Z</time>
      </trkpt>
      <trkpt lat="52.462080996483564" lon="11.136337034404278">
        <ele>49.649999999999999</ele>
        <time>2024-09-12T15:14:31Z</time>
      </trkpt>
      <trkpt lat="52.462897980585694" lon="11.135007999837399">
        <ele>49.159999999999997</ele>
        <time>2024-09-12T15:14:41Z</time>
      </trkpt>
      <trkpt lat="52.464209999889135" lon="11.132882013916969">
        <ele>50.609999999999999</ele>
        <time>2024-09-12T15:14:56Z</time>
      </trkpt>
      <trkpt lat="52.465076018124819" lon="11.131472010165453">
        <ele>48.68</ele>
        <time>2024-09-12T15:15:03Z</time>
      </trkpt>
      <trkpt lat="52.466705963015556" lon="11.129032038152218">
        <ele>51.57</ele>
        <time>2024-09-12T15:15:14Z</time>
      </trkpt>
      <trkpt lat="52.46686102822423" lon="11.128851994872093">
        <ele>52.530000000000001</ele>
        <time>2024-09-12T15:15:15Z</time>
      </trkpt>
      <trkpt lat="52.467038976028562" lon="11.128745963796973">
        <ele>53.009999999999998</ele>
        <time>2024-09-12T15:15:16Z</time>
      </trkpt>
      <trkpt lat="52.467214995995164" lon="11.128642028197646">
        <ele>53.969999999999999</ele>
        <time>2024-09-12T15:15:17Z</time>
      </trkpt>
      <trkpt lat="52.467389004305005" lon="11.128539014607668">
        <ele>54.450000000000003</ele>
        <time>2024-09-12T15:15:18Z</time>
      </trkpt>
      <trkpt lat="52.468746034428477" lon="11.12772898748517">
        <ele>57.82</ele>
        <time>2024-09-12T15:15:27Z</time>
      </trkpt>
      <trkpt lat="52.468868996948004" lon="11.127596972510219">
        <ele>57.82</ele>
        <time>2024-09-12T15:15:28Z</time>
      </trkpt>
      <trkpt lat="52.468986008316278" lon="11.127455988898873">
        <ele>57.82</ele>
        <time>2024-09-12T15:15:29Z</time>
      </trkpt>
      <trkpt lat="52.469093967229128" lon="11.127326991409063">
        <ele>57.82</ele>
        <time>2024-09-12T15:15:30Z</time>
      </trkpt>
      <trkpt lat="52.469174014404416" lon="11.127167986705899">
        <ele>57.82</ele>
        <time>2024-09-12T15:15:31Z</time>
      </trkpt>
      <trkpt lat="52.469244003295898" lon="11.127011999487877">
        <ele>57.340000000000003</ele>
        <time>2024-09-12T15:15:32Z</time>
      </trkpt>
      <trkpt lat="52.469335030764341" lon="11.12674000672996">
        <ele>56.369999999999997</ele>
        <time>2024-09-12T15:15:34Z</time>
      </trkpt>
      <trkpt lat="52.469364032149315" lon="11.126634981483221">
        <ele>55.890000000000001</ele>
        <time>2024-09-12T15:15:35Z</time>
      </trkpt>
      <trkpt lat="52.469566036015749" lon="11.126572033390403">
        <ele>55.409999999999997</ele>
        <time>2024-09-12T15:15:36Z</time>
      </trkpt>
      <trkpt lat="52.469625966623425" lon="11.126621989533305">
        <ele>54.450000000000003</ele>
        <time>2024-09-12T15:15:37Z</time>
      </trkpt>
      <trkpt lat="52.469673994928598" lon="11.126660965383053">
        <ele>53.969999999999999</ele>
        <time>2024-09-12T15:15:38Z</time>
      </trkpt>
      <trkpt lat="52.469736021012068" lon="11.126820975914598">
        <ele>53.490000000000002</ele>
        <time>2024-09-12T15:15:39Z</time>
      </trkpt>
      <trkpt lat="52.469783965498209" lon="11.126945028081536">
        <ele>53.490000000000002</ele>
        <time>2024-09-12T15:15:40Z</time>
      </trkpt>
      <trkpt lat="52.469820007681847" lon="11.127105038613081">
        <ele>53.009999999999998</ele>
        <time>2024-09-12T15:15:41Z</time>
      </trkpt>
      <trkpt lat="52.469808021560311" lon="11.127267982810736">
        <ele>53.009999999999998</ele>
        <time>2024-09-12T15:15:42Z</time>
      </trkpt>
      <trkpt lat="52.469788994640112" lon="11.127433022484183">
        <ele>52.530000000000001</ele>
        <time>2024-09-12T15:15:43Z</time>
      </trkpt>
      <trkpt lat="52.469765022397041" lon="11.127591021358967">
        <ele>52.049999999999997</ele>
        <time>2024-09-12T15:15:44Z</time>
      </trkpt>
      <trkpt lat="52.469682041555643" lon="11.127738961949944">
        <ele>52.049999999999997</ele>
        <time>2024-09-12T15:15:45Z</time>
      </trkpt>
      <trkpt lat="52.469596965238452" lon="11.127861002460122">
        <ele>52.049999999999997</ele>
        <time>2024-09-12T15:15:46Z</time>
      </trkpt>
      <trkpt lat="52.469506021589041" lon="11.127993017435074">
        <ele>51.57</ele>
        <time>2024-09-12T15:15:47Z</time>
      </trkpt>
      <trkpt lat="52.469025989994407" lon="11.12888602539897">
        <ele>52.049999999999997</ele>
        <time>2024-09-12T15:15:52Z</time>
      </trkpt>
      <trkpt lat="52.468934040516615" lon="11.129119964316487">
        <ele>52.049999999999997</ele>
        <time>2024-09-12T15:15:53Z</time>
      </trkpt>
      <trkpt lat="52.468853993341327" lon="11.129373013973236">
        <ele>52.049999999999997</ele>
        <time>2024-09-12T15:15:54Z</time>
      </trkpt>
      <trkpt lat="52.468792973086238" lon="11.129648024216294">
        <ele>52.530000000000001</ele>
        <time>2024-09-12T15:15:55Z</time>
      </trkpt>
      <trkpt lat="52.468741005286574" lon="11.129935020580888">
        <ele>52.530000000000001</ele>
        <time>2024-09-12T15:15:56Z</time>
      </trkpt>
      <trkpt lat="52.46870999224484" lon="11.130228973925114">
        <ele>52.530000000000001</ele>
        <time>2024-09-12T15:15:57Z</time>
      </trkpt>
      <trkpt lat="52.468719966709614" lon="11.130528040230274">
        <ele>52.530000000000001</ele>
        <time>2024-09-12T15:15:58Z</time>
      </trkpt>
      <trkpt lat="52.468732036650181" lon="11.130825011059642">
        <ele>53.009999999999998</ele>
        <time>2024-09-12T15:15:59Z</time>
      </trkpt>
      <trkpt lat="52.468744022771716" lon="11.131123993545771">
        <ele>53.009999999999998</ele>
        <time>2024-09-12T15:16:00Z</time>
      </trkpt>
      <trkpt lat="52.468779981136322" lon="11.13142398186028">
        <ele>53.490000000000002</ele>
        <time>2024-09-12T15:16:01Z</time>
      </trkpt>
      <trkpt lat="52.468842007219791" lon="11.131699997931719">
        <ele>53.490000000000002</ele>
        <time>2024-09-12T15:16:02Z</time>
      </trkpt>
      <trkpt lat="52.468907972797751" lon="11.131977019831538">
        <ele>53.490000000000002</ele>
        <time>2024-09-12T15:16:03Z</time>
      </trkpt>
      <trkpt lat="52.469006041064858" lon="11.132209030911326">
        <ele>53.490000000000002</ele>
        <time>2024-09-12T15:16:04Z</time>
      </trkpt>
      <trkpt lat="52.469105031341314" lon="11.132440958172083">
        <ele>53.969999999999999</ele>
        <time>2024-09-12T15:16:05Z</time>
      </trkpt>
      <trkpt lat="52.469206033274531" lon="11.132675986737013">
        <ele>53.969999999999999</ele>
        <time>2024-09-12T15:16:06Z</time>
      </trkpt>
      <trkpt lat="52.469334024935961" lon="11.132855024188757">
        <ele>53.969999999999999</ele>
        <time>2024-09-12T15:16:07Z</time>
      </trkpt>
      <trkpt lat="52.469467967748642" lon="11.133018974214792">
        <ele>53.969999999999999</ele>
        <time>2024-09-12T15:16:08Z</time>
      </trkpt>
      <trkpt lat="52.46961398050189" lon="11.133157024160028">
        <ele>53.969999999999999</ele>
        <time>2024-09-12T15:16:09Z</time>
      </trkpt>
      <trkpt lat="52.469759993255138" lon="11.133295996114612">
        <ele>53.969999999999999</ele>
        <time>2024-09-12T15:16:10Z</time>
      </trkpt>
      <trkpt lat="52.471548020839691" lon="11.134794009849429">
        <ele>53.969999999999999</ele>
        <time>2024-09-12T15:16:22Z</time>
      </trkpt>
      <trkpt lat="52.473358009010553" lon="11.135778967291117">
        <ele>53.490000000000002</ele>
        <time>2024-09-12T15:16:32Z</time>
      </trkpt>
      <trkpt lat="52.473563030362129" lon="11.135840993374586">
        <ele>53.969999999999999</ele>
        <time>2024-09-12T15:16:33Z</time>
      </trkpt>
      <trkpt lat="52.473778026178479" lon="11.13585096783936">
        <ele>53.969999999999999</ele>
        <time>2024-09-12T15:16:34Z</time>
      </trkpt>
      <trkpt lat="52.475463040173054" lon="11.135902013629675">
        <ele>55.409999999999997</ele>
        <time>2024-09-12T15:16:41Z</time>
      </trkpt>
      <trkpt lat="52.476929035037756" lon="11.135946018621325">
        <ele>55.890000000000001</ele>
        <time>2024-09-12T15:16:47Z</time>
      </trkpt>
      <trkpt lat="52.477174960076809" lon="11.135953981429338">
        <ele>56.369999999999997</ele>
        <time>2024-09-12T15:16:48Z</time>
      </trkpt>
      <trkpt lat="52.478918982669711" lon="11.136010978370905">
        <ele>55.890000000000001</ele>
        <time>2024-09-12T15:16:55Z</time>
      </trkpt>
      <trkpt lat="52.479165997356176" lon="11.13601902499795">
        <ele>55.890000000000001</ele>
        <time>2024-09-12T15:16:56Z</time>
      </trkpt>
      <trkpt lat="52.481401031836867" lon="11.136095970869064">
        <ele>53.969999999999999</ele>
        <time>2024-09-12T15:17:05Z</time>
      </trkpt>
      <trkpt lat="52.483660038560629" lon="11.136223040521145">
        <ele>54.450000000000003</ele>
        <time>2024-09-12T15:17:15Z</time>
      </trkpt>
      <trkpt lat="52.485618973150849" lon="11.136742969974875">
        <ele>54.93</ele>
        <time>2024-09-12T15:17:24Z</time>
      </trkpt>
      <trkpt lat="52.488634027540684" lon="11.137544028460979">
        <ele>55.409999999999997</ele>
        <time>2024-09-12T15:17:38Z</time>
      </trkpt>
      <trkpt lat="52.489025965332985" lon="11.137583004310727">
        <ele>55.409999999999997</ele>
        <time>2024-09-12T15:17:40Z</time>
      </trkpt>
      <trkpt lat="52.489222018048167" lon="11.137583004310727">
        <ele>54.93</ele>
        <time>2024-09-12T15:17:41Z</time>
      </trkpt>
      <trkpt lat="52.489413041621447" lon="11.137537993490696">
        <ele>54.93</ele>
        <time>2024-09-12T15:17:42Z</time>
      </trkpt>
      <trkpt lat="52.48959400691092" lon="11.137419976294041">
        <ele>54.450000000000003</ele>
        <time>2024-09-12T15:17:43Z</time>
      </trkpt>
      <trkpt lat="52.489782012999058" lon="11.137282010167837">
        <ele>54.450000000000003</ele>
        <time>2024-09-12T15:17:44Z</time>
      </trkpt>
      <trkpt lat="52.489974964410067" lon="11.137141026556492">
        <ele>53.969999999999999</ele>
        <time>2024-09-12T15:17:45Z</time>
      </trkpt>
      <trkpt lat="52.490156013518572" lon="11.136959977447987">
        <ele>53.969999999999999</ele>
        <time>2024-09-12T15:17:46Z</time>
      </trkpt>
      <trkpt lat="52.491872040554881" lon="11.135103972628713">
        <ele>53.969999999999999</ele>
        <time>2024-09-12T15:17:55Z</time>
      </trkpt>
      <trkpt lat="52.494163988158107" lon="11.13262603059411">
        <ele>52.049999999999997</ele>
        <time>2024-09-12T15:18:07Z</time>
      </trkpt>
      <trkpt lat="52.494350988417864" lon="11.132457973435521">
        <ele>52.049999999999997</ele>
        <time>2024-09-12T15:18:08Z</time>
      </trkpt>
      <trkpt lat="52.494546035304666" lon="11.132309027016163">
        <ele>51.57</ele>
        <time>2024-09-12T15:18:09Z</time>
      </trkpt>
      <trkpt lat="52.494745021685958" lon="11.132225962355733">
        <ele>51.57</ele>
        <time>2024-09-12T15:18:10Z</time>
      </trkpt>
      <trkpt lat="52.494952976703644" lon="11.132171982899308">
        <ele>51.57</ele>
        <time>2024-09-12T15:18:11Z</time>
      </trkpt>
      <trkpt lat="52.495155986398458" lon="11.13215203396976">
        <ele>51.57</ele>
        <time>2024-09-12T15:18:12Z</time>
      </trkpt>
      <trkpt lat="52.495363019406796" lon="11.132222022861242">
        <ele>51.090000000000003</ele>
        <time>2024-09-12T15:18:13Z</time>
      </trkpt>
      <trkpt lat="52.495576003566384" lon="11.132294023409486">
        <ele>51.090000000000003</ele>
        <time>2024-09-12T15:18:14Z</time>
      </trkpt>
      <trkpt lat="52.495793011039495" lon="11.132368035614491">
        <ele>51.090000000000003</ele>
        <time>2024-09-12T15:18:15Z</time>
      </trkpt>
      <trkpt lat="52.498334990814328" lon="11.133601013571024">
        <ele>52.049999999999997</ele>
        <time>2024-09-12T15:18:27Z</time>
      </trkpt>
      <trkpt lat="52.500073984265327" lon="11.13471002317965">
        <ele>51.57</ele>
        <time>2024-09-12T15:18:36Z</time>
      </trkpt>
      <trkpt lat="52.501986986026168" lon="11.136274002492428">
        <ele>53.009999999999998</ele>
        <time>2024-09-12T15:18:46Z</time>
      </trkpt>
      <trkpt lat="52.502637002617121" lon="11.137146977707744">
        <ele>52.049999999999997</ele>
        <time>2024-09-12T15:18:51Z</time>
      </trkpt>
      <trkpt lat="52.503519030287862" lon="11.138080973178148">
        <ele>53.009999999999998</ele>
        <time>2024-09-12T15:19:00Z</time>
      </trkpt>
      <trkpt lat="52.504420001059771" lon="11.138726966455579">
        <ele>54.450000000000003</ele>
        <time>2024-09-12T15:19:09Z</time>
      </trkpt>
      <trkpt lat="52.504513962194324" lon="11.138820005580783">
        <ele>54.450000000000003</ele>
        <time>2024-09-12T15:19:10Z</time>
      </trkpt>
      <trkpt lat="52.504608007147908" lon="11.138913966715336">
        <ele>53.969999999999999</ele>
        <time>2024-09-12T15:19:11Z</time>
      </trkpt>
      <trkpt lat="52.504696017131209" lon="11.139026032760739">
        <ele>53.969999999999999</ele>
        <time>2024-09-12T15:19:12Z</time>
      </trkpt>
      <trkpt lat="52.504770029336214" lon="11.139170033857226">
        <ele>53.969999999999999</ele>
        <time>2024-09-12T15:19:13Z</time>
      </trkpt>
      <trkpt lat="52.504833983257413" lon="11.139325015246868">
        <ele>53.969999999999999</ele>
        <time>2024-09-12T15:19:14Z</time>
      </trkpt>
      <trkpt lat="52.504897015169263" lon="11.139478990808129">
        <ele>53.969999999999999</ele>
        <time>2024-09-12T15:19:15Z</time>
      </trkpt>
      <trkpt lat="52.504952000454068" lon="11.139648975804448">
        <ele>53.969999999999999</ele>
        <time>2024-09-12T15:19:16Z</time>
      </trkpt>
      <trkpt lat="52.504996005445719" lon="11.13982499577105">
        <ele>53.969999999999999</ele>
        <time>2024-09-12T15:19:17Z</time>
      </trkpt>
      <trkpt lat="52.505441000685096" lon="11.141385035589337">
        <ele>53.969999999999999</ele>
        <time>2024-09-12T15:19:26Z</time>
      </trkpt>
      <trkpt lat="52.505501015111804" lon="11.141533982008696">
        <ele>53.969999999999999</ele>
        <time>2024-09-12T15:19:27Z</time>
      </trkpt>
      <trkpt lat="52.505592964589596" lon="11.141629032790661">
        <ele>53.969999999999999</ele>
        <time>2024-09-12T15:19:28Z</time>
      </trkpt>
      <trkpt lat="52.505681980401278" lon="11.141707990318537">
        <ele>53.969999999999999</ele>
        <time>2024-09-12T15:19:29Z</time>
      </trkpt>
      <trkpt lat="52.505778037011623" lon="11.141688041388988">
        <ele>54.450000000000003</ele>
        <time>2024-09-12T15:19:30Z</time>
      </trkpt>
      <trkpt lat="52.505882978439331" lon="11.141638001427054">
        <ele>54.450000000000003</ele>
        <time>2024-09-12T15:19:31Z</time>
      </trkpt>
      <trkpt lat="52.505993032827973" lon="11.141586033627391">
        <ele>54.93</ele>
        <time>2024-09-12T15:19:32Z</time>
      </trkpt>
      <trkpt lat="52.506669033318758" lon="11.141267018392682">
        <ele>55.890000000000001</ele>
        <time>2024-09-12T15:19:38Z</time>
      </trkpt>
      <trkpt lat="52.506779003888369" lon="11.141216978430748">
        <ele>55.890000000000001</ele>
        <time>2024-09-12T15:19:39Z</time>
      </trkpt>
      <trkpt lat="52.506891991943121" lon="11.141216978430748">
        <ele>55.890000000000001</ele>
        <time>2024-09-12T15:19:40Z</time>
      </trkpt>
      <trkpt lat="52.507004979997873" lon="11.141226030886173">
        <ele>56.369999999999997</ele>
        <time>2024-09-12T15:19:41Z</time>
      </trkpt>
      <trkpt lat="52.507115034386516" lon="11.14126299507916">
        <ele>56.369999999999997</ele>
        <time>2024-09-12T15:19:42Z</time>
      </trkpt>
      <trkpt lat="52.507217964157462" lon="11.141344970092177">
        <ele>56.369999999999997</ele>
        <time>2024-09-12T15:19:43Z</time>
      </trkpt>
      <trkpt lat="52.507323995232582" lon="11.141429040580988">
        <ele>56.369999999999997</ele>
        <time>2024-09-12T15:19:44Z</time>
      </trkpt>
      <trkpt lat="52.507434971630573" lon="11.141516966745257">
        <ele>56.369999999999997</ele>
        <time>2024-09-12T15:19:45Z</time>
      </trkpt>
      <trkpt lat="52.508683959022164" lon="11.142819011583924">
        <ele>58.780000000000001</ele>
        <time>2024-09-12T15:19:56Z</time>
      </trkpt>
      <trkpt lat="52.509526005014777" lon="11.143682012334466">
        <ele>60.700000000000003</ele>
        <time>2024-09-12T15:20:02Z</time>
      </trkpt>
      <trkpt lat="52.50970303080976" lon="11.143784020096064">
        <ele>60.700000000000003</ele>
        <time>2024-09-12T15:20:03Z</time>
      </trkpt>
      <trkpt lat="52.509887013584375" lon="11.143878987058997">
        <ele>61.18</ele>
        <time>2024-09-12T15:20:04Z</time>
      </trkpt>
      <trkpt lat="52.511461973190308" lon="11.144469995051622">
        <ele>61.659999999999997</ele>
        <time>2024-09-12T15:20:11Z</time>
      </trkpt>
      <trkpt lat="52.514125993475318" lon="11.145470039919019">
        <ele>62.140000000000001</ele>
        <time>2024-09-12T15:20:21Z</time>
      </trkpt>
      <trkpt lat="52.517222017049789" lon="11.146632023155689">
        <ele>62.619999999999997</ele>
        <time>2024-09-12T15:20:32Z</time>
      </trkpt>
      <trkpt lat="52.520197005942464" lon="11.147641036659479">
        <ele>62.619999999999997</ele>
        <time>2024-09-12T15:20:43Z</time>
      </trkpt>
      <trkpt lat="52.5231549795717" lon="11.148584000766277">
        <ele>60.700000000000003</ele>
        <time>2024-09-12T15:20:54Z</time>
      </trkpt>
      <trkpt lat="52.525010984390974" lon="11.149175008758903">
        <ele>61.18</ele>
        <time>2024-09-12T15:21:00Z</time>
      </trkpt>
      <trkpt lat="52.527533015236259" lon="11.149979000911117">
        <ele>60.700000000000003</ele>
        <time>2024-09-12T15:21:09Z</time>
      </trkpt>
      <trkpt lat="52.528727017343044" lon="11.150359036400914">
        <ele>59.259999999999998</ele>
        <time>2024-09-12T15:21:14Z</time>
      </trkpt>
      <trkpt lat="52.528923992067575" lon="11.150511000305414">
        <ele>59.259999999999998</ele>
        <time>2024-09-12T15:21:15Z</time>
      </trkpt>
      <trkpt lat="52.5291040353477" lon="11.150719961151481">
        <ele>59.259999999999998</ele>
        <time>2024-09-12T15:21:16Z</time>
      </trkpt>
      <trkpt lat="52.529285000637174" lon="11.150941997766495">
        <ele>59.259999999999998</ele>
        <time>2024-09-12T15:21:17Z</time>
      </trkpt>
      <trkpt lat="52.529462026432157" lon="11.151161016896367">
        <ele>59.259999999999998</ele>
        <time>2024-09-12T15:21:18Z</time>
      </trkpt>
      <trkpt lat="52.530446983873844" lon="11.15237102843821">
        <ele>58.299999999999997</ele>
        <time>2024-09-12T15:21:24Z</time>
      </trkpt>
      <trkpt lat="52.530618980526924" lon="11.152488961815834">
        <ele>58.299999999999997</ele>
        <time>2024-09-12T15:21:25Z</time>
      </trkpt>
      <trkpt lat="52.532058991491795" lon="11.15320997312665">
        <ele>57.340000000000003</ele>
        <time>2024-09-12T15:21:33Z</time>
      </trkpt>
      <trkpt lat="52.532896008342505" lon="11.153590008616447">
        <ele>56.859999999999999</ele>
        <time>2024-09-12T15:21:40Z</time>
      </trkpt>
      <trkpt lat="52.533972999081016" lon="11.153768040239811">
        <ele>57.82</ele>
        <time>2024-09-12T15:21:49Z</time>
      </trkpt>
      <trkpt lat="52.535419967025518" lon="11.153547009453177">
        <ele>59.740000000000002</ele>
        <time>2024-09-12T15:22:01Z</time>
      </trkpt>
      <trkpt lat="52.536439038813114" lon="11.153114000335336">
        <ele>58.780000000000001</ele>
        <time>2024-09-12T15:22:10Z</time>
      </trkpt>
      <trkpt lat="52.536516990512609" lon="11.153063960373402">
        <ele>58.780000000000001</ele>
        <time>2024-09-12T15:22:11Z</time>
      </trkpt>
      <trkpt lat="52.536553032696247" lon="11.152920965105295">
        <ele>58.299999999999997</ele>
        <time>2024-09-12T15:22:12Z</time>
      </trkpt>
      <trkpt lat="52.536593014374375" lon="11.152762966230512">
        <ele>58.299999999999997</ele>
        <time>2024-09-12T15:22:13Z</time>
      </trkpt>
      <trkpt lat="52.536625033244491" lon="11.152593987062573">
        <ele>58.299999999999997</ele>
        <time>2024-09-12T15:22:14Z</time>
      </trkpt>
      <trkpt lat="52.536889985203743" lon="11.151128998026252">
        <ele>57.340000000000003</ele>
        <time>2024-09-12T15:22:22Z</time>
      </trkpt>
      <trkpt lat="52.536934996023774" lon="11.150978961959481">
        <ele>57.340000000000003</ele>
        <time>2024-09-12T15:22:23Z</time>
      </trkpt>
      <trkpt lat="52.537059970200062" lon="11.150919031351805">
        <ele>56.859999999999999</ele>
        <time>2024-09-12T15:22:24Z</time>
      </trkpt>
      <trkpt lat="52.53716298379004" lon="11.150890029966831">
        <ele>56.859999999999999</ele>
        <time>2024-09-12T15:22:25Z</time>
      </trkpt>
      <trkpt lat="52.537276977673173" lon="11.150858011096716">
        <ele>56.369999999999997</ele>
        <time>2024-09-12T15:22:26Z</time>
      </trkpt>
      <trkpt lat="52.537516029551625" lon="11.150772012770176">
        <ele>55.890000000000001</ele>
        <time>2024-09-12T15:22:28Z</time>
      </trkpt>
      <trkpt lat="52.537626000121236" lon="11.150670005008578">
        <ele>55.890000000000001</ele>
        <time>2024-09-12T15:22:29Z</time>
      </trkpt>
      <trkpt lat="52.538741966709495" lon="11.149093033745885">
        <ele>55.890000000000001</ele>
        <time>2024-09-12T15:22:41Z</time>
      </trkpt>
      <trkpt lat="52.539686020463705" lon="11.14777397364378">
        <ele>57.340000000000003</ele>
        <time>2024-09-12T15:22:48Z</time>
      </trkpt>
      <trkpt lat="52.541303979232907" lon="11.145518990233541">
        <ele>59.259999999999998</ele>
        <time>2024-09-12T15:22:57Z</time>
      </trkpt>
      <trkpt lat="52.542480966076255" lon="11.144040003418922">
        <ele>59.259999999999998</ele>
        <time>2024-09-12T15:23:03Z</time>
      </trkpt>
      <trkpt lat="52.542689004912972" lon="11.143832970410585">
        <ele>59.259999999999998</ele>
        <time>2024-09-12T15:23:04Z</time>
      </trkpt>
      <trkpt lat="52.542913975194097" lon="11.143692992627621">
        <ele>59.259999999999998</ele>
        <time>2024-09-12T15:23:05Z</time>
      </trkpt>
      <trkpt lat="52.54315797239542" lon="11.14358302205801">
        <ele>59.259999999999998</ele>
        <time>2024-09-12T15:23:06Z</time>
      </trkpt>
      <trkpt lat="52.543408004567027" lon="11.143470034003258">
        <ele>59.259999999999998</ele>
        <time>2024-09-12T15:23:07Z</time>
      </trkpt>
      <trkpt lat="52.545208018273115" lon="11.143148001283407">
        <ele>59.259999999999998</ele>
        <time>2024-09-12T15:23:14Z</time>
      </trkpt>
      <trkpt lat="52.5454540271312" lon="11.143064014613628">
        <ele>59.259999999999998</ele>
        <time>2024-09-12T15:23:15Z</time>
      </trkpt>
      <trkpt lat="52.545697018504143" lon="11.142949014902115">
        <ele>59.259999999999998</ele>
        <time>2024-09-12T15:23:16Z</time>
      </trkpt>
      <trkpt lat="52.545912014320493" lon="11.142734019085765">
        <ele>59.740000000000002</ele>
        <time>2024-09-12T15:23:17Z</time>
      </trkpt>
      <trkpt lat="52.546129021793604" lon="11.142518017441034">
        <ele>59.740000000000002</ele>
        <time>2024-09-12T15:23:18Z</time>
      </trkpt>
      <trkpt lat="52.546342005953193" lon="11.142304027453065">
        <ele>59.740000000000002</ele>
        <time>2024-09-12T15:23:19Z</time>
      </trkpt>
      <trkpt lat="52.546521965414286" lon="11.142013007774949">
        <ele>59.740000000000002</ele>
        <time>2024-09-12T15:23:20Z</time>
      </trkpt>
      <trkpt lat="52.546691028401256" lon="11.141702961176634">
        <ele>59.740000000000002</ele>
        <time>2024-09-12T15:23:21Z</time>
      </trkpt>
      <trkpt lat="52.546849027276039" lon="11.141365002840757">
        <ele>59.259999999999998</ele>
        <time>2024-09-12T15:23:22Z</time>
      </trkpt>
      <trkpt lat="52.546994034200907" lon="11.141014974564314">
        <ele>59.259999999999998</ele>
        <time>2024-09-12T15:23:23Z</time>
      </trkpt>
      <trkpt lat="52.54740902222693" lon="11.140091959387064">
        <ele>59.259999999999998</ele>
        <time>2024-09-12T15:23:26Z</time>
      </trkpt>
      <trkpt lat="52.547556040808558" lon="11.13984502851963">
        <ele>58.780000000000001</ele>
        <time>2024-09-12T15:23:27Z</time>
      </trkpt>
      <trkpt lat="52.547726025804877" lon="11.13967495970428">
        <ele>58.780000000000001</ele>
        <time>2024-09-12T15:23:28Z</time>
      </trkpt>
      <trkpt lat="52.547892993316054" lon="11.139507992193103">
        <ele>58.780000000000001</ele>
        <time>2024-09-12T15:23:29Z</time>
      </trkpt>
      <trkpt lat="52.548078987747431" lon="11.139407996088266">
        <ele>58.299999999999997</ele>
        <time>2024-09-12T15:23:30Z</time>
      </trkpt>
      <trkpt lat="52.54826900549233" lon="11.139326021075249">
        <ele>58.299999999999997</ele>
        <time>2024-09-12T15:23:31Z</time>
      </trkpt>
      <trkpt lat="52.549224961549044" lon="11.139133991673589">
        <ele>57.340000000000003</ele>
        <time>2024-09-12T15:23:36Z</time>
      </trkpt>
      <trkpt lat="52.549415985122323" lon="11.139189982786775">
        <ele>56.859999999999999</ele>
        <time>2024-09-12T15:23:37Z</time>
      </trkpt>
      <trkpt lat="52.549610026180744" lon="11.139245973899961">
        <ele>56.859999999999999</ele>
        <time>2024-09-12T15:23:38Z</time>
      </trkpt>
      <trkpt lat="52.551463013514876" lon="11.140008978545666">
        <ele>58.299999999999997</ele>
        <time>2024-09-12T15:23:47Z</time>
      </trkpt>
      <trkpt lat="52.552106995135546" lon="11.140179969370365">
        <ele>57.82</ele>
        <time>2024-09-12T15:23:50Z</time>
      </trkpt>
      <trkpt lat="52.552316961809993" lon="11.140177035704255">
        <ele>57.82</ele>
        <time>2024-09-12T15:23:51Z</time>
      </trkpt>
      <trkpt lat="52.552520977333188" lon="11.140108974650502">
        <ele>58.299999999999997</ele>
        <time>2024-09-12T15:23:52Z</time>
      </trkpt>
      <trkpt lat="52.552730021998286" lon="11.14003898575902">
        <ele>58.299999999999997</ele>
        <time>2024-09-12T15:23:53Z</time>
      </trkpt>
      <trkpt lat="52.552940994501114" lon="11.139967991039157">
        <ele>58.780000000000001</ele>
        <time>2024-09-12T15:23:54Z</time>
      </trkpt>
      <trkpt lat="52.553138975054026" lon="11.139828013256192">
        <ele>58.780000000000001</ele>
        <time>2024-09-12T15:23:55Z</time>
      </trkpt>
      <trkpt lat="52.553329998627305" lon="11.139646964147687">
        <ele>59.259999999999998</ele>
        <time>2024-09-12T15:23:56Z</time>
      </trkpt>
      <trkpt lat="52.553523033857346" lon="11.139464993029833">
        <ele>59.259999999999998</ele>
        <time>2024-09-12T15:23:57Z</time>
      </trkpt>
      <trkpt lat="52.555312989279628" lon="11.137842005118728">
        <ele>59.259999999999998</ele>
        <time>2024-09-12T15:24:06Z</time>
      </trkpt>
      <trkpt lat="52.555519016459584" lon="11.137703033164144">
        <ele>59.259999999999998</ele>
        <time>2024-09-12T15:24:07Z</time>
      </trkpt>
      <trkpt lat="52.555740969255567" lon="11.137648969888687">
        <ele>59.740000000000002</ele>
        <time>2024-09-12T15:24:08Z</time>
      </trkpt>
      <trkpt lat="52.557737035676837" lon="11.13715996965766">
        <ele>59.259999999999998</ele>
        <time>2024-09-12T15:24:17Z</time>
      </trkpt>
      <trkpt lat="52.55899197421968" lon="11.136798961088061">
        <ele>58.780000000000001</ele>
        <time>2024-09-12T15:24:23Z</time>
      </trkpt>
      <trkpt lat="52.559738969430327" lon="11.136274002492428">
        <ele>58.299999999999997</ele>
        <time>2024-09-12T15:24:27Z</time>
      </trkpt>
      <trkpt lat="52.55993502214551" lon="11.136180963367224">
        <ele>58.299999999999997</ele>
        <time>2024-09-12T15:24:28Z</time>
      </trkpt>
      <trkpt lat="52.560122022405267" lon="11.136094965040684">
        <ele>58.299999999999997</ele>
        <time>2024-09-12T15:24:29Z</time>
      </trkpt>
      <trkpt lat="52.561432030051947" lon="11.135686011984944">
        <ele>58.780000000000001</ele>
        <time>2024-09-12T15:24:37Z</time>
      </trkpt>
      <trkpt lat="52.56238698028028" lon="11.135370014235377">
        <ele>59.259999999999998</ele>
        <time>2024-09-12T15:24:45Z</time>
      </trkpt>
      <trkpt lat="52.562748994678259" lon="11.135251997038722">
        <ele>58.299999999999997</ele>
        <time>2024-09-12T15:24:48Z</time>
      </trkpt>
      <trkpt lat="52.562867011874914" lon="11.135214027017355">
        <ele>58.299999999999997</ele>
        <time>2024-09-12T15:24:49Z</time>
      </trkpt>
      <trkpt lat="52.562972037121654" lon="11.135179996490479">
        <ele>57.82</ele>
        <time>2024-09-12T15:24:50Z</time>
      </trkpt>
      <trkpt lat="52.563082007691264" lon="11.135080000385642">
        <ele>57.82</ele>
        <time>2024-09-12T15:24:51Z</time>
      </trkpt>
      <trkpt lat="52.563186027109623" lon="11.134984027594328">
        <ele>57.82</ele>
        <time>2024-09-12T15:24:52Z</time>
      </trkpt>
      <trkpt lat="52.563292980194092" lon="11.134886965155602">
        <ele>57.82</ele>
        <time>2024-09-12T15:24:53Z</time>
      </trkpt>
      <trkpt lat="52.563830008730292" lon="11.134468959644437">
        <ele>58.299999999999997</ele>
        <time>2024-09-12T15:24:58Z</time>
      </trkpt>
      <trkpt lat="52.564927032217383" lon="11.133649963885546">
        <ele>59.259999999999998</ele>
        <time>2024-09-12T15:25:08Z</time>
      </trkpt>
      <trkpt lat="52.565362975001335" lon="11.133317034691572">
        <ele>60.700000000000003</ele>
        <time>2024-09-12T15:25:12Z</time>
      </trkpt>
      <trkpt lat="52.565588029101491" lon="11.133170016109943">
        <ele>61.18</ele>
        <time>2024-09-12T15:25:14Z</time>
      </trkpt>
      <trkpt lat="52.565709985792637" lon="11.133130034431815">
        <ele>61.659999999999997</ele>
        <time>2024-09-12T15:25:15Z</time>
      </trkpt>
      <trkpt lat="52.566911028698087" lon="11.133041018620133">
        <ele>65.030000000000001</ele>
        <time>2024-09-12T15:25:25Z</time>
      </trkpt>
      <trkpt lat="52.568364031612873" lon="11.13329297862947">
        <ele>65.510000000000005</ele>
        <time>2024-09-12T15:25:37Z</time>
      </trkpt>
      <trkpt lat="52.569532971829176" lon="11.133559020236135">
        <ele>67.430000000000007</ele>
        <time>2024-09-12T15:25:44Z</time>
      </trkpt>
      <trkpt lat="52.571085970848799" lon="11.134056989103556">
        <ele>68.870000000000005</ele>
        <time>2024-09-12T15:25:51Z</time>
      </trkpt>
      <trkpt lat="52.57334497757256" lon="11.135073965415359">
        <ele>70.310000000000002</ele>
        <time>2024-09-12T15:26:00Z</time>
      </trkpt>
      <trkpt lat="52.575604990124702" lon="11.13610896281898">
        <ele>70.790000000000006</ele>
        <time>2024-09-12T15:26:09Z</time>
      </trkpt>
      <trkpt lat="52.578052002936602" lon="11.137229958549142">
        <ele>72.239999999999995</ele>
        <time>2024-09-12T15:26:19Z</time>
      </trkpt>
      <trkpt lat="52.580788023769855" lon="11.138482969254255">
        <ele>75.599999999999994</ele>
        <time>2024-09-12T15:26:30Z</time>
      </trkpt>
      <trkpt lat="52.583051975816488" lon="11.139518972486258">
        <ele>78.480000000000004</ele>
        <time>2024-09-12T15:26:39Z</time>
      </trkpt>
      <trkpt lat="52.585812974721193" lon="11.140775000676513">
        <ele>78.969999999999999</ele>
        <time>2024-09-12T15:26:50Z</time>
      </trkpt>
      <trkpt lat="52.58606200106442" lon="11.14085697568953">
        <ele>79.450000000000003</ele>
        <time>2024-09-12T15:26:51Z</time>
      </trkpt>
      <trkpt lat="52.587589016184211" lon="11.141012962907553">
        <ele>80.890000000000001</ele>
        <time>2024-09-12T15:26:57Z</time>
      </trkpt>
      <trkpt lat="52.589875012636185" lon="11.141166016459465">
        <ele>82.329999999999998</ele>
        <time>2024-09-12T15:27:06Z</time>
      </trkpt>
      <trkpt lat="52.591936038807034" lon="11.14173598587513">
        <ele>85.209999999999994</ele>
        <time>2024-09-12T15:27:14Z</time>
      </trkpt>
      <trkpt lat="52.593210004270077" lon="11.141629032790661">
        <ele>89.540000000000006</ele>
        <time>2024-09-12T15:27:19Z</time>
      </trkpt>
      <trkpt lat="52.593461964279413" lon="11.141578992828727">
        <ele>90.5</ele>
        <time>2024-09-12T15:27:20Z</time>
      </trkpt>
      <trkpt lat="52.59371099062264" lon="11.141529036685824">
        <ele>91.459999999999994</ele>
        <time>2024-09-12T15:27:21Z</time>
      </trkpt>
      <trkpt lat="52.595125017687678" lon="11.141161993145943">
        <ele>93.870000000000005</ele>
        <time>2024-09-12T15:27:27Z</time>
      </trkpt>
      <trkpt lat="52.59691396728158" lon="11.140504013746977">
        <ele>93.870000000000005</ele>
        <time>2024-09-12T15:27:35Z</time>
      </trkpt>
      <trkpt lat="52.599040037021041" lon="11.140369987115264">
        <ele>90.5</ele>
        <time>2024-09-12T15:27:44Z</time>
      </trkpt>
      <trkpt lat="52.599975038319826" lon="11.140351966023445">
        <ele>90.019999999999996</ele>
        <time>2024-09-12T15:27:50Z</time>
      </trkpt>
      <trkpt lat="52.600088026374578" lon="11.140331011265516">
        <ele>90.019999999999996</ele>
        <time>2024-09-12T15:27:52Z</time>
      </trkpt>
      <trkpt lat="52.60011401027441" lon="11.140324976295233">
        <ele>90.019999999999996</ele>
        <time>2024-09-12T15:27:53Z</time>
      </trkpt>
      <trkpt lat="52.600306961685419" lon="11.140379961580038">
        <ele>90.5</ele>
        <time>2024-09-12T15:28:01Z</time>
      </trkpt>
      <trkpt lat="52.600388014689088" lon="11.140424972400069">
        <ele>90.5</ele>
        <time>2024-09-12T15:28:02Z</time>
      </trkpt>
      <trkpt lat="52.600489016622305" lon="11.140480963513255">
        <ele>90.019999999999996</ele>
        <time>2024-09-12T15:28:03Z</time>
      </trkpt>
      <trkpt lat="52.601413037627935" lon="11.140979016199708">
        <ele>86.659999999999997</ele>
        <time>2024-09-12T15:28:09Z</time>
      </trkpt>
      <trkpt lat="52.603140966966748" lon="11.141932038590312">
        <ele>87.620000000000005</ele>
        <time>2024-09-12T15:28:17Z</time>
      </trkpt>
      <trkpt lat="52.605928033590317" lon="11.143450001254678">
        <ele>85.209999999999994</ele>
        <time>2024-09-12T15:28:28Z</time>
      </trkpt>
      <trkpt lat="52.608135994523764" lon="11.144630005583167">
        <ele>83.769999999999996</ele>
        <time>2024-09-12T15:28:37Z</time>
      </trkpt>
      <trkpt lat="52.61021101847291" lon="11.145738009363413">
        <ele>83.290000000000006</ele>
        <time>2024-09-12T15:28:46Z</time>
      </trkpt>
      <trkpt lat="52.611980019137263" lon="11.146682985126972">
        <ele>83.290000000000006</ele>
        <time>2024-09-12T15:28:54Z</time>
      </trkpt>
      <trkpt lat="52.614108016714454" lon="11.147814961150289">
        <ele>78</ele>
        <time>2024-09-12T15:29:04Z</time>
      </trkpt>
      <trkpt lat="52.616137024015188" lon="11.14889002405107">
        <ele>71.760000000000005</ele>
        <time>2024-09-12T15:29:14Z</time>
      </trkpt>
      <trkpt lat="52.617217032238841" lon="11.14949201233685">
        <ele>66.950000000000003</ele>
        <time>2024-09-12T15:29:20Z</time>
      </trkpt>
      <trkpt lat="52.617343012243509" lon="11.149661997333169">
        <ele>66.469999999999999</ele>
        <time>2024-09-12T15:29:21Z</time>
      </trkpt>
      <trkpt lat="52.617465974763036" lon="11.149850003421307">
        <ele>65.989999999999995</ele>
        <time>2024-09-12T15:29:22Z</time>
      </trkpt>
      <trkpt lat="52.618294022977352" lon="11.151150958612561">
        <ele>63.100000000000001</ele>
        <time>2024-09-12T15:29:30Z</time>
      </trkpt>
      <trkpt lat="52.618743041530252" lon="11.151806004345417">
        <ele>62.140000000000001</ele>
        <time>2024-09-12T15:29:35Z</time>
      </trkpt>
      <trkpt lat="52.619592966511846" lon="11.152924988418818">
        <ele>61.659999999999997</ele>
        <time>2024-09-12T15:29:44Z</time>
      </trkpt>
      <trkpt lat="52.619973002001643" lon="11.153408037498593">
        <ele>60.219999999999999</ele>
        <time>2024-09-12T15:29:48Z</time>
      </trkpt>
      <trkpt lat="52.620086995884776" lon="11.153476014733315">
        <ele>59.740000000000002</ele>
        <time>2024-09-12T15:29:49Z</time>
      </trkpt>
      <trkpt lat="52.620200989767909" lon="11.153543991968036">
        <ele>59.259999999999998</ele>
        <time>2024-09-12T15:29:50Z</time>
      </trkpt>
      <trkpt lat="52.621552990749478" lon="11.154407998546958">
        <ele>56.369999999999997</ele>
        <time>2024-09-12T15:30:02Z</time>
      </trkpt>
      <trkpt lat="52.622384978458285" lon="11.155202016234398">
        <ele>54.93</ele>
        <time>2024-09-12T15:30:10Z</time>
      </trkpt>
      <trkpt lat="52.622476005926728" lon="11.155326990410686">
        <ele>54.450000000000003</ele>
        <time>2024-09-12T15:30:11Z</time>
      </trkpt>
      <trkpt lat="52.622567033395171" lon="11.155450958758593">
        <ele>54.450000000000003</ele>
        <time>2024-09-12T15:30:12Z</time>
      </trkpt>
      <trkpt lat="52.622968023642898" lon="11.15617498755455">
        <ele>54.450000000000003</ele>
        <time>2024-09-12T15:30:17Z</time>
      </trkpt>
      <trkpt lat="52.623066008090973" lon="11.156282024458051">
        <ele>54.450000000000003</ele>
        <time>2024-09-12T15:30:18Z</time>
      </trkpt>
      <trkpt lat="52.623176984488964" lon="11.156348995864391">
        <ele>54.93</ele>
        <time>2024-09-12T15:30:19Z</time>
      </trkpt>
      <trkpt lat="52.623292990028858" lon="11.156397024169564">
        <ele>55.409999999999997</ele>
        <time>2024-09-12T15:30:20Z</time>
      </trkpt>
      <trkpt lat="52.623407989740372" lon="11.156443962827325">
        <ele>55.409999999999997</ele>
        <time>2024-09-12T15:30:21Z</time>
      </trkpt>
      <trkpt lat="52.623520977795124" lon="11.156455026939511">
        <ele>54.93</ele>
        <time>2024-09-12T15:30:22Z</time>
      </trkpt>
      <trkpt lat="52.623636983335018" lon="11.156434994190931">
        <ele>54.93</ele>
        <time>2024-09-12T15:30:23Z</time>
      </trkpt>
      <trkpt lat="52.623757012188435" lon="11.156413033604622">
        <ele>54.93</ele>
        <time>2024-09-12T15:30:24Z</time>
      </trkpt>
      <trkpt lat="52.624593023210764" lon="11.156414039433002">
        <ele>51.57</ele>
        <time>2024-09-12T15:30:31Z</time>
      </trkpt>
      <trkpt lat="52.624710034579039" lon="11.15645301528275">
        <ele>51.090000000000003</ele>
        <time>2024-09-12T15:30:32Z</time>
      </trkpt>
      <trkpt lat="52.624818999320269" lon="11.156519986689091">
        <ele>50.609999999999999</ele>
        <time>2024-09-12T15:30:33Z</time>
      </trkpt>
      <trkpt lat="52.624928969889879" lon="11.15660397335887">
        <ele>50.609999999999999</ele>
        <time>2024-09-12T15:30:34Z</time>
      </trkpt>
      <trkpt lat="52.625032989308238" lon="11.156684020534158">
        <ele>50.130000000000003</ele>
        <time>2024-09-12T15:30:35Z</time>
      </trkpt>
      <trkpt lat="52.625513020902872" lon="11.15707796998322">
        <ele>48.200000000000003</ele>
        <time>2024-09-12T15:30:41Z</time>
      </trkpt>
      <trkpt lat="52.625798005610704" lon="11.157321967184544">
        <ele>45.799999999999997</ele>
        <time>2024-09-12T15:30:45Z</time>
      </trkpt>
      <trkpt lat="52.625858020037413" lon="11.157382987439632">
        <ele>45.799999999999997</ele>
        <time>2024-09-12T15:30:46Z</time>
      </trkpt>
      <trkpt lat="52.625929014757276" lon="11.157452976331115">
        <ele>45.32</ele>
        <time>2024-09-12T15:30:47Z</time>
      </trkpt>
      <trkpt lat="52.625989029183984" lon="11.157501004636288">
        <ele>44.359999999999999</ele>
        <time>2024-09-12T15:30:48Z</time>
      </trkpt>
      <trkpt lat="52.626049965620041" lon="11.157550038769841">
        <ele>43.880000000000003</ele>
        <time>2024-09-12T15:30:49Z</time>
      </trkpt>
      <trkpt lat="52.626490015536547" lon="11.15787198767066">
        <ele>40.509999999999998</ele>
        <time>2024-09-12T15:30:55Z</time>
      </trkpt>
      <trkpt lat="52.627191999927163" lon="11.158048007637262">
        <ele>39.549999999999997</ele>
        <time>2024-09-12T15:31:04Z</time>
      </trkpt>
      <trkpt lat="52.627245979383588" lon="11.158060999587178">
        <ele>39.549999999999997</ele>
        <time>2024-09-12T15:31:05Z</time>
      </trkpt>
      <trkpt lat="52.627301970496774" lon="11.158203994855285">
        <ele>39.07</ele>
        <time>2024-09-12T15:31:06Z</time>
      </trkpt>
      <trkpt lat="52.627301970496774" lon="11.158203994855285">
        <ele>39.07</ele>
        <time>2024-09-12T15:31:07Z</time>
      </trkpt>
      <trkpt lat="52.627301970496774" lon="11.158203994855285">
        <ele>39.07</ele>
        <time>2024-09-12T15:31:08Z</time>
      </trkpt>
      <trkpt lat="52.627324014902115" lon="11.158426031470299">
        <ele>39.07</ele>
        <time>2024-09-12T15:31:09Z</time>
      </trkpt>
      <trkpt lat="52.62729300186038" lon="11.158528961241245">
        <ele>38.590000000000003</ele>
        <time>2024-09-12T15:31:10Z</time>
      </trkpt>
      <trkpt lat="52.627255031839013" lon="11.158634992316365">
        <ele>38.590000000000003</ele>
        <time>2024-09-12T15:31:11Z</time>
      </trkpt>
      <trkpt lat="52.627090997993946" lon="11.159063978120685">
        <ele>39.07</ele>
        <time>2024-09-12T15:31:15Z</time>
      </trkpt>
      <trkpt lat="52.627049004659057" lon="11.159173026680946">
        <ele>39.07</ele>
        <time>2024-09-12T15:31:16Z</time>
      </trkpt>
      <trkpt lat="52.626754967495799" lon="11.160001996904612">
        <ele>40.030000000000001</ele>
        <time>2024-09-12T15:31:24Z</time>
      </trkpt>
      <trkpt lat="52.626653965562582" lon="11.160396030172706">
        <ele>40.509999999999998</ele>
        <time>2024-09-12T15:31:28Z</time>
      </trkpt>
      <trkpt lat="52.626613983884454" lon="11.160547994077206">
        <ele>40.509999999999998</ele>
        <time>2024-09-12T15:31:30Z</time>
      </trkpt>
      <trkpt lat="52.626431006938219" lon="11.161204967647791">
        <ele>42.920000000000002</ele>
        <time>2024-09-12T15:31:42Z</time>
      </trkpt>
      <trkpt lat="52.626400999724865" lon="11.161316027864814">
        <ele>43.880000000000003</ele>
        <time>2024-09-12T15:31:44Z</time>
      </trkpt>
      <trkpt lat="52.626399993896484" lon="11.161316027864814">
        <ele>44.359999999999999</ele>
        <time>2024-09-12T15:31:45Z</time>
      </trkpt>
      <trkpt lat="52.626292034983635" lon="11.161562958732247">
        <ele>46.280000000000001</ele>
        <time>2024-09-12T15:31:51Z</time>
      </trkpt>
      <trkpt lat="52.626250041648746" lon="11.161659015342593">
        <ele>46.280000000000001</ele>
        <time>2024-09-12T15:31:52Z</time>
      </trkpt>
      <trkpt lat="52.625777972862124" lon="11.162345996126533">
        <ele>50.130000000000003</ele>
        <time>2024-09-12T15:32:00Z</time>
      </trkpt>
      <trkpt lat="52.625740002840757" lon="11.162435011938214">
        <ele>50.609999999999999</ele>
        <time>2024-09-12T15:32:01Z</time>
      </trkpt>
      <trkpt lat="52.625687029212713" lon="11.162557974457741">
        <ele>51.090000000000003</ele>
        <time>2024-09-12T15:32:02Z</time>
      </trkpt>
      <trkpt lat="52.62548997066915" lon="11.163398008793592">
        <ele>53.490000000000002</ele>
        <time>2024-09-12T15:32:08Z</time>
      </trkpt>
      <trkpt lat="52.62527103535831" lon="11.164434012025595">
        <ele>55.409999999999997</ele>
        <time>2024-09-12T15:32:15Z</time>
      </trkpt>
      <trkpt lat="52.624863004311919" lon="11.166729982942343">
        <ele>55.890000000000001</ele>
        <time>2024-09-12T15:32:28Z</time>
      </trkpt>
      <trkpt lat="52.624831991270185" lon="11.166898962110281">
        <ele>55.890000000000001</ele>
        <time>2024-09-12T15:32:29Z</time>
      </trkpt>
      <trkpt lat="52.624786980450153" lon="11.167059978470206">
        <ele>55.890000000000001</ele>
        <time>2024-09-12T15:32:30Z</time>
      </trkpt>
      <trkpt lat="52.624721014872193" lon="11.167206997051835">
        <ele>55.890000000000001</ele>
        <time>2024-09-12T15:32:31Z</time>
      </trkpt>
      <trkpt lat="52.624640967696905" lon="11.167387962341309">
        <ele>55.890000000000001</ele>
        <time>2024-09-12T15:32:32Z</time>
      </trkpt>
      <trkpt lat="52.624571984633803" lon="11.16747697815299">
        <ele>55.890000000000001</ele>
        <time>2024-09-12T15:32:33Z</time>
      </trkpt>
      <trkpt lat="52.624484980478883" lon="11.167588960379362">
        <ele>55.890000000000001</ele>
        <time>2024-09-12T15:32:34Z</time>
      </trkpt>
      <trkpt lat="52.624401999637485" lon="11.167695997282863">
        <ele>55.409999999999997</ele>
        <time>2024-09-12T15:32:35Z</time>
      </trkpt>
      <trkpt lat="52.624307032674551" lon="11.167790964245796">
        <ele>55.409999999999997</ele>
        <time>2024-09-12T15:32:36Z</time>
      </trkpt>
      <trkpt lat="52.624203013256192" lon="11.167843015864491">
        <ele>55.409999999999997</ele>
        <time>2024-09-12T15:32:37Z</time>
      </trkpt>
      <trkpt lat="52.624089019373059" lon="11.167886015027761">
        <ele>55.409999999999997</ele>
        <time>2024-09-12T15:32:38Z</time>
      </trkpt>
      <trkpt lat="52.623454006388783" lon="11.168114002794027">
        <ele>57.82</ele>
        <time>2024-09-12T15:32:44Z</time>
      </trkpt>
      <trkpt lat="52.623359961435199" lon="11.168187009170651">
        <ele>58.299999999999997</ele>
        <time>2024-09-12T15:32:45Z</time>
      </trkpt>
      <trkpt lat="52.623282009735703" lon="11.168292034417391">
        <ele>58.780000000000001</ele>
        <time>2024-09-12T15:32:46Z</time>
      </trkpt>
      <trkpt lat="52.623219983652234" lon="11.168433018028736">
        <ele>59.259999999999998</ele>
        <time>2024-09-12T15:32:47Z</time>
      </trkpt>
      <trkpt lat="52.623157035559416" lon="11.168577019125223">
        <ele>59.740000000000002</ele>
        <time>2024-09-12T15:32:48Z</time>
      </trkpt>
      <trkpt lat="52.623091991990805" lon="11.168724037706852">
        <ele>60.219999999999999</ele>
        <time>2024-09-12T15:32:49Z</time>
      </trkpt>
      <trkpt lat="52.623026026412845" lon="11.168874995782971">
        <ele>60.700000000000003</ele>
        <time>2024-09-12T15:32:50Z</time>
      </trkpt>
      <trkpt lat="52.622982021421194" lon="11.169045986607671">
        <ele>60.700000000000003</ele>
        <time>2024-09-12T15:32:51Z</time>
      </trkpt>
      <trkpt lat="52.622944973409176" lon="11.169226029887795">
        <ele>61.18</ele>
        <time>2024-09-12T15:32:52Z</time>
      </trkpt>
      <trkpt lat="52.622827040031552" lon="11.170755978673697">
        <ele>64.069999999999993</ele>
        <time>2024-09-12T15:33:00Z</time>
      </trkpt>
      <trkpt lat="52.622577007859945" lon="11.172603014856577">
        <ele>68.390000000000001</ele>
        <time>2024-09-12T15:33:10Z</time>
      </trkpt>
      <trkpt lat="52.622208036482334" lon="11.174717014655471">
        <ele>72.719999999999999</ele>
        <time>2024-09-12T15:33:21Z</time>
      </trkpt>
      <trkpt lat="52.621940989047289" lon="11.176274958997965">
        <ele>75.599999999999994</ele>
        <time>2024-09-12T15:33:28Z</time>
      </trkpt>
      <trkpt lat="52.621417036280036" lon="11.178241018205881">
        <ele>77.040000000000006</ele>
        <time>2024-09-12T15:33:35Z</time>
      </trkpt>
      <trkpt lat="52.620436018332839" lon="11.181178037077188">
        <ele>75.120000000000005</ele>
        <time>2024-09-12T15:33:42Z</time>
      </trkpt>
      <trkpt lat="52.619268000125885" lon="11.184676978737116">
        <ele>76.560000000000002</ele>
        <time>2024-09-12T15:33:51Z</time>
      </trkpt>
      <trkpt lat="52.618177011609077" lon="11.187942987307906">
        <ele>79.450000000000003</ele>
        <time>2024-09-12T15:34:00Z</time>
      </trkpt>
      <trkpt lat="52.617177972570062" lon="11.190934991464019">
        <ele>81.370000000000005</ele>
        <time>2024-09-12T15:34:08Z</time>
      </trkpt>
      <trkpt lat="52.616171976551414" lon="11.193934036418796">
        <ele>84.25</ele>
        <time>2024-09-12T15:34:16Z</time>
      </trkpt>
      <trkpt lat="52.615228006616235" lon="11.19678296148777">
        <ele>89.540000000000006</ele>
        <time>2024-09-12T15:34:24Z</time>
      </trkpt>
      <trkpt lat="52.614092007279396" lon="11.20017796754837">
        <ele>96.269999999999996</ele>
        <time>2024-09-12T15:34:34Z</time>
      </trkpt>
      <trkpt lat="52.613408965989947" lon="11.202223990112543">
        <ele>102.04000000000001</ele>
        <time>2024-09-12T15:34:41Z</time>
      </trkpt>
      <trkpt lat="52.61244697496295" lon="11.205126978456974">
        <ele>108.77</ele>
        <time>2024-09-12T15:34:51Z</time>
      </trkpt>
      <trkpt lat="52.611472997814417" lon="11.208065003156662">
        <ele>112.61</ele>
        <time>2024-09-12T15:35:00Z</time>
      </trkpt>
      <trkpt lat="52.610563980415463" lon="11.210808986797929">
        <ele>116.45999999999999</ele>
        <time>2024-09-12T15:35:08Z</time>
      </trkpt>
      <trkpt lat="52.609332008287311" lon="11.214530970901251">
        <ele>115.5</ele>
        <time>2024-09-12T15:35:18Z</time>
      </trkpt>
      <trkpt lat="52.608292987570167" lon="11.217647027224302">
        <ele>114.05</ele>
        <time>2024-09-12T15:35:26Z</time>
      </trkpt>
      <trkpt lat="52.607318004593253" lon="11.220552027225494">
        <ele>111.17</ele>
        <time>2024-09-12T15:35:34Z</time>
      </trkpt>
      <trkpt lat="52.606491968035698" lon="11.222985964268446">
        <ele>107.81</ele>
        <time>2024-09-12T15:35:41Z</time>
      </trkpt>
      <trkpt lat="52.60555000975728" lon="11.225763978436589">
        <ele>103.95999999999999</ele>
        <time>2024-09-12T15:35:49Z</time>
      </trkpt>
      <trkpt lat="52.604727996513247" lon="11.228164974600077">
        <ele>99.150000000000006</ele>
        <time>2024-09-12T15:35:56Z</time>
      </trkpt>
      <trkpt lat="52.60368000715971" lon="11.231337022036314">
        <ele>93.390000000000001</ele>
        <time>2024-09-12T15:36:05Z</time>
      </trkpt>
      <trkpt lat="52.602651966735721" lon="11.234189970418811">
        <ele>88.579999999999998</ele>
        <time>2024-09-12T15:36:13Z</time>
      </trkpt>
      <trkpt lat="52.60148897767067" lon="11.237318012863398">
        <ele>80.890000000000001</ele>
        <time>2024-09-12T15:36:22Z</time>
      </trkpt>
      <trkpt lat="52.600810965523124" lon="11.239346014335752">
        <ele>75.599999999999994</ele>
        <time>2024-09-12T15:36:28Z</time>
      </trkpt>
      <trkpt lat="52.600764026865363" lon="11.239705011248589">
        <ele>75.599999999999994</ele>
        <time>2024-09-12T15:36:29Z</time>
      </trkpt>
      <trkpt lat="52.600726978853345" lon="11.240054033696651">
        <ele>75.120000000000005</ele>
        <time>2024-09-12T15:36:30Z</time>
      </trkpt>
      <trkpt lat="52.600665036588907" lon="11.243630005046725">
        <ele>70.790000000000006</ele>
        <time>2024-09-12T15:36:40Z</time>
      </trkpt>
      <trkpt lat="52.601076001301408" lon="11.247954983264208">
        <ele>69.829999999999998</ele>
        <time>2024-09-12T15:36:52Z</time>
      </trkpt>
      <trkpt lat="52.601067032665014" lon="11.248297970741987">
        <ele>69.349999999999994</ele>
        <time>2024-09-12T15:36:53Z</time>
      </trkpt>
      <trkpt lat="52.601052029058337" lon="11.248644981533289">
        <ele>69.829999999999998</ele>
        <time>2024-09-12T15:36:54Z</time>
      </trkpt>
      <trkpt lat="52.600965024903417" lon="11.249286029487848">
        <ele>70.310000000000002</ele>
        <time>2024-09-12T15:36:56Z</time>
      </trkpt>
      <trkpt lat="52.600896963849664" lon="11.249564979225397">
        <ele>70.310000000000002</ele>
        <time>2024-09-12T15:36:57Z</time>
      </trkpt>
      <trkpt lat="52.600834015756845" lon="11.249821968376637">
        <ele>70.790000000000006</ele>
        <time>2024-09-12T15:36:58Z</time>
      </trkpt>
      <trkpt lat="52.60035096667707" lon="11.251148991286755">
        <ele>71.760000000000005</ele>
        <time>2024-09-12T15:37:05Z</time>
      </trkpt>
      <trkpt lat="52.599828019738197" lon="11.252692015841603">
        <ele>73.200000000000003</ele>
        <time>2024-09-12T15:37:14Z</time>
      </trkpt>
      <trkpt lat="52.599043976515532" lon="11.255361987277865">
        <ele>75.120000000000005</ele>
        <time>2024-09-12T15:37:29Z</time>
      </trkpt>
      <trkpt lat="52.598093971610069" lon="11.258359020575881">
        <ele>77.519999999999996</ele>
        <time>2024-09-12T15:37:46Z</time>
      </trkpt>
      <trkpt lat="52.597951982170343" lon="11.258683986961842">
        <ele>78</ele>
        <time>2024-09-12T15:37:48Z</time>
      </trkpt>
      <trkpt lat="52.5978799816221" lon="11.258847014978528">
        <ele>78</ele>
        <time>2024-09-12T15:37:49Z</time>
      </trkpt>
      <trkpt lat="52.597795994952321" lon="11.25898196361959">
        <ele>78.480000000000004</ele>
        <time>2024-09-12T15:37:50Z</time>
      </trkpt>
      <trkpt lat="52.597648976370692" lon="11.259219003841281">
        <ele>78.480000000000004</ele>
        <time>2024-09-12T15:37:52Z</time>
      </trkpt>
      <trkpt lat="52.597603965550661" lon="11.259307013824582">
        <ele>78.480000000000004</ele>
        <time>2024-09-12T15:37:53Z</time>
      </trkpt>
      <trkpt lat="52.597603965550661" lon="11.259429976344109">
        <ele>78.480000000000004</ele>
        <time>2024-09-12T15:37:54Z</time>
      </trkpt>
      <trkpt lat="52.597613018006086" lon="11.259580012410879">
        <ele>78.480000000000004</ele>
        <time>2024-09-12T15:37:55Z</time>
      </trkpt>
      <trkpt lat="52.59764201939106" lon="11.259745974093676">
        <ele>78.969999999999999</ele>
        <time>2024-09-12T15:37:56Z</time>
      </trkpt>
      <trkpt lat="52.597908983007073" lon="11.261319005861878">
        <ele>82.329999999999998</ele>
        <time>2024-09-12T15:38:04Z</time>
      </trkpt>
      <trkpt lat="52.598294969648123" lon="11.263635009527206">
        <ele>86.180000000000007</ele>
        <time>2024-09-12T15:38:16Z</time>
      </trkpt>
      <trkpt lat="52.59860903955996" lon="11.265578018501401">
        <ele>87.620000000000005</ele>
        <time>2024-09-12T15:38:23Z</time>
      </trkpt>
      <trkpt lat="52.599152019247413" lon="11.268869005143642">
        <ele>90.019999999999996</ele>
        <time>2024-09-12T15:38:32Z</time>
      </trkpt>
      <trkpt lat="52.599945031106472" lon="11.273607965558767">
        <ele>90.980000000000004</ele>
        <time>2024-09-12T15:38:44Z</time>
      </trkpt>
      <trkpt lat="52.600827980786562" lon="11.278930976986885">
        <ele>95.310000000000002</ele>
        <time>2024-09-12T15:38:58Z</time>
      </trkpt>
      <trkpt lat="52.601658962666988" lon="11.28401099704206">
        <ele>96.269999999999996</ele>
        <time>2024-09-12T15:39:12Z</time>
      </trkpt>
      <trkpt lat="52.602204037830234" lon="11.286966959014535">
        <ele>94.349999999999994</ele>
        <time>2024-09-12T15:39:21Z</time>
      </trkpt>
      <trkpt lat="52.602291963994503" lon="11.287243980914354">
        <ele>93.870000000000005</ele>
        <time>2024-09-12T15:39:22Z</time>
      </trkpt>
      <trkpt lat="52.602406041696668" lon="11.2875110283494">
        <ele>93.390000000000001</ele>
        <time>2024-09-12T15:39:23Z</time>
      </trkpt>
      <trkpt lat="52.603542963042855" lon="11.289943959563971">
        <ele>86.659999999999997</ele>
        <time>2024-09-12T15:39:32Z</time>
      </trkpt>
      <trkpt lat="52.603670032694936" lon="11.290205977857113">
        <ele>86.180000000000007</ele>
        <time>2024-09-12T15:39:33Z</time>
      </trkpt>
      <trkpt lat="52.603794001042843" lon="11.290461039170623">
        <ele>85.209999999999994</ele>
        <time>2024-09-12T15:39:34Z</time>
      </trkpt>
      <trkpt lat="52.604460027068853" lon="11.292138006538153">
        <ele>80.409999999999997</ele>
        <time>2024-09-12T15:39:41Z</time>
      </trkpt>
      <trkpt lat="52.605071989819407" lon="11.293730987235904">
        <ele>74.640000000000001</ele>
        <time>2024-09-12T15:39:49Z</time>
      </trkpt>
      <trkpt lat="52.605350017547607" lon="11.294698007404804">
        <ele>69.829999999999998</ele>
        <time>2024-09-12T15:39:54Z</time>
      </trkpt>
      <trkpt lat="52.605779003351927" lon="11.296509001404047">
        <ele>62.140000000000001</ele>
        <time>2024-09-12T15:40:04Z</time>
      </trkpt>
      <trkpt lat="52.606242019683123" lon="11.298552006483078">
        <ele>57.340000000000003</ele>
        <time>2024-09-12T15:40:15Z</time>
      </trkpt>
      <trkpt lat="52.606639992445707" lon="11.300198966637254">
        <ele>54.93</ele>
        <time>2024-09-12T15:40:25Z</time>
      </trkpt>
      <trkpt lat="52.606887007132173" lon="11.301186019554734">
        <ele>53.969999999999999</ele>
        <time>2024-09-12T15:40:31Z</time>
      </trkpt>
      <trkpt lat="52.606913996860385" lon="11.301293978467584">
        <ele>53.969999999999999</ele>
        <time>2024-09-12T15:40:32Z</time>
      </trkpt>
      <trkpt lat="52.606931012123823" lon="11.301362961530685">
        <ele>53.490000000000002</ele>
        <time>2024-09-12T15:40:33Z</time>
      </trkpt>
      <trkpt lat="52.607022961601615" lon="11.301368996500969">
        <ele>53.490000000000002</ele>
        <time>2024-09-12T15:40:34Z</time>
      </trkpt>
      <trkpt lat="52.60705397464335" lon="11.301317028701305">
        <ele>53.490000000000002</ele>
        <time>2024-09-12T15:40:35Z</time>
      </trkpt>
      <trkpt lat="52.607098985463381" lon="11.301238993182778">
        <ele>53.490000000000002</ele>
        <time>2024-09-12T15:40:36Z</time>
      </trkpt>
      <trkpt lat="52.607134021818638" lon="11.301118964329362">
        <ele>53.009999999999998</ele>
        <time>2024-09-12T15:40:37Z</time>
      </trkpt>
      <trkpt lat="52.607166962698102" lon="11.300982004031539">
        <ele>53.009999999999998</ele>
        <time>2024-09-12T15:40:38Z</time>
      </trkpt>
      <trkpt lat="52.607201999053359" lon="11.300838002935052">
        <ele>53.009999999999998</ele>
        <time>2024-09-12T15:40:39Z</time>
      </trkpt>
      <trkpt lat="52.607436021789908" lon="11.29993200302124">
        <ele>52.530000000000001</ele>
        <time>2024-09-12T15:40:46Z</time>
      </trkpt>
      <trkpt lat="52.607463011518121" lon="11.299858996644616">
        <ele>52.530000000000001</ele>
        <time>2024-09-12T15:40:47Z</time>
      </trkpt>
      <trkpt lat="52.607496036216617" lon="11.299851033836603">
        <ele>52.530000000000001</ele>
        <time>2024-09-12T15:40:48Z</time>
      </trkpt>
      <trkpt lat="52.607534006237984" lon="11.299898978322744">
        <ele>52.530000000000001</ele>
        <time>2024-09-12T15:40:49Z</time>
      </trkpt>
      <trkpt lat="52.607585974037647" lon="11.299966033548117">
        <ele>52.530000000000001</ele>
        <time>2024-09-12T15:40:50Z</time>
      </trkpt>
      <trkpt lat="52.607651017606258" lon="11.300048008561134">
        <ele>52.530000000000001</ele>
        <time>2024-09-12T15:40:51Z</time>
      </trkpt>
      <trkpt lat="52.607727963477373" lon="11.30014599300921">
        <ele>52.530000000000001</ele>
        <time>2024-09-12T15:40:52Z</time>
      </trkpt>
      <trkpt lat="52.607817985117435" lon="11.300258981063962">
        <ele>52.530000000000001</ele>
        <time>2024-09-12T15:40:53Z</time>
      </trkpt>
      <trkpt lat="52.60832198895514" lon="11.300844037905335">
        <ele>51.57</ele>
        <time>2024-09-12T15:40:58Z</time>
      </trkpt>
      <trkpt lat="52.608432965353131" lon="11.300954008474946">
        <ele>51.090000000000003</ele>
        <time>2024-09-12T15:40:59Z</time>
      </trkpt>
      <trkpt lat="52.608547965064645" lon="11.301060039550066">
        <ele>51.090000000000003</ele>
        <time>2024-09-12T15:41:00Z</time>
      </trkpt>
      <trkpt lat="52.609280040487647" lon="11.301721036434174">
        <ele>48.200000000000003</ele>
        <time>2024-09-12T15:41:06Z</time>
      </trkpt>
      <trkpt lat="52.609404008835554" lon="11.301881968975067">
        <ele>47.719999999999999</ele>
        <time>2024-09-12T15:41:07Z</time>
      </trkpt>
      <trkpt lat="52.609510039910674" lon="11.302093025296926">
        <ele>47.719999999999999</ele>
        <time>2024-09-12T15:41:08Z</time>
      </trkpt>
      <trkpt lat="52.609616992995143" lon="11.302320007234812">
        <ele>47.719999999999999</ele>
        <time>2024-09-12T15:41:09Z</time>
      </trkpt>
      <trkpt lat="52.609710032120347" lon="11.302584959194064">
        <ele>47.719999999999999</ele>
        <time>2024-09-12T15:41:10Z</time>
      </trkpt>
      <trkpt lat="52.609807010740042" lon="11.302861981093884">
        <ele>48.200000000000003</ele>
        <time>2024-09-12T15:41:11Z</time>
      </trkpt>
      <trkpt lat="52.609898960217834" lon="11.303160963580012">
        <ele>48.200000000000003</ele>
        <time>2024-09-12T15:41:12Z</time>
      </trkpt>
      <trkpt lat="52.610432971268892" lon="11.305642006918788">
        <ele>48.68</ele>
        <time>2024-09-12T15:41:19Z</time>
      </trkpt>
      <trkpt lat="52.611389011144638" lon="11.310506025329232">
        <ele>47.719999999999999</ele>
        <time>2024-09-12T15:41:32Z</time>
      </trkpt>
      <trkpt lat="52.6120800152421" lon="11.314137987792492">
        <ele>46.759999999999998</ele>
        <time>2024-09-12T15:41:42Z</time>
      </trkpt>
      <trkpt lat="52.613131022080779" lon="11.317144995555282">
        <ele>46.280000000000001</ele>
        <time>2024-09-12T15:41:52Z</time>
      </trkpt>
      <trkpt lat="52.614137018099427" lon="11.31939897313714">
        <ele>43.880000000000003</ele>
        <time>2024-09-12T15:42:01Z</time>
      </trkpt>
      <trkpt lat="52.614468019455671" lon="11.320094000548124">
        <ele>43.880000000000003</ele>
        <time>2024-09-12T15:42:06Z</time>
      </trkpt>
      <trkpt lat="52.614468019455671" lon="11.320094000548124">
        <ele>43.880000000000003</ele>
        <time>2024-09-12T15:42:09Z</time>
      </trkpt>
      <trkpt lat="52.614499032497406" lon="11.320158960297704">
        <ele>43.880000000000003</ele>
        <time>2024-09-12T15:42:10Z</time>
      </trkpt>
      <trkpt lat="52.614555023610592" lon="11.32017002440989">
        <ele>43.880000000000003</ele>
        <time>2024-09-12T15:42:11Z</time>
      </trkpt>
      <trkpt lat="52.614626018330455" lon="11.320140017196536">
        <ele>43.880000000000003</ele>
        <time>2024-09-12T15:42:12Z</time>
      </trkpt>
      <trkpt lat="52.614716039970517" lon="11.320101041346788">
        <ele>43.880000000000003</ele>
        <time>2024-09-12T15:42:13Z</time>
      </trkpt>
      <trkpt lat="52.614818969741464" lon="11.320057036355138">
        <ele>43.880000000000003</ele>
        <time>2024-09-12T15:42:14Z</time>
      </trkpt>
      <trkpt lat="52.615865031257272" lon="11.319606006145477">
        <ele>45.32</ele>
        <time>2024-09-12T15:42:21Z</time>
      </trkpt>
      <trkpt lat="52.617722041904926" lon="11.318806037306786">
        <ele>47.719999999999999</ele>
        <time>2024-09-12T15:42:30Z</time>
      </trkpt>
      <trkpt lat="52.621044041588902" lon="11.317359991371632">
        <ele>52.049999999999997</ele>
        <time>2024-09-12T15:42:44Z</time>
      </trkpt>
      <trkpt lat="52.622524034231901" lon="11.316230027005076">
        <ele>51.57</ele>
        <time>2024-09-12T15:42:51Z</time>
      </trkpt>
      <trkpt lat="52.624514987692237" lon="11.31443495862186">
        <ele>53.009999999999998</ele>
        <time>2024-09-12T15:43:01Z</time>
      </trkpt>
      <trkpt lat="52.626699982210994" lon="11.312392959371209">
        <ele>60.700000000000003</ele>
        <time>2024-09-12T15:43:12Z</time>
      </trkpt>
      <trkpt lat="52.627689968794584" lon="11.310907015576959">
        <ele>65.989999999999995</ele>
        <time>2024-09-12T15:43:18Z</time>
      </trkpt>
      <trkpt lat="52.628408968448639" lon="11.309602959081531">
        <ele>69.349999999999994</ele>
        <time>2024-09-12T15:43:23Z</time>
      </trkpt>
      <trkpt lat="52.628767965361476" lon="11.309200963005424">
        <ele>70.790000000000006</ele>
        <time>2024-09-12T15:43:25Z</time>
      </trkpt>
      <trkpt lat="52.628970975056291" lon="11.309025026857853">
        <ele>70.790000000000006</ele>
        <time>2024-09-12T15:43:26Z</time>
      </trkpt>
      <trkpt lat="52.629180019721389" lon="11.308843977749348">
        <ele>71.760000000000005</ele>
        <time>2024-09-12T15:43:27Z</time>
      </trkpt>
      <trkpt lat="52.629389986395836" lon="11.308672986924648">
        <ele>72.239999999999995</ele>
        <time>2024-09-12T15:43:28Z</time>
      </trkpt>
      <trkpt lat="52.629623003304005" lon="11.308555975556374">
        <ele>72.719999999999999</ele>
        <time>2024-09-12T15:43:29Z</time>
      </trkpt>
      <trkpt lat="52.632163977250457" lon="11.307359039783478">
        <ele>78.480000000000004</ele>
        <time>2024-09-12T15:43:39Z</time>
      </trkpt>
      <trkpt lat="52.634604033082724" lon="11.306211976334453">
        <ele>82.329999999999998</ele>
        <time>2024-09-12T15:43:49Z</time>
      </trkpt>
      <trkpt lat="52.637060014531016" lon="11.305076982825994">
        <ele>80.409999999999997</ele>
        <time>2024-09-12T15:44:00Z</time>
      </trkpt>
      <trkpt lat="52.639083992689848" lon="11.304094959050417">
        <ele>78.969999999999999</ele>
        <time>2024-09-12T15:44:09Z</time>
      </trkpt>
      <trkpt lat="52.641212996095419" lon="11.303091980516911">
        <ele>74.640000000000001</ele>
        <time>2024-09-12T15:44:18Z</time>
      </trkpt>
      <trkpt lat="52.643608963117003" lon="11.301964027807117">
        <ele>73.200000000000003</ele>
        <time>2024-09-12T15:44:28Z</time>
      </trkpt>
      <trkpt lat="52.645247960463166" lon="11.300838002935052">
        <ele>68.870000000000005</ele>
        <time>2024-09-12T15:44:35Z</time>
      </trkpt>
      <trkpt lat="52.646955018863082" lon="11.298861969262362">
        <ele>59.259999999999998</ele>
        <time>2024-09-12T15:44:44Z</time>
      </trkpt>
      <trkpt lat="52.64817601069808" lon="11.297454982995987">
        <ele>52.049999999999997</ele>
        <time>2024-09-12T15:44:52Z</time>
      </trkpt>
      <trkpt lat="52.64828497543931" lon="11.297329002991319">
        <ele>51.57</ele>
        <time>2024-09-12T15:44:53Z</time>
      </trkpt>
      <trkpt lat="52.648368962109089" lon="11.297231018543243">
        <ele>50.609999999999999</ele>
        <time>2024-09-12T15:44:54Z</time>
      </trkpt>
      <trkpt lat="52.648431994020939" lon="11.297159017995">
        <ele>49.649999999999999</ele>
        <time>2024-09-12T15:44:55Z</time>
      </trkpt>
      <trkpt lat="52.648630980402231" lon="11.297337971627712">
        <ele>49.159999999999997</ele>
        <time>2024-09-12T15:44:56Z</time>
      </trkpt>
      <trkpt lat="52.648630980402231" lon="11.297430004924536">
        <ele>48.200000000000003</ele>
        <time>2024-09-12T15:44:57Z</time>
      </trkpt>
      <trkpt lat="52.648630980402231" lon="11.297565037384629">
        <ele>47.719999999999999</ele>
        <time>2024-09-12T15:44:58Z</time>
      </trkpt>
      <trkpt lat="52.648630980402231" lon="11.297739967703819">
        <ele>47.240000000000002</ele>
        <time>2024-09-12T15:44:59Z</time>
      </trkpt>
      <trkpt lat="52.648630980402231" lon="11.297943983227015">
        <ele>46.759999999999998</ele>
        <time>2024-09-12T15:45:00Z</time>
      </trkpt>
      <trkpt lat="52.648646989837289" lon="11.299946000799537">
        <ele>47.719999999999999</ele>
        <time>2024-09-12T15:45:07Z</time>
      </trkpt>
      <trkpt lat="52.648710021749139" lon="11.303689023479819">
        <ele>51.090000000000003</ele>
        <time>2024-09-12T15:45:17Z</time>
      </trkpt>
      <trkpt lat="52.64879803173244" lon="11.30876200273633">
        <ele>52.530000000000001</ele>
        <time>2024-09-12T15:45:30Z</time>
      </trkpt>
      <trkpt lat="52.648910013958812" lon="11.314531015232205">
        <ele>47.719999999999999</ele>
        <time>2024-09-12T15:45:44Z</time>
      </trkpt>
      <trkpt lat="52.648910013958812" lon="11.315733985975385">
        <ele>46.759999999999998</ele>
        <time>2024-09-12T15:45:47Z</time>
      </trkpt>
      <trkpt lat="52.648901967331767" lon="11.316146040335298">
        <ele>46.759999999999998</ele>
        <time>2024-09-12T15:45:48Z</time>
      </trkpt>
      <trkpt lat="52.648825021460652" lon="11.316520040854812">
        <ele>46.759999999999998</ele>
        <time>2024-09-12T15:45:49Z</time>
      </trkpt>
      <trkpt lat="52.648009965196252" lon="11.320225009694695">
        <ele>49.649999999999999</ele>
        <time>2024-09-12T15:45:58Z</time>
      </trkpt>
      <trkpt lat="52.646838007494807" lon="11.325377030298114">
        <ele>53.969999999999999</ele>
        <time>2024-09-12T15:46:10Z</time>
      </trkpt>
      <trkpt lat="52.646000990644097" lon="11.329059032723308">
        <ele>55.409999999999997</ele>
        <time>2024-09-12T15:46:19Z</time>
      </trkpt>
      <trkpt lat="52.645590025931597" lon="11.331175966188312">
        <ele>54.450000000000003</ele>
        <time>2024-09-12T15:46:25Z</time>
      </trkpt>
      <trkpt lat="52.645593965426087" lon="11.331503028050065">
        <ele>53.969999999999999</ele>
        <time>2024-09-12T15:46:26Z</time>
      </trkpt>
      <trkpt lat="52.645610980689526" lon="11.331831011921167">
        <ele>53.009999999999998</ele>
        <time>2024-09-12T15:46:27Z</time>
      </trkpt>
      <trkpt lat="52.645668983459473" lon="11.332148015499115">
        <ele>52.530000000000001</ele>
        <time>2024-09-12T15:46:28Z</time>
      </trkpt>
      <trkpt lat="52.645752970129251" lon="11.332468036562204">
        <ele>52.049999999999997</ele>
        <time>2024-09-12T15:46:29Z</time>
      </trkpt>
      <trkpt lat="52.645851038396358" lon="11.33278202265501">
        <ele>51.090000000000003</ele>
        <time>2024-09-12T15:46:30Z</time>
      </trkpt>
      <trkpt lat="52.646652013063431" lon="11.335517037659883">
        <ele>45.32</ele>
        <time>2024-09-12T15:46:39Z</time>
      </trkpt>
      <trkpt lat="52.647105976939201" lon="11.33774402551353">
        <ele>41.469999999999999</ele>
        <time>2024-09-12T15:46:47Z</time>
      </trkpt>
      <trkpt lat="52.647355003282428" lon="11.339256959035993">
        <ele>40.030000000000001</ele>
        <time>2024-09-12T15:46:54Z</time>
      </trkpt>
      <trkpt lat="52.64757301658392" lon="11.340182991698384">
        <ele>38.590000000000003</ele>
        <time>2024-09-12T15:46:59Z</time>
      </trkpt>
      <trkpt lat="52.647621966898441" lon="11.340362029150128">
        <ele>38.590000000000003</ele>
        <time>2024-09-12T15:47:00Z</time>
      </trkpt>
      <trkpt lat="52.648074002936482" lon="11.342181991785765">
        <ele>37.149999999999999</ele>
        <time>2024-09-12T15:47:10Z</time>
      </trkpt>
      <trkpt lat="52.64809001237154" lon="11.342377038672566">
        <ele>36.670000000000002</ele>
        <time>2024-09-12T15:47:11Z</time>
      </trkpt>
      <trkpt lat="52.648147009313107" lon="11.344935027882457">
        <ele>33.780000000000001</ele>
        <time>2024-09-12T15:47:24Z</time>
      </trkpt>
      <trkpt lat="52.648152960464358" lon="11.347067970782518">
        <ele>34.259999999999998</ele>
        <time>2024-09-12T15:47:34Z</time>
      </trkpt>
      <trkpt lat="52.648406010121107" lon="11.349569968879223">
        <ele>32.82</ele>
        <time>2024-09-12T15:47:42Z</time>
      </trkpt>
      <trkpt lat="52.649192987009883" lon="11.35269801132381">
        <ele>29.940000000000001</ele>
        <time>2024-09-12T15:47:51Z</time>
      </trkpt>
      <trkpt lat="52.650678008794785" lon="11.357258018106222">
        <ele>28.98</ele>
        <time>2024-09-12T15:48:04Z</time>
      </trkpt>
      <trkpt lat="52.652527978643775" lon="11.362322028726339">
        <ele>32.82</ele>
        <time>2024-09-12T15:48:19Z</time>
      </trkpt>
      <trkpt lat="52.65363103710115" lon="11.366740968078375">
        <ele>33.780000000000001</ele>
        <time>2024-09-12T15:48:31Z</time>
      </trkpt>
      <trkpt lat="52.654949007555842" lon="11.372051993384957">
        <ele>35.710000000000001</ele>
        <time>2024-09-12T15:48:45Z</time>
      </trkpt>
      <trkpt lat="52.655586032196879" lon="11.37459397315979">
        <ele>39.07</ele>
        <time>2024-09-12T15:48:54Z</time>
      </trkpt>
      <trkpt lat="52.656038990244269" lon="11.375992996618152">
        <ele>40.030000000000001</ele>
        <time>2024-09-12T15:49:02Z</time>
      </trkpt>
      <trkpt lat="52.656408967450261" lon="11.376935038715601">
        <ele>40.509999999999998</ele>
        <time>2024-09-12T15:49:08Z</time>
      </trkpt>
      <trkpt lat="52.656474011018872" lon="11.377091025933623">
        <ele>40.509999999999998</ele>
        <time>2024-09-12T15:49:09Z</time>
      </trkpt>
      <trkpt lat="52.656538970768452" lon="11.377249024808407">
        <ele>40.509999999999998</ele>
        <time>2024-09-12T15:49:10Z</time>
      </trkpt>
      <trkpt lat="52.656894028186798" lon="11.37828603386879">
        <ele>40.030000000000001</ele>
        <time>2024-09-12T15:49:16Z</time>
      </trkpt>
      <trkpt lat="52.656999975442886" lon="11.378646958619356">
        <ele>39.549999999999997</ele>
        <time>2024-09-12T15:49:18Z</time>
      </trkpt>
      <trkpt lat="52.657030988484621" lon="11.379234027117491">
        <ele>39.07</ele>
        <time>2024-09-12T15:49:21Z</time>
      </trkpt>
      <trkpt lat="52.657064013183117" lon="11.381608033552766">
        <ele>34.259999999999998</ele>
        <time>2024-09-12T15:49:33Z</time>
      </trkpt>
      <trkpt lat="52.657064013183117" lon="11.383125996217132">
        <ele>33.780000000000001</ele>
        <time>2024-09-12T15:49:41Z</time>
      </trkpt>
      <trkpt lat="52.657064013183117" lon="11.383278965950012">
        <ele>33.780000000000001</ele>
        <time>2024-09-12T15:49:42Z</time>
      </trkpt>
      <trkpt lat="52.657064013183117" lon="11.383554982021451">
        <ele>33.780000000000001</ele>
        <time>2024-09-12T15:49:44Z</time>
      </trkpt>
      <trkpt lat="52.657064013183117" lon="11.3836819678545">
        <ele>33.780000000000001</ele>
        <time>2024-09-12T15:49:45Z</time>
      </trkpt>
      <trkpt lat="52.657064013183117" lon="11.383777018636465">
        <ele>33.780000000000001</ele>
        <time>2024-09-12T15:49:46Z</time>
      </trkpt>
      <trkpt lat="52.657064013183117" lon="11.38391699641943">
        <ele>33.780000000000001</ele>
        <time>2024-09-12T15:49:47Z</time>
      </trkpt>
      <trkpt lat="52.656992012634873" lon="11.383927976712584">
        <ele>33.780000000000001</ele>
        <time>2024-09-12T15:49:48Z</time>
      </trkpt>
      <trkpt lat="52.656953036785126" lon="11.383933005854487">
        <ele>33.780000000000001</ele>
        <time>2024-09-12T15:49:49Z</time>
      </trkpt>
      <trkpt lat="52.65690098516643" lon="11.3839409686625">
        <ele>33.780000000000001</ele>
        <time>2024-09-12T15:49:50Z</time>
      </trkpt>
      <trkpt lat="52.656838959082961" lon="11.383950021117926">
        <ele>33.780000000000001</ele>
        <time>2024-09-12T15:49:51Z</time>
      </trkpt>
      <trkpt lat="52.656769976019859" lon="11.3839599955827">
        <ele>33.780000000000001</ele>
        <time>2024-09-12T15:49:52Z</time>
      </trkpt>
      <trkpt lat="52.656688001006842" lon="11.383971981704235">
        <ele>33.780000000000001</ele>
        <time>2024-09-12T15:49:53Z</time>
      </trkpt>
      <trkpt lat="52.656591022387147" lon="11.383985979482532">
        <ele>33.780000000000001</ele>
        <time>2024-09-12T15:49:54Z</time>
      </trkpt>
      <trkpt lat="52.656493959948421" lon="11.383999977260828">
        <ele>33.780000000000001</ele>
        <time>2024-09-12T15:49:55Z</time>
      </trkpt>
      <trkpt lat="52.656278964132071" lon="11.384030990302563">
        <ele>33.780000000000001</ele>
        <time>2024-09-12T15:49:57Z</time>
      </trkpt>
      <trkpt lat="52.655275985598564" lon="11.3841119594872">
        <ele>35.710000000000001</ele>
        <time>2024-09-12T15:50:06Z</time>
      </trkpt>
      <trkpt lat="52.655182024464011" lon="11.384129980579019">
        <ele>36.189999999999998</ele>
        <time>2024-09-12T15:50:07Z</time>
      </trkpt>
      <trkpt lat="52.655089991167188" lon="11.38415303081274">
        <ele>36.189999999999998</ele>
        <time>2024-09-12T15:50:08Z</time>
      </trkpt>
      <trkpt lat="52.655025031417608" lon="11.384237017482519">
        <ele>36.670000000000002</ele>
        <time>2024-09-12T15:50:09Z</time>
      </trkpt>
      <trkpt lat="52.654950013384223" lon="11.384335001930594">
        <ele>36.670000000000002</ele>
        <time>2024-09-12T15:50:10Z</time>
      </trkpt>
      <trkpt lat="52.654874995350838" lon="11.384431980550289">
        <ele>36.670000000000002</ele>
        <time>2024-09-12T15:50:11Z</time>
      </trkpt>
      <trkpt lat="52.65485898591578" lon="11.384575981646776">
        <ele>36.189999999999998</ele>
        <time>2024-09-12T15:50:12Z</time>
      </trkpt>
      <trkpt lat="52.654839036986232" lon="11.384753007441759">
        <ele>36.189999999999998</ele>
        <time>2024-09-12T15:50:13Z</time>
      </trkpt>
      <trkpt lat="52.654819004237652" lon="11.384933972731233">
        <ele>36.189999999999998</ele>
        <time>2024-09-12T15:50:14Z</time>
      </trkpt>
      <trkpt lat="52.654648013412952" lon="11.386482026427984">
        <ele>34.740000000000002</ele>
        <time>2024-09-12T15:50:24Z</time>
      </trkpt>
      <trkpt lat="52.654617000371218" lon="11.387965958565474">
        <ele>33.299999999999997</ele>
        <time>2024-09-12T15:50:35Z</time>
      </trkpt>
      <trkpt lat="52.654617000371218" lon="11.388978995382786">
        <ele>33.780000000000001</ele>
        <time>2024-09-12T15:50:42Z</time>
      </trkpt>
      <trkpt lat="52.654670979827642" lon="11.39008398167789">
        <ele>33.299999999999997</ele>
        <time>2024-09-12T15:50:50Z</time>
      </trkpt>
      <trkpt lat="52.654683971777558" lon="11.390223959460855">
        <ele>33.299999999999997</ele>
        <time>2024-09-12T15:50:51Z</time>
      </trkpt>
      <trkpt lat="52.654698975384235" lon="11.390366032719612">
        <ele>33.299999999999997</ele>
        <time>2024-09-12T15:50:52Z</time>
      </trkpt>
      <trkpt lat="52.654714984819293" lon="11.390521014109254">
        <ele>33.299999999999997</ele>
        <time>2024-09-12T15:50:53Z</time>
      </trkpt>
      <trkpt lat="52.654733005911112" lon="11.390696028247476">
        <ele>32.82</ele>
        <time>2024-09-12T15:50:54Z</time>
      </trkpt>
      <trkpt lat="52.654740968719125" lon="11.392088010907173">
        <ele>33.299999999999997</ele>
        <time>2024-09-12T15:51:01Z</time>
      </trkpt>
      <trkpt lat="52.654725965112448" lon="11.392286997288465">
        <ele>33.299999999999997</ele>
        <time>2024-09-12T15:51:02Z</time>
      </trkpt>
      <trkpt lat="52.654659999534488" lon="11.39326298609376">
        <ele>34.740000000000002</ele>
        <time>2024-09-12T15:51:07Z</time>
      </trkpt>
      <trkpt lat="52.654659999534488" lon="11.393458032980561">
        <ele>34.740000000000002</ele>
        <time>2024-09-12T15:51:08Z</time>
      </trkpt>
      <trkpt lat="52.654667962342501" lon="11.393656013533473">
        <ele>34.740000000000002</ele>
        <time>2024-09-12T15:51:09Z</time>
      </trkpt>
      <trkpt lat="52.654690006747842" lon="11.393852988258004">
        <ele>34.740000000000002</ele>
        <time>2024-09-12T15:51:10Z</time>
      </trkpt>
      <trkpt lat="52.654724037274718" lon="11.394044011831284">
        <ele>34.740000000000002</ele>
        <time>2024-09-12T15:51:11Z</time>
      </trkpt>
      <trkpt lat="52.654757983982563" lon="11.394232017919421">
        <ele>34.740000000000002</ele>
        <time>2024-09-12T15:51:12Z</time>
      </trkpt>
      <trkpt lat="52.655027965083718" lon="11.395760038867593">
        <ele>35.229999999999997</ele>
        <time>2024-09-12T15:51:20Z</time>
      </trkpt>
      <trkpt lat="52.655044980347157" lon="11.395955001935363">
        <ele>35.229999999999997</ele>
        <time>2024-09-12T15:51:21Z</time>
      </trkpt>
      <trkpt lat="52.655021008104086" lon="11.396152982488275">
        <ele>35.229999999999997</ele>
        <time>2024-09-12T15:51:22Z</time>
      </trkpt>
      <trkpt lat="52.654993012547493" lon="11.396344006061554">
        <ele>35.229999999999997</ele>
        <time>2024-09-12T15:51:23Z</time>
      </trkpt>
      <trkpt lat="52.654964011162519" lon="11.396542992442846">
        <ele>35.229999999999997</ele>
        <time>2024-09-12T15:51:24Z</time>
      </trkpt>
      <trkpt lat="52.654897961765528" lon="11.397125031799078">
        <ele>35.710000000000001</ele>
        <time>2024-09-12T15:51:27Z</time>
      </trkpt>
      <trkpt lat="52.654883963987231" lon="11.397317983210087">
        <ele>35.710000000000001</ele>
        <time>2024-09-12T15:51:28Z</time>
      </trkpt>
      <trkpt lat="52.654888993129134" lon="11.397509006783366">
        <ele>35.710000000000001</ele>
        <time>2024-09-12T15:51:29Z</time>
      </trkpt>
      <trkpt lat="52.654924029484391" lon="11.397692989557981">
        <ele>36.189999999999998</ele>
        <time>2024-09-12T15:51:30Z</time>
      </trkpt>
      <trkpt lat="52.654959987848997" lon="11.39788300730288">
        <ele>36.189999999999998</ele>
        <time>2024-09-12T15:51:31Z</time>
      </trkpt>
      <trkpt lat="52.655046992003918" lon="11.398470997810364">
        <ele>36.189999999999998</ele>
        <time>2024-09-12T15:51:34Z</time>
      </trkpt>
      <trkpt lat="52.655046992003918" lon="11.398657998070121">
        <ele>36.189999999999998</ele>
        <time>2024-09-12T15:51:35Z</time>
      </trkpt>
      <trkpt lat="52.654992006719112" lon="11.39882798306644">
        <ele>36.189999999999998</ele>
        <time>2024-09-12T15:51:36Z</time>
      </trkpt>
      <trkpt lat="52.654936015605927" lon="11.399001991376281">
        <ele>36.670000000000002</ele>
        <time>2024-09-12T15:51:37Z</time>
      </trkpt>
      <trkpt lat="52.65487901866436" lon="11.399179017171264">
        <ele>36.670000000000002</ele>
        <time>2024-09-12T15:51:38Z</time>
      </trkpt>
      <trkpt lat="52.654639966785908" lon="11.399918971583247">
        <ele>37.149999999999999</ele>
        <time>2024-09-12T15:51:42Z</time>
      </trkpt>
      <trkpt lat="52.654486997053027" lon="11.400304036214948">
        <ele>38.109999999999999</ele>
        <time>2024-09-12T15:51:44Z</time>
      </trkpt>
      <trkpt lat="52.654399992898107" lon="11.400511991232634">
        <ele>38.109999999999999</ele>
        <time>2024-09-12T15:51:45Z</time>
      </trkpt>
      <trkpt lat="52.654308965429664" lon="11.400732016190886">
        <ele>38.590000000000003</ele>
        <time>2024-09-12T15:51:46Z</time>
      </trkpt>
      <trkpt lat="52.65421399846673" lon="11.400961009785533">
        <ele>38.590000000000003</ele>
        <time>2024-09-12T15:51:47Z</time>
      </trkpt>
      <trkpt lat="52.65410696156323" lon="11.401197966188192">
        <ele>38.590000000000003</ele>
        <time>2024-09-12T15:51:48Z</time>
      </trkpt>
      <trkpt lat="52.653039023280144" lon="11.403173999860883">
        <ele>38.109999999999999</ele>
        <time>2024-09-12T15:51:56Z</time>
      </trkpt>
      <trkpt lat="52.652133023366332" lon="11.406167009845376">
        <ele>36.670000000000002</ele>
        <time>2024-09-12T15:52:05Z</time>
      </trkpt>
      <trkpt lat="52.651245966553688" lon="11.409024987369776">
        <ele>35.710000000000001</ele>
        <time>2024-09-12T15:52:14Z</time>
      </trkpt>
      <trkpt lat="52.650810023769736" lon="11.410918962210417">
        <ele>35.710000000000001</ele>
        <time>2024-09-12T15:52:20Z</time>
      </trkpt>
      <trkpt lat="52.650774987414479" lon="11.411292040720582">
        <ele>35.229999999999997</ele>
        <time>2024-09-12T15:52:21Z</time>
      </trkpt>
      <trkpt lat="52.65045496635139" lon="11.414303993806243">
        <ele>34.740000000000002</ele>
        <time>2024-09-12T15:52:29Z</time>
      </trkpt>
      <trkpt lat="52.649731021374464" lon="11.416685041040182">
        <ele>34.259999999999998</ele>
        <time>2024-09-12T15:52:36Z</time>
      </trkpt>
      <trkpt lat="52.649648962542415" lon="11.417001038789749">
        <ele>34.259999999999998</ele>
        <time>2024-09-12T15:52:37Z</time>
      </trkpt>
      <trkpt lat="52.649275967851281" lon="11.41930396668613">
        <ele>34.259999999999998</ele>
        <time>2024-09-12T15:52:44Z</time>
      </trkpt>
      <trkpt lat="52.64869200065732" lon="11.422926960512996">
        <ele>33.299999999999997</ele>
        <time>2024-09-12T15:52:55Z</time>
      </trkpt>
      <trkpt lat="52.647868981584907" lon="11.426541991531849">
        <ele>33.780000000000001</ele>
        <time>2024-09-12T15:53:05Z</time>
      </trkpt>
      <trkpt lat="52.646965999156237" lon="11.429964993149042">
        <ele>32.82</ele>
        <time>2024-09-12T15:53:14Z</time>
      </trkpt>
      <trkpt lat="52.645471002906561" lon="11.435596961528063">
        <ele>33.780000000000001</ele>
        <time>2024-09-12T15:53:29Z</time>
      </trkpt>
      <trkpt lat="52.644514963030815" lon="11.43919799476862">
        <ele>32.82</ele>
        <time>2024-09-12T15:53:39Z</time>
      </trkpt>
      <trkpt lat="52.644140040501952" lon="11.44066097214818">
        <ele>32.82</ele>
        <time>2024-09-12T15:53:45Z</time>
      </trkpt>
      <trkpt lat="52.643726980313659" lon="11.442169966176152">
        <ele>30.420000000000002</ele>
        <time>2024-09-12T15:53:54Z</time>
      </trkpt>
      <trkpt lat="52.643171008676291" lon="11.444148011505604">
        <ele>30.420000000000002</ele>
        <time>2024-09-12T15:54:05Z</time>
      </trkpt>
      <trkpt lat="52.642574971541762" lon="11.446279026567936">
        <ele>29.460000000000001</ele>
        <time>2024-09-12T15:54:17Z</time>
      </trkpt>
      <trkpt lat="52.642549993470311" lon="11.44641799852252">
        <ele>29.460000000000001</ele>
        <time>2024-09-12T15:54:18Z</time>
      </trkpt>
      <trkpt lat="52.642559967935085" lon="11.446556970477104">
        <ele>28.98</ele>
        <time>2024-09-12T15:54:19Z</time>
      </trkpt>
      <trkpt lat="52.642610007897019" lon="11.446689991280437">
        <ele>28.98</ele>
        <time>2024-09-12T15:54:20Z</time>
      </trkpt>
      <trkpt lat="52.642701035365462" lon="11.446781018748879">
        <ele>28.5</ele>
        <time>2024-09-12T15:54:21Z</time>
      </trkpt>
      <trkpt lat="52.64280597679317" lon="11.446881014853716">
        <ele>28.5</ele>
        <time>2024-09-12T15:54:22Z</time>
      </trkpt>
      <trkpt lat="52.642918964847922" lon="11.446984028443694">
        <ele>28.5</ele>
        <time>2024-09-12T15:54:23Z</time>
      </trkpt>
      <trkpt lat="52.643036982044578" lon="11.447090981528163">
        <ele>28.5</ele>
        <time>2024-09-12T15:54:24Z</time>
      </trkpt>
      <trkpt lat="52.64407399110496" lon="11.448023971170187">
        <ele>28.5</ele>
        <time>2024-09-12T15:54:33Z</time>
      </trkpt>
      <trkpt lat="52.644876977428794" lon="11.448771972209215">
        <ele>27.530000000000001</ele>
        <time>2024-09-12T15:54:40Z</time>
      </trkpt>
      <trkpt lat="52.645645011216402" lon="11.450078040361404">
        <ele>25.129999999999999</ele>
        <time>2024-09-12T15:54:47Z</time>
      </trkpt>
      <trkpt lat="52.646561991423368" lon="11.451956005766988">
        <ele>25.129999999999999</ele>
        <time>2024-09-12T15:54:55Z</time>
      </trkpt>
      <trkpt lat="52.646653018891811" lon="11.452243002131581">
        <ele>25.609999999999999</ele>
        <time>2024-09-12T15:54:56Z</time>
      </trkpt>
      <trkpt lat="52.646733988076448" lon="11.452543996274471">
        <ele>25.609999999999999</ele>
        <time>2024-09-12T15:54:57Z</time>
      </trkpt>
      <trkpt lat="52.646797019988298" lon="11.452865023165941">
        <ele>25.609999999999999</ele>
        <time>2024-09-12T15:54:58Z</time>
      </trkpt>
      <trkpt lat="52.646857034415007" lon="11.453190995380282">
        <ele>25.609999999999999</ele>
        <time>2024-09-12T15:54:59Z</time>
      </trkpt>
      <trkpt lat="52.646903973072767" lon="11.453521996736526">
        <ele>26.09</ele>
        <time>2024-09-12T15:55:00Z</time>
      </trkpt>
      <trkpt lat="52.647005980834365" lon="11.454142006114125">
        <ele>25.609999999999999</ele>
        <time>2024-09-12T15:55:02Z</time>
      </trkpt>
      <trkpt lat="52.647085022181273" lon="11.45443101413548">
        <ele>25.129999999999999</ele>
        <time>2024-09-12T15:55:03Z</time>
      </trkpt>
      <trkpt lat="52.647184012457728" lon="11.454695966094732">
        <ele>25.129999999999999</ele>
        <time>2024-09-12T15:55:04Z</time>
      </trkpt>
      <trkpt lat="52.647292977198958" lon="11.454957984387875">
        <ele>25.129999999999999</ele>
        <time>2024-09-12T15:55:05Z</time>
      </trkpt>
      <trkpt lat="52.64742499217391" lon="11.455198964104056">
        <ele>25.129999999999999</ele>
        <time>2024-09-12T15:55:06Z</time>
      </trkpt>
      <trkpt lat="52.649358026683331" lon="11.45847100764513">
        <ele>28.02</ele>
        <time>2024-09-12T15:55:19Z</time>
      </trkpt>
      <trkpt lat="52.651161979883909" lon="11.461546998471022">
        <ele>30.420000000000002</ele>
        <time>2024-09-12T15:55:30Z</time>
      </trkpt>
      <trkpt lat="52.652329998090863" lon="11.463571982458234">
        <ele>30.420000000000002</ele>
        <time>2024-09-12T15:55:38Z</time>
      </trkpt>
      <trkpt lat="52.652884041890502" lon="11.464475970715284">
        <ele>31.859999999999999</ele>
        <time>2024-09-12T15:55:44Z</time>
      </trkpt>
      <trkpt lat="52.653500027954578" lon="11.46545497700572">
        <ele>35.229999999999997</ele>
        <time>2024-09-12T15:55:51Z</time>
      </trkpt>
      <trkpt lat="52.653603963553905" lon="11.465558996424079">
        <ele>35.710000000000001</ele>
        <time>2024-09-12T15:55:52Z</time>
      </trkpt>
      <trkpt lat="52.653707982972264" lon="11.465662010014057">
        <ele>35.710000000000001</ele>
        <time>2024-09-12T15:55:53Z</time>
      </trkpt>
      <trkpt lat="52.653824994340539" lon="11.465695034712553">
        <ele>35.710000000000001</ele>
        <time>2024-09-12T15:55:54Z</time>
      </trkpt>
      <trkpt lat="52.653944017365575" lon="11.465720012784004">
        <ele>35.710000000000001</ele>
        <time>2024-09-12T15:55:55Z</time>
      </trkpt>
      <trkpt lat="52.65406396239996" lon="11.465747002512217">
        <ele>35.710000000000001</ele>
        <time>2024-09-12T15:55:56Z</time>
      </trkpt>
      <trkpt lat="52.654537037014961" lon="11.465845992788672">
        <ele>35.710000000000001</ele>
        <time>2024-09-12T15:56:00Z</time>
      </trkpt>
      <trkpt lat="52.654652036726475" lon="11.465902989730239">
        <ele>35.229999999999997</ele>
        <time>2024-09-12T15:56:01Z</time>
      </trkpt>
      <trkpt lat="52.654768964275718" lon="11.465979013592005">
        <ele>35.229999999999997</ele>
        <time>2024-09-12T15:56:02Z</time>
      </trkpt>
      <trkpt lat="52.654866026714444" lon="11.466102981939912">
        <ele>35.229999999999997</ele>
        <time>2024-09-12T15:56:03Z</time>
      </trkpt>
      <trkpt lat="52.654963005334139" lon="11.46622602827847">
        <ele>35.229999999999997</ele>
        <time>2024-09-12T15:56:04Z</time>
      </trkpt>
      <trkpt lat="52.655042968690395" lon="11.466382015496492">
        <ele>35.229999999999997</ele>
        <time>2024-09-12T15:56:05Z</time>
      </trkpt>
      <trkpt lat="52.655114969238639" lon="11.466544037684798">
        <ele>35.229999999999997</ele>
        <time>2024-09-12T15:56:06Z</time>
      </trkpt>
      <trkpt lat="52.655168026685715" lon="11.466722991317511">
        <ele>35.710000000000001</ele>
        <time>2024-09-12T15:56:07Z</time>
      </trkpt>
      <trkpt lat="52.655217982828617" lon="11.46689398214221">
        <ele>35.710000000000001</ele>
        <time>2024-09-12T15:56:08Z</time>
      </trkpt>
      <trkpt lat="52.655684016644955" lon="11.469047963619232">
        <ele>37.149999999999999</ele>
        <time>2024-09-12T15:56:18Z</time>
      </trkpt>
      <trkpt lat="52.656294973567128" lon="11.471808040514588">
        <ele>35.710000000000001</ele>
        <time>2024-09-12T15:56:27Z</time>
      </trkpt>
      <trkpt lat="52.657233998179436" lon="11.47611198015511">
        <ele>36.670000000000002</ele>
        <time>2024-09-12T15:56:39Z</time>
      </trkpt>
      <trkpt lat="52.657815031707287" lon="11.478831991553307">
        <ele>40.030000000000001</ele>
        <time>2024-09-12T15:56:47Z</time>
      </trkpt>
      <trkpt lat="52.658548029139638" lon="11.482261028140783">
        <ele>46.280000000000001</ele>
        <time>2024-09-12T15:56:58Z</time>
      </trkpt>
      <trkpt lat="52.659129984676838" lon="11.484891017898917">
        <ele>52.049999999999997</ele>
        <time>2024-09-12T15:57:06Z</time>
      </trkpt>
      <trkpt lat="52.659697020426393" lon="11.487329984083772">
        <ele>53.490000000000002</ele>
        <time>2024-09-12T15:57:13Z</time>
      </trkpt>
      <trkpt lat="52.660802006721497" lon="11.490388037636876">
        <ele>50.130000000000003</ele>
        <time>2024-09-12T15:57:22Z</time>
      </trkpt>
      <trkpt lat="52.662350982427597" lon="11.494590975344181">
        <ele>48.200000000000003</ele>
        <time>2024-09-12T15:57:34Z</time>
      </trkpt>
      <trkpt lat="52.663543978706002" lon="11.497599994763732">
        <ele>48.68</ele>
        <time>2024-09-12T15:57:43Z</time>
      </trkpt>
      <trkpt lat="52.663704995065928" lon="11.497848015278578">
        <ele>48.68</ele>
        <time>2024-09-12T15:57:44Z</time>
      </trkpt>
      <trkpt lat="52.664700010791421" lon="11.499144025146961">
        <ele>46.280000000000001</ele>
        <time>2024-09-12T15:57:50Z</time>
      </trkpt>
      <trkpt lat="52.665314991027117" lon="11.500063017010689">
        <ele>44.359999999999999</ele>
        <time>2024-09-12T15:57:56Z</time>
      </trkpt>
      <trkpt lat="52.665377017110586" lon="11.500227972865105">
        <ele>43.880000000000003</ele>
        <time>2024-09-12T15:57:57Z</time>
      </trkpt>
      <trkpt lat="52.66540601849556" lon="11.500400975346565">
        <ele>42.920000000000002</ele>
        <time>2024-09-12T15:57:58Z</time>
      </trkpt>
      <trkpt lat="52.665427979081869" lon="11.500586969777942">
        <ele>42.439999999999998</ele>
        <time>2024-09-12T15:57:59Z</time>
      </trkpt>
      <trkpt lat="52.665451029315591" lon="11.500781010836363">
        <ele>41.950000000000003</ele>
        <time>2024-09-12T15:58:00Z</time>
      </trkpt>
      <trkpt lat="52.6654729899019" lon="11.500972034409642">
        <ele>40.990000000000002</ele>
        <time>2024-09-12T15:58:01Z</time>
      </trkpt>
      <trkpt lat="52.665530992671847" lon="11.501456005498767">
        <ele>39.549999999999997</ele>
        <time>2024-09-12T15:58:04Z</time>
      </trkpt>
      <trkpt lat="52.666042037308216" lon="11.503082010895014">
        <ele>35.710000000000001</ele>
        <time>2024-09-12T15:58:15Z</time>
      </trkpt>
      <trkpt lat="52.666258038952947" lon="11.503559025004506">
        <ele>36.189999999999998</ele>
        <time>2024-09-12T15:58:18Z</time>
      </trkpt>
      <trkpt lat="52.666306989267468" lon="11.50373999029398">
        <ele>36.189999999999998</ele>
        <time>2024-09-12T15:58:19Z</time>
      </trkpt>
      <trkpt lat="52.666335990652442" lon="11.50393302552402">
        <ele>36.189999999999998</ele>
        <time>2024-09-12T15:58:20Z</time>
      </trkpt>
      <trkpt lat="52.666692975908518" lon="11.506830984726548">
        <ele>39.549999999999997</ele>
        <time>2024-09-12T15:58:35Z</time>
      </trkpt>
      <trkpt lat="52.666925992816687" lon="11.508998963981867">
        <ele>39.07</ele>
        <time>2024-09-12T15:58:46Z</time>
      </trkpt>
      <trkpt lat="52.666940996423364" lon="11.510923029854894">
        <ele>39.07</ele>
        <time>2024-09-12T15:58:53Z</time>
      </trkpt>
      <trkpt lat="52.666655005887151" lon="11.51441995985806">
        <ele>39.549999999999997</ele>
        <time>2024-09-12T15:59:03Z</time>
      </trkpt>
      <trkpt lat="52.666155025362968" lon="11.520557021722198">
        <ele>41.950000000000003</ele>
        <time>2024-09-12T15:59:18Z</time>
      </trkpt>
      <trkpt lat="52.665989985689521" lon="11.522498019039631">
        <ele>42.920000000000002</ele>
        <time>2024-09-12T15:59:24Z</time>
      </trkpt>
      <trkpt lat="52.66577297821641" lon="11.524337008595467">
        <ele>44.840000000000003</ele>
        <time>2024-09-12T15:59:32Z</time>
      </trkpt>
      <trkpt lat="52.66534298658371" lon="11.527260029688478">
        <ele>45.799999999999997</ele>
        <time>2024-09-12T15:59:45Z</time>
      </trkpt>
      <trkpt lat="52.66489002853632" lon="11.529989009723067">
        <ele>46.280000000000001</ele>
        <time>2024-09-12T15:59:56Z</time>
      </trkpt>
      <trkpt lat="52.664450984448195" lon="11.532579017803073">
        <ele>48.200000000000003</ele>
        <time>2024-09-12T16:00:04Z</time>
      </trkpt>
      <trkpt lat="52.664163988083601" lon="11.534250034019351">
        <ele>48.200000000000003</ele>
        <time>2024-09-12T16:00:11Z</time>
      </trkpt>
      <trkpt lat="52.663715975359082" lon="11.536761000752449">
        <ele>48.200000000000003</ele>
        <time>2024-09-12T16:00:22Z</time>
      </trkpt>
      <trkpt lat="52.663273997604847" lon="11.539300968870521">
        <ele>43.880000000000003</ele>
        <time>2024-09-12T16:00:33Z</time>
      </trkpt>
      <trkpt lat="52.662790026515722" lon="11.54202600941062">
        <ele>42.439999999999998</ele>
        <time>2024-09-12T16:00:46Z</time>
      </trkpt>
      <trkpt lat="52.662762030959129" lon="11.542173027992249">
        <ele>42.439999999999998</ele>
        <time>2024-09-12T16:00:47Z</time>
      </trkpt>
      <trkpt lat="52.662731017917395" lon="11.542342007160187">
        <ele>42.920000000000002</ele>
        <time>2024-09-12T16:00:48Z</time>
      </trkpt>
      <trkpt lat="52.662344025447965" lon="11.544439997524023">
        <ele>43.399999999999999</ele>
        <time>2024-09-12T16:00:59Z</time>
      </trkpt>
      <trkpt lat="52.661974970251322" lon="11.546544022858143">
        <ele>42.439999999999998</ele>
        <time>2024-09-12T16:01:10Z</time>
      </trkpt>
      <trkpt lat="52.661611028015614" lon="11.548636984080076">
        <ele>41.469999999999999</ele>
        <time>2024-09-12T16:01:21Z</time>
      </trkpt>
      <trkpt lat="52.661477001383901" lon="11.549408035352826">
        <ele>41.469999999999999</ele>
        <time>2024-09-12T16:01:25Z</time>
      </trkpt>
      <trkpt lat="52.661301987245679" lon="11.550345970317721">
        <ele>43.880000000000003</ele>
        <time>2024-09-12T16:01:30Z</time>
      </trkpt>
      <trkpt lat="52.661272985860705" lon="11.550498018041253">
        <ele>43.880000000000003</ele>
        <time>2024-09-12T16:01:31Z</time>
      </trkpt>
      <trkpt lat="52.661248007789254" lon="11.55064201913774">
        <ele>43.880000000000003</ele>
        <time>2024-09-12T16:01:32Z</time>
      </trkpt>
      <trkpt lat="52.661248007789254" lon="11.550776967778802">
        <ele>43.880000000000003</ele>
        <time>2024-09-12T16:01:33Z</time>
      </trkpt>
      <trkpt lat="52.661248007789254" lon="11.550904037430882">
        <ele>43.880000000000003</ele>
        <time>2024-09-12T16:01:34Z</time>
      </trkpt>
      <trkpt lat="52.661249013617635" lon="11.551021970808506">
        <ele>43.880000000000003</ele>
        <time>2024-09-12T16:01:35Z</time>
      </trkpt>
      <trkpt lat="52.661253958940506" lon="11.551144011318684">
        <ele>43.880000000000003</ele>
        <time>2024-09-12T16:01:36Z</time>
      </trkpt>
      <trkpt lat="52.661264017224312" lon="11.55139496549964">
        <ele>43.880000000000003</ele>
        <time>2024-09-12T16:01:38Z</time>
      </trkpt>
      <trkpt lat="52.661268962547183" lon="11.551528992131352">
        <ele>43.880000000000003</ele>
        <time>2024-09-12T16:01:39Z</time>
      </trkpt>
      <trkpt lat="52.661268962547183" lon="11.551660001277924">
        <ele>44.359999999999999</ele>
        <time>2024-09-12T16:01:40Z</time>
      </trkpt>
      <trkpt lat="52.661268962547183" lon="11.551797967404127">
        <ele>44.359999999999999</ele>
        <time>2024-09-12T16:01:41Z</time>
      </trkpt>
      <trkpt lat="52.661271980032325" lon="11.551944985985756">
        <ele>44.359999999999999</ele>
        <time>2024-09-12T16:01:42Z</time>
      </trkpt>
      <trkpt lat="52.661298969760537" lon="11.552373971790075">
        <ele>44.840000000000003</ele>
        <time>2024-09-12T16:01:45Z</time>
      </trkpt>
      <trkpt lat="52.661327971145511" lon="11.552958022803068">
        <ele>44.359999999999999</ele>
        <time>2024-09-12T16:01:49Z</time>
      </trkpt>
      <trkpt lat="52.661335011944175" lon="11.553099006414413">
        <ele>43.880000000000003</ele>
        <time>2024-09-12T16:01:50Z</time>
      </trkpt>
      <trkpt lat="52.661341968923807" lon="11.553232027217746">
        <ele>43.880000000000003</ele>
        <time>2024-09-12T16:01:51Z</time>
      </trkpt>
      <trkpt lat="52.661349009722471" lon="11.553367981687188">
        <ele>43.399999999999999</ele>
        <time>2024-09-12T16:01:52Z</time>
      </trkpt>
      <trkpt lat="52.661355966702104" lon="11.553503014147282">
        <ele>42.920000000000002</ele>
        <time>2024-09-12T16:01:53Z</time>
      </trkpt>
      <trkpt lat="52.661387985572219" lon="11.553899981081486">
        <ele>42.439999999999998</ele>
        <time>2024-09-12T16:01:56Z</time>
      </trkpt>
      <trkpt lat="52.661411035805941" lon="11.554173985496163">
        <ele>41.950000000000003</ele>
        <time>2024-09-12T16:01:58Z</time>
      </trkpt>
      <trkpt lat="52.661421010270715" lon="11.554306000471115">
        <ele>41.469999999999999</ele>
        <time>2024-09-12T16:01:59Z</time>
      </trkpt>
      <trkpt lat="52.66143299639225" lon="11.554441032931209">
        <ele>41.469999999999999</ele>
        <time>2024-09-12T16:02:00Z</time>
      </trkpt>
      <trkpt lat="52.661443976685405" lon="11.554576987400651">
        <ele>41.469999999999999</ele>
        <time>2024-09-12T16:02:01Z</time>
      </trkpt>
      <trkpt lat="52.661454034969211" lon="11.554707996547222">
        <ele>41.950000000000003</ele>
        <time>2024-09-12T16:02:02Z</time>
      </trkpt>
      <trkpt lat="52.661465015262365" lon="11.554987030103803">
        <ele>42.439999999999998</ele>
        <time>2024-09-12T16:02:04Z</time>
      </trkpt>
      <trkpt lat="52.661479013040662" lon="11.555130025371909">
        <ele>41.950000000000003</ele>
        <time>2024-09-12T16:02:05Z</time>
      </trkpt>
      <trkpt lat="52.661493010818958" lon="11.555270003154874">
        <ele>41.950000000000003</ele>
        <time>2024-09-12T16:02:06Z</time>
      </trkpt>
      <trkpt lat="52.661506002768874" lon="11.555415010079741">
        <ele>41.469999999999999</ele>
        <time>2024-09-12T16:02:07Z</time>
      </trkpt>
      <trkpt lat="52.661520000547171" lon="11.555560017004609">
        <ele>41.469999999999999</ele>
        <time>2024-09-12T16:02:08Z</time>
      </trkpt>
      <trkpt lat="52.661533998325467" lon="11.555698988959193">
        <ele>40.990000000000002</ele>
        <time>2024-09-12T16:02:09Z</time>
      </trkpt>
      <trkpt lat="52.661603987216949" lon="11.557136988267303">
        <ele>37.630000000000003</ele>
        <time>2024-09-12T16:02:19Z</time>
      </trkpt>
      <trkpt lat="52.661575991660357" lon="11.557248970493674">
        <ele>37.149999999999999</ele>
        <time>2024-09-12T16:02:20Z</time>
      </trkpt>
      <trkpt lat="52.661536009982228" lon="11.557381991297007">
        <ele>36.670000000000002</ele>
        <time>2024-09-12T16:02:21Z</time>
      </trkpt>
      <trkpt lat="52.661480018869042" lon="11.557482993230224">
        <ele>36.189999999999998</ele>
        <time>2024-09-12T16:02:22Z</time>
      </trkpt>
      <trkpt lat="52.661427967250347" lon="11.557594975456595">
        <ele>35.710000000000001</ele>
        <time>2024-09-12T16:02:23Z</time>
      </trkpt>
      <trkpt lat="52.661010967567563" lon="11.558905988931656">
        <ele>37.149999999999999</ele>
        <time>2024-09-12T16:02:31Z</time>
      </trkpt>
      <trkpt lat="52.660436974838376" lon="11.560631990432739">
        <ele>38.109999999999999</ele>
        <time>2024-09-12T16:02:41Z</time>
      </trkpt>
      <trkpt lat="52.659997008740902" lon="11.561851976439357">
        <ele>40.509999999999998</ele>
        <time>2024-09-12T16:02:48Z</time>
      </trkpt>
      <trkpt lat="52.659968007355928" lon="11.562041994184256">
        <ele>40.990000000000002</ele>
        <time>2024-09-12T16:02:49Z</time>
      </trkpt>
      <trkpt lat="52.65964899212122" lon="11.564360009506345">
        <ele>44.359999999999999</ele>
        <time>2024-09-12T16:03:01Z</time>
      </trkpt>
      <trkpt lat="52.65928496606648" lon="11.566236969083548">
        <ele>47.240000000000002</ele>
        <time>2024-09-12T16:03:11Z</time>
      </trkpt>
      <trkpt lat="52.658714996650815" lon="11.56750800088048">
        <ele>49.649999999999999</ele>
        <time>2024-09-12T16:03:19Z</time>
      </trkpt>
      <trkpt lat="52.657899018377066" lon="11.569195026531816">
        <ele>51.090000000000003</ele>
        <time>2024-09-12T16:03:28Z</time>
      </trkpt>
      <trkpt lat="52.656593034043908" lon="11.571841025725007">
        <ele>53.969999999999999</ele>
        <time>2024-09-12T16:03:39Z</time>
      </trkpt>
      <trkpt lat="52.655398026108742" lon="11.574262976646423">
        <ele>56.859999999999999</ele>
        <time>2024-09-12T16:03:48Z</time>
      </trkpt>
      <trkpt lat="52.653751987963915" lon="11.577596962451935">
        <ele>61.18</ele>
        <time>2024-09-12T16:03:59Z</time>
      </trkpt>
      <trkpt lat="52.651080004870892" lon="11.583095993846655">
        <ele>63.579999999999998</ele>
        <time>2024-09-12T16:04:15Z</time>
      </trkpt>
      <trkpt lat="52.649277979508042" lon="11.587272025644779">
        <ele>61.18</ele>
        <time>2024-09-12T16:04:26Z</time>
      </trkpt>
      <trkpt lat="52.647863030433655" lon="11.591128958389163">
        <ele>62.140000000000001</ele>
        <time>2024-09-12T16:04:36Z</time>
      </trkpt>
      <trkpt lat="52.64654497615993" lon="11.594785982742906">
        <ele>64.549999999999997</ele>
        <time>2024-09-12T16:04:46Z</time>
      </trkpt>
      <trkpt lat="52.645401014015079" lon="11.597961969673634">
        <ele>63.100000000000001</ele>
        <time>2024-09-12T16:04:55Z</time>
      </trkpt>
      <trkpt lat="52.644356964156032" lon="11.600860012695193">
        <ele>62.619999999999997</ele>
        <time>2024-09-12T16:05:04Z</time>
      </trkpt>
      <trkpt lat="52.643952034413815" lon="11.601986037567258">
        <ele>62.619999999999997</ele>
        <time>2024-09-12T16:05:10Z</time>
      </trkpt>
      <trkpt lat="52.643406959250569" lon="11.603485979139805">
        <ele>62.619999999999997</ele>
        <time>2024-09-12T16:05:21Z</time>
      </trkpt>
      <trkpt lat="52.642702963203192" lon="11.605341983959079">
        <ele>61.18</ele>
        <time>2024-09-12T16:05:32Z</time>
      </trkpt>
      <trkpt lat="52.642094017937779" lon="11.606958014890552">
        <ele>58.299999999999997</ele>
        <time>2024-09-12T16:05:38Z</time>
      </trkpt>
      <trkpt lat="52.640891969203949" lon="11.610453017055988">
        <ele>55.890000000000001</ele>
        <time>2024-09-12T16:05:49Z</time>
      </trkpt>
      <trkpt lat="52.640833966434002" lon="11.610787035897374">
        <ele>55.890000000000001</ele>
        <time>2024-09-12T16:05:50Z</time>
      </trkpt>
      <trkpt lat="52.640803959220648" lon="11.611136980354786">
        <ele>55.409999999999997</ele>
        <time>2024-09-12T16:05:51Z</time>
      </trkpt>
      <trkpt lat="52.640776969492435" lon="11.611486002802849">
        <ele>55.409999999999997</ele>
        <time>2024-09-12T16:05:52Z</time>
      </trkpt>
      <trkpt lat="52.640748973935843" lon="11.61393703892827">
        <ele>53.969999999999999</ele>
        <time>2024-09-12T16:06:00Z</time>
      </trkpt>
      <trkpt lat="52.640683008357882" lon="11.618214994668961">
        <ele>49.159999999999997</ele>
        <time>2024-09-12T16:06:14Z</time>
      </trkpt>
      <trkpt lat="52.640404980629683" lon="11.620692014694214">
        <ele>46.759999999999998</ele>
        <time>2024-09-12T16:06:21Z</time>
      </trkpt>
      <trkpt lat="52.639595959335566" lon="11.625256966799498">
        <ele>43.880000000000003</ele>
        <time>2024-09-12T16:06:33Z</time>
      </trkpt>
      <trkpt lat="52.638455014675856" lon="11.631699968129396">
        <ele>41.469999999999999</ele>
        <time>2024-09-12T16:06:49Z</time>
      </trkpt>
      <trkpt lat="52.637596959248185" lon="11.636548982933164">
        <ele>39.07</ele>
        <time>2024-09-12T16:07:02Z</time>
      </trkpt>
      <trkpt lat="52.636986002326012" lon="11.640062006190419">
        <ele>39.07</ele>
        <time>2024-09-12T16:07:12Z</time>
      </trkpt>
      <trkpt lat="52.636529020965099" lon="11.64311695843935">
        <ele>40.030000000000001</ele>
        <time>2024-09-12T16:07:22Z</time>
      </trkpt>
      <trkpt lat="52.636543018743396" lon="11.643428010866046">
        <ele>40.030000000000001</ele>
        <time>2024-09-12T16:07:23Z</time>
      </trkpt>
      <trkpt lat="52.636562967672944" lon="11.643749037757516">
        <ele>40.030000000000001</ele>
        <time>2024-09-12T16:07:24Z</time>
      </trkpt>
      <trkpt lat="52.637122040614486" lon="11.647744020447135">
        <ele>38.109999999999999</ele>
        <time>2024-09-12T16:07:36Z</time>
      </trkpt>
      <trkpt lat="52.637493023648858" lon="11.651452006772161">
        <ele>39.07</ele>
        <time>2024-09-12T16:07:47Z</time>
      </trkpt>
      <trkpt lat="52.637447007000446" lon="11.65269797667861">
        <ele>40.030000000000001</ele>
        <time>2024-09-12T16:07:51Z</time>
      </trkpt>
      <trkpt lat="52.637404007837176" lon="11.652944991365075">
        <ele>40.030000000000001</ele>
        <time>2024-09-12T16:07:52Z</time>
      </trkpt>
      <trkpt lat="52.637366037815809" lon="11.65316803380847">
        <ele>40.509999999999998</ele>
        <time>2024-09-12T16:07:53Z</time>
      </trkpt>
      <trkpt lat="52.637214995920658" lon="11.653724005445838">
        <ele>40.509999999999998</ele>
        <time>2024-09-12T16:07:56Z</time>
      </trkpt>
      <trkpt lat="52.637165961787105" lon="11.653885021805763">
        <ele>40.509999999999998</ele>
        <time>2024-09-12T16:07:57Z</time>
      </trkpt>
      <trkpt lat="52.637092033401132" lon="11.654058024287224">
        <ele>40.509999999999998</ele>
        <time>2024-09-12T16:07:58Z</time>
      </trkpt>
      <trkpt lat="52.63700301758945" lon="11.654185010120273">
        <ele>40.030000000000001</ele>
        <time>2024-09-12T16:07:59Z</time>
      </trkpt>
      <trkpt lat="52.636909978464246" lon="11.654317025095224">
        <ele>40.509999999999998</ele>
        <time>2024-09-12T16:08:00Z</time>
      </trkpt>
      <trkpt lat="52.636537989601493" lon="11.654832009226084">
        <ele>39.549999999999997</ele>
        <time>2024-09-12T16:08:04Z</time>
      </trkpt>
      <trkpt lat="52.636445034295321" lon="11.654956983402371">
        <ele>39.549999999999997</ele>
        <time>2024-09-12T16:08:05Z</time>
      </trkpt>
      <trkpt lat="52.635227981954813" lon="11.656603021547198">
        <ele>38.109999999999999</ele>
        <time>2024-09-12T16:08:18Z</time>
      </trkpt>
      <trkpt lat="52.63425400480628" lon="11.658355006948113">
        <ele>38.109999999999999</ele>
        <time>2024-09-12T16:08:30Z</time>
      </trkpt>
      <trkpt lat="52.63330701738596" lon="11.66015200316906">
        <ele>36.670000000000002</ele>
        <time>2024-09-12T16:08:42Z</time>
      </trkpt>
      <trkpt lat="52.632390037178993" lon="11.661995016038418">
        <ele>38.109999999999999</ele>
        <time>2024-09-12T16:08:54Z</time>
      </trkpt>
      <trkpt lat="52.631680006161332" lon="11.663802992552519">
        <ele>39.07</ele>
        <time>2024-09-12T16:09:05Z</time>
      </trkpt>
      <trkpt lat="52.631050022318959" lon="11.665691016241908">
        <ele>39.549999999999997</ele>
        <time>2024-09-12T16:09:16Z</time>
      </trkpt>
      <trkpt lat="52.630449961870909" lon="11.667653974145651">
        <ele>40.030000000000001</ele>
        <time>2024-09-12T16:09:27Z</time>
      </trkpt>
      <trkpt lat="52.630058024078608" lon="11.669315015897155">
        <ele>40.509999999999998</ele>
        <time>2024-09-12T16:09:36Z</time>
      </trkpt>
      <trkpt lat="52.629857026040554" lon="11.67117303237319">
        <ele>39.549999999999997</ele>
        <time>2024-09-12T16:09:44Z</time>
      </trkpt>
      <trkpt lat="52.629682011902332" lon="11.67302300222218">
        <ele>39.549999999999997</ele>
        <time>2024-09-12T16:09:52Z</time>
      </trkpt>
      <trkpt lat="52.629490988329053" lon="11.674562003463507">
        <ele>40.030000000000001</ele>
        <time>2024-09-12T16:10:00Z</time>
      </trkpt>
      <trkpt lat="52.629490988329053" lon="11.674773981794715">
        <ele>40.030000000000001</ele>
        <time>2024-09-12T16:10:01Z</time>
      </trkpt>
      <trkpt lat="52.629477996379137" lon="11.675387034192681">
        <ele>40.030000000000001</ele>
        <time>2024-09-12T16:10:04Z</time>
      </trkpt>
      <trkpt lat="52.629467016085982" lon="11.675603035837412">
        <ele>40.030000000000001</ele>
        <time>2024-09-12T16:10:05Z</time>
      </trkpt>
      <trkpt lat="52.629172978922725" lon="11.677906969562173">
        <ele>40.030000000000001</ele>
        <time>2024-09-12T16:10:14Z</time>
      </trkpt>
      <trkpt lat="52.628867961466312" lon="11.681009028106928">
        <ele>38.590000000000003</ele>
        <time>2024-09-12T16:10:23Z</time>
      </trkpt>
      <trkpt lat="52.628718009218574" lon="11.684647025540471">
        <ele>38.109999999999999</ele>
        <time>2024-09-12T16:10:32Z</time>
      </trkpt>
      <trkpt lat="52.628468982875347" lon="11.689754035323858">
        <ele>38.109999999999999</ele>
        <time>2024-09-12T16:10:44Z</time>
      </trkpt>
      <trkpt lat="52.627630960196257" lon="11.694886023178697">
        <ele>40.509999999999998</ele>
        <time>2024-09-12T16:10:57Z</time>
      </trkpt>
      <trkpt lat="52.626422960311174" lon="11.702166963368654">
        <ele>43.399999999999999</ele>
        <time>2024-09-12T16:11:16Z</time>
      </trkpt>
      <trkpt lat="52.625886015594006" lon="11.705405982211232">
        <ele>44.359999999999999</ele>
        <time>2024-09-12T16:11:26Z</time>
      </trkpt>
      <trkpt lat="52.625636989250779" lon="11.70692696236074">
        <ele>45.799999999999997</ele>
        <time>2024-09-12T16:11:33Z</time>
      </trkpt>
      <trkpt lat="52.625477984547615" lon="11.70763598755002">
        <ele>46.280000000000001</ele>
        <time>2024-09-12T16:11:37Z</time>
      </trkpt>
      <trkpt lat="52.625399027019739" lon="11.707787029445171">
        <ele>46.280000000000001</ele>
        <time>2024-09-12T16:11:38Z</time>
      </trkpt>
      <trkpt lat="52.625307999551296" lon="11.707903034985065">
        <ele>46.280000000000001</ele>
        <time>2024-09-12T16:11:39Z</time>
      </trkpt>
      <trkpt lat="52.625214038416743" lon="11.70801904052496">
        <ele>46.759999999999998</ele>
        <time>2024-09-12T16:11:40Z</time>
      </trkpt>
      <trkpt lat="52.625095015391707" lon="11.708087017759681">
        <ele>46.759999999999998</ele>
        <time>2024-09-12T16:11:41Z</time>
      </trkpt>
      <trkpt lat="52.624974986538291" lon="11.708114007487893">
        <ele>46.759999999999998</ele>
        <time>2024-09-12T16:11:42Z</time>
      </trkpt>
      <trkpt lat="52.624853029847145" lon="11.708118030801415">
        <ele>46.759999999999998</ele>
        <time>2024-09-12T16:11:43Z</time>
      </trkpt>
      <trkpt lat="52.624730989336967" lon="11.708113001659513">
        <ele>46.759999999999998</ele>
        <time>2024-09-12T16:11:44Z</time>
      </trkpt>
      <trkpt lat="52.62366003356874" lon="11.707988027483225">
        <ele>45.799999999999997</ele>
        <time>2024-09-12T16:11:54Z</time>
      </trkpt>
      <trkpt lat="52.623213026672602" lon="11.70785098336637">
        <ele>45.32</ele>
        <time>2024-09-12T16:12:00Z</time>
      </trkpt>
      <trkpt lat="52.62316701002419" lon="11.707864981144667">
        <ele>45.32</ele>
        <time>2024-09-12T16:12:01Z</time>
      </trkpt>
      <trkpt lat="52.623119987547398" lon="11.707934970036149">
        <ele>45.32</ele>
        <time>2024-09-12T16:12:02Z</time>
      </trkpt>
      <trkpt lat="52.623097021132708" lon="11.708011999726295">
        <ele>45.32</ele>
        <time>2024-09-12T16:12:03Z</time>
      </trkpt>
      <trkpt lat="52.623101966455579" lon="11.708142003044486">
        <ele>44.840000000000003</ele>
        <time>2024-09-12T16:12:04Z</time>
      </trkpt>
      <trkpt lat="52.623105989769101" lon="11.708292039111257">
        <ele>44.840000000000003</ele>
        <time>2024-09-12T16:12:05Z</time>
      </trkpt>
      <trkpt lat="52.623163992539048" lon="11.710015023127198">
        <ele>43.880000000000003</ele>
        <time>2024-09-12T16:12:14Z</time>
      </trkpt>
      <trkpt lat="52.623202968388796" lon="11.712218038737774">
        <ele>43.399999999999999</ele>
        <time>2024-09-12T16:12:25Z</time>
      </trkpt>
      <trkpt lat="52.623225012794137" lon="11.714448966085911">
        <ele>42.439999999999998</ele>
        <time>2024-09-12T16:12:33Z</time>
      </trkpt>
      <trkpt lat="52.623272035270929" lon="11.718073971569538">
        <ele>40.990000000000002</ele>
        <time>2024-09-12T16:12:43Z</time>
      </trkpt>
      <trkpt lat="52.623342024162412" lon="11.723392037674785">
        <ele>40.030000000000001</ele>
        <time>2024-09-12T16:12:56Z</time>
      </trkpt>
      <trkpt lat="52.623401032760739" lon="11.728355968371034">
        <ele>43.880000000000003</ele>
        <time>2024-09-12T16:13:09Z</time>
      </trkpt>
      <trkpt lat="52.623291984200478" lon="11.731294998899102">
        <ele>44.840000000000003</ele>
        <time>2024-09-12T16:13:19Z</time>
      </trkpt>
      <trkpt lat="52.62314697727561" lon="11.734291026368737">
        <ele>43.880000000000003</ele>
        <time>2024-09-12T16:13:28Z</time>
      </trkpt>
      <trkpt lat="52.62303801253438" lon="11.737178005278111">
        <ele>40.990000000000002</ele>
        <time>2024-09-12T16:13:37Z</time>
      </trkpt>
      <trkpt lat="52.623144965618849" lon="11.740122986957431">
        <ele>38.109999999999999</ele>
        <time>2024-09-12T16:13:46Z</time>
      </trkpt>
      <trkpt lat="52.623296007514" lon="11.74383700825274">
        <ele>36.189999999999998</ele>
        <time>2024-09-12T16:13:56Z</time>
      </trkpt>
      <trkpt lat="52.623486025258899" lon="11.748505979776382">
        <ele>36.670000000000002</ele>
        <time>2024-09-12T16:14:08Z</time>
      </trkpt>
      <trkpt lat="52.623685011640191" lon="11.753380978479981">
        <ele>35.229999999999997</ele>
        <time>2024-09-12T16:14:20Z</time>
      </trkpt>
      <trkpt lat="52.623692974448204" lon="11.757471011951566">
        <ele>34.259999999999998</ele>
        <time>2024-09-12T16:14:30Z</time>
      </trkpt>
      <trkpt lat="52.623556014150381" lon="11.763395005837083">
        <ele>34.259999999999998</ele>
        <time>2024-09-12T16:14:45Z</time>
      </trkpt>
      <trkpt lat="52.623420981690288" lon="11.768750036135316">
        <ele>33.299999999999997</ele>
        <time>2024-09-12T16:14:59Z</time>
      </trkpt>
      <trkpt lat="52.623233981430531" lon="11.771033015102148">
        <ele>33.780000000000001</ele>
        <time>2024-09-12T16:15:07Z</time>
      </trkpt>
      <trkpt lat="52.622508024796844" lon="11.773810023441911">
        <ele>33.780000000000001</ele>
        <time>2024-09-12T16:15:17Z</time>
      </trkpt>
      <trkpt lat="52.621791958808899" lon="11.776809990406036">
        <ele>33.780000000000001</ele>
        <time>2024-09-12T16:15:27Z</time>
      </trkpt>
      <trkpt lat="52.621460035443306" lon="11.779411984607577">
        <ele>33.780000000000001</ele>
        <time>2024-09-12T16:15:36Z</time>
      </trkpt>
      <trkpt lat="52.620919989421964" lon="11.782041974365711">
        <ele>34.259999999999998</ele>
        <time>2024-09-12T16:15:46Z</time>
      </trkpt>
      <trkpt lat="52.620540037751198" lon="11.784542966634035">
        <ele>33.780000000000001</ele>
        <time>2024-09-12T16:15:55Z</time>
      </trkpt>
      <trkpt lat="52.620054977014661" lon="11.788717992603779">
        <ele>35.710000000000001</ele>
        <time>2024-09-12T16:16:08Z</time>
      </trkpt>
      <trkpt lat="52.619781978428364" lon="11.792227998375893">
        <ele>34.740000000000002</ele>
        <time>2024-09-12T16:16:18Z</time>
      </trkpt>
      <trkpt lat="52.619624985381961" lon="11.796085014939308">
        <ele>34.259999999999998</ele>
        <time>2024-09-12T16:16:29Z</time>
      </trkpt>
      <trkpt lat="52.619559019804001" lon="11.796404030174017">
        <ele>34.259999999999998</ele>
        <time>2024-09-12T16:16:30Z</time>
      </trkpt>
      <trkpt lat="52.619492970407009" lon="11.796722039580345">
        <ele>34.259999999999998</ele>
        <time>2024-09-12T16:16:31Z</time>
      </trkpt>
      <trkpt lat="52.619184013456106" lon="11.799036031588912">
        <ele>36.189999999999998</ele>
        <time>2024-09-12T16:16:38Z</time>
      </trkpt>
      <trkpt lat="52.619222989305854" lon="11.802252000197768">
        <ele>36.670000000000002</ele>
        <time>2024-09-12T16:16:48Z</time>
      </trkpt>
      <trkpt lat="52.619291972368956" lon="11.803922010585666">
        <ele>38.109999999999999</ele>
        <time>2024-09-12T16:16:56Z</time>
      </trkpt>
      <trkpt lat="52.619366990402341" lon="11.806084960699081">
        <ele>38.109999999999999</ele>
        <time>2024-09-12T16:17:08Z</time>
      </trkpt>
      <trkpt lat="52.619372019544244" lon="11.806242959573865">
        <ele>38.590000000000003</ele>
        <time>2024-09-12T16:17:09Z</time>
      </trkpt>
      <trkpt lat="52.619442008435726" lon="11.807988993823528">
        <ele>40.030000000000001</ele>
        <time>2024-09-12T16:17:22Z</time>
      </trkpt>
      <trkpt lat="52.619447959586978" lon="11.808075997978449">
        <ele>40.030000000000001</ele>
        <time>2024-09-12T16:17:23Z</time>
      </trkpt>
      <trkpt lat="52.61945097707212" lon="11.808149004355073">
        <ele>40.030000000000001</ele>
        <time>2024-09-12T16:17:24Z</time>
      </trkpt>
      <trkpt lat="52.619452988728881" lon="11.808219999074936">
        <ele>40.030000000000001</ele>
        <time>2024-09-12T16:17:25Z</time>
      </trkpt>
      <trkpt lat="52.619455000385642" lon="11.808274984359741">
        <ele>40.030000000000001</ele>
        <time>2024-09-12T16:17:26Z</time>
      </trkpt>
      <trkpt lat="52.619455000385642" lon="11.808274984359741">
        <ele>40.509999999999998</ele>
        <time>2024-09-12T16:17:27Z</time>
      </trkpt>
      <trkpt lat="52.619455000385642" lon="11.808274984359741">
        <ele>40.509999999999998</ele>
        <time>2024-09-12T16:17:40Z</time>
      </trkpt>
      <trkpt lat="52.619455000385642" lon="11.808274984359741">
        <ele>40.030000000000001</ele>
        <time>2024-09-12T16:18:22Z</time>
      </trkpt>
      <trkpt lat="52.619457012042403" lon="11.808342961594462">
        <ele>40.030000000000001</ele>
        <time>2024-09-12T16:18:50Z</time>
      </trkpt>
      <trkpt lat="52.619459023699164" lon="11.808399958536029">
        <ele>40.030000000000001</ele>
        <time>2024-09-12T16:18:51Z</time>
      </trkpt>
      <trkpt lat="52.619462041184306" lon="11.808498026803136">
        <ele>40.030000000000001</ele>
        <time>2024-09-12T16:18:52Z</time>
      </trkpt>
      <trkpt lat="52.619466986507177" lon="11.808624006807804">
        <ele>40.030000000000001</ele>
        <time>2024-09-12T16:18:53Z</time>
      </trkpt>
      <trkpt lat="52.6194710098207" lon="11.808763984590769">
        <ele>40.030000000000001</ele>
        <time>2024-09-12T16:18:54Z</time>
      </trkpt>
      <trkpt lat="52.619516020640731" lon="11.8102250341326">
        <ele>40.509999999999998</ele>
        <time>2024-09-12T16:19:02Z</time>
      </trkpt>
      <trkpt lat="52.619531024247408" lon="11.811707960441709">
        <ele>41.469999999999999</ele>
        <time>2024-09-12T16:19:10Z</time>
      </trkpt>
      <trkpt lat="52.619505962356925" lon="11.811895966529846">
        <ele>41.469999999999999</ele>
        <time>2024-09-12T16:19:11Z</time>
      </trkpt>
      <trkpt lat="52.619480984285474" lon="11.812086990103126">
        <ele>40.990000000000002</ele>
        <time>2024-09-12T16:19:12Z</time>
      </trkpt>
      <trkpt lat="52.618821999058127" lon="11.814396036788821">
        <ele>40.030000000000001</ele>
        <time>2024-09-12T16:19:24Z</time>
      </trkpt>
      <trkpt lat="52.618185980245471" lon="11.81654398329556">
        <ele>39.07</ele>
        <time>2024-09-12T16:19:34Z</time>
      </trkpt>
      <trkpt lat="52.617377964779735" lon="11.81929400190711">
        <ele>38.109999999999999</ele>
        <time>2024-09-12T16:19:47Z</time>
      </trkpt>
      <trkpt lat="52.616791985929012" lon="11.821287972852588">
        <ele>41.469999999999999</ele>
        <time>2024-09-12T16:19:56Z</time>
      </trkpt>
      <trkpt lat="52.615765035152435" lon="11.824822034686804">
        <ele>50.609999999999999</ele>
        <time>2024-09-12T16:20:12Z</time>
      </trkpt>
      <trkpt lat="52.615333031862974" lon="11.826290963217616">
        <ele>53.009999999999998</ele>
        <time>2024-09-12T16:20:18Z</time>
      </trkpt>
      <trkpt lat="52.614572960883379" lon="11.828849958255887">
        <ele>55.890000000000001</ele>
        <time>2024-09-12T16:20:28Z</time>
      </trkpt>
      <trkpt lat="52.614498026669025" lon="11.829105019569397">
        <ele>55.890000000000001</ele>
        <time>2024-09-12T16:20:29Z</time>
      </trkpt>
      <trkpt lat="52.6136480178684" lon="11.832085037603974">
        <ele>55.890000000000001</ele>
        <time>2024-09-12T16:20:40Z</time>
      </trkpt>
      <trkpt lat="52.613034965470433" lon="11.834181016311049">
        <ele>51.57</ele>
        <time>2024-09-12T16:20:48Z</time>
      </trkpt>
      <trkpt lat="52.612544959411025" lon="11.835747007280588">
        <ele>49.159999999999997</ele>
        <time>2024-09-12T16:20:57Z</time>
      </trkpt>
      <trkpt lat="52.6125100068748" lon="11.835845997557044">
        <ele>48.68</ele>
        <time>2024-09-12T16:20:58Z</time>
      </trkpt>
      <trkpt lat="52.612345973029733" lon="11.83600902557373">
        <ele>48.200000000000003</ele>
        <time>2024-09-12T16:21:00Z</time>
      </trkpt>
      <trkpt lat="52.612328035756946" lon="11.83611698448658">
        <ele>47.719999999999999</ele>
        <time>2024-09-12T16:21:01Z</time>
      </trkpt>
      <trkpt lat="52.612375980243087" lon="11.836290992796421">
        <ele>47.719999999999999</ele>
        <time>2024-09-12T16:21:02Z</time>
      </trkpt>
      <trkpt lat="52.612337004393339" lon="11.836435999721289">
        <ele>47.719999999999999</ele>
        <time>2024-09-12T16:21:03Z</time>
      </trkpt>
      <trkpt lat="52.612290987744927" lon="11.836604978889227">
        <ele>47.719999999999999</ele>
        <time>2024-09-12T16:21:04Z</time>
      </trkpt>
      <trkpt lat="52.6117829605937" lon="11.838581012561917">
        <ele>45.32</ele>
        <time>2024-09-12T16:21:14Z</time>
      </trkpt>
      <trkpt lat="52.611552039161325" lon="11.840365016832948">
        <ele>45.799999999999997</ele>
        <time>2024-09-12T16:21:23Z</time>
      </trkpt>
      <trkpt lat="52.610873021185398" lon="11.842152960598469">
        <ele>44.840000000000003</ele>
        <time>2024-09-12T16:21:34Z</time>
      </trkpt>
      <trkpt lat="52.610118985176086" lon="11.84410703368485">
        <ele>38.590000000000003</ele>
        <time>2024-09-12T16:21:46Z</time>
      </trkpt>
      <trkpt lat="52.609496964141726" lon="11.846225978806615">
        <ele>35.229999999999997</ele>
        <time>2024-09-12T16:21:58Z</time>
      </trkpt>
      <trkpt lat="52.609452959150076" lon="11.846399987116456">
        <ele>35.229999999999997</ele>
        <time>2024-09-12T16:21:59Z</time>
      </trkpt>
      <trkpt lat="52.608951972797513" lon="11.848509963601828">
        <ele>37.630000000000003</ele>
        <time>2024-09-12T16:22:11Z</time>
      </trkpt>
      <trkpt lat="52.608602028340101" lon="11.84997595846653">
        <ele>39.07</ele>
        <time>2024-09-12T16:22:20Z</time>
      </trkpt>
      <trkpt lat="52.608460960909724" lon="11.850564032793045">
        <ele>37.630000000000003</ele>
        <time>2024-09-12T16:22:25Z</time>
      </trkpt>
      <trkpt lat="52.608355013653636" lon="11.850685989484191">
        <ele>37.630000000000003</ele>
        <time>2024-09-12T16:22:26Z</time>
      </trkpt>
      <trkpt lat="52.608335986733437" lon="11.850723037496209">
        <ele>37.630000000000003</ele>
        <time>2024-09-12T16:22:27Z</time>
      </trkpt>
      <trkpt lat="52.608289970085025" lon="11.850849017500877">
        <ele>37.149999999999999</ele>
        <time>2024-09-12T16:22:28Z</time>
      </trkpt>
      <trkpt lat="52.608289970085025" lon="11.850943984463811">
        <ele>37.149999999999999</ele>
        <time>2024-09-12T16:22:29Z</time>
      </trkpt>
      <trkpt lat="52.608316037803888" lon="11.851142970845103">
        <ele>37.149999999999999</ele>
        <time>2024-09-12T16:22:30Z</time>
      </trkpt>
      <trkpt lat="52.608265997841954" lon="11.851261993870139">
        <ele>37.149999999999999</ele>
        <time>2024-09-12T16:22:31Z</time>
      </trkpt>
      <trkpt lat="52.608211012557149" lon="11.85139199718833">
        <ele>36.670000000000002</ele>
        <time>2024-09-12T16:22:32Z</time>
      </trkpt>
      <trkpt lat="52.608161978423595" lon="11.851517977192998">
        <ele>36.670000000000002</ele>
        <time>2024-09-12T16:22:33Z</time>
      </trkpt>
      <trkpt lat="52.608034992590547" lon="11.8518649879843">
        <ele>36.670000000000002</ele>
        <time>2024-09-12T16:22:36Z</time>
      </trkpt>
      <trkpt lat="52.608009008690715" lon="11.851974036544561">
        <ele>36.670000000000002</ele>
        <time>2024-09-12T16:22:37Z</time>
      </trkpt>
      <trkpt lat="52.608001967892051" lon="11.852113008499146">
        <ele>36.670000000000002</ele>
        <time>2024-09-12T16:22:38Z</time>
      </trkpt>
      <trkpt lat="52.607995010912418" lon="11.852261032909155">
        <ele>36.670000000000002</ele>
        <time>2024-09-12T16:22:39Z</time>
      </trkpt>
      <trkpt lat="52.607991993427277" lon="11.852415008470416">
        <ele>36.189999999999998</ele>
        <time>2024-09-12T16:22:40Z</time>
      </trkpt>
      <trkpt lat="52.60799702256918" lon="11.852578958496451">
        <ele>36.670000000000002</ele>
        <time>2024-09-12T16:22:41Z</time>
      </trkpt>
      <trkpt lat="52.608002973720431" lon="11.852747015655041">
        <ele>36.670000000000002</ele>
        <time>2024-09-12T16:22:42Z</time>
      </trkpt>
      <trkpt lat="52.60806399397552" lon="11.853232998400927">
        <ele>36.670000000000002</ele>
        <time>2024-09-12T16:22:45Z</time>
      </trkpt>
      <trkpt lat="52.608100036159158" lon="11.853386973962188">
        <ele>36.670000000000002</ele>
        <time>2024-09-12T16:22:46Z</time>
      </trkpt>
      <trkpt lat="52.608134988695383" lon="11.853541033342481">
        <ele>36.670000000000002</ele>
        <time>2024-09-12T16:22:47Z</time>
      </trkpt>
      <trkpt lat="52.608559029176831" lon="11.855637012049556">
        <ele>35.229999999999997</ele>
        <time>2024-09-12T16:23:00Z</time>
      </trkpt>
      <trkpt lat="52.608690960332751" lon="11.856273030862212">
        <ele>34.740000000000002</ele>
        <time>2024-09-12T16:23:07Z</time>
      </trkpt>
      <trkpt lat="52.608707975596189" lon="11.85633203946054">
        <ele>34.259999999999998</ele>
        <time>2024-09-12T16:23:16Z</time>
      </trkpt>
      <trkpt lat="52.608788022771478" lon="11.856610989198089">
        <ele>32.82</ele>
        <time>2024-09-12T16:23:32Z</time>
      </trkpt>
      <trkpt lat="52.608754998072982" lon="11.85672297142446">
        <ele>32.340000000000003</ele>
        <time>2024-09-12T16:23:33Z</time>
      </trkpt>
      <trkpt lat="52.608725996688008" lon="11.856751972809434">
        <ele>31.859999999999999</ele>
        <time>2024-09-12T16:23:34Z</time>
      </trkpt>
      <trkpt lat="52.608690960332751" lon="11.856787009164691">
        <ele>31.859999999999999</ele>
        <time>2024-09-12T16:23:35Z</time>
      </trkpt>
      <trkpt lat="52.608456015586853" lon="11.857062019407749">
        <ele>30.899999999999999</ele>
        <time>2024-09-12T16:23:43Z</time>
      </trkpt>
      <trkpt lat="52.608422990888357" lon="11.857102001085877">
        <ele>30.899999999999999</ele>
        <time>2024-09-12T16:23:44Z</time>
      </trkpt>
      <trkpt lat="52.608289970085025" lon="11.857268968597054">
        <ele>29.940000000000001</ele>
        <time>2024-09-12T16:23:48Z</time>
      </trkpt>
      <trkpt lat="52.60825602337718" lon="11.857310961931944">
        <ele>29.460000000000001</ele>
        <time>2024-09-12T16:23:49Z</time>
      </trkpt>
      <trkpt lat="52.608087966218591" lon="11.857522018253803">
        <ele>28.02</ele>
        <time>2024-09-12T16:23:54Z</time>
      </trkpt>
      <trkpt lat="52.607918987050653" lon="11.857746988534927">
        <ele>26.57</ele>
        <time>2024-09-12T16:23:59Z</time>
      </trkpt>
      <trkpt lat="52.607880011200905" lon="11.857799040153623">
        <ele>26.09</ele>
        <time>2024-09-12T16:24:00Z</time>
      </trkpt>
      <trkpt lat="52.607838017866015" lon="11.857855031266809">
        <ele>26.09</ele>
        <time>2024-09-12T16:24:01Z</time>
      </trkpt>
      <trkpt lat="52.607745984569192" lon="11.857977993786335">
        <ele>25.609999999999999</ele>
        <time>2024-09-12T16:24:03Z</time>
      </trkpt>
      <trkpt lat="52.607698040083051" lon="11.858037002384663">
        <ele>25.129999999999999</ele>
        <time>2024-09-12T16:24:04Z</time>
      </trkpt>
      <trkpt lat="52.607645988464355" lon="11.858089976012707">
        <ele>25.129999999999999</ele>
        <time>2024-09-12T16:24:05Z</time>
      </trkpt>
      <trkpt lat="52.607597960159183" lon="11.858136998489499">
        <ele>24.649999999999999</ele>
        <time>2024-09-12T16:24:06Z</time>
      </trkpt>
      <trkpt lat="52.607564013451338" lon="11.858172034844756">
        <ele>24.170000000000002</ele>
        <time>2024-09-12T16:24:07Z</time>
      </trkpt>
      <trkpt lat="52.607540963217616" lon="11.858193995431066">
        <ele>24.170000000000002</ele>
        <time>2024-09-12T16:24:08Z</time>
      </trkpt>
      <trkpt lat="52.60752403177321" lon="11.858212016522884">
        <ele>23.690000000000001</ele>
        <time>2024-09-12T16:24:09Z</time>
      </trkpt>
      <trkpt lat="52.607328984886408" lon="11.858405973762274">
        <ele>21.77</ele>
        <time>2024-09-12T16:24:17Z</time>
      </trkpt>
      <trkpt lat="52.607194036245346" lon="11.858590040355921">
        <ele>21.289999999999999</ele>
        <time>2024-09-12T16:24:20Z</time>
      </trkpt>
      <trkpt lat="52.607112983241677" lon="11.858708979561925">
        <ele>20.809999999999999</ele>
        <time>2024-09-12T16:24:22Z</time>
      </trkpt>
      <trkpt lat="52.606801008805633" lon="11.859160009771585">
        <ele>21.289999999999999</ele>
        <time>2024-09-12T16:24:29Z</time>
      </trkpt>
      <trkpt lat="52.606758009642363" lon="11.859222035855055">
        <ele>21.77</ele>
        <time>2024-09-12T16:24:30Z</time>
      </trkpt>
      <trkpt lat="52.606676034629345" lon="11.859340975061059">
        <ele>22.25</ele>
        <time>2024-09-12T16:24:32Z</time>
      </trkpt>
      <trkpt lat="52.606637980788946" lon="11.859401995316148">
        <ele>22.25</ele>
        <time>2024-09-12T16:24:33Z</time>
      </trkpt>
      <trkpt lat="52.60617203079164" lon="11.860152008011937">
        <ele>24.170000000000002</ele>
        <time>2024-09-12T16:24:45Z</time>
      </trkpt>
      <trkpt lat="52.606056025251746" lon="11.860333979129791">
        <ele>25.129999999999999</ele>
        <time>2024-09-12T16:24:48Z</time>
      </trkpt>
      <trkpt lat="52.605977989733219" lon="11.860447973012924">
        <ele>26.09</ele>
        <time>2024-09-12T16:24:50Z</time>
      </trkpt>
      <trkpt lat="52.605948988348246" lon="11.860490972176194">
        <ele>26.09</ele>
        <time>2024-09-12T16:24:51Z</time>
      </trkpt>
      <trkpt lat="52.605924010276794" lon="11.860526008531451">
        <ele>26.09</ele>
        <time>2024-09-12T16:24:52Z</time>
      </trkpt>
      <trkpt lat="52.60578403249383" lon="11.860469011589885">
        <ele>26.09</ele>
        <time>2024-09-12T16:24:53Z</time>
      </trkpt>
      <trkpt lat="52.605769028887153" lon="11.860424000769854">
        <ele>25.609999999999999</ele>
        <time>2024-09-12T16:24:54Z</time>
      </trkpt>
      <trkpt lat="52.605751007795334" lon="11.86037203297019">
        <ele>25.609999999999999</ele>
        <time>2024-09-12T16:24:55Z</time>
      </trkpt>
      <trkpt lat="52.605541041120887" lon="11.859759986400604">
        <ele>22.73</ele>
        <time>2024-09-12T16:25:06Z</time>
      </trkpt>
      <trkpt lat="52.605333002284169" lon="11.859055990353227">
        <ele>21.289999999999999</ele>
        <time>2024-09-12T16:25:16Z</time>
      </trkpt>
      <trkpt lat="52.605321016162634" lon="11.858993964269757">
        <ele>21.289999999999999</ele>
        <time>2024-09-12T16:25:17Z</time>
      </trkpt>
      <trkpt lat="52.605311963707209" lon="11.858943002298474">
        <ele>21.289999999999999</ele>
        <time>2024-09-12T16:25:18Z</time>
      </trkpt>
      <trkpt lat="52.605180032551289" lon="11.858792966231704">
        <ele>21.289999999999999</ele>
        <time>2024-09-12T16:25:19Z</time>
      </trkpt>
      <trkpt lat="52.605156982317567" lon="11.858820961788297">
        <ele>21.289999999999999</ele>
        <time>2024-09-12T16:25:20Z</time>
      </trkpt>
      <trkpt lat="52.605134015902877" lon="11.858848035335541">
        <ele>21.77</ele>
        <time>2024-09-12T16:25:21Z</time>
      </trkpt>
      <trkpt lat="52.605113983154297" lon="11.858873013406992">
        <ele>21.77</ele>
        <time>2024-09-12T16:25:22Z</time>
      </trkpt>
      <trkpt lat="52.605095040053129" lon="11.858896985650063">
        <ele>21.289999999999999</ele>
        <time>2024-09-12T16:25:23Z</time>
      </trkpt>
      <trkpt lat="52.605074001476169" lon="11.858921963721514">
        <ele>21.289999999999999</ele>
        <time>2024-09-12T16:25:24Z</time>
      </trkpt>
      <trkpt lat="52.605048017576337" lon="11.858953982591629">
        <ele>21.289999999999999</ele>
        <time>2024-09-12T16:25:25Z</time>
      </trkpt>
      <trkpt lat="52.605019016191363" lon="11.858989018946886">
        <ele>20.809999999999999</ele>
        <time>2024-09-12T16:25:26Z</time>
      </trkpt>
      <trkpt lat="52.604983979836106" lon="11.859031012281775">
        <ele>20.809999999999999</ele>
        <time>2024-09-12T16:25:27Z</time>
      </trkpt>
      <trkpt lat="52.60494701564312" lon="11.859077028930187">
        <ele>20.809999999999999</ele>
        <time>2024-09-12T16:25:28Z</time>
      </trkpt>
      <trkpt lat="52.604913990944624" lon="11.859117010608315">
        <ele>20.809999999999999</ele>
        <time>2024-09-12T16:25:29Z</time>
      </trkpt>
      <trkpt lat="52.604828998446465" lon="11.859221030026674">
        <ele>21.77</ele>
        <time>2024-09-12T16:25:32Z</time>
      </trkpt>
      <trkpt lat="52.604779964312911" lon="11.859309962019324">
        <ele>22.25</ele>
        <time>2024-09-12T16:25:33Z</time>
      </trkpt>
      <trkpt lat="52.604802008718252" lon="11.85936201363802">
        <ele>22.25</ele>
        <time>2024-09-12T16:25:34Z</time>
      </trkpt>
      <trkpt lat="52.604836039245129" lon="11.859440971165895">
        <ele>22.73</ele>
        <time>2024-09-12T16:25:35Z</time>
      </trkpt>
      <trkpt lat="52.604851964861155" lon="11.859479025006294">
        <ele>23.210000000000001</ele>
        <time>2024-09-12T16:25:36Z</time>
      </trkpt>
      <trkpt lat="52.604906028136611" lon="11.859601987525821">
        <ele>23.690000000000001</ele>
        <time>2024-09-12T16:25:38Z</time>
      </trkpt>
      <trkpt lat="52.604965036734939" lon="11.859736014157534">
        <ele>23.690000000000001</ele>
        <time>2024-09-12T16:25:40Z</time>
      </trkpt>
      <trkpt lat="52.604995965957642" lon="11.859803991392255">
        <ele>24.170000000000002</ele>
        <time>2024-09-12T16:25:41Z</time>
      </trkpt>
      <trkpt lat="52.605029996484518" lon="11.859867023304105">
        <ele>24.170000000000002</ele>
        <time>2024-09-12T16:25:42Z</time>
      </trkpt>
      <trkpt lat="52.605064027011395" lon="11.859932988882065">
        <ele>24.170000000000002</ele>
        <time>2024-09-12T16:25:43Z</time>
      </trkpt>
      <trkpt lat="52.605099985376" lon="11.860001971945167">
        <ele>24.170000000000002</ele>
        <time>2024-09-12T16:25:44Z</time>
      </trkpt>
      <trkpt lat="52.605202998965979" lon="11.860196013003588">
        <ele>24.649999999999999</ele>
        <time>2024-09-12T16:25:47Z</time>
      </trkpt>
      <trkpt lat="52.605237029492855" lon="11.860261978581548">
        <ele>24.649999999999999</ele>
        <time>2024-09-12T16:25:48Z</time>
      </trkpt>
      <trkpt lat="52.6052709762007" lon="11.860325010493398">
        <ele>25.129999999999999</ele>
        <time>2024-09-12T16:25:49Z</time>
      </trkpt>
      <trkpt lat="52.605300983414054" lon="11.860384019091725">
        <ele>25.129999999999999</ele>
        <time>2024-09-12T16:25:50Z</time>
      </trkpt>
      <trkpt lat="52.605329984799027" lon="11.860439004376531">
        <ele>25.609999999999999</ele>
        <time>2024-09-12T16:25:51Z</time>
      </trkpt>
      <trkpt lat="52.605360997840762" lon="11.860497007146478">
        <ele>26.09</ele>
        <time>2024-09-12T16:25:52Z</time>
      </trkpt>
      <trkpt lat="52.60557297617197" lon="11.860900009050965">
        <ele>27.050000000000001</ele>
        <time>2024-09-12T16:26:01Z</time>
      </trkpt>
      <trkpt lat="52.605629973113537" lon="11.861006962135434">
        <ele>27.050000000000001</ele>
        <time>2024-09-12T16:26:03Z</time>
      </trkpt>
      <trkpt lat="52.605629973113537" lon="11.861006962135434">
        <ele>27.050000000000001</ele>
        <time>2024-09-12T16:26:04Z</time>
      </trkpt>
      <trkpt lat="52.605629973113537" lon="11.861007967963815">
        <ele>26.57</ele>
        <time>2024-09-12T16:26:05Z</time>
      </trkpt>
      <trkpt lat="52.60574396699667" lon="11.861139982938766">
        <ele>27.530000000000001</ele>
        <time>2024-09-12T16:26:20Z</time>
      </trkpt>
      <trkpt lat="52.60574396699667" lon="11.861139982938766">
        <ele>28.02</ele>
        <time>2024-09-12T16:27:01Z</time>
      </trkpt>
      <trkpt lat="52.60574396699667" lon="11.861139982938766">
        <ele>27.530000000000001</ele>
        <time>2024-09-12T16:27:41Z</time>
      </trkpt>
      <trkpt lat="52.60574396699667" lon="11.861139982938766">
        <ele>27.530000000000001</ele>
        <time>2024-09-12T16:28:24Z</time>
      </trkpt>
      <trkpt lat="52.60574396699667" lon="11.861139982938766">
        <ele>28.02</ele>
        <time>2024-09-12T16:29:08Z</time>
      </trkpt>
      <trkpt lat="52.60574396699667" lon="11.861139982938766">
        <ele>28.02</ele>
        <time>2024-09-12T16:29:40Z</time>
      </trkpt>
      <trkpt lat="52.605865001678467" lon="11.861413987353444">
        <ele>28.98</ele>
        <time>2024-09-12T16:29:48Z</time>
      </trkpt>
      <trkpt lat="52.605865001678467" lon="11.861413987353444">
        <ele>28.02</ele>
        <time>2024-09-12T16:30:01Z</time>
      </trkpt>
      <trkpt lat="52.605931973084807" lon="11.861577015370131">
        <ele>24.170000000000002</ele>
        <time>2024-09-12T16:30:16Z</time>
      </trkpt>
    </trkseg>
  </trk>

</gpx>